<?xml version='1.0' encoding='UTF-8'?><gpx version="1.1" creator="JPX - https://github.com/jenetics/jpx" xmlns="http://www.topografix.com/GPX/1/1"><trk><trkseg><trkpt lat="44.9213602" lon="9.6108015"><ele>131.0</ele><time>2026-03-26T09:19:04.987Z</time></trkpt><trkpt lat="44.9213042" lon="9.6107245"><ele>131.0</ele><time>2026-03-26T09:19:05.987Z</time></trkpt><trkpt lat="44.9212255" lon="9.6106136"><ele>131.0</ele><time>2026-03-26T09:19:07.987Z</time></trkpt><trkpt lat="44.9211928" lon="9.610532"><ele>131.0</ele><time>2026-03-26T09:19:09.987Z</time></trkpt><trkpt lat="44.9211612" lon="9.6104467"><ele>131.0</ele><time>2026-03-26T09:19:12.978Z</time></trkpt><trkpt lat="44.9211171" lon="9.6103211"><ele>131.0</ele><time>2026-03-26T09:19:14.992Z</time></trkpt><trkpt lat="44.9209683" lon="9.6105683"><ele>132.0</ele><time>2026-03-26T09:19:20.986Z</time></trkpt><trkpt lat="44.9208883" lon="9.610725"><ele>133.0</ele><time>2026-03-26T09:19:22.987Z</time></trkpt><trkpt lat="44.9208367" lon="9.6108167"><ele>134.0</ele><time>2026-03-26T09:19:23.986Z</time></trkpt><trkpt lat="44.9207817" lon="9.6109117"><ele>135.0</ele><time>2026-03-26T09:19:24.987Z</time></trkpt><trkpt lat="44.9207233" lon="9.611"><ele>136.0</ele><time>2026-03-26T09:19:25.987Z</time></trkpt><trkpt lat="44.9206617" lon="9.61109"><ele>137.4</ele><time>2026-03-26T09:19:26.992Z</time></trkpt><trkpt lat="44.9205833" lon="9.6111833"><ele>138.8</ele><time>2026-03-26T09:19:27.987Z</time></trkpt><trkpt lat="44.920495" lon="9.6112767"><ele>140.20000000000002</ele><time>2026-03-26T09:19:28.986Z</time></trkpt><trkpt lat="44.9204017" lon="9.6113767"><ele>141.6</ele><time>2026-03-26T09:19:29.987Z</time></trkpt><trkpt lat="44.920315" lon="9.6114917"><ele>143.0</ele><time>2026-03-26T09:19:30.989Z</time></trkpt><trkpt lat="44.9202283" lon="9.6116217"><ele>143.0</ele><time>2026-03-26T09:19:31.987Z</time></trkpt><trkpt lat="44.92015" lon="9.6117617"><ele>143.0</ele><time>2026-03-26T09:19:32.987Z</time></trkpt><trkpt lat="44.9200733" lon="9.61191"><ele>143.0</ele><time>2026-03-26T09:19:33.986Z</time></trkpt><trkpt lat="44.9200017" lon="9.6120517"><ele>143.0</ele><time>2026-03-26T09:19:34.991Z</time></trkpt><trkpt lat="44.9199383" lon="9.6121767"><ele>144.5</ele><time>2026-03-26T09:19:35.988Z</time></trkpt><trkpt lat="44.919885" lon="9.6122783"><ele>146.0</ele><time>2026-03-26T09:19:36.986Z</time></trkpt><trkpt lat="44.9198383" lon="9.61237"><ele>147.5</ele><time>2026-03-26T09:19:37.987Z</time></trkpt><trkpt lat="44.9198" lon="9.61245"><ele>149.0</ele><time>2026-03-26T09:19:38.986Z</time></trkpt><trkpt lat="44.9197617" lon="9.61253"><ele>150.5</ele><time>2026-03-26T09:19:39.987Z</time></trkpt><trkpt lat="44.9196883" lon="9.61265"><ele>152.0</ele><time>2026-03-26T09:19:41.986Z</time></trkpt><trkpt lat="44.9195917" lon="9.612635"><ele>152.0</ele><time>2026-03-26T09:19:43.987Z</time></trkpt><trkpt lat="44.9195267" lon="9.6125717"><ele>152.0</ele><time>2026-03-26T09:19:44.987Z</time></trkpt><trkpt lat="44.919455" lon="9.612505"><ele>152.0</ele><time>2026-03-26T09:19:45.987Z</time></trkpt><trkpt lat="44.91938" lon="9.6124433"><ele>152.0</ele><time>2026-03-26T09:19:46.986Z</time></trkpt><trkpt lat="44.9193083" lon="9.61239"><ele>152.0</ele><time>2026-03-26T09:19:47.987Z</time></trkpt><trkpt lat="44.919235" lon="9.612345"><ele>152.0</ele><time>2026-03-26T09:19:48.987Z</time></trkpt><trkpt lat="44.919155" lon="9.6123067"><ele>152.66666666666666</ele><time>2026-03-26T09:19:49.986Z</time></trkpt><trkpt lat="44.91908" lon="9.61226"><ele>153.33333333333331</ele><time>2026-03-26T09:19:50.986Z</time></trkpt><trkpt lat="44.9190183" lon="9.6122267"><ele>154.0</ele><time>2026-03-26T09:19:51.987Z</time></trkpt><trkpt lat="44.9189467" lon="9.612185"><ele>154.66666666666666</ele><time>2026-03-26T09:19:53.987Z</time></trkpt><trkpt lat="44.9188833" lon="9.6121767"><ele>155.33333333333334</ele><time>2026-03-26T09:19:57.986Z</time></trkpt><trkpt lat="44.9189667" lon="9.612215"><ele>156.0</ele><time>2026-03-26T09:20:01.987Z</time></trkpt><trkpt lat="44.91905" lon="9.6122683"><ele>156.0</ele><time>2026-03-26T09:20:03.986Z</time></trkpt><trkpt lat="44.9191517" lon="9.612335"><ele>156.0</ele><time>2026-03-26T09:20:05.989Z</time></trkpt><trkpt lat="44.9192033" lon="9.6124567"><ele>156.0</ele><time>2026-03-26T09:20:07.989Z</time></trkpt><trkpt lat="44.9191633" lon="9.6126033"><ele>156.0</ele><time>2026-03-26T09:20:09.988Z</time></trkpt><trkpt lat="44.919125" lon="9.612685"><ele>156.0</ele><time>2026-03-26T09:20:10.989Z</time></trkpt><trkpt lat="44.919085" lon="9.6127767"><ele>156.2</ele><time>2026-03-26T09:20:11.988Z</time></trkpt><trkpt lat="44.91904" lon="9.6128867"><ele>156.39999999999998</ele><time>2026-03-26T09:20:12.988Z</time></trkpt><trkpt lat="44.9189967" lon="9.613005"><ele>156.6</ele><time>2026-03-26T09:20:13.989Z</time></trkpt><trkpt lat="44.9189517" lon="9.6131267"><ele>156.79999999999998</ele><time>2026-03-26T09:20:14.987Z</time></trkpt><trkpt lat="44.918905" lon="9.6132533"><ele>157.0</ele><time>2026-03-26T09:20:15.988Z</time></trkpt><trkpt lat="44.91886" lon="9.6133917"><ele>157.0</ele><time>2026-03-26T09:20:16.989Z</time></trkpt><trkpt lat="44.9188167" lon="9.613535"><ele>157.0</ele><time>2026-03-26T09:20:17.989Z</time></trkpt><trkpt lat="44.91877" lon="9.6136883"><ele>157.0</ele><time>2026-03-26T09:20:18.988Z</time></trkpt><trkpt lat="44.9187233" lon="9.6138467"><ele>157.0</ele><time>2026-03-26T09:20:19.989Z</time></trkpt><trkpt lat="44.918675" lon="9.61399"><ele>157.16666666666669</ele><time>2026-03-26T09:20:20.988Z</time></trkpt><trkpt lat="44.9186317" lon="9.6141133"><ele>157.33333333333334</ele><time>2026-03-26T09:20:21.988Z</time></trkpt><trkpt lat="44.918595" lon="9.61422"><ele>157.5</ele><time>2026-03-26T09:20:22.989Z</time></trkpt><trkpt lat="44.9185617" lon="9.6143267"><ele>157.66666666666666</ele><time>2026-03-26T09:20:23.989Z</time></trkpt><trkpt lat="44.9185183" lon="9.61444"><ele>157.83333333333331</ele><time>2026-03-26T09:20:24.988Z</time></trkpt><trkpt lat="44.918475" lon="9.614555"><ele>158.0</ele><time>2026-03-26T09:20:25.989Z</time></trkpt><trkpt lat="44.91843" lon="9.6146783"><ele>158.60000000000002</ele><time>2026-03-26T09:20:26.987Z</time></trkpt><trkpt lat="44.918375" lon="9.6148117"><ele>159.20000000000002</ele><time>2026-03-26T09:20:27.987Z</time></trkpt><trkpt lat="44.9183133" lon="9.6149533"><ele>159.8</ele><time>2026-03-26T09:20:28.988Z</time></trkpt><trkpt lat="44.918255" lon="9.6150867"><ele>160.4</ele><time>2026-03-26T09:20:29.989Z</time></trkpt><trkpt lat="44.9182017" lon="9.6152067"><ele>161.0</ele><time>2026-03-26T09:20:30.989Z</time></trkpt><trkpt lat="44.9181567" lon="9.61532"><ele>161.16666666666666</ele><time>2026-03-26T09:20:31.989Z</time></trkpt><trkpt lat="44.9181133" lon="9.61542"><ele>161.33333333333331</ele><time>2026-03-26T09:20:32.99Z</time></trkpt><trkpt lat="44.91807" lon="9.6155183"><ele>161.5</ele><time>2026-03-26T09:20:33.988Z</time></trkpt><trkpt lat="44.918025" lon="9.615615"><ele>161.66666666666666</ele><time>2026-03-26T09:20:34.988Z</time></trkpt><trkpt lat="44.91798" lon="9.61571"><ele>161.83333333333334</ele><time>2026-03-26T09:20:35.989Z</time></trkpt><trkpt lat="44.9179417" lon="9.6158"><ele>162.0</ele><time>2026-03-26T09:20:36.988Z</time></trkpt><trkpt lat="44.9179067" lon="9.61588"><ele>162.0</ele><time>2026-03-26T09:20:37.989Z</time></trkpt><trkpt lat="44.9178283" lon="9.6159733"><ele>162.0</ele><time>2026-03-26T09:20:39.986Z</time></trkpt><trkpt lat="44.9177283" lon="9.6159417"><ele>162.0</ele><time>2026-03-26T09:20:41.987Z</time></trkpt><trkpt lat="44.9176633" lon="9.6158917"><ele>162.0</ele><time>2026-03-26T09:20:42.991Z</time></trkpt><trkpt lat="44.9175867" lon="9.6158317"><ele>162.0</ele><time>2026-03-26T09:20:43.987Z</time></trkpt><trkpt lat="44.9175033" lon="9.6157717"><ele>162.28571428571428</ele><time>2026-03-26T09:20:44.988Z</time></trkpt><trkpt lat="44.9174267" lon="9.61572"><ele>162.57142857142856</ele><time>2026-03-26T09:20:45.987Z</time></trkpt><trkpt lat="44.9173583" lon="9.6156783"><ele>162.85714285714283</ele><time>2026-03-26T09:20:46.986Z</time></trkpt><trkpt lat="44.9172967" lon="9.615635"><ele>163.14285714285714</ele><time>2026-03-26T09:20:47.986Z</time></trkpt><trkpt lat="44.917235" lon="9.61559"><ele>163.42857142857142</ele><time>2026-03-26T09:20:48.986Z</time></trkpt><trkpt lat="44.9171683" lon="9.615545"><ele>163.7142857142857</ele><time>2026-03-26T09:20:49.988Z</time></trkpt><trkpt lat="44.9170983" lon="9.6155"><ele>164.0</ele><time>2026-03-26T09:20:50.987Z</time></trkpt><trkpt lat="44.9170217" lon="9.6154583"><ele>164.0</ele><time>2026-03-26T09:20:51.987Z</time></trkpt><trkpt lat="44.9169533" lon="9.6154233"><ele>164.0</ele><time>2026-03-26T09:20:52.987Z</time></trkpt><trkpt lat="44.91689" lon="9.6153917"><ele>164.0</ele><time>2026-03-26T09:20:53.987Z</time></trkpt><trkpt lat="44.9167867" lon="9.61534"><ele>164.0</ele><time>2026-03-26T09:20:55.987Z</time></trkpt><trkpt lat="44.9166967" lon="9.6153117"><ele>164.0</ele><time>2026-03-26T09:20:57.986Z</time></trkpt><trkpt lat="44.9166217" lon="9.6152833"><ele>164.0</ele><time>2026-03-26T09:20:59.988Z</time></trkpt><trkpt lat="44.9165533" lon="9.615245"><ele>163.0</ele><time>2026-03-26T09:21:01.987Z</time></trkpt><trkpt lat="44.916475" lon="9.615195"><ele>162.0</ele><time>2026-03-26T09:21:03.987Z</time></trkpt><trkpt lat="44.9163817" lon="9.6151433"><ele>161.0</ele><time>2026-03-26T09:21:05.99Z</time></trkpt><trkpt lat="44.9162967" lon="9.61509"><ele>160.0</ele><time>2026-03-26T09:21:07.989Z</time></trkpt><trkpt lat="44.9162117" lon="9.6150333"><ele>159.0</ele><time>2026-03-26T09:21:09.989Z</time></trkpt><trkpt lat="44.91612" lon="9.6149767"><ele>159.0</ele><time>2026-03-26T09:21:11.986Z</time></trkpt><trkpt lat="44.9160233" lon="9.614915"><ele>159.0</ele><time>2026-03-26T09:21:13.987Z</time></trkpt><trkpt lat="44.915925" lon="9.61485"><ele>159.0</ele><time>2026-03-26T09:21:15.987Z</time></trkpt><trkpt lat="44.9158317" lon="9.6147867"><ele>159.0</ele><time>2026-03-26T09:21:17.987Z</time></trkpt><trkpt lat="44.9157483" lon="9.61473"><ele>159.0</ele><time>2026-03-26T09:21:19.987Z</time></trkpt><trkpt lat="44.9156817" lon="9.614685"><ele>159.5</ele><time>2026-03-26T09:21:21.986Z</time></trkpt><trkpt lat="44.9156233" lon="9.6146483"><ele>160.0</ele><time>2026-03-26T09:21:24.988Z</time></trkpt><trkpt lat="44.91554" lon="9.6145883"><ele>160.5</ele><time>2026-03-26T09:21:30.988Z</time></trkpt><trkpt lat="44.91547" lon="9.6145417"><ele>161.0</ele><time>2026-03-26T09:21:32.988Z</time></trkpt><trkpt lat="44.9153817" lon="9.6145267"><ele>161.5</ele><time>2026-03-26T09:21:42.988Z</time></trkpt><trkpt lat="44.9153" lon="9.6145183"><ele>162.0</ele><time>2026-03-26T09:21:44.989Z</time></trkpt><trkpt lat="44.9152083" lon="9.6144733"><ele>162.0</ele><time>2026-03-26T09:21:46.987Z</time></trkpt><trkpt lat="44.9151267" lon="9.6143983"><ele>162.0</ele><time>2026-03-26T09:21:48.988Z</time></trkpt><trkpt lat="44.915055" lon="9.6143317"><ele>162.0</ele><time>2026-03-26T09:21:50.99Z</time></trkpt><trkpt lat="44.914955" lon="9.6143233"><ele>162.0</ele><time>2026-03-26T09:21:52.989Z</time></trkpt><trkpt lat="44.9148483" lon="9.6143417"><ele>162.0</ele><time>2026-03-26T09:21:54.989Z</time></trkpt><trkpt lat="44.9147367" lon="9.6143617"><ele>163.16666666666666</ele><time>2026-03-26T09:21:56.989Z</time></trkpt><trkpt lat="44.91464" lon="9.614375"><ele>164.33333333333334</ele><time>2026-03-26T09:21:58.987Z</time></trkpt><trkpt lat="44.9145583" lon="9.6143617"><ele>165.5</ele><time>2026-03-26T09:22:00.987Z</time></trkpt><trkpt lat="44.91449" lon="9.6143867"><ele>166.66666666666669</ele><time>2026-03-26T09:22:03.986Z</time></trkpt><trkpt lat="44.9143817" lon="9.6144017"><ele>167.83333333333334</ele><time>2026-03-26T09:22:17.988Z</time></trkpt><trkpt lat="44.9143217" lon="9.61444"><ele>169.0</ele><time>2026-03-26T09:22:19.987Z</time></trkpt><trkpt lat="44.91426" lon="9.6144983"><ele>170.0</ele><time>2026-03-26T09:22:21.987Z</time></trkpt><trkpt lat="44.914125" lon="9.6145517"><ele>171.0</ele><time>2026-03-26T09:22:34.987Z</time></trkpt><trkpt lat="44.91409" lon="9.6144483"><ele>172.0</ele><time>2026-03-26T09:22:37.987Z</time></trkpt><trkpt lat="44.9140683" lon="9.6143633"><ele>173.0</ele><time>2026-03-26T09:22:40.991Z</time></trkpt><trkpt lat="44.9140033" lon="9.614375"><ele>174.0</ele><time>2026-03-26T09:22:56.987Z</time></trkpt><trkpt lat="44.9139533" lon="9.614455"><ele>175.0</ele><time>2026-03-26T09:25:00.987Z</time></trkpt><trkpt lat="44.9138833" lon="9.6145267"><ele>175.66666666666669</ele><time>2026-03-26T09:25:02.987Z</time></trkpt><trkpt lat="44.9138133" lon="9.6145867"><ele>176.33333333333334</ele><time>2026-03-26T09:25:04.988Z</time></trkpt><trkpt lat="44.9137433" lon="9.6146433"><ele>177.0</ele><time>2026-03-26T09:25:06.988Z</time></trkpt><trkpt lat="44.91367" lon="9.6146967"><ele>177.66666666666666</ele><time>2026-03-26T09:25:09.988Z</time></trkpt><trkpt lat="44.913605" lon="9.6147317"><ele>178.33333333333331</ele><time>2026-03-26T09:25:12.988Z</time></trkpt><trkpt lat="44.9135417" lon="9.614775"><ele>179.0</ele><time>2026-03-26T09:25:15.988Z</time></trkpt><trkpt lat="44.913475" lon="9.6147917"><ele>179.0</ele><time>2026-03-26T09:25:19.988Z</time></trkpt><trkpt lat="44.91341" lon="9.6147783"><ele>179.0</ele><time>2026-03-26T09:25:22.988Z</time></trkpt><trkpt lat="44.9133033" lon="9.6147533"><ele>179.0</ele><time>2026-03-26T09:25:24.988Z</time></trkpt><trkpt lat="44.91321" lon="9.6147333"><ele>179.0</ele><time>2026-03-26T09:25:26.988Z</time></trkpt><trkpt lat="44.9131133" lon="9.6146783"><ele>179.0</ele><time>2026-03-26T09:25:28.987Z</time></trkpt><trkpt lat="44.913055" lon="9.6146333"><ele>179.0</ele><time>2026-03-26T09:25:29.987Z</time></trkpt><trkpt lat="44.912995" lon="9.6145767"><ele>180.39999999999998</ele><time>2026-03-26T09:25:30.988Z</time></trkpt><trkpt lat="44.91293" lon="9.6145183"><ele>181.8</ele><time>2026-03-26T09:25:31.988Z</time></trkpt><trkpt lat="44.9128533" lon="9.6144483"><ele>183.2</ele><time>2026-03-26T09:25:32.987Z</time></trkpt><trkpt lat="44.9127733" lon="9.614375"><ele>184.60000000000002</ele><time>2026-03-26T09:25:33.987Z</time></trkpt><trkpt lat="44.9126983" lon="9.6143"><ele>186.0</ele><time>2026-03-26T09:25:34.986Z</time></trkpt><trkpt lat="44.9126117" lon="9.6142217"><ele>187.20000000000002</ele><time>2026-03-26T09:25:35.987Z</time></trkpt><trkpt lat="44.9125183" lon="9.61414"><ele>188.4</ele><time>2026-03-26T09:25:36.986Z</time></trkpt><trkpt lat="44.91242" lon="9.61406"><ele>189.6</ele><time>2026-03-26T09:25:37.987Z</time></trkpt><trkpt lat="44.91233" lon="9.6139867"><ele>190.8</ele><time>2026-03-26T09:25:38.987Z</time></trkpt><trkpt lat="44.9122333" lon="9.6139167"><ele>192.0</ele><time>2026-03-26T09:25:39.987Z</time></trkpt><trkpt lat="44.91214" lon="9.613855"><ele>192.0</ele><time>2026-03-26T09:25:40.986Z</time></trkpt><trkpt lat="44.9120467" lon="9.6137933"><ele>192.0</ele><time>2026-03-26T09:25:41.986Z</time></trkpt><trkpt lat="44.911955" lon="9.6137367"><ele>192.0</ele><time>2026-03-26T09:25:42.987Z</time></trkpt><trkpt lat="44.9118733" lon="9.6136933"><ele>192.0</ele><time>2026-03-26T09:25:43.987Z</time></trkpt><trkpt lat="44.9117983" lon="9.6136583"><ele>192.0</ele><time>2026-03-26T09:25:44.99Z</time></trkpt><trkpt lat="44.911725" lon="9.61363"><ele>192.0</ele><time>2026-03-26T09:25:45.986Z</time></trkpt><trkpt lat="44.9116517" lon="9.6136017"><ele>193.66666666666666</ele><time>2026-03-26T09:25:46.987Z</time></trkpt><trkpt lat="44.9115833" lon="9.6135983"><ele>195.33333333333331</ele><time>2026-03-26T09:25:47.987Z</time></trkpt><trkpt lat="44.91146" lon="9.6135983"><ele>197.0</ele><time>2026-03-26T09:25:49.988Z</time></trkpt><trkpt lat="44.9113967" lon="9.6136"><ele>198.66666666666666</ele><time>2026-03-26T09:25:50.987Z</time></trkpt><trkpt lat="44.91133" lon="9.6135917"><ele>200.33333333333331</ele><time>2026-03-26T09:25:51.987Z</time></trkpt><trkpt lat="44.9112133" lon="9.6135233"><ele>202.0</ele><time>2026-03-26T09:25:53.987Z</time></trkpt><trkpt lat="44.9111467" lon="9.613475"><ele>201.99999999999997</ele><time>2026-03-26T09:25:54.988Z</time></trkpt><trkpt lat="44.911065" lon="9.6134317"><ele>202.0</ele><time>2026-03-26T09:25:55.988Z</time></trkpt><trkpt lat="44.9109883" lon="9.6133833"><ele>202.0</ele><time>2026-03-26T09:25:56.987Z</time></trkpt><trkpt lat="44.9109233" lon="9.6133467"><ele>202.0</ele><time>2026-03-26T09:25:57.987Z</time></trkpt><trkpt lat="44.9108533" lon="9.6132983"><ele>201.99999999999997</ele><time>2026-03-26T09:25:58.987Z</time></trkpt><trkpt lat="44.9107833" lon="9.61325"><ele>202.0</ele><time>2026-03-26T09:25:59.987Z</time></trkpt><trkpt lat="44.9107183" lon="9.613205"><ele>203.0</ele><time>2026-03-26T09:26:00.985Z</time></trkpt><trkpt lat="44.9106517" lon="9.6131567"><ele>204.0</ele><time>2026-03-26T09:26:01.99Z</time></trkpt><trkpt lat="44.91058" lon="9.6131017"><ele>205.0</ele><time>2026-03-26T09:26:02.988Z</time></trkpt><trkpt lat="44.910495" lon="9.6130433"><ele>206.0</ele><time>2026-03-26T09:26:03.986Z</time></trkpt><trkpt lat="44.9104033" lon="9.6129883"><ele>207.0</ele><time>2026-03-26T09:26:04.987Z</time></trkpt><trkpt lat="44.9103067" lon="9.6129267"><ele>207.0</ele><time>2026-03-26T09:26:05.99Z</time></trkpt><trkpt lat="44.9102167" lon="9.6128733"><ele>207.0</ele><time>2026-03-26T09:26:06.988Z</time></trkpt><trkpt lat="44.91013" lon="9.6128183"><ele>207.0</ele><time>2026-03-26T09:26:07.989Z</time></trkpt><trkpt lat="44.91004" lon="9.6127617"><ele>207.0</ele><time>2026-03-26T09:26:08.989Z</time></trkpt><trkpt lat="44.90995" lon="9.6127067"><ele>207.0</ele><time>2026-03-26T09:26:09.988Z</time></trkpt><trkpt lat="44.9098667" lon="9.6126533"><ele>208.0</ele><time>2026-03-26T09:26:10.988Z</time></trkpt><trkpt lat="44.9097817" lon="9.612595"><ele>209.0</ele><time>2026-03-26T09:26:11.987Z</time></trkpt><trkpt lat="44.9097017" lon="9.6125433"><ele>210.0</ele><time>2026-03-26T09:26:12.987Z</time></trkpt><trkpt lat="44.909625" lon="9.6125117"><ele>211.0</ele><time>2026-03-26T09:26:13.987Z</time></trkpt><trkpt lat="44.9095467" lon="9.6124967"><ele>212.0</ele><time>2026-03-26T09:26:14.987Z</time></trkpt><trkpt lat="44.90946" lon="9.6124967"><ele>213.0</ele><time>2026-03-26T09:26:15.986Z</time></trkpt><trkpt lat="44.9093917" lon="9.6125583"><ele>213.0</ele><time>2026-03-26T09:26:16.987Z</time></trkpt><trkpt lat="44.90932" lon="9.61265"><ele>213.0</ele><time>2026-03-26T09:26:17.987Z</time></trkpt><trkpt lat="44.9092433" lon="9.6127583"><ele>213.0</ele><time>2026-03-26T09:26:18.987Z</time></trkpt><trkpt lat="44.90916" lon="9.6128617"><ele>213.0</ele><time>2026-03-26T09:26:19.986Z</time></trkpt><trkpt lat="44.9090733" lon="9.6129633"><ele>213.0</ele><time>2026-03-26T09:26:20.986Z</time></trkpt><trkpt lat="44.90898" lon="9.6130617"><ele>213.8</ele><time>2026-03-26T09:26:21.988Z</time></trkpt><trkpt lat="44.9088917" lon="9.6131467"><ele>214.60000000000002</ele><time>2026-03-26T09:26:22.988Z</time></trkpt><trkpt lat="44.9088083" lon="9.6132367"><ele>215.39999999999998</ele><time>2026-03-26T09:26:23.989Z</time></trkpt><trkpt lat="44.9087267" lon="9.6133167"><ele>216.2</ele><time>2026-03-26T09:26:24.988Z</time></trkpt><trkpt lat="44.9086383" lon="9.6133833"><ele>217.0</ele><time>2026-03-26T09:26:25.989Z</time></trkpt><trkpt lat="44.9085367" lon="9.6134267"><ele>217.0</ele><time>2026-03-26T09:26:26.988Z</time></trkpt><trkpt lat="44.9084183" lon="9.6134583"><ele>217.0</ele><time>2026-03-26T09:26:27.988Z</time></trkpt><trkpt lat="44.9083" lon="9.6134883"><ele>217.0</ele><time>2026-03-26T09:26:28.988Z</time></trkpt><trkpt lat="44.9081917" lon="9.61352"><ele>217.0</ele><time>2026-03-26T09:26:29.988Z</time></trkpt><trkpt lat="44.9080867" lon="9.613565"><ele>218.75</ele><time>2026-03-26T09:26:30.987Z</time></trkpt><trkpt lat="44.9079783" lon="9.61362"><ele>220.5</ele><time>2026-03-26T09:26:31.99Z</time></trkpt><trkpt lat="44.9078617" lon="9.6136867"><ele>222.25</ele><time>2026-03-26T09:26:32.989Z</time></trkpt><trkpt lat="44.9077417" lon="9.6137583"><ele>224.0</ele><time>2026-03-26T09:26:33.988Z</time></trkpt><trkpt lat="44.90762" lon="9.6138333"><ele>225.75</ele><time>2026-03-26T09:26:34.987Z</time></trkpt><trkpt lat="44.9075017" lon="9.6139083"><ele>227.5</ele><time>2026-03-26T09:26:35.988Z</time></trkpt><trkpt lat="44.9073867" lon="9.613985"><ele>229.25</ele><time>2026-03-26T09:26:36.988Z</time></trkpt><trkpt lat="44.907275" lon="9.614065"><ele>231.0</ele><time>2026-03-26T09:26:37.989Z</time></trkpt><trkpt lat="44.9071683" lon="9.614145"><ele>231.0</ele><time>2026-03-26T09:26:38.988Z</time></trkpt><trkpt lat="44.9070617" lon="9.61422"><ele>231.0</ele><time>2026-03-26T09:26:39.988Z</time></trkpt><trkpt lat="44.9069567" lon="9.6142783"><ele>231.0</ele><time>2026-03-26T09:26:40.989Z</time></trkpt><trkpt lat="44.9068483" lon="9.61431"><ele>231.0</ele><time>2026-03-26T09:26:41.989Z</time></trkpt><trkpt lat="44.90673" lon="9.6143083"><ele>233.25</ele><time>2026-03-26T09:26:42.989Z</time></trkpt><trkpt lat="44.9066067" lon="9.61429"><ele>235.5</ele><time>2026-03-26T09:26:43.989Z</time></trkpt><trkpt lat="44.9064817" lon="9.6142567"><ele>237.75</ele><time>2026-03-26T09:26:44.989Z</time></trkpt><trkpt lat="44.9063533" lon="9.614215"><ele>240.0</ele><time>2026-03-26T09:26:45.986Z</time></trkpt><trkpt lat="44.906235" lon="9.6141733"><ele>240.0</ele><time>2026-03-26T09:26:46.988Z</time></trkpt><trkpt lat="44.9061233" lon="9.614135"><ele>240.0</ele><time>2026-03-26T09:26:47.986Z</time></trkpt><trkpt lat="44.90601" lon="9.614095"><ele>240.0</ele><time>2026-03-26T09:26:48.987Z</time></trkpt><trkpt lat="44.9058983" lon="9.61405"><ele>240.0</ele><time>2026-03-26T09:26:49.988Z</time></trkpt><trkpt lat="44.905785" lon="9.6140033"><ele>241.4</ele><time>2026-03-26T09:26:50.987Z</time></trkpt><trkpt lat="44.9056783" lon="9.6139617"><ele>242.8</ele><time>2026-03-26T09:26:51.985Z</time></trkpt><trkpt lat="44.9055767" lon="9.6139317"><ele>244.2</ele><time>2026-03-26T09:26:52.987Z</time></trkpt><trkpt lat="44.9054783" lon="9.613915"><ele>245.6</ele><time>2026-03-26T09:26:53.987Z</time></trkpt><trkpt lat="44.9053833" lon="9.6139117"><ele>247.0</ele><time>2026-03-26T09:26:54.986Z</time></trkpt><trkpt lat="44.90529" lon="9.6139233"><ele>247.0</ele><time>2026-03-26T09:26:55.988Z</time></trkpt><trkpt lat="44.9051983" lon="9.6139833"><ele>247.0</ele><time>2026-03-26T09:26:56.988Z</time></trkpt><trkpt lat="44.90511" lon="9.61407"><ele>247.0</ele><time>2026-03-26T09:26:57.986Z</time></trkpt><trkpt lat="44.9050233" lon="9.6141633"><ele>247.0</ele><time>2026-03-26T09:26:58.986Z</time></trkpt><trkpt lat="44.9049433" lon="9.6142617"><ele>247.0</ele><time>2026-03-26T09:26:59.986Z</time></trkpt><trkpt lat="44.90487" lon="9.61436"><ele>248.0</ele><time>2026-03-26T09:27:00.987Z</time></trkpt><trkpt lat="44.9048067" lon="9.6144583"><ele>249.0</ele><time>2026-03-26T09:27:01.987Z</time></trkpt><trkpt lat="44.9047367" lon="9.614555"><ele>250.0</ele><time>2026-03-26T09:27:02.986Z</time></trkpt><trkpt lat="44.9046567" lon="9.6146433"><ele>251.0</ele><time>2026-03-26T09:27:03.986Z</time></trkpt><trkpt lat="44.9045767" lon="9.6147333"><ele>252.0</ele><time>2026-03-26T09:27:04.986Z</time></trkpt><trkpt lat="44.9045183" lon="9.61484"><ele>252.0</ele><time>2026-03-26T09:27:05.986Z</time></trkpt><trkpt lat="44.9044867" lon="9.614955"><ele>252.0</ele><time>2026-03-26T09:27:06.986Z</time></trkpt><trkpt lat="44.9044767" lon="9.6150683"><ele>252.0</ele><time>2026-03-26T09:27:07.987Z</time></trkpt><trkpt lat="44.904485" lon="9.6151633"><ele>252.0</ele><time>2026-03-26T09:27:08.987Z</time></trkpt><trkpt lat="44.9045167" lon="9.61525"><ele>252.0</ele><time>2026-03-26T09:27:09.986Z</time></trkpt><trkpt lat="44.90456" lon="9.615345"><ele>252.0</ele><time>2026-03-26T09:27:10.986Z</time></trkpt><trkpt lat="44.9046183" lon="9.6154383"><ele>252.0</ele><time>2026-03-26T09:27:12.068Z</time></trkpt><trkpt lat="44.90468" lon="9.6155283"><ele>252.0</ele><time>2026-03-26T09:27:12.987Z</time></trkpt><trkpt lat="44.9047467" lon="9.6156083"><ele>252.0</ele><time>2026-03-26T09:27:13.987Z</time></trkpt><trkpt lat="44.9048083" lon="9.6156867"><ele>252.0</ele><time>2026-03-26T09:27:14.987Z</time></trkpt><trkpt lat="44.904865" lon="9.6157783"><ele>252.0</ele><time>2026-03-26T09:27:15.986Z</time></trkpt><trkpt lat="44.9049067" lon="9.615875"><ele>252.0</ele><time>2026-03-26T09:27:16.987Z</time></trkpt><trkpt lat="44.9049567" lon="9.6159633"><ele>252.0</ele><time>2026-03-26T09:27:17.987Z</time></trkpt><trkpt lat="44.90502" lon="9.6160433"><ele>252.0</ele><time>2026-03-26T09:27:18.988Z</time></trkpt><trkpt lat="44.9051" lon="9.61613"><ele>252.0</ele><time>2026-03-26T09:27:19.988Z</time></trkpt><trkpt lat="44.9051833" lon="9.61622"><ele>252.0</ele><time>2026-03-26T09:27:20.989Z</time></trkpt><trkpt lat="44.9052683" lon="9.6163133"><ele>252.0</ele><time>2026-03-26T09:27:21.988Z</time></trkpt><trkpt lat="44.9053483" lon="9.616405"><ele>251.2</ele><time>2026-03-26T09:27:22.989Z</time></trkpt><trkpt lat="44.9054267" lon="9.6165067"><ele>250.39999999999998</ele><time>2026-03-26T09:27:23.989Z</time></trkpt><trkpt lat="44.905505" lon="9.6166167"><ele>249.60000000000002</ele><time>2026-03-26T09:27:24.988Z</time></trkpt><trkpt lat="44.9055867" lon="9.6167267"><ele>248.8</ele><time>2026-03-26T09:27:25.989Z</time></trkpt><trkpt lat="44.90567" lon="9.616825"><ele>248.0</ele><time>2026-03-26T09:27:26.991Z</time></trkpt><trkpt lat="44.9057567" lon="9.6169217"><ele>246.4</ele><time>2026-03-26T09:27:27.988Z</time></trkpt><trkpt lat="44.9058433" lon="9.61701"><ele>244.8</ele><time>2026-03-26T09:27:28.988Z</time></trkpt><trkpt lat="44.9059317" lon="9.6170933"><ele>243.2</ele><time>2026-03-26T09:27:29.986Z</time></trkpt><trkpt lat="44.9060167" lon="9.61718"><ele>241.6</ele><time>2026-03-26T09:27:30.986Z</time></trkpt><trkpt lat="44.90609" lon="9.6172767"><ele>240.0</ele><time>2026-03-26T09:27:31.986Z</time></trkpt><trkpt lat="44.9061583" lon="9.617385"><ele>240.0</ele><time>2026-03-26T09:27:32.987Z</time></trkpt><trkpt lat="44.906225" lon="9.6174867"><ele>240.0</ele><time>2026-03-26T09:27:33.986Z</time></trkpt><trkpt lat="44.9062833" lon="9.6175867"><ele>240.0</ele><time>2026-03-26T09:27:35.077Z</time></trkpt><trkpt lat="44.9063417" lon="9.6176683"><ele>240.0</ele><time>2026-03-26T09:27:35.986Z</time></trkpt><trkpt lat="44.9063983" lon="9.6177217"><ele>240.0</ele><time>2026-03-26T09:27:36.987Z</time></trkpt><trkpt lat="44.90647" lon="9.617735"><ele>240.0</ele><time>2026-03-26T09:27:37.988Z</time></trkpt><trkpt lat="44.9065417" lon="9.6177217"><ele>240.0</ele><time>2026-03-26T09:27:38.989Z</time></trkpt><trkpt lat="44.9066067" lon="9.6176933"><ele>240.0</ele><time>2026-03-26T09:27:39.987Z</time></trkpt><trkpt lat="44.9066633" lon="9.6176483"><ele>240.0</ele><time>2026-03-26T09:27:40.987Z</time></trkpt><trkpt lat="44.9067133" lon="9.617575"><ele>240.0</ele><time>2026-03-26T09:27:41.987Z</time></trkpt><trkpt lat="44.90677" lon="9.61751"><ele>240.0</ele><time>2026-03-26T09:27:42.988Z</time></trkpt><trkpt lat="44.90683" lon="9.6174583"><ele>240.0</ele><time>2026-03-26T09:27:43.988Z</time></trkpt><trkpt lat="44.9069017" lon="9.6174333"><ele>240.0</ele><time>2026-03-26T09:27:44.988Z</time></trkpt><trkpt lat="44.90699" lon="9.617425"><ele>238.25</ele><time>2026-03-26T09:27:45.988Z</time></trkpt><trkpt lat="44.9071017" lon="9.6174433"><ele>236.5</ele><time>2026-03-26T09:27:46.986Z</time></trkpt><trkpt lat="44.907225" lon="9.6174667"><ele>234.75</ele><time>2026-03-26T09:27:47.987Z</time></trkpt><trkpt lat="44.9073433" lon="9.6174867"><ele>233.0</ele><time>2026-03-26T09:27:48.987Z</time></trkpt><trkpt lat="44.907455" lon="9.6175067"><ele>233.0</ele><time>2026-03-26T09:27:49.988Z</time></trkpt><trkpt lat="44.9075567" lon="9.617525"><ele>233.0</ele><time>2026-03-26T09:27:50.987Z</time></trkpt><trkpt lat="44.907655" lon="9.6175433"><ele>233.0</ele><time>2026-03-26T09:27:51.985Z</time></trkpt><trkpt lat="44.907745" lon="9.6175567"><ele>233.0</ele><time>2026-03-26T09:27:52.987Z</time></trkpt><trkpt lat="44.9078317" lon="9.6175683"><ele>233.0</ele><time>2026-03-26T09:27:53.989Z</time></trkpt><trkpt lat="44.9079067" lon="9.617585"><ele>232.50000000000003</ele><time>2026-03-26T09:27:54.987Z</time></trkpt><trkpt lat="44.9079883" lon="9.6176667"><ele>232.0</ele><time>2026-03-26T09:27:56.989Z</time></trkpt><trkpt lat="44.9080067" lon="9.617765"><ele>231.5</ele><time>2026-03-26T09:27:58.988Z</time></trkpt><trkpt lat="44.908015" lon="9.6178933"><ele>231.0</ele><time>2026-03-26T09:28:00.987Z</time></trkpt><trkpt lat="44.908005" lon="9.6179867"><ele>230.50000000000003</ele><time>2026-03-26T09:28:01.987Z</time></trkpt><trkpt lat="44.907985" lon="9.6180867"><ele>230.0</ele><time>2026-03-26T09:28:02.987Z</time></trkpt><trkpt lat="44.9079533" lon="9.61818"><ele>228.1428571428571</ele><time>2026-03-26T09:28:03.985Z</time></trkpt><trkpt lat="44.9079083" lon="9.61826"><ele>226.28571428571428</ele><time>2026-03-26T09:28:04.987Z</time></trkpt><trkpt lat="44.9078517" lon="9.6183333"><ele>224.42857142857142</ele><time>2026-03-26T09:28:05.987Z</time></trkpt><trkpt lat="44.9077967" lon="9.6184033"><ele>222.57142857142856</ele><time>2026-03-26T09:28:06.985Z</time></trkpt><trkpt lat="44.90775" lon="9.61847"><ele>220.71428571428572</ele><time>2026-03-26T09:28:07.987Z</time></trkpt><trkpt lat="44.9077067" lon="9.6185367"><ele>218.85714285714286</ele><time>2026-03-26T09:28:08.987Z</time></trkpt><trkpt lat="44.9076633" lon="9.6186017"><ele>217.0</ele><time>2026-03-26T09:28:09.987Z</time></trkpt><trkpt lat="44.90762" lon="9.6186733"><ele>215.16666666666666</ele><time>2026-03-26T09:28:10.986Z</time></trkpt><trkpt lat="44.9075817" lon="9.6187483"><ele>213.33333333333331</ele><time>2026-03-26T09:28:11.986Z</time></trkpt><trkpt lat="44.9075433" lon="9.6188367"><ele>211.5</ele><time>2026-03-26T09:28:12.987Z</time></trkpt><trkpt lat="44.9075033" lon="9.6189317"><ele>209.66666666666669</ele><time>2026-03-26T09:28:13.986Z</time></trkpt><trkpt lat="44.9074633" lon="9.6190317"><ele>207.83333333333334</ele><time>2026-03-26T09:28:14.986Z</time></trkpt><trkpt lat="44.907425" lon="9.61914"><ele>206.0</ele><time>2026-03-26T09:28:15.986Z</time></trkpt><trkpt lat="44.907395" lon="9.6192567"><ele>206.00000000000003</ele><time>2026-03-26T09:28:16.986Z</time></trkpt><trkpt lat="44.9073633" lon="9.6193733"><ele>206.0</ele><time>2026-03-26T09:28:17.985Z</time></trkpt><trkpt lat="44.9073233" lon="9.6194833"><ele>206.0</ele><time>2026-03-26T09:28:18.986Z</time></trkpt><trkpt lat="44.907275" lon="9.6195767"><ele>206.0</ele><time>2026-03-26T09:28:19.986Z</time></trkpt><trkpt lat="44.9072183" lon="9.6196483"><ele>206.00000000000003</ele><time>2026-03-26T09:28:20.987Z</time></trkpt><trkpt lat="44.9071467" lon="9.6196967"><ele>206.0</ele><time>2026-03-26T09:28:21.987Z</time></trkpt><trkpt lat="44.907075" lon="9.6197317"><ele>204.33333333333334</ele><time>2026-03-26T09:28:22.986Z</time></trkpt><trkpt lat="44.9069983" lon="9.619765"><ele>202.66666666666669</ele><time>2026-03-26T09:28:23.987Z</time></trkpt><trkpt lat="44.9069267" lon="9.6198"><ele>201.0</ele><time>2026-03-26T09:28:24.986Z</time></trkpt><trkpt lat="44.90687" lon="9.6198483"><ele>199.33333333333331</ele><time>2026-03-26T09:28:25.987Z</time></trkpt><trkpt lat="44.9068" lon="9.6199833"><ele>197.66666666666666</ele><time>2026-03-26T09:28:27.988Z</time></trkpt><trkpt lat="44.9067917" lon="9.62008"><ele>196.0</ele><time>2026-03-26T09:28:28.988Z</time></trkpt><trkpt lat="44.90678" lon="9.620195"><ele>195.99999999999997</ele><time>2026-03-26T09:28:29.987Z</time></trkpt><trkpt lat="44.906765" lon="9.620315"><ele>196.0</ele><time>2026-03-26T09:28:30.988Z</time></trkpt><trkpt lat="44.906745" lon="9.620435"><ele>196.0</ele><time>2026-03-26T09:28:31.989Z</time></trkpt><trkpt lat="44.9067267" lon="9.6205533"><ele>196.0</ele><time>2026-03-26T09:28:32.989Z</time></trkpt><trkpt lat="44.9067083" lon="9.620665"><ele>195.99999999999997</ele><time>2026-03-26T09:28:33.988Z</time></trkpt><trkpt lat="44.9066967" lon="9.6207717"><ele>196.0</ele><time>2026-03-26T09:28:34.986Z</time></trkpt><trkpt lat="44.9066867" lon="9.6208633"><ele>195.49999999999997</ele><time>2026-03-26T09:28:35.988Z</time></trkpt><trkpt lat="44.9067017" lon="9.6210133"><ele>195.0</ele><time>2026-03-26T09:28:37.989Z</time></trkpt><trkpt lat="44.90678" lon="9.621095"><ele>194.5</ele><time>2026-03-26T09:28:39.987Z</time></trkpt><trkpt lat="44.9068467" lon="9.621105"><ele>194.0</ele><time>2026-03-26T09:28:40.985Z</time></trkpt><trkpt lat="44.9069233" lon="9.621095"><ele>193.49999999999997</ele><time>2026-03-26T09:28:41.986Z</time></trkpt><trkpt lat="44.9070183" lon="9.62107"><ele>193.0</ele><time>2026-03-26T09:28:42.986Z</time></trkpt><trkpt lat="44.907115" lon="9.6210433"><ele>192.49999999999997</ele><time>2026-03-26T09:28:43.985Z</time></trkpt><trkpt lat="44.9072117" lon="9.6210333"><ele>192.0</ele><time>2026-03-26T09:28:44.987Z</time></trkpt><trkpt lat="44.9072917" lon="9.6210517"><ele>191.5</ele><time>2026-03-26T09:28:45.986Z</time></trkpt><trkpt lat="44.9073633" lon="9.6210933"><ele>191.0</ele><time>2026-03-26T09:28:46.987Z</time></trkpt><trkpt lat="44.907425" lon="9.6211483"><ele>190.5</ele><time>2026-03-26T09:28:47.987Z</time></trkpt><trkpt lat="44.9074717" lon="9.621225"><ele>190.0</ele><time>2026-03-26T09:28:48.986Z</time></trkpt><trkpt lat="44.9075417" lon="9.6213367"><ele>191.83333333333334</ele><time>2026-03-26T09:28:50.987Z</time></trkpt><trkpt lat="44.9076133" lon="9.621365"><ele>193.66666666666669</ele><time>2026-03-26T09:28:53.987Z</time></trkpt><trkpt lat="44.90756" lon="9.621455"><ele>195.5</ele><time>2026-03-26T09:29:06.987Z</time></trkpt><trkpt lat="44.9074983" lon="9.6214817"><ele>197.33333333333334</ele><time>2026-03-26T09:29:07.987Z</time></trkpt><trkpt lat="44.9074283" lon="9.6215167"><ele>199.16666666666666</ele><time>2026-03-26T09:29:08.987Z</time></trkpt><trkpt lat="44.9073383" lon="9.6215667"><ele>201.0</ele><time>2026-03-26T09:29:09.99Z</time></trkpt><trkpt lat="44.90721" lon="9.6216183"><ele>201.66666666666669</ele><time>2026-03-26T09:29:10.986Z</time></trkpt><trkpt lat="44.9070617" lon="9.6216617"><ele>202.33333333333334</ele><time>2026-03-26T09:29:11.986Z</time></trkpt><trkpt lat="44.9069" lon="9.6216917"><ele>203.0</ele><time>2026-03-26T09:29:12.986Z</time></trkpt><trkpt lat="44.9067383" lon="9.6217117"><ele>203.0</ele><time>2026-03-26T09:29:13.987Z</time></trkpt><trkpt lat="44.9065783" lon="9.62172"><ele>203.0</ele><time>2026-03-26T09:29:14.987Z</time></trkpt><trkpt lat="44.9064317" lon="9.6217333"><ele>203.0</ele><time>2026-03-26T09:29:15.985Z</time></trkpt><trkpt lat="44.906305" lon="9.621725"><ele>203.0</ele><time>2026-03-26T09:29:16.986Z</time></trkpt><trkpt lat="44.9061833" lon="9.6217217"><ele>203.0</ele><time>2026-03-26T09:29:17.987Z</time></trkpt><trkpt lat="44.9060633" lon="9.62172"><ele>203.0</ele><time>2026-03-26T09:29:18.987Z</time></trkpt><trkpt lat="44.9059433" lon="9.6217167"><ele>203.0</ele><time>2026-03-26T09:29:19.988Z</time></trkpt><trkpt lat="44.9058183" lon="9.6217333"><ele>203.0</ele><time>2026-03-26T09:29:20.987Z</time></trkpt><trkpt lat="44.9056917" lon="9.621755"><ele>203.25</ele><time>2026-03-26T09:29:21.986Z</time></trkpt><trkpt lat="44.9055667" lon="9.6217983"><ele>203.5</ele><time>2026-03-26T09:29:22.987Z</time></trkpt><trkpt lat="44.905445" lon="9.6218317"><ele>203.75</ele><time>2026-03-26T09:29:23.987Z</time></trkpt><trkpt lat="44.9053267" lon="9.621865"><ele>204.0</ele><time>2026-03-26T09:29:24.987Z</time></trkpt><trkpt lat="44.90521" lon="9.6218917"><ele>204.0</ele><time>2026-03-26T09:29:25.987Z</time></trkpt><trkpt lat="44.905095" lon="9.621935"><ele>204.0</ele><time>2026-03-26T09:29:26.991Z</time></trkpt><trkpt lat="44.90498" lon="9.6219783"><ele>204.0</ele><time>2026-03-26T09:29:27.986Z</time></trkpt><trkpt lat="44.9048667" lon="9.6220183"><ele>204.0</ele><time>2026-03-26T09:29:28.987Z</time></trkpt><trkpt lat="44.9047483" lon="9.6220517"><ele>209.5</ele><time>2026-03-26T09:29:29.986Z</time></trkpt><trkpt lat="44.90464" lon="9.6220917"><ele>215.0</ele><time>2026-03-26T09:29:30.987Z</time></trkpt><trkpt lat="44.9045267" lon="9.6221317"><ele>220.5</ele><time>2026-03-26T09:29:31.988Z</time></trkpt><trkpt lat="44.904425" lon="9.6221667"><ele>226.0</ele><time>2026-03-26T09:29:32.987Z</time></trkpt><trkpt lat="44.90431" lon="9.62219"><ele>226.60000000000002</ele><time>2026-03-26T09:29:33.987Z</time></trkpt><trkpt lat="44.90419" lon="9.622205"><ele>227.20000000000002</ele><time>2026-03-26T09:29:34.989Z</time></trkpt><trkpt lat="44.9040833" lon="9.6222167"><ele>227.79999999999998</ele><time>2026-03-26T09:29:35.988Z</time></trkpt><trkpt lat="44.903985" lon="9.6222383"><ele>228.39999999999998</ele><time>2026-03-26T09:29:36.988Z</time></trkpt><trkpt lat="44.903885" lon="9.6222517"><ele>229.0</ele><time>2026-03-26T09:29:37.988Z</time></trkpt><trkpt lat="44.9038" lon="9.62227"><ele>229.0</ele><time>2026-03-26T09:29:38.989Z</time></trkpt><trkpt lat="44.903715" lon="9.622285"><ele>228.99999999999997</ele><time>2026-03-26T09:29:39.987Z</time></trkpt><trkpt lat="44.9036217" lon="9.6223"><ele>228.99999999999997</ele><time>2026-03-26T09:29:40.987Z</time></trkpt><trkpt lat="44.903525" lon="9.62232"><ele>229.0</ele><time>2026-03-26T09:29:41.987Z</time></trkpt><trkpt lat="44.9034267" lon="9.62235"><ele>229.0</ele><time>2026-03-26T09:29:42.986Z</time></trkpt><trkpt lat="44.903315" lon="9.6223633"><ele>229.0</ele><time>2026-03-26T09:29:43.986Z</time></trkpt><trkpt lat="44.903215" lon="9.6223767"><ele>228.99999999999997</ele><time>2026-03-26T09:29:44.986Z</time></trkpt><trkpt lat="44.9030983" lon="9.6223667"><ele>228.99999999999997</ele><time>2026-03-26T09:29:45.986Z</time></trkpt><trkpt lat="44.9029917" lon="9.6223483"><ele>229.0</ele><time>2026-03-26T09:29:46.986Z</time></trkpt><trkpt lat="44.9028983" lon="9.62233"><ele>229.0</ele><time>2026-03-26T09:29:47.987Z</time></trkpt><trkpt lat="44.9028067" lon="9.6223133"><ele>229.0</ele><time>2026-03-26T09:29:48.986Z</time></trkpt><trkpt lat="44.9027167" lon="9.6223133"><ele>228.99999999999997</ele><time>2026-03-26T09:29:49.987Z</time></trkpt><trkpt lat="44.902625" lon="9.62231"><ele>228.99999999999997</ele><time>2026-03-26T09:29:50.987Z</time></trkpt><trkpt lat="44.9025333" lon="9.622295"><ele>229.0</ele><time>2026-03-26T09:29:51.987Z</time></trkpt><trkpt lat="44.9024367" lon="9.6222617"><ele>229.0</ele><time>2026-03-26T09:29:52.987Z</time></trkpt><trkpt lat="44.9023383" lon="9.6222333"><ele>230.2</ele><time>2026-03-26T09:29:53.987Z</time></trkpt><trkpt lat="44.9022317" lon="9.6221967"><ele>231.39999999999998</ele><time>2026-03-26T09:29:54.987Z</time></trkpt><trkpt lat="44.9021317" lon="9.6221583"><ele>232.6</ele><time>2026-03-26T09:29:55.986Z</time></trkpt><trkpt lat="44.902025" lon="9.62212"><ele>233.8</ele><time>2026-03-26T09:29:56.987Z</time></trkpt><trkpt lat="44.9019267" lon="9.6221"><ele>235.0</ele><time>2026-03-26T09:29:57.986Z</time></trkpt><trkpt lat="44.9018283" lon="9.622085"><ele>236.6</ele><time>2026-03-26T09:29:58.986Z</time></trkpt><trkpt lat="44.9017267" lon="9.6220683"><ele>238.2</ele><time>2026-03-26T09:29:59.987Z</time></trkpt><trkpt lat="44.9016233" lon="9.6220567"><ele>239.8</ele><time>2026-03-26T09:30:00.986Z</time></trkpt><trkpt lat="44.901525" lon="9.622035"><ele>241.4</ele><time>2026-03-26T09:30:01.987Z</time></trkpt><trkpt lat="44.901435" lon="9.6220133"><ele>243.0</ele><time>2026-03-26T09:30:02.986Z</time></trkpt><trkpt lat="44.9013533" lon="9.621985"><ele>240.16666666666666</ele><time>2026-03-26T09:30:03.986Z</time></trkpt><trkpt lat="44.9012833" lon="9.6219583"><ele>237.33333333333331</ele><time>2026-03-26T09:30:04.986Z</time></trkpt><trkpt lat="44.901215" lon="9.621935"><ele>234.5</ele><time>2026-03-26T09:30:05.987Z</time></trkpt><trkpt lat="44.90114" lon="9.621925"><ele>231.66666666666666</ele><time>2026-03-26T09:30:06.986Z</time></trkpt><trkpt lat="44.9010617" lon="9.6219033"><ele>228.83333333333331</ele><time>2026-03-26T09:30:07.987Z</time></trkpt><trkpt lat="44.9009967" lon="9.6218867"><ele>226.0</ele><time>2026-03-26T09:30:08.988Z</time></trkpt><trkpt lat="44.9008867" lon="9.6218867"><ele>226.0</ele><time>2026-03-26T09:30:10.986Z</time></trkpt><trkpt lat="44.90077" lon="9.6218417"><ele>226.00000000000003</ele><time>2026-03-26T09:30:12.986Z</time></trkpt><trkpt lat="44.9006983" lon="9.6217967"><ele>226.00000000000003</ele><time>2026-03-26T09:30:13.986Z</time></trkpt><trkpt lat="44.9006233" lon="9.6217433"><ele>226.0</ele><time>2026-03-26T09:30:14.987Z</time></trkpt><trkpt lat="44.90054" lon="9.621695"><ele>226.0</ele><time>2026-03-26T09:30:15.985Z</time></trkpt><trkpt lat="44.9004517" lon="9.6216567"><ele>226.0</ele><time>2026-03-26T09:30:16.986Z</time></trkpt><trkpt lat="44.9003567" lon="9.621625"><ele>226.0</ele><time>2026-03-26T09:30:17.987Z</time></trkpt><trkpt lat="44.900255" lon="9.6215917"><ele>226.0</ele><time>2026-03-26T09:30:18.986Z</time></trkpt><trkpt lat="44.9001333" lon="9.621545"><ele>226.0</ele><time>2026-03-26T09:30:19.987Z</time></trkpt><trkpt lat="44.9000033" lon="9.6214883"><ele>228.5</ele><time>2026-03-26T09:30:20.987Z</time></trkpt><trkpt lat="44.8998767" lon="9.6214317"><ele>231.0</ele><time>2026-03-26T09:30:21.987Z</time></trkpt><trkpt lat="44.8997383" lon="9.6213617"><ele>233.5</ele><time>2026-03-26T09:30:22.986Z</time></trkpt><trkpt lat="44.8996033" lon="9.621295"><ele>236.0</ele><time>2026-03-26T09:30:23.987Z</time></trkpt><trkpt lat="44.8994767" lon="9.62122"><ele>233.75</ele><time>2026-03-26T09:30:24.985Z</time></trkpt><trkpt lat="44.89935" lon="9.6211367"><ele>231.5</ele><time>2026-03-26T09:30:25.986Z</time></trkpt><trkpt lat="44.899245" lon="9.621055"><ele>229.25</ele><time>2026-03-26T09:30:26.986Z</time></trkpt><trkpt lat="44.89914" lon="9.62096"><ele>227.0</ele><time>2026-03-26T09:30:27.984Z</time></trkpt><trkpt lat="44.8990283" lon="9.6208617"><ele>227.0</ele><time>2026-03-26T09:30:28.986Z</time></trkpt><trkpt lat="44.8989267" lon="9.6207767"><ele>227.0</ele><time>2026-03-26T09:30:29.986Z</time></trkpt><trkpt lat="44.898845" lon="9.6207017"><ele>227.0</ele><time>2026-03-26T09:30:30.986Z</time></trkpt><trkpt lat="44.8987733" lon="9.6206017"><ele>227.0</ele><time>2026-03-26T09:30:31.987Z</time></trkpt><trkpt lat="44.898725" lon="9.6204867"><ele>227.0</ele><time>2026-03-26T09:30:32.987Z</time></trkpt><trkpt lat="44.8986817" lon="9.620345"><ele>227.39999999999998</ele><time>2026-03-26T09:30:33.986Z</time></trkpt><trkpt lat="44.8986417" lon="9.6202033"><ele>227.79999999999998</ele><time>2026-03-26T09:30:34.987Z</time></trkpt><trkpt lat="44.8985933" lon="9.6200783"><ele>228.2</ele><time>2026-03-26T09:30:35.987Z</time></trkpt><trkpt lat="44.8985317" lon="9.6199767"><ele>228.6</ele><time>2026-03-26T09:30:36.986Z</time></trkpt><trkpt lat="44.8984517" lon="9.619895"><ele>229.0</ele><time>2026-03-26T09:30:37.987Z</time></trkpt><trkpt lat="44.8983633" lon="9.6198233"><ele>229.0</ele><time>2026-03-26T09:30:38.989Z</time></trkpt><trkpt lat="44.8982733" lon="9.6197483"><ele>228.99999999999997</ele><time>2026-03-26T09:30:39.987Z</time></trkpt><trkpt lat="44.89818" lon="9.6196717"><ele>228.99999999999997</ele><time>2026-03-26T09:30:40.987Z</time></trkpt><trkpt lat="44.8980817" lon="9.619595"><ele>229.0</ele><time>2026-03-26T09:30:41.986Z</time></trkpt><trkpt lat="44.8979717" lon="9.6195233"><ele>229.0</ele><time>2026-03-26T09:30:42.986Z</time></trkpt><trkpt lat="44.897865" lon="9.6194533"><ele>228.2</ele><time>2026-03-26T09:30:43.986Z</time></trkpt><trkpt lat="44.897765" lon="9.6193867"><ele>227.39999999999998</ele><time>2026-03-26T09:30:44.987Z</time></trkpt><trkpt lat="44.8976717" lon="9.6193333"><ele>226.6</ele><time>2026-03-26T09:30:45.986Z</time></trkpt><trkpt lat="44.8975867" lon="9.6192867"><ele>225.8</ele><time>2026-03-26T09:30:46.986Z</time></trkpt><trkpt lat="44.8975033" lon="9.61924"><ele>225.0</ele><time>2026-03-26T09:30:47.986Z</time></trkpt><trkpt lat="44.897425" lon="9.6191933"><ele>225.0</ele><time>2026-03-26T09:30:48.986Z</time></trkpt><trkpt lat="44.8973533" lon="9.6191433"><ele>225.0</ele><time>2026-03-26T09:30:49.987Z</time></trkpt><trkpt lat="44.8972783" lon="9.6190817"><ele>225.0</ele><time>2026-03-26T09:30:50.986Z</time></trkpt><trkpt lat="44.8972" lon="9.6190267"><ele>225.0</ele><time>2026-03-26T09:30:51.986Z</time></trkpt><trkpt lat="44.8971267" lon="9.618995"><ele>225.0</ele><time>2026-03-26T09:30:52.986Z</time></trkpt><trkpt lat="44.8970583" lon="9.6189617"><ele>225.0</ele><time>2026-03-26T09:30:53.986Z</time></trkpt><trkpt lat="44.896985" lon="9.6188733"><ele>225.0</ele><time>2026-03-26T09:30:55.985Z</time></trkpt><trkpt lat="44.8970117" lon="9.6187717"><ele>225.0</ele><time>2026-03-26T09:30:57.986Z</time></trkpt><trkpt lat="44.896945" lon="9.618675"><ele>225.0</ele><time>2026-03-26T09:31:00.986Z</time></trkpt><trkpt lat="44.896835" lon="9.618595"><ele>225.0</ele><time>2026-03-26T09:31:02.987Z</time></trkpt><trkpt lat="44.8967717" lon="9.6185467"><ele>225.0</ele><time>2026-03-26T09:31:03.986Z</time></trkpt><trkpt lat="44.8966967" lon="9.6185"><ele>225.0</ele><time>2026-03-26T09:31:04.986Z</time></trkpt><trkpt lat="44.8966167" lon="9.618455"><ele>225.0</ele><time>2026-03-26T09:31:05.986Z</time></trkpt><trkpt lat="44.896535" lon="9.618405"><ele>225.0</ele><time>2026-03-26T09:31:06.986Z</time></trkpt><trkpt lat="44.8964567" lon="9.6183483"><ele>225.0</ele><time>2026-03-26T09:31:07.986Z</time></trkpt><trkpt lat="44.8963783" lon="9.6183017"><ele>225.0</ele><time>2026-03-26T09:31:08.988Z</time></trkpt><trkpt lat="44.89631" lon="9.61825"><ele>225.0</ele><time>2026-03-26T09:31:09.985Z</time></trkpt><trkpt lat="44.8962617" lon="9.6181917"><ele>225.0</ele><time>2026-03-26T09:31:10.986Z</time></trkpt><trkpt lat="44.8961833" lon="9.6180717"><ele>225.0</ele><time>2026-03-26T09:31:12.986Z</time></trkpt><trkpt lat="44.8961033" lon="9.617975"><ele>225.0</ele><time>2026-03-26T09:31:14.987Z</time></trkpt><trkpt lat="44.8960183" lon="9.6179033"><ele>225.0</ele><time>2026-03-26T09:31:16.987Z</time></trkpt><trkpt lat="44.8959417" lon="9.6178233"><ele>225.0</ele><time>2026-03-26T09:31:18.986Z</time></trkpt><trkpt lat="44.89586" lon="9.6177"><ele>226.8571428571429</ele><time>2026-03-26T09:31:20.986Z</time></trkpt><trkpt lat="44.8958133" lon="9.6176183"><ele>228.71428571428572</ele><time>2026-03-26T09:31:21.985Z</time></trkpt><trkpt lat="44.8957717" lon="9.6175417"><ele>230.57142857142858</ele><time>2026-03-26T09:31:22.986Z</time></trkpt><trkpt lat="44.8957167" lon="9.6174667"><ele>232.42857142857144</ele><time>2026-03-26T09:31:23.986Z</time></trkpt><trkpt lat="44.8956667" lon="9.61739"><ele>234.28571428571428</ele><time>2026-03-26T09:31:24.986Z</time></trkpt><trkpt lat="44.8956283" lon="9.6173117"><ele>236.14285714285714</ele><time>2026-03-26T09:31:25.986Z</time></trkpt><trkpt lat="44.8955983" lon="9.6172017"><ele>238.0</ele><time>2026-03-26T09:31:28.986Z</time></trkpt><trkpt lat="44.895505" lon="9.6171033"><ele>238.0</ele><time>2026-03-26T09:31:30.986Z</time></trkpt><trkpt lat="44.8954183" lon="9.61699"><ele>238.0</ele><time>2026-03-26T09:31:32.986Z</time></trkpt><trkpt lat="44.8953367" lon="9.6168833"><ele>238.0</ele><time>2026-03-26T09:31:34.987Z</time></trkpt><trkpt lat="44.8952517" lon="9.6167667"><ele>238.0</ele><time>2026-03-26T09:31:36.986Z</time></trkpt><trkpt lat="44.8952033" lon="9.61669"><ele>238.0</ele><time>2026-03-26T09:31:37.987Z</time></trkpt><trkpt lat="44.8951633" lon="9.6165983"><ele>238.14285714285714</ele><time>2026-03-26T09:31:38.986Z</time></trkpt><trkpt lat="44.8951317" lon="9.6165"><ele>238.28571428571428</ele><time>2026-03-26T09:31:39.986Z</time></trkpt><trkpt lat="44.8951" lon="9.6164017"><ele>238.42857142857144</ele><time>2026-03-26T09:31:40.986Z</time></trkpt><trkpt lat="44.8950733" lon="9.616305"><ele>238.57142857142858</ele><time>2026-03-26T09:31:41.988Z</time></trkpt><trkpt lat="44.8950867" lon="9.6162017"><ele>238.71428571428572</ele><time>2026-03-26T09:31:43.986Z</time></trkpt><trkpt lat="44.8950467" lon="9.616115"><ele>238.8571428571429</ele><time>2026-03-26T09:31:44.986Z</time></trkpt><trkpt lat="44.8950033" lon="9.616045"><ele>239.00000000000003</ele><time>2026-03-26T09:31:45.986Z</time></trkpt><trkpt lat="44.89492" lon="9.6159383"><ele>239.0</ele><time>2026-03-26T09:31:46.985Z</time></trkpt><trkpt lat="44.8948383" lon="9.6158367"><ele>238.99999999999997</ele><time>2026-03-26T09:31:47.987Z</time></trkpt><trkpt lat="44.8947583" lon="9.6157367"><ele>238.99999999999997</ele><time>2026-03-26T09:31:48.986Z</time></trkpt><trkpt lat="44.894695" lon="9.615635"><ele>239.0</ele><time>2026-03-26T09:31:49.988Z</time></trkpt><trkpt lat="44.8946367" lon="9.6155283"><ele>239.0</ele><time>2026-03-26T09:31:50.987Z</time></trkpt><trkpt lat="44.8945867" lon="9.615425"><ele>239.00000000000003</ele><time>2026-03-26T09:31:51.987Z</time></trkpt><trkpt lat="44.8945383" lon="9.6153233"><ele>239.0</ele><time>2026-03-26T09:31:52.987Z</time></trkpt><trkpt lat="44.8944917" lon="9.61521"><ele>239.0</ele><time>2026-03-26T09:31:53.987Z</time></trkpt><trkpt lat="44.8944467" lon="9.6151067"><ele>239.0</ele><time>2026-03-26T09:31:54.987Z</time></trkpt><trkpt lat="44.8944033" lon="9.6150117"><ele>239.00000000000003</ele><time>2026-03-26T09:31:55.987Z</time></trkpt><trkpt lat="44.8943533" lon="9.61491"><ele>239.0</ele><time>2026-03-26T09:31:56.986Z</time></trkpt><trkpt lat="44.8943083" lon="9.6148183"><ele>240.79999999999998</ele><time>2026-03-26T09:31:57.987Z</time></trkpt><trkpt lat="44.8942483" lon="9.6146983"><ele>242.59999999999997</ele><time>2026-03-26T09:31:58.988Z</time></trkpt><trkpt lat="44.8941917" lon="9.61456"><ele>244.4</ele><time>2026-03-26T09:31:59.987Z</time></trkpt><trkpt lat="44.89413" lon="9.61443"><ele>246.2</ele><time>2026-03-26T09:32:00.987Z</time></trkpt><trkpt lat="44.8940617" lon="9.61432"><ele>248.0</ele><time>2026-03-26T09:32:01.987Z</time></trkpt><trkpt lat="44.8940033" lon="9.614225"><ele>248.0</ele><time>2026-03-26T09:32:02.986Z</time></trkpt><trkpt lat="44.8939033" lon="9.6140983"><ele>248.0</ele><time>2026-03-26T09:32:03.987Z</time></trkpt><trkpt lat="44.8938233" lon="9.6140083"><ele>248.0</ele><time>2026-03-26T09:32:04.987Z</time></trkpt><trkpt lat="44.8937583" lon="9.6139167"><ele>248.0</ele><time>2026-03-26T09:32:05.987Z</time></trkpt><trkpt lat="44.8936933" lon="9.6138483"><ele>248.0</ele><time>2026-03-26T09:32:06.987Z</time></trkpt><trkpt lat="44.8936117" lon="9.6137533"><ele>248.0</ele><time>2026-03-26T09:32:08.987Z</time></trkpt><trkpt lat="44.8936367" lon="9.6136667"><ele>248.00000000000003</ele><time>2026-03-26T09:32:11.986Z</time></trkpt><trkpt lat="44.8936967" lon="9.6136367"><ele>248.0</ele><time>2026-03-26T09:32:13.985Z</time></trkpt><trkpt lat="44.893755" lon="9.613575"><ele>248.0</ele><time>2026-03-26T09:32:15.985Z</time></trkpt><trkpt lat="44.8937883" lon="9.61349"><ele>248.00000000000003</ele><time>2026-03-26T09:32:17.986Z</time></trkpt><trkpt lat="44.8937767" lon="9.6133983"><ele>248.0</ele><time>2026-03-26T09:32:19.986Z</time></trkpt><trkpt lat="44.8937033" lon="9.6133183"><ele>248.0</ele><time>2026-03-26T09:32:22.986Z</time></trkpt><trkpt lat="44.89365" lon="9.6132667"><ele>247.4</ele><time>2026-03-26T09:32:24.986Z</time></trkpt><trkpt lat="44.893585" lon="9.6131917"><ele>246.8</ele><time>2026-03-26T09:32:26.986Z</time></trkpt><trkpt lat="44.8934983" lon="9.6131317"><ele>246.2</ele><time>2026-03-26T09:32:28.986Z</time></trkpt><trkpt lat="44.8933933" lon="9.6131017"><ele>245.6</ele><time>2026-03-26T09:32:30.986Z</time></trkpt><trkpt lat="44.8932867" lon="9.6130517"><ele>245.0</ele><time>2026-03-26T09:32:32.986Z</time></trkpt><trkpt lat="44.8931883" lon="9.6129683"><ele>246.00000000000003</ele><time>2026-03-26T09:32:34.986Z</time></trkpt><trkpt lat="44.8931167" lon="9.6128383"><ele>247.0</ele><time>2026-03-26T09:32:36.986Z</time></trkpt><trkpt lat="44.8930917" lon="9.6127333"><ele>248.0</ele><time>2026-03-26T09:32:37.986Z</time></trkpt><trkpt lat="44.8930617" lon="9.612625"><ele>249.0</ele><time>2026-03-26T09:32:38.987Z</time></trkpt><trkpt lat="44.893035" lon="9.6125217"><ele>250.00000000000003</ele><time>2026-03-26T09:32:39.986Z</time></trkpt><trkpt lat="44.893005" lon="9.612425"><ele>251.0</ele><time>2026-03-26T09:32:40.986Z</time></trkpt><trkpt lat="44.892925" lon="9.6123517"><ele>251.00000000000003</ele><time>2026-03-26T09:32:42.986Z</time></trkpt><trkpt lat="44.892835" lon="9.6123717"><ele>251.0</ele><time>2026-03-26T09:32:44.987Z</time></trkpt><trkpt lat="44.8927383" lon="9.61234"><ele>251.0</ele><time>2026-03-26T09:32:46.987Z</time></trkpt><trkpt lat="44.8926367" lon="9.61229"><ele>251.0</ele><time>2026-03-26T09:32:48.985Z</time></trkpt><trkpt lat="44.892575" lon="9.612255"><ele>251.00000000000003</ele><time>2026-03-26T09:32:49.991Z</time></trkpt><trkpt lat="44.8925083" lon="9.6122217"><ele>251.0</ele><time>2026-03-26T09:32:50.989Z</time></trkpt><trkpt lat="44.89245" lon="9.612185"><ele>253.33333333333334</ele><time>2026-03-26T09:32:51.987Z</time></trkpt><trkpt lat="44.8923917" lon="9.61213"><ele>255.66666666666669</ele><time>2026-03-26T09:32:52.987Z</time></trkpt><trkpt lat="44.8923217" lon="9.612075"><ele>258.0</ele><time>2026-03-26T09:32:53.986Z</time></trkpt><trkpt lat="44.892235" lon="9.61202"><ele>260.3333333333333</ele><time>2026-03-26T09:32:54.986Z</time></trkpt><trkpt lat="44.8921483" lon="9.6119767"><ele>262.66666666666663</ele><time>2026-03-26T09:32:55.985Z</time></trkpt><trkpt lat="44.892065" lon="9.6119283"><ele>265.0</ele><time>2026-03-26T09:32:56.986Z</time></trkpt><trkpt lat="44.891995" lon="9.61188"><ele>265.3333333333333</ele><time>2026-03-26T09:32:57.986Z</time></trkpt><trkpt lat="44.8919283" lon="9.6118233"><ele>265.66666666666663</ele><time>2026-03-26T09:32:58.987Z</time></trkpt><trkpt lat="44.8918617" lon="9.6117533"><ele>266.0</ele><time>2026-03-26T09:32:59.986Z</time></trkpt><trkpt lat="44.891785" lon="9.6116833"><ele>266.3333333333333</ele><time>2026-03-26T09:33:00.986Z</time></trkpt><trkpt lat="44.8917117" lon="9.6116133"><ele>266.6666666666667</ele><time>2026-03-26T09:33:01.987Z</time></trkpt><trkpt lat="44.8916467" lon="9.6115417"><ele>267.0</ele><time>2026-03-26T09:33:02.986Z</time></trkpt><trkpt lat="44.8915833" lon="9.61148"><ele>268.8333333333333</ele><time>2026-03-26T09:33:03.986Z</time></trkpt><trkpt lat="44.8914833" lon="9.6114083"><ele>270.6666666666667</ele><time>2026-03-26T09:33:05.987Z</time></trkpt><trkpt lat="44.8913917" lon="9.6113383"><ele>272.5</ele><time>2026-03-26T09:33:07.986Z</time></trkpt><trkpt lat="44.8913617" lon="9.6112533"><ele>274.33333333333337</ele><time>2026-03-26T09:33:09.986Z</time></trkpt><trkpt lat="44.8913967" lon="9.6111517"><ele>276.1666666666667</ele><time>2026-03-26T09:33:12.986Z</time></trkpt><trkpt lat="44.8914317" lon="9.6110683"><ele>278.0</ele><time>2026-03-26T09:33:15.986Z</time></trkpt><trkpt lat="44.891395" lon="9.6109917"><ele>278.0</ele><time>2026-03-26T09:33:26.985Z</time></trkpt><trkpt lat="44.891305" lon="9.610905"><ele>278.0</ele><time>2026-03-26T09:33:28.986Z</time></trkpt><trkpt lat="44.891225" lon="9.6108167"><ele>278.0</ele><time>2026-03-26T09:33:30.986Z</time></trkpt><trkpt lat="44.8911417" lon="9.6107067"><ele>278.0</ele><time>2026-03-26T09:33:32.987Z</time></trkpt><trkpt lat="44.8910983" lon="9.6106283"><ele>278.0</ele><time>2026-03-26T09:33:33.986Z</time></trkpt><trkpt lat="44.891055" lon="9.61055"><ele>278.0</ele><time>2026-03-26T09:33:34.986Z</time></trkpt><trkpt lat="44.8910083" lon="9.6104833"><ele>278.0</ele><time>2026-03-26T09:33:35.986Z</time></trkpt><trkpt lat="44.8909217" lon="9.610355"><ele>278.0</ele><time>2026-03-26T09:33:37.985Z</time></trkpt><trkpt lat="44.8908867" lon="9.6102767"><ele>278.0</ele><time>2026-03-26T09:33:38.988Z</time></trkpt><trkpt lat="44.890845" lon="9.610175"><ele>278.0</ele><time>2026-03-26T09:33:39.986Z</time></trkpt><trkpt lat="44.890805" lon="9.6100633"><ele>278.0</ele><time>2026-03-26T09:33:40.986Z</time></trkpt><trkpt lat="44.890755" lon="9.6099517"><ele>278.8</ele><time>2026-03-26T09:33:41.987Z</time></trkpt><trkpt lat="44.8907033" lon="9.6098667"><ele>279.6</ele><time>2026-03-26T09:33:42.986Z</time></trkpt><trkpt lat="44.8906567" lon="9.6098033"><ele>280.4</ele><time>2026-03-26T09:33:43.986Z</time></trkpt><trkpt lat="44.8905583" lon="9.60968"><ele>281.2</ele><time>2026-03-26T09:33:45.984Z</time></trkpt><trkpt lat="44.890495" lon="9.6095933"><ele>282.0</ele><time>2026-03-26T09:33:46.986Z</time></trkpt><trkpt lat="44.8904267" lon="9.60949"><ele>282.4</ele><time>2026-03-26T09:33:47.986Z</time></trkpt><trkpt lat="44.8903583" lon="9.6093817"><ele>282.79999999999995</ele><time>2026-03-26T09:33:48.986Z</time></trkpt><trkpt lat="44.890295" lon="9.6092717"><ele>283.2</ele><time>2026-03-26T09:33:49.988Z</time></trkpt><trkpt lat="44.8902333" lon="9.609155"><ele>283.59999999999997</ele><time>2026-03-26T09:33:50.987Z</time></trkpt><trkpt lat="44.8901767" lon="9.60904"><ele>284.0</ele><time>2026-03-26T09:33:51.985Z</time></trkpt><trkpt lat="44.8901283" lon="9.6089133"><ele>285.0</ele><time>2026-03-26T09:33:52.986Z</time></trkpt><trkpt lat="44.8900867" lon="9.6087817"><ele>286.0</ele><time>2026-03-26T09:33:53.987Z</time></trkpt><trkpt lat="44.8900567" lon="9.6086433"><ele>287.0</ele><time>2026-03-26T09:33:54.986Z</time></trkpt><trkpt lat="44.89003" lon="9.6084967"><ele>288.0</ele><time>2026-03-26T09:33:55.986Z</time></trkpt><trkpt lat="44.89001" lon="9.6083483"><ele>289.0</ele><time>2026-03-26T09:33:56.986Z</time></trkpt><trkpt lat="44.88999" lon="9.6082"><ele>290.0</ele><time>2026-03-26T09:33:57.985Z</time></trkpt><trkpt lat="44.889965" lon="9.6080517"><ele>291.0</ele><time>2026-03-26T09:33:58.986Z</time></trkpt><trkpt lat="44.8899317" lon="9.60791"><ele>292.0</ele><time>2026-03-26T09:33:59.988Z</time></trkpt><trkpt lat="44.8898917" lon="9.607765"><ele>293.0</ele><time>2026-03-26T09:34:00.987Z</time></trkpt><trkpt lat="44.8898483" lon="9.6076317"><ele>294.0</ele><time>2026-03-26T09:34:01.987Z</time></trkpt><trkpt lat="44.8898067" lon="9.6075217"><ele>294.6666666666667</ele><time>2026-03-26T09:34:02.987Z</time></trkpt><trkpt lat="44.889765" lon="9.60742"><ele>295.3333333333333</ele><time>2026-03-26T09:34:03.987Z</time></trkpt><trkpt lat="44.8897133" lon="9.607335"><ele>296.0</ele><time>2026-03-26T09:34:04.987Z</time></trkpt><trkpt lat="44.8896567" lon="9.6072633"><ele>296.66666666666663</ele><time>2026-03-26T09:34:05.987Z</time></trkpt><trkpt lat="44.8895733" lon="9.6072167"><ele>297.3333333333333</ele><time>2026-03-26T09:34:06.986Z</time></trkpt><trkpt lat="44.88947" lon="9.6071867"><ele>298.0</ele><time>2026-03-26T09:34:07.987Z</time></trkpt><trkpt lat="44.889385" lon="9.6071683"><ele>298.0</ele><time>2026-03-26T09:34:08.987Z</time></trkpt><trkpt lat="44.8893217" lon="9.60714"><ele>298.0</ele><time>2026-03-26T09:34:09.987Z</time></trkpt><trkpt lat="44.8892483" lon="9.6070583"><ele>298.0</ele><time>2026-03-26T09:34:11.99Z</time></trkpt><trkpt lat="44.8892267" lon="9.6069167"><ele>298.0</ele><time>2026-03-26T09:34:13.988Z</time></trkpt><trkpt lat="44.88921" lon="9.6068167"><ele>298.0</ele><time>2026-03-26T09:34:14.988Z</time></trkpt><trkpt lat="44.8891817" lon="9.6066917"><ele>298.0</ele><time>2026-03-26T09:34:15.987Z</time></trkpt><trkpt lat="44.8891567" lon="9.606555"><ele>301.2</ele><time>2026-03-26T09:34:16.987Z</time></trkpt><trkpt lat="44.889135" lon="9.6064183"><ele>304.4</ele><time>2026-03-26T09:34:17.987Z</time></trkpt><trkpt lat="44.88912" lon="9.6062917"><ele>307.59999999999997</ele><time>2026-03-26T09:34:18.988Z</time></trkpt><trkpt lat="44.8891117" lon="9.6061633"><ele>310.8</ele><time>2026-03-26T09:34:19.989Z</time></trkpt><trkpt lat="44.8891067" lon="9.606035"><ele>314.0</ele><time>2026-03-26T09:34:20.989Z</time></trkpt><trkpt lat="44.8891083" lon="9.6058983"><ele>314.6666666666667</ele><time>2026-03-26T09:34:21.988Z</time></trkpt><trkpt lat="44.8891167" lon="9.6057633"><ele>315.33333333333337</ele><time>2026-03-26T09:34:22.99Z</time></trkpt><trkpt lat="44.8891233" lon="9.6056333"><ele>316.0</ele><time>2026-03-26T09:34:23.989Z</time></trkpt><trkpt lat="44.8891267" lon="9.6055217"><ele>316.6666666666667</ele><time>2026-03-26T09:34:24.988Z</time></trkpt><trkpt lat="44.8891183" lon="9.6054233"><ele>317.3333333333333</ele><time>2026-03-26T09:34:25.989Z</time></trkpt><trkpt lat="44.8890633" lon="9.6052867"><ele>318.0</ele><time>2026-03-26T09:34:27.988Z</time></trkpt><trkpt lat="44.8889333" lon="9.6052083"><ele>318.0</ele><time>2026-03-26T09:34:29.988Z</time></trkpt><trkpt lat="44.8888417" lon="9.605175"><ele>318.0</ele><time>2026-03-26T09:34:30.987Z</time></trkpt><trkpt lat="44.8887383" lon="9.6051367"><ele>318.0</ele><time>2026-03-26T09:34:31.988Z</time></trkpt><trkpt lat="44.8886233" lon="9.605095"><ele>318.0</ele><time>2026-03-26T09:34:32.988Z</time></trkpt><trkpt lat="44.8885033" lon="9.6050517"><ele>318.0</ele><time>2026-03-26T09:34:33.989Z</time></trkpt><trkpt lat="44.8883783" lon="9.60501"><ele>318.75</ele><time>2026-03-26T09:34:34.99Z</time></trkpt><trkpt lat="44.8882533" lon="9.6049567"><ele>319.5</ele><time>2026-03-26T09:34:35.99Z</time></trkpt><trkpt lat="44.8881283" lon="9.6049067"><ele>320.25</ele><time>2026-03-26T09:34:36.989Z</time></trkpt><trkpt lat="44.8880083" lon="9.604855"><ele>321.0</ele><time>2026-03-26T09:34:37.99Z</time></trkpt><trkpt lat="44.8878917" lon="9.6048067"><ele>321.0</ele><time>2026-03-26T09:34:38.989Z</time></trkpt><trkpt lat="44.887775" lon="9.6047667"><ele>321.0</ele><time>2026-03-26T09:34:39.99Z</time></trkpt><trkpt lat="44.88766" lon="9.6047267"><ele>321.0</ele><time>2026-03-26T09:34:40.989Z</time></trkpt><trkpt lat="44.8875483" lon="9.6046833"><ele>321.0</ele><time>2026-03-26T09:34:41.99Z</time></trkpt><trkpt lat="44.887435" lon="9.6046433"><ele>321.0</ele><time>2026-03-26T09:34:42.989Z</time></trkpt><trkpt lat="44.8873133" lon="9.60461"><ele>321.0</ele><time>2026-03-26T09:34:43.99Z</time></trkpt><trkpt lat="44.8871917" lon="9.6045717"><ele>321.0</ele><time>2026-03-26T09:34:44.99Z</time></trkpt><trkpt lat="44.8870717" lon="9.6045283"><ele>321.0</ele><time>2026-03-26T09:34:45.987Z</time></trkpt><trkpt lat="44.8869417" lon="9.60448"><ele>321.0</ele><time>2026-03-26T09:34:46.987Z</time></trkpt><trkpt lat="44.886815" lon="9.6044333"><ele>321.0</ele><time>2026-03-26T09:34:47.987Z</time></trkpt><trkpt lat="44.8866967" lon="9.604385"><ele>321.0</ele><time>2026-03-26T09:34:48.987Z</time></trkpt><trkpt lat="44.8865933" lon="9.6043417"><ele>321.0</ele><time>2026-03-26T09:34:49.987Z</time></trkpt><trkpt lat="44.8865017" lon="9.604305"><ele>322.20000000000005</ele><time>2026-03-26T09:34:50.988Z</time></trkpt><trkpt lat="44.886415" lon="9.604275"><ele>323.40000000000003</ele><time>2026-03-26T09:34:51.987Z</time></trkpt><trkpt lat="44.886325" lon="9.60424"><ele>324.6</ele><time>2026-03-26T09:34:52.986Z</time></trkpt><trkpt lat="44.8862217" lon="9.6042"><ele>325.8</ele><time>2026-03-26T09:34:53.987Z</time></trkpt><trkpt lat="44.8861117" lon="9.604155"><ele>327.0</ele><time>2026-03-26T09:34:54.989Z</time></trkpt><trkpt lat="44.886" lon="9.6041083"><ele>328.40000000000003</ele><time>2026-03-26T09:34:55.99Z</time></trkpt><trkpt lat="44.885885" lon="9.6040633"><ele>329.8</ele><time>2026-03-26T09:34:56.989Z</time></trkpt><trkpt lat="44.8857733" lon="9.60402"><ele>331.2</ele><time>2026-03-26T09:34:57.989Z</time></trkpt><trkpt lat="44.8856767" lon="9.6039833"><ele>332.6</ele><time>2026-03-26T09:34:58.99Z</time></trkpt><trkpt lat="44.8855983" lon="9.603955"><ele>334.0</ele><time>2026-03-26T09:34:59.989Z</time></trkpt><trkpt lat="44.88554" lon="9.60392"><ele>334.0</ele><time>2026-03-26T09:35:00.991Z</time></trkpt><trkpt lat="44.8854717" lon="9.6038083"><ele>334.0</ele><time>2026-03-26T09:35:02.99Z</time></trkpt><trkpt lat="44.885465" lon="9.60371"><ele>334.0</ele><time>2026-03-26T09:35:03.989Z</time></trkpt><trkpt lat="44.8854617" lon="9.6036"><ele>334.0</ele><time>2026-03-26T09:35:04.989Z</time></trkpt><trkpt lat="44.885455" lon="9.6034917"><ele>334.0</ele><time>2026-03-26T09:35:05.989Z</time></trkpt><trkpt lat="44.8854383" lon="9.6033983"><ele>334.0</ele><time>2026-03-26T09:35:06.989Z</time></trkpt><trkpt lat="44.8854083" lon="9.6033117"><ele>334.0</ele><time>2026-03-26T09:35:07.99Z</time></trkpt><trkpt lat="44.8853667" lon="9.6032367"><ele>334.0</ele><time>2026-03-26T09:35:08.99Z</time></trkpt><trkpt lat="44.8852617" lon="9.6031467"><ele>334.0</ele><time>2026-03-26T09:35:10.989Z</time></trkpt><trkpt lat="44.8851967" lon="9.6031517"><ele>334.0</ele><time>2026-03-26T09:35:11.993Z</time></trkpt><trkpt lat="44.8851183" lon="9.6031883"><ele>334.0</ele><time>2026-03-26T09:35:12.989Z</time></trkpt><trkpt lat="44.885035" lon="9.6032283"><ele>334.0</ele><time>2026-03-26T09:35:13.986Z</time></trkpt><trkpt lat="44.8849617" lon="9.6032617"><ele>335.1428571428571</ele><time>2026-03-26T09:35:14.988Z</time></trkpt><trkpt lat="44.8848983" lon="9.6033017"><ele>336.2857142857143</ele><time>2026-03-26T09:35:15.987Z</time></trkpt><trkpt lat="44.884835" lon="9.6033567"><ele>337.42857142857144</ele><time>2026-03-26T09:35:16.988Z</time></trkpt><trkpt lat="44.8847717" lon="9.60341"><ele>338.57142857142856</ele><time>2026-03-26T09:35:17.988Z</time></trkpt><trkpt lat="44.88471" lon="9.6034617"><ele>339.7142857142857</ele><time>2026-03-26T09:35:18.987Z</time></trkpt><trkpt lat="44.88465" lon="9.603515"><ele>340.85714285714283</ele><time>2026-03-26T09:35:19.988Z</time></trkpt><trkpt lat="44.8846017" lon="9.603575"><ele>342.0</ele><time>2026-03-26T09:35:20.989Z</time></trkpt><trkpt lat="44.8845" lon="9.60367"><ele>342.0</ele><time>2026-03-26T09:35:22.988Z</time></trkpt><trkpt lat="44.8843883" lon="9.6036917"><ele>342.0</ele><time>2026-03-26T09:35:24.989Z</time></trkpt><trkpt lat="44.8842783" lon="9.6036667"><ele>342.0</ele><time>2026-03-26T09:35:26.989Z</time></trkpt><trkpt lat="44.88418" lon="9.6035867"><ele>342.0</ele><time>2026-03-26T09:35:28.986Z</time></trkpt><trkpt lat="44.8841217" lon="9.60353"><ele>342.0</ele><time>2026-03-26T09:35:29.987Z</time></trkpt><trkpt lat="44.88406" lon="9.603475"><ele>343.5</ele><time>2026-03-26T09:35:30.987Z</time></trkpt><trkpt lat="44.8839967" lon="9.60343"><ele>345.0</ele><time>2026-03-26T09:35:31.988Z</time></trkpt><trkpt lat="44.8839267" lon="9.603395"><ele>346.5</ele><time>2026-03-26T09:35:32.987Z</time></trkpt><trkpt lat="44.8838617" lon="9.6033767"><ele>348.0</ele><time>2026-03-26T09:35:33.987Z</time></trkpt><trkpt lat="44.8837967" lon="9.60336"><ele>349.5</ele><time>2026-03-26T09:35:34.991Z</time></trkpt><trkpt lat="44.8836817" lon="9.6032967"><ele>351.0</ele><time>2026-03-26T09:35:36.988Z</time></trkpt><trkpt lat="44.88362" lon="9.60325"><ele>351.0</ele><time>2026-03-26T09:35:37.987Z</time></trkpt><trkpt lat="44.88356" lon="9.6032067"><ele>351.0</ele><time>2026-03-26T09:35:38.989Z</time></trkpt><trkpt lat="44.883495" lon="9.6031717"><ele>351.0</ele><time>2026-03-26T09:35:39.988Z</time></trkpt><trkpt lat="44.8834283" lon="9.603135"><ele>351.0</ele><time>2026-03-26T09:35:40.989Z</time></trkpt><trkpt lat="44.8833567" lon="9.603075"><ele>351.0</ele><time>2026-03-26T09:35:41.99Z</time></trkpt><trkpt lat="44.8832833" lon="9.603015"><ele>351.0</ele><time>2026-03-26T09:35:42.988Z</time></trkpt><trkpt lat="44.883215" lon="9.60296"><ele>352.6666666666667</ele><time>2026-03-26T09:35:43.989Z</time></trkpt><trkpt lat="44.8831133" lon="9.6028683"><ele>354.3333333333333</ele><time>2026-03-26T09:35:45.986Z</time></trkpt><trkpt lat="44.88307" lon="9.6027967"><ele>356.0</ele><time>2026-03-26T09:35:46.987Z</time></trkpt><trkpt lat="44.8830417" lon="9.6026967"><ele>357.66666666666663</ele><time>2026-03-26T09:35:47.988Z</time></trkpt><trkpt lat="44.883005" lon="9.6025833"><ele>359.3333333333333</ele><time>2026-03-26T09:35:48.988Z</time></trkpt><trkpt lat="44.8829633" lon="9.60248"><ele>361.0</ele><time>2026-03-26T09:35:49.988Z</time></trkpt><trkpt lat="44.882885" lon="9.6023933"><ele>362.0</ele><time>2026-03-26T09:35:50.988Z</time></trkpt><trkpt lat="44.8827967" lon="9.60231"><ele>363.0</ele><time>2026-03-26T09:35:51.988Z</time></trkpt><trkpt lat="44.8826967" lon="9.6022167"><ele>364.0</ele><time>2026-03-26T09:35:52.988Z</time></trkpt><trkpt lat="44.8825983" lon="9.6021267"><ele>365.0</ele><time>2026-03-26T09:35:53.988Z</time></trkpt><trkpt lat="44.8825117" lon="9.6020417"><ele>366.0</ele><time>2026-03-26T09:35:54.988Z</time></trkpt><trkpt lat="44.8824267" lon="9.60197"><ele>368.1666666666667</ele><time>2026-03-26T09:35:55.988Z</time></trkpt><trkpt lat="44.8823467" lon="9.6019267"><ele>370.3333333333333</ele><time>2026-03-26T09:35:56.987Z</time></trkpt><trkpt lat="44.8822617" lon="9.601905"><ele>372.5</ele><time>2026-03-26T09:35:57.987Z</time></trkpt><trkpt lat="44.8821767" lon="9.60191"><ele>374.66666666666663</ele><time>2026-03-26T09:35:58.987Z</time></trkpt><trkpt lat="44.8821067" lon="9.6019383"><ele>376.8333333333333</ele><time>2026-03-26T09:35:59.989Z</time></trkpt><trkpt lat="44.8820417" lon="9.6019733"><ele>379.0</ele><time>2026-03-26T09:36:00.988Z</time></trkpt><trkpt lat="44.88197" lon="9.6020083"><ele>379.0</ele><time>2026-03-26T09:36:01.988Z</time></trkpt><trkpt lat="44.8818933" lon="9.6020383"><ele>379.0</ele><time>2026-03-26T09:36:02.988Z</time></trkpt><trkpt lat="44.8818133" lon="9.6020533"><ele>379.0</ele><time>2026-03-26T09:36:03.988Z</time></trkpt><trkpt lat="44.8817383" lon="9.6020583"><ele>379.0</ele><time>2026-03-26T09:36:04.987Z</time></trkpt><trkpt lat="44.88167" lon="9.6020617"><ele>379.0</ele><time>2026-03-26T09:36:05.99Z</time></trkpt><trkpt lat="44.8815517" lon="9.6020533"><ele>379.0</ele><time>2026-03-26T09:36:07.99Z</time></trkpt><trkpt lat="44.88146" lon="9.6020233"><ele>380.66666666666663</ele><time>2026-03-26T09:36:09.989Z</time></trkpt><trkpt lat="44.8813783" lon="9.6020017"><ele>382.3333333333333</ele><time>2026-03-26T09:36:11.987Z</time></trkpt><trkpt lat="44.88129" lon="9.602065"><ele>384.0</ele><time>2026-03-26T09:36:13.986Z</time></trkpt><trkpt lat="44.8812467" lon="9.6021417"><ele>385.66666666666663</ele><time>2026-03-26T09:36:14.988Z</time></trkpt><trkpt lat="44.8812117" lon="9.6022383"><ele>387.3333333333333</ele><time>2026-03-26T09:36:15.987Z</time></trkpt><trkpt lat="44.8811767" lon="9.60233"><ele>389.0</ele><time>2026-03-26T09:36:16.985Z</time></trkpt><trkpt lat="44.8811467" lon="9.6024133"><ele>388.99999999999994</ele><time>2026-03-26T09:36:17.987Z</time></trkpt><trkpt lat="44.8811017" lon="9.6025383"><ele>389.0</ele><time>2026-03-26T09:36:19.988Z</time></trkpt><trkpt lat="44.8810567" lon="9.6026433"><ele>389.0</ele><time>2026-03-26T09:36:21.986Z</time></trkpt><trkpt lat="44.8810033" lon="9.602775"><ele>389.0</ele><time>2026-03-26T09:36:23.989Z</time></trkpt><trkpt lat="44.8809683" lon="9.6028533"><ele>388.99999999999994</ele><time>2026-03-26T09:36:24.988Z</time></trkpt><trkpt lat="44.8809317" lon="9.6029283"><ele>389.0</ele><time>2026-03-26T09:36:25.989Z</time></trkpt><trkpt lat="44.880855" lon="9.6030483"><ele>389.16666666666663</ele><time>2026-03-26T09:36:27.986Z</time></trkpt><trkpt lat="44.8807767" lon="9.6031183"><ele>389.3333333333333</ele><time>2026-03-26T09:36:29.988Z</time></trkpt><trkpt lat="44.8806667" lon="9.6031467"><ele>389.5</ele><time>2026-03-26T09:36:31.99Z</time></trkpt><trkpt lat="44.8805983" lon="9.6031433"><ele>389.66666666666663</ele><time>2026-03-26T09:36:32.989Z</time></trkpt><trkpt lat="44.8805267" lon="9.60313"><ele>389.8333333333333</ele><time>2026-03-26T09:36:33.989Z</time></trkpt><trkpt lat="44.8804583" lon="9.6031167"><ele>390.0</ele><time>2026-03-26T09:36:34.988Z</time></trkpt><trkpt lat="44.880355" lon="9.60306"><ele>390.0</ele><time>2026-03-26T09:36:36.988Z</time></trkpt><trkpt lat="44.8802333" lon="9.602975"><ele>390.0</ele><time>2026-03-26T09:36:38.99Z</time></trkpt><trkpt lat="44.8801583" lon="9.6029183"><ele>390.0</ele><time>2026-03-26T09:36:39.988Z</time></trkpt><trkpt lat="44.88008" lon="9.6028767"><ele>390.0</ele><time>2026-03-26T09:36:40.988Z</time></trkpt><trkpt lat="44.8800067" lon="9.6028383"><ele>390.0</ele><time>2026-03-26T09:36:41.986Z</time></trkpt><trkpt lat="44.8799333" lon="9.6027917"><ele>391.6666666666667</ele><time>2026-03-26T09:36:42.986Z</time></trkpt><trkpt lat="44.8798617" lon="9.6027417"><ele>393.33333333333337</ele><time>2026-03-26T09:36:43.986Z</time></trkpt><trkpt lat="44.8798017" lon="9.60268"><ele>395.0</ele><time>2026-03-26T09:36:44.988Z</time></trkpt><trkpt lat="44.8797433" lon="9.602605"><ele>396.6666666666667</ele><time>2026-03-26T09:36:45.986Z</time></trkpt><trkpt lat="44.8796983" lon="9.6025067"><ele>398.33333333333337</ele><time>2026-03-26T09:36:46.987Z</time></trkpt><trkpt lat="44.8796533" lon="9.6023933"><ele>400.0</ele><time>2026-03-26T09:36:47.987Z</time></trkpt><trkpt lat="44.8796" lon="9.6022783"><ele>400.0</ele><time>2026-03-26T09:36:48.989Z</time></trkpt><trkpt lat="44.8795517" lon="9.6021633"><ele>400.0</ele><time>2026-03-26T09:36:49.989Z</time></trkpt><trkpt lat="44.8795033" lon="9.602045"><ele>400.0</ele><time>2026-03-26T09:36:50.989Z</time></trkpt><trkpt lat="44.87945" lon="9.60193"><ele>400.0</ele><time>2026-03-26T09:36:51.988Z</time></trkpt><trkpt lat="44.8794" lon="9.6018283"><ele>400.0</ele><time>2026-03-26T09:36:52.989Z</time></trkpt><trkpt lat="44.8793517" lon="9.6017483"><ele>401.1666666666667</ele><time>2026-03-26T09:36:53.989Z</time></trkpt><trkpt lat="44.8793017" lon="9.6016833"><ele>402.33333333333337</ele><time>2026-03-26T09:36:54.988Z</time></trkpt><trkpt lat="44.8792483" lon="9.6016"><ele>403.5</ele><time>2026-03-26T09:36:55.989Z</time></trkpt><trkpt lat="44.8791917" lon="9.6015283"><ele>404.66666666666663</ele><time>2026-03-26T09:36:56.989Z</time></trkpt><trkpt lat="44.8791267" lon="9.6015283"><ele>405.8333333333333</ele><time>2026-03-26T09:36:57.987Z</time></trkpt><trkpt lat="44.87902" lon="9.6016067"><ele>407.0</ele><time>2026-03-26T09:36:59.987Z</time></trkpt><trkpt lat="44.8789733" lon="9.6016667"><ele>409.99999999999994</ele><time>2026-03-26T09:37:00.987Z</time></trkpt><trkpt lat="44.878925" lon="9.6017333"><ele>413.0</ele><time>2026-03-26T09:37:01.988Z</time></trkpt><trkpt lat="44.8788367" lon="9.6018283"><ele>416.0</ele><time>2026-03-26T09:37:03.987Z</time></trkpt><trkpt lat="44.8787667" lon="9.601885"><ele>419.0</ele><time>2026-03-26T09:37:05.986Z</time></trkpt><trkpt lat="44.8786983" lon="9.6018833"><ele>421.99999999999994</ele><time>2026-03-26T09:37:07.988Z</time></trkpt><trkpt lat="44.87861" lon="9.60182"><ele>425.0</ele><time>2026-03-26T09:37:09.988Z</time></trkpt><trkpt lat="44.8785433" lon="9.601715"><ele>425.0</ele><time>2026-03-26T09:37:11.989Z</time></trkpt><trkpt lat="44.878525" lon="9.6016"><ele>425.0</ele><time>2026-03-26T09:37:13.988Z</time></trkpt><trkpt lat="44.8785317" lon="9.60144"><ele>425.0</ele><time>2026-03-26T09:37:15.987Z</time></trkpt><trkpt lat="44.878545" lon="9.60127"><ele>425.0</ele><time>2026-03-26T09:37:17.987Z</time></trkpt><trkpt lat="44.8785017" lon="9.6011317"><ele>425.0</ele><time>2026-03-26T09:37:19.987Z</time></trkpt><trkpt lat="44.878425" lon="9.601"><ele>429.4</ele><time>2026-03-26T09:37:21.988Z</time></trkpt><trkpt lat="44.878365" lon="9.600875"><ele>433.8</ele><time>2026-03-26T09:37:23.99Z</time></trkpt><trkpt lat="44.8782683" lon="9.6008133"><ele>438.20000000000005</ele><time>2026-03-26T09:37:25.989Z</time></trkpt><trkpt lat="44.87817" lon="9.6007733"><ele>442.6</ele><time>2026-03-26T09:37:27.989Z</time></trkpt><trkpt lat="44.8780667" lon="9.6006783"><ele>447.0</ele><time>2026-03-26T09:37:29.989Z</time></trkpt><trkpt lat="44.8779967" lon="9.6005533"><ele>446.99999999999994</ele><time>2026-03-26T09:37:31.988Z</time></trkpt><trkpt lat="44.877945" lon="9.6004833"><ele>447.0</ele><time>2026-03-26T09:37:33.988Z</time></trkpt><trkpt lat="44.8779483" lon="9.6003283"><ele>447.0</ele><time>2026-03-26T09:37:37.99Z</time></trkpt><trkpt lat="44.8779567" lon="9.60024"><ele>447.0</ele><time>2026-03-26T09:37:38.989Z</time></trkpt><trkpt lat="44.8779667" lon="9.6001517"><ele>447.0</ele><time>2026-03-26T09:37:39.989Z</time></trkpt><trkpt lat="44.8779733" lon="9.6000583"><ele>446.99999999999994</ele><time>2026-03-26T09:37:40.989Z</time></trkpt><trkpt lat="44.8779833" lon="9.5999667"><ele>447.0</ele><time>2026-03-26T09:37:41.986Z</time></trkpt><trkpt lat="44.8779917" lon="9.5998767"><ele>446.85714285714283</ele><time>2026-03-26T09:37:42.986Z</time></trkpt><trkpt lat="44.8780067" lon="9.5997883"><ele>446.7142857142857</ele><time>2026-03-26T09:37:43.987Z</time></trkpt><trkpt lat="44.8780317" lon="9.599695"><ele>446.57142857142856</ele><time>2026-03-26T09:37:44.987Z</time></trkpt><trkpt lat="44.8780667" lon="9.5996033"><ele>446.42857142857144</ele><time>2026-03-26T09:37:45.987Z</time></trkpt><trkpt lat="44.8781" lon="9.59951"><ele>446.2857142857143</ele><time>2026-03-26T09:37:46.987Z</time></trkpt><trkpt lat="44.8781233" lon="9.5994233"><ele>446.1428571428571</ele><time>2026-03-26T09:37:47.987Z</time></trkpt><trkpt lat="44.8781433" lon="9.5993367"><ele>446.0</ele><time>2026-03-26T09:37:48.986Z</time></trkpt><trkpt lat="44.8781633" lon="9.59925"><ele>446.42857142857144</ele><time>2026-03-26T09:37:49.989Z</time></trkpt><trkpt lat="44.8781917" lon="9.59917"><ele>446.85714285714283</ele><time>2026-03-26T09:37:50.987Z</time></trkpt><trkpt lat="44.878225" lon="9.599085"><ele>447.2857142857143</ele><time>2026-03-26T09:37:51.987Z</time></trkpt><trkpt lat="44.8782583" lon="9.599005"><ele>447.71428571428567</ele><time>2026-03-26T09:37:52.986Z</time></trkpt><trkpt lat="44.8782983" lon="9.59892"><ele>448.1428571428571</ele><time>2026-03-26T09:37:53.987Z</time></trkpt><trkpt lat="44.8783483" lon="9.598835"><ele>448.57142857142856</ele><time>2026-03-26T09:37:54.987Z</time></trkpt><trkpt lat="44.8783967" lon="9.598755"><ele>449.0</ele><time>2026-03-26T09:37:55.987Z</time></trkpt><trkpt lat="44.8784467" lon="9.598685"><ele>448.99999999999994</ele><time>2026-03-26T09:37:56.987Z</time></trkpt><trkpt lat="44.8784883" lon="9.5986167"><ele>449.0</ele><time>2026-03-26T09:37:57.986Z</time></trkpt><trkpt lat="44.87854" lon="9.5984983"><ele>449.0</ele><time>2026-03-26T09:37:59.987Z</time></trkpt><trkpt lat="44.878505" lon="9.59841"><ele>449.0</ele><time>2026-03-26T09:38:03.986Z</time></trkpt><trkpt lat="44.8784283" lon="9.598405"><ele>448.99999999999994</ele><time>2026-03-26T09:38:05.985Z</time></trkpt><trkpt lat="44.87835" lon="9.5984483"><ele>449.0</ele><time>2026-03-26T09:38:07.987Z</time></trkpt><trkpt lat="44.8782667" lon="9.5984233"><ele>449.0</ele><time>2026-03-26T09:38:09.987Z</time></trkpt><trkpt lat="44.8781783" lon="9.5983433"><ele>449.0</ele><time>2026-03-26T09:38:11.987Z</time></trkpt><trkpt lat="44.8780967" lon="9.5983483"><ele>449.0</ele><time>2026-03-26T09:38:13.987Z</time></trkpt><trkpt lat="44.8780517" lon="9.59842"><ele>449.0</ele><time>2026-03-26T09:38:15.986Z</time></trkpt><trkpt lat="44.8779767" lon="9.5984817"><ele>449.0</ele><time>2026-03-26T09:38:17.986Z</time></trkpt><trkpt lat="44.8778633" lon="9.5985033"><ele>449.0</ele><time>2026-03-26T09:38:19.987Z</time></trkpt><trkpt lat="44.8777383" lon="9.5985333"><ele>449.0</ele><time>2026-03-26T09:38:21.987Z</time></trkpt><trkpt lat="44.8776367" lon="9.59858"><ele>449.0</ele><time>2026-03-26T09:38:23.987Z</time></trkpt><trkpt lat="44.877565" lon="9.59857"><ele>449.0</ele><time>2026-03-26T09:38:25.987Z</time></trkpt><trkpt lat="44.8774967" lon="9.5986"><ele>449.0</ele><time>2026-03-26T09:38:27.987Z</time></trkpt><trkpt lat="44.87742" lon="9.598655"><ele>453.3333333333333</ele><time>2026-03-26T09:38:29.987Z</time></trkpt><trkpt lat="44.8773417" lon="9.598695"><ele>457.66666666666663</ele><time>2026-03-26T09:38:31.987Z</time></trkpt><trkpt lat="44.8772567" lon="9.59873"><ele>462.0</ele><time>2026-03-26T09:38:33.988Z</time></trkpt><trkpt lat="44.877174" lon="9.5987508"><ele>466.33333333333337</ele><time>2026-03-26T09:38:37.04Z</time></trkpt><trkpt lat="44.8771036" lon="9.5987132"><ele>470.6666666666667</ele><time>2026-03-26T09:38:39.017Z</time></trkpt><trkpt lat="44.8769995" lon="9.5987184"><ele>475.0</ele><time>2026-03-26T09:38:39.987Z</time></trkpt><trkpt lat="44.8769188" lon="9.5987607"><ele>475.00000000000006</ele><time>2026-03-26T09:38:40.989Z</time></trkpt><trkpt lat="44.8768574" lon="9.5987879"><ele>475.0</ele><time>2026-03-26T09:38:41.989Z</time></trkpt><trkpt lat="44.8767596" lon="9.5988574"><ele>475.0</ele><time>2026-03-26T09:38:43.986Z</time></trkpt><trkpt lat="44.8767165" lon="9.5989249"><ele>475.0</ele><time>2026-03-26T09:38:44.987Z</time></trkpt><trkpt lat="44.8766665" lon="9.5989959"><ele>475.00000000000006</ele><time>2026-03-26T09:38:45.986Z</time></trkpt><trkpt lat="44.8766118" lon="9.5990648"><ele>475.0</ele><time>2026-03-26T09:38:46.986Z</time></trkpt><trkpt lat="44.8765577" lon="9.5991214"><ele>477.5714285714286</ele><time>2026-03-26T09:38:47.987Z</time></trkpt><trkpt lat="44.876491" lon="9.5991615"><ele>480.1428571428572</ele><time>2026-03-26T09:38:48.987Z</time></trkpt><trkpt lat="44.8764191" lon="9.5991946"><ele>482.7142857142857</ele><time>2026-03-26T09:38:49.986Z</time></trkpt><trkpt lat="44.87635" lon="9.5992286"><ele>485.28571428571433</ele><time>2026-03-26T09:38:50.988Z</time></trkpt><trkpt lat="44.876276" lon="9.5992552"><ele>487.8571428571429</ele><time>2026-03-26T09:38:51.986Z</time></trkpt><trkpt lat="44.8762016" lon="9.5992754"><ele>490.42857142857144</ele><time>2026-03-26T09:38:52.986Z</time></trkpt><trkpt lat="44.8761259" lon="9.5992842"><ele>493.0</ele><time>2026-03-26T09:38:53.986Z</time></trkpt><trkpt lat="44.8760474" lon="9.5992903"><ele>493.00000000000006</ele><time>2026-03-26T09:38:54.986Z</time></trkpt><trkpt lat="44.875971" lon="9.5993011"><ele>493.0</ele><time>2026-03-26T09:38:55.988Z</time></trkpt><trkpt lat="44.8758926" lon="9.5993097"><ele>493.0</ele><time>2026-03-26T09:38:56.987Z</time></trkpt><trkpt lat="44.8758119" lon="9.5993165"><ele>493.0</ele><time>2026-03-26T09:38:57.986Z</time></trkpt><trkpt lat="44.8757282" lon="9.5993241"><ele>493.00000000000006</ele><time>2026-03-26T09:38:58.987Z</time></trkpt><trkpt lat="44.8756416" lon="9.5993308"><ele>493.0</ele><time>2026-03-26T09:38:59.987Z</time></trkpt><trkpt lat="44.8755561" lon="9.5993426"><ele>494.0</ele><time>2026-03-26T09:39:00.987Z</time></trkpt><trkpt lat="44.8754628" lon="9.5993546"><ele>494.99999999999994</ele><time>2026-03-26T09:39:01.987Z</time></trkpt><trkpt lat="44.8753675" lon="9.5993682"><ele>495.99999999999994</ele><time>2026-03-26T09:39:02.989Z</time></trkpt><trkpt lat="44.8752706" lon="9.599387"><ele>497.0</ele><time>2026-03-26T09:39:03.988Z</time></trkpt><trkpt lat="44.8751757" lon="9.5994032"><ele>498.0</ele><time>2026-03-26T09:39:04.987Z</time></trkpt><trkpt lat="44.8750781" lon="9.5994238"><ele>498.0</ele><time>2026-03-26T09:39:05.987Z</time></trkpt><trkpt lat="44.874989" lon="9.5994231"><ele>498.0</ele><time>2026-03-26T09:39:06.986Z</time></trkpt><trkpt lat="44.8749096" lon="9.5994054"><ele>498.0</ele><time>2026-03-26T09:39:07.989Z</time></trkpt><trkpt lat="44.8748238" lon="9.5993859"><ele>498.0</ele><time>2026-03-26T09:39:08.988Z</time></trkpt><trkpt lat="44.8747372" lon="9.5993837"><ele>498.0</ele><time>2026-03-26T09:39:09.988Z</time></trkpt><trkpt lat="44.874652" lon="9.5993862"><ele>498.0</ele><time>2026-03-26T09:39:10.986Z</time></trkpt><trkpt lat="44.8745662" lon="9.5993752"><ele>498.0</ele><time>2026-03-26T09:39:11.988Z</time></trkpt><trkpt lat="44.8744852" lon="9.5993574"><ele>498.0</ele><time>2026-03-26T09:39:12.989Z</time></trkpt><trkpt lat="44.874416" lon="9.5993358"><ele>498.0</ele><time>2026-03-26T09:39:13.987Z</time></trkpt><trkpt lat="44.8743487" lon="9.5993269"><ele>498.0</ele><time>2026-03-26T09:39:14.986Z</time></trkpt><trkpt lat="44.8742432" lon="9.5993456"><ele>498.0</ele><time>2026-03-26T09:39:16.987Z</time></trkpt><trkpt lat="44.8741643" lon="9.5993583"><ele>498.0</ele><time>2026-03-26T09:39:18.985Z</time></trkpt><trkpt lat="44.8741077" lon="9.5993192"><ele>498.5</ele><time>2026-03-26T09:39:21.987Z</time></trkpt><trkpt lat="44.8740152" lon="9.599243"><ele>499.0</ele><time>2026-03-26T09:44:24.985Z</time></trkpt><trkpt lat="44.8739598" lon="9.5991887"><ele>499.5</ele><time>2026-03-26T09:44:25.986Z</time></trkpt><trkpt lat="44.8738973" lon="9.5991262"><ele>500.0</ele><time>2026-03-26T09:44:26.987Z</time></trkpt><trkpt lat="44.8738364" lon="9.5990671"><ele>500.5</ele><time>2026-03-26T09:44:27.987Z</time></trkpt><trkpt lat="44.8737804" lon="9.5990022"><ele>501.0</ele><time>2026-03-26T09:44:28.986Z</time></trkpt><trkpt lat="44.8737143" lon="9.5989206"><ele>501.0</ele><time>2026-03-26T09:44:29.987Z</time></trkpt><trkpt lat="44.8736332" lon="9.5988269"><ele>501.0</ele><time>2026-03-26T09:44:30.987Z</time></trkpt><trkpt lat="44.8735473" lon="9.5987337"><ele>501.0</ele><time>2026-03-26T09:44:31.986Z</time></trkpt><trkpt lat="44.8734624" lon="9.5986336"><ele>501.0</ele><time>2026-03-26T09:44:32.987Z</time></trkpt><trkpt lat="44.8733726" lon="9.5985167"><ele>501.0</ele><time>2026-03-26T09:44:33.986Z</time></trkpt><trkpt lat="44.8732816" lon="9.5983938"><ele>501.20000000000005</ele><time>2026-03-26T09:44:34.985Z</time></trkpt><trkpt lat="44.8731916" lon="9.5982812"><ele>501.40000000000003</ele><time>2026-03-26T09:44:35.986Z</time></trkpt><trkpt lat="44.8731079" lon="9.5981771"><ele>501.6</ele><time>2026-03-26T09:44:36.986Z</time></trkpt><trkpt lat="44.8730308" lon="9.5980814"><ele>501.8</ele><time>2026-03-26T09:44:37.986Z</time></trkpt><trkpt lat="44.8729475" lon="9.5979799"><ele>502.0</ele><time>2026-03-26T09:44:38.988Z</time></trkpt><trkpt lat="44.8728583" lon="9.5978693"><ele>501.75</ele><time>2026-03-26T09:44:39.987Z</time></trkpt><trkpt lat="44.8727759" lon="9.5977639"><ele>501.5</ele><time>2026-03-26T09:44:40.986Z</time></trkpt><trkpt lat="44.872698" lon="9.5976632"><ele>501.25</ele><time>2026-03-26T09:44:41.988Z</time></trkpt><trkpt lat="44.8726063" lon="9.5975642"><ele>501.0</ele><time>2026-03-26T09:44:42.987Z</time></trkpt><trkpt lat="44.8725011" lon="9.597458"><ele>501.0</ele><time>2026-03-26T09:44:43.986Z</time></trkpt><trkpt lat="44.8723924" lon="9.5973411"><ele>501.0</ele><time>2026-03-26T09:44:44.987Z</time></trkpt><trkpt lat="44.8722865" lon="9.5972197"><ele>501.0</ele><time>2026-03-26T09:44:45.986Z</time></trkpt><trkpt lat="44.8721895" lon="9.5971026"><ele>501.0</ele><time>2026-03-26T09:44:46.986Z</time></trkpt><trkpt lat="44.8720973" lon="9.5969857"><ele>499.4</ele><time>2026-03-26T09:44:47.986Z</time></trkpt><trkpt lat="44.8720061" lon="9.5968734"><ele>497.8</ele><time>2026-03-26T09:44:48.986Z</time></trkpt><trkpt lat="44.8719175" lon="9.5967727"><ele>496.19999999999993</ele><time>2026-03-26T09:44:49.986Z</time></trkpt><trkpt lat="44.8718334" lon="9.5966796"><ele>494.59999999999997</ele><time>2026-03-26T09:44:50.987Z</time></trkpt><trkpt lat="44.8717504" lon="9.5965882"><ele>493.0</ele><time>2026-03-26T09:44:51.986Z</time></trkpt><trkpt lat="44.871666" lon="9.5964993"><ele>494.50000000000006</ele><time>2026-03-26T09:44:52.987Z</time></trkpt><trkpt lat="44.8715901" lon="9.5964198"><ele>496.0</ele><time>2026-03-26T09:44:53.986Z</time></trkpt><trkpt lat="44.8715217" lon="9.5963502"><ele>497.5</ele><time>2026-03-26T09:44:54.99Z</time></trkpt><trkpt lat="44.8714518" lon="9.5962847"><ele>499.0</ele><time>2026-03-26T09:44:55.985Z</time></trkpt><trkpt lat="44.8713791" lon="9.5962277"><ele>500.50000000000006</ele><time>2026-03-26T09:44:56.986Z</time></trkpt><trkpt lat="44.8713115" lon="9.59618"><ele>502.0</ele><time>2026-03-26T09:44:57.986Z</time></trkpt><trkpt lat="44.8712492" lon="9.5961444"><ele>502.0</ele><time>2026-03-26T09:44:58.988Z</time></trkpt><trkpt lat="44.871145" lon="9.5960928"><ele>502.00000000000006</ele><time>2026-03-26T09:45:00.987Z</time></trkpt><trkpt lat="44.8710709" lon="9.5960658"><ele>502.00000000000006</ele><time>2026-03-26T09:45:02.986Z</time></trkpt><trkpt lat="44.8710049" lon="9.5960486"><ele>502.0</ele><time>2026-03-26T09:45:22.986Z</time></trkpt><trkpt lat="44.8709393" lon="9.5961225"><ele>502.0</ele><time>2026-03-26T09:45:24.987Z</time></trkpt><trkpt lat="44.8708952" lon="9.5962758"><ele>504.6666666666667</ele><time>2026-03-26T09:45:26.987Z</time></trkpt><trkpt lat="44.8708741" lon="9.5963711"><ele>507.33333333333337</ele><time>2026-03-26T09:45:27.986Z</time></trkpt><trkpt lat="44.8708427" lon="9.5964549"><ele>510.0</ele><time>2026-03-26T09:45:28.988Z</time></trkpt><trkpt lat="44.8708005" lon="9.5965334"><ele>512.6666666666666</ele><time>2026-03-26T09:45:29.986Z</time></trkpt><trkpt lat="44.8707469" lon="9.596604"><ele>515.3333333333333</ele><time>2026-03-26T09:45:30.986Z</time></trkpt><trkpt lat="44.8706731" lon="9.5966726"><ele>518.0</ele><time>2026-03-26T09:45:31.986Z</time></trkpt><trkpt lat="44.8705939" lon="9.5967462"><ele>518.0</ele><time>2026-03-26T09:45:32.987Z</time></trkpt><trkpt lat="44.8705166" lon="9.5968187"><ele>518.0</ele><time>2026-03-26T09:45:33.985Z</time></trkpt><trkpt lat="44.8704445" lon="9.596877"><ele>518.0</ele><time>2026-03-26T09:45:34.986Z</time></trkpt><trkpt lat="44.870374" lon="9.5969292"><ele>518.0</ele><time>2026-03-26T09:45:35.987Z</time></trkpt><trkpt lat="44.8702985" lon="9.5969721"><ele>518.0</ele><time>2026-03-26T09:45:36.986Z</time></trkpt><trkpt lat="44.8702132" lon="9.5969971"><ele>518.0</ele><time>2026-03-26T09:45:37.985Z</time></trkpt><trkpt lat="44.8701301" lon="9.5970132"><ele>519.7142857142857</ele><time>2026-03-26T09:45:38.987Z</time></trkpt><trkpt lat="44.8700533" lon="9.5970233"><ele>521.4285714285714</ele><time>2026-03-26T09:45:39.986Z</time></trkpt><trkpt lat="44.8699833" lon="9.5970333"><ele>523.1428571428571</ele><time>2026-03-26T09:45:40.986Z</time></trkpt><trkpt lat="44.8699133" lon="9.5970367"><ele>524.8571428571429</ele><time>2026-03-26T09:45:41.987Z</time></trkpt><trkpt lat="44.86984" lon="9.5970067"><ele>526.5714285714286</ele><time>2026-03-26T09:45:42.985Z</time></trkpt><trkpt lat="44.8697817" lon="9.5969517"><ele>528.2857142857142</ele><time>2026-03-26T09:45:43.986Z</time></trkpt><trkpt lat="44.8697217" lon="9.596885"><ele>530.0</ele><time>2026-03-26T09:45:44.986Z</time></trkpt><trkpt lat="44.8696567" lon="9.5968283"><ele>530.0</ele><time>2026-03-26T09:45:45.986Z</time></trkpt><trkpt lat="44.8695933" lon="9.5967883"><ele>530.0</ele><time>2026-03-26T09:45:46.987Z</time></trkpt><trkpt lat="44.8694933" lon="9.5967617"><ele>530.0</ele><time>2026-03-26T09:45:48.987Z</time></trkpt><trkpt lat="44.8694017" lon="9.596785"><ele>530.0</ele><time>2026-03-26T09:45:50.987Z</time></trkpt><trkpt lat="44.8693" lon="9.5967833"><ele>530.0</ele><time>2026-03-26T09:45:52.986Z</time></trkpt><trkpt lat="44.869185" lon="9.5967083"><ele>529.8333333333333</ele><time>2026-03-26T09:45:54.986Z</time></trkpt><trkpt lat="44.8691217" lon="9.5966433"><ele>529.6666666666666</ele><time>2026-03-26T09:45:55.986Z</time></trkpt><trkpt lat="44.8690583" lon="9.5965733"><ele>529.5</ele><time>2026-03-26T09:45:56.987Z</time></trkpt><trkpt lat="44.8690033" lon="9.5965"><ele>529.3333333333334</ele><time>2026-03-26T09:45:57.987Z</time></trkpt><trkpt lat="44.8689517" lon="9.5964117"><ele>529.1666666666667</ele><time>2026-03-26T09:45:58.987Z</time></trkpt><trkpt lat="44.8689033" lon="9.5963167"><ele>529.0</ele><time>2026-03-26T09:45:59.986Z</time></trkpt><trkpt lat="44.8688483" lon="9.5962317"><ele>528.3333333333334</ele><time>2026-03-26T09:46:00.987Z</time></trkpt><trkpt lat="44.8687817" lon="9.5961583"><ele>527.6666666666667</ele><time>2026-03-26T09:46:01.986Z</time></trkpt><trkpt lat="44.8687033" lon="9.596105"><ele>527.0</ele><time>2026-03-26T09:46:02.987Z</time></trkpt><trkpt lat="44.8686267" lon="9.5960517"><ele>526.3333333333334</ele><time>2026-03-26T09:46:03.987Z</time></trkpt><trkpt lat="44.8685617" lon="9.5959883"><ele>525.6666666666666</ele><time>2026-03-26T09:46:04.987Z</time></trkpt><trkpt lat="44.8685" lon="9.5959283"><ele>525.0</ele><time>2026-03-26T09:46:05.987Z</time></trkpt><trkpt lat="44.868375" lon="9.595885"><ele>523.8333333333334</ele><time>2026-03-26T09:46:07.986Z</time></trkpt><trkpt lat="44.868305" lon="9.595875"><ele>522.6666666666666</ele><time>2026-03-26T09:46:08.987Z</time></trkpt><trkpt lat="44.8682283" lon="9.59587"><ele>521.5</ele><time>2026-03-26T09:46:09.986Z</time></trkpt><trkpt lat="44.8681483" lon="9.595875"><ele>520.3333333333333</ele><time>2026-03-26T09:46:10.986Z</time></trkpt><trkpt lat="44.8680633" lon="9.5958883"><ele>519.1666666666666</ele><time>2026-03-26T09:46:11.986Z</time></trkpt><trkpt lat="44.86798" lon="9.5959167"><ele>518.0</ele><time>2026-03-26T09:46:12.985Z</time></trkpt><trkpt lat="44.8679067" lon="9.5959417"><ele>518.0</ele><time>2026-03-26T09:46:13.986Z</time></trkpt><trkpt lat="44.8678" lon="9.5959367"><ele>518.0</ele><time>2026-03-26T09:46:15.987Z</time></trkpt><trkpt lat="44.8677617" lon="9.5958467"><ele>518.0</ele><time>2026-03-26T09:46:17.985Z</time></trkpt><trkpt lat="44.8678017" lon="9.5957367"><ele>518.0</ele><time>2026-03-26T09:46:19.987Z</time></trkpt><trkpt lat="44.8678083" lon="9.5956383"><ele>518.0</ele><time>2026-03-26T09:46:21.987Z</time></trkpt><trkpt lat="44.8677367" lon="9.595675"><ele>518.0</ele><time>2026-03-26T09:46:24.987Z</time></trkpt><trkpt lat="44.8676983" lon="9.5957517"><ele>518.0</ele><time>2026-03-26T09:46:25.986Z</time></trkpt><trkpt lat="44.8676517" lon="9.595845"><ele>518.0</ele><time>2026-03-26T09:46:26.986Z</time></trkpt><trkpt lat="44.8676117" lon="9.5959433"><ele>518.0</ele><time>2026-03-26T09:46:27.986Z</time></trkpt><trkpt lat="44.867575" lon="9.5960417"><ele>518.0</ele><time>2026-03-26T09:46:28.986Z</time></trkpt><trkpt lat="44.8675367" lon="9.5961333"><ele>518.0</ele><time>2026-03-26T09:46:29.986Z</time></trkpt><trkpt lat="44.8674983" lon="9.596205"><ele>518.0</ele><time>2026-03-26T09:46:30.987Z</time></trkpt><trkpt lat="44.8674533" lon="9.59634"><ele>516.8333333333333</ele><time>2026-03-26T09:46:32.987Z</time></trkpt><trkpt lat="44.8674767" lon="9.596485"><ele>515.6666666666666</ele><time>2026-03-26T09:46:34.986Z</time></trkpt><trkpt lat="44.8675283" lon="9.5965533"><ele>514.5</ele><time>2026-03-26T09:46:35.986Z</time></trkpt><trkpt lat="44.8675883" lon="9.5966133"><ele>513.3333333333334</ele><time>2026-03-26T09:46:36.986Z</time></trkpt><trkpt lat="44.86764" lon="9.5966733"><ele>512.1666666666667</ele><time>2026-03-26T09:46:37.988Z</time></trkpt><trkpt lat="44.867695" lon="9.5968317"><ele>511.0</ele><time>2026-03-26T09:46:39.988Z</time></trkpt><trkpt lat="44.8677167" lon="9.5969283"><ele>510.00000000000006</ele><time>2026-03-26T09:46:40.987Z</time></trkpt><trkpt lat="44.867745" lon="9.5970217"><ele>509.0</ele><time>2026-03-26T09:46:41.988Z</time></trkpt><trkpt lat="44.8677783" lon="9.5971017"><ele>508.0</ele><time>2026-03-26T09:46:42.987Z</time></trkpt><trkpt lat="44.86782" lon="9.5971767"><ele>507.0</ele><time>2026-03-26T09:46:43.986Z</time></trkpt><trkpt lat="44.8678733" lon="9.5973267"><ele>506.00000000000006</ele><time>2026-03-26T09:46:45.986Z</time></trkpt><trkpt lat="44.867835" lon="9.59746"><ele>505.0</ele><time>2026-03-26T09:46:47.987Z</time></trkpt><trkpt lat="44.8678017" lon="9.5975433"><ele>505.0</ele><time>2026-03-26T09:46:48.987Z</time></trkpt><trkpt lat="44.8677683" lon="9.5976317"><ele>504.99999999999994</ele><time>2026-03-26T09:46:49.987Z</time></trkpt><trkpt lat="44.8677433" lon="9.5977217"><ele>505.0</ele><time>2026-03-26T09:46:50.987Z</time></trkpt><trkpt lat="44.86771" lon="9.597805"><ele>505.0</ele><time>2026-03-26T09:46:51.986Z</time></trkpt><trkpt lat="44.8676683" lon="9.59788"><ele>504.99999999999994</ele><time>2026-03-26T09:46:52.987Z</time></trkpt><trkpt lat="44.86763" lon="9.5979617"><ele>505.0</ele><time>2026-03-26T09:46:53.986Z</time></trkpt><trkpt lat="44.8675933" lon="9.5980417"><ele>505.0</ele><time>2026-03-26T09:46:54.988Z</time></trkpt><trkpt lat="44.8675583" lon="9.59812"><ele>499.2</ele><time>2026-03-26T09:46:55.987Z</time></trkpt><trkpt lat="44.8674817" lon="9.5982533"><ele>493.4</ele><time>2026-03-26T09:46:57.986Z</time></trkpt><trkpt lat="44.86739" lon="9.598355"><ele>487.6</ele><time>2026-03-26T09:46:59.985Z</time></trkpt><trkpt lat="44.8673067" lon="9.5984417"><ele>481.8</ele><time>2026-03-26T09:47:01.985Z</time></trkpt><trkpt lat="44.8672367" lon="9.5985233"><ele>476.0</ele><time>2026-03-26T09:47:03.986Z</time></trkpt><trkpt lat="44.8671967" lon="9.5985933"><ele>474.57142857142856</ele><time>2026-03-26T09:47:05.986Z</time></trkpt><trkpt lat="44.8672033" lon="9.598685"><ele>473.1428571428571</ele><time>2026-03-26T09:47:07.985Z</time></trkpt><trkpt lat="44.8672367" lon="9.5987633"><ele>471.7142857142857</ele><time>2026-03-26T09:47:09.985Z</time></trkpt><trkpt lat="44.86728" lon="9.5988633"><ele>470.2857142857143</ele><time>2026-03-26T09:47:22.986Z</time></trkpt><trkpt lat="44.867235" lon="9.59893"><ele>468.85714285714283</ele><time>2026-03-26T09:47:25.986Z</time></trkpt><trkpt lat="44.86718" lon="9.5990133"><ele>467.42857142857144</ele><time>2026-03-26T09:47:28.986Z</time></trkpt><trkpt lat="44.867115" lon="9.599035"><ele>466.0</ele><time>2026-03-26T09:47:30.986Z</time></trkpt><trkpt lat="44.867045" lon="9.599085"><ele>466.00000000000006</ele><time>2026-03-26T09:47:32.987Z</time></trkpt><trkpt lat="44.8669917" lon="9.599165"><ele>466.0</ele><time>2026-03-26T09:47:34.986Z</time></trkpt><trkpt lat="44.866935" lon="9.59924"><ele>466.0</ele><time>2026-03-26T09:47:36.986Z</time></trkpt><trkpt lat="44.8668933" lon="9.5993133"><ele>466.0</ele><time>2026-03-26T09:47:38.986Z</time></trkpt><trkpt lat="44.8668583" lon="9.59941"><ele>466.00000000000006</ele><time>2026-03-26T09:47:40.986Z</time></trkpt><trkpt lat="44.8668083" lon="9.599495"><ele>466.0</ele><time>2026-03-26T09:47:42.987Z</time></trkpt><trkpt lat="44.8667267" lon="9.5995283"><ele>463.00000000000006</ele><time>2026-03-26T09:47:45.986Z</time></trkpt><trkpt lat="44.8666433" lon="9.5995117"><ele>460.0</ele><time>2026-03-26T09:47:48.986Z</time></trkpt><trkpt lat="44.8665633" lon="9.599515"><ele>457.0</ele><time>2026-03-26T09:47:51.986Z</time></trkpt><trkpt lat="44.8665083" lon="9.5996067"><ele>454.0</ele><time>2026-03-26T09:47:54.987Z</time></trkpt><trkpt lat="44.8664667" lon="9.599675"><ele>451.00000000000006</ele><time>2026-03-26T09:47:57.986Z</time></trkpt><trkpt lat="44.8665033" lon="9.5995667"><ele>448.0</ele><time>2026-03-26T09:48:59.985Z</time></trkpt><trkpt lat="44.866555" lon="9.5994717"><ele>448.00000000000006</ele><time>2026-03-26T09:49:01.988Z</time></trkpt><trkpt lat="44.86662" lon="9.5994667"><ele>448.0</ele><time>2026-03-26T09:49:03.986Z</time></trkpt><trkpt lat="44.8667033" lon="9.5994967"><ele>448.0</ele><time>2026-03-26T09:49:06.987Z</time></trkpt><trkpt lat="44.866765" lon="9.59947"><ele>448.0</ele><time>2026-03-26T09:49:09.987Z</time></trkpt><trkpt lat="44.8668017" lon="9.5993367"><ele>448.00000000000006</ele><time>2026-03-26T09:49:12.985Z</time></trkpt><trkpt lat="44.8668433" lon="9.5992433"><ele>448.0</ele><time>2026-03-26T09:49:14.986Z</time></trkpt><trkpt lat="44.866915" lon="9.5991733"><ele>451.00000000000006</ele><time>2026-03-26T09:49:16.986Z</time></trkpt><trkpt lat="44.8669917" lon="9.5990933"><ele>454.0</ele><time>2026-03-26T09:49:18.986Z</time></trkpt><trkpt lat="44.8670567" lon="9.5990333"><ele>457.0</ele><time>2026-03-26T09:49:20.986Z</time></trkpt><trkpt lat="44.8671233" lon="9.599"><ele>460.0</ele><time>2026-03-26T09:49:54.985Z</time></trkpt><trkpt lat="44.8672" lon="9.598965"><ele>463.00000000000006</ele><time>2026-03-26T09:50:32.985Z</time></trkpt><trkpt lat="44.867235" lon="9.5988833"><ele>466.0</ele><time>2026-03-26T09:50:34.986Z</time></trkpt><trkpt lat="44.8672133" lon="9.5987917"><ele>466.00000000000006</ele><time>2026-03-26T09:50:36.986Z</time></trkpt><trkpt lat="44.8671667" lon="9.5986867"><ele>466.0</ele><time>2026-03-26T09:50:38.988Z</time></trkpt><trkpt lat="44.8671633" lon="9.59857"><ele>466.0</ele><time>2026-03-26T09:50:40.985Z</time></trkpt><trkpt lat="44.8672233" lon="9.5984733"><ele>466.0</ele><time>2026-03-26T09:50:42.985Z</time></trkpt><trkpt lat="44.8672867" lon="9.5984017"><ele>466.00000000000006</ele><time>2026-03-26T09:50:43.986Z</time></trkpt><trkpt lat="44.8673583" lon="9.5983383"><ele>466.0</ele><time>2026-03-26T09:50:44.986Z</time></trkpt><trkpt lat="44.867425" lon="9.5982783"><ele>467.6666666666667</ele><time>2026-03-26T09:50:45.986Z</time></trkpt><trkpt lat="44.8674867" lon="9.5982267"><ele>469.33333333333337</ele><time>2026-03-26T09:50:46.986Z</time></trkpt><trkpt lat="44.86754" lon="9.5981567"><ele>471.0</ele><time>2026-03-26T09:50:47.986Z</time></trkpt><trkpt lat="44.8675917" lon="9.5980717"><ele>472.66666666666663</ele><time>2026-03-26T09:50:48.986Z</time></trkpt><trkpt lat="44.8676383" lon="9.5979617"><ele>474.3333333333333</ele><time>2026-03-26T09:50:49.987Z</time></trkpt><trkpt lat="44.8676833" lon="9.5978517"><ele>476.0</ele><time>2026-03-26T09:50:50.987Z</time></trkpt><trkpt lat="44.8677167" lon="9.5977483"><ele>480.8333333333333</ele><time>2026-03-26T09:50:51.985Z</time></trkpt><trkpt lat="44.86775" lon="9.597635"><ele>485.66666666666663</ele><time>2026-03-26T09:50:52.986Z</time></trkpt><trkpt lat="44.8677817" lon="9.5975217"><ele>490.5</ele><time>2026-03-26T09:50:53.986Z</time></trkpt><trkpt lat="44.8678133" lon="9.5974167"><ele>495.33333333333337</ele><time>2026-03-26T09:50:54.985Z</time></trkpt><trkpt lat="44.8678417" lon="9.597315"><ele>500.1666666666667</ele><time>2026-03-26T09:50:55.986Z</time></trkpt><trkpt lat="44.8678667" lon="9.5972233"><ele>505.0</ele><time>2026-03-26T09:50:56.986Z</time></trkpt><trkpt lat="44.867875" lon="9.5971333"><ele>505.00000000000006</ele><time>2026-03-26T09:50:57.986Z</time></trkpt><trkpt lat="44.8678533" lon="9.597045"><ele>505.0</ele><time>2026-03-26T09:50:58.987Z</time></trkpt><trkpt lat="44.8678117" lon="9.5969517"><ele>505.0</ele><time>2026-03-26T09:50:59.986Z</time></trkpt><trkpt lat="44.8677583" lon="9.596855"><ele>505.0</ele><time>2026-03-26T09:51:00.986Z</time></trkpt><trkpt lat="44.8677117" lon="9.59675"><ele>505.00000000000006</ele><time>2026-03-26T09:51:01.986Z</time></trkpt><trkpt lat="44.8676783" lon="9.5966533"><ele>505.0</ele><time>2026-03-26T09:51:02.986Z</time></trkpt><trkpt lat="44.867645" lon="9.5965633"><ele>503.50000000000006</ele><time>2026-03-26T09:51:03.986Z</time></trkpt><trkpt lat="44.8675933" lon="9.5964917"><ele>502.0</ele><time>2026-03-26T09:51:04.986Z</time></trkpt><trkpt lat="44.86754" lon="9.5964133"><ele>500.5</ele><time>2026-03-26T09:51:05.986Z</time></trkpt><trkpt lat="44.8674983" lon="9.596335"><ele>499.0</ele><time>2026-03-26T09:51:06.985Z</time></trkpt><trkpt lat="44.8674567" lon="9.5962133"><ele>497.50000000000006</ele><time>2026-03-26T09:51:08.99Z</time></trkpt><trkpt lat="44.8674967" lon="9.596125"><ele>496.0</ele><time>2026-03-26T09:52:23.987Z</time></trkpt><trkpt lat="44.867555" lon="9.5960133"><ele>500.4</ele><time>2026-03-26T09:52:25.986Z</time></trkpt><trkpt lat="44.867615" lon="9.5958867"><ele>504.8</ele><time>2026-03-26T09:52:27.987Z</time></trkpt><trkpt lat="44.8676717" lon="9.5957733"><ele>509.19999999999993</ele><time>2026-03-26T09:52:29.986Z</time></trkpt><trkpt lat="44.8677483" lon="9.59566"><ele>513.6</ele><time>2026-03-26T09:52:45.987Z</time></trkpt><trkpt lat="44.8678133" lon="9.5956533"><ele>518.0</ele><time>2026-03-26T09:52:52.989Z</time></trkpt><trkpt lat="44.867805" lon="9.59575"><ele>518.0</ele><time>2026-03-26T09:52:55.989Z</time></trkpt><trkpt lat="44.8677833" lon="9.5958617"><ele>518.0</ele><time>2026-03-26T09:52:58.989Z</time></trkpt><trkpt lat="44.86785" lon="9.5959283"><ele>518.0</ele><time>2026-03-26T09:53:20.987Z</time></trkpt><trkpt lat="44.86794" lon="9.5959083"><ele>518.0</ele><time>2026-03-26T09:53:22.989Z</time></trkpt><trkpt lat="44.868045" lon="9.595875"><ele>518.0</ele><time>2026-03-26T09:53:24.988Z</time></trkpt><trkpt lat="44.86811" lon="9.5958567"><ele>518.0</ele><time>2026-03-26T09:53:25.987Z</time></trkpt><trkpt lat="44.868185" lon="9.595845"><ele>518.0</ele><time>2026-03-26T09:53:26.987Z</time></trkpt><trkpt lat="44.868265" lon="9.5958467"><ele>518.0</ele><time>2026-03-26T09:53:27.987Z</time></trkpt><trkpt lat="44.8683383" lon="9.5958667"><ele>518.0</ele><time>2026-03-26T09:53:28.987Z</time></trkpt><trkpt lat="44.86841" lon="9.5958933"><ele>518.0</ele><time>2026-03-26T09:53:29.989Z</time></trkpt><trkpt lat="44.868485" lon="9.5959133"><ele>518.0</ele><time>2026-03-26T09:53:30.987Z</time></trkpt><trkpt lat="44.8685517" lon="9.59594"><ele>518.0</ele><time>2026-03-26T09:53:31.987Z</time></trkpt><trkpt lat="44.86862" lon="9.596005"><ele>519.1666666666666</ele><time>2026-03-26T09:53:32.989Z</time></trkpt><trkpt lat="44.8687017" lon="9.5960767"><ele>520.3333333333333</ele><time>2026-03-26T09:53:33.987Z</time></trkpt><trkpt lat="44.86878" lon="9.5961467"><ele>521.5</ele><time>2026-03-26T09:53:34.987Z</time></trkpt><trkpt lat="44.86885" lon="9.5962267"><ele>522.6666666666666</ele><time>2026-03-26T09:53:35.987Z</time></trkpt><trkpt lat="44.8689033" lon="9.5963183"><ele>523.8333333333334</ele><time>2026-03-26T09:53:36.987Z</time></trkpt><trkpt lat="44.868945" lon="9.5964017"><ele>525.0</ele><time>2026-03-26T09:53:37.987Z</time></trkpt><trkpt lat="44.8689867" lon="9.5964767"><ele>525.6666666666666</ele><time>2026-03-26T09:53:38.988Z</time></trkpt><trkpt lat="44.86904" lon="9.5965367"><ele>526.3333333333334</ele><time>2026-03-26T09:53:39.988Z</time></trkpt><trkpt lat="44.8690933" lon="9.596585"><ele>527.0</ele><time>2026-03-26T09:53:40.987Z</time></trkpt><trkpt lat="44.8691567" lon="9.59663"><ele>527.6666666666667</ele><time>2026-03-26T09:53:41.987Z</time></trkpt><trkpt lat="44.86922" lon="9.5966733"><ele>528.3333333333334</ele><time>2026-03-26T09:53:42.987Z</time></trkpt><trkpt lat="44.8693217" lon="9.5967467"><ele>529.0</ele><time>2026-03-26T09:53:44.988Z</time></trkpt><trkpt lat="44.8693867" lon="9.59678"><ele>529.2</ele><time>2026-03-26T09:53:46.987Z</time></trkpt><trkpt lat="44.8694633" lon="9.5967733"><ele>529.4</ele><time>2026-03-26T09:53:49.988Z</time></trkpt><trkpt lat="44.8695383" lon="9.5967633"><ele>529.6</ele><time>2026-03-26T09:53:57.986Z</time></trkpt><trkpt lat="44.869625" lon="9.5968"><ele>529.8</ele><time>2026-03-26T09:53:59.987Z</time></trkpt><trkpt lat="44.8697133" lon="9.5968783"><ele>530.0</ele><time>2026-03-26T09:54:01.986Z</time></trkpt><trkpt lat="44.8698067" lon="9.596975"><ele>530.1666666666666</ele><time>2026-03-26T09:54:03.987Z</time></trkpt><trkpt lat="44.869905" lon="9.597035"><ele>530.3333333333333</ele><time>2026-03-26T09:54:05.988Z</time></trkpt><trkpt lat="44.8700167" lon="9.5970333"><ele>530.5</ele><time>2026-03-26T09:54:07.988Z</time></trkpt><trkpt lat="44.87008" lon="9.5970167"><ele>530.6666666666666</ele><time>2026-03-26T09:54:08.988Z</time></trkpt><trkpt lat="44.8701433" lon="9.596995"><ele>530.8333333333334</ele><time>2026-03-26T09:54:09.987Z</time></trkpt><trkpt lat="44.870215" lon="9.59697"><ele>531.0</ele><time>2026-03-26T09:54:10.987Z</time></trkpt><trkpt lat="44.87029" lon="9.5969383"><ele>528.8333333333334</ele><time>2026-03-26T09:54:11.986Z</time></trkpt><trkpt lat="44.87037" lon="9.5968983"><ele>526.6666666666666</ele><time>2026-03-26T09:54:12.991Z</time></trkpt><trkpt lat="44.8704517" lon="9.59685"><ele>524.5</ele><time>2026-03-26T09:54:13.987Z</time></trkpt><trkpt lat="44.870515" lon="9.5967933"><ele>522.3333333333333</ele><time>2026-03-26T09:54:14.988Z</time></trkpt><trkpt lat="44.87056" lon="9.59673"><ele>520.1666666666666</ele><time>2026-03-26T09:54:15.987Z</time></trkpt><trkpt lat="44.8706633" lon="9.5966267"><ele>518.0</ele><time>2026-03-26T09:54:17.987Z</time></trkpt><trkpt lat="44.870775" lon="9.5965067"><ele>518.0</ele><time>2026-03-26T09:54:19.988Z</time></trkpt><trkpt lat="44.87083" lon="9.5964267"><ele>518.0</ele><time>2026-03-26T09:54:20.988Z</time></trkpt><trkpt lat="44.8708683" lon="9.5963367"><ele>518.0</ele><time>2026-03-26T09:54:22.025Z</time></trkpt><trkpt lat="44.870895" lon="9.5962533"><ele>518.0</ele><time>2026-03-26T09:54:22.988Z</time></trkpt><trkpt lat="44.8709217" lon="9.59613"><ele>518.0</ele><time>2026-03-26T09:54:24.987Z</time></trkpt><trkpt lat="44.8709283" lon="9.5960317"><ele>518.0</ele><time>2026-03-26T09:54:26.988Z</time></trkpt><trkpt lat="44.8708833" lon="9.5959583"><ele>518.0</ele><time>2026-03-26T09:54:28.987Z</time></trkpt><trkpt lat="44.8707783" lon="9.5959133"><ele>516.0</ele><time>2026-03-26T09:54:30.987Z</time></trkpt><trkpt lat="44.8706467" lon="9.5958567"><ele>514.0</ele><time>2026-03-26T09:54:32.987Z</time></trkpt><trkpt lat="44.8705583" lon="9.5958217"><ele>512.0</ele><time>2026-03-26T09:54:33.986Z</time></trkpt><trkpt lat="44.8704467" lon="9.5957783"><ele>510.0</ele><time>2026-03-26T09:54:34.988Z</time></trkpt><trkpt lat="44.8703183" lon="9.5957367"><ele>510.0</ele><time>2026-03-26T09:54:35.986Z</time></trkpt><trkpt lat="44.870195" lon="9.5956867"><ele>510.0</ele><time>2026-03-26T09:54:36.987Z</time></trkpt><trkpt lat="44.8700817" lon="9.5956367"><ele>510.0</ele><time>2026-03-26T09:54:37.986Z</time></trkpt><trkpt lat="44.869975" lon="9.595575"><ele>510.0</ele><time>2026-03-26T09:54:38.988Z</time></trkpt><trkpt lat="44.86987" lon="9.5955083"><ele>509.0</ele><time>2026-03-26T09:54:39.988Z</time></trkpt><trkpt lat="44.8697633" lon="9.5954317"><ele>508.0</ele><time>2026-03-26T09:54:40.986Z</time></trkpt><trkpt lat="44.8696517" lon="9.5953433"><ele>507.0</ele><time>2026-03-26T09:54:41.987Z</time></trkpt><trkpt lat="44.8695433" lon="9.595255"><ele>506.0</ele><time>2026-03-26T09:54:42.986Z</time></trkpt><trkpt lat="44.8694433" lon="9.59516"><ele>506.0</ele><time>2026-03-26T09:54:43.986Z</time></trkpt><trkpt lat="44.8693583" lon="9.5950633"><ele>506.0</ele><time>2026-03-26T09:54:44.987Z</time></trkpt><trkpt lat="44.8692833" lon="9.5949667"><ele>506.0</ele><time>2026-03-26T09:54:45.987Z</time></trkpt><trkpt lat="44.8692133" lon="9.5948733"><ele>506.0</ele><time>2026-03-26T09:54:46.986Z</time></trkpt><trkpt lat="44.869145" lon="9.59478"><ele>506.0</ele><time>2026-03-26T09:54:47.987Z</time></trkpt><trkpt lat="44.8690833" lon="9.5946767"><ele>506.0</ele><time>2026-03-26T09:54:48.987Z</time></trkpt><trkpt lat="44.86902" lon="9.5945667"><ele>506.0</ele><time>2026-03-26T09:54:49.987Z</time></trkpt><trkpt lat="44.8689533" lon="9.5944417"><ele>506.0</ele><time>2026-03-26T09:54:50.988Z</time></trkpt><trkpt lat="44.8688867" lon="9.5943067"><ele>506.0</ele><time>2026-03-26T09:54:51.986Z</time></trkpt><trkpt lat="44.8688267" lon="9.5941783"><ele>506.0</ele><time>2026-03-26T09:54:52.987Z</time></trkpt><trkpt lat="44.8687617" lon="9.5940633"><ele>506.0</ele><time>2026-03-26T09:54:53.987Z</time></trkpt><trkpt lat="44.8686967" lon="9.5939533"><ele>506.0</ele><time>2026-03-26T09:54:54.987Z</time></trkpt><trkpt lat="44.86863" lon="9.593855"><ele>506.0</ele><time>2026-03-26T09:54:55.987Z</time></trkpt><trkpt lat="44.86856" lon="9.5937633"><ele>506.0</ele><time>2026-03-26T09:54:56.987Z</time></trkpt><trkpt lat="44.8684867" lon="9.593685"><ele>506.0</ele><time>2026-03-26T09:54:57.987Z</time></trkpt><trkpt lat="44.8684067" lon="9.5936233"><ele>506.20000000000005</ele><time>2026-03-26T09:54:58.987Z</time></trkpt><trkpt lat="44.868315" lon="9.59357"><ele>506.40000000000003</ele><time>2026-03-26T09:54:59.987Z</time></trkpt><trkpt lat="44.8682033" lon="9.5935383"><ele>506.6</ele><time>2026-03-26T09:55:00.987Z</time></trkpt><trkpt lat="44.868085" lon="9.5935217"><ele>506.8</ele><time>2026-03-26T09:55:01.987Z</time></trkpt><trkpt lat="44.8679717" lon="9.5935017"><ele>507.0</ele><time>2026-03-26T09:55:02.991Z</time></trkpt><trkpt lat="44.8678667" lon="9.5934883"><ele>507.0</ele><time>2026-03-26T09:55:03.985Z</time></trkpt><trkpt lat="44.8677717" lon="9.5934783"><ele>507.0</ele><time>2026-03-26T09:55:04.987Z</time></trkpt><trkpt lat="44.867685" lon="9.59347"><ele>507.0</ele><time>2026-03-26T09:55:05.987Z</time></trkpt><trkpt lat="44.8676017" lon="9.5934533"><ele>507.0</ele><time>2026-03-26T09:55:06.987Z</time></trkpt><trkpt lat="44.86752" lon="9.5934233"><ele>507.0</ele><time>2026-03-26T09:55:07.987Z</time></trkpt><trkpt lat="44.86744" lon="9.5933833"><ele>507.0</ele><time>2026-03-26T09:55:08.987Z</time></trkpt><trkpt lat="44.8673583" lon="9.5933317"><ele>507.6</ele><time>2026-03-26T09:55:09.987Z</time></trkpt><trkpt lat="44.8672783" lon="9.5932617"><ele>508.20000000000005</ele><time>2026-03-26T09:55:10.987Z</time></trkpt><trkpt lat="44.8672033" lon="9.5931733"><ele>508.8</ele><time>2026-03-26T09:55:11.987Z</time></trkpt><trkpt lat="44.8671367" lon="9.5930683"><ele>509.4</ele><time>2026-03-26T09:55:12.987Z</time></trkpt><trkpt lat="44.8670783" lon="9.5929483"><ele>510.0</ele><time>2026-03-26T09:55:13.986Z</time></trkpt><trkpt lat="44.8670317" lon="9.5928233"><ele>510.0</ele><time>2026-03-26T09:55:14.987Z</time></trkpt><trkpt lat="44.8669983" lon="9.592695"><ele>510.0</ele><time>2026-03-26T09:55:15.986Z</time></trkpt><trkpt lat="44.866975" lon="9.5925717"><ele>510.0</ele><time>2026-03-26T09:55:16.986Z</time></trkpt><trkpt lat="44.8669633" lon="9.5924533"><ele>510.0</ele><time>2026-03-26T09:55:17.987Z</time></trkpt><trkpt lat="44.8669517" lon="9.5923483"><ele>510.0</ele><time>2026-03-26T09:55:18.986Z</time></trkpt><trkpt lat="44.8669217" lon="9.5921883"><ele>510.0</ele><time>2026-03-26T09:55:20.985Z</time></trkpt><trkpt lat="44.8668417" lon="9.5920317"><ele>510.0</ele><time>2026-03-26T09:55:22.986Z</time></trkpt><trkpt lat="44.86678" lon="9.5919283"><ele>510.0</ele><time>2026-03-26T09:55:23.987Z</time></trkpt><trkpt lat="44.8667233" lon="9.5917933"><ele>510.0</ele><time>2026-03-26T09:55:24.986Z</time></trkpt><trkpt lat="44.8666517" lon="9.5916367"><ele>510.25</ele><time>2026-03-26T09:55:25.986Z</time></trkpt><trkpt lat="44.86658" lon="9.591465"><ele>510.5</ele><time>2026-03-26T09:55:26.987Z</time></trkpt><trkpt lat="44.8664967" lon="9.59129"><ele>510.75</ele><time>2026-03-26T09:55:27.986Z</time></trkpt><trkpt lat="44.8664083" lon="9.5911233"><ele>511.0</ele><time>2026-03-26T09:55:28.986Z</time></trkpt><trkpt lat="44.8663283" lon="9.5909817"><ele>510.6</ele><time>2026-03-26T09:55:29.986Z</time></trkpt><trkpt lat="44.866255" lon="9.59087"><ele>510.20000000000005</ele><time>2026-03-26T09:55:30.986Z</time></trkpt><trkpt lat="44.8661817" lon="9.5907867"><ele>509.79999999999995</ele><time>2026-03-26T09:55:31.988Z</time></trkpt><trkpt lat="44.8661" lon="9.5907183"><ele>509.4</ele><time>2026-03-26T09:55:32.987Z</time></trkpt><trkpt lat="44.866005" lon="9.5906767"><ele>509.0</ele><time>2026-03-26T09:55:33.987Z</time></trkpt><trkpt lat="44.8659117" lon="9.5906783"><ele>511.8333333333333</ele><time>2026-03-26T09:55:34.987Z</time></trkpt><trkpt lat="44.8658333" lon="9.5907017"><ele>514.6666666666666</ele><time>2026-03-26T09:55:35.987Z</time></trkpt><trkpt lat="44.865745" lon="9.5907633"><ele>517.5</ele><time>2026-03-26T09:55:37.987Z</time></trkpt><trkpt lat="44.865665" lon="9.5908167"><ele>520.3333333333334</ele><time>2026-03-26T09:56:09.985Z</time></trkpt><trkpt lat="44.8655767" lon="9.590775"><ele>523.1666666666667</ele><time>2026-03-26T09:56:11.988Z</time></trkpt><trkpt lat="44.86551" lon="9.59073"><ele>526.0</ele><time>2026-03-26T09:56:13.988Z</time></trkpt><trkpt lat="44.8654467" lon="9.5906967"><ele>526.0</ele><time>2026-03-26T09:56:15.987Z</time></trkpt><trkpt lat="44.8653817" lon="9.5906783"><ele>526.0</ele><time>2026-03-26T09:56:18.987Z</time></trkpt><trkpt lat="44.865335" lon="9.5905917"><ele>526.0</ele><time>2026-03-26T09:56:23.992Z</time></trkpt><trkpt lat="44.8653067" lon="9.5904783"><ele>526.0</ele><time>2026-03-26T09:56:25.986Z</time></trkpt><trkpt lat="44.8652183" lon="9.5903367"><ele>526.0</ele><time>2026-03-26T09:56:27.987Z</time></trkpt><trkpt lat="44.86516" lon="9.5902517"><ele>526.0</ele><time>2026-03-26T09:56:28.987Z</time></trkpt><trkpt lat="44.8650967" lon="9.5901683"><ele>530.0</ele><time>2026-03-26T09:56:29.987Z</time></trkpt><trkpt lat="44.8650367" lon="9.5900967"><ele>534.0</ele><time>2026-03-26T09:56:30.986Z</time></trkpt><trkpt lat="44.86495" lon="9.5900383"><ele>538.0</ele><time>2026-03-26T09:56:32.987Z</time></trkpt><trkpt lat="44.864915" lon="9.5901433"><ele>542.0</ele><time>2026-03-26T09:56:36.988Z</time></trkpt><trkpt lat="44.8648667" lon="9.5902017"><ele>546.0</ele><time>2026-03-26T09:56:38.988Z</time></trkpt><trkpt lat="44.8648017" lon="9.5902517"><ele>550.0</ele><time>2026-03-26T09:56:40.986Z</time></trkpt><trkpt lat="44.8647217" lon="9.5902233"><ele>550.0</ele><time>2026-03-26T09:56:43.986Z</time></trkpt><trkpt lat="44.8646483" lon="9.590095"><ele>550.0</ele><time>2026-03-26T09:56:45.986Z</time></trkpt><trkpt lat="44.864605" lon="9.5900117"><ele>550.0</ele><time>2026-03-26T09:56:46.987Z</time></trkpt><trkpt lat="44.86456" lon="9.5899317"><ele>550.0</ele><time>2026-03-26T09:56:47.989Z</time></trkpt><trkpt lat="44.864515" lon="9.58985"><ele>550.0</ele><time>2026-03-26T09:56:48.987Z</time></trkpt><trkpt lat="44.8644617" lon="9.5897617"><ele>550.0</ele><time>2026-03-26T09:56:49.988Z</time></trkpt><trkpt lat="44.864405" lon="9.5896717"><ele>550.0</ele><time>2026-03-26T09:56:50.988Z</time></trkpt><trkpt lat="44.86435" lon="9.5895817"><ele>550.0</ele><time>2026-03-26T09:56:51.988Z</time></trkpt><trkpt lat="44.8642917" lon="9.5895017"><ele>550.0</ele><time>2026-03-26T09:56:53.058Z</time></trkpt><trkpt lat="44.8642383" lon="9.5894267"><ele>550.0</ele><time>2026-03-26T09:56:53.986Z</time></trkpt><trkpt lat="44.8641883" lon="9.5893667"><ele>550.0</ele><time>2026-03-26T09:56:54.987Z</time></trkpt><trkpt lat="44.8640883" lon="9.58925"><ele>550.0</ele><time>2026-03-26T09:56:56.987Z</time></trkpt><trkpt lat="44.8640333" lon="9.589175"><ele>552.0</ele><time>2026-03-26T09:56:57.987Z</time></trkpt><trkpt lat="44.86398" lon="9.5890833"><ele>554.0</ele><time>2026-03-26T09:56:58.987Z</time></trkpt><trkpt lat="44.86393" lon="9.5889833"><ele>556.0</ele><time>2026-03-26T09:56:59.987Z</time></trkpt><trkpt lat="44.8638867" lon="9.5888767"><ele>558.0</ele><time>2026-03-26T09:57:00.987Z</time></trkpt><trkpt lat="44.8638433" lon="9.5887617"><ele>560.0</ele><time>2026-03-26T09:57:01.985Z</time></trkpt><trkpt lat="44.8638017" lon="9.5886533"><ele>562.0</ele><time>2026-03-26T09:57:02.987Z</time></trkpt><trkpt lat="44.86376" lon="9.5885517"><ele>562.0</ele><time>2026-03-26T09:57:03.986Z</time></trkpt><trkpt lat="44.8637217" lon="9.5884617"><ele>562.0</ele><time>2026-03-26T09:57:04.987Z</time></trkpt><trkpt lat="44.863685" lon="9.5883817"><ele>562.0</ele><time>2026-03-26T09:57:05.987Z</time></trkpt><trkpt lat="44.8636183" lon="9.5882583"><ele>562.0</ele><time>2026-03-26T09:57:07.988Z</time></trkpt><trkpt lat="44.8635633" lon="9.5881683"><ele>562.0</ele><time>2026-03-26T09:57:09.987Z</time></trkpt><trkpt lat="44.8635217" lon="9.5880983"><ele>562.0</ele><time>2026-03-26T09:57:11.988Z</time></trkpt><trkpt lat="44.86346" lon="9.5879783"><ele>563.4</ele><time>2026-03-26T09:57:14.987Z</time></trkpt><trkpt lat="44.863395" lon="9.5878317"><ele>564.8000000000001</ele><time>2026-03-26T09:57:16.986Z</time></trkpt><trkpt lat="44.86335" lon="9.587745"><ele>566.2</ele><time>2026-03-26T09:57:17.987Z</time></trkpt><trkpt lat="44.8633" lon="9.58765"><ele>567.6</ele><time>2026-03-26T09:57:18.986Z</time></trkpt><trkpt lat="44.8632483" lon="9.5875517"><ele>569.0</ele><time>2026-03-26T09:57:19.986Z</time></trkpt><trkpt lat="44.8631933" lon="9.587465"><ele>569.0</ele><time>2026-03-26T09:57:20.987Z</time></trkpt><trkpt lat="44.863135" lon="9.5873917"><ele>569.0</ele><time>2026-03-26T09:57:21.986Z</time></trkpt><trkpt lat="44.8630783" lon="9.58732"><ele>569.0</ele><time>2026-03-26T09:57:22.987Z</time></trkpt><trkpt lat="44.8630167" lon="9.5872483"><ele>569.0</ele><time>2026-03-26T09:57:23.986Z</time></trkpt><trkpt lat="44.8629483" lon="9.5871783"><ele>569.0</ele><time>2026-03-26T09:57:24.987Z</time></trkpt><trkpt lat="44.862865" lon="9.5871167"><ele>569.0</ele><time>2026-03-26T09:57:25.987Z</time></trkpt><trkpt lat="44.8627783" lon="9.5870633"><ele>569.0</ele><time>2026-03-26T09:57:26.987Z</time></trkpt><trkpt lat="44.8626933" lon="9.587015"><ele>569.0</ele><time>2026-03-26T09:57:27.987Z</time></trkpt><trkpt lat="44.862615" lon="9.5869683"><ele>569.0</ele><time>2026-03-26T09:57:28.985Z</time></trkpt><trkpt lat="44.862545" lon="9.58692"><ele>569.0</ele><time>2026-03-26T09:57:29.986Z</time></trkpt><trkpt lat="44.8624817" lon="9.5868733"><ele>569.0</ele><time>2026-03-26T09:57:30.986Z</time></trkpt><trkpt lat="44.8624183" lon="9.5868233"><ele>569.0</ele><time>2026-03-26T09:57:31.987Z</time></trkpt><trkpt lat="44.8623517" lon="9.58677"><ele>569.0</ele><time>2026-03-26T09:57:32.987Z</time></trkpt><trkpt lat="44.862285" lon="9.586715"><ele>569.0</ele><time>2026-03-26T09:57:33.986Z</time></trkpt><trkpt lat="44.8622267" lon="9.5866683"><ele>569.0</ele><time>2026-03-26T09:57:34.986Z</time></trkpt><trkpt lat="44.862155" lon="9.5866167"><ele>569.0</ele><time>2026-03-26T09:57:36.986Z</time></trkpt><trkpt lat="44.862085" lon="9.5865633"><ele>569.0</ele><time>2026-03-26T09:57:38.987Z</time></trkpt><trkpt lat="44.8619633" lon="9.5864967"><ele>569.0</ele><time>2026-03-26T09:57:40.986Z</time></trkpt><trkpt lat="44.8618933" lon="9.5864583"><ele>569.0000000000001</ele><time>2026-03-26T09:57:41.986Z</time></trkpt><trkpt lat="44.8618283" lon="9.5864167"><ele>569.0</ele><time>2026-03-26T09:57:42.987Z</time></trkpt><trkpt lat="44.8617667" lon="9.5863717"><ele>569.0</ele><time>2026-03-26T09:57:43.987Z</time></trkpt><trkpt lat="44.8617083" lon="9.5863183"><ele>569.0</ele><time>2026-03-26T09:57:44.987Z</time></trkpt><trkpt lat="44.8616517" lon="9.5862633"><ele>569.0</ele><time>2026-03-26T09:57:45.986Z</time></trkpt><trkpt lat="44.8615933" lon="9.5862117"><ele>569.0000000000001</ele><time>2026-03-26T09:57:46.987Z</time></trkpt><trkpt lat="44.861535" lon="9.5861733"><ele>569.0</ele><time>2026-03-26T09:57:47.986Z</time></trkpt><trkpt lat="44.8614717" lon="9.5861383"><ele>569.5714285714287</ele><time>2026-03-26T09:57:48.987Z</time></trkpt><trkpt lat="44.8614133" lon="9.5861033"><ele>570.1428571428571</ele><time>2026-03-26T09:57:49.987Z</time></trkpt><trkpt lat="44.8613533" lon="9.5860567"><ele>570.7142857142858</ele><time>2026-03-26T09:57:50.987Z</time></trkpt><trkpt lat="44.861295" lon="9.586"><ele>571.2857142857143</ele><time>2026-03-26T09:57:51.986Z</time></trkpt><trkpt lat="44.8612383" lon="9.58593"><ele>571.8571428571429</ele><time>2026-03-26T09:57:52.987Z</time></trkpt><trkpt lat="44.861175" lon="9.5858617"><ele>572.4285714285714</ele><time>2026-03-26T09:57:53.985Z</time></trkpt><trkpt lat="44.8611" lon="9.5857967"><ele>573.0</ele><time>2026-03-26T09:57:54.987Z</time></trkpt><trkpt lat="44.861025" lon="9.5857467"><ele>573.0</ele><time>2026-03-26T09:57:55.987Z</time></trkpt><trkpt lat="44.8609533" lon="9.5857017"><ele>573.0</ele><time>2026-03-26T09:57:56.989Z</time></trkpt><trkpt lat="44.8608867" lon="9.5856583"><ele>573.0</ele><time>2026-03-26T09:57:57.986Z</time></trkpt><trkpt lat="44.8608233" lon="9.5856267"><ele>573.0</ele><time>2026-03-26T09:57:58.99Z</time></trkpt><trkpt lat="44.8607583" lon="9.58562"><ele>573.0</ele><time>2026-03-26T09:57:59.986Z</time></trkpt><trkpt lat="44.8606933" lon="9.5856417"><ele>573.0</ele><time>2026-03-26T09:58:00.986Z</time></trkpt><trkpt lat="44.8606217" lon="9.5856883"><ele>573.0</ele><time>2026-03-26T09:58:01.985Z</time></trkpt><trkpt lat="44.8605567" lon="9.585735"><ele>572.6</ele><time>2026-03-26T09:58:02.987Z</time></trkpt><trkpt lat="44.860455" lon="9.5857867"><ele>572.1999999999999</ele><time>2026-03-26T09:58:04.986Z</time></trkpt><trkpt lat="44.8603783" lon="9.5858217"><ele>571.8</ele><time>2026-03-26T09:58:06.986Z</time></trkpt><trkpt lat="44.8603117" lon="9.5859283"><ele>571.4</ele><time>2026-03-26T09:58:08.987Z</time></trkpt><trkpt lat="44.8602417" lon="9.58605"><ele>571.0</ele><time>2026-03-26T09:58:10.987Z</time></trkpt><trkpt lat="44.8601867" lon="9.5861433"><ele>569.8333333333334</ele><time>2026-03-26T09:58:12.986Z</time></trkpt><trkpt lat="44.86017" lon="9.5862733"><ele>568.6666666666667</ele><time>2026-03-26T09:58:14.987Z</time></trkpt><trkpt lat="44.8601567" lon="9.5864367"><ele>567.5</ele><time>2026-03-26T09:58:16.987Z</time></trkpt><trkpt lat="44.8601217" lon="9.58652"><ele>566.3333333333334</ele><time>2026-03-26T09:58:17.985Z</time></trkpt><trkpt lat="44.860075" lon="9.5866017"><ele>565.1666666666666</ele><time>2026-03-26T09:58:18.987Z</time></trkpt><trkpt lat="44.8600217" lon="9.5866883"><ele>564.0</ele><time>2026-03-26T09:58:19.985Z</time></trkpt><trkpt lat="44.859975" lon="9.5867683"><ele>566.2</ele><time>2026-03-26T09:58:20.986Z</time></trkpt><trkpt lat="44.8599433" lon="9.5868483"><ele>568.4</ele><time>2026-03-26T09:58:21.987Z</time></trkpt><trkpt lat="44.8599133" lon="9.5870117"><ele>570.6</ele><time>2026-03-26T09:58:23.986Z</time></trkpt><trkpt lat="44.859855" lon="9.5871333"><ele>572.8</ele><time>2026-03-26T09:58:25.987Z</time></trkpt><trkpt lat="44.85979" lon="9.5871967"><ele>575.0</ele><time>2026-03-26T09:58:26.987Z</time></trkpt><trkpt lat="44.8597133" lon="9.5872567"><ele>575.0</ele><time>2026-03-26T09:58:27.985Z</time></trkpt><trkpt lat="44.85963" lon="9.5873017"><ele>575.0</ele><time>2026-03-26T09:58:28.986Z</time></trkpt><trkpt lat="44.85955" lon="9.58732"><ele>575.0</ele><time>2026-03-26T09:58:29.987Z</time></trkpt><trkpt lat="44.8594683" lon="9.58733"><ele>575.0</ele><time>2026-03-26T09:58:30.987Z</time></trkpt><trkpt lat="44.859395" lon="9.5873283"><ele>575.0</ele><time>2026-03-26T09:58:31.987Z</time></trkpt><trkpt lat="44.859285" lon="9.5873217"><ele>575.0</ele><time>2026-03-26T09:58:33.986Z</time></trkpt><trkpt lat="44.85919" lon="9.5873383"><ele>578.6666666666666</ele><time>2026-03-26T10:05:03.986Z</time></trkpt><trkpt lat="44.859075" lon="9.5872733"><ele>582.3333333333333</ele><time>2026-03-26T10:05:05.986Z</time></trkpt><trkpt lat="44.8590183" lon="9.58723"><ele>586.0</ele><time>2026-03-26T10:05:06.987Z</time></trkpt><trkpt lat="44.8589417" lon="9.5871133"><ele>589.6666666666666</ele><time>2026-03-26T10:05:08.986Z</time></trkpt><trkpt lat="44.8589033" lon="9.587035"><ele>593.3333333333334</ele><time>2026-03-26T10:05:09.987Z</time></trkpt><trkpt lat="44.85887" lon="9.5869317"><ele>597.0</ele><time>2026-03-26T10:05:10.986Z</time></trkpt><trkpt lat="44.85884" lon="9.58681"><ele>597.75</ele><time>2026-03-26T10:05:11.988Z</time></trkpt><trkpt lat="44.858815" lon="9.5866517"><ele>598.5</ele><time>2026-03-26T10:05:12.986Z</time></trkpt><trkpt lat="44.8587917" lon="9.586485"><ele>599.25</ele><time>2026-03-26T10:05:13.986Z</time></trkpt><trkpt lat="44.8587733" lon="9.5863183"><ele>600.0</ele><time>2026-03-26T10:05:14.987Z</time></trkpt><trkpt lat="44.8587617" lon="9.5861717"><ele>601.2</ele><time>2026-03-26T10:05:15.987Z</time></trkpt><trkpt lat="44.858745" lon="9.5860383"><ele>602.4</ele><time>2026-03-26T10:05:16.986Z</time></trkpt><trkpt lat="44.85871" lon="9.5859033"><ele>603.6</ele><time>2026-03-26T10:05:17.986Z</time></trkpt><trkpt lat="44.8586667" lon="9.5857733"><ele>604.8</ele><time>2026-03-26T10:05:18.986Z</time></trkpt><trkpt lat="44.85862" lon="9.5856533"><ele>606.0</ele><time>2026-03-26T10:05:19.986Z</time></trkpt><trkpt lat="44.8585683" lon="9.5855567"><ele>606.0</ele><time>2026-03-26T10:05:20.988Z</time></trkpt><trkpt lat="44.8585117" lon="9.5854617"><ele>606.0</ele><time>2026-03-26T10:05:21.986Z</time></trkpt><trkpt lat="44.858445" lon="9.585365"><ele>606.0</ele><time>2026-03-26T10:05:22.986Z</time></trkpt><trkpt lat="44.8583767" lon="9.5852717"><ele>606.0</ele><time>2026-03-26T10:05:23.986Z</time></trkpt><trkpt lat="44.858315" lon="9.5851667"><ele>606.0</ele><time>2026-03-26T10:05:24.988Z</time></trkpt><trkpt lat="44.8582583" lon="9.5850517"><ele>608.5</ele><time>2026-03-26T10:05:25.986Z</time></trkpt><trkpt lat="44.8582183" lon="9.5849583"><ele>611.0</ele><time>2026-03-26T10:05:26.986Z</time></trkpt><trkpt lat="44.8581367" lon="9.584825"><ele>613.5</ele><time>2026-03-26T10:05:28.987Z</time></trkpt><trkpt lat="44.8580733" lon="9.5847733"><ele>616.0</ele><time>2026-03-26T10:05:29.986Z</time></trkpt><trkpt lat="44.8580067" lon="9.5847417"><ele>618.5</ele><time>2026-03-26T10:05:30.986Z</time></trkpt><trkpt lat="44.8579133" lon="9.5846933"><ele>621.0</ele><time>2026-03-26T10:05:32.986Z</time></trkpt><trkpt lat="44.8578533" lon="9.5846017"><ele>622.0</ele><time>2026-03-26T10:05:34.986Z</time></trkpt><trkpt lat="44.8578517" lon="9.5844267"><ele>623.0</ele><time>2026-03-26T10:05:36.986Z</time></trkpt><trkpt lat="44.8578883" lon="9.584325"><ele>624.0</ele><time>2026-03-26T10:05:37.986Z</time></trkpt><trkpt lat="44.8579517" lon="9.5842183"><ele>625.0</ele><time>2026-03-26T10:05:38.987Z</time></trkpt><trkpt lat="44.858035" lon="9.584095"><ele>626.0</ele><time>2026-03-26T10:05:39.987Z</time></trkpt><trkpt lat="44.8581283" lon="9.583975"><ele>626.0</ele><time>2026-03-26T10:05:40.985Z</time></trkpt><trkpt lat="44.8582233" lon="9.5838767"><ele>626.0</ele><time>2026-03-26T10:05:41.986Z</time></trkpt><trkpt lat="44.858315" lon="9.5837983"><ele>626.0</ele><time>2026-03-26T10:05:42.986Z</time></trkpt><trkpt lat="44.8584017" lon="9.5837233"><ele>626.0</ele><time>2026-03-26T10:05:43.985Z</time></trkpt><trkpt lat="44.858485" lon="9.5836383"><ele>626.0</ele><time>2026-03-26T10:05:44.985Z</time></trkpt><trkpt lat="44.85856" lon="9.5835667"><ele>628.0</ele><time>2026-03-26T10:05:45.985Z</time></trkpt><trkpt lat="44.858635" lon="9.583515"><ele>630.0</ele><time>2026-03-26T10:05:46.986Z</time></trkpt><trkpt lat="44.8587417" lon="9.5834667"><ele>632.0</ele><time>2026-03-26T10:05:48.985Z</time></trkpt><trkpt lat="44.8587883" lon="9.5833567"><ele>634.0</ele><time>2026-03-26T10:05:50.986Z</time></trkpt><trkpt lat="44.8587817" lon="9.583255"><ele>636.0</ele><time>2026-03-26T10:05:51.985Z</time></trkpt><trkpt lat="44.8587767" lon="9.5831233"><ele>636.0</ele><time>2026-03-26T10:05:52.986Z</time></trkpt><trkpt lat="44.8587833" lon="9.5829767"><ele>636.0</ele><time>2026-03-26T10:05:53.987Z</time></trkpt><trkpt lat="44.8588017" lon="9.5828267"><ele>636.0</ele><time>2026-03-26T10:05:54.987Z</time></trkpt><trkpt lat="44.8588283" lon="9.5827"><ele>636.0</ele><time>2026-03-26T10:05:55.986Z</time></trkpt><trkpt lat="44.8588583" lon="9.5825983"><ele>636.0</ele><time>2026-03-26T10:05:56.986Z</time></trkpt><trkpt lat="44.8588917" lon="9.58252"><ele>636.0</ele><time>2026-03-26T10:05:57.986Z</time></trkpt><trkpt lat="44.8589767" lon="9.5825867"><ele>636.8333333333334</ele><time>2026-03-26T10:06:00.987Z</time></trkpt><trkpt lat="44.859025" lon="9.5826567"><ele>637.6666666666666</ele><time>2026-03-26T10:06:01.985Z</time></trkpt><trkpt lat="44.8590817" lon="9.5827167"><ele>638.5</ele><time>2026-03-26T10:06:02.986Z</time></trkpt><trkpt lat="44.8591467" lon="9.5827583"><ele>639.3333333333333</ele><time>2026-03-26T10:06:03.986Z</time></trkpt><trkpt lat="44.8592117" lon="9.582785"><ele>640.1666666666666</ele><time>2026-03-26T10:06:04.986Z</time></trkpt><trkpt lat="44.85932" lon="9.5827817"><ele>641.0</ele><time>2026-03-26T10:06:06.987Z</time></trkpt><trkpt lat="44.8593717" lon="9.5826517"><ele>641.0</ele><time>2026-03-26T10:06:08.987Z</time></trkpt><trkpt lat="44.8593867" lon="9.5825633"><ele>641.0</ele><time>2026-03-26T10:06:09.986Z</time></trkpt><trkpt lat="44.8594267" lon="9.582415"><ele>641.0</ele><time>2026-03-26T10:06:11.987Z</time></trkpt><trkpt lat="44.8594917" lon="9.58227"><ele>641.0</ele><time>2026-03-26T10:06:13.987Z</time></trkpt><trkpt lat="44.85954" lon="9.5821917"><ele>641.0</ele><time>2026-03-26T10:06:14.986Z</time></trkpt><trkpt lat="44.8595967" lon="9.5821033"><ele>641.0</ele><time>2026-03-26T10:06:15.986Z</time></trkpt><trkpt lat="44.859655" lon="9.5820183"><ele>641.0</ele><time>2026-03-26T10:06:16.988Z</time></trkpt><trkpt lat="44.8597033" lon="9.5819383"><ele>641.0</ele><time>2026-03-26T10:06:17.986Z</time></trkpt><trkpt lat="44.859745" lon="9.58187"><ele>641.0</ele><time>2026-03-26T10:06:18.986Z</time></trkpt><trkpt lat="44.8597933" lon="9.5817867"><ele>641.0</ele><time>2026-03-26T10:06:20.985Z</time></trkpt><trkpt lat="44.8598683" lon="9.5817167"><ele>641.0</ele><time>2026-03-26T10:06:53.986Z</time></trkpt><trkpt lat="44.8598667" lon="9.5816233"><ele>642.5</ele><time>2026-03-26T10:06:57.987Z</time></trkpt><trkpt lat="44.8598117" lon="9.581525"><ele>644.0</ele><time>2026-03-26T10:06:59.986Z</time></trkpt><trkpt lat="44.859765" lon="9.5814533"><ele>645.5</ele><time>2026-03-26T10:07:00.986Z</time></trkpt><trkpt lat="44.85971" lon="9.5813617"><ele>647.0</ele><time>2026-03-26T10:07:01.986Z</time></trkpt><trkpt lat="44.8596533" lon="9.5812633"><ele>648.5</ele><time>2026-03-26T10:07:02.987Z</time></trkpt><trkpt lat="44.859595" lon="9.5811567"><ele>650.0</ele><time>2026-03-26T10:07:03.986Z</time></trkpt><trkpt lat="44.8595383" lon="9.5810467"><ele>650.0</ele><time>2026-03-26T10:07:04.988Z</time></trkpt><trkpt lat="44.859485" lon="9.5809483"><ele>650.0</ele><time>2026-03-26T10:07:05.987Z</time></trkpt><trkpt lat="44.8594317" lon="9.58087"><ele>650.0</ele><time>2026-03-26T10:07:06.987Z</time></trkpt><trkpt lat="44.8593767" lon="9.58082"><ele>650.0</ele><time>2026-03-26T10:07:07.987Z</time></trkpt><trkpt lat="44.85925" lon="9.580785"><ele>650.0</ele><time>2026-03-26T10:07:09.986Z</time></trkpt><trkpt lat="44.85919" lon="9.58082"><ele>650.0</ele><time>2026-03-26T10:07:10.986Z</time></trkpt><trkpt lat="44.859095" lon="9.580935"><ele>651.4</ele><time>2026-03-26T10:07:12.988Z</time></trkpt><trkpt lat="44.8590433" lon="9.5810067"><ele>652.8</ele><time>2026-03-26T10:07:14.986Z</time></trkpt><trkpt lat="44.859" lon="9.58108"><ele>654.2</ele><time>2026-03-26T10:07:37.986Z</time></trkpt><trkpt lat="44.8588983" lon="9.5812233"><ele>655.6</ele><time>2026-03-26T10:07:39.986Z</time></trkpt><trkpt lat="44.85884" lon="9.5813117"><ele>657.0</ele><time>2026-03-26T10:07:40.987Z</time></trkpt><trkpt lat="44.8587817" lon="9.581395"><ele>657.5</ele><time>2026-03-26T10:07:41.985Z</time></trkpt><trkpt lat="44.858725" lon="9.5814667"><ele>658.0</ele><time>2026-03-26T10:07:42.985Z</time></trkpt><trkpt lat="44.85867" lon="9.58152"><ele>658.5</ele><time>2026-03-26T10:07:43.985Z</time></trkpt><trkpt lat="44.8586017" lon="9.5815683"><ele>659.0</ele><time>2026-03-26T10:07:44.986Z</time></trkpt><trkpt lat="44.8585217" lon="9.5816133"><ele>659.5</ele><time>2026-03-26T10:07:45.986Z</time></trkpt><trkpt lat="44.8584383" lon="9.5816667"><ele>660.0</ele><time>2026-03-26T10:07:46.986Z</time></trkpt><trkpt lat="44.8583633" lon="9.5817333"><ele>659.0</ele><time>2026-03-26T10:07:47.986Z</time></trkpt><trkpt lat="44.8582867" lon="9.5818117"><ele>658.0</ele><time>2026-03-26T10:07:48.986Z</time></trkpt><trkpt lat="44.8581983" lon="9.5819117"><ele>657.0</ele><time>2026-03-26T10:07:49.986Z</time></trkpt><trkpt lat="44.8581183" lon="9.5820117"><ele>656.0</ele><time>2026-03-26T10:07:50.987Z</time></trkpt><trkpt lat="44.85805" lon="9.5820967"><ele>655.0</ele><time>2026-03-26T10:07:51.986Z</time></trkpt><trkpt lat="44.857985" lon="9.5821583"><ele>655.0</ele><time>2026-03-26T10:07:52.986Z</time></trkpt><trkpt lat="44.857895" lon="9.5822233"><ele>655.0</ele><time>2026-03-26T10:07:54.986Z</time></trkpt><trkpt lat="44.8578533" lon="9.5823483"><ele>655.0</ele><time>2026-03-26T10:07:57.986Z</time></trkpt><trkpt lat="44.8578317" lon="9.5825033"><ele>655.0</ele><time>2026-03-26T10:07:59.987Z</time></trkpt><trkpt lat="44.8577717" lon="9.5826017"><ele>655.0</ele><time>2026-03-26T10:08:01.987Z</time></trkpt><trkpt lat="44.85767" lon="9.5826167"><ele>658.0</ele><time>2026-03-26T10:08:03.985Z</time></trkpt><trkpt lat="44.857605" lon="9.58258"><ele>661.0</ele><time>2026-03-26T10:08:04.986Z</time></trkpt><trkpt lat="44.85754" lon="9.5825283"><ele>664.0</ele><time>2026-03-26T10:08:05.986Z</time></trkpt><trkpt lat="44.8574783" lon="9.5824517"><ele>667.0</ele><time>2026-03-26T10:08:06.987Z</time></trkpt><trkpt lat="44.8574283" lon="9.5823667"><ele>670.0</ele><time>2026-03-26T10:08:07.986Z</time></trkpt><trkpt lat="44.8573833" lon="9.5822967"><ele>673.0</ele><time>2026-03-26T10:08:08.986Z</time></trkpt><trkpt lat="44.8572883" lon="9.5822117"><ele>673.0</ele><time>2026-03-26T10:08:10.986Z</time></trkpt><trkpt lat="44.8571883" lon="9.5822783"><ele>673.0</ele><time>2026-03-26T10:08:12.986Z</time></trkpt><trkpt lat="44.857125" lon="9.5824317"><ele>673.0</ele><time>2026-03-26T10:08:14.986Z</time></trkpt><trkpt lat="44.85704" lon="9.582555"><ele>673.0</ele><time>2026-03-26T10:08:16.986Z</time></trkpt><trkpt lat="44.856945" lon="9.5826483"><ele>673.0</ele><time>2026-03-26T10:08:18.986Z</time></trkpt><trkpt lat="44.8568483" lon="9.5826883"><ele>673.0</ele><time>2026-03-26T10:08:20.987Z</time></trkpt><trkpt lat="44.8567567" lon="9.582745"><ele>673.0</ele><time>2026-03-26T10:08:22.985Z</time></trkpt><trkpt lat="44.8566683" lon="9.5827583"><ele>673.0</ele><time>2026-03-26T10:08:24.987Z</time></trkpt><trkpt lat="44.8566267" lon="9.5826867"><ele>673.0</ele><time>2026-03-26T10:08:26.986Z</time></trkpt><trkpt lat="44.8566267" lon="9.5825667"><ele>673.0</ele><time>2026-03-26T10:08:28.986Z</time></trkpt><trkpt lat="44.856635" lon="9.5824467"><ele>676.2</ele><time>2026-03-26T10:08:30.987Z</time></trkpt><trkpt lat="44.8566367" lon="9.5823067"><ele>679.4</ele><time>2026-03-26T10:08:32.987Z</time></trkpt><trkpt lat="44.85662" lon="9.582155"><ele>682.6</ele><time>2026-03-26T10:08:34.987Z</time></trkpt><trkpt lat="44.8565933" lon="9.58199"><ele>685.8000000000001</ele><time>2026-03-26T10:08:36.986Z</time></trkpt><trkpt lat="44.8565767" lon="9.5818433"><ele>689.0</ele><time>2026-03-26T10:08:38.987Z</time></trkpt><trkpt lat="44.8565317" lon="9.5817017"><ele>689.5</ele><time>2026-03-26T10:08:40.986Z</time></trkpt><trkpt lat="44.8564983" lon="9.581615"><ele>690.0</ele><time>2026-03-26T10:08:41.987Z</time></trkpt><trkpt lat="44.85646" lon="9.581515"><ele>690.5</ele><time>2026-03-26T10:08:42.986Z</time></trkpt><trkpt lat="44.8564283" lon="9.58141"><ele>691.0</ele><time>2026-03-26T10:08:43.986Z</time></trkpt><trkpt lat="44.8564017" lon="9.58131"><ele>691.5</ele><time>2026-03-26T10:08:44.986Z</time></trkpt><trkpt lat="44.85637" lon="9.5812133"><ele>692.0</ele><time>2026-03-26T10:08:45.986Z</time></trkpt><trkpt lat="44.856325" lon="9.581125"><ele>690.6666666666666</ele><time>2026-03-26T10:08:46.986Z</time></trkpt><trkpt lat="44.85627" lon="9.58104"><ele>689.3333333333333</ele><time>2026-03-26T10:08:47.986Z</time></trkpt><trkpt lat="44.8562083" lon="9.5809567"><ele>688.0</ele><time>2026-03-26T10:08:48.987Z</time></trkpt><trkpt lat="44.85614" lon="9.5808683"><ele>686.6666666666666</ele><time>2026-03-26T10:08:49.986Z</time></trkpt><trkpt lat="44.856075" lon="9.5807933"><ele>685.3333333333334</ele><time>2026-03-26T10:08:50.987Z</time></trkpt><trkpt lat="44.8560167" lon="9.5807233"><ele>684.0</ele><time>2026-03-26T10:08:51.986Z</time></trkpt><trkpt lat="44.8559633" lon="9.5806433"><ele>684.5</ele><time>2026-03-26T10:08:52.987Z</time></trkpt><trkpt lat="44.855915" lon="9.5805667"><ele>685.0</ele><time>2026-03-26T10:08:53.987Z</time></trkpt><trkpt lat="44.8558767" lon="9.5804917"><ele>685.5</ele><time>2026-03-26T10:08:54.987Z</time></trkpt><trkpt lat="44.8558417" lon="9.5803983"><ele>686.0</ele><time>2026-03-26T10:08:55.988Z</time></trkpt><trkpt lat="44.8557983" lon="9.5803083"><ele>686.5</ele><time>2026-03-26T10:08:56.988Z</time></trkpt><trkpt lat="44.8557483" lon="9.5802083"><ele>687.0</ele><time>2026-03-26T10:08:57.985Z</time></trkpt><trkpt lat="44.8557083" lon="9.5801133"><ele>687.0</ele><time>2026-03-26T10:08:58.988Z</time></trkpt><trkpt lat="44.8556767" lon="9.58002"><ele>687.0</ele><time>2026-03-26T10:08:59.986Z</time></trkpt><trkpt lat="44.8556583" lon="9.579905"><ele>687.0</ele><time>2026-03-26T10:09:00.986Z</time></trkpt><trkpt lat="44.8556467" lon="9.5797967"><ele>687.0</ele><time>2026-03-26T10:09:02.018Z</time></trkpt><trkpt lat="44.85564" lon="9.57969"><ele>687.0</ele><time>2026-03-26T10:09:02.987Z</time></trkpt><trkpt lat="44.8556317" lon="9.5795883"><ele>687.0</ele><time>2026-03-26T10:09:03.986Z</time></trkpt><trkpt lat="44.8556167" lon="9.5794833"><ele>685.6666666666666</ele><time>2026-03-26T10:09:04.988Z</time></trkpt><trkpt lat="44.85559" lon="9.579385"><ele>684.3333333333334</ele><time>2026-03-26T10:09:05.987Z</time></trkpt><trkpt lat="44.8555533" lon="9.5792817"><ele>683.0</ele><time>2026-03-26T10:09:06.987Z</time></trkpt><trkpt lat="44.855515" lon="9.5791733"><ele>681.6666666666667</ele><time>2026-03-26T10:09:07.987Z</time></trkpt><trkpt lat="44.8554717" lon="9.57907"><ele>680.3333333333334</ele><time>2026-03-26T10:09:08.988Z</time></trkpt><trkpt lat="44.855425" lon="9.578985"><ele>679.0</ele><time>2026-03-26T10:09:09.986Z</time></trkpt><trkpt lat="44.8553733" lon="9.57889"><ele>679.0</ele><time>2026-03-26T10:09:10.986Z</time></trkpt><trkpt lat="44.855325" lon="9.5788"><ele>679.0</ele><time>2026-03-26T10:09:11.986Z</time></trkpt><trkpt lat="44.85528" lon="9.5787217"><ele>679.0</ele><time>2026-03-26T10:09:12.986Z</time></trkpt><trkpt lat="44.8552367" lon="9.578605"><ele>679.0</ele><time>2026-03-26T10:09:14.986Z</time></trkpt><trkpt lat="44.85523" lon="9.578515"><ele>679.0</ele><time>2026-03-26T10:09:16.986Z</time></trkpt><trkpt lat="44.8551967" lon="9.578425"><ele>679.0</ele><time>2026-03-26T10:09:18.986Z</time></trkpt><trkpt lat="44.8551433" lon="9.5783417"><ele>679.2</ele><time>2026-03-26T10:09:20.987Z</time></trkpt><trkpt lat="44.8550667" lon="9.5782317"><ele>679.4000000000001</ele><time>2026-03-26T10:09:22.985Z</time></trkpt><trkpt lat="44.85502" lon="9.5781683"><ele>679.6</ele><time>2026-03-26T10:09:23.986Z</time></trkpt><trkpt lat="44.8549517" lon="9.5780333"><ele>679.8</ele><time>2026-03-26T10:09:25.986Z</time></trkpt><trkpt lat="44.8549267" lon="9.5778767"><ele>680.0</ele><time>2026-03-26T10:09:27.986Z</time></trkpt><trkpt lat="44.8549083" lon="9.57779"><ele>681.8333333333333</ele><time>2026-03-26T10:09:28.986Z</time></trkpt><trkpt lat="44.8548883" lon="9.577705"><ele>683.6666666666666</ele><time>2026-03-26T10:09:29.986Z</time></trkpt><trkpt lat="44.8548583" lon="9.5775833"><ele>685.5</ele><time>2026-03-26T10:09:31.986Z</time></trkpt><trkpt lat="44.854905" lon="9.577495"><ele>687.3333333333334</ele><time>2026-03-26T10:09:33.986Z</time></trkpt><trkpt lat="44.85496" lon="9.577355"><ele>689.1666666666667</ele><time>2026-03-26T10:09:35.987Z</time></trkpt><trkpt lat="44.8549867" lon="9.57726"><ele>691.0</ele><time>2026-03-26T10:09:36.985Z</time></trkpt><trkpt lat="44.8550183" lon="9.5771633"><ele>690.9999999999999</ele><time>2026-03-26T10:09:37.986Z</time></trkpt><trkpt lat="44.8550567" lon="9.5770633"><ele>691.0</ele><time>2026-03-26T10:09:38.987Z</time></trkpt><trkpt lat="44.8550867" lon="9.576975"><ele>691.0</ele><time>2026-03-26T10:09:39.987Z</time></trkpt><trkpt lat="44.855105" lon="9.5768867"><ele>691.0</ele><time>2026-03-26T10:09:40.986Z</time></trkpt><trkpt lat="44.8551233" lon="9.5767967"><ele>691.0</ele><time>2026-03-26T10:09:41.986Z</time></trkpt><trkpt lat="44.85515" lon="9.5767033"><ele>690.9999999999999</ele><time>2026-03-26T10:09:42.987Z</time></trkpt><trkpt lat="44.8551767" lon="9.5766167"><ele>691.0</ele><time>2026-03-26T10:09:43.986Z</time></trkpt><trkpt lat="44.85521" lon="9.5764733"><ele>689.6666666666667</ele><time>2026-03-26T10:09:45.986Z</time></trkpt><trkpt lat="44.8552217" lon="9.5763767"><ele>688.3333333333334</ele><time>2026-03-26T10:09:47.986Z</time></trkpt><trkpt lat="44.8552217" lon="9.5762767"><ele>687.0</ele><time>2026-03-26T10:13:27.986Z</time></trkpt><trkpt lat="44.8552733" lon="9.57618"><ele>685.6666666666666</ele><time>2026-03-26T10:13:30.987Z</time></trkpt><trkpt lat="44.85534" lon="9.5761467"><ele>684.3333333333333</ele><time>2026-03-26T10:13:32.986Z</time></trkpt><trkpt lat="44.8554333" lon="9.5761233"><ele>683.0</ele><time>2026-03-26T10:13:35.987Z</time></trkpt><trkpt lat="44.8555167" lon="9.5761017"><ele>683.0</ele><time>2026-03-26T10:13:37.984Z</time></trkpt><trkpt lat="44.8555867" lon="9.5760683"><ele>683.0</ele><time>2026-03-26T10:13:39.986Z</time></trkpt><trkpt lat="44.8556683" lon="9.5760333"><ele>683.0</ele><time>2026-03-26T10:13:42.074Z</time></trkpt><trkpt lat="44.855765" lon="9.5759717"><ele>683.0</ele><time>2026-03-26T10:13:43.986Z</time></trkpt><trkpt lat="44.8558717" lon="9.5759183"><ele>683.0</ele><time>2026-03-26T10:13:45.986Z</time></trkpt><trkpt lat="44.8559917" lon="9.57589"><ele>680.3333333333333</ele><time>2026-03-26T10:13:47.986Z</time></trkpt><trkpt lat="44.8561067" lon="9.575855"><ele>677.6666666666666</ele><time>2026-03-26T10:13:49.987Z</time></trkpt><trkpt lat="44.8561967" lon="9.575845"><ele>675.0</ele><time>2026-03-26T10:13:51.986Z</time></trkpt><trkpt lat="44.8562667" lon="9.57582"><ele>672.3333333333334</ele><time>2026-03-26T10:13:53.986Z</time></trkpt><trkpt lat="44.856335" lon="9.5757717"><ele>669.6666666666667</ele><time>2026-03-26T10:13:57.986Z</time></trkpt><trkpt lat="44.8564217" lon="9.575725"><ele>667.0</ele><time>2026-03-26T10:14:05.986Z</time></trkpt><trkpt lat="44.8565033" lon="9.5756983"><ele>667.0</ele><time>2026-03-26T10:14:07.987Z</time></trkpt><trkpt lat="44.85661" lon="9.57564"><ele>667.0</ele><time>2026-03-26T10:14:09.986Z</time></trkpt><trkpt lat="44.85671" lon="9.575565"><ele>667.0</ele><time>2026-03-26T10:14:11.986Z</time></trkpt><trkpt lat="44.856765" lon="9.5755183"><ele>667.0</ele><time>2026-03-26T10:14:12.986Z</time></trkpt><trkpt lat="44.856865" lon="9.5754217"><ele>667.0</ele><time>2026-03-26T10:14:14.986Z</time></trkpt><trkpt lat="44.856935" lon="9.575325"><ele>663.8</ele><time>2026-03-26T10:14:16.987Z</time></trkpt><trkpt lat="44.8570283" lon="9.5751617"><ele>660.6</ele><time>2026-03-26T10:25:01.986Z</time></trkpt><trkpt lat="44.8570683" lon="9.5750817"><ele>657.4</ele><time>2026-03-26T10:25:04.987Z</time></trkpt><trkpt lat="44.8571083" lon="9.5749783"><ele>654.1999999999999</ele><time>2026-03-26T10:25:06.986Z</time></trkpt><trkpt lat="44.8571617" lon="9.5748417"><ele>651.0</ele><time>2026-03-26T10:25:08.987Z</time></trkpt><trkpt lat="44.85721" lon="9.5747283"><ele>651.0</ele><time>2026-03-26T10:25:10.986Z</time></trkpt><trkpt lat="44.8572417" lon="9.57464"><ele>651.0</ele><time>2026-03-26T10:25:12.985Z</time></trkpt><trkpt lat="44.8572733" lon="9.5745517"><ele>651.0</ele><time>2026-03-26T10:25:15.986Z</time></trkpt><trkpt lat="44.85732" lon="9.57442"><ele>651.0</ele><time>2026-03-26T10:25:17.987Z</time></trkpt><trkpt lat="44.8573533" lon="9.5743317"><ele>651.0</ele><time>2026-03-26T10:25:18.986Z</time></trkpt><trkpt lat="44.8573967" lon="9.5742167"><ele>651.0</ele><time>2026-03-26T10:25:19.986Z</time></trkpt><trkpt lat="44.8574367" lon="9.5741"><ele>650.1999999999999</ele><time>2026-03-26T10:25:20.986Z</time></trkpt><trkpt lat="44.8574783" lon="9.57399"><ele>649.4</ele><time>2026-03-26T10:25:21.986Z</time></trkpt><trkpt lat="44.857515" lon="9.5738883"><ele>648.6</ele><time>2026-03-26T10:25:22.987Z</time></trkpt><trkpt lat="44.8575467" lon="9.5738017"><ele>647.8</ele><time>2026-03-26T10:25:23.987Z</time></trkpt><trkpt lat="44.8576083" lon="9.57367"><ele>647.0</ele><time>2026-03-26T10:25:25.987Z</time></trkpt><trkpt lat="44.8576667" lon="9.5735533"><ele>646.1666666666666</ele><time>2026-03-26T10:25:27.986Z</time></trkpt><trkpt lat="44.8577233" lon="9.5734367"><ele>645.3333333333333</ele><time>2026-03-26T10:25:29.986Z</time></trkpt><trkpt lat="44.85777" lon="9.573285"><ele>644.5</ele><time>2026-03-26T10:25:31.987Z</time></trkpt><trkpt lat="44.8577967" lon="9.573195"><ele>643.6666666666666</ele><time>2026-03-26T10:25:32.987Z</time></trkpt><trkpt lat="44.8578233" lon="9.57311"><ele>642.8333333333334</ele><time>2026-03-26T10:25:33.987Z</time></trkpt><trkpt lat="44.8578533" lon="9.573025"><ele>642.0</ele><time>2026-03-26T10:25:34.987Z</time></trkpt><trkpt lat="44.8578833" lon="9.5729283"><ele>641.6666666666666</ele><time>2026-03-26T10:25:35.987Z</time></trkpt><trkpt lat="44.8579067" lon="9.57283"><ele>641.3333333333334</ele><time>2026-03-26T10:25:36.988Z</time></trkpt><trkpt lat="44.8579233" lon="9.5727367"><ele>641.0</ele><time>2026-03-26T10:25:37.986Z</time></trkpt><trkpt lat="44.8579717" lon="9.5725817"><ele>640.6666666666667</ele><time>2026-03-26T10:25:39.985Z</time></trkpt><trkpt lat="44.8580017" lon="9.5725017"><ele>640.3333333333334</ele><time>2026-03-26T10:25:40.986Z</time></trkpt><trkpt lat="44.85803" lon="9.57242"><ele>640.0</ele><time>2026-03-26T10:25:41.986Z</time></trkpt><trkpt lat="44.858085" lon="9.572255"><ele>640.0</ele><time>2026-03-26T10:25:43.986Z</time></trkpt><trkpt lat="44.858105" lon="9.5721033"><ele>640.0</ele><time>2026-03-26T10:25:45.986Z</time></trkpt><trkpt lat="44.858085" lon="9.5719783"><ele>640.0</ele><time>2026-03-26T10:25:47.986Z</time></trkpt><trkpt lat="44.8580467" lon="9.5718533"><ele>640.0</ele><time>2026-03-26T10:25:49.987Z</time></trkpt><trkpt lat="44.8580267" lon="9.5717567"><ele>640.0</ele><time>2026-03-26T10:25:51.986Z</time></trkpt><trkpt lat="44.8580233" lon="9.5716667"><ele>640.0</ele><time>2026-03-26T10:25:53.986Z</time></trkpt><trkpt lat="44.8580233" lon="9.5715467"><ele>637.5</ele><time>2026-03-26T10:25:55.986Z</time></trkpt><trkpt lat="44.8580217" lon="9.57142"><ele>635.0</ele><time>2026-03-26T10:25:57.986Z</time></trkpt><trkpt lat="44.858015" lon="9.5713217"><ele>632.5</ele><time>2026-03-26T10:25:59.986Z</time></trkpt><trkpt lat="44.8579983" lon="9.57122"><ele>630.0</ele><time>2026-03-26T10:26:01.987Z</time></trkpt><trkpt lat="44.858" lon="9.5710933"><ele>627.5</ele><time>2026-03-26T10:26:04.986Z</time></trkpt><trkpt lat="44.8579767" lon="9.5709467"><ele>625.0</ele><time>2026-03-26T10:26:07.988Z</time></trkpt><trkpt lat="44.85795" lon="9.5708183"><ele>621.4</ele><time>2026-03-26T10:26:09.987Z</time></trkpt><trkpt lat="44.8579433" lon="9.5706617"><ele>617.8</ele><time>2026-03-26T10:26:11.987Z</time></trkpt><trkpt lat="44.857925" lon="9.5704933"><ele>614.2</ele><time>2026-03-26T10:26:13.988Z</time></trkpt><trkpt lat="44.8578983" lon="9.57035"><ele>610.6</ele><time>2026-03-26T10:26:15.987Z</time></trkpt><trkpt lat="44.85789" lon="9.57024"><ele>607.0</ele><time>2026-03-26T10:26:17.987Z</time></trkpt><trkpt lat="44.85788" lon="9.5701233"><ele>603.8333333333334</ele><time>2026-03-26T10:26:19.986Z</time></trkpt><trkpt lat="44.8579017" lon="9.5699933"><ele>600.6666666666667</ele><time>2026-03-26T10:26:21.987Z</time></trkpt><trkpt lat="44.8579117" lon="9.56989"><ele>597.5</ele><time>2026-03-26T10:26:23.987Z</time></trkpt><trkpt lat="44.8578817" lon="9.5697967"><ele>594.3333333333334</ele><time>2026-03-26T10:26:25.987Z</time></trkpt><trkpt lat="44.8578217" lon="9.5696967"><ele>591.1666666666666</ele><time>2026-03-26T10:26:27.987Z</time></trkpt><trkpt lat="44.857815" lon="9.5695967"><ele>588.0</ele><time>2026-03-26T10:26:29.987Z</time></trkpt><trkpt lat="44.8578383" lon="9.569465"><ele>585.6666666666666</ele><time>2026-03-26T10:26:31.987Z</time></trkpt><trkpt lat="44.8578417" lon="9.5693317"><ele>583.3333333333334</ele><time>2026-03-26T10:26:33.987Z</time></trkpt><trkpt lat="44.8578" lon="9.5692117"><ele>581.0</ele><time>2026-03-26T10:26:35.988Z</time></trkpt><trkpt lat="44.857755" lon="9.5690967"><ele>578.6666666666667</ele><time>2026-03-26T10:26:37.988Z</time></trkpt><trkpt lat="44.8577417" lon="9.5690017"><ele>576.3333333333334</ele><time>2026-03-26T10:26:39.987Z</time></trkpt><trkpt lat="44.8577417" lon="9.5688933"><ele>574.0</ele><time>2026-03-26T10:26:42.987Z</time></trkpt><trkpt lat="44.8577633" lon="9.5687733"><ele>574.0</ele><time>2026-03-26T10:26:45.988Z</time></trkpt><trkpt lat="44.8577333" lon="9.568695"><ele>574.0</ele><time>2026-03-26T10:26:47.987Z</time></trkpt><trkpt lat="44.857715" lon="9.568605"><ele>574.0</ele><time>2026-03-26T10:26:50.987Z</time></trkpt><trkpt lat="44.8577417" lon="9.5684683"><ele>574.0</ele><time>2026-03-26T10:26:53.988Z</time></trkpt><trkpt lat="44.857725" lon="9.5683733"><ele>574.0</ele><time>2026-03-26T10:26:55.987Z</time></trkpt><trkpt lat="44.8576783" lon="9.56829"><ele>574.0</ele><time>2026-03-26T10:26:58.987Z</time></trkpt><trkpt lat="44.8576333" lon="9.5682017"><ele>574.0</ele><time>2026-03-26T10:27:01.989Z</time></trkpt><trkpt lat="44.8576" lon="9.5681033"><ele>574.0</ele><time>2026-03-26T10:27:04.987Z</time></trkpt><trkpt lat="44.85759" lon="9.5680117"><ele>574.0</ele><time>2026-03-26T10:27:07.987Z</time></trkpt><trkpt lat="44.8575717" lon="9.5678933"><ele>574.0</ele><time>2026-03-26T10:27:29.987Z</time></trkpt><trkpt lat="44.8575667" lon="9.5677917"><ele>574.0</ele><time>2026-03-26T10:27:32.987Z</time></trkpt><trkpt lat="44.857545" lon="9.56769"><ele>574.0</ele><time>2026-03-26T10:27:35.989Z</time></trkpt><trkpt lat="44.8575183" lon="9.5675767"><ele>572.1666666666667</ele><time>2026-03-26T10:27:38.987Z</time></trkpt><trkpt lat="44.8575167" lon="9.5674667"><ele>570.3333333333334</ele><time>2026-03-26T10:27:42.987Z</time></trkpt><trkpt lat="44.8575333" lon="9.567365"><ele>568.5</ele><time>2026-03-26T10:27:45.987Z</time></trkpt><trkpt lat="44.857475" lon="9.56731"><ele>566.6666666666666</ele><time>2026-03-26T10:27:49.99Z</time></trkpt><trkpt lat="44.8574067" lon="9.5672617"><ele>564.8333333333333</ele><time>2026-03-26T10:27:52.989Z</time></trkpt><trkpt lat="44.85733" lon="9.5671967"><ele>563.0</ele><time>2026-03-26T10:27:55.989Z</time></trkpt><trkpt lat="44.85724" lon="9.5671533"><ele>563.0</ele><time>2026-03-26T10:27:58.988Z</time></trkpt><trkpt lat="44.8571767" lon="9.5671083"><ele>563.0</ele><time>2026-03-26T10:28:00.987Z</time></trkpt><trkpt lat="44.8571033" lon="9.5670917"><ele>563.0</ele><time>2026-03-26T10:28:02.988Z</time></trkpt><trkpt lat="44.85703" lon="9.56708"><ele>563.0</ele><time>2026-03-26T10:28:04.987Z</time></trkpt><trkpt lat="44.8569583" lon="9.5670683"><ele>563.0</ele><time>2026-03-26T10:28:06.986Z</time></trkpt><trkpt lat="44.8569083" lon="9.567155"><ele>563.0</ele><time>2026-03-26T10:28:09.987Z</time></trkpt><trkpt lat="44.8568717" lon="9.5672483"><ele>563.0</ele><time>2026-03-26T10:28:12.987Z</time></trkpt><trkpt lat="44.8568233" lon="9.567315"><ele>560.1666666666666</ele><time>2026-03-26T10:28:15.986Z</time></trkpt><trkpt lat="44.856765" lon="9.567355"><ele>557.3333333333333</ele><time>2026-03-26T10:28:17.986Z</time></trkpt><trkpt lat="44.8567217" lon="9.5674317"><ele>554.5</ele><time>2026-03-26T10:28:19.986Z</time></trkpt><trkpt lat="44.8566483" lon="9.5674983"><ele>551.6666666666666</ele><time>2026-03-26T10:28:21.987Z</time></trkpt><trkpt lat="44.85657" lon="9.5675533"><ele>548.8333333333334</ele><time>2026-03-26T10:28:23.988Z</time></trkpt><trkpt lat="44.8564917" lon="9.5675883"><ele>546.0</ele><time>2026-03-26T10:28:25.988Z</time></trkpt><trkpt lat="44.8564217" lon="9.567625"><ele>546.0</ele><time>2026-03-26T10:28:27.987Z</time></trkpt><trkpt lat="44.85635" lon="9.5676567"><ele>546.0</ele><time>2026-03-26T10:28:29.988Z</time></trkpt><trkpt lat="44.8562633" lon="9.567695"><ele>546.0</ele><time>2026-03-26T10:28:31.987Z</time></trkpt><trkpt lat="44.8561833" lon="9.5676967"><ele>546.0</ele><time>2026-03-26T10:28:33.987Z</time></trkpt><trkpt lat="44.8561167" lon="9.567685"><ele>546.0</ele><time>2026-03-26T10:28:35.986Z</time></trkpt><trkpt lat="44.856045" lon="9.5676683"><ele>546.0</ele><time>2026-03-26T10:28:38.988Z</time></trkpt><trkpt lat="44.855965" lon="9.5676917"><ele>543.0</ele><time>2026-03-26T10:28:42.987Z</time></trkpt><trkpt lat="44.8559017" lon="9.56772"><ele>540.0</ele><time>2026-03-26T10:28:44.988Z</time></trkpt><trkpt lat="44.8558133" lon="9.5677417"><ele>537.0</ele><time>2026-03-26T10:29:43.986Z</time></trkpt><trkpt lat="44.8557533" lon="9.5677833"><ele>534.0</ele><time>2026-03-26T10:29:47.988Z</time></trkpt><trkpt lat="44.8556883" lon="9.567815"><ele>531.0</ele><time>2026-03-26T10:29:51.987Z</time></trkpt><trkpt lat="44.85562" lon="9.567865"><ele>528.0</ele><time>2026-03-26T10:29:56.987Z</time></trkpt><trkpt lat="44.85556" lon="9.567945"><ele>528.0</ele><time>2026-03-26T10:29:59.986Z</time></trkpt><trkpt lat="44.8555333" lon="9.5680283"><ele>528.0</ele><time>2026-03-26T10:30:01.987Z</time></trkpt><trkpt lat="44.8555583" lon="9.5681183"><ele>528.0</ele><time>2026-03-26T10:30:04.989Z</time></trkpt><trkpt lat="44.85555" lon="9.5682217"><ele>528.0</ele><time>2026-03-26T10:30:07.989Z</time></trkpt><trkpt lat="44.85551" lon="9.56831"><ele>528.0</ele><time>2026-03-26T10:30:09.988Z</time></trkpt><trkpt lat="44.8554367" lon="9.5683583"><ele>528.0</ele><time>2026-03-26T10:30:12.987Z</time></trkpt><trkpt lat="44.8553633" lon="9.5683517"><ele>528.0</ele><time>2026-03-26T10:30:15.987Z</time></trkpt><trkpt lat="44.855305" lon="9.5683133"><ele>528.0</ele><time>2026-03-26T10:30:17.988Z</time></trkpt><trkpt lat="44.85523" lon="9.5682317"><ele>528.0</ele><time>2026-03-26T10:30:19.987Z</time></trkpt><trkpt lat="44.855185" lon="9.56814"><ele>528.0</ele><time>2026-03-26T10:30:21.987Z</time></trkpt><trkpt lat="44.8551067" lon="9.5680833"><ele>528.0</ele><time>2026-03-26T10:30:50.987Z</time></trkpt><trkpt lat="44.8550433" lon="9.568105"><ele>528.0</ele><time>2026-03-26T10:30:52.986Z</time></trkpt><trkpt lat="44.8549633" lon="9.5681583"><ele>528.0</ele><time>2026-03-26T10:30:54.987Z</time></trkpt><trkpt lat="44.8548483" lon="9.5682483"><ele>526.0</ele><time>2026-03-26T10:30:56.988Z</time></trkpt><trkpt lat="44.8547833" lon="9.5683133"><ele>524.0</ele><time>2026-03-26T10:30:57.987Z</time></trkpt><trkpt lat="44.8547217" lon="9.5683883"><ele>522.0</ele><time>2026-03-26T10:30:58.987Z</time></trkpt><trkpt lat="44.8546617" lon="9.568465"><ele>520.0</ele><time>2026-03-26T10:30:59.988Z</time></trkpt><trkpt lat="44.8546067" lon="9.5685233"><ele>518.0</ele><time>2026-03-26T10:31:00.987Z</time></trkpt><trkpt lat="44.85455" lon="9.5685633"><ele>516.0</ele><time>2026-03-26T10:31:02.987Z</time></trkpt><trkpt lat="44.8544633" lon="9.5685967"><ele>516.0</ele><time>2026-03-26T10:31:17.986Z</time></trkpt><trkpt lat="44.8543367" lon="9.56863"><ele>516.0</ele><time>2026-03-26T10:31:19.985Z</time></trkpt><trkpt lat="44.8542633" lon="9.5686217"><ele>516.0</ele><time>2026-03-26T10:31:20.987Z</time></trkpt><trkpt lat="44.854195" lon="9.5686017"><ele>516.0</ele><time>2026-03-26T10:31:21.986Z</time></trkpt><trkpt lat="44.85413" lon="9.5685733"><ele>516.0</ele><time>2026-03-26T10:31:22.987Z</time></trkpt><trkpt lat="44.8540633" lon="9.5685383"><ele>516.0</ele><time>2026-03-26T10:31:23.987Z</time></trkpt><trkpt lat="44.8539967" lon="9.568505"><ele>516.5</ele><time>2026-03-26T10:31:24.987Z</time></trkpt><trkpt lat="44.8539333" lon="9.5685017"><ele>517.0</ele><time>2026-03-26T10:31:25.987Z</time></trkpt><trkpt lat="44.8538683" lon="9.56856"><ele>517.5</ele><time>2026-03-26T10:31:27.987Z</time></trkpt><trkpt lat="44.8539133" lon="9.5686333"><ele>518.0</ele><time>2026-03-26T10:31:29.986Z</time></trkpt><trkpt lat="44.8540283" lon="9.5687033"><ele>518.5</ele><time>2026-03-26T10:31:31.987Z</time></trkpt><trkpt lat="44.85408" lon="9.5687633"><ele>519.0</ele><time>2026-03-26T10:31:32.988Z</time></trkpt><trkpt lat="44.85413" lon="9.5688283"><ele>522.8</ele><time>2026-03-26T10:31:33.987Z</time></trkpt><trkpt lat="44.8542233" lon="9.5689467"><ele>526.5999999999999</ele><time>2026-03-26T10:31:35.987Z</time></trkpt><trkpt lat="44.8543183" lon="9.5690383"><ele>530.4</ele><time>2026-03-26T10:31:37.986Z</time></trkpt><trkpt lat="44.8543967" lon="9.5691017"><ele>534.1999999999999</ele><time>2026-03-26T10:31:39.987Z</time></trkpt><trkpt lat="44.8544617" lon="9.5691733"><ele>538.0</ele><time>2026-03-26T10:31:49.987Z</time></trkpt><trkpt lat="44.8545317" lon="9.5691817"><ele>538.6666666666667</ele><time>2026-03-26T10:31:51.987Z</time></trkpt><trkpt lat="44.8545967" lon="9.5691833"><ele>539.3333333333334</ele><time>2026-03-26T10:31:53.988Z</time></trkpt><trkpt lat="44.8546683" lon="9.5691933"><ele>540.0</ele><time>2026-03-26T10:31:55.988Z</time></trkpt><trkpt lat="44.8547517" lon="9.5691883"><ele>540.6666666666666</ele><time>2026-03-26T10:31:57.986Z</time></trkpt><trkpt lat="44.8548367" lon="9.5691717"><ele>541.3333333333333</ele><time>2026-03-26T10:31:59.987Z</time></trkpt><trkpt lat="44.8549233" lon="9.5691967"><ele>542.0</ele><time>2026-03-26T10:32:01.987Z</time></trkpt><trkpt lat="44.8549883" lon="9.5692483"><ele>542.0</ele><time>2026-03-26T10:32:03.987Z</time></trkpt><trkpt lat="44.8550633" lon="9.5693317"><ele>542.0</ele><time>2026-03-26T10:32:05.988Z</time></trkpt><trkpt lat="44.855185" lon="9.5693833"><ele>542.0</ele><time>2026-03-26T10:32:07.987Z</time></trkpt><trkpt lat="44.8552783" lon="9.5695"><ele>542.0</ele><time>2026-03-26T10:32:09.985Z</time></trkpt><trkpt lat="44.8553033" lon="9.5695833"><ele>542.0</ele><time>2026-03-26T10:32:10.987Z</time></trkpt><trkpt lat="44.8553083" lon="9.56975"><ele>545.8000000000001</ele><time>2026-03-26T10:32:12.987Z</time></trkpt><trkpt lat="44.85528" lon="9.5699033"><ele>549.6</ele><time>2026-03-26T10:32:14.988Z</time></trkpt><trkpt lat="44.85522" lon="9.5700433"><ele>553.4000000000001</ele><time>2026-03-26T10:32:16.987Z</time></trkpt><trkpt lat="44.85517" lon="9.5700983"><ele>557.2</ele><time>2026-03-26T10:32:17.987Z</time></trkpt><trkpt lat="44.855115" lon="9.5702317"><ele>561.0</ele><time>2026-03-26T10:32:19.987Z</time></trkpt><trkpt lat="44.8551033" lon="9.570395"><ele>563.6</ele><time>2026-03-26T10:32:21.987Z</time></trkpt><trkpt lat="44.8550983" lon="9.5705533"><ele>566.2</ele><time>2026-03-26T10:32:23.988Z</time></trkpt><trkpt lat="44.8551383" lon="9.5706917"><ele>568.8</ele><time>2026-03-26T10:32:25.986Z</time></trkpt><trkpt lat="44.855145" lon="9.5708233"><ele>571.4</ele><time>2026-03-26T10:32:27.987Z</time></trkpt><trkpt lat="44.855135" lon="9.57094"><ele>574.0</ele><time>2026-03-26T10:32:29.988Z</time></trkpt><trkpt lat="44.855135" lon="9.5710483"><ele>574.0</ele><time>2026-03-26T10:32:31.987Z</time></trkpt><trkpt lat="44.855095" lon="9.5711233"><ele>574.0</ele><time>2026-03-26T10:32:36.987Z</time></trkpt><trkpt lat="44.8550233" lon="9.5710867"><ele>574.0</ele><time>2026-03-26T10:32:38.987Z</time></trkpt><trkpt lat="44.8548983" lon="9.5710333"><ele>574.0</ele><time>2026-03-26T10:32:40.986Z</time></trkpt><trkpt lat="44.8548283" lon="9.571"><ele>574.0</ele><time>2026-03-26T10:32:41.986Z</time></trkpt><trkpt lat="44.8547517" lon="9.5709617"><ele>574.0</ele><time>2026-03-26T10:32:42.987Z</time></trkpt><trkpt lat="44.8546717" lon="9.5709217"><ele>574.0</ele><time>2026-03-26T10:32:43.986Z</time></trkpt><trkpt lat="44.8546033" lon="9.5708867"><ele>574.0</ele><time>2026-03-26T10:32:44.987Z</time></trkpt><trkpt lat="44.85454" lon="9.570865"><ele>574.0</ele><time>2026-03-26T10:32:45.987Z</time></trkpt><trkpt lat="44.8544433" lon="9.5707833"><ele>574.0</ele><time>2026-03-26T10:32:47.987Z</time></trkpt><trkpt lat="44.8543533" lon="9.570695"><ele>574.0</ele><time>2026-03-26T10:32:49.987Z</time></trkpt><trkpt lat="44.8542833" lon="9.5706833"><ele>574.0</ele><time>2026-03-26T10:32:51.986Z</time></trkpt><trkpt lat="44.8542083" lon="9.570745"><ele>576.4</ele><time>2026-03-26T10:32:54.985Z</time></trkpt><trkpt lat="44.8541417" lon="9.5707383"><ele>578.8</ele><time>2026-03-26T10:32:56.987Z</time></trkpt><trkpt lat="44.8540483" lon="9.57072"><ele>581.2</ele><time>2026-03-26T10:32:58.987Z</time></trkpt><trkpt lat="44.8539517" lon="9.5707067"><ele>583.6</ele><time>2026-03-26T10:33:00.987Z</time></trkpt><trkpt lat="44.853855" lon="9.5706917"><ele>586.0</ele><time>2026-03-26T10:33:02.988Z</time></trkpt><trkpt lat="44.8537583" lon="9.57065"><ele>586.0</ele><time>2026-03-26T10:33:04.987Z</time></trkpt><trkpt lat="44.8536717" lon="9.5705967"><ele>586.0</ele><time>2026-03-26T10:33:06.986Z</time></trkpt><trkpt lat="44.853595" lon="9.5706433"><ele>586.0</ele><time>2026-03-26T10:33:17.987Z</time></trkpt><trkpt lat="44.8536233" lon="9.5707817"><ele>586.0</ele><time>2026-03-26T10:33:19.987Z</time></trkpt><trkpt lat="44.85364" lon="9.5709133"><ele>586.0</ele><time>2026-03-26T10:33:21.987Z</time></trkpt><trkpt lat="44.853655" lon="9.57105"><ele>586.0</ele><time>2026-03-26T10:33:23.987Z</time></trkpt><trkpt lat="44.85367" lon="9.5711867"><ele>586.0</ele><time>2026-03-26T10:33:25.987Z</time></trkpt><trkpt lat="44.853675" lon="9.5712783"><ele>586.0</ele><time>2026-03-26T10:33:26.99Z</time></trkpt><trkpt lat="44.85368" lon="9.5713733"><ele>586.0</ele><time>2026-03-26T10:33:27.987Z</time></trkpt><trkpt lat="44.8536817" lon="9.5714767"><ele>586.0</ele><time>2026-03-26T10:33:28.987Z</time></trkpt><trkpt lat="44.853665" lon="9.5716267"><ele>586.0</ele><time>2026-03-26T10:33:30.986Z</time></trkpt><trkpt lat="44.853585" lon="9.5717067"><ele>590.4</ele><time>2026-03-26T10:33:32.989Z</time></trkpt><trkpt lat="44.853535" lon="9.5718067"><ele>594.8</ele><time>2026-03-26T10:33:34.986Z</time></trkpt><trkpt lat="44.8535067" lon="9.5719333"><ele>599.1999999999999</ele><time>2026-03-26T10:33:36.986Z</time></trkpt><trkpt lat="44.8534567" lon="9.572105"><ele>603.6</ele><time>2026-03-26T10:33:38.986Z</time></trkpt><trkpt lat="44.8534333" lon="9.57219"><ele>608.0</ele><time>2026-03-26T10:33:39.987Z</time></trkpt><trkpt lat="44.853385" lon="9.5723217"><ele>609.1428571428571</ele><time>2026-03-26T10:33:41.988Z</time></trkpt><trkpt lat="44.853375" lon="9.5724283"><ele>610.2857142857143</ele><time>2026-03-26T10:33:44.987Z</time></trkpt><trkpt lat="44.8533183" lon="9.5724917"><ele>611.4285714285714</ele><time>2026-03-26T10:33:48.987Z</time></trkpt><trkpt lat="44.8533067" lon="9.5726067"><ele>612.5714285714286</ele><time>2026-03-26T10:33:52.987Z</time></trkpt><trkpt lat="44.8533" lon="9.572725"><ele>613.7142857142858</ele><time>2026-03-26T10:33:54.987Z</time></trkpt><trkpt lat="44.8532867" lon="9.572815"><ele>614.8571428571429</ele><time>2026-03-26T10:33:55.987Z</time></trkpt><trkpt lat="44.8532667" lon="9.5729"><ele>616.0</ele><time>2026-03-26T10:33:56.988Z</time></trkpt><trkpt lat="44.853235" lon="9.5730433"><ele>616.8333333333334</ele><time>2026-03-26T10:33:58.986Z</time></trkpt><trkpt lat="44.85321" lon="9.5731517"><ele>617.6666666666667</ele><time>2026-03-26T10:34:00.987Z</time></trkpt><trkpt lat="44.85316" lon="9.5732417"><ele>618.5</ele><time>2026-03-26T10:34:02.988Z</time></trkpt><trkpt lat="44.8531167" lon="9.5733217"><ele>619.3333333333334</ele><time>2026-03-26T10:34:04.986Z</time></trkpt><trkpt lat="44.8531133" lon="9.5734217"><ele>620.1666666666666</ele><time>2026-03-26T10:34:07.988Z</time></trkpt><trkpt lat="44.853055" lon="9.5734817"><ele>621.0</ele><time>2026-03-26T10:34:10.987Z</time></trkpt><trkpt lat="44.8530267" lon="9.5735867"><ele>622.6</ele><time>2026-03-26T10:34:13.988Z</time></trkpt><trkpt lat="44.8529917" lon="9.5737367"><ele>624.2</ele><time>2026-03-26T10:35:36.987Z</time></trkpt><trkpt lat="44.852995" lon="9.5738517"><ele>625.8</ele><time>2026-03-26T10:35:38.988Z</time></trkpt><trkpt lat="44.8529783" lon="9.57398"><ele>627.4</ele><time>2026-03-26T10:35:40.987Z</time></trkpt><trkpt lat="44.8529433" lon="9.5741383"><ele>629.0</ele><time>2026-03-26T10:35:42.987Z</time></trkpt><trkpt lat="44.85291" lon="9.574305"><ele>629.0</ele><time>2026-03-26T10:35:44.987Z</time></trkpt><trkpt lat="44.8528833" lon="9.5744233"><ele>629.0</ele><time>2026-03-26T10:35:46.986Z</time></trkpt><trkpt lat="44.8528483" lon="9.5745383"><ele>629.0</ele><time>2026-03-26T10:35:48.986Z</time></trkpt><trkpt lat="44.8528367" lon="9.5746467"><ele>629.0</ele><time>2026-03-26T10:35:50.987Z</time></trkpt><trkpt lat="44.8528567" lon="9.574765"><ele>629.0</ele><time>2026-03-26T10:35:52.987Z</time></trkpt><trkpt lat="44.85284" lon="9.5748833"><ele>629.0</ele><time>2026-03-26T10:35:54.987Z</time></trkpt><trkpt lat="44.852765" lon="9.5749733"><ele>629.5</ele><time>2026-03-26T10:35:56.988Z</time></trkpt><trkpt lat="44.8527267" lon="9.5750983"><ele>630.0</ele><time>2026-03-26T10:35:58.986Z</time></trkpt><trkpt lat="44.8527117" lon="9.5752167"><ele>630.5</ele><time>2026-03-26T10:36:00.986Z</time></trkpt><trkpt lat="44.8526533" lon="9.5752917"><ele>631.0</ele><time>2026-03-26T10:36:02.986Z</time></trkpt><trkpt lat="44.85259" lon="9.57541"><ele>631.5</ele><time>2026-03-26T10:36:04.987Z</time></trkpt><trkpt lat="44.852555" lon="9.5755133"><ele>632.0</ele><time>2026-03-26T10:36:05.987Z</time></trkpt><trkpt lat="44.852525" lon="9.57562"><ele>629.5</ele><time>2026-03-26T10:36:06.986Z</time></trkpt><trkpt lat="44.8525033" lon="9.57573"><ele>627.0</ele><time>2026-03-26T10:36:07.986Z</time></trkpt><trkpt lat="44.85248" lon="9.5758517"><ele>624.5</ele><time>2026-03-26T10:36:08.987Z</time></trkpt><trkpt lat="44.852455" lon="9.5759783"><ele>622.0</ele><time>2026-03-26T10:36:09.987Z</time></trkpt><trkpt lat="44.8524333" lon="9.5760983"><ele>619.5</ele><time>2026-03-26T10:36:10.987Z</time></trkpt><trkpt lat="44.852415" lon="9.5762033"><ele>617.0</ele><time>2026-03-26T10:36:11.987Z</time></trkpt><trkpt lat="44.8523983" lon="9.5762917"><ele>617.0</ele><time>2026-03-26T10:36:12.988Z</time></trkpt><trkpt lat="44.85237" lon="9.57641"><ele>617.0</ele><time>2026-03-26T10:36:14.988Z</time></trkpt><trkpt lat="44.8523217" lon="9.57652"><ele>617.0</ele><time>2026-03-26T10:36:27.986Z</time></trkpt><trkpt lat="44.8522733" lon="9.5766733"><ele>617.0</ele><time>2026-03-26T10:36:29.986Z</time></trkpt><trkpt lat="44.8522433" lon="9.5767667"><ele>617.0</ele><time>2026-03-26T10:36:30.987Z</time></trkpt><trkpt lat="44.852215" lon="9.5768533"><ele>617.0</ele><time>2026-03-26T10:36:31.986Z</time></trkpt><trkpt lat="44.85216" lon="9.5769933"><ele>617.6</ele><time>2026-03-26T10:36:33.986Z</time></trkpt><trkpt lat="44.8521167" lon="9.577065"><ele>618.2</ele><time>2026-03-26T10:36:35.987Z</time></trkpt><trkpt lat="44.852025" lon="9.5771183"><ele>618.8</ele><time>2026-03-26T10:36:38.988Z</time></trkpt><trkpt lat="44.85193" lon="9.5771383"><ele>619.4</ele><time>2026-03-26T10:36:40.987Z</time></trkpt><trkpt lat="44.851835" lon="9.5771517"><ele>620.0</ele><time>2026-03-26T10:36:42.987Z</time></trkpt><trkpt lat="44.8517183" lon="9.57716"><ele>617.0</ele><time>2026-03-26T10:36:44.987Z</time></trkpt><trkpt lat="44.85159" lon="9.5771367"><ele>614.0</ele><time>2026-03-26T10:36:46.987Z</time></trkpt><trkpt lat="44.8515217" lon="9.57711"><ele>611.0</ele><time>2026-03-26T10:36:47.986Z</time></trkpt><trkpt lat="44.851445" lon="9.5770717"><ele>608.0</ele><time>2026-03-26T10:36:48.987Z</time></trkpt><trkpt lat="44.8513633" lon="9.5770267"><ele>605.0</ele><time>2026-03-26T10:36:49.987Z</time></trkpt><trkpt lat="44.85128" lon="9.57698"><ele>603.6666666666666</ele><time>2026-03-26T10:36:50.986Z</time></trkpt><trkpt lat="44.8511983" lon="9.5769367"><ele>602.3333333333333</ele><time>2026-03-26T10:36:51.987Z</time></trkpt><trkpt lat="44.8511233" lon="9.5768817"><ele>601.0</ele><time>2026-03-26T10:36:52.987Z</time></trkpt><trkpt lat="44.85106" lon="9.5768183"><ele>599.6666666666666</ele><time>2026-03-26T10:36:53.987Z</time></trkpt><trkpt lat="44.85101" lon="9.57674"><ele>598.3333333333334</ele><time>2026-03-26T10:36:54.987Z</time></trkpt><trkpt lat="44.8509667" lon="9.5766583"><ele>597.0</ele><time>2026-03-26T10:36:55.987Z</time></trkpt><trkpt lat="44.850925" lon="9.5765767"><ele>595.4285714285714</ele><time>2026-03-26T10:36:56.987Z</time></trkpt><trkpt lat="44.850885" lon="9.5764983"><ele>593.8571428571429</ele><time>2026-03-26T10:36:57.985Z</time></trkpt><trkpt lat="44.850845" lon="9.5764167"><ele>592.2857142857142</ele><time>2026-03-26T10:36:58.987Z</time></trkpt><trkpt lat="44.8508067" lon="9.57633"><ele>590.7142857142858</ele><time>2026-03-26T10:36:59.986Z</time></trkpt><trkpt lat="44.8507717" lon="9.5762433"><ele>589.1428571428571</ele><time>2026-03-26T10:37:00.987Z</time></trkpt><trkpt lat="44.8507367" lon="9.576155"><ele>587.5714285714286</ele><time>2026-03-26T10:37:01.987Z</time></trkpt><trkpt lat="44.8507" lon="9.5760567"><ele>586.0</ele><time>2026-03-26T10:37:02.988Z</time></trkpt><trkpt lat="44.850675" lon="9.5759533"><ele>584.5</ele><time>2026-03-26T10:37:03.986Z</time></trkpt><trkpt lat="44.8506583" lon="9.5758417"><ele>583.0</ele><time>2026-03-26T10:37:04.988Z</time></trkpt><trkpt lat="44.85064" lon="9.5757267"><ele>581.5</ele><time>2026-03-26T10:37:05.986Z</time></trkpt><trkpt lat="44.8506267" lon="9.5756183"><ele>580.0</ele><time>2026-03-26T10:37:06.987Z</time></trkpt><trkpt lat="44.850615" lon="9.5755083"><ele>578.5</ele><time>2026-03-26T10:37:07.987Z</time></trkpt><trkpt lat="44.8505983" lon="9.5754183"><ele>577.0</ele><time>2026-03-26T10:37:08.987Z</time></trkpt><trkpt lat="44.8505817" lon="9.5753317"><ele>575.5714285714286</ele><time>2026-03-26T10:37:09.987Z</time></trkpt><trkpt lat="44.8505733" lon="9.5752417"><ele>574.1428571428571</ele><time>2026-03-26T10:37:10.987Z</time></trkpt><trkpt lat="44.850575" lon="9.5751417"><ele>572.7142857142858</ele><time>2026-03-26T10:37:11.987Z</time></trkpt><trkpt lat="44.8505767" lon="9.5750383"><ele>571.2857142857142</ele><time>2026-03-26T10:37:12.986Z</time></trkpt><trkpt lat="44.8505783" lon="9.5749333"><ele>569.8571428571429</ele><time>2026-03-26T10:37:13.986Z</time></trkpt><trkpt lat="44.8505783" lon="9.5748217"><ele>568.4285714285714</ele><time>2026-03-26T10:37:14.986Z</time></trkpt><trkpt lat="44.8505783" lon="9.574715"><ele>567.0</ele><time>2026-03-26T10:37:15.986Z</time></trkpt><trkpt lat="44.850575" lon="9.5746217"><ele>567.0</ele><time>2026-03-26T10:37:16.987Z</time></trkpt><trkpt lat="44.8505733" lon="9.5745317"><ele>567.0</ele><time>2026-03-26T10:37:17.987Z</time></trkpt><trkpt lat="44.8505717" lon="9.5743683"><ele>567.0</ele><time>2026-03-26T10:37:19.987Z</time></trkpt><trkpt lat="44.8506017" lon="9.5742433"><ele>567.0</ele><time>2026-03-26T10:37:21.987Z</time></trkpt><trkpt lat="44.8506617" lon="9.5741583"><ele>567.0</ele><time>2026-03-26T10:37:23.987Z</time></trkpt><trkpt lat="44.8507217" lon="9.5741083"><ele>567.0</ele><time>2026-03-26T10:37:25.987Z</time></trkpt><trkpt lat="44.8507783" lon="9.5739817"><ele>565.0</ele><time>2026-03-26T10:37:53.986Z</time></trkpt><trkpt lat="44.8508133" lon="9.57386"><ele>563.0</ele><time>2026-03-26T10:37:54.986Z</time></trkpt><trkpt lat="44.8508583" lon="9.5737183"><ele>561.0</ele><time>2026-03-26T10:37:55.987Z</time></trkpt><trkpt lat="44.8509" lon="9.57357"><ele>559.0</ele><time>2026-03-26T10:37:56.987Z</time></trkpt><trkpt lat="44.850935" lon="9.5734317"><ele>557.0</ele><time>2026-03-26T10:37:57.985Z</time></trkpt><trkpt lat="44.8509683" lon="9.5732883"><ele>555.8000000000001</ele><time>2026-03-26T10:37:58.987Z</time></trkpt><trkpt lat="44.85099" lon="9.5731717"><ele>554.6</ele><time>2026-03-26T10:37:59.986Z</time></trkpt><trkpt lat="44.85101" lon="9.5730667"><ele>553.4000000000001</ele><time>2026-03-26T10:38:00.985Z</time></trkpt><trkpt lat="44.8510033" lon="9.5729217"><ele>552.2</ele><time>2026-03-26T10:38:02.987Z</time></trkpt><trkpt lat="44.85094" lon="9.5728333"><ele>551.0</ele><time>2026-03-26T10:38:04.985Z</time></trkpt><trkpt lat="44.850815" lon="9.572795"><ele>551.0</ele><time>2026-03-26T10:38:06.986Z</time></trkpt><trkpt lat="44.8507367" lon="9.572765"><ele>551.0</ele><time>2026-03-26T10:38:07.987Z</time></trkpt><trkpt lat="44.85066" lon="9.5727217"><ele>551.0</ele><time>2026-03-26T10:38:08.987Z</time></trkpt><trkpt lat="44.8505983" lon="9.5726567"><ele>551.0</ele><time>2026-03-26T10:38:09.986Z</time></trkpt><trkpt lat="44.8505517" lon="9.5725683"><ele>551.0</ele><time>2026-03-26T10:38:10.986Z</time></trkpt><trkpt lat="44.8505167" lon="9.5724633"><ele>551.0</ele><time>2026-03-26T10:38:11.986Z</time></trkpt><trkpt lat="44.8504867" lon="9.57235"><ele>551.0</ele><time>2026-03-26T10:38:12.986Z</time></trkpt><trkpt lat="44.8504717" lon="9.57223"><ele>551.0</ele><time>2026-03-26T10:38:13.986Z</time></trkpt><trkpt lat="44.8504733" lon="9.5721133"><ele>551.0</ele><time>2026-03-26T10:38:14.987Z</time></trkpt><trkpt lat="44.8504933" lon="9.5720067"><ele>551.0</ele><time>2026-03-26T10:38:15.987Z</time></trkpt><trkpt lat="44.8505317" lon="9.5719083"><ele>551.0</ele><time>2026-03-26T10:38:16.986Z</time></trkpt><trkpt lat="44.8505817" lon="9.571795"><ele>551.0</ele><time>2026-03-26T10:38:17.987Z</time></trkpt><trkpt lat="44.8506333" lon="9.5716833"><ele>549.7142857142857</ele><time>2026-03-26T10:38:18.986Z</time></trkpt><trkpt lat="44.850685" lon="9.571595"><ele>548.4285714285714</ele><time>2026-03-26T10:38:19.985Z</time></trkpt><trkpt lat="44.8507317" lon="9.5715133"><ele>547.1428571428571</ele><time>2026-03-26T10:38:20.988Z</time></trkpt><trkpt lat="44.85077" lon="9.57143"><ele>545.8571428571429</ele><time>2026-03-26T10:38:21.986Z</time></trkpt><trkpt lat="44.8507983" lon="9.5713367"><ele>544.5714285714286</ele><time>2026-03-26T10:38:22.986Z</time></trkpt><trkpt lat="44.8508167" lon="9.5712367"><ele>543.2857142857142</ele><time>2026-03-26T10:38:23.985Z</time></trkpt><trkpt lat="44.8508283" lon="9.5711333"><ele>542.0</ele><time>2026-03-26T10:38:24.986Z</time></trkpt><trkpt lat="44.8508383" lon="9.571035"><ele>540.0</ele><time>2026-03-26T10:38:25.986Z</time></trkpt><trkpt lat="44.8508333" lon="9.5709383"><ele>538.0</ele><time>2026-03-26T10:38:26.988Z</time></trkpt><trkpt lat="44.8508117" lon="9.57085"><ele>536.0</ele><time>2026-03-26T10:38:27.986Z</time></trkpt><trkpt lat="44.8507183" lon="9.57074"><ele>534.0</ele><time>2026-03-26T10:38:29.986Z</time></trkpt><trkpt lat="44.8506433" lon="9.570715"><ele>532.0</ele><time>2026-03-26T10:38:30.987Z</time></trkpt><trkpt lat="44.8505683" lon="9.5706883"><ele>530.0</ele><time>2026-03-26T10:38:31.987Z</time></trkpt><trkpt lat="44.8505" lon="9.57066"><ele>530.0</ele><time>2026-03-26T10:38:32.987Z</time></trkpt><trkpt lat="44.8504433" lon="9.5706183"><ele>530.0</ele><time>2026-03-26T10:38:33.986Z</time></trkpt><trkpt lat="44.8503617" lon="9.570495"><ele>530.0</ele><time>2026-03-26T10:38:35.987Z</time></trkpt><trkpt lat="44.8503283" lon="9.570335"><ele>530.0</ele><time>2026-03-26T10:38:37.987Z</time></trkpt><trkpt lat="44.8503267" lon="9.57023"><ele>530.0</ele><time>2026-03-26T10:38:38.986Z</time></trkpt><trkpt lat="44.8503383" lon="9.5701167"><ele>528.2</ele><time>2026-03-26T10:38:39.987Z</time></trkpt><trkpt lat="44.8503617" lon="9.5700033"><ele>526.4</ele><time>2026-03-26T10:38:40.987Z</time></trkpt><trkpt lat="44.8503983" lon="9.56988"><ele>524.6</ele><time>2026-03-26T10:38:41.987Z</time></trkpt><trkpt lat="44.8504417" lon="9.5697433"><ele>522.8</ele><time>2026-03-26T10:38:42.986Z</time></trkpt><trkpt lat="44.8504883" lon="9.5696083"><ele>521.0</ele><time>2026-03-26T10:38:43.986Z</time></trkpt><trkpt lat="44.8505383" lon="9.56948"><ele>518.6666666666666</ele><time>2026-03-26T10:38:44.987Z</time></trkpt><trkpt lat="44.8505883" lon="9.5693633"><ele>516.3333333333333</ele><time>2026-03-26T10:38:45.988Z</time></trkpt><trkpt lat="44.8506367" lon="9.5692517"><ele>514.0</ele><time>2026-03-26T10:38:46.987Z</time></trkpt><trkpt lat="44.85068" lon="9.569155"><ele>511.66666666666663</ele><time>2026-03-26T10:38:47.987Z</time></trkpt><trkpt lat="44.850735" lon="9.5690733"><ele>509.3333333333333</ele><time>2026-03-26T10:38:48.988Z</time></trkpt><trkpt lat="44.8507967" lon="9.569"><ele>507.0</ele><time>2026-03-26T10:38:49.986Z</time></trkpt><trkpt lat="44.8508583" lon="9.5689233"><ele>507.0</ele><time>2026-03-26T10:38:50.987Z</time></trkpt><trkpt lat="44.8509083" lon="9.568835"><ele>507.0</ele><time>2026-03-26T10:38:51.986Z</time></trkpt><trkpt lat="44.8509483" lon="9.5687267"><ele>507.0</ele><time>2026-03-26T10:38:52.987Z</time></trkpt><trkpt lat="44.850985" lon="9.5686167"><ele>507.0</ele><time>2026-03-26T10:38:53.987Z</time></trkpt><trkpt lat="44.8510267" lon="9.56851"><ele>507.0</ele><time>2026-03-26T10:38:54.987Z</time></trkpt><trkpt lat="44.85107" lon="9.5683967"><ele>507.0</ele><time>2026-03-26T10:38:55.986Z</time></trkpt><trkpt lat="44.8511117" lon="9.5682933"><ele>507.40000000000003</ele><time>2026-03-26T10:38:56.986Z</time></trkpt><trkpt lat="44.8511133" lon="9.5680933"><ele>507.80000000000007</ele><time>2026-03-26T10:38:58.987Z</time></trkpt><trkpt lat="44.85108" lon="9.56797"><ele>508.2</ele><time>2026-03-26T10:38:59.986Z</time></trkpt><trkpt lat="44.851065" lon="9.5678333"><ele>508.6</ele><time>2026-03-26T10:39:00.987Z</time></trkpt><trkpt lat="44.85106" lon="9.5676933"><ele>509.0</ele><time>2026-03-26T10:39:01.987Z</time></trkpt><trkpt lat="44.85106" lon="9.5675567"><ele>507.0</ele><time>2026-03-26T10:39:02.987Z</time></trkpt><trkpt lat="44.851055" lon="9.567425"><ele>505.0</ele><time>2026-03-26T10:39:03.986Z</time></trkpt><trkpt lat="44.8510383" lon="9.5672933"><ele>503.0</ele><time>2026-03-26T10:39:04.986Z</time></trkpt><trkpt lat="44.851005" lon="9.5671633"><ele>501.0</ele><time>2026-03-26T10:39:05.987Z</time></trkpt><trkpt lat="44.8509617" lon="9.5670367"><ele>499.0</ele><time>2026-03-26T10:39:06.986Z</time></trkpt><trkpt lat="44.85091" lon="9.5669067"><ele>492.6</ele><time>2026-03-26T10:39:07.987Z</time></trkpt><trkpt lat="44.8508667" lon="9.5667783"><ele>486.2</ele><time>2026-03-26T10:39:08.987Z</time></trkpt><trkpt lat="44.8508283" lon="9.5666517"><ele>479.80000000000007</ele><time>2026-03-26T10:39:09.986Z</time></trkpt><trkpt lat="44.8507933" lon="9.5665283"><ele>473.40000000000003</ele><time>2026-03-26T10:39:10.986Z</time></trkpt><trkpt lat="44.85078" lon="9.5664133"><ele>467.0</ele><time>2026-03-26T10:39:11.986Z</time></trkpt><trkpt lat="44.8507867" lon="9.5663067"><ele>466.99999999999994</ele><time>2026-03-26T10:39:12.985Z</time></trkpt><trkpt lat="44.8508367" lon="9.5661867"><ele>467.0</ele><time>2026-03-26T10:39:14.989Z</time></trkpt><trkpt lat="44.8509067" lon="9.5661333"><ele>467.0</ele><time>2026-03-26T10:39:17.986Z</time></trkpt><trkpt lat="44.8508417" lon="9.5661317"><ele>467.0</ele><time>2026-03-26T10:39:22.986Z</time></trkpt><trkpt lat="44.850795" lon="9.566215"><ele>466.99999999999994</ele><time>2026-03-26T10:39:24.988Z</time></trkpt><trkpt lat="44.850755" lon="9.5663267"><ele>467.0</ele><time>2026-03-26T10:39:26.987Z</time></trkpt><trkpt lat="44.8507317" lon="9.56649"><ele>466.99999999999994</ele><time>2026-03-26T10:39:28.987Z</time></trkpt><trkpt lat="44.8507183" lon="9.5665883"><ele>467.0</ele><time>2026-03-26T10:39:29.987Z</time></trkpt><trkpt lat="44.8507017" lon="9.5667"><ele>466.99999999999994</ele><time>2026-03-26T10:39:30.988Z</time></trkpt><trkpt lat="44.8506767" lon="9.5667983"><ele>466.99999999999994</ele><time>2026-03-26T10:39:31.987Z</time></trkpt><trkpt lat="44.850645" lon="9.56688"><ele>467.0</ele><time>2026-03-26T10:39:32.989Z</time></trkpt><trkpt lat="44.85062" lon="9.5669667"><ele>466.99999999999994</ele><time>2026-03-26T10:39:33.987Z</time></trkpt><trkpt lat="44.8506117" lon="9.5670567"><ele>466.99999999999994</ele><time>2026-03-26T10:39:34.987Z</time></trkpt><trkpt lat="44.8506383" lon="9.5672267"><ele>469.0</ele><time>2026-03-26T10:39:36.988Z</time></trkpt><trkpt lat="44.85062" lon="9.56737"><ele>471.0</ele><time>2026-03-26T10:39:38.988Z</time></trkpt><trkpt lat="44.85049" lon="9.5674617"><ele>473.0</ele><time>2026-03-26T10:39:40.988Z</time></trkpt><trkpt lat="44.850375" lon="9.5675067"><ele>475.0</ele><time>2026-03-26T10:39:41.988Z</time></trkpt><trkpt lat="44.8502583" lon="9.56755"><ele>475.0</ele><time>2026-03-26T10:39:42.987Z</time></trkpt><trkpt lat="44.850155" lon="9.567595"><ele>475.0</ele><time>2026-03-26T10:39:43.987Z</time></trkpt><trkpt lat="44.850065" lon="9.56767"><ele>475.0</ele><time>2026-03-26T10:39:44.988Z</time></trkpt><trkpt lat="44.84999" lon="9.56778"><ele>475.0</ele><time>2026-03-26T10:39:45.987Z</time></trkpt><trkpt lat="44.8499183" lon="9.5679033"><ele>475.0</ele><time>2026-03-26T10:39:46.987Z</time></trkpt><trkpt lat="44.8498467" lon="9.5680117"><ele>476.0</ele><time>2026-03-26T10:39:47.985Z</time></trkpt><trkpt lat="44.8497783" lon="9.5681083"><ele>477.0</ele><time>2026-03-26T10:39:48.986Z</time></trkpt><trkpt lat="44.8497217" lon="9.568195"><ele>478.0</ele><time>2026-03-26T10:39:49.987Z</time></trkpt><trkpt lat="44.8496683" lon="9.568295"><ele>479.0</ele><time>2026-03-26T10:39:50.987Z</time></trkpt><trkpt lat="44.8496233" lon="9.568425"><ele>480.0</ele><time>2026-03-26T10:39:51.985Z</time></trkpt><trkpt lat="44.8495817" lon="9.5685567"><ele>480.0</ele><time>2026-03-26T10:39:52.987Z</time></trkpt><trkpt lat="44.8495417" lon="9.568675"><ele>480.0</ele><time>2026-03-26T10:39:53.987Z</time></trkpt><trkpt lat="44.849505" lon="9.5687917"><ele>480.0</ele><time>2026-03-26T10:39:54.987Z</time></trkpt><trkpt lat="44.8494733" lon="9.5688917"><ele>480.0</ele><time>2026-03-26T10:39:55.987Z</time></trkpt><trkpt lat="44.8494217" lon="9.5690217"><ele>480.0</ele><time>2026-03-26T10:39:57.987Z</time></trkpt><trkpt lat="44.8493533" lon="9.56911"><ele>482.2</ele><time>2026-03-26T10:40:33.986Z</time></trkpt><trkpt lat="44.849325" lon="9.56925"><ele>484.4</ele><time>2026-03-26T10:40:35.987Z</time></trkpt><trkpt lat="44.8493217" lon="9.5694317"><ele>486.6</ele><time>2026-03-26T10:40:37.987Z</time></trkpt><trkpt lat="44.8493167" lon="9.5695267"><ele>488.8</ele><time>2026-03-26T10:40:38.986Z</time></trkpt><trkpt lat="44.849305" lon="9.5696267"><ele>491.0</ele><time>2026-03-26T10:40:39.986Z</time></trkpt><trkpt lat="44.8492917" lon="9.5697383"><ele>491.8333333333333</ele><time>2026-03-26T10:40:40.985Z</time></trkpt><trkpt lat="44.8492767" lon="9.56986"><ele>492.66666666666663</ele><time>2026-03-26T10:40:41.986Z</time></trkpt><trkpt lat="44.849255" lon="9.5699783"><ele>493.5</ele><time>2026-03-26T10:40:42.986Z</time></trkpt><trkpt lat="44.8492283" lon="9.5700783"><ele>494.33333333333337</ele><time>2026-03-26T10:40:43.986Z</time></trkpt><trkpt lat="44.8491917" lon="9.570165"><ele>495.1666666666667</ele><time>2026-03-26T10:40:44.987Z</time></trkpt><trkpt lat="44.8491033" lon="9.5702283"><ele>496.0</ele><time>2026-03-26T10:40:46.988Z</time></trkpt><trkpt lat="44.84903" lon="9.5702817"><ele>498.8</ele><time>2026-03-26T10:40:48.988Z</time></trkpt><trkpt lat="44.8489833" lon="9.5703733"><ele>501.6</ele><time>2026-03-26T10:40:50.988Z</time></trkpt><trkpt lat="44.84896" lon="9.57052"><ele>504.4</ele><time>2026-03-26T10:40:52.986Z</time></trkpt><trkpt lat="44.8489367" lon="9.5706917"><ele>507.2</ele><time>2026-03-26T10:40:54.988Z</time></trkpt><trkpt lat="44.8489067" lon="9.5707883"><ele>510.0</ele><time>2026-03-26T10:40:55.988Z</time></trkpt><trkpt lat="44.8488683" lon="9.5708967"><ele>510.0</ele><time>2026-03-26T10:40:56.987Z</time></trkpt><trkpt lat="44.84882" lon="9.5710117"><ele>510.0</ele><time>2026-03-26T10:40:57.988Z</time></trkpt><trkpt lat="44.8487667" lon="9.57112"><ele>510.0</ele><time>2026-03-26T10:40:58.988Z</time></trkpt><trkpt lat="44.8487217" lon="9.571225"><ele>510.0</ele><time>2026-03-26T10:40:59.987Z</time></trkpt><trkpt lat="44.8486867" lon="9.5713267"><ele>510.0</ele><time>2026-03-26T10:41:00.987Z</time></trkpt><trkpt lat="44.8486583" lon="9.571415"><ele>510.0</ele><time>2026-03-26T10:41:01.988Z</time></trkpt><trkpt lat="44.848615" lon="9.5715067"><ele>512.1666666666666</ele><time>2026-03-26T10:41:03.986Z</time></trkpt><trkpt lat="44.84857" lon="9.57157"><ele>514.3333333333334</ele><time>2026-03-26T10:41:13.987Z</time></trkpt><trkpt lat="44.8485317" lon="9.5716717"><ele>516.5</ele><time>2026-03-26T10:41:15.986Z</time></trkpt><trkpt lat="44.84851" lon="9.5717933"><ele>518.6666666666667</ele><time>2026-03-26T10:41:17.987Z</time></trkpt><trkpt lat="44.8484933" lon="9.5719183"><ele>520.8333333333334</ele><time>2026-03-26T10:41:19.987Z</time></trkpt><trkpt lat="44.8484833" lon="9.5720067"><ele>523.0</ele><time>2026-03-26T10:41:21.987Z</time></trkpt><trkpt lat="44.848465" lon="9.57211"><ele>524.1999999999999</ele><time>2026-03-26T10:41:24.987Z</time></trkpt><trkpt lat="44.84843" lon="9.5722333"><ele>525.4</ele><time>2026-03-26T10:41:26.987Z</time></trkpt><trkpt lat="44.8484217" lon="9.5723217"><ele>526.5999999999999</ele><time>2026-03-26T10:41:27.986Z</time></trkpt><trkpt lat="44.8483867" lon="9.5724733"><ele>527.8</ele><time>2026-03-26T10:41:29.985Z</time></trkpt><trkpt lat="44.8483133" lon="9.5726"><ele>529.0</ele><time>2026-03-26T10:41:31.987Z</time></trkpt><trkpt lat="44.8482317" lon="9.572675"><ele>529.0</ele><time>2026-03-26T10:41:33.986Z</time></trkpt><trkpt lat="44.8481383" lon="9.5727383"><ele>529.0</ele><time>2026-03-26T10:41:35.988Z</time></trkpt><trkpt lat="44.8480433" lon="9.5728333"><ele>529.0</ele><time>2026-03-26T10:41:37.986Z</time></trkpt><trkpt lat="44.8479617" lon="9.5729233"><ele>529.0</ele><time>2026-03-26T10:41:39.987Z</time></trkpt><trkpt lat="44.8479167" lon="9.5729967"><ele>529.0</ele><time>2026-03-26T10:41:41.986Z</time></trkpt><trkpt lat="44.847885" lon="9.5731483"><ele>531.0</ele><time>2026-03-26T10:41:43.987Z</time></trkpt><trkpt lat="44.8478617" lon="9.5732433"><ele>533.0</ele><time>2026-03-26T10:41:44.987Z</time></trkpt><trkpt lat="44.8478417" lon="9.5733383"><ele>535.0</ele><time>2026-03-26T10:41:45.986Z</time></trkpt><trkpt lat="44.847815" lon="9.5735133"><ele>537.0</ele><time>2026-03-26T10:41:47.988Z</time></trkpt><trkpt lat="44.847785" lon="9.573605"><ele>539.0</ele><time>2026-03-26T10:41:48.986Z</time></trkpt><trkpt lat="44.847745" lon="9.5737133"><ele>541.0</ele><time>2026-03-26T10:41:49.988Z</time></trkpt><trkpt lat="44.8476983" lon="9.573815"><ele>542.0</ele><time>2026-03-26T10:41:50.988Z</time></trkpt><trkpt lat="44.8476517" lon="9.57391"><ele>543.0</ele><time>2026-03-26T10:41:51.988Z</time></trkpt><trkpt lat="44.84761" lon="9.5739967"><ele>544.0</ele><time>2026-03-26T10:41:52.988Z</time></trkpt><trkpt lat="44.84755" lon="9.5741417"><ele>545.0</ele><time>2026-03-26T10:41:54.986Z</time></trkpt><trkpt lat="44.8475217" lon="9.57429"><ele>546.0</ele><time>2026-03-26T10:41:56.987Z</time></trkpt><trkpt lat="44.84746" lon="9.5744283"><ele>546.0</ele><time>2026-03-26T10:41:58.987Z</time></trkpt><trkpt lat="44.8474133" lon="9.5745017"><ele>546.0</ele><time>2026-03-26T10:41:59.986Z</time></trkpt><trkpt lat="44.8473717" lon="9.5745867"><ele>546.0</ele><time>2026-03-26T10:42:00.987Z</time></trkpt><trkpt lat="44.8473383" lon="9.574675"><ele>546.0</ele><time>2026-03-26T10:42:01.987Z</time></trkpt><trkpt lat="44.847305" lon="9.574765"><ele>546.0</ele><time>2026-03-26T10:42:02.987Z</time></trkpt><trkpt lat="44.8472683" lon="9.574855"><ele>546.0</ele><time>2026-03-26T10:42:03.987Z</time></trkpt><trkpt lat="44.8472283" lon="9.5749467"><ele>546.0</ele><time>2026-03-26T10:42:04.986Z</time></trkpt><trkpt lat="44.8471833" lon="9.5750333"><ele>547.7142857142857</ele><time>2026-03-26T10:42:05.987Z</time></trkpt><trkpt lat="44.8471433" lon="9.5751133"><ele>549.4285714285714</ele><time>2026-03-26T10:42:06.987Z</time></trkpt><trkpt lat="44.8471033" lon="9.57519"><ele>551.1428571428571</ele><time>2026-03-26T10:42:07.987Z</time></trkpt><trkpt lat="44.8470583" lon="9.575265"><ele>552.8571428571429</ele><time>2026-03-26T10:42:08.987Z</time></trkpt><trkpt lat="44.8470133" lon="9.5753433"><ele>554.5714285714286</ele><time>2026-03-26T10:42:09.986Z</time></trkpt><trkpt lat="44.84697" lon="9.57542"><ele>556.2857142857142</ele><time>2026-03-26T10:42:10.986Z</time></trkpt><trkpt lat="44.84692" lon="9.57549"><ele>558.0</ele><time>2026-03-26T10:42:11.986Z</time></trkpt><trkpt lat="44.8468383" lon="9.57559"><ele>557.0</ele><time>2026-03-26T10:42:13.987Z</time></trkpt><trkpt lat="44.8467667" lon="9.5756333"><ele>556.0</ele><time>2026-03-26T10:42:15.986Z</time></trkpt><trkpt lat="44.8466967" lon="9.5755817"><ele>555.0</ele><time>2026-03-26T10:42:17.986Z</time></trkpt><trkpt lat="44.8466033" lon="9.5754683"><ele>554.0</ele><time>2026-03-26T10:42:19.987Z</time></trkpt><trkpt lat="44.8465533" lon="9.5754017"><ele>553.0</ele><time>2026-03-26T10:42:20.987Z</time></trkpt><trkpt lat="44.846505" lon="9.575325"><ele>552.0</ele><time>2026-03-26T10:42:21.985Z</time></trkpt><trkpt lat="44.8464617" lon="9.5752517"><ele>552.0</ele><time>2026-03-26T10:42:22.987Z</time></trkpt><trkpt lat="44.84642" lon="9.5751833"><ele>552.0</ele><time>2026-03-26T10:42:23.986Z</time></trkpt><trkpt lat="44.846335" lon="9.5750667"><ele>552.0</ele><time>2026-03-26T10:42:25.988Z</time></trkpt><trkpt lat="44.846245" lon="9.5749667"><ele>552.0</ele><time>2026-03-26T10:42:27.987Z</time></trkpt><trkpt lat="44.8461917" lon="9.57491"><ele>552.0</ele><time>2026-03-26T10:42:28.986Z</time></trkpt><trkpt lat="44.8461383" lon="9.57485"><ele>552.0</ele><time>2026-03-26T10:42:29.987Z</time></trkpt><trkpt lat="44.8460817" lon="9.5747833"><ele>552.0</ele><time>2026-03-26T10:42:30.987Z</time></trkpt><trkpt lat="44.8460217" lon="9.5747217"><ele>552.0</ele><time>2026-03-26T10:42:31.988Z</time></trkpt><trkpt lat="44.845965" lon="9.574665"><ele>552.0</ele><time>2026-03-26T10:42:32.987Z</time></trkpt><trkpt lat="44.845915" lon="9.57461"><ele>552.0</ele><time>2026-03-26T10:42:33.987Z</time></trkpt><trkpt lat="44.8458617" lon="9.5745533"><ele>552.0</ele><time>2026-03-26T10:42:34.987Z</time></trkpt><trkpt lat="44.8457983" lon="9.574495"><ele>552.0</ele><time>2026-03-26T10:42:35.987Z</time></trkpt><trkpt lat="44.8457317" lon="9.5744317"><ele>552.0</ele><time>2026-03-26T10:42:36.987Z</time></trkpt><trkpt lat="44.8456717" lon="9.5743783"><ele>551.4</ele><time>2026-03-26T10:42:37.987Z</time></trkpt><trkpt lat="44.8455683" lon="9.5743033"><ele>550.8000000000001</ele><time>2026-03-26T10:42:39.986Z</time></trkpt><trkpt lat="44.8454817" lon="9.5742167"><ele>550.2</ele><time>2026-03-26T10:42:41.986Z</time></trkpt><trkpt lat="44.8453983" lon="9.574065"><ele>549.6</ele><time>2026-03-26T10:42:43.987Z</time></trkpt><trkpt lat="44.8453567" lon="9.573965"><ele>549.0</ele><time>2026-03-26T10:42:44.987Z</time></trkpt><trkpt lat="44.8453167" lon="9.57385"><ele>549.0</ele><time>2026-03-26T10:42:45.987Z</time></trkpt><trkpt lat="44.84528" lon="9.57372"><ele>549.0</ele><time>2026-03-26T10:42:46.987Z</time></trkpt><trkpt lat="44.8452433" lon="9.5735867"><ele>549.0</ele><time>2026-03-26T10:42:47.986Z</time></trkpt><trkpt lat="44.8452033" lon="9.573455"><ele>549.0</ele><time>2026-03-26T10:42:48.987Z</time></trkpt><trkpt lat="44.8451617" lon="9.57333"><ele>549.0</ele><time>2026-03-26T10:42:49.987Z</time></trkpt><trkpt lat="44.8451233" lon="9.5732117"><ele>547.5</ele><time>2026-03-26T10:42:50.987Z</time></trkpt><trkpt lat="44.8450883" lon="9.5731017"><ele>546.0</ele><time>2026-03-26T10:42:51.987Z</time></trkpt><trkpt lat="44.845055" lon="9.5730017"><ele>544.5</ele><time>2026-03-26T10:42:52.987Z</time></trkpt><trkpt lat="44.8450233" lon="9.5729117"><ele>543.0</ele><time>2026-03-26T10:42:53.986Z</time></trkpt><trkpt lat="44.8449917" lon="9.5728233"><ele>541.5</ele><time>2026-03-26T10:42:54.986Z</time></trkpt><trkpt lat="44.8449533" lon="9.57275"><ele>540.0</ele><time>2026-03-26T10:42:55.987Z</time></trkpt><trkpt lat="44.8448567" lon="9.5726317"><ele>538.4</ele><time>2026-03-26T10:42:57.986Z</time></trkpt><trkpt lat="44.8448017" lon="9.572565"><ele>536.8</ele><time>2026-03-26T10:42:58.987Z</time></trkpt><trkpt lat="44.8447467" lon="9.572475"><ele>535.2</ele><time>2026-03-26T10:42:59.986Z</time></trkpt><trkpt lat="44.8446833" lon="9.5723533"><ele>533.6</ele><time>2026-03-26T10:43:00.986Z</time></trkpt><trkpt lat="44.8446183" lon="9.57223"><ele>532.0</ele><time>2026-03-26T10:43:01.986Z</time></trkpt><trkpt lat="44.8445567" lon="9.57212"><ele>530.1666666666667</ele><time>2026-03-26T10:43:02.987Z</time></trkpt><trkpt lat="44.8444967" lon="9.57201"><ele>528.3333333333334</ele><time>2026-03-26T10:43:03.986Z</time></trkpt><trkpt lat="44.8444367" lon="9.5719083"><ele>526.5</ele><time>2026-03-26T10:43:04.987Z</time></trkpt><trkpt lat="44.8443767" lon="9.5718133"><ele>524.6666666666666</ele><time>2026-03-26T10:43:05.987Z</time></trkpt><trkpt lat="44.844315" lon="9.5717317"><ele>522.8333333333333</ele><time>2026-03-26T10:43:06.987Z</time></trkpt><trkpt lat="44.8442533" lon="9.5716583"><ele>521.0</ele><time>2026-03-26T10:43:07.986Z</time></trkpt><trkpt lat="44.844195" lon="9.571595"><ele>521.0</ele><time>2026-03-26T10:43:08.987Z</time></trkpt><trkpt lat="44.8440833" lon="9.57153"><ele>521.0</ele><time>2026-03-26T10:43:10.987Z</time></trkpt><trkpt lat="44.843965" lon="9.5715717"><ele>521.0</ele><time>2026-03-26T10:43:12.987Z</time></trkpt><trkpt lat="44.8439133" lon="9.571625"><ele>521.0</ele><time>2026-03-26T10:43:13.987Z</time></trkpt><trkpt lat="44.8438583" lon="9.5716833"><ele>521.0</ele><time>2026-03-26T10:43:14.988Z</time></trkpt><trkpt lat="44.8438017" lon="9.57175"><ele>521.0</ele><time>2026-03-26T10:43:15.986Z</time></trkpt><trkpt lat="44.843745" lon="9.5718133"><ele>521.0</ele><time>2026-03-26T10:43:16.986Z</time></trkpt><trkpt lat="44.8436883" lon="9.571865"><ele>521.0</ele><time>2026-03-26T10:43:17.987Z</time></trkpt><trkpt lat="44.8435817" lon="9.57194"><ele>521.0</ele><time>2026-03-26T10:43:19.986Z</time></trkpt><trkpt lat="44.84347" lon="9.5720033"><ele>521.0</ele><time>2026-03-26T10:43:21.986Z</time></trkpt><trkpt lat="44.8433767" lon="9.5720667"><ele>521.0</ele><time>2026-03-26T10:43:23.987Z</time></trkpt><trkpt lat="44.8433167" lon="9.5721"><ele>518.5</ele><time>2026-03-26T10:43:25.985Z</time></trkpt><trkpt lat="44.84327" lon="9.57198"><ele>516.0</ele><time>2026-03-26T10:43:28.987Z</time></trkpt><trkpt lat="44.84326" lon="9.5718833"><ele>513.5</ele><time>2026-03-26T10:43:29.986Z</time></trkpt><trkpt lat="44.84325" lon="9.57178"><ele>511.0</ele><time>2026-03-26T10:43:30.987Z</time></trkpt><trkpt lat="44.84324" lon="9.5716833"><ele>508.49999999999994</ele><time>2026-03-26T10:43:31.987Z</time></trkpt><trkpt lat="44.84323" lon="9.57158"><ele>506.0</ele><time>2026-03-26T10:43:32.987Z</time></trkpt><trkpt lat="44.8432217" lon="9.5714717"><ele>505.99999999999994</ele><time>2026-03-26T10:43:33.987Z</time></trkpt><trkpt lat="44.8432117" lon="9.571355"><ele>506.0</ele><time>2026-03-26T10:43:34.986Z</time></trkpt><trkpt lat="44.8432033" lon="9.571235"><ele>506.0</ele><time>2026-03-26T10:43:35.987Z</time></trkpt><trkpt lat="44.8432033" lon="9.5711183"><ele>506.0</ele><time>2026-03-26T10:43:36.987Z</time></trkpt><trkpt lat="44.8432067" lon="9.5710167"><ele>505.99999999999994</ele><time>2026-03-26T10:43:37.986Z</time></trkpt><trkpt lat="44.8432117" lon="9.570925"><ele>506.0</ele><time>2026-03-26T10:43:38.988Z</time></trkpt><trkpt lat="44.8432167" lon="9.570835"><ele>505.8333333333333</ele><time>2026-03-26T10:43:39.986Z</time></trkpt><trkpt lat="44.8432217" lon="9.57073"><ele>505.66666666666663</ele><time>2026-03-26T10:43:40.987Z</time></trkpt><trkpt lat="44.843225" lon="9.5706033"><ele>505.5</ele><time>2026-03-26T10:43:41.988Z</time></trkpt><trkpt lat="44.8432267" lon="9.5704683"><ele>505.33333333333337</ele><time>2026-03-26T10:43:42.987Z</time></trkpt><trkpt lat="44.8432283" lon="9.5703383"><ele>505.1666666666667</ele><time>2026-03-26T10:43:43.987Z</time></trkpt><trkpt lat="44.8432267" lon="9.57022"><ele>505.0</ele><time>2026-03-26T10:43:44.987Z</time></trkpt><trkpt lat="44.8432233" lon="9.5701083"><ele>504.6</ele><time>2026-03-26T10:43:45.986Z</time></trkpt><trkpt lat="44.8432133" lon="9.57001"><ele>504.2</ele><time>2026-03-26T10:43:46.987Z</time></trkpt><trkpt lat="44.8431967" lon="9.569895"><ele>503.79999999999995</ele><time>2026-03-26T10:43:48.987Z</time></trkpt><trkpt lat="44.8431283" lon="9.569815"><ele>503.4</ele><time>2026-03-26T10:49:12.985Z</time></trkpt><trkpt lat="44.8430183" lon="9.5697133"><ele>503.0</ele><time>2026-03-26T10:49:14.988Z</time></trkpt><trkpt lat="44.8429433" lon="9.5696717"><ele>503.0</ele><time>2026-03-26T10:49:15.986Z</time></trkpt><trkpt lat="44.8428683" lon="9.5696483"><ele>503.00000000000006</ele><time>2026-03-26T10:49:16.986Z</time></trkpt><trkpt lat="44.842795" lon="9.5696333"><ele>503.0</ele><time>2026-03-26T10:49:17.986Z</time></trkpt><trkpt lat="44.8427283" lon="9.5696283"><ele>503.0</ele><time>2026-03-26T10:49:18.986Z</time></trkpt><trkpt lat="44.8426583" lon="9.5696217"><ele>503.00000000000006</ele><time>2026-03-26T10:49:19.987Z</time></trkpt><trkpt lat="44.8425833" lon="9.569685"><ele>503.0</ele><time>2026-03-26T10:49:21.986Z</time></trkpt><trkpt lat="44.84252" lon="9.569645"><ele>503.0</ele><time>2026-03-26T10:49:24.987Z</time></trkpt><trkpt lat="44.8425033" lon="9.5695533"><ele>502.99999999999994</ele><time>2026-03-26T10:49:27.986Z</time></trkpt><trkpt lat="44.8424433" lon="9.5694667"><ele>503.0</ele><time>2026-03-26T10:49:30.986Z</time></trkpt><trkpt lat="44.8423733" lon="9.5695317"><ele>503.0</ele><time>2026-03-26T10:49:32.99Z</time></trkpt><trkpt lat="44.842325" lon="9.5696033"><ele>503.0</ele><time>2026-03-26T10:49:33.986Z</time></trkpt><trkpt lat="44.8422717" lon="9.5696583"><ele>502.99999999999994</ele><time>2026-03-26T10:49:34.987Z</time></trkpt><trkpt lat="44.8421983" lon="9.5696983"><ele>503.0</ele><time>2026-03-26T10:49:35.986Z</time></trkpt><trkpt lat="44.8421117" lon="9.5697333"><ele>503.0</ele><time>2026-03-26T10:49:36.987Z</time></trkpt><trkpt lat="44.84203" lon="9.5697633"><ele>502.99999999999994</ele><time>2026-03-26T10:49:37.986Z</time></trkpt><trkpt lat="44.841935" lon="9.5697817"><ele>502.99999999999994</ele><time>2026-03-26T10:49:38.986Z</time></trkpt><trkpt lat="44.84184" lon="9.56977"><ele>503.0</ele><time>2026-03-26T10:49:39.986Z</time></trkpt><trkpt lat="44.8417467" lon="9.569745"><ele>503.0</ele><time>2026-03-26T10:49:40.986Z</time></trkpt><trkpt lat="44.8416617" lon="9.5697133"><ele>504.99999999999994</ele><time>2026-03-26T10:49:41.987Z</time></trkpt><trkpt lat="44.8415817" lon="9.569695"><ele>507.0</ele><time>2026-03-26T10:49:42.986Z</time></trkpt><trkpt lat="44.84151" lon="9.56969"><ele>509.0</ele><time>2026-03-26T10:49:43.987Z</time></trkpt><trkpt lat="44.8414467" lon="9.56969"><ele>511.0</ele><time>2026-03-26T10:49:44.988Z</time></trkpt><trkpt lat="44.841335" lon="9.56967"><ele>513.0</ele><time>2026-03-26T10:49:46.987Z</time></trkpt><trkpt lat="44.8412717" lon="9.5696517"><ele>515.0</ele><time>2026-03-26T10:49:47.987Z</time></trkpt><trkpt lat="44.841205" lon="9.5696233"><ele>515.0</ele><time>2026-03-26T10:49:48.988Z</time></trkpt><trkpt lat="44.8411167" lon="9.569605"><ele>515.0</ele><time>2026-03-26T10:49:49.987Z</time></trkpt><trkpt lat="44.8410433" lon="9.5695933"><ele>515.0</ele><time>2026-03-26T10:49:50.988Z</time></trkpt><trkpt lat="44.8409433" lon="9.5694967"><ele>515.0</ele><time>2026-03-26T10:49:52.988Z</time></trkpt><trkpt lat="44.840925" lon="9.5693167"><ele>515.0</ele><time>2026-03-26T10:49:54.987Z</time></trkpt><trkpt lat="44.84093" lon="9.5692033"><ele>516.5</ele><time>2026-03-26T10:49:55.987Z</time></trkpt><trkpt lat="44.8409317" lon="9.5690917"><ele>518.0</ele><time>2026-03-26T10:49:56.987Z</time></trkpt><trkpt lat="44.8409183" lon="9.56899"><ele>519.5</ele><time>2026-03-26T10:49:57.987Z</time></trkpt><trkpt lat="44.8408717" lon="9.5689117"><ele>521.0</ele><time>2026-03-26T10:49:58.987Z</time></trkpt><trkpt lat="44.8408167" lon="9.5688483"><ele>522.5</ele><time>2026-03-26T10:49:59.987Z</time></trkpt><trkpt lat="44.84073" lon="9.5688083"><ele>524.0</ele><time>2026-03-26T10:50:00.986Z</time></trkpt><trkpt lat="44.8406267" lon="9.5687933"><ele>524.0</ele><time>2026-03-26T10:50:01.987Z</time></trkpt><trkpt lat="44.8405017" lon="9.568805"><ele>524.0</ele><time>2026-03-26T10:50:02.988Z</time></trkpt><trkpt lat="44.8403783" lon="9.5688217"><ele>524.0</ele><time>2026-03-26T10:50:03.986Z</time></trkpt><trkpt lat="44.8402583" lon="9.5688283"><ele>524.0</ele><time>2026-03-26T10:50:04.987Z</time></trkpt><trkpt lat="44.8401283" lon="9.5688317"><ele>524.2</ele><time>2026-03-26T10:50:05.987Z</time></trkpt><trkpt lat="44.8399967" lon="9.5688283"><ele>524.4</ele><time>2026-03-26T10:50:06.987Z</time></trkpt><trkpt lat="44.839875" lon="9.5688133"><ele>524.6</ele><time>2026-03-26T10:50:07.987Z</time></trkpt><trkpt lat="44.8397817" lon="9.5687767"><ele>524.8</ele><time>2026-03-26T10:50:08.988Z</time></trkpt><trkpt lat="44.8397017" lon="9.5687083"><ele>525.0</ele><time>2026-03-26T10:50:09.986Z</time></trkpt><trkpt lat="44.839615" lon="9.5686133"><ele>522.0</ele><time>2026-03-26T10:50:10.988Z</time></trkpt><trkpt lat="44.8395317" lon="9.5685133"><ele>519.0</ele><time>2026-03-26T10:50:11.987Z</time></trkpt><trkpt lat="44.8394383" lon="9.5683967"><ele>516.0</ele><time>2026-03-26T10:50:12.987Z</time></trkpt><trkpt lat="44.83934" lon="9.5682667"><ele>513.0</ele><time>2026-03-26T10:50:13.987Z</time></trkpt><trkpt lat="44.8392467" lon="9.5681417"><ele>513.0</ele><time>2026-03-26T10:50:14.987Z</time></trkpt><trkpt lat="44.8391517" lon="9.56804"><ele>513.0</ele><time>2026-03-26T10:50:15.988Z</time></trkpt><trkpt lat="44.8390483" lon="9.567965"><ele>513.0</ele><time>2026-03-26T10:50:16.987Z</time></trkpt><trkpt lat="44.8389433" lon="9.5679017"><ele>513.0</ele><time>2026-03-26T10:50:17.987Z</time></trkpt><trkpt lat="44.8388467" lon="9.5678283"><ele>512.0</ele><time>2026-03-26T10:50:18.987Z</time></trkpt><trkpt lat="44.8387633" lon="9.5677517"><ele>511.0</ele><time>2026-03-26T10:50:19.987Z</time></trkpt><trkpt lat="44.8386917" lon="9.5676683"><ele>510.0</ele><time>2026-03-26T10:50:20.988Z</time></trkpt><trkpt lat="44.83863" lon="9.567595"><ele>509.0</ele><time>2026-03-26T10:50:21.987Z</time></trkpt><trkpt lat="44.8385733" lon="9.5675467"><ele>508.0</ele><time>2026-03-26T10:50:22.986Z</time></trkpt><trkpt lat="44.8385133" lon="9.5675167"><ele>507.0</ele><time>2026-03-26T10:50:23.987Z</time></trkpt><trkpt lat="44.8383983" lon="9.5675267"><ele>507.0</ele><time>2026-03-26T10:50:25.987Z</time></trkpt><trkpt lat="44.8383133" lon="9.5675867"><ele>507.00000000000006</ele><time>2026-03-26T10:50:27.986Z</time></trkpt><trkpt lat="44.83823" lon="9.5676633"><ele>507.00000000000006</ele><time>2026-03-26T10:50:29.989Z</time></trkpt><trkpt lat="44.8381717" lon="9.56778"><ele>507.0</ele><time>2026-03-26T10:50:31.988Z</time></trkpt><trkpt lat="44.8381183" lon="9.567915"><ele>507.0</ele><time>2026-03-26T10:50:33.987Z</time></trkpt><trkpt lat="44.8380567" lon="9.568015"><ele>505.6666666666667</ele><time>2026-03-26T10:50:35.987Z</time></trkpt><trkpt lat="44.8379667" lon="9.568045"><ele>504.33333333333337</ele><time>2026-03-26T10:50:37.987Z</time></trkpt><trkpt lat="44.8378883" lon="9.5680167"><ele>503.0</ele><time>2026-03-26T10:50:39.987Z</time></trkpt><trkpt lat="44.8377933" lon="9.5680217"><ele>501.6666666666667</ele><time>2026-03-26T10:50:41.987Z</time></trkpt><trkpt lat="44.837725" lon="9.5680867"><ele>500.33333333333337</ele><time>2026-03-26T10:50:43.987Z</time></trkpt><trkpt lat="44.837665" lon="9.5681517"><ele>499.0</ele><time>2026-03-26T10:50:45.986Z</time></trkpt><trkpt lat="44.8376067" lon="9.5682083"><ele>497.79999999999995</ele><time>2026-03-26T10:50:47.989Z</time></trkpt><trkpt lat="44.8375567" lon="9.568275"><ele>496.59999999999997</ele><time>2026-03-26T10:50:49.987Z</time></trkpt><trkpt lat="44.8375233" lon="9.5683867"><ele>495.4</ele><time>2026-03-26T10:50:52.987Z</time></trkpt><trkpt lat="44.837475" lon="9.5685083"><ele>494.2</ele><time>2026-03-26T10:50:55.986Z</time></trkpt><trkpt lat="44.8373933" lon="9.5685617"><ele>493.0</ele><time>2026-03-26T10:50:57.987Z</time></trkpt><trkpt lat="44.837285" lon="9.56856"><ele>493.00000000000006</ele><time>2026-03-26T10:50:59.987Z</time></trkpt><trkpt lat="44.8371833" lon="9.5685433"><ele>493.0</ele><time>2026-03-26T10:51:01.988Z</time></trkpt><trkpt lat="44.83713" lon="9.5684917"><ele>493.0</ele><time>2026-03-26T10:51:03.988Z</time></trkpt><trkpt lat="44.8371033" lon="9.56841"><ele>493.0</ele><time>2026-03-26T10:51:05.987Z</time></trkpt><trkpt lat="44.8371133" lon="9.5682967"><ele>493.00000000000006</ele><time>2026-03-26T10:51:08.987Z</time></trkpt><trkpt lat="44.8370767" lon="9.5681867"><ele>493.0</ele><time>2026-03-26T10:51:11.987Z</time></trkpt><trkpt lat="44.8370433" lon="9.5680483"><ele>493.00000000000006</ele><time>2026-03-26T10:51:13.986Z</time></trkpt><trkpt lat="44.837015" lon="9.5679417"><ele>493.0</ele><time>2026-03-26T10:51:15.987Z</time></trkpt><trkpt lat="44.8369783" lon="9.56786"><ele>493.0</ele><time>2026-03-26T10:51:17.988Z</time></trkpt><trkpt lat="44.8369033" lon="9.5678417"><ele>493.0</ele><time>2026-03-26T10:51:20.986Z</time></trkpt><trkpt lat="44.836825" lon="9.5678783"><ele>493.00000000000006</ele><time>2026-03-26T10:51:23.988Z</time></trkpt><trkpt lat="44.8367667" lon="9.567925"><ele>493.0</ele><time>2026-03-26T10:51:27.986Z</time></trkpt><trkpt lat="44.8367583" lon="9.568065"><ele>491.2</ele><time>2026-03-26T10:51:31.988Z</time></trkpt><trkpt lat="44.8367117" lon="9.56818"><ele>489.4</ele><time>2026-03-26T10:51:33.986Z</time></trkpt><trkpt lat="44.8366617" lon="9.5683017"><ele>487.59999999999997</ele><time>2026-03-26T10:51:35.988Z</time></trkpt><trkpt lat="44.8366283" lon="9.56843"><ele>485.79999999999995</ele><time>2026-03-26T10:51:37.987Z</time></trkpt><trkpt lat="44.8365633" lon="9.568515"><ele>484.0</ele><time>2026-03-26T10:51:39.985Z</time></trkpt><trkpt lat="44.8364483" lon="9.5685933"><ele>484.00000000000006</ele><time>2026-03-26T10:51:59.988Z</time></trkpt><trkpt lat="44.8364267" lon="9.56868"><ele>484.0</ele><time>2026-03-26T10:52:02.988Z</time></trkpt><trkpt lat="44.8364333" lon="9.5687817"><ele>484.0</ele><time>2026-03-26T10:54:45.987Z</time></trkpt><trkpt lat="44.8364633" lon="9.5688833"><ele>484.0</ele><time>2026-03-26T10:54:47.988Z</time></trkpt><trkpt lat="44.8365167" lon="9.56897"><ele>484.00000000000006</ele><time>2026-03-26T10:54:49.988Z</time></trkpt><trkpt lat="44.83653" lon="9.5690983"><ele>484.0</ele><time>2026-03-26T10:54:51.988Z</time></trkpt><trkpt lat="44.8365167" lon="9.5692033"><ele>482.83333333333337</ele><time>2026-03-26T10:54:53.987Z</time></trkpt><trkpt lat="44.83655" lon="9.5693083"><ele>481.6666666666667</ele><time>2026-03-26T10:54:55.987Z</time></trkpt><trkpt lat="44.836605" lon="9.5694117"><ele>480.5</ele><time>2026-03-26T10:54:57.986Z</time></trkpt><trkpt lat="44.8366467" lon="9.5695267"><ele>479.33333333333337</ele><time>2026-03-26T10:54:59.987Z</time></trkpt><trkpt lat="44.8366717" lon="9.56965"><ele>478.1666666666667</ele><time>2026-03-26T10:55:01.987Z</time></trkpt><trkpt lat="44.8366917" lon="9.56976"><ele>477.0</ele><time>2026-03-26T10:55:31.986Z</time></trkpt><trkpt lat="44.836705" lon="9.56992"><ele>476.8333333333333</ele><time>2026-03-26T10:55:33.986Z</time></trkpt><trkpt lat="44.8367083" lon="9.5700133"><ele>476.66666666666663</ele><time>2026-03-26T10:55:34.987Z</time></trkpt><trkpt lat="44.8367117" lon="9.5701067"><ele>476.5</ele><time>2026-03-26T10:55:35.988Z</time></trkpt><trkpt lat="44.83671" lon="9.5702"><ele>476.3333333333333</ele><time>2026-03-26T10:55:36.986Z</time></trkpt><trkpt lat="44.8366933" lon="9.5703667"><ele>476.16666666666663</ele><time>2026-03-26T10:55:38.987Z</time></trkpt><trkpt lat="44.8366683" lon="9.5705367"><ele>476.0</ele><time>2026-03-26T10:55:40.986Z</time></trkpt><trkpt lat="44.8366117" lon="9.57068"><ele>473.20000000000005</ele><time>2026-03-26T10:55:42.986Z</time></trkpt><trkpt lat="44.8365383" lon="9.5708033"><ele>470.40000000000003</ele><time>2026-03-26T10:55:44.987Z</time></trkpt><trkpt lat="44.836495" lon="9.5709383"><ele>467.6</ele><time>2026-03-26T10:55:46.987Z</time></trkpt><trkpt lat="44.8364617" lon="9.5710917"><ele>464.8</ele><time>2026-03-26T10:55:48.987Z</time></trkpt><trkpt lat="44.8364017" lon="9.5711917"><ele>462.0</ele><time>2026-03-26T10:55:50.987Z</time></trkpt><trkpt lat="44.8363217" lon="9.571235"><ele>461.3333333333333</ele><time>2026-03-26T10:55:52.987Z</time></trkpt><trkpt lat="44.83625" lon="9.571245"><ele>460.66666666666663</ele><time>2026-03-26T10:55:54.986Z</time></trkpt><trkpt lat="44.8361517" lon="9.57122"><ele>460.0</ele><time>2026-03-26T10:55:57.987Z</time></trkpt><trkpt lat="44.8360767" lon="9.5712033"><ele>459.3333333333333</ele><time>2026-03-26T10:55:59.986Z</time></trkpt><trkpt lat="44.8360017" lon="9.5712667"><ele>458.66666666666663</ele><time>2026-03-26T10:56:01.985Z</time></trkpt><trkpt lat="44.8359667" lon="9.5713733"><ele>458.0</ele><time>2026-03-26T10:56:03.986Z</time></trkpt><trkpt lat="44.835965" lon="9.5714817"><ele>457.99999999999994</ele><time>2026-03-26T10:56:05.987Z</time></trkpt><trkpt lat="44.8359517" lon="9.5716033"><ele>458.0</ele><time>2026-03-26T10:56:16.986Z</time></trkpt><trkpt lat="44.835985" lon="9.5716983"><ele>458.0</ele><time>2026-03-26T10:56:18.987Z</time></trkpt><trkpt lat="44.8359867" lon="9.5718283"><ele>458.0</ele><time>2026-03-26T10:56:20.987Z</time></trkpt><trkpt lat="44.83595" lon="9.5719917"><ele>457.99999999999994</ele><time>2026-03-26T10:56:22.987Z</time></trkpt><trkpt lat="44.8359183" lon="9.57208"><ele>458.0</ele><time>2026-03-26T10:56:23.987Z</time></trkpt><trkpt lat="44.8358783" lon="9.572165"><ele>455.57142857142856</ele><time>2026-03-26T10:56:24.986Z</time></trkpt><trkpt lat="44.8358317" lon="9.5722433"><ele>453.14285714285717</ele><time>2026-03-26T10:56:25.985Z</time></trkpt><trkpt lat="44.83579" lon="9.5723167"><ele>450.7142857142857</ele><time>2026-03-26T10:56:26.987Z</time></trkpt><trkpt lat="44.8357517" lon="9.5723883"><ele>448.2857142857143</ele><time>2026-03-26T10:56:27.986Z</time></trkpt><trkpt lat="44.835715" lon="9.57247"><ele>445.8571428571429</ele><time>2026-03-26T10:56:28.987Z</time></trkpt><trkpt lat="44.83568" lon="9.57256"><ele>443.42857142857144</ele><time>2026-03-26T10:56:29.986Z</time></trkpt><trkpt lat="44.8356533" lon="9.572655"><ele>441.0</ele><time>2026-03-26T10:56:30.986Z</time></trkpt><trkpt lat="44.8356317" lon="9.5727483"><ele>441.0</ele><time>2026-03-26T10:56:31.987Z</time></trkpt><trkpt lat="44.83561" lon="9.5728483"><ele>441.0</ele><time>2026-03-26T10:56:32.987Z</time></trkpt><trkpt lat="44.8355967" lon="9.5729483"><ele>441.0</ele><time>2026-03-26T10:56:33.988Z</time></trkpt><trkpt lat="44.8355933" lon="9.5730533"><ele>441.0</ele><time>2026-03-26T10:56:34.987Z</time></trkpt><trkpt lat="44.8355917" lon="9.5731717"><ele>441.0</ele><time>2026-03-26T10:56:35.986Z</time></trkpt><trkpt lat="44.8355867" lon="9.573295"><ele>441.0</ele><time>2026-03-26T10:56:36.986Z</time></trkpt><trkpt lat="44.8355817" lon="9.5734117"><ele>439.20000000000005</ele><time>2026-03-26T10:56:37.988Z</time></trkpt><trkpt lat="44.8355683" lon="9.5735167"><ele>437.40000000000003</ele><time>2026-03-26T10:56:38.987Z</time></trkpt><trkpt lat="44.83555" lon="9.5736133"><ele>435.6</ele><time>2026-03-26T10:56:39.986Z</time></trkpt><trkpt lat="44.8355133" lon="9.573775"><ele>433.8</ele><time>2026-03-26T10:56:41.986Z</time></trkpt><trkpt lat="44.8354733" lon="9.57392"><ele>432.0</ele><time>2026-03-26T10:56:43.987Z</time></trkpt><trkpt lat="44.8354433" lon="9.5740767"><ele>431.8333333333333</ele><time>2026-03-26T10:56:45.987Z</time></trkpt><trkpt lat="44.8354183" lon="9.5742117"><ele>431.66666666666663</ele><time>2026-03-26T10:56:47.987Z</time></trkpt><trkpt lat="44.8353617" lon="9.57429"><ele>431.5</ele><time>2026-03-26T10:56:50.988Z</time></trkpt><trkpt lat="44.8352783" lon="9.5742683"><ele>431.3333333333333</ele><time>2026-03-26T10:56:52.987Z</time></trkpt><trkpt lat="44.8351717" lon="9.5742333"><ele>431.16666666666663</ele><time>2026-03-26T10:56:54.985Z</time></trkpt><trkpt lat="44.835105" lon="9.5742233"><ele>431.0</ele><time>2026-03-26T10:56:55.987Z</time></trkpt><trkpt lat="44.8350367" lon="9.5742183"><ele>431.0</ele><time>2026-03-26T10:56:56.987Z</time></trkpt><trkpt lat="44.83496" lon="9.5742167"><ele>431.0</ele><time>2026-03-26T10:56:57.986Z</time></trkpt><trkpt lat="44.8348867" lon="9.5742167"><ele>431.0</ele><time>2026-03-26T10:56:58.987Z</time></trkpt><trkpt lat="44.8348167" lon="9.5742217"><ele>431.0</ele><time>2026-03-26T10:56:59.987Z</time></trkpt><trkpt lat="44.8346967" lon="9.5742183"><ele>431.0</ele><time>2026-03-26T10:57:01.987Z</time></trkpt><trkpt lat="44.8345717" lon="9.574175"><ele>431.0</ele><time>2026-03-26T10:57:03.986Z</time></trkpt><trkpt lat="44.8344717" lon="9.574115"><ele>431.0</ele><time>2026-03-26T10:57:05.986Z</time></trkpt><trkpt lat="44.8344167" lon="9.5740267"><ele>431.0</ele><time>2026-03-26T10:57:07.986Z</time></trkpt><trkpt lat="44.8343683" lon="9.573895"><ele>431.0</ele><time>2026-03-26T10:57:09.987Z</time></trkpt><trkpt lat="44.8343017" lon="9.5737467"><ele>431.0</ele><time>2026-03-26T10:57:11.987Z</time></trkpt><trkpt lat="44.8342567" lon="9.5736783"><ele>431.5714285714286</ele><time>2026-03-26T10:57:12.986Z</time></trkpt><trkpt lat="44.8342117" lon="9.57361"><ele>432.1428571428571</ele><time>2026-03-26T10:57:13.987Z</time></trkpt><trkpt lat="44.8341617" lon="9.5735467"><ele>432.7142857142857</ele><time>2026-03-26T10:57:14.988Z</time></trkpt><trkpt lat="44.8341033" lon="9.57349"><ele>433.28571428571433</ele><time>2026-03-26T10:57:15.986Z</time></trkpt><trkpt lat="44.83404" lon="9.57343"><ele>433.8571428571429</ele><time>2026-03-26T10:57:16.986Z</time></trkpt><trkpt lat="44.8339733" lon="9.5733733"><ele>434.42857142857144</ele><time>2026-03-26T10:57:17.986Z</time></trkpt><trkpt lat="44.8339083" lon="9.5733133"><ele>435.0</ele><time>2026-03-26T10:57:18.987Z</time></trkpt><trkpt lat="44.8338483" lon="9.5732517"><ele>435.0</ele><time>2026-03-26T10:57:19.988Z</time></trkpt><trkpt lat="44.8337933" lon="9.573195"><ele>435.0</ele><time>2026-03-26T10:57:20.986Z</time></trkpt><trkpt lat="44.8337333" lon="9.5731383"><ele>435.0</ele><time>2026-03-26T10:57:21.987Z</time></trkpt><trkpt lat="44.83367" lon="9.5730733"><ele>435.0</ele><time>2026-03-26T10:57:22.987Z</time></trkpt><trkpt lat="44.8335983" lon="9.573005"><ele>435.0</ele><time>2026-03-26T10:57:23.986Z</time></trkpt><trkpt lat="44.833525" lon="9.5729383"><ele>435.0</ele><time>2026-03-26T10:57:24.985Z</time></trkpt><trkpt lat="44.8334483" lon="9.5728717"><ele>438.3333333333333</ele><time>2026-03-26T10:57:25.987Z</time></trkpt><trkpt lat="44.833365" lon="9.572795"><ele>441.66666666666663</ele><time>2026-03-26T10:57:26.987Z</time></trkpt><trkpt lat="44.833285" lon="9.5727267"><ele>445.0</ele><time>2026-03-26T10:57:27.988Z</time></trkpt><trkpt lat="44.833205" lon="9.5726683"><ele>448.3333333333333</ele><time>2026-03-26T10:57:28.986Z</time></trkpt><trkpt lat="44.8331317" lon="9.5726117"><ele>451.66666666666663</ele><time>2026-03-26T10:57:29.987Z</time></trkpt><trkpt lat="44.83306" lon="9.5725533"><ele>455.0</ele><time>2026-03-26T10:57:30.99Z</time></trkpt><trkpt lat="44.8329983" lon="9.5724917"><ele>454.99999999999994</ele><time>2026-03-26T10:57:31.985Z</time></trkpt><trkpt lat="44.8329383" lon="9.5724133"><ele>455.0</ele><time>2026-03-26T10:57:33.986Z</time></trkpt><trkpt lat="44.8329017" lon="9.5723383"><ele>455.0</ele><time>2026-03-26T11:01:38.987Z</time></trkpt><trkpt lat="44.8328883" lon="9.5722167"><ele>455.0</ele><time>2026-03-26T11:01:40.987Z</time></trkpt><trkpt lat="44.832865" lon="9.57204"><ele>454.99999999999994</ele><time>2026-03-26T11:01:42.986Z</time></trkpt><trkpt lat="44.8328783" lon="9.5719417"><ele>455.0</ele><time>2026-03-26T11:01:43.986Z</time></trkpt><trkpt lat="44.8329017" lon="9.5718317"><ele>457.3333333333333</ele><time>2026-03-26T11:01:44.987Z</time></trkpt><trkpt lat="44.8329317" lon="9.5717"><ele>459.66666666666663</ele><time>2026-03-26T11:01:45.986Z</time></trkpt><trkpt lat="44.8329583" lon="9.5715683"><ele>462.0</ele><time>2026-03-26T11:01:46.985Z</time></trkpt><trkpt lat="44.83298" lon="9.571455"><ele>464.33333333333337</ele><time>2026-03-26T11:01:47.987Z</time></trkpt><trkpt lat="44.833" lon="9.5713467"><ele>466.6666666666667</ele><time>2026-03-26T11:01:48.987Z</time></trkpt><trkpt lat="44.8330267" lon="9.5712617"><ele>469.0</ele><time>2026-03-26T11:01:49.986Z</time></trkpt><trkpt lat="44.83305" lon="9.5711433"><ele>471.50000000000006</ele><time>2026-03-26T11:01:51.985Z</time></trkpt><trkpt lat="44.8330567" lon="9.5710183"><ele>474.0</ele><time>2026-03-26T11:01:53.985Z</time></trkpt><trkpt lat="44.833075" lon="9.5708617"><ele>476.5</ele><time>2026-03-26T11:01:55.987Z</time></trkpt><trkpt lat="44.8330917" lon="9.5707433"><ele>479.0</ele><time>2026-03-26T11:01:57.986Z</time></trkpt><trkpt lat="44.8331033" lon="9.570635"><ele>481.50000000000006</ele><time>2026-03-26T11:02:52.986Z</time></trkpt><trkpt lat="44.833095" lon="9.5705433"><ele>484.0</ele><time>2026-03-26T11:02:54.986Z</time></trkpt><trkpt lat="44.8331667" lon="9.5705433"><ele>484.0</ele><time>2026-03-26T11:03:53.986Z</time></trkpt><trkpt lat="44.833235" lon="9.57051"><ele>484.0</ele><time>2026-03-26T11:03:55.986Z</time></trkpt><trkpt lat="44.8333133" lon="9.5704617"><ele>484.0</ele><time>2026-03-26T11:03:57.986Z</time></trkpt><trkpt lat="44.8334217" lon="9.57039"><ele>484.0</ele><time>2026-03-26T11:03:59.987Z</time></trkpt><trkpt lat="44.8335" lon="9.5703333"><ele>484.0</ele><time>2026-03-26T11:04:01.987Z</time></trkpt><trkpt lat="44.83354" lon="9.57022"><ele>488.33333333333337</ele><time>2026-03-26T11:04:04.986Z</time></trkpt><trkpt lat="44.8335833" lon="9.5701167"><ele>492.6666666666667</ele><time>2026-03-26T11:04:06.986Z</time></trkpt><trkpt lat="44.833645" lon="9.57004"><ele>497.0</ele><time>2026-03-26T11:04:08.987Z</time></trkpt><trkpt lat="44.8337283" lon="9.5700033"><ele>501.33333333333337</ele><time>2026-03-26T11:04:10.986Z</time></trkpt><trkpt lat="44.8338067" lon="9.5699717"><ele>505.6666666666667</ele><time>2026-03-26T11:04:12.985Z</time></trkpt><trkpt lat="44.8338933" lon="9.56993"><ele>510.0</ele><time>2026-03-26T11:04:14.987Z</time></trkpt><trkpt lat="44.8339883" lon="9.5698767"><ele>510.0</ele><time>2026-03-26T11:04:16.986Z</time></trkpt><trkpt lat="44.8340733" lon="9.5698433"><ele>510.0</ele><time>2026-03-26T11:04:18.986Z</time></trkpt><trkpt lat="44.834175" lon="9.5698467"><ele>510.0</ele><time>2026-03-26T11:04:20.987Z</time></trkpt><trkpt lat="44.8342717" lon="9.56988"><ele>510.0</ele><time>2026-03-26T11:04:22.987Z</time></trkpt><trkpt lat="44.8343683" lon="9.5699167"><ele>510.0</ele><time>2026-03-26T11:04:24.986Z</time></trkpt><trkpt lat="44.83445" lon="9.56995"><ele>510.1666666666667</ele><time>2026-03-26T11:04:26.986Z</time></trkpt><trkpt lat="44.8345217" lon="9.5699167"><ele>510.33333333333337</ele><time>2026-03-26T11:04:28.987Z</time></trkpt><trkpt lat="44.83458" lon="9.5698183"><ele>510.5</ele><time>2026-03-26T11:04:31.987Z</time></trkpt><trkpt lat="44.83461" lon="9.569735"><ele>510.6666666666667</ele><time>2026-03-26T11:04:33.988Z</time></trkpt><trkpt lat="44.8346517" lon="9.569605"><ele>510.83333333333337</ele><time>2026-03-26T11:04:36.986Z</time></trkpt><trkpt lat="44.8346867" lon="9.5694933"><ele>511.0</ele><time>2026-03-26T11:04:38.988Z</time></trkpt><trkpt lat="44.83474" lon="9.56937"><ele>514.1666666666667</ele><time>2026-03-26T11:04:40.987Z</time></trkpt><trkpt lat="44.834765" lon="9.569265"><ele>517.3333333333334</ele><time>2026-03-26T11:04:42.987Z</time></trkpt><trkpt lat="44.8348" lon="9.5691433"><ele>520.5</ele><time>2026-03-26T11:04:44.987Z</time></trkpt><trkpt lat="44.8348267" lon="9.5690567"><ele>523.6666666666666</ele><time>2026-03-26T11:04:46.986Z</time></trkpt><trkpt lat="44.83483" lon="9.5689583"><ele>526.8333333333333</ele><time>2026-03-26T11:04:48.986Z</time></trkpt><trkpt lat="44.83484" lon="9.5688517"><ele>530.0</ele><time>2026-03-26T11:04:50.988Z</time></trkpt><trkpt lat="44.8348233" lon="9.5687617"><ele>531.5</ele><time>2026-03-26T11:04:52.987Z</time></trkpt><trkpt lat="44.8347717" lon="9.5686567"><ele>533.0</ele><time>2026-03-26T11:04:55.987Z</time></trkpt><trkpt lat="44.8347383" lon="9.5685433"><ele>534.5</ele><time>2026-03-26T11:04:57.987Z</time></trkpt><trkpt lat="44.8347067" lon="9.5684583"><ele>536.0</ele><time>2026-03-26T11:04:59.987Z</time></trkpt><trkpt lat="44.834705" lon="9.5683533"><ele>537.5</ele><time>2026-03-26T11:05:02.986Z</time></trkpt><trkpt lat="44.8346617" lon="9.5682733"><ele>539.0</ele><time>2026-03-26T11:05:05.986Z</time></trkpt><trkpt lat="44.8346283" lon="9.5681717"><ele>539.0</ele><time>2026-03-26T11:05:08.987Z</time></trkpt><trkpt lat="44.8345517" lon="9.56801"><ele>539.0</ele><time>2026-03-26T11:06:03.986Z</time></trkpt><trkpt lat="44.8345" lon="9.5679083"><ele>539.0</ele><time>2026-03-26T11:06:06.986Z</time></trkpt><trkpt lat="44.83445" lon="9.567845"><ele>539.0</ele><time>2026-03-26T11:06:08.988Z</time></trkpt><trkpt lat="44.8343883" lon="9.567765"><ele>539.0</ele><time>2026-03-26T11:06:11.987Z</time></trkpt><trkpt lat="44.834375" lon="9.5676333"><ele>539.0</ele><time>2026-03-26T11:06:13.987Z</time></trkpt><trkpt lat="44.83437" lon="9.567535"><ele>539.0</ele><time>2026-03-26T11:06:14.987Z</time></trkpt><trkpt lat="44.83437" lon="9.5674283"><ele>539.0</ele><time>2026-03-26T11:06:15.985Z</time></trkpt><trkpt lat="44.8343733" lon="9.5673033"><ele>539.0</ele><time>2026-03-26T11:06:16.986Z</time></trkpt><trkpt lat="44.8343783" lon="9.5671783"><ele>539.0</ele><time>2026-03-26T11:06:17.987Z</time></trkpt><trkpt lat="44.8343767" lon="9.5670583"><ele>539.0</ele><time>2026-03-26T11:06:18.988Z</time></trkpt><trkpt lat="44.8343783" lon="9.5669617"><ele>539.6</ele><time>2026-03-26T11:06:19.988Z</time></trkpt><trkpt lat="44.834385" lon="9.5668"><ele>540.2</ele><time>2026-03-26T11:06:21.987Z</time></trkpt><trkpt lat="44.8343933" lon="9.56671"><ele>540.8000000000001</ele><time>2026-03-26T11:06:23.988Z</time></trkpt><trkpt lat="44.834375" lon="9.5665867"><ele>541.4</ele><time>2026-03-26T11:06:44.987Z</time></trkpt><trkpt lat="44.8343367" lon="9.56648"><ele>542.0</ele><time>2026-03-26T11:06:46.987Z</time></trkpt><trkpt lat="44.83429" lon="9.5663533"><ele>543.2</ele><time>2026-03-26T11:06:48.986Z</time></trkpt><trkpt lat="44.8343017" lon="9.5662083"><ele>544.4000000000001</ele><time>2026-03-26T11:06:50.987Z</time></trkpt><trkpt lat="44.8343517" lon="9.56606"><ele>545.5999999999999</ele><time>2026-03-26T11:06:52.987Z</time></trkpt><trkpt lat="44.834425" lon="9.5659167"><ele>546.8</ele><time>2026-03-26T11:06:54.985Z</time></trkpt><trkpt lat="44.8344667" lon="9.5658383"><ele>548.0</ele><time>2026-03-26T11:06:55.986Z</time></trkpt><trkpt lat="44.8345083" lon="9.5657633"><ele>548.0</ele><time>2026-03-26T11:06:56.987Z</time></trkpt><trkpt lat="44.83455" lon="9.56569"><ele>548.0</ele><time>2026-03-26T11:06:57.986Z</time></trkpt><trkpt lat="44.8346" lon="9.5656183"><ele>548.0</ele><time>2026-03-26T11:06:58.986Z</time></trkpt><trkpt lat="44.8346883" lon="9.5654817"><ele>548.0</ele><time>2026-03-26T11:07:00.986Z</time></trkpt><trkpt lat="44.834765" lon="9.5653733"><ele>548.0</ele><time>2026-03-26T11:07:02.989Z</time></trkpt><trkpt lat="44.8348517" lon="9.5652933"><ele>547.6</ele><time>2026-03-26T11:07:04.987Z</time></trkpt><trkpt lat="44.8349633" lon="9.5652233"><ele>547.1999999999999</ele><time>2026-03-26T11:07:06.986Z</time></trkpt><trkpt lat="44.83508" lon="9.5651617"><ele>546.8</ele><time>2026-03-26T11:07:09.057Z</time></trkpt><trkpt lat="44.835185" lon="9.5651133"><ele>546.4</ele><time>2026-03-26T11:07:10.987Z</time></trkpt><trkpt lat="44.8352483" lon="9.5650867"><ele>546.0</ele><time>2026-03-26T11:07:11.986Z</time></trkpt><trkpt lat="44.83535" lon="9.56503"><ele>546.0</ele><time>2026-03-26T11:07:13.986Z</time></trkpt><trkpt lat="44.8354167" lon="9.5649617"><ele>546.0</ele><time>2026-03-26T11:07:15.986Z</time></trkpt><trkpt lat="44.8353733" lon="9.5648917"><ele>546.0</ele><time>2026-03-26T11:07:18.987Z</time></trkpt><trkpt lat="44.8352733" lon="9.5648617"><ele>546.0</ele><time>2026-03-26T11:07:20.988Z</time></trkpt><trkpt lat="44.8351817" lon="9.5648717"><ele>546.0</ele><time>2026-03-26T11:07:22.987Z</time></trkpt><trkpt lat="44.8350833" lon="9.5648683"><ele>546.0</ele><time>2026-03-26T11:07:24.986Z</time></trkpt><trkpt lat="44.83498" lon="9.5648017"><ele>548.2</ele><time>2026-03-26T11:07:26.987Z</time></trkpt><trkpt lat="44.8349317" lon="9.5647367"><ele>550.4000000000001</ele><time>2026-03-26T11:07:27.987Z</time></trkpt><trkpt lat="44.8348917" lon="9.5646667"><ele>552.6</ele><time>2026-03-26T11:07:28.989Z</time></trkpt><trkpt lat="44.83481" lon="9.5645333"><ele>554.8000000000001</ele><time>2026-03-26T11:07:30.987Z</time></trkpt><trkpt lat="44.834725" lon="9.5643817"><ele>557.0</ele><time>2026-03-26T11:07:32.987Z</time></trkpt><trkpt lat="44.8346783" lon="9.564305"><ele>557.8000000000001</ele><time>2026-03-26T11:07:33.987Z</time></trkpt><trkpt lat="44.834625" lon="9.5642317"><ele>558.6</ele><time>2026-03-26T11:07:34.987Z</time></trkpt><trkpt lat="44.8345667" lon="9.5641783"><ele>559.4000000000001</ele><time>2026-03-26T11:07:35.987Z</time></trkpt><trkpt lat="44.8344667" lon="9.56407"><ele>560.2</ele><time>2026-03-26T11:07:37.987Z</time></trkpt><trkpt lat="44.834365" lon="9.5640233"><ele>561.0</ele><time>2026-03-26T11:07:39.987Z</time></trkpt><trkpt lat="44.834255" lon="9.56402"><ele>566.2</ele><time>2026-03-26T11:07:41.987Z</time></trkpt><trkpt lat="44.8341483" lon="9.56399"><ele>571.4000000000001</ele><time>2026-03-26T11:07:43.988Z</time></trkpt><trkpt lat="44.8340433" lon="9.563965"><ele>576.6</ele><time>2026-03-26T11:07:45.987Z</time></trkpt><trkpt lat="44.8339383" lon="9.5639317"><ele>581.8000000000001</ele><time>2026-03-26T11:07:47.987Z</time></trkpt><trkpt lat="44.8338517" lon="9.563855"><ele>587.0</ele><time>2026-03-26T11:07:49.987Z</time></trkpt><trkpt lat="44.8337767" lon="9.5637883"><ele>587.0</ele><time>2026-03-26T11:07:51.987Z</time></trkpt><trkpt lat="44.8337083" lon="9.5637217"><ele>587.0</ele><time>2026-03-26T11:07:53.986Z</time></trkpt><trkpt lat="44.8336133" lon="9.5636283"><ele>587.0</ele><time>2026-03-26T11:07:55.986Z</time></trkpt><trkpt lat="44.8335217" lon="9.5636267"><ele>587.0</ele><time>2026-03-26T11:07:57.987Z</time></trkpt><trkpt lat="44.83345" lon="9.56367"><ele>587.0</ele><time>2026-03-26T11:07:59.987Z</time></trkpt><trkpt lat="44.8333967" lon="9.5637533"><ele>587.0</ele><time>2026-03-26T11:08:01.987Z</time></trkpt><trkpt lat="44.8333567" lon="9.56387"><ele>590.0</ele><time>2026-03-26T11:08:03.986Z</time></trkpt><trkpt lat="44.8333267" lon="9.564045"><ele>593.0</ele><time>2026-03-26T11:08:05.987Z</time></trkpt><trkpt lat="44.8333233" lon="9.56421"><ele>596.0</ele><time>2026-03-26T11:08:07.986Z</time></trkpt><trkpt lat="44.8333417" lon="9.5643633"><ele>599.0</ele><time>2026-03-26T11:08:09.986Z</time></trkpt><trkpt lat="44.8333417" lon="9.5644783"><ele>602.0</ele><time>2026-03-26T11:08:11.988Z</time></trkpt><trkpt lat="44.8332917" lon="9.5645717"><ele>603.2</ele><time>2026-03-26T11:08:13.987Z</time></trkpt><trkpt lat="44.83322" lon="9.5646167"><ele>604.4000000000001</ele><time>2026-03-26T11:08:15.987Z</time></trkpt><trkpt lat="44.8331283" lon="9.5646233"><ele>605.5999999999999</ele><time>2026-03-26T11:08:17.988Z</time></trkpt><trkpt lat="44.83301" lon="9.56462"><ele>606.8</ele><time>2026-03-26T11:08:19.987Z</time></trkpt><trkpt lat="44.8329017" lon="9.56463"><ele>608.0</ele><time>2026-03-26T11:08:21.988Z</time></trkpt><trkpt lat="44.832815" lon="9.56475"><ele>608.0</ele><time>2026-03-26T11:08:23.987Z</time></trkpt><trkpt lat="44.832775" lon="9.564825"><ele>608.0</ele><time>2026-03-26T11:08:24.987Z</time></trkpt><trkpt lat="44.83274" lon="9.564915"><ele>608.0</ele><time>2026-03-26T11:08:25.986Z</time></trkpt><trkpt lat="44.8327033" lon="9.5650033"><ele>608.0</ele><time>2026-03-26T11:08:26.987Z</time></trkpt><trkpt lat="44.8326667" lon="9.56509"><ele>608.0</ele><time>2026-03-26T11:08:27.987Z</time></trkpt><trkpt lat="44.83263" lon="9.56517"><ele>608.0</ele><time>2026-03-26T11:08:28.988Z</time></trkpt><trkpt lat="44.83259" lon="9.5652417"><ele>608.0</ele><time>2026-03-26T11:08:29.986Z</time></trkpt><trkpt lat="44.83251" lon="9.5653617"><ele>611.0</ele><time>2026-03-26T11:08:31.988Z</time></trkpt><trkpt lat="44.8324517" lon="9.5653967"><ele>614.0</ele><time>2026-03-26T11:08:32.987Z</time></trkpt><trkpt lat="44.8323933" lon="9.5654317"><ele>617.0</ele><time>2026-03-26T11:08:33.986Z</time></trkpt><trkpt lat="44.8323" lon="9.565495"><ele>620.0</ele><time>2026-03-26T11:08:35.987Z</time></trkpt><trkpt lat="44.832235" lon="9.5655367"><ele>623.0</ele><time>2026-03-26T11:08:36.986Z</time></trkpt><trkpt lat="44.8321667" lon="9.5655733"><ele>626.0</ele><time>2026-03-26T11:08:37.985Z</time></trkpt><trkpt lat="44.8320467" lon="9.5656083"><ele>626.0</ele><time>2026-03-26T11:08:39.987Z</time></trkpt><trkpt lat="44.831935" lon="9.5656333"><ele>626.0</ele><time>2026-03-26T11:08:41.987Z</time></trkpt><trkpt lat="44.8318283" lon="9.5656033"><ele>626.0</ele><time>2026-03-26T11:08:43.987Z</time></trkpt><trkpt lat="44.8317167" lon="9.5655067"><ele>626.0</ele><time>2026-03-26T11:08:45.987Z</time></trkpt><trkpt lat="44.8316617" lon="9.5654467"><ele>626.0</ele><time>2026-03-26T11:08:46.987Z</time></trkpt><trkpt lat="44.8316" lon="9.5654067"><ele>629.2</ele><time>2026-03-26T11:08:47.987Z</time></trkpt><trkpt lat="44.8314967" lon="9.56532"><ele>632.4000000000001</ele><time>2026-03-26T11:08:49.988Z</time></trkpt><trkpt lat="44.831395" lon="9.5652333"><ele>635.6</ele><time>2026-03-26T11:08:51.987Z</time></trkpt><trkpt lat="44.831335" lon="9.5651817"><ele>638.8000000000001</ele><time>2026-03-26T11:08:52.987Z</time></trkpt><trkpt lat="44.8312717" lon="9.565125"><ele>642.0</ele><time>2026-03-26T11:08:53.987Z</time></trkpt><trkpt lat="44.8312133" lon="9.56506"><ele>642.0</ele><time>2026-03-26T11:08:54.985Z</time></trkpt><trkpt lat="44.8311317" lon="9.5649583"><ele>642.0</ele><time>2026-03-26T11:08:56.988Z</time></trkpt><trkpt lat="44.8310717" lon="9.5648467"><ele>642.0</ele><time>2026-03-26T11:08:58.987Z</time></trkpt><trkpt lat="44.831035" lon="9.56472"><ele>642.0</ele><time>2026-03-26T11:09:00.986Z</time></trkpt><trkpt lat="44.8310067" lon="9.56463"><ele>642.0</ele><time>2026-03-26T11:09:02.987Z</time></trkpt><trkpt lat="44.8309567" lon="9.5645317"><ele>642.0</ele><time>2026-03-26T11:09:04.986Z</time></trkpt><trkpt lat="44.83087" lon="9.5644683"><ele>642.0</ele><time>2026-03-26T11:09:06.987Z</time></trkpt><trkpt lat="44.83078" lon="9.5644"><ele>642.0</ele><time>2026-03-26T11:09:08.988Z</time></trkpt><trkpt lat="44.8306767" lon="9.564315"><ele>642.0</ele><time>2026-03-26T11:09:10.987Z</time></trkpt><trkpt lat="44.830585" lon="9.5642267"><ele>642.0</ele><time>2026-03-26T11:09:12.987Z</time></trkpt><trkpt lat="44.8305167" lon="9.5641117"><ele>642.0</ele><time>2026-03-26T11:09:14.987Z</time></trkpt><trkpt lat="44.83045" lon="9.5639883"><ele>642.0</ele><time>2026-03-26T11:09:16.987Z</time></trkpt><trkpt lat="44.8303967" lon="9.5638733"><ele>642.0</ele><time>2026-03-26T11:09:18.987Z</time></trkpt><trkpt lat="44.8303517" lon="9.563725"><ele>642.0</ele><time>2026-03-26T11:09:26.987Z</time></trkpt><trkpt lat="44.8302967" lon="9.5636383"><ele>642.0</ele><time>2026-03-26T11:09:28.987Z</time></trkpt><trkpt lat="44.83025" lon="9.5635633"><ele>641.0</ele><time>2026-03-26T11:09:31.988Z</time></trkpt><trkpt lat="44.8301817" lon="9.5635167"><ele>640.0</ele><time>2026-03-26T11:09:34.985Z</time></trkpt><trkpt lat="44.8301167" lon="9.5634533"><ele>639.0</ele><time>2026-03-26T11:09:37.986Z</time></trkpt><trkpt lat="44.8300533" lon="9.5634"><ele>638.0</ele><time>2026-03-26T11:09:41.987Z</time></trkpt><trkpt lat="44.83" lon="9.5633333"><ele>637.0</ele><time>2026-03-26T11:09:45.986Z</time></trkpt><trkpt lat="44.8299433" lon="9.5632233"><ele>636.0</ele><time>2026-03-26T11:09:48.986Z</time></trkpt><trkpt lat="44.8298833" lon="9.5631317"><ele>636.0</ele><time>2026-03-26T11:09:50.987Z</time></trkpt><trkpt lat="44.8298417" lon="9.563065"><ele>636.0</ele><time>2026-03-26T11:09:52.988Z</time></trkpt><trkpt lat="44.8297917" lon="9.5629567"><ele>636.0</ele><time>2026-03-26T11:10:43.987Z</time></trkpt><trkpt lat="44.8297817" lon="9.5628333"><ele>636.0</ele><time>2026-03-26T11:10:46.987Z</time></trkpt><trkpt lat="44.8297933" lon="9.5627083"><ele>636.0</ele><time>2026-03-26T11:10:49.987Z</time></trkpt><trkpt lat="44.8298117" lon="9.5626183"><ele>636.0</ele><time>2026-03-26T11:10:51.985Z</time></trkpt><trkpt lat="44.8298383" lon="9.5625217"><ele>636.6</ele><time>2026-03-26T11:10:53.985Z</time></trkpt><trkpt lat="44.829855" lon="9.5624117"><ele>637.2</ele><time>2026-03-26T11:10:55.986Z</time></trkpt><trkpt lat="44.8298383" lon="9.562315"><ele>637.8</ele><time>2026-03-26T11:10:57.987Z</time></trkpt><trkpt lat="44.8298033" lon="9.5621917"><ele>638.4</ele><time>2026-03-26T11:10:59.985Z</time></trkpt><trkpt lat="44.8297667" lon="9.56203"><ele>639.0</ele><time>2026-03-26T11:11:01.986Z</time></trkpt><trkpt lat="44.8297283" lon="9.5618917"><ele>637.6</ele><time>2026-03-26T11:11:03.985Z</time></trkpt><trkpt lat="44.8297033" lon="9.5617483"><ele>636.2</ele><time>2026-03-26T11:11:05.986Z</time></trkpt><trkpt lat="44.8297067" lon="9.5616017"><ele>634.8000000000001</ele><time>2026-03-26T11:11:07.986Z</time></trkpt><trkpt lat="44.8297283" lon="9.5614317"><ele>633.4</ele><time>2026-03-26T11:11:09.984Z</time></trkpt><trkpt lat="44.829745" lon="9.561345"><ele>632.0</ele><time>2026-03-26T11:11:10.986Z</time></trkpt><trkpt lat="44.8297633" lon="9.56126"><ele>632.3333333333333</ele><time>2026-03-26T11:11:11.986Z</time></trkpt><trkpt lat="44.8297883" lon="9.5611733"><ele>632.6666666666666</ele><time>2026-03-26T11:11:12.986Z</time></trkpt><trkpt lat="44.8298" lon="9.5610833"><ele>633.0</ele><time>2026-03-26T11:11:13.986Z</time></trkpt><trkpt lat="44.8297933" lon="9.5609183"><ele>633.3333333333334</ele><time>2026-03-26T11:11:15.987Z</time></trkpt><trkpt lat="44.8297867" lon="9.5608283"><ele>633.6666666666667</ele><time>2026-03-26T11:11:16.987Z</time></trkpt><trkpt lat="44.8297767" lon="9.5606783"><ele>634.0</ele><time>2026-03-26T11:11:18.987Z</time></trkpt><trkpt lat="44.82975" lon="9.5605633"><ele>634.0</ele><time>2026-03-26T11:11:20.987Z</time></trkpt><trkpt lat="44.8297217" lon="9.560415"><ele>634.0</ele><time>2026-03-26T11:11:22.987Z</time></trkpt><trkpt lat="44.8297033" lon="9.5603283"><ele>634.0</ele><time>2026-03-26T11:11:23.987Z</time></trkpt><trkpt lat="44.82968" lon="9.56019"><ele>634.0</ele><time>2026-03-26T11:11:25.987Z</time></trkpt><trkpt lat="44.8296517" lon="9.5599767"><ele>634.0</ele><time>2026-03-26T11:11:55.986Z</time></trkpt><trkpt lat="44.82964" lon="9.559865"><ele>634.1666666666667</ele><time>2026-03-26T11:11:57.987Z</time></trkpt><trkpt lat="44.8296" lon="9.5597433"><ele>634.3333333333334</ele><time>2026-03-26T11:11:59.987Z</time></trkpt><trkpt lat="44.8295833" lon="9.5596417"><ele>634.5</ele><time>2026-03-26T11:12:01.987Z</time></trkpt><trkpt lat="44.8295283" lon="9.5595517"><ele>634.6666666666666</ele><time>2026-03-26T11:12:12.987Z</time></trkpt><trkpt lat="44.8294883" lon="9.5594583"><ele>634.8333333333333</ele><time>2026-03-26T11:12:14.986Z</time></trkpt><trkpt lat="44.8294417" lon="9.5593383"><ele>635.0</ele><time>2026-03-26T11:12:16.987Z</time></trkpt><trkpt lat="44.8293917" lon="9.5592817"><ele>639.0</ele><time>2026-03-26T11:12:17.987Z</time></trkpt><trkpt lat="44.8292967" lon="9.5591733"><ele>643.0</ele><time>2026-03-26T11:12:19.988Z</time></trkpt><trkpt lat="44.8292383" lon="9.55911"><ele>647.0</ele><time>2026-03-26T11:12:20.988Z</time></trkpt><trkpt lat="44.8291817" lon="9.559045"><ele>651.0</ele><time>2026-03-26T11:12:21.986Z</time></trkpt><trkpt lat="44.8291183" lon="9.558965"><ele>655.0</ele><time>2026-03-26T11:12:22.986Z</time></trkpt><trkpt lat="44.8290533" lon="9.5588683"><ele>659.0</ele><time>2026-03-26T11:12:23.988Z</time></trkpt><trkpt lat="44.8290067" lon="9.5587467"><ele>659.6</ele><time>2026-03-26T11:12:24.987Z</time></trkpt><trkpt lat="44.8289767" lon="9.5586283"><ele>660.2</ele><time>2026-03-26T11:12:25.989Z</time></trkpt><trkpt lat="44.828945" lon="9.5585217"><ele>660.8000000000001</ele><time>2026-03-26T11:12:26.988Z</time></trkpt><trkpt lat="44.8289233" lon="9.5584383"><ele>661.4000000000001</ele><time>2026-03-26T11:12:27.988Z</time></trkpt><trkpt lat="44.8289067" lon="9.5582833"><ele>662.0</ele><time>2026-03-26T11:12:29.988Z</time></trkpt><trkpt lat="44.8288983" lon="9.5581333"><ele>662.0</ele><time>2026-03-26T11:12:31.988Z</time></trkpt><trkpt lat="44.8289" lon="9.5580267"><ele>662.0</ele><time>2026-03-26T11:12:34.079Z</time></trkpt><trkpt lat="44.82891" lon="9.55789"><ele>662.0</ele><time>2026-03-26T11:12:36.987Z</time></trkpt><trkpt lat="44.8289317" lon="9.5577667"><ele>662.0</ele><time>2026-03-26T11:12:39.986Z</time></trkpt><trkpt lat="44.8289367" lon="9.5576583"><ele>662.0</ele><time>2026-03-26T11:12:42.987Z</time></trkpt><trkpt lat="44.8289533" lon="9.5575683"><ele>662.0</ele><time>2026-03-26T11:12:44.988Z</time></trkpt><trkpt lat="44.8289467" lon="9.5574633"><ele>662.5</ele><time>2026-03-26T11:12:51.987Z</time></trkpt><trkpt lat="44.82893" lon="9.5573483"><ele>663.0</ele><time>2026-03-26T11:12:53.988Z</time></trkpt><trkpt lat="44.8289333" lon="9.5572017"><ele>663.5</ele><time>2026-03-26T11:12:55.987Z</time></trkpt><trkpt lat="44.8289333" lon="9.5570433"><ele>664.0</ele><time>2026-03-26T11:12:57.987Z</time></trkpt><trkpt lat="44.828925" lon="9.556955"><ele>664.5</ele><time>2026-03-26T11:12:58.986Z</time></trkpt><trkpt lat="44.828915" lon="9.5568617"><ele>665.0</ele><time>2026-03-26T11:12:59.987Z</time></trkpt><trkpt lat="44.828895" lon="9.5567067"><ele>665.0</ele><time>2026-03-26T11:13:01.987Z</time></trkpt><trkpt lat="44.8288617" lon="9.556605"><ele>665.0</ele><time>2026-03-26T11:13:03.987Z</time></trkpt><trkpt lat="44.828825" lon="9.556525"><ele>665.0</ele><time>2026-03-26T11:13:05.988Z</time></trkpt><trkpt lat="44.828765" lon="9.5564633"><ele>665.0</ele><time>2026-03-26T11:13:07.987Z</time></trkpt><trkpt lat="44.828705" lon="9.5563833"><ele>665.0</ele><time>2026-03-26T11:13:10.988Z</time></trkpt><trkpt lat="44.828665" lon="9.5563083"><ele>665.0</ele><time>2026-03-26T11:13:13.987Z</time></trkpt><trkpt lat="44.828635" lon="9.5562283"><ele>665.0</ele><time>2026-03-26T11:13:16.987Z</time></trkpt><trkpt lat="44.8285883" lon="9.5561583"><ele>664.6666666666666</ele><time>2026-03-26T11:13:19.987Z</time></trkpt><trkpt lat="44.828525" lon="9.556105"><ele>664.3333333333333</ele><time>2026-03-26T11:13:23.986Z</time></trkpt><trkpt lat="44.8284133" lon="9.5560867"><ele>664.0</ele><time>2026-03-26T11:18:22.986Z</time></trkpt><trkpt lat="44.8283467" lon="9.5560767"><ele>663.6666666666666</ele><time>2026-03-26T11:19:10.986Z</time></trkpt><trkpt lat="44.82827" lon="9.5560983"><ele>663.3333333333334</ele><time>2026-03-26T11:19:12.986Z</time></trkpt><trkpt lat="44.8281567" lon="9.556095"><ele>663.0</ele><time>2026-03-26T11:19:14.987Z</time></trkpt><trkpt lat="44.8280933" lon="9.5560867"><ele>664.5</ele><time>2026-03-26T11:19:15.986Z</time></trkpt><trkpt lat="44.8280183" lon="9.55608"><ele>666.0</ele><time>2026-03-26T11:19:16.986Z</time></trkpt><trkpt lat="44.8279233" lon="9.556085"><ele>667.5</ele><time>2026-03-26T11:19:17.986Z</time></trkpt><trkpt lat="44.8278367" lon="9.556095"><ele>669.0</ele><time>2026-03-26T11:19:18.985Z</time></trkpt><trkpt lat="44.82775" lon="9.5560983"><ele>670.5</ele><time>2026-03-26T11:19:19.986Z</time></trkpt><trkpt lat="44.8276617" lon="9.5560817"><ele>672.0</ele><time>2026-03-26T11:19:20.987Z</time></trkpt><trkpt lat="44.8275817" lon="9.556055"><ele>672.0</ele><time>2026-03-26T11:19:21.986Z</time></trkpt><trkpt lat="44.8275033" lon="9.5560267"><ele>672.0</ele><time>2026-03-26T11:19:22.986Z</time></trkpt><trkpt lat="44.827425" lon="9.5560117"><ele>672.0</ele><time>2026-03-26T11:19:23.987Z</time></trkpt><trkpt lat="44.8273417" lon="9.556005"><ele>672.0</ele><time>2026-03-26T11:19:24.985Z</time></trkpt><trkpt lat="44.8272433" lon="9.5560083"><ele>672.0</ele><time>2026-03-26T11:19:25.987Z</time></trkpt><trkpt lat="44.82714" lon="9.5560133"><ele>672.0</ele><time>2026-03-26T11:19:26.986Z</time></trkpt><trkpt lat="44.8270333" lon="9.55603"><ele>672.0</ele><time>2026-03-26T11:19:27.986Z</time></trkpt><trkpt lat="44.826935" lon="9.5560533"><ele>672.0</ele><time>2026-03-26T11:19:28.986Z</time></trkpt><trkpt lat="44.826835" lon="9.5560817"><ele>672.0</ele><time>2026-03-26T11:19:29.986Z</time></trkpt><trkpt lat="44.8267367" lon="9.5561117"><ele>672.0</ele><time>2026-03-26T11:19:30.986Z</time></trkpt><trkpt lat="44.8266517" lon="9.5561417"><ele>672.0</ele><time>2026-03-26T11:19:31.986Z</time></trkpt><trkpt lat="44.8265767" lon="9.5561667"><ele>671.2857142857143</ele><time>2026-03-26T11:19:32.986Z</time></trkpt><trkpt lat="44.8265117" lon="9.5561917"><ele>670.5714285714286</ele><time>2026-03-26T11:19:33.986Z</time></trkpt><trkpt lat="44.8264417" lon="9.5562083"><ele>669.8571428571429</ele><time>2026-03-26T11:19:34.986Z</time></trkpt><trkpt lat="44.826365" lon="9.556225"><ele>669.1428571428571</ele><time>2026-03-26T11:19:35.986Z</time></trkpt><trkpt lat="44.8262867" lon="9.5562417"><ele>668.4285714285714</ele><time>2026-03-26T11:19:36.987Z</time></trkpt><trkpt lat="44.8262183" lon="9.5562683"><ele>667.7142857142858</ele><time>2026-03-26T11:19:37.987Z</time></trkpt><trkpt lat="44.826155" lon="9.5563017"><ele>667.0</ele><time>2026-03-26T11:19:38.988Z</time></trkpt><trkpt lat="44.8260533" lon="9.556355"><ele>666.6666666666667</ele><time>2026-03-26T11:19:40.987Z</time></trkpt><trkpt lat="44.82598" lon="9.5563683"><ele>666.3333333333334</ele><time>2026-03-26T11:19:42.987Z</time></trkpt><trkpt lat="44.8259" lon="9.5563533"><ele>666.0</ele><time>2026-03-26T11:19:44.987Z</time></trkpt><trkpt lat="44.8258367" lon="9.5563133"><ele>665.6666666666666</ele><time>2026-03-26T11:19:46.987Z</time></trkpt><trkpt lat="44.8257733" lon="9.5562533"><ele>665.3333333333333</ele><time>2026-03-26T11:19:48.985Z</time></trkpt><trkpt lat="44.8257" lon="9.5562033"><ele>665.0</ele><time>2026-03-26T11:19:50.987Z</time></trkpt><trkpt lat="44.82563" lon="9.5561783"><ele>665.0</ele><time>2026-03-26T11:19:52.987Z</time></trkpt><trkpt lat="44.8255633" lon="9.5561617"><ele>665.0</ele><time>2026-03-26T11:19:54.99Z</time></trkpt><trkpt lat="44.82548" lon="9.5561267"><ele>665.0</ele><time>2026-03-26T11:19:57.985Z</time></trkpt><trkpt lat="44.825415" lon="9.556105"><ele>665.0</ele><time>2026-03-26T11:19:59.985Z</time></trkpt><trkpt lat="44.8253517" lon="9.5561117"><ele>665.0</ele><time>2026-03-26T11:20:01.986Z</time></trkpt><trkpt lat="44.8252783" lon="9.55607"><ele>665.0</ele><time>2026-03-26T11:20:03.986Z</time></trkpt><trkpt lat="44.8252067" lon="9.5560383"><ele>665.0</ele><time>2026-03-26T11:20:05.987Z</time></trkpt><trkpt lat="44.82512" lon="9.5560067"><ele>666.1666666666666</ele><time>2026-03-26T11:20:07.986Z</time></trkpt><trkpt lat="44.825045" lon="9.5559783"><ele>667.3333333333333</ele><time>2026-03-26T11:20:09.987Z</time></trkpt><trkpt lat="44.82498" lon="9.5559683"><ele>668.5</ele><time>2026-03-26T11:20:11.986Z</time></trkpt><trkpt lat="44.824905" lon="9.555975"><ele>669.6666666666666</ele><time>2026-03-26T11:20:13.987Z</time></trkpt><trkpt lat="44.8248417" lon="9.55597"><ele>670.8333333333334</ele><time>2026-03-26T11:20:15.986Z</time></trkpt><trkpt lat="44.8247583" lon="9.5559617"><ele>672.0</ele><time>2026-03-26T11:20:18.986Z</time></trkpt><trkpt lat="44.8246667" lon="9.5559533"><ele>672.0</ele><time>2026-03-26T11:20:21.987Z</time></trkpt><trkpt lat="44.824585" lon="9.555955"><ele>672.0</ele><time>2026-03-26T11:20:23.986Z</time></trkpt><trkpt lat="44.824515" lon="9.555995"><ele>672.0</ele><time>2026-03-26T11:20:25.987Z</time></trkpt><trkpt lat="44.8244583" lon="9.55609"><ele>672.0</ele><time>2026-03-26T11:20:27.986Z</time></trkpt><trkpt lat="44.8243883" lon="9.5562467"><ele>672.0</ele><time>2026-03-26T11:20:29.986Z</time></trkpt><trkpt lat="44.8243433" lon="9.5563383"><ele>671.6666666666666</ele><time>2026-03-26T11:20:30.985Z</time></trkpt><trkpt lat="44.8243" lon="9.5564367"><ele>671.3333333333334</ele><time>2026-03-26T11:20:31.987Z</time></trkpt><trkpt lat="44.8242617" lon="9.5565417"><ele>671.0</ele><time>2026-03-26T11:20:32.988Z</time></trkpt><trkpt lat="44.8242467" lon="9.55666"><ele>670.6666666666667</ele><time>2026-03-26T11:20:33.986Z</time></trkpt><trkpt lat="44.824245" lon="9.5567767"><ele>670.3333333333334</ele><time>2026-03-26T11:20:34.986Z</time></trkpt><trkpt lat="44.8242333" lon="9.55688"><ele>670.0</ele><time>2026-03-26T11:20:35.987Z</time></trkpt><trkpt lat="44.8242183" lon="9.5569783"><ele>671.3333333333334</ele><time>2026-03-26T11:20:36.986Z</time></trkpt><trkpt lat="44.8242017" lon="9.557075"><ele>672.6666666666667</ele><time>2026-03-26T11:20:37.986Z</time></trkpt><trkpt lat="44.8241833" lon="9.5571667"><ele>674.0</ele><time>2026-03-26T11:20:38.987Z</time></trkpt><trkpt lat="44.8241" lon="9.557295"><ele>675.3333333333334</ele><time>2026-03-26T11:20:40.986Z</time></trkpt><trkpt lat="44.824035" lon="9.55733"><ele>676.6666666666666</ele><time>2026-03-26T11:20:41.986Z</time></trkpt><trkpt lat="44.82397" lon="9.5573617"><ele>678.0</ele><time>2026-03-26T11:20:42.985Z</time></trkpt><trkpt lat="44.8238883" lon="9.5574033"><ele>678.0</ele><time>2026-03-26T11:20:44.987Z</time></trkpt><trkpt lat="44.8238217" lon="9.5574367"><ele>678.0</ele><time>2026-03-26T11:20:46.987Z</time></trkpt><trkpt lat="44.82375" lon="9.5574917"><ele>678.0</ele><time>2026-03-26T11:20:48.986Z</time></trkpt><trkpt lat="44.8236583" lon="9.5575333"><ele>678.0</ele><time>2026-03-26T11:20:50.987Z</time></trkpt><trkpt lat="44.8235683" lon="9.5575433"><ele>678.0</ele><time>2026-03-26T11:20:53.987Z</time></trkpt><trkpt lat="44.8234933" lon="9.5575167"><ele>678.0</ele><time>2026-03-26T11:20:55.987Z</time></trkpt><trkpt lat="44.82342" lon="9.5574683"><ele>677.1666666666666</ele><time>2026-03-26T11:20:58.987Z</time></trkpt><trkpt lat="44.8233517" lon="9.5573767"><ele>676.3333333333334</ele><time>2026-03-26T11:21:06.986Z</time></trkpt><trkpt lat="44.8233283" lon="9.5572767"><ele>675.5</ele><time>2026-03-26T11:21:08.986Z</time></trkpt><trkpt lat="44.82331" lon="9.5571733"><ele>674.6666666666667</ele><time>2026-03-26T11:21:10.986Z</time></trkpt><trkpt lat="44.8232633" lon="9.5570817"><ele>673.8333333333334</ele><time>2026-03-26T11:21:13.987Z</time></trkpt><trkpt lat="44.8231933" lon="9.5569583"><ele>673.0</ele><time>2026-03-26T11:21:16.987Z</time></trkpt><trkpt lat="44.8231417" lon="9.5569017"><ele>670.1666666666667</ele><time>2026-03-26T11:21:17.986Z</time></trkpt><trkpt lat="44.82308" lon="9.55684"><ele>667.3333333333334</ele><time>2026-03-26T11:21:18.986Z</time></trkpt><trkpt lat="44.8230183" lon="9.5567817"><ele>664.5</ele><time>2026-03-26T11:21:19.987Z</time></trkpt><trkpt lat="44.8229383" lon="9.5566817"><ele>661.6666666666666</ele><time>2026-03-26T11:21:21.985Z</time></trkpt><trkpt lat="44.8228867" lon="9.5566233"><ele>658.8333333333333</ele><time>2026-03-26T11:21:22.986Z</time></trkpt><trkpt lat="44.82283" lon="9.5565717"><ele>656.0</ele><time>2026-03-26T11:21:23.986Z</time></trkpt><trkpt lat="44.8227717" lon="9.5565133"><ele>656.0</ele><time>2026-03-26T11:21:24.986Z</time></trkpt><trkpt lat="44.8227083" lon="9.556465"><ele>656.0</ele><time>2026-03-26T11:21:25.986Z</time></trkpt><trkpt lat="44.8226417" lon="9.5564283"><ele>656.0</ele><time>2026-03-26T11:21:26.987Z</time></trkpt><trkpt lat="44.82258" lon="9.5563933"><ele>656.0</ele><time>2026-03-26T11:21:27.986Z</time></trkpt><trkpt lat="44.8224567" lon="9.55637"><ele>656.0</ele><time>2026-03-26T11:21:29.986Z</time></trkpt><trkpt lat="44.8223867" lon="9.55637"><ele>656.0</ele><time>2026-03-26T11:21:30.986Z</time></trkpt><trkpt lat="44.822315" lon="9.5563783"><ele>656.7142857142857</ele><time>2026-03-26T11:21:31.987Z</time></trkpt><trkpt lat="44.822245" lon="9.556385"><ele>657.4285714285714</ele><time>2026-03-26T11:21:32.988Z</time></trkpt><trkpt lat="44.8221767" lon="9.5563867"><ele>658.1428571428571</ele><time>2026-03-26T11:21:33.987Z</time></trkpt><trkpt lat="44.82211" lon="9.5563883"><ele>658.8571428571429</ele><time>2026-03-26T11:21:34.987Z</time></trkpt><trkpt lat="44.8220467" lon="9.5563983"><ele>659.5714285714286</ele><time>2026-03-26T11:21:35.986Z</time></trkpt><trkpt lat="44.8219633" lon="9.5564117"><ele>660.2857142857142</ele><time>2026-03-26T11:21:37.987Z</time></trkpt><trkpt lat="44.82188" lon="9.55644"><ele>661.0</ele><time>2026-03-26T11:21:54.988Z</time></trkpt><trkpt lat="44.8217833" lon="9.5564517"><ele>661.0</ele><time>2026-03-26T11:21:58.986Z</time></trkpt><trkpt lat="44.8217183" lon="9.5564167"><ele>661.0</ele><time>2026-03-26T11:22:00.986Z</time></trkpt><trkpt lat="44.8216833" lon="9.5563033"><ele>661.0</ele><time>2026-03-26T11:22:03.985Z</time></trkpt><trkpt lat="44.82163" lon="9.5562067"><ele>661.0</ele><time>2026-03-26T11:22:05.986Z</time></trkpt><trkpt lat="44.8215633" lon="9.5561183"><ele>661.0</ele><time>2026-03-26T11:22:07.986Z</time></trkpt><trkpt lat="44.8214533" lon="9.5560233"><ele>658.5</ele><time>2026-03-26T11:22:09.987Z</time></trkpt><trkpt lat="44.8213983" lon="9.5559767"><ele>656.0</ele><time>2026-03-26T11:22:10.986Z</time></trkpt><trkpt lat="44.8213083" lon="9.5558817"><ele>653.5</ele><time>2026-03-26T11:22:12.987Z</time></trkpt><trkpt lat="44.8212283" lon="9.5558067"><ele>651.0</ele><time>2026-03-26T11:22:14.986Z</time></trkpt><trkpt lat="44.8211533" lon="9.5557417"><ele>648.5</ele><time>2026-03-26T11:22:16.987Z</time></trkpt><trkpt lat="44.8210867" lon="9.5557133"><ele>646.0</ele><time>2026-03-26T11:22:18.986Z</time></trkpt><trkpt lat="44.8210183" lon="9.5556767"><ele>646.6666666666667</ele><time>2026-03-26T11:22:20.987Z</time></trkpt><trkpt lat="44.8209617" lon="9.5556083"><ele>647.3333333333334</ele><time>2026-03-26T11:22:22.987Z</time></trkpt><trkpt lat="44.820925" lon="9.55549"><ele>648.0</ele><time>2026-03-26T11:22:24.985Z</time></trkpt><trkpt lat="44.8208933" lon="9.555365"><ele>648.6666666666666</ele><time>2026-03-26T11:22:26.987Z</time></trkpt><trkpt lat="44.8208333" lon="9.5552983"><ele>649.3333333333333</ele><time>2026-03-26T11:22:29.986Z</time></trkpt><trkpt lat="44.8207317" lon="9.5553367"><ele>650.0</ele><time>2026-03-26T11:22:32.987Z</time></trkpt><trkpt lat="44.8206617" lon="9.5553617"><ele>651.0</ele><time>2026-03-26T11:22:34.986Z</time></trkpt><trkpt lat="44.8206217" lon="9.5554433"><ele>652.0</ele><time>2026-03-26T11:22:38.987Z</time></trkpt><trkpt lat="44.8205983" lon="9.55559"><ele>653.0</ele><time>2026-03-26T11:22:45.985Z</time></trkpt><trkpt lat="44.82058" lon="9.5557433"><ele>654.0</ele><time>2026-03-26T11:22:47.99Z</time></trkpt><trkpt lat="44.8205717" lon="9.5558333"><ele>655.0</ele><time>2026-03-26T11:22:48.986Z</time></trkpt><trkpt lat="44.820525" lon="9.55597"><ele>655.0</ele><time>2026-03-26T11:22:50.987Z</time></trkpt><trkpt lat="44.82042" lon="9.5560367"><ele>655.0</ele><time>2026-03-26T11:22:52.987Z</time></trkpt><trkpt lat="44.82034" lon="9.5560633"><ele>655.0</ele><time>2026-03-26T11:22:53.987Z</time></trkpt><trkpt lat="44.8202683" lon="9.5561017"><ele>655.0</ele><time>2026-03-26T11:22:54.987Z</time></trkpt><trkpt lat="44.820185" lon="9.5561417"><ele>655.0</ele><time>2026-03-26T11:22:55.985Z</time></trkpt><trkpt lat="44.8200867" lon="9.55618"><ele>657.2</ele><time>2026-03-26T11:22:56.986Z</time></trkpt><trkpt lat="44.8199833" lon="9.5562183"><ele>659.4</ele><time>2026-03-26T11:22:57.985Z</time></trkpt><trkpt lat="44.8198967" lon="9.556265"><ele>661.5999999999999</ele><time>2026-03-26T11:22:58.987Z</time></trkpt><trkpt lat="44.8198083" lon="9.556325"><ele>663.8</ele><time>2026-03-26T11:22:59.987Z</time></trkpt><trkpt lat="44.8197267" lon="9.5563883"><ele>666.0</ele><time>2026-03-26T11:23:00.986Z</time></trkpt><trkpt lat="44.8196483" lon="9.5564417"><ele>666.0</ele><time>2026-03-26T11:23:01.986Z</time></trkpt><trkpt lat="44.81957" lon="9.5564733"><ele>666.0</ele><time>2026-03-26T11:23:02.988Z</time></trkpt><trkpt lat="44.8194967" lon="9.5564683"><ele>666.0</ele><time>2026-03-26T11:23:03.985Z</time></trkpt><trkpt lat="44.81943" lon="9.5564317"><ele>666.0</ele><time>2026-03-26T11:23:04.988Z</time></trkpt><trkpt lat="44.8193667" lon="9.5563567"><ele>666.0</ele><time>2026-03-26T11:23:05.987Z</time></trkpt><trkpt lat="44.8193" lon="9.5562567"><ele>666.0</ele><time>2026-03-26T11:23:06.986Z</time></trkpt><trkpt lat="44.8192367" lon="9.5561467"><ele>661.5999999999999</ele><time>2026-03-26T11:23:07.986Z</time></trkpt><trkpt lat="44.8191733" lon="9.556035"><ele>657.2</ele><time>2026-03-26T11:23:08.986Z</time></trkpt><trkpt lat="44.8191167" lon="9.5559283"><ele>652.8</ele><time>2026-03-26T11:23:09.986Z</time></trkpt><trkpt lat="44.81907" lon="9.5558183"><ele>648.4000000000001</ele><time>2026-03-26T11:23:10.986Z</time></trkpt><trkpt lat="44.8190383" lon="9.5557067"><ele>644.0</ele><time>2026-03-26T11:23:11.987Z</time></trkpt><trkpt lat="44.81902" lon="9.5555867"><ele>644.0</ele><time>2026-03-26T11:23:12.986Z</time></trkpt><trkpt lat="44.8190017" lon="9.5554733"><ele>644.0</ele><time>2026-03-26T11:23:13.987Z</time></trkpt><trkpt lat="44.818985" lon="9.5553667"><ele>644.0</ele><time>2026-03-26T11:23:14.987Z</time></trkpt><trkpt lat="44.8189567" lon="9.555265"><ele>644.0</ele><time>2026-03-26T11:23:15.986Z</time></trkpt><trkpt lat="44.8189083" lon="9.5551717"><ele>644.0</ele><time>2026-03-26T11:23:16.987Z</time></trkpt><trkpt lat="44.81885" lon="9.5550883"><ele>644.0</ele><time>2026-03-26T11:23:17.987Z</time></trkpt><trkpt lat="44.8187683" lon="9.5550033"><ele>641.2</ele><time>2026-03-26T11:23:18.985Z</time></trkpt><trkpt lat="44.8186717" lon="9.5549333"><ele>638.4000000000001</ele><time>2026-03-26T11:23:19.986Z</time></trkpt><trkpt lat="44.8185767" lon="9.5548717"><ele>635.6</ele><time>2026-03-26T11:23:20.985Z</time></trkpt><trkpt lat="44.8184817" lon="9.5548183"><ele>632.8</ele><time>2026-03-26T11:23:21.986Z</time></trkpt><trkpt lat="44.8183883" lon="9.5547567"><ele>630.0</ele><time>2026-03-26T11:23:22.987Z</time></trkpt><trkpt lat="44.8183017" lon="9.5546817"><ele>629.4</ele><time>2026-03-26T11:23:23.987Z</time></trkpt><trkpt lat="44.8182233" lon="9.554595"><ele>628.8</ele><time>2026-03-26T11:23:24.99Z</time></trkpt><trkpt lat="44.81815" lon="9.5544983"><ele>628.2</ele><time>2026-03-26T11:23:25.986Z</time></trkpt><trkpt lat="44.8180833" lon="9.5544"><ele>627.6</ele><time>2026-03-26T11:23:26.987Z</time></trkpt><trkpt lat="44.8180233" lon="9.5543133"><ele>627.0</ele><time>2026-03-26T11:23:27.986Z</time></trkpt><trkpt lat="44.8179617" lon="9.5542517"><ele>626.3333333333334</ele><time>2026-03-26T11:23:28.987Z</time></trkpt><trkpt lat="44.8178917" lon="9.55422"><ele>625.6666666666666</ele><time>2026-03-26T11:23:29.987Z</time></trkpt><trkpt lat="44.8178017" lon="9.5542133"><ele>625.0</ele><time>2026-03-26T11:23:30.987Z</time></trkpt><trkpt lat="44.8177033" lon="9.5541967"><ele>624.3333333333333</ele><time>2026-03-26T11:23:31.985Z</time></trkpt><trkpt lat="44.81761" lon="9.554175"><ele>623.6666666666666</ele><time>2026-03-26T11:23:32.987Z</time></trkpt><trkpt lat="44.81752" lon="9.5541517"><ele>623.0</ele><time>2026-03-26T11:23:33.986Z</time></trkpt><trkpt lat="44.8174433" lon="9.5541167"><ele>622.1999999999999</ele><time>2026-03-26T11:23:34.987Z</time></trkpt><trkpt lat="44.8173767" lon="9.554085"><ele>621.4</ele><time>2026-03-26T11:23:35.988Z</time></trkpt><trkpt lat="44.8172833" lon="9.5541317"><ele>620.5999999999999</ele><time>2026-03-26T11:23:37.986Z</time></trkpt><trkpt lat="44.817245" lon="9.5542683"><ele>619.8</ele><time>2026-03-26T11:23:39.987Z</time></trkpt><trkpt lat="44.8172867" lon="9.554415"><ele>619.0</ele><time>2026-03-26T11:23:41.986Z</time></trkpt><trkpt lat="44.8173283" lon="9.5545"><ele>618.0</ele><time>2026-03-26T11:23:42.986Z</time></trkpt><trkpt lat="44.8173833" lon="9.5545767"><ele>617.0</ele><time>2026-03-26T11:23:43.986Z</time></trkpt><trkpt lat="44.8174433" lon="9.554665"><ele>616.0</ele><time>2026-03-26T11:23:44.987Z</time></trkpt><trkpt lat="44.8174883" lon="9.5547783"><ele>615.0</ele><time>2026-03-26T11:23:45.986Z</time></trkpt><trkpt lat="44.81752" lon="9.5548967"><ele>614.0</ele><time>2026-03-26T11:23:46.992Z</time></trkpt><trkpt lat="44.8175533" lon="9.5550133"><ele>613.0</ele><time>2026-03-26T11:23:47.986Z</time></trkpt><trkpt lat="44.8175817" lon="9.55513"><ele>613.0</ele><time>2026-03-26T11:23:48.986Z</time></trkpt><trkpt lat="44.8176067" lon="9.55524"><ele>613.0</ele><time>2026-03-26T11:23:49.986Z</time></trkpt><trkpt lat="44.817635" lon="9.5553417"><ele>613.0</ele><time>2026-03-26T11:23:50.986Z</time></trkpt><trkpt lat="44.817665" lon="9.5554433"><ele>613.0</ele><time>2026-03-26T11:23:51.986Z</time></trkpt><trkpt lat="44.8176933" lon="9.5555383"><ele>613.0</ele><time>2026-03-26T11:23:52.986Z</time></trkpt><trkpt lat="44.8177" lon="9.55565"><ele>613.0</ele><time>2026-03-26T11:23:53.987Z</time></trkpt><trkpt lat="44.8177067" lon="9.555755"><ele>612.0</ele><time>2026-03-26T11:23:54.987Z</time></trkpt><trkpt lat="44.8177017" lon="9.55585"><ele>611.0</ele><time>2026-03-26T11:23:55.987Z</time></trkpt><trkpt lat="44.8176833" lon="9.555935"><ele>610.0</ele><time>2026-03-26T11:23:56.987Z</time></trkpt><trkpt lat="44.817595" lon="9.55604"><ele>609.0</ele><time>2026-03-26T11:23:58.987Z</time></trkpt><trkpt lat="44.81752" lon="9.5560667"><ele>608.0</ele><time>2026-03-26T11:23:59.986Z</time></trkpt><trkpt lat="44.8174233" lon="9.5560983"><ele>607.0</ele><time>2026-03-26T11:24:00.985Z</time></trkpt><trkpt lat="44.8173317" lon="9.5561283"><ele>607.0</ele><time>2026-03-26T11:24:01.986Z</time></trkpt><trkpt lat="44.817245" lon="9.556165"><ele>607.0</ele><time>2026-03-26T11:24:02.987Z</time></trkpt><trkpt lat="44.8171633" lon="9.5562033"><ele>607.0</ele><time>2026-03-26T11:24:03.987Z</time></trkpt><trkpt lat="44.8170883" lon="9.5562383"><ele>607.0</ele><time>2026-03-26T11:24:04.988Z</time></trkpt><trkpt lat="44.81702" lon="9.5562767"><ele>607.0</ele><time>2026-03-26T11:24:05.987Z</time></trkpt><trkpt lat="44.8169517" lon="9.5563117"><ele>607.0</ele><time>2026-03-26T11:24:06.986Z</time></trkpt><trkpt lat="44.81689" lon="9.5563367"><ele>606.1666666666667</ele><time>2026-03-26T11:24:07.986Z</time></trkpt><trkpt lat="44.81678" lon="9.5563317"><ele>605.3333333333334</ele><time>2026-03-26T11:24:09.986Z</time></trkpt><trkpt lat="44.8167017" lon="9.5562633"><ele>604.5</ele><time>2026-03-26T11:24:11.986Z</time></trkpt><trkpt lat="44.8166333" lon="9.5561617"><ele>603.6666666666666</ele><time>2026-03-26T11:24:39.986Z</time></trkpt><trkpt lat="44.81656" lon="9.55614"><ele>602.8333333333333</ele><time>2026-03-26T11:24:41.986Z</time></trkpt><trkpt lat="44.816495" lon="9.5561367"><ele>602.0</ele><time>2026-03-26T11:24:42.986Z</time></trkpt><trkpt lat="44.8164217" lon="9.5561383"><ele>600.6666666666666</ele><time>2026-03-26T11:24:43.986Z</time></trkpt><trkpt lat="44.816345" lon="9.5561483"><ele>599.3333333333333</ele><time>2026-03-26T11:24:44.987Z</time></trkpt><trkpt lat="44.816255" lon="9.5561533"><ele>598.0</ele><time>2026-03-26T11:24:45.986Z</time></trkpt><trkpt lat="44.8161617" lon="9.55616"><ele>596.6666666666666</ele><time>2026-03-26T11:24:46.986Z</time></trkpt><trkpt lat="44.8160717" lon="9.5561717"><ele>595.3333333333334</ele><time>2026-03-26T11:24:47.987Z</time></trkpt><trkpt lat="44.81598" lon="9.5561817"><ele>594.0</ele><time>2026-03-26T11:24:48.986Z</time></trkpt><trkpt lat="44.8158883" lon="9.5561967"><ele>595.4</ele><time>2026-03-26T11:24:49.987Z</time></trkpt><trkpt lat="44.81579" lon="9.5562167"><ele>596.8</ele><time>2026-03-26T11:24:50.987Z</time></trkpt><trkpt lat="44.815695" lon="9.55624"><ele>598.2</ele><time>2026-03-26T11:24:51.986Z</time></trkpt><trkpt lat="44.815605" lon="9.5562633"><ele>599.6</ele><time>2026-03-26T11:24:52.987Z</time></trkpt><trkpt lat="44.81552" lon="9.5562933"><ele>601.0</ele><time>2026-03-26T11:24:53.987Z</time></trkpt><trkpt lat="44.8154333" lon="9.5563367"><ele>601.0</ele><time>2026-03-26T11:24:54.986Z</time></trkpt><trkpt lat="44.8153483" lon="9.5564"><ele>601.0</ele><time>2026-03-26T11:24:55.987Z</time></trkpt><trkpt lat="44.8152667" lon="9.5564867"><ele>601.0</ele><time>2026-03-26T11:24:56.987Z</time></trkpt><trkpt lat="44.81519" lon="9.5565733"><ele>601.0</ele><time>2026-03-26T11:24:57.987Z</time></trkpt><trkpt lat="44.8151183" lon="9.5566483"><ele>601.0</ele><time>2026-03-26T11:24:58.987Z</time></trkpt><trkpt lat="44.8150517" lon="9.5567083"><ele>601.6666666666667</ele><time>2026-03-26T11:24:59.987Z</time></trkpt><trkpt lat="44.814985" lon="9.5567417"><ele>602.3333333333334</ele><time>2026-03-26T11:25:00.986Z</time></trkpt><trkpt lat="44.81492" lon="9.556755"><ele>603.0</ele><time>2026-03-26T11:25:01.987Z</time></trkpt><trkpt lat="44.8148117" lon="9.5567183"><ele>603.6666666666666</ele><time>2026-03-26T11:25:03.986Z</time></trkpt><trkpt lat="44.8147467" lon="9.55659"><ele>604.3333333333333</ele><time>2026-03-26T11:25:05.988Z</time></trkpt><trkpt lat="44.8147433" lon="9.5564833"><ele>605.0</ele><time>2026-03-26T11:25:06.986Z</time></trkpt><trkpt lat="44.8147633" lon="9.5563467"><ele>605.0</ele><time>2026-03-26T11:25:07.987Z</time></trkpt><trkpt lat="44.8147583" lon="9.5562317"><ele>605.0</ele><time>2026-03-26T11:25:08.988Z</time></trkpt><trkpt lat="44.8147417" lon="9.5561283"><ele>605.0</ele><time>2026-03-26T11:25:09.986Z</time></trkpt><trkpt lat="44.8147017" lon="9.5560417"><ele>605.0</ele><time>2026-03-26T11:25:10.988Z</time></trkpt><trkpt lat="44.8146433" lon="9.5559533"><ele>605.0</ele><time>2026-03-26T11:25:11.987Z</time></trkpt><trkpt lat="44.8145733" lon="9.5558833"><ele>605.0</ele><time>2026-03-26T11:25:12.986Z</time></trkpt><trkpt lat="44.8144983" lon="9.5558167"><ele>604.5</ele><time>2026-03-26T11:25:13.986Z</time></trkpt><trkpt lat="44.8144183" lon="9.5557583"><ele>604.0</ele><time>2026-03-26T11:25:14.987Z</time></trkpt><trkpt lat="44.81433" lon="9.555705"><ele>603.5</ele><time>2026-03-26T11:25:15.986Z</time></trkpt><trkpt lat="44.814245" lon="9.55566"><ele>603.0</ele><time>2026-03-26T11:25:16.986Z</time></trkpt><trkpt lat="44.8141683" lon="9.5556183"><ele>602.5</ele><time>2026-03-26T11:25:17.987Z</time></trkpt><trkpt lat="44.8141033" lon="9.55558"><ele>602.0</ele><time>2026-03-26T11:25:18.986Z</time></trkpt><trkpt lat="44.81404" lon="9.555545"><ele>602.0</ele><time>2026-03-26T11:25:19.987Z</time></trkpt><trkpt lat="44.81394" lon="9.5554833"><ele>602.0</ele><time>2026-03-26T11:25:21.986Z</time></trkpt><trkpt lat="44.81385" lon="9.55542"><ele>602.0</ele><time>2026-03-26T11:25:23.987Z</time></trkpt><trkpt lat="44.81379" lon="9.5553717"><ele>602.0</ele><time>2026-03-26T11:25:24.986Z</time></trkpt><trkpt lat="44.81373" lon="9.555315"><ele>602.0</ele><time>2026-03-26T11:25:25.986Z</time></trkpt><trkpt lat="44.8136783" lon="9.5552617"><ele>602.0</ele><time>2026-03-26T11:25:26.988Z</time></trkpt><trkpt lat="44.813595" lon="9.5551817"><ele>602.0</ele><time>2026-03-26T11:25:28.986Z</time></trkpt><trkpt lat="44.8135233" lon="9.5551367"><ele>602.0</ele><time>2026-03-26T11:25:31.988Z</time></trkpt><trkpt lat="44.8136067" lon="9.5552117"><ele>602.0</ele><time>2026-03-26T11:25:48.985Z</time></trkpt><trkpt lat="44.8136967" lon="9.5552733"><ele>602.0</ele><time>2026-03-26T11:25:50.987Z</time></trkpt><trkpt lat="44.8138067" lon="9.55536"><ele>602.0</ele><time>2026-03-26T11:25:52.986Z</time></trkpt><trkpt lat="44.813865" lon="9.555405"><ele>602.0</ele><time>2026-03-26T11:25:53.987Z</time></trkpt><trkpt lat="44.8139283" lon="9.5554533"><ele>602.0</ele><time>2026-03-26T11:25:54.986Z</time></trkpt><trkpt lat="44.8139867" lon="9.5555017"><ele>602.0</ele><time>2026-03-26T11:25:55.987Z</time></trkpt><trkpt lat="44.81405" lon="9.5555567"><ele>602.0</ele><time>2026-03-26T11:25:57.986Z</time></trkpt><trkpt lat="44.813975" lon="9.5555317"><ele>602.0</ele><time>2026-03-26T11:26:19.986Z</time></trkpt><trkpt lat="44.813885" lon="9.5555817"><ele>602.0</ele><time>2026-03-26T11:26:21.987Z</time></trkpt><trkpt lat="44.813825" lon="9.5556233"><ele>602.0</ele><time>2026-03-26T11:26:22.986Z</time></trkpt><trkpt lat="44.8137567" lon="9.5556617"><ele>602.0</ele><time>2026-03-26T11:26:23.986Z</time></trkpt><trkpt lat="44.8136867" lon="9.55568"><ele>602.0</ele><time>2026-03-26T11:26:24.986Z</time></trkpt><trkpt lat="44.8136167" lon="9.5556717"><ele>602.0</ele><time>2026-03-26T11:26:25.986Z</time></trkpt><trkpt lat="44.8135433" lon="9.555645"><ele>602.0</ele><time>2026-03-26T11:26:26.987Z</time></trkpt><trkpt lat="44.813475" lon="9.5556117"><ele>602.0</ele><time>2026-03-26T11:26:27.986Z</time></trkpt><trkpt lat="44.81341" lon="9.55558"><ele>602.0</ele><time>2026-03-26T11:26:28.987Z</time></trkpt><trkpt lat="44.8132967" lon="9.555535"><ele>603.0</ele><time>2026-03-26T11:26:30.987Z</time></trkpt><trkpt lat="44.8132083" lon="9.5555217"><ele>604.0</ele><time>2026-03-26T11:26:32.987Z</time></trkpt><trkpt lat="44.8131267" lon="9.555505"><ele>605.0</ele><time>2026-03-26T11:26:34.986Z</time></trkpt><trkpt lat="44.8130233" lon="9.5554733"><ele>606.0</ele><time>2026-03-26T11:26:36.986Z</time></trkpt><trkpt lat="44.8129317" lon="9.5554783"><ele>607.0</ele><time>2026-03-26T11:26:38.988Z</time></trkpt><trkpt lat="44.81283" lon="9.5554917"><ele>607.0</ele><time>2026-03-26T11:26:40.986Z</time></trkpt><trkpt lat="44.8127167" lon="9.5555083"><ele>607.0</ele><time>2026-03-26T11:26:42.986Z</time></trkpt><trkpt lat="44.8126033" lon="9.5555183"><ele>607.0</ele><time>2026-03-26T11:26:44.986Z</time></trkpt><trkpt lat="44.81249" lon="9.555495"><ele>607.0</ele><time>2026-03-26T11:26:46.986Z</time></trkpt><trkpt lat="44.8123767" lon="9.5554783"><ele>607.5</ele><time>2026-03-26T11:26:48.986Z</time></trkpt><trkpt lat="44.81225" lon="9.5554383"><ele>608.0</ele><time>2026-03-26T11:26:50.987Z</time></trkpt><trkpt lat="44.8121883" lon="9.555395"><ele>608.5</ele><time>2026-03-26T11:26:51.986Z</time></trkpt><trkpt lat="44.812125" lon="9.555355"><ele>609.0</ele><time>2026-03-26T11:26:52.988Z</time></trkpt><trkpt lat="44.8120483" lon="9.55532"><ele>609.5</ele><time>2026-03-26T11:26:53.985Z</time></trkpt><trkpt lat="44.8119733" lon="9.5552867"><ele>610.0</ele><time>2026-03-26T11:26:54.987Z</time></trkpt><trkpt lat="44.8119017" lon="9.555255"><ele>606.6666666666667</ele><time>2026-03-26T11:26:55.986Z</time></trkpt><trkpt lat="44.8118283" lon="9.5552133"><ele>603.3333333333334</ele><time>2026-03-26T11:26:56.987Z</time></trkpt><trkpt lat="44.8117583" lon="9.555165"><ele>600.0</ele><time>2026-03-26T11:26:57.986Z</time></trkpt><trkpt lat="44.81169" lon="9.5551217"><ele>596.6666666666666</ele><time>2026-03-26T11:26:58.987Z</time></trkpt><trkpt lat="44.8116283" lon="9.555075"><ele>593.3333333333333</ele><time>2026-03-26T11:26:59.986Z</time></trkpt><trkpt lat="44.81153" lon="9.5549917"><ele>590.0</ele><time>2026-03-26T11:27:01.986Z</time></trkpt><trkpt lat="44.8114667" lon="9.554945"><ele>589.2857142857143</ele><time>2026-03-26T11:27:02.987Z</time></trkpt><trkpt lat="44.8114017" lon="9.5548933"><ele>588.5714285714286</ele><time>2026-03-26T11:27:03.986Z</time></trkpt><trkpt lat="44.81134" lon="9.5548383"><ele>587.8571428571429</ele><time>2026-03-26T11:27:04.986Z</time></trkpt><trkpt lat="44.811285" lon="9.55478"><ele>587.1428571428571</ele><time>2026-03-26T11:27:05.986Z</time></trkpt><trkpt lat="44.8112283" lon="9.5547217"><ele>586.4285714285714</ele><time>2026-03-26T11:27:06.986Z</time></trkpt><trkpt lat="44.8111667" lon="9.5546667"><ele>585.7142857142858</ele><time>2026-03-26T11:27:07.986Z</time></trkpt><trkpt lat="44.811105" lon="9.5546283"><ele>585.0</ele><time>2026-03-26T11:27:08.988Z</time></trkpt><trkpt lat="44.811035" lon="9.55459"><ele>585.6666666666666</ele><time>2026-03-26T11:27:09.986Z</time></trkpt><trkpt lat="44.8109717" lon="9.5545483"><ele>586.3333333333334</ele><time>2026-03-26T11:27:10.987Z</time></trkpt><trkpt lat="44.8109067" lon="9.554495"><ele>587.0</ele><time>2026-03-26T11:27:11.986Z</time></trkpt><trkpt lat="44.8108467" lon="9.5544433"><ele>587.6666666666667</ele><time>2026-03-26T11:27:12.986Z</time></trkpt><trkpt lat="44.810725" lon="9.5543867"><ele>588.3333333333334</ele><time>2026-03-26T11:27:14.988Z</time></trkpt><trkpt lat="44.8106567" lon="9.55437"><ele>589.0</ele><time>2026-03-26T11:27:15.986Z</time></trkpt><trkpt lat="44.8105867" lon="9.55435"><ele>586.4</ele><time>2026-03-26T11:27:16.986Z</time></trkpt><trkpt lat="44.8105183" lon="9.5543183"><ele>583.8</ele><time>2026-03-26T11:27:17.987Z</time></trkpt><trkpt lat="44.8104633" lon="9.55427"><ele>581.2</ele><time>2026-03-26T11:27:18.986Z</time></trkpt><trkpt lat="44.81035" lon="9.5542033"><ele>578.6</ele><time>2026-03-26T11:27:20.987Z</time></trkpt><trkpt lat="44.81023" lon="9.5541983"><ele>576.0</ele><time>2026-03-26T11:27:22.986Z</time></trkpt><trkpt lat="44.810135" lon="9.554185"><ele>576.0</ele><time>2026-03-26T11:27:24.985Z</time></trkpt><trkpt lat="44.8100583" lon="9.554145"><ele>576.0</ele><time>2026-03-26T11:27:27.986Z</time></trkpt><trkpt lat="44.8099883" lon="9.5540917"><ele>576.0</ele><time>2026-03-26T11:27:30.987Z</time></trkpt><trkpt lat="44.8099233" lon="9.5540567"><ele>576.0</ele><time>2026-03-26T11:27:32.986Z</time></trkpt><trkpt lat="44.8098333" lon="9.55404"><ele>576.0</ele><time>2026-03-26T11:27:35.986Z</time></trkpt><trkpt lat="44.8097617" lon="9.55399"><ele>576.0</ele><time>2026-03-26T11:27:38.987Z</time></trkpt><trkpt lat="44.8097283" lon="9.553885"><ele>576.0</ele><time>2026-03-26T11:27:40.987Z</time></trkpt><trkpt lat="44.8096683" lon="9.5537633"><ele>576.0</ele><time>2026-03-26T11:27:42.985Z</time></trkpt><trkpt lat="44.8095983" lon="9.5536333"><ele>576.0</ele><time>2026-03-26T11:27:44.987Z</time></trkpt><trkpt lat="44.8095567" lon="9.553535"><ele>576.0</ele><time>2026-03-26T11:27:46.985Z</time></trkpt><trkpt lat="44.8095583" lon="9.5533983"><ele>576.0</ele><time>2026-03-26T11:27:49.987Z</time></trkpt><trkpt lat="44.8095667" lon="9.5532567"><ele>574.2</ele><time>2026-03-26T11:27:51.985Z</time></trkpt><trkpt lat="44.8095817" lon="9.5531033"><ele>572.4000000000001</ele><time>2026-03-26T11:27:53.988Z</time></trkpt><trkpt lat="44.8096" lon="9.55296"><ele>570.6</ele><time>2026-03-26T11:27:55.986Z</time></trkpt><trkpt lat="44.8096217" lon="9.5528433"><ele>568.8000000000001</ele><time>2026-03-26T11:27:57.985Z</time></trkpt><trkpt lat="44.8096783" lon="9.55272"><ele>567.0</ele><time>2026-03-26T11:27:59.987Z</time></trkpt><trkpt lat="44.80975" lon="9.5526017"><ele>567.0</ele><time>2026-03-26T11:28:01.987Z</time></trkpt><trkpt lat="44.8098067" lon="9.5524533"><ele>567.0</ele><time>2026-03-26T11:28:03.986Z</time></trkpt><trkpt lat="44.8098167" lon="9.5523167"><ele>567.0</ele><time>2026-03-26T11:28:05.987Z</time></trkpt><trkpt lat="44.809815" lon="9.5521883"><ele>567.0</ele><time>2026-03-26T11:28:07.985Z</time></trkpt><trkpt lat="44.8097933" lon="9.5520833"><ele>567.0</ele><time>2026-03-26T11:28:09.986Z</time></trkpt><trkpt lat="44.8097317" lon="9.55201"><ele>569.0</ele><time>2026-03-26T11:28:11.986Z</time></trkpt><trkpt lat="44.8096817" lon="9.5519367"><ele>571.0</ele><time>2026-03-26T11:28:13.986Z</time></trkpt><trkpt lat="44.8097017" lon="9.5518383"><ele>573.0</ele><time>2026-03-26T11:28:15.986Z</time></trkpt><trkpt lat="44.8097517" lon="9.5517417"><ele>575.0</ele><time>2026-03-26T11:28:17.987Z</time></trkpt><trkpt lat="44.80984" lon="9.55161"><ele>577.0</ele><time>2026-03-26T11:28:19.987Z</time></trkpt><trkpt lat="44.8099417" lon="9.5515217"><ele>577.0</ele><time>2026-03-26T11:28:21.986Z</time></trkpt><trkpt lat="44.810045" lon="9.5514567"><ele>577.0</ele><time>2026-03-26T11:28:23.987Z</time></trkpt><trkpt lat="44.810105" lon="9.5514"><ele>577.0</ele><time>2026-03-26T11:28:24.986Z</time></trkpt><trkpt lat="44.8102017" lon="9.5513117"><ele>577.0</ele><time>2026-03-26T11:28:26.986Z</time></trkpt><trkpt lat="44.810315" lon="9.5512633"><ele>577.0</ele><time>2026-03-26T11:28:28.986Z</time></trkpt><trkpt lat="44.8103833" lon="9.5512433"><ele>577.8333333333334</ele><time>2026-03-26T11:28:29.986Z</time></trkpt><trkpt lat="44.810455" lon="9.551215"><ele>578.6666666666667</ele><time>2026-03-26T11:28:30.986Z</time></trkpt><trkpt lat="44.810525" lon="9.5511833"><ele>579.5</ele><time>2026-03-26T11:28:31.986Z</time></trkpt><trkpt lat="44.8105817" lon="9.5511333"><ele>580.3333333333334</ele><time>2026-03-26T11:28:32.987Z</time></trkpt><trkpt lat="44.8106367" lon="9.5510583"><ele>581.1666666666666</ele><time>2026-03-26T11:28:33.986Z</time></trkpt><trkpt lat="44.810695" lon="9.5509717"><ele>582.0</ele><time>2026-03-26T11:28:34.986Z</time></trkpt><trkpt lat="44.810745" lon="9.5508867"><ele>582.0</ele><time>2026-03-26T11:28:35.986Z</time></trkpt><trkpt lat="44.810785" lon="9.5507933"><ele>582.0</ele><time>2026-03-26T11:28:36.986Z</time></trkpt><trkpt lat="44.8108167" lon="9.5507017"><ele>582.0</ele><time>2026-03-26T11:28:37.987Z</time></trkpt><trkpt lat="44.810845" lon="9.550605"><ele>582.0</ele><time>2026-03-26T11:28:38.988Z</time></trkpt><trkpt lat="44.810865" lon="9.5505133"><ele>582.0</ele><time>2026-03-26T11:28:39.986Z</time></trkpt><trkpt lat="44.8108583" lon="9.5503583"><ele>582.0</ele><time>2026-03-26T11:28:41.986Z</time></trkpt><trkpt lat="44.8108217" lon="9.5501783"><ele>581.5714285714286</ele><time>2026-03-26T11:28:43.987Z</time></trkpt><trkpt lat="44.8107917" lon="9.5500817"><ele>581.1428571428571</ele><time>2026-03-26T11:28:44.987Z</time></trkpt><trkpt lat="44.8107667" lon="9.54998"><ele>580.7142857142857</ele><time>2026-03-26T11:28:45.989Z</time></trkpt><trkpt lat="44.8107583" lon="9.5498833"><ele>580.2857142857142</ele><time>2026-03-26T11:28:46.986Z</time></trkpt><trkpt lat="44.8107583" lon="9.54979"><ele>579.8571428571429</ele><time>2026-03-26T11:28:47.986Z</time></trkpt><trkpt lat="44.8107583" lon="9.5496933"><ele>579.4285714285713</ele><time>2026-03-26T11:28:48.986Z</time></trkpt><trkpt lat="44.8107567" lon="9.5495917"><ele>579.0</ele><time>2026-03-26T11:28:49.987Z</time></trkpt><trkpt lat="44.810755" lon="9.5495017"><ele>578.4</ele><time>2026-03-26T11:28:50.987Z</time></trkpt><trkpt lat="44.8107717" lon="9.549335"><ele>577.8</ele><time>2026-03-26T11:28:52.986Z</time></trkpt><trkpt lat="44.8107833" lon="9.549245"><ele>577.2</ele><time>2026-03-26T11:28:53.986Z</time></trkpt><trkpt lat="44.810795" lon="9.54907"><ele>576.6</ele><time>2026-03-26T11:28:55.991Z</time></trkpt><trkpt lat="44.8108283" lon="9.5489"><ele>576.0</ele><time>2026-03-26T11:28:57.986Z</time></trkpt><trkpt lat="44.8108617" lon="9.5487517"><ele>576.0</ele><time>2026-03-26T11:28:59.986Z</time></trkpt><trkpt lat="44.810885" lon="9.548625"><ele>576.0</ele><time>2026-03-26T11:29:01.986Z</time></trkpt><trkpt lat="44.8109" lon="9.5485317"><ele>576.0</ele><time>2026-03-26T11:29:03.986Z</time></trkpt><trkpt lat="44.8109417" lon="9.5484483"><ele>576.0</ele><time>2026-03-26T11:29:06.986Z</time></trkpt><trkpt lat="44.8109417" lon="9.5483233"><ele>576.0</ele><time>2026-03-26T11:29:11.986Z</time></trkpt><trkpt lat="44.810925" lon="9.548195"><ele>576.0</ele><time>2026-03-26T11:29:14.987Z</time></trkpt><trkpt lat="44.810935" lon="9.5481"><ele>576.0</ele><time>2026-03-26T11:29:16.986Z</time></trkpt><trkpt lat="44.810935" lon="9.5479933"><ele>576.0</ele><time>2026-03-26T11:29:18.986Z</time></trkpt><trkpt lat="44.81093" lon="9.5478667"><ele>576.0</ele><time>2026-03-26T11:29:20.986Z</time></trkpt><trkpt lat="44.8109333" lon="9.5477283"><ele>576.0</ele><time>2026-03-26T11:29:22.987Z</time></trkpt><trkpt lat="44.8109383" lon="9.5475883"><ele>576.0</ele><time>2026-03-26T11:29:24.985Z</time></trkpt><trkpt lat="44.8109467" lon="9.5474333"><ele>576.6</ele><time>2026-03-26T11:29:26.988Z</time></trkpt><trkpt lat="44.8109717" lon="9.5472567"><ele>577.2</ele><time>2026-03-26T11:29:28.986Z</time></trkpt><trkpt lat="44.8109883" lon="9.5470933"><ele>577.8</ele><time>2026-03-26T11:29:30.986Z</time></trkpt><trkpt lat="44.811" lon="9.5469367"><ele>578.4</ele><time>2026-03-26T11:29:32.987Z</time></trkpt><trkpt lat="44.8109817" lon="9.5468167"><ele>579.0</ele><time>2026-03-26T11:29:34.986Z</time></trkpt><trkpt lat="44.81096" lon="9.5466967"><ele>576.2</ele><time>2026-03-26T11:29:37.987Z</time></trkpt><trkpt lat="44.8109917" lon="9.5465883"><ele>573.4</ele><time>2026-03-26T11:29:39.986Z</time></trkpt><trkpt lat="44.8110517" lon="9.5464833"><ele>570.6</ele><time>2026-03-26T11:29:41.987Z</time></trkpt><trkpt lat="44.811135" lon="9.5463917"><ele>567.8</ele><time>2026-03-26T11:29:43.987Z</time></trkpt><trkpt lat="44.811235" lon="9.54632"><ele>565.0</ele><time>2026-03-26T11:29:45.986Z</time></trkpt><trkpt lat="44.8113383" lon="9.5462883"><ele>565.0</ele><time>2026-03-26T11:29:47.986Z</time></trkpt><trkpt lat="44.8114483" lon="9.5462533"><ele>565.0</ele><time>2026-03-26T11:29:49.987Z</time></trkpt><trkpt lat="44.811545" lon="9.546175"><ele>565.0</ele><time>2026-03-26T11:29:51.986Z</time></trkpt><trkpt lat="44.8116183" lon="9.5460367"><ele>565.0</ele><time>2026-03-26T11:29:53.987Z</time></trkpt><trkpt lat="44.8116517" lon="9.545955"><ele>565.0</ele><time>2026-03-26T11:29:54.986Z</time></trkpt><trkpt lat="44.8116917" lon="9.5458633"><ele>566.6</ele><time>2026-03-26T11:29:55.986Z</time></trkpt><trkpt lat="44.81172" lon="9.5457783"><ele>568.2</ele><time>2026-03-26T11:29:56.988Z</time></trkpt><trkpt lat="44.811745" lon="9.5456817"><ele>569.8</ele><time>2026-03-26T11:29:57.986Z</time></trkpt><trkpt lat="44.811785" lon="9.545515"><ele>571.4</ele><time>2026-03-26T11:29:59.987Z</time></trkpt><trkpt lat="44.811815" lon="9.5453483"><ele>573.0</ele><time>2026-03-26T11:30:01.987Z</time></trkpt><trkpt lat="44.81186" lon="9.5451967"><ele>569.8</ele><time>2026-03-26T11:30:03.987Z</time></trkpt><trkpt lat="44.8119283" lon="9.545065"><ele>566.5999999999999</ele><time>2026-03-26T11:30:05.988Z</time></trkpt><trkpt lat="44.8119617" lon="9.5449883"><ele>563.4000000000001</ele><time>2026-03-26T11:30:06.986Z</time></trkpt><trkpt lat="44.8120317" lon="9.544865"><ele>560.2</ele><time>2026-03-26T11:30:08.988Z</time></trkpt><trkpt lat="44.8121067" lon="9.5447417"><ele>557.0</ele><time>2026-03-26T11:30:10.986Z</time></trkpt><trkpt lat="44.8121633" lon="9.5446117"><ele>557.3333333333333</ele><time>2026-03-26T11:30:12.986Z</time></trkpt><trkpt lat="44.81216" lon="9.54452"><ele>557.6666666666666</ele><time>2026-03-26T11:30:14.987Z</time></trkpt><trkpt lat="44.8121033" lon="9.5444533"><ele>558.0</ele><time>2026-03-26T11:30:16.985Z</time></trkpt><trkpt lat="44.8120167" lon="9.5443883"><ele>558.3333333333334</ele><time>2026-03-26T11:30:18.986Z</time></trkpt><trkpt lat="44.8119283" lon="9.544295"><ele>558.6666666666667</ele><time>2026-03-26T11:30:20.987Z</time></trkpt><trkpt lat="44.811885" lon="9.54423"><ele>559.0</ele><time>2026-03-26T11:30:21.985Z</time></trkpt><trkpt lat="44.81184" lon="9.5441567"><ele>561.3333333333334</ele><time>2026-03-26T11:30:22.986Z</time></trkpt><trkpt lat="44.8117967" lon="9.544085"><ele>563.6666666666667</ele><time>2026-03-26T11:30:23.986Z</time></trkpt><trkpt lat="44.811755" lon="9.5440083"><ele>566.0</ele><time>2026-03-26T11:30:24.986Z</time></trkpt><trkpt lat="44.8117117" lon="9.5439167"><ele>568.3333333333334</ele><time>2026-03-26T11:30:25.986Z</time></trkpt><trkpt lat="44.8116717" lon="9.5438267"><ele>570.6666666666666</ele><time>2026-03-26T11:30:26.987Z</time></trkpt><trkpt lat="44.811635" lon="9.5437483"><ele>573.0</ele><time>2026-03-26T11:30:27.985Z</time></trkpt><trkpt lat="44.8115917" lon="9.5436283"><ele>573.0</ele><time>2026-03-26T11:30:29.987Z</time></trkpt><trkpt lat="44.81155" lon="9.5435433"><ele>573.0</ele><time>2026-03-26T11:30:31.987Z</time></trkpt><trkpt lat="44.8114933" lon="9.5434733"><ele>573.0</ele><time>2026-03-26T11:30:33.985Z</time></trkpt><trkpt lat="44.8114317" lon="9.5433867"><ele>573.0</ele><time>2026-03-26T11:30:35.989Z</time></trkpt><trkpt lat="44.8113567" lon="9.5433833"><ele>573.0</ele><time>2026-03-26T11:30:37.987Z</time></trkpt><trkpt lat="44.8112883" lon="9.5434033"><ele>573.0</ele><time>2026-03-26T11:30:39.986Z</time></trkpt><trkpt lat="44.8112183" lon="9.5433667"><ele>573.0</ele><time>2026-03-26T11:30:41.986Z</time></trkpt><trkpt lat="44.8111617" lon="9.54329"><ele>573.0</ele><time>2026-03-26T11:30:43.987Z</time></trkpt><trkpt lat="44.8111267" lon="9.5431817"><ele>573.0</ele><time>2026-03-26T11:30:45.986Z</time></trkpt><trkpt lat="44.8110783" lon="9.5430617"><ele>573.0</ele><time>2026-03-26T11:30:47.986Z</time></trkpt><trkpt lat="44.8110267" lon="9.5429633"><ele>573.0</ele><time>2026-03-26T11:30:49.991Z</time></trkpt><trkpt lat="44.8110267" lon="9.5428683"><ele>573.0</ele><time>2026-03-26T11:30:51.988Z</time></trkpt><trkpt lat="44.811085" lon="9.5427817"><ele>572.6666666666666</ele><time>2026-03-26T11:30:53.988Z</time></trkpt><trkpt lat="44.8111567" lon="9.5426867"><ele>572.3333333333334</ele><time>2026-03-26T11:30:55.987Z</time></trkpt><trkpt lat="44.811205" lon="9.54262"><ele>572.0</ele><time>2026-03-26T11:30:56.987Z</time></trkpt><trkpt lat="44.8112767" lon="9.5424733"><ele>571.6666666666667</ele><time>2026-03-26T11:30:58.986Z</time></trkpt><trkpt lat="44.81131" lon="9.5423917"><ele>571.3333333333334</ele><time>2026-03-26T11:30:59.987Z</time></trkpt><trkpt lat="44.811345" lon="9.5423117"><ele>571.0</ele><time>2026-03-26T11:31:00.986Z</time></trkpt><trkpt lat="44.8113867" lon="9.5421783"><ele>570.8</ele><time>2026-03-26T11:31:02.988Z</time></trkpt><trkpt lat="44.8114033" lon="9.5420383"><ele>570.6</ele><time>2026-03-26T11:31:04.987Z</time></trkpt><trkpt lat="44.8114017" lon="9.5418883"><ele>570.4</ele><time>2026-03-26T11:31:06.986Z</time></trkpt><trkpt lat="44.8113683" lon="9.54173"><ele>570.2</ele><time>2026-03-26T11:31:08.987Z</time></trkpt><trkpt lat="44.8113217" lon="9.5415867"><ele>570.0</ele><time>2026-03-26T11:31:10.987Z</time></trkpt><trkpt lat="44.811275" lon="9.5414717"><ele>570.0</ele><time>2026-03-26T11:31:12.987Z</time></trkpt><trkpt lat="44.811225" lon="9.5413333"><ele>570.0</ele><time>2026-03-26T11:31:14.988Z</time></trkpt><trkpt lat="44.8112033" lon="9.541235"><ele>570.0</ele><time>2026-03-26T11:31:15.986Z</time></trkpt><trkpt lat="44.8111833" lon="9.54114"><ele>570.0</ele><time>2026-03-26T11:31:16.988Z</time></trkpt><trkpt lat="44.8111533" lon="9.541"><ele>570.0</ele><time>2026-03-26T11:31:18.986Z</time></trkpt><trkpt lat="44.811165" lon="9.54089"><ele>570.0</ele><time>2026-03-26T11:31:20.987Z</time></trkpt><trkpt lat="44.8112133" lon="9.540815"><ele>569.4</ele><time>2026-03-26T11:31:22.987Z</time></trkpt><trkpt lat="44.8112883" lon="9.5407783"><ele>568.8</ele><time>2026-03-26T11:31:24.986Z</time></trkpt><trkpt lat="44.8113667" lon="9.540775"><ele>568.2</ele><time>2026-03-26T11:31:26.987Z</time></trkpt><trkpt lat="44.8114467" lon="9.5407733"><ele>567.6</ele><time>2026-03-26T11:31:28.987Z</time></trkpt><trkpt lat="44.8115567" lon="9.5407133"><ele>567.0</ele><time>2026-03-26T11:31:30.987Z</time></trkpt><trkpt lat="44.8116267" lon="9.5406183"><ele>567.0</ele><time>2026-03-26T11:31:32.987Z</time></trkpt><trkpt lat="44.8116767" lon="9.5405083"><ele>567.0</ele><time>2026-03-26T11:31:34.988Z</time></trkpt><trkpt lat="44.8117267" lon="9.540415"><ele>567.0</ele><time>2026-03-26T11:31:36.986Z</time></trkpt><trkpt lat="44.8117983" lon="9.540335"><ele>567.0</ele><time>2026-03-26T11:31:38.988Z</time></trkpt><trkpt lat="44.8118583" lon="9.54026"><ele>567.0</ele><time>2026-03-26T11:31:40.987Z</time></trkpt><trkpt lat="44.8118867" lon="9.54015"><ele>567.0</ele><time>2026-03-26T11:31:42.986Z</time></trkpt><trkpt lat="44.8118717" lon="9.5400283"><ele>563.8000000000001</ele><time>2026-03-26T11:31:44.987Z</time></trkpt><trkpt lat="44.811875" lon="9.5399017"><ele>560.6</ele><time>2026-03-26T11:31:46.987Z</time></trkpt><trkpt lat="44.8119367" lon="9.539795"><ele>557.4000000000001</ele><time>2026-03-26T11:31:48.986Z</time></trkpt><trkpt lat="44.8120267" lon="9.53973"><ele>554.2</ele><time>2026-03-26T11:31:50.987Z</time></trkpt><trkpt lat="44.8121133" lon="9.5397067"><ele>551.0</ele><time>2026-03-26T11:31:52.987Z</time></trkpt><trkpt lat="44.812195" lon="9.5396617"><ele>551.0</ele><time>2026-03-26T11:31:54.986Z</time></trkpt><trkpt lat="44.8122883" lon="9.539585"><ele>551.0</ele><time>2026-03-26T11:31:56.987Z</time></trkpt><trkpt lat="44.8123733" lon="9.53946"><ele>551.0</ele><time>2026-03-26T11:31:58.986Z</time></trkpt><trkpt lat="44.8124283" lon="9.539325"><ele>551.0</ele><time>2026-03-26T11:32:00.986Z</time></trkpt><trkpt lat="44.8124583" lon="9.5392033"><ele>551.0</ele><time>2026-03-26T11:32:02.988Z</time></trkpt><trkpt lat="44.8124717" lon="9.5390983"><ele>550.8333333333333</ele><time>2026-03-26T11:32:04.986Z</time></trkpt><trkpt lat="44.8125083" lon="9.5389867"><ele>550.6666666666666</ele><time>2026-03-26T11:32:06.986Z</time></trkpt><trkpt lat="44.8125733" lon="9.53893"><ele>550.5</ele><time>2026-03-26T11:32:08.986Z</time></trkpt><trkpt lat="44.81266" lon="9.5388967"><ele>550.3333333333334</ele><time>2026-03-26T11:32:10.987Z</time></trkpt><trkpt lat="44.81276" lon="9.53887"><ele>550.1666666666667</ele><time>2026-03-26T11:32:12.986Z</time></trkpt><trkpt lat="44.8128417" lon="9.5388383"><ele>550.0</ele><time>2026-03-26T11:32:14.987Z</time></trkpt><trkpt lat="44.8129033" lon="9.53879"><ele>545.2</ele><time>2026-03-26T11:32:16.988Z</time></trkpt><trkpt lat="44.8129933" lon="9.5387133"><ele>540.4</ele><time>2026-03-26T11:32:18.986Z</time></trkpt><trkpt lat="44.8130833" lon="9.5386117"><ele>535.6</ele><time>2026-03-26T11:32:20.987Z</time></trkpt><trkpt lat="44.8131683" lon="9.5384967"><ele>530.8</ele><time>2026-03-26T11:32:22.986Z</time></trkpt><trkpt lat="44.8132567" lon="9.5384083"><ele>526.0</ele><time>2026-03-26T11:32:24.986Z</time></trkpt><trkpt lat="44.8133317" lon="9.5383117"><ele>526.0</ele><time>2026-03-26T11:32:26.987Z</time></trkpt><trkpt lat="44.8133383" lon="9.5382117"><ele>526.0</ele><time>2026-03-26T11:32:28.986Z</time></trkpt><trkpt lat="44.8133483" lon="9.5380883"><ele>526.0</ele><time>2026-03-26T11:32:30.989Z</time></trkpt><trkpt lat="44.8133917" lon="9.53797"><ele>526.0</ele><time>2026-03-26T11:32:32.988Z</time></trkpt><trkpt lat="44.813465" lon="9.53783"><ele>526.0</ele><time>2026-03-26T11:32:34.988Z</time></trkpt><trkpt lat="44.8135033" lon="9.537755"><ele>526.0</ele><time>2026-03-26T11:32:35.987Z</time></trkpt><trkpt lat="44.8135583" lon="9.5376083"><ele>526.6</ele><time>2026-03-26T11:32:37.987Z</time></trkpt><trkpt lat="44.8135967" lon="9.5374433"><ele>527.2</ele><time>2026-03-26T11:32:39.986Z</time></trkpt><trkpt lat="44.8136117" lon="9.5373017"><ele>527.8</ele><time>2026-03-26T11:32:41.987Z</time></trkpt><trkpt lat="44.8136633" lon="9.5372033"><ele>528.4</ele><time>2026-03-26T11:32:43.988Z</time></trkpt><trkpt lat="44.813745" lon="9.5370933"><ele>529.0</ele><time>2026-03-26T11:32:45.987Z</time></trkpt><trkpt lat="44.8138317" lon="9.5369733"><ele>529.0</ele><time>2026-03-26T11:32:47.987Z</time></trkpt><trkpt lat="44.8139083" lon="9.5368533"><ele>529.0</ele><time>2026-03-26T11:32:49.986Z</time></trkpt><trkpt lat="44.8139933" lon="9.536735"><ele>529.0</ele><time>2026-03-26T11:32:51.986Z</time></trkpt><trkpt lat="44.8140567" lon="9.5366117"><ele>529.0</ele><time>2026-03-26T11:32:53.987Z</time></trkpt><trkpt lat="44.8141267" lon="9.5364833"><ele>529.0</ele><time>2026-03-26T11:32:55.986Z</time></trkpt><trkpt lat="44.814195" lon="9.53638"><ele>529.0</ele><time>2026-03-26T11:32:57.985Z</time></trkpt><trkpt lat="44.814275" lon="9.5362617"><ele>529.0</ele><time>2026-03-26T11:32:59.987Z</time></trkpt><trkpt lat="44.81432" lon="9.536145"><ele>529.0</ele><time>2026-03-26T11:33:01.987Z</time></trkpt><trkpt lat="44.81433" lon="9.5360217"><ele>529.0</ele><time>2026-03-26T11:33:03.985Z</time></trkpt><trkpt lat="44.8143667" lon="9.535905"><ele>529.1666666666667</ele><time>2026-03-26T11:33:05.988Z</time></trkpt><trkpt lat="44.8144167" lon="9.535795"><ele>529.3333333333334</ele><time>2026-03-26T11:33:07.987Z</time></trkpt><trkpt lat="44.8144667" lon="9.5357133"><ele>529.5</ele><time>2026-03-26T11:33:09.986Z</time></trkpt><trkpt lat="44.8144083" lon="9.535635"><ele>529.6666666666666</ele><time>2026-03-26T11:33:13.987Z</time></trkpt><trkpt lat="44.81434" lon="9.5356467"><ele>529.8333333333333</ele><time>2026-03-26T11:33:15.986Z</time></trkpt><trkpt lat="44.8142533" lon="9.5356733"><ele>530.0</ele><time>2026-03-26T11:33:17.986Z</time></trkpt><trkpt lat="44.8143283" lon="9.5356983"><ele>530.0</ele><time>2026-03-26T11:33:38.987Z</time></trkpt><trkpt lat="44.8144033" lon="9.5356833"><ele>530.0</ele><time>2026-03-26T11:33:40.987Z</time></trkpt><trkpt lat="44.8144583" lon="9.5356017"><ele>530.0</ele><time>2026-03-26T11:33:43.987Z</time></trkpt><trkpt lat="44.8143683" lon="9.5355217"><ele>530.0</ele><time>2026-03-26T11:33:46.987Z</time></trkpt><trkpt lat="44.8142617" lon="9.5354533"><ele>530.0</ele><time>2026-03-26T11:33:48.987Z</time></trkpt><trkpt lat="44.814165" lon="9.5353633"><ele>529.1666666666666</ele><time>2026-03-26T11:33:50.988Z</time></trkpt><trkpt lat="44.81412" lon="9.5352967"><ele>528.3333333333333</ele><time>2026-03-26T11:33:51.986Z</time></trkpt><trkpt lat="44.8140717" lon="9.535235"><ele>527.5</ele><time>2026-03-26T11:33:52.987Z</time></trkpt><trkpt lat="44.8139783" lon="9.5351417"><ele>526.6666666666666</ele><time>2026-03-26T11:33:54.986Z</time></trkpt><trkpt lat="44.8138483" lon="9.5351167"><ele>525.8333333333334</ele><time>2026-03-26T11:33:56.986Z</time></trkpt><trkpt lat="44.813775" lon="9.5351217"><ele>525.0</ele><time>2026-03-26T11:33:57.986Z</time></trkpt><trkpt lat="44.8137" lon="9.535115"><ele>525.0</ele><time>2026-03-26T11:33:58.987Z</time></trkpt><trkpt lat="44.8136367" lon="9.53509"><ele>525.0</ele><time>2026-03-26T11:33:59.987Z</time></trkpt><trkpt lat="44.8135283" lon="9.5349733"><ele>525.0</ele><time>2026-03-26T11:34:01.986Z</time></trkpt><trkpt lat="44.81347" lon="9.5348917"><ele>525.0</ele><time>2026-03-26T11:34:02.988Z</time></trkpt><trkpt lat="44.8134083" lon="9.5348083"><ele>525.0</ele><time>2026-03-26T11:34:03.986Z</time></trkpt><trkpt lat="44.81336" lon="9.534725"><ele>525.0</ele><time>2026-03-26T11:34:04.987Z</time></trkpt><trkpt lat="44.8133167" lon="9.5346383"><ele>525.7142857142857</ele><time>2026-03-26T11:34:05.987Z</time></trkpt><trkpt lat="44.81329" lon="9.5345433"><ele>526.4285714285714</ele><time>2026-03-26T11:34:06.986Z</time></trkpt><trkpt lat="44.8132833" lon="9.5344483"><ele>527.1428571428571</ele><time>2026-03-26T11:34:07.987Z</time></trkpt><trkpt lat="44.8132917" lon="9.5343567"><ele>527.8571428571429</ele><time>2026-03-26T11:34:08.987Z</time></trkpt><trkpt lat="44.81331" lon="9.5342633"><ele>528.5714285714286</ele><time>2026-03-26T11:34:09.986Z</time></trkpt><trkpt lat="44.81333" lon="9.5341617"><ele>529.2857142857142</ele><time>2026-03-26T11:34:10.987Z</time></trkpt><trkpt lat="44.8133433" lon="9.5340633"><ele>530.0</ele><time>2026-03-26T11:34:11.987Z</time></trkpt><trkpt lat="44.8133367" lon="9.533975"><ele>530.0</ele><time>2026-03-26T11:34:12.986Z</time></trkpt><trkpt lat="44.8133183" lon="9.5338883"><ele>530.0</ele><time>2026-03-26T11:34:13.986Z</time></trkpt><trkpt lat="44.8132183" lon="9.5337483"><ele>530.0</ele><time>2026-03-26T11:34:15.986Z</time></trkpt><trkpt lat="44.8131533" lon="9.5336717"><ele>530.0</ele><time>2026-03-26T11:34:16.987Z</time></trkpt><trkpt lat="44.81309" lon="9.5335817"><ele>530.0</ele><time>2026-03-26T11:34:17.986Z</time></trkpt><trkpt lat="44.813035" lon="9.5334767"><ele>527.4</ele><time>2026-03-26T11:34:18.987Z</time></trkpt><trkpt lat="44.812985" lon="9.533365"><ele>524.8</ele><time>2026-03-26T11:34:19.986Z</time></trkpt><trkpt lat="44.812945" lon="9.5332517"><ele>522.2</ele><time>2026-03-26T11:34:20.987Z</time></trkpt><trkpt lat="44.8129233" lon="9.5331317"><ele>519.6</ele><time>2026-03-26T11:34:21.987Z</time></trkpt><trkpt lat="44.81291" lon="9.5329917"><ele>517.0</ele><time>2026-03-26T11:34:22.987Z</time></trkpt><trkpt lat="44.8129" lon="9.5328417"><ele>515.4</ele><time>2026-03-26T11:34:23.986Z</time></trkpt><trkpt lat="44.8128983" lon="9.5326933"><ele>513.8000000000001</ele><time>2026-03-26T11:34:24.986Z</time></trkpt><trkpt lat="44.8129" lon="9.5325567"><ele>512.2</ele><time>2026-03-26T11:34:25.987Z</time></trkpt><trkpt lat="44.8129117" lon="9.5324267"><ele>510.6</ele><time>2026-03-26T11:34:26.988Z</time></trkpt><trkpt lat="44.8129383" lon="9.5323083"><ele>509.0</ele><time>2026-03-26T11:34:27.987Z</time></trkpt><trkpt lat="44.8129817" lon="9.53221"><ele>508.99999999999994</ele><time>2026-03-26T11:34:28.987Z</time></trkpt><trkpt lat="44.8130283" lon="9.532125"><ele>509.0</ele><time>2026-03-26T11:34:29.988Z</time></trkpt><trkpt lat="44.81307" lon="9.5320467"><ele>509.0</ele><time>2026-03-26T11:34:30.987Z</time></trkpt><trkpt lat="44.813095" lon="9.5319583"><ele>509.0</ele><time>2026-03-26T11:34:31.987Z</time></trkpt><trkpt lat="44.813065" lon="9.5317883"><ele>508.99999999999994</ele><time>2026-03-26T11:34:33.986Z</time></trkpt><trkpt lat="44.8130283" lon="9.5317033"><ele>509.0</ele><time>2026-03-26T11:34:34.986Z</time></trkpt><trkpt lat="44.81297" lon="9.531635"><ele>508.99999999999994</ele><time>2026-03-26T11:34:35.987Z</time></trkpt><trkpt lat="44.8129217" lon="9.5315583"><ele>509.0</ele><time>2026-03-26T11:34:36.985Z</time></trkpt><trkpt lat="44.8129" lon="9.5314733"><ele>509.0</ele><time>2026-03-26T11:34:37.987Z</time></trkpt><trkpt lat="44.8129183" lon="9.5313683"><ele>509.0</ele><time>2026-03-26T11:34:38.987Z</time></trkpt><trkpt lat="44.812955" lon="9.5312567"><ele>508.99999999999994</ele><time>2026-03-26T11:34:39.986Z</time></trkpt><trkpt lat="44.8130083" lon="9.5311417"><ele>509.0</ele><time>2026-03-26T11:34:40.987Z</time></trkpt><trkpt lat="44.8130667" lon="9.5310317"><ele>509.49999999999994</ele><time>2026-03-26T11:34:41.988Z</time></trkpt><trkpt lat="44.8131167" lon="9.53093"><ele>510.0</ele><time>2026-03-26T11:34:42.987Z</time></trkpt><trkpt lat="44.8131633" lon="9.5308317"><ele>510.5</ele><time>2026-03-26T11:34:43.987Z</time></trkpt><trkpt lat="44.81321" lon="9.5307283"><ele>511.0</ele><time>2026-03-26T11:34:44.988Z</time></trkpt><trkpt lat="44.813265" lon="9.5306217"><ele>511.49999999999994</ele><time>2026-03-26T11:34:45.985Z</time></trkpt><trkpt lat="44.8133283" lon="9.5305283"><ele>512.0</ele><time>2026-03-26T11:34:46.987Z</time></trkpt><trkpt lat="44.8134" lon="9.53045"><ele>511.66666666666663</ele><time>2026-03-26T11:34:47.987Z</time></trkpt><trkpt lat="44.81348" lon="9.5303833"><ele>511.3333333333333</ele><time>2026-03-26T11:34:48.986Z</time></trkpt><trkpt lat="44.8135567" lon="9.53033"><ele>511.0</ele><time>2026-03-26T11:34:49.987Z</time></trkpt><trkpt lat="44.8136317" lon="9.5302717"><ele>510.66666666666663</ele><time>2026-03-26T11:34:50.987Z</time></trkpt><trkpt lat="44.81369" lon="9.53019"><ele>510.3333333333333</ele><time>2026-03-26T11:34:51.987Z</time></trkpt><trkpt lat="44.8137417" lon="9.53008"><ele>510.0</ele><time>2026-03-26T11:34:52.986Z</time></trkpt><trkpt lat="44.8138" lon="9.529965"><ele>507.5</ele><time>2026-03-26T11:34:53.987Z</time></trkpt><trkpt lat="44.81386" lon="9.5298717"><ele>505.0</ele><time>2026-03-26T11:34:54.986Z</time></trkpt><trkpt lat="44.8139133" lon="9.5297883"><ele>502.5</ele><time>2026-03-26T11:34:55.988Z</time></trkpt><trkpt lat="44.81395" lon="9.5296983"><ele>500.0</ele><time>2026-03-26T11:34:56.987Z</time></trkpt><trkpt lat="44.81396" lon="9.529605"><ele>497.5</ele><time>2026-03-26T11:34:57.986Z</time></trkpt><trkpt lat="44.8139567" lon="9.529505"><ele>495.0</ele><time>2026-03-26T11:34:58.988Z</time></trkpt><trkpt lat="44.8139567" lon="9.5294067"><ele>494.71428571428567</ele><time>2026-03-26T11:34:59.988Z</time></trkpt><trkpt lat="44.813965" lon="9.529315"><ele>494.42857142857144</ele><time>2026-03-26T11:35:00.986Z</time></trkpt><trkpt lat="44.8139833" lon="9.52923"><ele>494.1428571428571</ele><time>2026-03-26T11:35:01.987Z</time></trkpt><trkpt lat="44.814035" lon="9.5290783"><ele>493.85714285714283</ele><time>2026-03-26T11:35:03.986Z</time></trkpt><trkpt lat="44.8140667" lon="9.529"><ele>493.57142857142856</ele><time>2026-03-26T11:35:04.986Z</time></trkpt><trkpt lat="44.8141033" lon="9.5289233"><ele>493.2857142857143</ele><time>2026-03-26T11:35:05.988Z</time></trkpt><trkpt lat="44.8141433" lon="9.5288433"><ele>493.0</ele><time>2026-03-26T11:35:06.986Z</time></trkpt><trkpt lat="44.8141917" lon="9.5287617"><ele>491.83333333333337</ele><time>2026-03-26T11:35:07.988Z</time></trkpt><trkpt lat="44.8142467" lon="9.528675"><ele>490.6666666666667</ele><time>2026-03-26T11:35:08.987Z</time></trkpt><trkpt lat="44.8143033" lon="9.528585"><ele>489.5</ele><time>2026-03-26T11:35:09.987Z</time></trkpt><trkpt lat="44.8143583" lon="9.528495"><ele>488.33333333333337</ele><time>2026-03-26T11:35:10.987Z</time></trkpt><trkpt lat="44.8144117" lon="9.5284117"><ele>487.1666666666667</ele><time>2026-03-26T11:35:11.987Z</time></trkpt><trkpt lat="44.8144617" lon="9.5283367"><ele>486.0</ele><time>2026-03-26T11:35:12.985Z</time></trkpt><trkpt lat="44.8145167" lon="9.528275"><ele>485.5</ele><time>2026-03-26T11:35:13.987Z</time></trkpt><trkpt lat="44.8145783" lon="9.5282333"><ele>485.0</ele><time>2026-03-26T11:35:14.987Z</time></trkpt><trkpt lat="44.8146417" lon="9.5282167"><ele>484.5</ele><time>2026-03-26T11:35:15.987Z</time></trkpt><trkpt lat="44.8147033" lon="9.528195"><ele>484.0</ele><time>2026-03-26T11:35:16.987Z</time></trkpt><trkpt lat="44.81481" lon="9.528095"><ele>483.5</ele><time>2026-03-26T11:35:18.987Z</time></trkpt><trkpt lat="44.814855" lon="9.5279983"><ele>483.0</ele><time>2026-03-26T11:35:19.987Z</time></trkpt><trkpt lat="44.8148917" lon="9.5278767"><ele>483.0</ele><time>2026-03-26T11:35:20.987Z</time></trkpt><trkpt lat="44.8149333" lon="9.5277517"><ele>482.99999999999994</ele><time>2026-03-26T11:35:21.987Z</time></trkpt><trkpt lat="44.81498" lon="9.5276233"><ele>482.99999999999994</ele><time>2026-03-26T11:35:22.988Z</time></trkpt><trkpt lat="44.8150383" lon="9.5275233"><ele>483.0</ele><time>2026-03-26T11:35:23.988Z</time></trkpt><trkpt lat="44.815105" lon="9.5274433"><ele>483.0</ele><time>2026-03-26T11:35:24.987Z</time></trkpt><trkpt lat="44.8151817" lon="9.5273767"><ele>481.2</ele><time>2026-03-26T11:35:25.987Z</time></trkpt><trkpt lat="44.81527" lon="9.527315"><ele>479.4</ele><time>2026-03-26T11:35:26.988Z</time></trkpt><trkpt lat="44.8153633" lon="9.5272517"><ele>477.59999999999997</ele><time>2026-03-26T11:35:27.987Z</time></trkpt><trkpt lat="44.81545" lon="9.5271783"><ele>475.79999999999995</ele><time>2026-03-26T11:35:28.988Z</time></trkpt><trkpt lat="44.8155217" lon="9.5270867"><ele>474.0</ele><time>2026-03-26T11:35:29.987Z</time></trkpt><trkpt lat="44.815585" lon="9.52698"><ele>474.0</ele><time>2026-03-26T11:35:30.987Z</time></trkpt><trkpt lat="44.81564" lon="9.526865"><ele>474.0</ele><time>2026-03-26T11:35:31.987Z</time></trkpt><trkpt lat="44.8156983" lon="9.526765"><ele>474.0</ele><time>2026-03-26T11:35:32.988Z</time></trkpt><trkpt lat="44.8157683" lon="9.5266833"><ele>474.0</ele><time>2026-03-26T11:35:33.987Z</time></trkpt><trkpt lat="44.8158467" lon="9.5266217"><ele>474.0</ele><time>2026-03-26T11:35:34.987Z</time></trkpt><trkpt lat="44.81593" lon="9.52657"><ele>474.3333333333333</ele><time>2026-03-26T11:35:35.987Z</time></trkpt><trkpt lat="44.8160117" lon="9.5265217"><ele>474.66666666666663</ele><time>2026-03-26T11:35:36.987Z</time></trkpt><trkpt lat="44.8160917" lon="9.5264683"><ele>475.0</ele><time>2026-03-26T11:35:37.987Z</time></trkpt><trkpt lat="44.8161667" lon="9.5264083"><ele>475.3333333333333</ele><time>2026-03-26T11:35:38.988Z</time></trkpt><trkpt lat="44.8162333" lon="9.52634"><ele>475.66666666666663</ele><time>2026-03-26T11:35:39.986Z</time></trkpt><trkpt lat="44.8162933" lon="9.5262533"><ele>476.0</ele><time>2026-03-26T11:35:40.986Z</time></trkpt><trkpt lat="44.8163433" lon="9.5261517"><ele>476.0</ele><time>2026-03-26T11:35:41.987Z</time></trkpt><trkpt lat="44.8163883" lon="9.5260367"><ele>476.0</ele><time>2026-03-26T11:35:42.986Z</time></trkpt><trkpt lat="44.8164383" lon="9.5259133"><ele>476.0</ele><time>2026-03-26T11:35:43.986Z</time></trkpt><trkpt lat="44.8164967" lon="9.5257917"><ele>476.0</ele><time>2026-03-26T11:35:44.987Z</time></trkpt><trkpt lat="44.81656" lon="9.52567"><ele>476.0</ele><time>2026-03-26T11:35:45.987Z</time></trkpt><trkpt lat="44.8166167" lon="9.5255483"><ele>476.0</ele><time>2026-03-26T11:35:46.986Z</time></trkpt><trkpt lat="44.8166633" lon="9.52542"><ele>476.0</ele><time>2026-03-26T11:35:47.987Z</time></trkpt><trkpt lat="44.8167033" lon="9.5252867"><ele>476.0</ele><time>2026-03-26T11:35:48.986Z</time></trkpt><trkpt lat="44.816735" lon="9.5251533"><ele>476.0</ele><time>2026-03-26T11:35:49.988Z</time></trkpt><trkpt lat="44.8167683" lon="9.5250283"><ele>476.0</ele><time>2026-03-26T11:35:50.987Z</time></trkpt><trkpt lat="44.8168117" lon="9.524915"><ele>477.4</ele><time>2026-03-26T11:35:51.986Z</time></trkpt><trkpt lat="44.816865" lon="9.5248183"><ele>478.8</ele><time>2026-03-26T11:35:52.987Z</time></trkpt><trkpt lat="44.8169267" lon="9.5247167"><ele>480.19999999999993</ele><time>2026-03-26T11:35:53.987Z</time></trkpt><trkpt lat="44.8169933" lon="9.5246067"><ele>481.59999999999997</ele><time>2026-03-26T11:35:54.987Z</time></trkpt><trkpt lat="44.81706" lon="9.524485"><ele>483.0</ele><time>2026-03-26T11:35:55.987Z</time></trkpt><trkpt lat="44.817125" lon="9.52435"><ele>480.2</ele><time>2026-03-26T11:35:56.987Z</time></trkpt><trkpt lat="44.8171933" lon="9.5242133"><ele>477.4</ele><time>2026-03-26T11:35:57.988Z</time></trkpt><trkpt lat="44.817265" lon="9.5240883"><ele>474.59999999999997</ele><time>2026-03-26T11:35:58.986Z</time></trkpt><trkpt lat="44.8173367" lon="9.523975"><ele>471.79999999999995</ele><time>2026-03-26T11:35:59.986Z</time></trkpt><trkpt lat="44.81741" lon="9.5238783"><ele>469.0</ele><time>2026-03-26T11:36:00.986Z</time></trkpt><trkpt lat="44.8174867" lon="9.523785"><ele>468.6</ele><time>2026-03-26T11:36:01.987Z</time></trkpt><trkpt lat="44.8175683" lon="9.5236817"><ele>468.2</ele><time>2026-03-26T11:36:02.987Z</time></trkpt><trkpt lat="44.8176483" lon="9.5235767"><ele>467.80000000000007</ele><time>2026-03-26T11:36:03.986Z</time></trkpt><trkpt lat="44.8177267" lon="9.52347"><ele>467.40000000000003</ele><time>2026-03-26T11:36:04.987Z</time></trkpt><trkpt lat="44.8178" lon="9.5233633"><ele>467.0</ele><time>2026-03-26T11:36:05.987Z</time></trkpt><trkpt lat="44.8178683" lon="9.5232517"><ele>467.0</ele><time>2026-03-26T11:36:06.986Z</time></trkpt><trkpt lat="44.8179283" lon="9.5231333"><ele>467.00000000000006</ele><time>2026-03-26T11:36:07.987Z</time></trkpt><trkpt lat="44.8179833" lon="9.52301"><ele>467.00000000000006</ele><time>2026-03-26T11:36:08.987Z</time></trkpt><trkpt lat="44.8180317" lon="9.5228783"><ele>467.0</ele><time>2026-03-26T11:36:09.986Z</time></trkpt><trkpt lat="44.8180717" lon="9.5227333"><ele>467.0</ele><time>2026-03-26T11:36:10.986Z</time></trkpt><trkpt lat="44.81811" lon="9.522575"><ele>463.8</ele><time>2026-03-26T11:36:11.986Z</time></trkpt><trkpt lat="44.8181417" lon="9.5224167"><ele>460.6</ele><time>2026-03-26T11:36:12.986Z</time></trkpt><trkpt lat="44.8181633" lon="9.52226"><ele>457.40000000000003</ele><time>2026-03-26T11:36:13.987Z</time></trkpt><trkpt lat="44.8181767" lon="9.522105"><ele>454.20000000000005</ele><time>2026-03-26T11:36:14.989Z</time></trkpt><trkpt lat="44.8181817" lon="9.5219533"><ele>451.0</ele><time>2026-03-26T11:36:15.986Z</time></trkpt><trkpt lat="44.818185" lon="9.5218083"><ele>448.0</ele><time>2026-03-26T11:36:16.986Z</time></trkpt><trkpt lat="44.81819" lon="9.5216683"><ele>445.0</ele><time>2026-03-26T11:36:17.987Z</time></trkpt><trkpt lat="44.8182017" lon="9.52153"><ele>442.0</ele><time>2026-03-26T11:36:18.986Z</time></trkpt><trkpt lat="44.8182217" lon="9.5213933"><ele>439.0</ele><time>2026-03-26T11:36:19.987Z</time></trkpt><trkpt lat="44.8182483" lon="9.521255"><ele>436.0</ele><time>2026-03-26T11:36:20.987Z</time></trkpt><trkpt lat="44.8182783" lon="9.5211167"><ele>434.8</ele><time>2026-03-26T11:36:21.986Z</time></trkpt><trkpt lat="44.8183067" lon="9.520985"><ele>433.6</ele><time>2026-03-26T11:36:22.987Z</time></trkpt><trkpt lat="44.818335" lon="9.52086"><ele>432.4</ele><time>2026-03-26T11:36:23.987Z</time></trkpt><trkpt lat="44.8183617" lon="9.5207367"><ele>431.2</ele><time>2026-03-26T11:36:24.986Z</time></trkpt><trkpt lat="44.818385" lon="9.5206133"><ele>430.0</ele><time>2026-03-26T11:36:25.986Z</time></trkpt><trkpt lat="44.81841" lon="9.5204867"><ele>429.00000000000006</ele><time>2026-03-26T11:36:26.987Z</time></trkpt><trkpt lat="44.8184367" lon="9.520355"><ele>428.0</ele><time>2026-03-26T11:36:27.986Z</time></trkpt><trkpt lat="44.8184617" lon="9.5202233"><ele>427.0</ele><time>2026-03-26T11:36:28.987Z</time></trkpt><trkpt lat="44.8184817" lon="9.520105"><ele>426.0</ele><time>2026-03-26T11:36:29.987Z</time></trkpt><trkpt lat="44.8184967" lon="9.519995"><ele>425.00000000000006</ele><time>2026-03-26T11:36:30.987Z</time></trkpt><trkpt lat="44.8185067" lon="9.5198867"><ele>424.0</ele><time>2026-03-26T11:36:31.987Z</time></trkpt><trkpt lat="44.8185033" lon="9.519785"><ele>424.0</ele><time>2026-03-26T11:36:32.987Z</time></trkpt><trkpt lat="44.818485" lon="9.5196933"><ele>424.0</ele><time>2026-03-26T11:36:33.986Z</time></trkpt><trkpt lat="44.8184017" lon="9.519565"><ele>424.0</ele><time>2026-03-26T11:36:35.986Z</time></trkpt><trkpt lat="44.81828" lon="9.5195483"><ele>424.0</ele><time>2026-03-26T11:36:37.986Z</time></trkpt><trkpt lat="44.8182117" lon="9.5196033"><ele>424.0</ele><time>2026-03-26T11:36:38.987Z</time></trkpt><trkpt lat="44.8181483" lon="9.5196833"><ele>424.00000000000006</ele><time>2026-03-26T11:36:39.986Z</time></trkpt><trkpt lat="44.8180883" lon="9.51978"><ele>424.0</ele><time>2026-03-26T11:36:40.984Z</time></trkpt><trkpt lat="44.81803" lon="9.5198833"><ele>424.0</ele><time>2026-03-26T11:36:41.986Z</time></trkpt><trkpt lat="44.817975" lon="9.5199833"><ele>424.0</ele><time>2026-03-26T11:36:42.986Z</time></trkpt><trkpt lat="44.8179217" lon="9.52008"><ele>424.00000000000006</ele><time>2026-03-26T11:36:43.986Z</time></trkpt><trkpt lat="44.8178683" lon="9.52016"><ele>424.0</ele><time>2026-03-26T11:36:44.987Z</time></trkpt><trkpt lat="44.8178117" lon="9.5202133"><ele>424.0</ele><time>2026-03-26T11:36:45.986Z</time></trkpt><trkpt lat="44.8177067" lon="9.5201867"><ele>424.0</ele><time>2026-03-26T11:36:47.986Z</time></trkpt><trkpt lat="44.8176733" lon="9.52004"><ele>424.0</ele><time>2026-03-26T11:36:49.986Z</time></trkpt><trkpt lat="44.8176767" lon="9.5199417"><ele>424.0</ele><time>2026-03-26T11:36:50.988Z</time></trkpt><trkpt lat="44.8176917" lon="9.5198317"><ele>424.0</ele><time>2026-03-26T11:36:51.986Z</time></trkpt><trkpt lat="44.8177133" lon="9.5197167"><ele>424.0</ele><time>2026-03-26T11:36:52.987Z</time></trkpt><trkpt lat="44.81773" lon="9.51961"><ele>424.0</ele><time>2026-03-26T11:36:53.987Z</time></trkpt><trkpt lat="44.8177383" lon="9.5195067"><ele>424.0</ele><time>2026-03-26T11:36:54.986Z</time></trkpt><trkpt lat="44.8177417" lon="9.51941"><ele>424.0</ele><time>2026-03-26T11:36:55.987Z</time></trkpt><trkpt lat="44.817745" lon="9.5193133"><ele>424.0</ele><time>2026-03-26T11:36:56.987Z</time></trkpt><trkpt lat="44.8177583" lon="9.5192183"><ele>424.0</ele><time>2026-03-26T11:36:57.986Z</time></trkpt><trkpt lat="44.8177817" lon="9.5191317"><ele>424.0</ele><time>2026-03-26T11:36:58.987Z</time></trkpt><trkpt lat="44.817845" lon="9.5189917"><ele>421.6</ele><time>2026-03-26T11:37:00.986Z</time></trkpt><trkpt lat="44.8179467" lon="9.5188917"><ele>419.2</ele><time>2026-03-26T11:37:02.988Z</time></trkpt><trkpt lat="44.8180183" lon="9.518855"><ele>416.8</ele><time>2026-03-26T11:37:03.986Z</time></trkpt><trkpt lat="44.8180983" lon="9.51882"><ele>414.40000000000003</ele><time>2026-03-26T11:37:04.986Z</time></trkpt><trkpt lat="44.8181817" lon="9.518785"><ele>412.0</ele><time>2026-03-26T11:37:05.986Z</time></trkpt><trkpt lat="44.8182633" lon="9.5187433"><ele>409.33333333333337</ele><time>2026-03-26T11:37:06.986Z</time></trkpt><trkpt lat="44.8183333" lon="9.5186783"><ele>406.6666666666667</ele><time>2026-03-26T11:37:07.986Z</time></trkpt><trkpt lat="44.818385" lon="9.5185917"><ele>404.0</ele><time>2026-03-26T11:37:08.987Z</time></trkpt><trkpt lat="44.8184217" lon="9.5184917"><ele>401.33333333333337</ele><time>2026-03-26T11:37:09.987Z</time></trkpt><trkpt lat="44.8184467" lon="9.5183883"><ele>398.6666666666667</ele><time>2026-03-26T11:37:10.985Z</time></trkpt><trkpt lat="44.81848" lon="9.5182833"><ele>396.0</ele><time>2026-03-26T11:37:11.986Z</time></trkpt><trkpt lat="44.8185167" lon="9.5181833"><ele>394.6666666666667</ele><time>2026-03-26T11:37:12.985Z</time></trkpt><trkpt lat="44.8185733" lon="9.51809"><ele>393.33333333333337</ele><time>2026-03-26T11:37:13.985Z</time></trkpt><trkpt lat="44.818635" lon="9.5179983"><ele>392.0</ele><time>2026-03-26T11:37:14.988Z</time></trkpt><trkpt lat="44.8186917" lon="9.5178983"><ele>390.6666666666667</ele><time>2026-03-26T11:37:15.986Z</time></trkpt><trkpt lat="44.8187417" lon="9.5177933"><ele>389.33333333333337</ele><time>2026-03-26T11:37:16.985Z</time></trkpt><trkpt lat="44.8187833" lon="9.51769"><ele>388.0</ele><time>2026-03-26T11:37:17.987Z</time></trkpt><trkpt lat="44.81883" lon="9.517595"><ele>387.1666666666667</ele><time>2026-03-26T11:37:18.99Z</time></trkpt><trkpt lat="44.818875" lon="9.5175033"><ele>386.33333333333337</ele><time>2026-03-26T11:37:19.986Z</time></trkpt><trkpt lat="44.8189217" lon="9.5174133"><ele>385.5</ele><time>2026-03-26T11:37:20.986Z</time></trkpt><trkpt lat="44.818975" lon="9.5173283"><ele>384.6666666666667</ele><time>2026-03-26T11:37:21.986Z</time></trkpt><trkpt lat="44.8190283" lon="9.5172467"><ele>383.83333333333337</ele><time>2026-03-26T11:37:22.986Z</time></trkpt><trkpt lat="44.8190733" lon="9.5171633"><ele>383.0</ele><time>2026-03-26T11:37:23.987Z</time></trkpt><trkpt lat="44.8191083" lon="9.51707"><ele>381.83333333333337</ele><time>2026-03-26T11:37:24.987Z</time></trkpt><trkpt lat="44.8191183" lon="9.5169633"><ele>380.6666666666667</ele><time>2026-03-26T11:37:25.987Z</time></trkpt><trkpt lat="44.8190933" lon="9.51686"><ele>379.5</ele><time>2026-03-26T11:37:26.987Z</time></trkpt><trkpt lat="44.81905" lon="9.5167617"><ele>378.3333333333333</ele><time>2026-03-26T11:37:27.986Z</time></trkpt><trkpt lat="44.81899" lon="9.51668"><ele>377.16666666666663</ele><time>2026-03-26T11:37:28.987Z</time></trkpt><trkpt lat="44.818935" lon="9.5166017"><ele>376.0</ele><time>2026-03-26T11:37:29.986Z</time></trkpt><trkpt lat="44.8188683" lon="9.5165367"><ele>376.0</ele><time>2026-03-26T11:37:30.986Z</time></trkpt><trkpt lat="44.8188017" lon="9.516495"><ele>376.0</ele><time>2026-03-26T11:37:31.985Z</time></trkpt><trkpt lat="44.8187367" lon="9.5164883"><ele>376.0</ele><time>2026-03-26T11:37:32.987Z</time></trkpt><trkpt lat="44.8186667" lon="9.5165167"><ele>376.0</ele><time>2026-03-26T11:37:33.986Z</time></trkpt><trkpt lat="44.8185983" lon="9.5165967"><ele>376.0</ele><time>2026-03-26T11:37:34.987Z</time></trkpt><trkpt lat="44.8185517" lon="9.516695"><ele>376.0</ele><time>2026-03-26T11:37:35.987Z</time></trkpt><trkpt lat="44.818505" lon="9.516785"><ele>375.4</ele><time>2026-03-26T11:37:36.986Z</time></trkpt><trkpt lat="44.8184083" lon="9.5168617"><ele>374.8</ele><time>2026-03-26T11:37:38.987Z</time></trkpt><trkpt lat="44.8183333" lon="9.5167917"><ele>374.2</ele><time>2026-03-26T11:37:40.987Z</time></trkpt><trkpt lat="44.8183" lon="9.5166933"><ele>373.59999999999997</ele><time>2026-03-26T11:37:41.987Z</time></trkpt><trkpt lat="44.8182733" lon="9.5165783"><ele>373.0</ele><time>2026-03-26T11:37:42.985Z</time></trkpt><trkpt lat="44.818245" lon="9.5164517"><ele>373.0</ele><time>2026-03-26T11:37:43.985Z</time></trkpt><trkpt lat="44.8182167" lon="9.5163217"><ele>373.0</ele><time>2026-03-26T11:37:44.987Z</time></trkpt><trkpt lat="44.81818" lon="9.51619"><ele>373.0</ele><time>2026-03-26T11:37:45.986Z</time></trkpt><trkpt lat="44.8181383" lon="9.5160583"><ele>373.0</ele><time>2026-03-26T11:37:46.986Z</time></trkpt><trkpt lat="44.81809" lon="9.51593"><ele>373.0</ele><time>2026-03-26T11:37:47.986Z</time></trkpt><trkpt lat="44.8180383" lon="9.5158033"><ele>371.4</ele><time>2026-03-26T11:37:48.986Z</time></trkpt><trkpt lat="44.817985" lon="9.5156767"><ele>369.79999999999995</ele><time>2026-03-26T11:37:49.987Z</time></trkpt><trkpt lat="44.81793" lon="9.5155533"><ele>368.2</ele><time>2026-03-26T11:37:50.986Z</time></trkpt><trkpt lat="44.8178733" lon="9.5154333"><ele>366.6</ele><time>2026-03-26T11:37:51.987Z</time></trkpt><trkpt lat="44.8178133" lon="9.5153133"><ele>365.0</ele><time>2026-03-26T11:37:52.987Z</time></trkpt><trkpt lat="44.81775" lon="9.5152"><ele>362.33333333333337</ele><time>2026-03-26T11:37:53.986Z</time></trkpt><trkpt lat="44.8176883" lon="9.5150883"><ele>359.6666666666667</ele><time>2026-03-26T11:37:54.986Z</time></trkpt><trkpt lat="44.8176383" lon="9.5149833"><ele>357.0</ele><time>2026-03-26T11:37:55.988Z</time></trkpt><trkpt lat="44.8176083" lon="9.5148733"><ele>354.3333333333333</ele><time>2026-03-26T11:37:56.987Z</time></trkpt><trkpt lat="44.8176033" lon="9.5147667"><ele>351.66666666666663</ele><time>2026-03-26T11:37:57.986Z</time></trkpt><trkpt lat="44.817625" lon="9.514665"><ele>349.0</ele><time>2026-03-26T11:37:58.987Z</time></trkpt><trkpt lat="44.8176633" lon="9.51458"><ele>346.8333333333333</ele><time>2026-03-26T11:37:59.986Z</time></trkpt><trkpt lat="44.8177217" lon="9.514515"><ele>344.66666666666663</ele><time>2026-03-26T11:38:00.986Z</time></trkpt><trkpt lat="44.817795" lon="9.5144683"><ele>342.5</ele><time>2026-03-26T11:38:01.987Z</time></trkpt><trkpt lat="44.81787" lon="9.5144133"><ele>340.3333333333333</ele><time>2026-03-26T11:38:02.987Z</time></trkpt><trkpt lat="44.8179367" lon="9.5143383"><ele>338.1666666666667</ele><time>2026-03-26T11:38:03.987Z</time></trkpt><trkpt lat="44.81799" lon="9.514235"><ele>336.0</ele><time>2026-03-26T11:38:04.986Z</time></trkpt><trkpt lat="44.8180333" lon="9.514115"><ele>336.0</ele><time>2026-03-26T11:38:05.986Z</time></trkpt><trkpt lat="44.8180617" lon="9.5139783"><ele>336.0</ele><time>2026-03-26T11:38:06.986Z</time></trkpt><trkpt lat="44.818075" lon="9.51384"><ele>336.0</ele><time>2026-03-26T11:38:07.987Z</time></trkpt><trkpt lat="44.8180833" lon="9.5137"><ele>336.0</ele><time>2026-03-26T11:38:08.988Z</time></trkpt><trkpt lat="44.8180883" lon="9.5135633"><ele>336.0</ele><time>2026-03-26T11:38:09.986Z</time></trkpt><trkpt lat="44.8180917" lon="9.513435"><ele>333.4</ele><time>2026-03-26T11:38:10.986Z</time></trkpt><trkpt lat="44.8180967" lon="9.5133083"><ele>330.8</ele><time>2026-03-26T11:38:11.988Z</time></trkpt><trkpt lat="44.8180983" lon="9.51318"><ele>328.2</ele><time>2026-03-26T11:38:12.986Z</time></trkpt><trkpt lat="44.8181" lon="9.513055"><ele>325.59999999999997</ele><time>2026-03-26T11:38:13.987Z</time></trkpt><trkpt lat="44.8181017" lon="9.5129217"><ele>323.0</ele><time>2026-03-26T11:38:14.988Z</time></trkpt><trkpt lat="44.8181" lon="9.51279"><ele>321.6666666666667</ele><time>2026-03-26T11:38:15.986Z</time></trkpt><trkpt lat="44.8180983" lon="9.5126633"><ele>320.33333333333337</ele><time>2026-03-26T11:38:16.987Z</time></trkpt><trkpt lat="44.8180967" lon="9.512545"><ele>319.0</ele><time>2026-03-26T11:38:17.99Z</time></trkpt><trkpt lat="44.8180933" lon="9.512435"><ele>317.6666666666667</ele><time>2026-03-26T11:38:18.987Z</time></trkpt><trkpt lat="44.818085" lon="9.5123367"><ele>316.3333333333333</ele><time>2026-03-26T11:38:19.986Z</time></trkpt><trkpt lat="44.8180717" lon="9.512245"><ele>315.0</ele><time>2026-03-26T11:38:20.988Z</time></trkpt><trkpt lat="44.81805" lon="9.5121583"><ele>315.0</ele><time>2026-03-26T11:38:21.986Z</time></trkpt><trkpt lat="44.81802" lon="9.5120767"><ele>315.0</ele><time>2026-03-26T11:38:22.986Z</time></trkpt><trkpt lat="44.817985" lon="9.5119917"><ele>315.0</ele><time>2026-03-26T11:38:23.986Z</time></trkpt><trkpt lat="44.817945" lon="9.511905"><ele>315.0</ele><time>2026-03-26T11:38:24.986Z</time></trkpt><trkpt lat="44.817905" lon="9.511815"><ele>315.0</ele><time>2026-03-26T11:38:25.987Z</time></trkpt><trkpt lat="44.81787" lon="9.511735"><ele>315.0</ele><time>2026-03-26T11:38:26.986Z</time></trkpt><trkpt lat="44.8178217" lon="9.511605"><ele>313.42857142857144</ele><time>2026-03-26T11:38:28.987Z</time></trkpt><trkpt lat="44.81775" lon="9.5114767"><ele>311.8571428571429</ele><time>2026-03-26T11:39:42.986Z</time></trkpt><trkpt lat="44.81773" lon="9.5113917"><ele>310.2857142857143</ele><time>2026-03-26T11:39:43.985Z</time></trkpt><trkpt lat="44.8177133" lon="9.5113033"><ele>308.7142857142857</ele><time>2026-03-26T11:39:44.987Z</time></trkpt><trkpt lat="44.817705" lon="9.5112133"><ele>307.14285714285717</ele><time>2026-03-26T11:39:45.986Z</time></trkpt><trkpt lat="44.8177017" lon="9.5111233"><ele>305.57142857142856</ele><time>2026-03-26T11:39:46.986Z</time></trkpt><trkpt lat="44.8177067" lon="9.5110333"><ele>304.0</ele><time>2026-03-26T11:39:47.986Z</time></trkpt><trkpt lat="44.817765" lon="9.510895"><ele>302.5</ele><time>2026-03-26T11:39:49.986Z</time></trkpt><trkpt lat="44.817875" lon="9.510895"><ele>301.0</ele><time>2026-03-26T11:39:51.986Z</time></trkpt><trkpt lat="44.8179317" lon="9.51095"><ele>299.5</ele><time>2026-03-26T11:39:52.988Z</time></trkpt><trkpt lat="44.8179833" lon="9.5110217"><ele>298.0</ele><time>2026-03-26T11:39:53.988Z</time></trkpt><trkpt lat="44.81803" lon="9.511095"><ele>296.5</ele><time>2026-03-26T11:39:54.986Z</time></trkpt><trkpt lat="44.8181217" lon="9.511175"><ele>295.0</ele><time>2026-03-26T11:39:56.987Z</time></trkpt><trkpt lat="44.8181717" lon="9.5110817"><ele>295.0</ele><time>2026-03-26T11:39:58.986Z</time></trkpt><trkpt lat="44.81814" lon="9.51089"><ele>295.0</ele><time>2026-03-26T11:40:00.986Z</time></trkpt><trkpt lat="44.8180917" lon="9.51077"><ele>295.0</ele><time>2026-03-26T11:40:01.987Z</time></trkpt><trkpt lat="44.8180267" lon="9.51064"><ele>295.0</ele><time>2026-03-26T11:40:02.987Z</time></trkpt><trkpt lat="44.8179617" lon="9.5105217"><ele>295.0</ele><time>2026-03-26T11:40:03.985Z</time></trkpt><trkpt lat="44.817895" lon="9.510425"><ele>295.0</ele><time>2026-03-26T11:40:04.986Z</time></trkpt><trkpt lat="44.81783" lon="9.510345"><ele>295.0</ele><time>2026-03-26T11:40:05.987Z</time></trkpt><trkpt lat="44.8177517" lon="9.5102783"><ele>295.0</ele><time>2026-03-26T11:40:06.987Z</time></trkpt><trkpt lat="44.8176467" lon="9.5102183"><ele>295.0</ele><time>2026-03-26T11:40:07.987Z</time></trkpt><trkpt lat="44.8175333" lon="9.5101617"><ele>293.25</ele><time>2026-03-26T11:40:08.987Z</time></trkpt><trkpt lat="44.8174233" lon="9.5100967"><ele>291.5</ele><time>2026-03-26T11:40:09.986Z</time></trkpt><trkpt lat="44.8173167" lon="9.51002"><ele>289.75</ele><time>2026-03-26T11:40:10.987Z</time></trkpt><trkpt lat="44.81722" lon="9.509935"><ele>288.0</ele><time>2026-03-26T11:40:11.985Z</time></trkpt><trkpt lat="44.8171333" lon="9.5098367"><ele>288.0</ele><time>2026-03-26T11:40:12.986Z</time></trkpt><trkpt lat="44.81705" lon="9.5097317"><ele>288.0</ele><time>2026-03-26T11:40:13.987Z</time></trkpt><trkpt lat="44.8169667" lon="9.50963"><ele>288.0</ele><time>2026-03-26T11:40:14.987Z</time></trkpt><trkpt lat="44.8168867" lon="9.50954"><ele>288.0</ele><time>2026-03-26T11:40:15.986Z</time></trkpt><trkpt lat="44.81682" lon="9.509475"><ele>288.0</ele><time>2026-03-26T11:40:16.986Z</time></trkpt><trkpt lat="44.816765" lon="9.5094117"><ele>286.1666666666667</ele><time>2026-03-26T11:40:17.986Z</time></trkpt><trkpt lat="44.81672" lon="9.50934"><ele>284.3333333333333</ele><time>2026-03-26T11:40:18.986Z</time></trkpt><trkpt lat="44.81666" lon="9.5092083"><ele>282.5</ele><time>2026-03-26T11:40:20.987Z</time></trkpt><trkpt lat="44.8166233" lon="9.50911"><ele>280.66666666666663</ele><time>2026-03-26T11:40:22.986Z</time></trkpt><trkpt lat="44.8165883" lon="9.5089783"><ele>278.8333333333333</ele><time>2026-03-26T11:40:25.987Z</time></trkpt><trkpt lat="44.8165733" lon="9.508875"><ele>277.0</ele><time>2026-03-26T11:40:27.986Z</time></trkpt><trkpt lat="44.816555" lon="9.508765"><ele>274.85714285714283</ele><time>2026-03-26T11:40:29.987Z</time></trkpt><trkpt lat="44.81654" lon="9.5086633"><ele>272.71428571428567</ele><time>2026-03-26T11:40:31.986Z</time></trkpt><trkpt lat="44.8165433" lon="9.5085683"><ele>270.57142857142856</ele><time>2026-03-26T11:40:34.987Z</time></trkpt><trkpt lat="44.8165717" lon="9.508475"><ele>268.42857142857144</ele><time>2026-03-26T11:40:49.986Z</time></trkpt><trkpt lat="44.8166217" lon="9.5083933"><ele>266.28571428571433</ele><time>2026-03-26T11:40:52.986Z</time></trkpt><trkpt lat="44.8166533" lon="9.5083117"><ele>264.14285714285717</ele><time>2026-03-26T11:40:54.987Z</time></trkpt><trkpt lat="44.8166833" lon="9.5082283"><ele>262.0</ele><time>2026-03-26T11:40:56.987Z</time></trkpt><trkpt lat="44.81668" lon="9.50812"><ele>262.0</ele><time>2026-03-26T11:40:59.986Z</time></trkpt><trkpt lat="44.816585" lon="9.5080817"><ele>262.0</ele><time>2026-03-26T11:41:02.987Z</time></trkpt><trkpt lat="44.8164983" lon="9.5080617"><ele>262.0</ele><time>2026-03-26T11:41:04.987Z</time></trkpt><trkpt lat="44.8164317" lon="9.508025"><ele>262.0</ele><time>2026-03-26T11:41:06.986Z</time></trkpt><trkpt lat="44.8164017" lon="9.5079367"><ele>262.0</ele><time>2026-03-26T11:41:08.987Z</time></trkpt><trkpt lat="44.8164533" lon="9.5078433"><ele>262.0</ele><time>2026-03-26T11:41:11.986Z</time></trkpt><trkpt lat="44.8165367" lon="9.50777"><ele>257.6</ele><time>2026-03-26T11:41:14.987Z</time></trkpt><trkpt lat="44.8165833" lon="9.50771"><ele>253.2</ele><time>2026-03-26T11:41:16.986Z</time></trkpt><trkpt lat="44.816665" lon="9.5076283"><ele>248.8</ele><time>2026-03-26T11:41:19.987Z</time></trkpt><trkpt lat="44.816785" lon="9.50756"><ele>244.4</ele><time>2026-03-26T11:41:21.986Z</time></trkpt><trkpt lat="44.8168617" lon="9.5075283"><ele>240.0</ele><time>2026-03-26T11:41:22.987Z</time></trkpt><trkpt lat="44.8169383" lon="9.5075117"><ele>239.33333333333334</ele><time>2026-03-26T11:41:23.987Z</time></trkpt><trkpt lat="44.81701" lon="9.5075317"><ele>238.66666666666669</ele><time>2026-03-26T11:41:24.987Z</time></trkpt><trkpt lat="44.8170833" lon="9.5075817"><ele>238.0</ele><time>2026-03-26T11:41:25.986Z</time></trkpt><trkpt lat="44.817155" lon="9.50767"><ele>237.33333333333334</ele><time>2026-03-26T11:41:26.986Z</time></trkpt><trkpt lat="44.81724" lon="9.5077383"><ele>236.66666666666669</ele><time>2026-03-26T11:41:27.985Z</time></trkpt><trkpt lat="44.8173367" lon="9.5077683"><ele>236.0</ele><time>2026-03-26T11:41:28.986Z</time></trkpt><trkpt lat="44.8174333" lon="9.5077733"><ele>236.00000000000003</ele><time>2026-03-26T11:41:29.986Z</time></trkpt><trkpt lat="44.8175233" lon="9.50777"><ele>236.0</ele><time>2026-03-26T11:41:30.987Z</time></trkpt><trkpt lat="44.8176117" lon="9.5077783"><ele>236.0</ele><time>2026-03-26T11:41:31.987Z</time></trkpt><trkpt lat="44.817695" lon="9.5078033"><ele>236.0</ele><time>2026-03-26T11:41:32.987Z</time></trkpt><trkpt lat="44.8177783" lon="9.507815"><ele>236.00000000000003</ele><time>2026-03-26T11:41:33.987Z</time></trkpt><trkpt lat="44.81786" lon="9.507795"><ele>236.0</ele><time>2026-03-26T11:41:34.987Z</time></trkpt><trkpt lat="44.8179417" lon="9.5077433"><ele>235.60000000000002</ele><time>2026-03-26T11:41:35.986Z</time></trkpt><trkpt lat="44.8180233" lon="9.5076733"><ele>235.20000000000002</ele><time>2026-03-26T11:41:36.987Z</time></trkpt><trkpt lat="44.8181067" lon="9.507615"><ele>234.79999999999998</ele><time>2026-03-26T11:41:37.986Z</time></trkpt><trkpt lat="44.8181883" lon="9.507545"><ele>234.39999999999998</ele><time>2026-03-26T11:41:38.987Z</time></trkpt><trkpt lat="44.818255" lon="9.50745"><ele>234.0</ele><time>2026-03-26T11:41:39.986Z</time></trkpt><trkpt lat="44.8183083" lon="9.507335"><ele>234.0</ele><time>2026-03-26T11:41:40.986Z</time></trkpt><trkpt lat="44.8183583" lon="9.5072183"><ele>234.0</ele><time>2026-03-26T11:41:41.987Z</time></trkpt><trkpt lat="44.8184133" lon="9.5071183"><ele>234.0</ele><time>2026-03-26T11:41:42.986Z</time></trkpt><trkpt lat="44.8184783" lon="9.50704"><ele>234.0</ele><time>2026-03-26T11:41:43.986Z</time></trkpt><trkpt lat="44.818555" lon="9.5069983"><ele>234.0</ele><time>2026-03-26T11:41:44.988Z</time></trkpt><trkpt lat="44.8186417" lon="9.5070233"><ele>234.0</ele><time>2026-03-26T11:41:45.986Z</time></trkpt><trkpt lat="44.81873" lon="9.5070783"><ele>233.5</ele><time>2026-03-26T11:41:46.987Z</time></trkpt><trkpt lat="44.81881" lon="9.5071533"><ele>233.0</ele><time>2026-03-26T11:41:47.987Z</time></trkpt><trkpt lat="44.81889" lon="9.507215"><ele>232.5</ele><time>2026-03-26T11:41:48.986Z</time></trkpt><trkpt lat="44.8189717" lon="9.5072517"><ele>232.0</ele><time>2026-03-26T11:41:49.986Z</time></trkpt><trkpt lat="44.819055" lon="9.5072417"><ele>231.5</ele><time>2026-03-26T11:41:50.987Z</time></trkpt><trkpt lat="44.8191333" lon="9.5071967"><ele>231.0</ele><time>2026-03-26T11:41:51.986Z</time></trkpt><trkpt lat="44.8192083" lon="9.5071267"><ele>230.4</ele><time>2026-03-26T11:41:52.986Z</time></trkpt><trkpt lat="44.81927" lon="9.507025"><ele>229.8</ele><time>2026-03-26T11:41:53.987Z</time></trkpt><trkpt lat="44.8192917" lon="9.50689"><ele>229.20000000000002</ele><time>2026-03-26T11:41:54.987Z</time></trkpt><trkpt lat="44.8193017" lon="9.50676"><ele>228.60000000000002</ele><time>2026-03-26T11:41:55.986Z</time></trkpt><trkpt lat="44.8193283" lon="9.5066467"><ele>228.0</ele><time>2026-03-26T11:41:56.986Z</time></trkpt><trkpt lat="44.8193783" lon="9.5065517"><ele>228.0</ele><time>2026-03-26T11:41:57.986Z</time></trkpt><trkpt lat="44.819445" lon="9.5064667"><ele>228.0</ele><time>2026-03-26T11:41:58.987Z</time></trkpt><trkpt lat="44.819525" lon="9.5063883"><ele>228.0</ele><time>2026-03-26T11:41:59.987Z</time></trkpt><trkpt lat="44.8196" lon="9.5063117"><ele>228.0</ele><time>2026-03-26T11:42:00.986Z</time></trkpt><trkpt lat="44.8196783" lon="9.5062417"><ele>228.0</ele><time>2026-03-26T11:42:01.986Z</time></trkpt><trkpt lat="44.81976" lon="9.5061933"><ele>225.0</ele><time>2026-03-26T11:42:02.985Z</time></trkpt><trkpt lat="44.8198467" lon="9.50617"><ele>222.0</ele><time>2026-03-26T11:42:03.986Z</time></trkpt><trkpt lat="44.8199417" lon="9.506155"><ele>219.0</ele><time>2026-03-26T11:42:04.986Z</time></trkpt><trkpt lat="44.8200383" lon="9.5061333"><ele>216.0</ele><time>2026-03-26T11:42:05.987Z</time></trkpt><trkpt lat="44.8201333" lon="9.5060883"><ele>213.0</ele><time>2026-03-26T11:42:06.986Z</time></trkpt><trkpt lat="44.8202217" lon="9.5060233"><ele>213.0</ele><time>2026-03-26T11:42:07.987Z</time></trkpt><trkpt lat="44.820305" lon="9.505955"><ele>213.0</ele><time>2026-03-26T11:42:08.987Z</time></trkpt><trkpt lat="44.8203867" lon="9.5058933"><ele>213.0</ele><time>2026-03-26T11:42:09.986Z</time></trkpt><trkpt lat="44.8204633" lon="9.5058333"><ele>213.0</ele><time>2026-03-26T11:42:10.987Z</time></trkpt><trkpt lat="44.8205333" lon="9.505765"><ele>213.0</ele><time>2026-03-26T11:42:11.987Z</time></trkpt><trkpt lat="44.8205933" lon="9.505685"><ele>213.0</ele><time>2026-03-26T11:42:12.985Z</time></trkpt><trkpt lat="44.82064" lon="9.5055883"><ele>213.0</ele><time>2026-03-26T11:42:13.987Z</time></trkpt><trkpt lat="44.8206817" lon="9.5054917"><ele>213.0</ele><time>2026-03-26T11:42:14.988Z</time></trkpt><trkpt lat="44.8207083" lon="9.5054017"><ele>213.0</ele><time>2026-03-26T11:42:15.987Z</time></trkpt><trkpt lat="44.8207117" lon="9.5052267"><ele>213.0</ele><time>2026-03-26T11:42:17.986Z</time></trkpt><trkpt lat="44.8206783" lon="9.5051183"><ele>213.0</ele><time>2026-03-26T11:42:18.986Z</time></trkpt><trkpt lat="44.82062" lon="9.5049933"><ele>211.25</ele><time>2026-03-26T11:42:19.986Z</time></trkpt><trkpt lat="44.8205517" lon="9.50485"><ele>209.5</ele><time>2026-03-26T11:42:20.986Z</time></trkpt><trkpt lat="44.8204933" lon="9.5047033"><ele>207.75</ele><time>2026-03-26T11:42:21.986Z</time></trkpt><trkpt lat="44.82044" lon="9.5045633"><ele>206.0</ele><time>2026-03-26T11:42:22.986Z</time></trkpt><trkpt lat="44.8203867" lon="9.5044233"><ele>204.0</ele><time>2026-03-26T11:42:23.987Z</time></trkpt><trkpt lat="44.8203417" lon="9.5042867"><ele>202.0</ele><time>2026-03-26T11:42:24.987Z</time></trkpt><trkpt lat="44.820295" lon="9.5041567"><ele>200.0</ele><time>2026-03-26T11:42:25.987Z</time></trkpt><trkpt lat="44.8202517" lon="9.504035"><ele>198.0</ele><time>2026-03-26T11:42:26.986Z</time></trkpt><trkpt lat="44.8202083" lon="9.5039083"><ele>196.0</ele><time>2026-03-26T11:42:27.986Z</time></trkpt><trkpt lat="44.8201667" lon="9.5037883"><ele>197.60000000000002</ele><time>2026-03-26T11:42:28.986Z</time></trkpt><trkpt lat="44.8201267" lon="9.50367"><ele>199.2</ele><time>2026-03-26T11:42:29.988Z</time></trkpt><trkpt lat="44.820085" lon="9.50355"><ele>200.8</ele><time>2026-03-26T11:42:30.986Z</time></trkpt><trkpt lat="44.8200433" lon="9.5034333"><ele>202.39999999999998</ele><time>2026-03-26T11:42:31.987Z</time></trkpt><trkpt lat="44.8199983" lon="9.5033117"><ele>204.0</ele><time>2026-03-26T11:42:32.986Z</time></trkpt><trkpt lat="44.81995" lon="9.50318"><ele>204.0</ele><time>2026-03-26T11:42:33.986Z</time></trkpt><trkpt lat="44.8198983" lon="9.50304"><ele>204.0</ele><time>2026-03-26T11:42:34.987Z</time></trkpt><trkpt lat="44.8198483" lon="9.5029"><ele>204.0</ele><time>2026-03-26T11:42:35.986Z</time></trkpt><trkpt lat="44.8198033" lon="9.5027733"><ele>204.0</ele><time>2026-03-26T11:42:36.987Z</time></trkpt><trkpt lat="44.8197617" lon="9.5026567"><ele>204.0</ele><time>2026-03-26T11:42:37.986Z</time></trkpt><trkpt lat="44.8197233" lon="9.5025467"><ele>204.16666666666666</ele><time>2026-03-26T11:42:38.986Z</time></trkpt><trkpt lat="44.81969" lon="9.5024367"><ele>204.33333333333331</ele><time>2026-03-26T11:42:39.987Z</time></trkpt><trkpt lat="44.81966" lon="9.5023283"><ele>204.5</ele><time>2026-03-26T11:42:40.987Z</time></trkpt><trkpt lat="44.81963" lon="9.5022233"><ele>204.66666666666666</ele><time>2026-03-26T11:42:41.987Z</time></trkpt><trkpt lat="44.819595" lon="9.5021333"><ele>204.83333333333331</ele><time>2026-03-26T11:42:42.986Z</time></trkpt><trkpt lat="44.8195" lon="9.5020317"><ele>205.0</ele><time>2026-03-26T11:42:44.987Z</time></trkpt><trkpt lat="44.81943" lon="9.50203"><ele>205.2</ele><time>2026-03-26T11:42:45.986Z</time></trkpt><trkpt lat="44.8193517" lon="9.5020617"><ele>205.4</ele><time>2026-03-26T11:42:46.986Z</time></trkpt><trkpt lat="44.81926" lon="9.5021333"><ele>205.60000000000002</ele><time>2026-03-26T11:42:47.986Z</time></trkpt><trkpt lat="44.8191617" lon="9.502215"><ele>205.8</ele><time>2026-03-26T11:42:48.986Z</time></trkpt><trkpt lat="44.8190567" lon="9.50229"><ele>206.0</ele><time>2026-03-26T11:42:49.987Z</time></trkpt><trkpt lat="44.8189483" lon="9.5023583"><ele>206.4</ele><time>2026-03-26T11:42:50.987Z</time></trkpt><trkpt lat="44.8188383" lon="9.5024217"><ele>206.8</ele><time>2026-03-26T11:42:51.986Z</time></trkpt><trkpt lat="44.81873" lon="9.50248"><ele>207.20000000000002</ele><time>2026-03-26T11:42:52.986Z</time></trkpt><trkpt lat="44.8186333" lon="9.502525"><ele>207.60000000000002</ele><time>2026-03-26T11:42:53.987Z</time></trkpt><trkpt lat="44.8185433" lon="9.50257"><ele>208.0</ele><time>2026-03-26T11:42:54.986Z</time></trkpt><trkpt lat="44.818455" lon="9.5026117"><ele>209.0</ele><time>2026-03-26T11:42:55.987Z</time></trkpt><trkpt lat="44.8183633" lon="9.5026567"><ele>210.0</ele><time>2026-03-26T11:42:56.986Z</time></trkpt><trkpt lat="44.81827" lon="9.5027033"><ele>211.0</ele><time>2026-03-26T11:42:57.987Z</time></trkpt><trkpt lat="44.8181733" lon="9.502755"><ele>212.0</ele><time>2026-03-26T11:42:58.986Z</time></trkpt><trkpt lat="44.81808" lon="9.5028183"><ele>213.0</ele><time>2026-03-26T11:42:59.987Z</time></trkpt><trkpt lat="44.8179833" lon="9.5029033"><ele>213.4</ele><time>2026-03-26T11:43:00.986Z</time></trkpt><trkpt lat="44.817895" lon="9.5029967"><ele>213.8</ele><time>2026-03-26T11:43:01.987Z</time></trkpt><trkpt lat="44.8178083" lon="9.5031"><ele>214.2</ele><time>2026-03-26T11:43:02.988Z</time></trkpt><trkpt lat="44.81772" lon="9.5031967"><ele>214.6</ele><time>2026-03-26T11:43:03.987Z</time></trkpt><trkpt lat="44.81763" lon="9.50328"><ele>215.0</ele><time>2026-03-26T11:43:04.988Z</time></trkpt><trkpt lat="44.8175333" lon="9.5033567"><ele>215.0</ele><time>2026-03-26T11:43:05.988Z</time></trkpt><trkpt lat="44.817435" lon="9.50344"><ele>215.0</ele><time>2026-03-26T11:43:06.987Z</time></trkpt><trkpt lat="44.8173433" lon="9.5035333"><ele>215.0</ele><time>2026-03-26T11:43:07.988Z</time></trkpt><trkpt lat="44.8172583" lon="9.503635"><ele>215.0</ele><time>2026-03-26T11:43:08.988Z</time></trkpt><trkpt lat="44.8171833" lon="9.5037417"><ele>215.0</ele><time>2026-03-26T11:43:09.987Z</time></trkpt><trkpt lat="44.81711" lon="9.5038483"><ele>215.2</ele><time>2026-03-26T11:43:10.987Z</time></trkpt><trkpt lat="44.817035" lon="9.5039467"><ele>215.4</ele><time>2026-03-26T11:43:11.986Z</time></trkpt><trkpt lat="44.8169517" lon="9.504035"><ele>215.60000000000002</ele><time>2026-03-26T11:43:12.986Z</time></trkpt><trkpt lat="44.81686" lon="9.5041033"><ele>215.8</ele><time>2026-03-26T11:43:13.986Z</time></trkpt><trkpt lat="44.81676" lon="9.50415"><ele>216.0</ele><time>2026-03-26T11:43:14.986Z</time></trkpt><trkpt lat="44.8166733" lon="9.50418"><ele>216.0</ele><time>2026-03-26T11:43:15.985Z</time></trkpt><trkpt lat="44.8166017" lon="9.5041933"><ele>216.00000000000003</ele><time>2026-03-26T11:43:16.986Z</time></trkpt><trkpt lat="44.8165067" lon="9.504165"><ele>216.00000000000003</ele><time>2026-03-26T11:43:18.987Z</time></trkpt><trkpt lat="44.8164267" lon="9.504055"><ele>216.0</ele><time>2026-03-26T11:43:20.986Z</time></trkpt><trkpt lat="44.8163567" lon="9.5039033"><ele>216.0</ele><time>2026-03-26T11:43:22.986Z</time></trkpt><trkpt lat="44.8163233" lon="9.503815"><ele>218.4</ele><time>2026-03-26T11:43:23.986Z</time></trkpt><trkpt lat="44.81627" lon="9.503675"><ele>220.8</ele><time>2026-03-26T11:43:25.987Z</time></trkpt><trkpt lat="44.816245" lon="9.5035917"><ele>223.20000000000002</ele><time>2026-03-26T11:43:26.987Z</time></trkpt><trkpt lat="44.8162283" lon="9.5034267"><ele>225.60000000000002</ele><time>2026-03-26T11:43:28.986Z</time></trkpt><trkpt lat="44.8162383" lon="9.5033133"><ele>228.0</ele><time>2026-03-26T11:43:30.986Z</time></trkpt><trkpt lat="44.8163283" lon="9.50322"><ele>228.0</ele><time>2026-03-26T11:43:32.987Z</time></trkpt><trkpt lat="44.8163883" lon="9.5031583"><ele>228.0</ele><time>2026-03-26T11:43:33.987Z</time></trkpt><trkpt lat="44.816445" lon="9.5030817"><ele>228.0</ele><time>2026-03-26T11:43:34.987Z</time></trkpt><trkpt lat="44.8164933" lon="9.503"><ele>228.0</ele><time>2026-03-26T11:43:35.986Z</time></trkpt><trkpt lat="44.8165317" lon="9.5029217"><ele>228.0</ele><time>2026-03-26T11:43:36.986Z</time></trkpt><trkpt lat="44.81657" lon="9.5027533"><ele>228.0</ele><time>2026-03-26T11:43:38.987Z</time></trkpt><trkpt lat="44.8166033" lon="9.5026083"><ele>230.66666666666666</ele><time>2026-03-26T11:43:40.987Z</time></trkpt><trkpt lat="44.8166433" lon="9.5025183"><ele>233.33333333333331</ele><time>2026-03-26T11:43:42.986Z</time></trkpt><trkpt lat="44.816695" lon="9.5024183"><ele>236.0</ele><time>2026-03-26T11:43:44.988Z</time></trkpt><trkpt lat="44.8167283" lon="9.5023117"><ele>238.66666666666666</ele><time>2026-03-26T11:43:46.987Z</time></trkpt><trkpt lat="44.8167083" lon="9.5021917"><ele>241.33333333333331</ele><time>2026-03-26T11:43:48.987Z</time></trkpt><trkpt lat="44.8166333" lon="9.5021533"><ele>244.0</ele><time>2026-03-26T11:43:50.986Z</time></trkpt><trkpt lat="44.8165483" lon="9.50212"><ele>248.2</ele><time>2026-03-26T11:43:52.986Z</time></trkpt><trkpt lat="44.8165083" lon="9.5020383"><ele>252.39999999999998</ele><time>2026-03-26T11:43:55.986Z</time></trkpt><trkpt lat="44.8165467" lon="9.5019233"><ele>256.6</ele><time>2026-03-26T11:43:57.987Z</time></trkpt><trkpt lat="44.8165567" lon="9.5017267"><ele>260.8</ele><time>2026-03-26T11:43:59.987Z</time></trkpt><trkpt lat="44.8165483" lon="9.5016183"><ele>265.0</ele><time>2026-03-26T11:44:00.986Z</time></trkpt><trkpt lat="44.8165483" lon="9.501505"><ele>264.99999999999994</ele><time>2026-03-26T11:44:01.987Z</time></trkpt><trkpt lat="44.8165583" lon="9.5013917"><ele>265.0</ele><time>2026-03-26T11:44:02.987Z</time></trkpt><trkpt lat="44.8165767" lon="9.5012833"><ele>265.0</ele><time>2026-03-26T11:44:03.986Z</time></trkpt><trkpt lat="44.8166033" lon="9.5011917"><ele>265.0</ele><time>2026-03-26T11:44:04.985Z</time></trkpt><trkpt lat="44.8166217" lon="9.5011033"><ele>265.0</ele><time>2026-03-26T11:44:05.988Z</time></trkpt><trkpt lat="44.81663" lon="9.501"><ele>264.99999999999994</ele><time>2026-03-26T11:44:06.986Z</time></trkpt><trkpt lat="44.8166283" lon="9.5008967"><ele>265.0</ele><time>2026-03-26T11:44:07.987Z</time></trkpt><trkpt lat="44.8166083" lon="9.500795"><ele>268.16666666666663</ele><time>2026-03-26T11:44:08.987Z</time></trkpt><trkpt lat="44.816545" lon="9.500705"><ele>271.3333333333333</ele><time>2026-03-26T11:44:09.985Z</time></trkpt><trkpt lat="44.816495" lon="9.500605"><ele>274.5</ele><time>2026-03-26T11:44:10.986Z</time></trkpt><trkpt lat="44.8164433" lon="9.5005183"><ele>277.6666666666667</ele><time>2026-03-26T11:44:11.986Z</time></trkpt><trkpt lat="44.8164033" lon="9.5004233"><ele>280.83333333333337</ele><time>2026-03-26T11:44:12.987Z</time></trkpt><trkpt lat="44.8163783" lon="9.5003317"><ele>284.0</ele><time>2026-03-26T11:44:13.986Z</time></trkpt><trkpt lat="44.8163733" lon="9.5001683"><ele>285.83333333333337</ele><time>2026-03-26T11:44:15.987Z</time></trkpt><trkpt lat="44.8164033" lon="9.5000717"><ele>287.6666666666667</ele><time>2026-03-26T11:44:17.987Z</time></trkpt><trkpt lat="44.8163867" lon="9.4999817"><ele>289.5</ele><time>2026-03-26T11:44:20.987Z</time></trkpt><trkpt lat="44.8162917" lon="9.4998967"><ele>291.3333333333333</ele><time>2026-03-26T11:44:22.986Z</time></trkpt><trkpt lat="44.8162317" lon="9.499865"><ele>293.16666666666663</ele><time>2026-03-26T11:44:23.987Z</time></trkpt><trkpt lat="44.8161183" lon="9.4998233"><ele>295.0</ele><time>2026-03-26T11:44:25.986Z</time></trkpt><trkpt lat="44.8160117" lon="9.49979"><ele>296.6</ele><time>2026-03-26T11:44:27.985Z</time></trkpt><trkpt lat="44.8159233" lon="9.4997117"><ele>298.2</ele><time>2026-03-26T11:44:29.987Z</time></trkpt><trkpt lat="44.8158517" lon="9.4995883"><ele>299.8</ele><time>2026-03-26T11:44:31.986Z</time></trkpt><trkpt lat="44.8157683" lon="9.499475"><ele>301.4</ele><time>2026-03-26T11:44:33.986Z</time></trkpt><trkpt lat="44.8157183" lon="9.4994183"><ele>303.0</ele><time>2026-03-26T11:44:34.987Z</time></trkpt><trkpt lat="44.8156683" lon="9.4993483"><ele>303.6666666666667</ele><time>2026-03-26T11:44:35.988Z</time></trkpt><trkpt lat="44.8156183" lon="9.49927"><ele>304.3333333333333</ele><time>2026-03-26T11:44:36.986Z</time></trkpt><trkpt lat="44.8155717" lon="9.49918"><ele>305.0</ele><time>2026-03-26T11:44:37.986Z</time></trkpt><trkpt lat="44.8155183" lon="9.4990867"><ele>305.66666666666663</ele><time>2026-03-26T11:44:38.986Z</time></trkpt><trkpt lat="44.815455" lon="9.498995"><ele>306.3333333333333</ele><time>2026-03-26T11:44:39.985Z</time></trkpt><trkpt lat="44.8153733" lon="9.4989133"><ele>307.0</ele><time>2026-03-26T11:44:40.985Z</time></trkpt><trkpt lat="44.8152867" lon="9.4988567"><ele>307.0</ele><time>2026-03-26T11:44:41.985Z</time></trkpt><trkpt lat="44.8151983" lon="9.49882"><ele>307.0</ele><time>2026-03-26T11:44:42.987Z</time></trkpt><trkpt lat="44.8151" lon="9.4988"><ele>307.0</ele><time>2026-03-26T11:44:43.987Z</time></trkpt><trkpt lat="44.81499" lon="9.4987783"><ele>307.0</ele><time>2026-03-26T11:44:44.988Z</time></trkpt><trkpt lat="44.814875" lon="9.498755"><ele>307.0</ele><time>2026-03-26T11:44:45.987Z</time></trkpt><trkpt lat="44.8147683" lon="9.4987333"><ele>308.8</ele><time>2026-03-26T11:44:46.986Z</time></trkpt><trkpt lat="44.814665" lon="9.498715"><ele>310.6</ele><time>2026-03-26T11:44:47.986Z</time></trkpt><trkpt lat="44.814555" lon="9.4987017"><ele>312.40000000000003</ele><time>2026-03-26T11:44:48.986Z</time></trkpt><trkpt lat="44.8144417" lon="9.4986833"><ele>314.2</ele><time>2026-03-26T11:44:49.987Z</time></trkpt><trkpt lat="44.8143283" lon="9.498675"><ele>316.0</ele><time>2026-03-26T11:44:50.987Z</time></trkpt><trkpt lat="44.8142167" lon="9.49867"><ele>318.6</ele><time>2026-03-26T11:44:51.986Z</time></trkpt><trkpt lat="44.814105" lon="9.498665"><ele>321.20000000000005</ele><time>2026-03-26T11:44:52.985Z</time></trkpt><trkpt lat="44.8139917" lon="9.4986633"><ele>323.79999999999995</ele><time>2026-03-26T11:44:53.987Z</time></trkpt><trkpt lat="44.8138817" lon="9.4986667"><ele>326.4</ele><time>2026-03-26T11:44:54.987Z</time></trkpt><trkpt lat="44.8137717" lon="9.498675"><ele>329.0</ele><time>2026-03-26T11:44:55.987Z</time></trkpt><trkpt lat="44.81366" lon="9.4986883"><ele>329.0</ele><time>2026-03-26T11:44:56.987Z</time></trkpt><trkpt lat="44.8135483" lon="9.4987017"><ele>329.0</ele><time>2026-03-26T11:44:57.986Z</time></trkpt><trkpt lat="44.81344" lon="9.4987133"><ele>329.0</ele><time>2026-03-26T11:44:58.985Z</time></trkpt><trkpt lat="44.8133333" lon="9.498725"><ele>329.0</ele><time>2026-03-26T11:44:59.986Z</time></trkpt><trkpt lat="44.81323" lon="9.4987383"><ele>329.0</ele><time>2026-03-26T11:45:00.986Z</time></trkpt><trkpt lat="44.8131367" lon="9.49876"><ele>330.33333333333337</ele><time>2026-03-26T11:45:01.986Z</time></trkpt><trkpt lat="44.813055" lon="9.4987817"><ele>331.6666666666667</ele><time>2026-03-26T11:45:02.988Z</time></trkpt><trkpt lat="44.8129767" lon="9.49881"><ele>333.0</ele><time>2026-03-26T11:45:03.986Z</time></trkpt><trkpt lat="44.8129067" lon="9.4988467"><ele>334.3333333333333</ele><time>2026-03-26T11:45:04.985Z</time></trkpt><trkpt lat="44.8128417" lon="9.4988933"><ele>335.66666666666663</ele><time>2026-03-26T11:45:05.986Z</time></trkpt><trkpt lat="44.8127783" lon="9.4989417"><ele>337.0</ele><time>2026-03-26T11:45:06.986Z</time></trkpt><trkpt lat="44.8127133" lon="9.4989783"><ele>339.14285714285717</ele><time>2026-03-26T11:45:07.986Z</time></trkpt><trkpt lat="44.8126467" lon="9.4989967"><ele>341.2857142857143</ele><time>2026-03-26T11:45:08.987Z</time></trkpt><trkpt lat="44.8125767" lon="9.4990067"><ele>343.42857142857144</ele><time>2026-03-26T11:45:09.986Z</time></trkpt><trkpt lat="44.8125017" lon="9.499005"><ele>345.57142857142856</ele><time>2026-03-26T11:45:10.986Z</time></trkpt><trkpt lat="44.812425" lon="9.4989967"><ele>347.7142857142857</ele><time>2026-03-26T11:45:11.987Z</time></trkpt><trkpt lat="44.8123533" lon="9.4989867"><ele>349.8571428571429</ele><time>2026-03-26T11:45:12.986Z</time></trkpt><trkpt lat="44.8122767" lon="9.498975"><ele>352.0</ele><time>2026-03-26T11:45:13.987Z</time></trkpt><trkpt lat="44.8122" lon="9.4989467"><ele>352.0</ele><time>2026-03-26T11:45:14.987Z</time></trkpt><trkpt lat="44.8121117" lon="9.4989083"><ele>352.0</ele><time>2026-03-26T11:45:15.986Z</time></trkpt><trkpt lat="44.81202" lon="9.498865"><ele>352.0</ele><time>2026-03-26T11:45:16.986Z</time></trkpt><trkpt lat="44.8119367" lon="9.4988267"><ele>352.0</ele><time>2026-03-26T11:45:17.987Z</time></trkpt><trkpt lat="44.8118433" lon="9.498785"><ele>352.0</ele><time>2026-03-26T11:45:18.986Z</time></trkpt><trkpt lat="44.8117517" lon="9.49874"><ele>351.0</ele><time>2026-03-26T11:45:19.986Z</time></trkpt><trkpt lat="44.81166" lon="9.4987017"><ele>350.0</ele><time>2026-03-26T11:45:20.987Z</time></trkpt><trkpt lat="44.8115683" lon="9.4986783"><ele>349.0</ele><time>2026-03-26T11:45:21.986Z</time></trkpt><trkpt lat="44.811475" lon="9.4986583"><ele>348.0</ele><time>2026-03-26T11:45:22.986Z</time></trkpt><trkpt lat="44.8113833" lon="9.4986333"><ele>347.0</ele><time>2026-03-26T11:45:23.987Z</time></trkpt><trkpt lat="44.8112967" lon="9.4985917"><ele>347.0</ele><time>2026-03-26T11:45:24.987Z</time></trkpt><trkpt lat="44.81121" lon="9.4985333"><ele>347.0</ele><time>2026-03-26T11:45:25.986Z</time></trkpt><trkpt lat="44.8111233" lon="9.4984683"><ele>347.0</ele><time>2026-03-26T11:45:26.986Z</time></trkpt><trkpt lat="44.8110467" lon="9.4984017"><ele>347.0</ele><time>2026-03-26T11:45:27.987Z</time></trkpt><trkpt lat="44.8109733" lon="9.4983317"><ele>347.0</ele><time>2026-03-26T11:45:28.987Z</time></trkpt><trkpt lat="44.8108967" lon="9.498265"><ele>349.20000000000005</ele><time>2026-03-26T11:45:29.986Z</time></trkpt><trkpt lat="44.8108167" lon="9.4982033"><ele>351.4</ele><time>2026-03-26T11:45:30.986Z</time></trkpt><trkpt lat="44.81073" lon="9.49815"><ele>353.6</ele><time>2026-03-26T11:45:31.986Z</time></trkpt><trkpt lat="44.81064" lon="9.4980983"><ele>355.79999999999995</ele><time>2026-03-26T11:45:32.988Z</time></trkpt><trkpt lat="44.81055" lon="9.4980467"><ele>358.0</ele><time>2026-03-26T11:45:33.986Z</time></trkpt><trkpt lat="44.8104633" lon="9.4979917"><ele>358.0</ele><time>2026-03-26T11:45:34.986Z</time></trkpt><trkpt lat="44.8103783" lon="9.497945"><ele>358.0</ele><time>2026-03-26T11:45:35.987Z</time></trkpt><trkpt lat="44.8102867" lon="9.4979033"><ele>358.0</ele><time>2026-03-26T11:45:36.986Z</time></trkpt><trkpt lat="44.8102" lon="9.4978717"><ele>358.0</ele><time>2026-03-26T11:45:37.986Z</time></trkpt><trkpt lat="44.8101167" lon="9.4978383"><ele>358.0</ele><time>2026-03-26T11:45:38.987Z</time></trkpt><trkpt lat="44.8100333" lon="9.4978067"><ele>357.5</ele><time>2026-03-26T11:45:39.986Z</time></trkpt><trkpt lat="44.809955" lon="9.4977717"><ele>357.0</ele><time>2026-03-26T11:45:40.987Z</time></trkpt><trkpt lat="44.8098817" lon="9.4977267"><ele>356.5</ele><time>2026-03-26T11:45:41.986Z</time></trkpt><trkpt lat="44.8098117" lon="9.497685"><ele>356.0</ele><time>2026-03-26T11:45:42.986Z</time></trkpt><trkpt lat="44.8097467" lon="9.49764"><ele>355.5</ele><time>2026-03-26T11:45:43.987Z</time></trkpt><trkpt lat="44.8096817" lon="9.4975933"><ele>355.0</ele><time>2026-03-26T11:45:44.987Z</time></trkpt><trkpt lat="44.809615" lon="9.4975467"><ele>355.0</ele><time>2026-03-26T11:45:45.986Z</time></trkpt><trkpt lat="44.80956" lon="9.4975"><ele>355.0</ele><time>2026-03-26T11:45:46.987Z</time></trkpt><trkpt lat="44.8094733" lon="9.4974033"><ele>355.0</ele><time>2026-03-26T11:45:48.986Z</time></trkpt><trkpt lat="44.8094" lon="9.497305"><ele>355.0</ele><time>2026-03-26T11:45:50.986Z</time></trkpt><trkpt lat="44.8093383" lon="9.497215"><ele>355.0</ele><time>2026-03-26T11:45:52.987Z</time></trkpt><trkpt lat="44.809245" lon="9.497125"><ele>356.8</ele><time>2026-03-26T11:45:54.986Z</time></trkpt><trkpt lat="44.80913" lon="9.49704"><ele>358.6</ele><time>2026-03-26T11:45:56.987Z</time></trkpt><trkpt lat="44.8090483" lon="9.4969117"><ele>360.4</ele><time>2026-03-26T11:45:58.987Z</time></trkpt><trkpt lat="44.8089917" lon="9.4968433"><ele>362.2</ele><time>2026-03-26T11:45:59.988Z</time></trkpt><trkpt lat="44.8089267" lon="9.4967733"><ele>364.0</ele><time>2026-03-26T11:46:00.986Z</time></trkpt><trkpt lat="44.808855" lon="9.4966867"><ele>364.0</ele><time>2026-03-26T11:46:01.986Z</time></trkpt><trkpt lat="44.8087817" lon="9.4965917"><ele>364.0</ele><time>2026-03-26T11:46:02.986Z</time></trkpt><trkpt lat="44.8087167" lon="9.4965083"><ele>364.0</ele><time>2026-03-26T11:46:03.986Z</time></trkpt><trkpt lat="44.808655" lon="9.496435"><ele>364.0</ele><time>2026-03-26T11:46:04.985Z</time></trkpt><trkpt lat="44.808595" lon="9.49637"><ele>364.0</ele><time>2026-03-26T11:46:05.987Z</time></trkpt><trkpt lat="44.8085367" lon="9.4963067"><ele>364.0</ele><time>2026-03-26T11:46:06.986Z</time></trkpt><trkpt lat="44.8084733" lon="9.4962583"><ele>365.7142857142857</ele><time>2026-03-26T11:46:07.987Z</time></trkpt><trkpt lat="44.8084117" lon="9.49621"><ele>367.42857142857144</ele><time>2026-03-26T11:46:08.987Z</time></trkpt><trkpt lat="44.8083509" lon="9.4961698"><ele>369.1428571428571</ele><time>2026-03-26T11:46:09.986Z</time></trkpt><trkpt lat="44.8082819" lon="9.4961444"><ele>370.8571428571429</ele><time>2026-03-26T11:46:10.986Z</time></trkpt><trkpt lat="44.8082095" lon="9.4961278"><ele>372.57142857142856</ele><time>2026-03-26T11:46:11.986Z</time></trkpt><trkpt lat="44.8081417" lon="9.4961163"><ele>374.2857142857143</ele><time>2026-03-26T11:46:12.986Z</time></trkpt><trkpt lat="44.8080762" lon="9.4961045"><ele>376.0</ele><time>2026-03-26T11:46:13.986Z</time></trkpt><trkpt lat="44.8080049" lon="9.4960824"><ele>376.0</ele><time>2026-03-26T11:46:14.986Z</time></trkpt><trkpt lat="44.8079319" lon="9.4960447"><ele>376.0</ele><time>2026-03-26T11:46:15.986Z</time></trkpt><trkpt lat="44.8078712" lon="9.4959918"><ele>376.0</ele><time>2026-03-26T11:46:16.987Z</time></trkpt><trkpt lat="44.8078064" lon="9.4958547"><ele>376.0</ele><time>2026-03-26T11:46:18.986Z</time></trkpt><trkpt lat="44.8077523" lon="9.4957187"><ele>376.0</ele><time>2026-03-26T11:46:20.987Z</time></trkpt><trkpt lat="44.807714" lon="9.4956326"><ele>376.0</ele><time>2026-03-26T11:46:21.986Z</time></trkpt><trkpt lat="44.8076762" lon="9.4955314"><ele>377.3333333333333</ele><time>2026-03-26T11:46:22.985Z</time></trkpt><trkpt lat="44.8076441" lon="9.4954316"><ele>378.66666666666663</ele><time>2026-03-26T11:46:23.986Z</time></trkpt><trkpt lat="44.8076077" lon="9.49534"><ele>380.0</ele><time>2026-03-26T11:46:24.986Z</time></trkpt><trkpt lat="44.8075579" lon="9.4952418"><ele>381.3333333333333</ele><time>2026-03-26T11:46:25.987Z</time></trkpt><trkpt lat="44.8074995" lon="9.495124"><ele>382.6666666666667</ele><time>2026-03-26T11:46:26.987Z</time></trkpt><trkpt lat="44.807443" lon="9.4950001"><ele>384.0</ele><time>2026-03-26T11:46:27.986Z</time></trkpt><trkpt lat="44.8073897" lon="9.494882"><ele>384.0</ele><time>2026-03-26T11:46:28.986Z</time></trkpt><trkpt lat="44.8073454" lon="9.4947783"><ele>384.0</ele><time>2026-03-26T11:46:29.986Z</time></trkpt><trkpt lat="44.8073091" lon="9.4946843"><ele>384.0</ele><time>2026-03-26T11:46:30.987Z</time></trkpt><trkpt lat="44.8072661" lon="9.4945722"><ele>384.0</ele><time>2026-03-26T11:46:31.987Z</time></trkpt><trkpt lat="44.8072174" lon="9.4944533"><ele>384.0</ele><time>2026-03-26T11:46:32.987Z</time></trkpt><trkpt lat="44.8071663" lon="9.4943331"><ele>384.0</ele><time>2026-03-26T11:46:33.986Z</time></trkpt><trkpt lat="44.807116" lon="9.4942077"><ele>383.3333333333333</ele><time>2026-03-26T11:46:34.986Z</time></trkpt><trkpt lat="44.8070728" lon="9.4940841"><ele>382.6666666666667</ele><time>2026-03-26T11:46:35.987Z</time></trkpt><trkpt lat="44.8070393" lon="9.4939695"><ele>382.0</ele><time>2026-03-26T11:46:36.987Z</time></trkpt><trkpt lat="44.8070099" lon="9.4938618"><ele>381.33333333333337</ele><time>2026-03-26T11:46:37.987Z</time></trkpt><trkpt lat="44.8069686" lon="9.493762"><ele>380.6666666666667</ele><time>2026-03-26T11:46:38.987Z</time></trkpt><trkpt lat="44.8069144" lon="9.4936713"><ele>380.0</ele><time>2026-03-26T11:46:39.986Z</time></trkpt><trkpt lat="44.8068593" lon="9.4935904"><ele>380.7142857142857</ele><time>2026-03-26T11:46:40.986Z</time></trkpt><trkpt lat="44.8068051" lon="9.4935188"><ele>381.42857142857144</ele><time>2026-03-26T11:46:41.986Z</time></trkpt><trkpt lat="44.8067487" lon="9.4934543"><ele>382.1428571428571</ele><time>2026-03-26T11:46:42.986Z</time></trkpt><trkpt lat="44.8066866" lon="9.4934006"><ele>382.8571428571429</ele><time>2026-03-26T11:46:43.986Z</time></trkpt><trkpt lat="44.806623" lon="9.4933527"><ele>383.57142857142856</ele><time>2026-03-26T11:46:44.987Z</time></trkpt><trkpt lat="44.8065549" lon="9.4933164"><ele>384.2857142857143</ele><time>2026-03-26T11:46:45.985Z</time></trkpt><trkpt lat="44.8064826" lon="9.4932997"><ele>385.0</ele><time>2026-03-26T11:46:46.987Z</time></trkpt><trkpt lat="44.8064025" lon="9.4932888"><ele>385.0</ele><time>2026-03-26T11:46:47.987Z</time></trkpt><trkpt lat="44.8063194" lon="9.4932715"><ele>385.0</ele><time>2026-03-26T11:46:48.986Z</time></trkpt><trkpt lat="44.8062272" lon="9.4932289"><ele>385.0</ele><time>2026-03-26T11:46:49.986Z</time></trkpt><trkpt lat="44.8061372" lon="9.4931579"><ele>385.0</ele><time>2026-03-26T11:46:50.988Z</time></trkpt><trkpt lat="44.8060523" lon="9.4930731"><ele>385.0</ele><time>2026-03-26T11:46:51.986Z</time></trkpt><trkpt lat="44.8059753" lon="9.4929849"><ele>385.1666666666667</ele><time>2026-03-26T11:46:52.985Z</time></trkpt><trkpt lat="44.8059123" lon="9.4929024"><ele>385.33333333333337</ele><time>2026-03-26T11:46:53.986Z</time></trkpt><trkpt lat="44.8058553" lon="9.4928326"><ele>385.5</ele><time>2026-03-26T11:46:54.986Z</time></trkpt><trkpt lat="44.8057951" lon="9.492774"><ele>385.66666666666663</ele><time>2026-03-26T11:46:55.987Z</time></trkpt><trkpt lat="44.8057393" lon="9.492719"><ele>385.8333333333333</ele><time>2026-03-26T11:46:56.986Z</time></trkpt><trkpt lat="44.8056583" lon="9.49259"><ele>386.0</ele><time>2026-03-26T11:46:58.988Z</time></trkpt><trkpt lat="44.805595" lon="9.4924833"><ele>386.0</ele><time>2026-03-26T11:47:00.986Z</time></trkpt><trkpt lat="44.805505" lon="9.4923867"><ele>386.0</ele><time>2026-03-26T11:47:02.987Z</time></trkpt><trkpt lat="44.80541" lon="9.4923167"><ele>386.0</ele><time>2026-03-26T11:47:04.987Z</time></trkpt><trkpt lat="44.805315" lon="9.492265"><ele>386.0</ele><time>2026-03-26T11:47:06.986Z</time></trkpt><trkpt lat="44.8052317" lon="9.492225"><ele>386.0</ele><time>2026-03-26T11:47:08.987Z</time></trkpt><trkpt lat="44.8051383" lon="9.4921817"><ele>387.0</ele><time>2026-03-26T11:47:10.986Z</time></trkpt><trkpt lat="44.8050283" lon="9.4921517"><ele>388.0</ele><time>2026-03-26T11:47:12.986Z</time></trkpt><trkpt lat="44.80494" lon="9.492105"><ele>389.0</ele><time>2026-03-26T11:47:14.986Z</time></trkpt><trkpt lat="44.80489" lon="9.4920267"><ele>390.0</ele><time>2026-03-26T11:47:16.986Z</time></trkpt><trkpt lat="44.8048633" lon="9.4918967"><ele>391.0</ele><time>2026-03-26T11:47:18.986Z</time></trkpt><trkpt lat="44.8048317" lon="9.49174"><ele>391.0</ele><time>2026-03-26T11:47:20.986Z</time></trkpt><trkpt lat="44.8048367" lon="9.4916033"><ele>391.0</ele><time>2026-03-26T11:47:22.986Z</time></trkpt><trkpt lat="44.8049033" lon="9.4915117"><ele>391.0</ele><time>2026-03-26T11:47:24.986Z</time></trkpt><trkpt lat="44.8049633" lon="9.4914733"><ele>391.0</ele><time>2026-03-26T11:47:25.986Z</time></trkpt><trkpt lat="44.8050867" lon="9.4914033"><ele>391.0</ele><time>2026-03-26T11:47:27.986Z</time></trkpt><trkpt lat="44.8052033" lon="9.4913433"><ele>389.33333333333337</ele><time>2026-03-26T11:47:29.986Z</time></trkpt><trkpt lat="44.805315" lon="9.4913117"><ele>387.6666666666667</ele><time>2026-03-26T11:47:31.986Z</time></trkpt><trkpt lat="44.805415" lon="9.49133"><ele>386.0</ele><time>2026-03-26T11:47:33.986Z</time></trkpt><trkpt lat="44.805475" lon="9.4913617"><ele>384.33333333333337</ele><time>2026-03-26T11:47:34.985Z</time></trkpt><trkpt lat="44.8055717" lon="9.4914217"><ele>382.6666666666667</ele><time>2026-03-26T11:47:36.986Z</time></trkpt><trkpt lat="44.8056267" lon="9.4914667"><ele>381.0</ele><time>2026-03-26T11:47:37.986Z</time></trkpt><trkpt lat="44.8057283" lon="9.49155"><ele>381.0</ele><time>2026-03-26T11:47:39.985Z</time></trkpt><trkpt lat="44.8058283" lon="9.49163"><ele>381.0</ele><time>2026-03-26T11:47:41.986Z</time></trkpt><trkpt lat="44.8059367" lon="9.4916517"><ele>381.0</ele><time>2026-03-26T11:47:43.987Z</time></trkpt><trkpt lat="44.80606" lon="9.4916167"><ele>381.0</ele><time>2026-03-26T11:47:45.987Z</time></trkpt><trkpt lat="44.8061217" lon="9.4915683"><ele>381.0</ele><time>2026-03-26T11:47:46.986Z</time></trkpt><trkpt lat="44.8061833" lon="9.4915"><ele>381.0</ele><time>2026-03-26T11:47:47.986Z</time></trkpt><trkpt lat="44.8062383" lon="9.4914133"><ele>381.0</ele><time>2026-03-26T11:47:48.987Z</time></trkpt><trkpt lat="44.8062867" lon="9.4913233"><ele>381.0</ele><time>2026-03-26T11:47:49.986Z</time></trkpt><trkpt lat="44.8063283" lon="9.4912417"><ele>381.0</ele><time>2026-03-26T11:47:50.987Z</time></trkpt><trkpt lat="44.80638" lon="9.4911667"><ele>381.0</ele><time>2026-03-26T11:47:51.985Z</time></trkpt><trkpt lat="44.80644" lon="9.4910817"><ele>381.0</ele><time>2026-03-26T11:47:52.986Z</time></trkpt><trkpt lat="44.8064933" lon="9.4909883"><ele>381.0</ele><time>2026-03-26T11:47:53.985Z</time></trkpt><trkpt lat="44.8065483" lon="9.49088"><ele>381.0</ele><time>2026-03-26T11:47:54.986Z</time></trkpt><trkpt lat="44.806605" lon="9.49076"><ele>381.0</ele><time>2026-03-26T11:47:55.987Z</time></trkpt><trkpt lat="44.8066617" lon="9.490635"><ele>381.0</ele><time>2026-03-26T11:47:56.986Z</time></trkpt><trkpt lat="44.8067167" lon="9.4905083"><ele>381.0</ele><time>2026-03-26T11:47:57.987Z</time></trkpt><trkpt lat="44.806765" lon="9.4903933"><ele>380.57142857142856</ele><time>2026-03-26T11:47:58.986Z</time></trkpt><trkpt lat="44.8068117" lon="9.4902867"><ele>380.14285714285717</ele><time>2026-03-26T11:47:59.99Z</time></trkpt><trkpt lat="44.8068533" lon="9.4901967"><ele>379.7142857142857</ele><time>2026-03-26T11:48:00.988Z</time></trkpt><trkpt lat="44.806895" lon="9.490115"><ele>379.2857142857143</ele><time>2026-03-26T11:48:01.986Z</time></trkpt><trkpt lat="44.8069433" lon="9.4900567"><ele>378.8571428571429</ele><time>2026-03-26T11:48:02.987Z</time></trkpt><trkpt lat="44.8070033" lon="9.4900167"><ele>378.42857142857144</ele><time>2026-03-26T11:48:03.987Z</time></trkpt><trkpt lat="44.8070817" lon="9.4899833"><ele>378.0</ele><time>2026-03-26T11:48:04.986Z</time></trkpt><trkpt lat="44.8071833" lon="9.4899467"><ele>378.0</ele><time>2026-03-26T11:48:05.986Z</time></trkpt><trkpt lat="44.8072833" lon="9.4899133"><ele>378.0</ele><time>2026-03-26T11:48:06.986Z</time></trkpt><trkpt lat="44.8073833" lon="9.48988"><ele>378.0</ele><time>2026-03-26T11:48:07.986Z</time></trkpt><trkpt lat="44.807475" lon="9.4898417"><ele>378.0</ele><time>2026-03-26T11:48:08.986Z</time></trkpt><trkpt lat="44.807555" lon="9.4897983"><ele>378.0</ele><time>2026-03-26T11:48:09.987Z</time></trkpt><trkpt lat="44.8076267" lon="9.4897533"><ele>376.6666666666667</ele><time>2026-03-26T11:48:10.985Z</time></trkpt><trkpt lat="44.80769" lon="9.4897033"><ele>375.3333333333333</ele><time>2026-03-26T11:48:11.986Z</time></trkpt><trkpt lat="44.80775" lon="9.4896567"><ele>374.0</ele><time>2026-03-26T11:48:12.986Z</time></trkpt><trkpt lat="44.8078017" lon="9.4896"><ele>372.66666666666663</ele><time>2026-03-26T11:48:13.986Z</time></trkpt><trkpt lat="44.8078433" lon="9.4895333"><ele>371.3333333333333</ele><time>2026-03-26T11:48:14.987Z</time></trkpt><trkpt lat="44.8078767" lon="9.4894483"><ele>370.0</ele><time>2026-03-26T11:48:15.986Z</time></trkpt><trkpt lat="44.807885" lon="9.4892917"><ele>369.99999999999994</ele><time>2026-03-26T11:48:17.987Z</time></trkpt><trkpt lat="44.807865" lon="9.48919"><ele>370.0</ele><time>2026-03-26T11:48:19.987Z</time></trkpt><trkpt lat="44.8078783" lon="9.489095"><ele>370.0</ele><time>2026-03-26T11:48:21.986Z</time></trkpt><trkpt lat="44.8078667" lon="9.4890033"><ele>370.0</ele><time>2026-03-26T11:48:23.986Z</time></trkpt><trkpt lat="44.8077867" lon="9.4889233"><ele>370.0</ele><time>2026-03-26T11:48:25.986Z</time></trkpt><trkpt lat="44.8077267" lon="9.48887"><ele>369.99999999999994</ele><time>2026-03-26T11:48:26.986Z</time></trkpt><trkpt lat="44.8076733" lon="9.4888117"><ele>370.0</ele><time>2026-03-26T11:48:27.986Z</time></trkpt><trkpt lat="44.8076333" lon="9.4887383"><ele>371.4</ele><time>2026-03-26T11:48:28.986Z</time></trkpt><trkpt lat="44.8075833" lon="9.4885767"><ele>372.8</ele><time>2026-03-26T11:48:30.986Z</time></trkpt><trkpt lat="44.8075517" lon="9.4884717"><ele>374.20000000000005</ele><time>2026-03-26T11:48:31.986Z</time></trkpt><trkpt lat="44.8075067" lon="9.4883733"><ele>375.6</ele><time>2026-03-26T11:48:32.987Z</time></trkpt><trkpt lat="44.8074533" lon="9.4882883"><ele>377.0</ele><time>2026-03-26T11:48:33.986Z</time></trkpt><trkpt lat="44.80738" lon="9.4882067"><ele>377.0</ele><time>2026-03-26T11:48:34.986Z</time></trkpt><trkpt lat="44.8072967" lon="9.4881467"><ele>377.0</ele><time>2026-03-26T11:48:35.986Z</time></trkpt><trkpt lat="44.80722" lon="9.48811"><ele>377.0</ele><time>2026-03-26T11:48:36.985Z</time></trkpt><trkpt lat="44.80712" lon="9.48807"><ele>377.0</ele><time>2026-03-26T11:48:37.986Z</time></trkpt><trkpt lat="44.8070117" lon="9.4880333"><ele>377.0</ele><time>2026-03-26T11:48:38.988Z</time></trkpt><trkpt lat="44.8069083" lon="9.4880133"><ele>379.20000000000005</ele><time>2026-03-26T11:48:39.986Z</time></trkpt><trkpt lat="44.8068183" lon="9.4880133"><ele>381.4</ele><time>2026-03-26T11:48:40.986Z</time></trkpt><trkpt lat="44.8067233" lon="9.4880433"><ele>383.6</ele><time>2026-03-26T11:48:41.986Z</time></trkpt><trkpt lat="44.8066317" lon="9.488085"><ele>385.79999999999995</ele><time>2026-03-26T11:48:42.986Z</time></trkpt><trkpt lat="44.80654" lon="9.4881283"><ele>388.0</ele><time>2026-03-26T11:48:43.986Z</time></trkpt><trkpt lat="44.8064483" lon="9.4881583"><ele>388.00000000000006</ele><time>2026-03-26T11:48:44.987Z</time></trkpt><trkpt lat="44.806365" lon="9.4881733"><ele>388.0</ele><time>2026-03-26T11:48:45.986Z</time></trkpt><trkpt lat="44.80628" lon="9.4881767"><ele>388.0</ele><time>2026-03-26T11:48:46.987Z</time></trkpt><trkpt lat="44.8061967" lon="9.48816"><ele>388.0</ele><time>2026-03-26T11:48:47.987Z</time></trkpt><trkpt lat="44.8061233" lon="9.48812"><ele>388.00000000000006</ele><time>2026-03-26T11:48:48.987Z</time></trkpt><trkpt lat="44.8060467" lon="9.4880667"><ele>388.0</ele><time>2026-03-26T11:48:49.988Z</time></trkpt><trkpt lat="44.8059617" lon="9.488005"><ele>389.4</ele><time>2026-03-26T11:48:50.988Z</time></trkpt><trkpt lat="44.8058683" lon="9.4879567"><ele>390.79999999999995</ele><time>2026-03-26T11:48:51.989Z</time></trkpt><trkpt lat="44.80576" lon="9.48791"><ele>392.2</ele><time>2026-03-26T11:48:52.987Z</time></trkpt><trkpt lat="44.8056467" lon="9.487875"><ele>393.6</ele><time>2026-03-26T11:48:53.988Z</time></trkpt><trkpt lat="44.8055367" lon="9.4878667"><ele>395.0</ele><time>2026-03-26T11:48:54.987Z</time></trkpt><trkpt lat="44.8054267" lon="9.48788"><ele>395.0</ele><time>2026-03-26T11:48:55.986Z</time></trkpt><trkpt lat="44.8053217" lon="9.4879033"><ele>395.0</ele><time>2026-03-26T11:48:56.987Z</time></trkpt><trkpt lat="44.80523" lon="9.4879133"><ele>395.0</ele><time>2026-03-26T11:48:57.986Z</time></trkpt><trkpt lat="44.80514" lon="9.4879067"><ele>395.0</ele><time>2026-03-26T11:48:58.986Z</time></trkpt><trkpt lat="44.805045" lon="9.4878933"><ele>395.0</ele><time>2026-03-26T11:48:59.987Z</time></trkpt><trkpt lat="44.80494" lon="9.487885"><ele>397.4</ele><time>2026-03-26T11:49:00.986Z</time></trkpt><trkpt lat="44.8048317" lon="9.4878917"><ele>399.8</ele><time>2026-03-26T11:49:01.987Z</time></trkpt><trkpt lat="44.80472" lon="9.4879183"><ele>402.20000000000005</ele><time>2026-03-26T11:49:02.986Z</time></trkpt><trkpt lat="44.8046183" lon="9.4879583"><ele>404.6</ele><time>2026-03-26T11:49:03.987Z</time></trkpt><trkpt lat="44.8045133" lon="9.4880167"><ele>407.0</ele><time>2026-03-26T11:49:04.986Z</time></trkpt><trkpt lat="44.80441" lon="9.4880817"><ele>410.40000000000003</ele><time>2026-03-26T11:49:05.986Z</time></trkpt><trkpt lat="44.80431" lon="9.4881417"><ele>413.8</ele><time>2026-03-26T11:49:06.986Z</time></trkpt><trkpt lat="44.8042133" lon="9.4882117"><ele>417.2</ele><time>2026-03-26T11:49:07.987Z</time></trkpt><trkpt lat="44.804115" lon="9.4882833"><ele>420.6</ele><time>2026-03-26T11:49:08.987Z</time></trkpt><trkpt lat="44.8040167" lon="9.4883617"><ele>424.0</ele><time>2026-03-26T11:49:09.986Z</time></trkpt><trkpt lat="44.8039317" lon="9.4884417"><ele>424.0</ele><time>2026-03-26T11:49:10.987Z</time></trkpt><trkpt lat="44.8038633" lon="9.4885417"><ele>424.0</ele><time>2026-03-26T11:49:11.986Z</time></trkpt><trkpt lat="44.8038233" lon="9.4886617"><ele>424.0</ele><time>2026-03-26T11:49:12.986Z</time></trkpt><trkpt lat="44.8037933" lon="9.4887967"><ele>424.0</ele><time>2026-03-26T11:49:13.987Z</time></trkpt><trkpt lat="44.8037683" lon="9.4889267"><ele>424.0</ele><time>2026-03-26T11:49:14.987Z</time></trkpt><trkpt lat="44.80373" lon="9.4890333"><ele>424.50000000000006</ele><time>2026-03-26T11:49:15.986Z</time></trkpt><trkpt lat="44.8036883" lon="9.4891233"><ele>425.0</ele><time>2026-03-26T11:49:16.987Z</time></trkpt><trkpt lat="44.80364" lon="9.4891917"><ele>425.5</ele><time>2026-03-26T11:49:17.987Z</time></trkpt><trkpt lat="44.8035667" lon="9.489255"><ele>426.0</ele><time>2026-03-26T11:49:18.987Z</time></trkpt><trkpt lat="44.8034783" lon="9.4893067"><ele>426.50000000000006</ele><time>2026-03-26T11:49:19.987Z</time></trkpt><trkpt lat="44.8033783" lon="9.4893567"><ele>427.0</ele><time>2026-03-26T11:49:20.987Z</time></trkpt><trkpt lat="44.80327" lon="9.4894017"><ele>428.40000000000003</ele><time>2026-03-26T11:49:21.986Z</time></trkpt><trkpt lat="44.8031617" lon="9.48943"><ele>429.80000000000007</ele><time>2026-03-26T11:49:22.987Z</time></trkpt><trkpt lat="44.803065" lon="9.4894467"><ele>431.2</ele><time>2026-03-26T11:49:23.986Z</time></trkpt><trkpt lat="44.8029783" lon="9.48945"><ele>432.6</ele><time>2026-03-26T11:49:24.986Z</time></trkpt><trkpt lat="44.8028983" lon="9.48944"><ele>434.0</ele><time>2026-03-26T11:49:25.986Z</time></trkpt><trkpt lat="44.80282" lon="9.4894017"><ele>434.0</ele><time>2026-03-26T11:49:26.987Z</time></trkpt><trkpt lat="44.8027417" lon="9.4893433"><ele>434.0</ele><time>2026-03-26T11:49:27.986Z</time></trkpt><trkpt lat="44.8026633" lon="9.48926"><ele>434.0</ele><time>2026-03-26T11:49:28.986Z</time></trkpt><trkpt lat="44.8025767" lon="9.4891667"><ele>434.0</ele><time>2026-03-26T11:49:29.987Z</time></trkpt><trkpt lat="44.80249" lon="9.4890783"><ele>434.0</ele><time>2026-03-26T11:49:30.987Z</time></trkpt><trkpt lat="44.802405" lon="9.4890017"><ele>435.2</ele><time>2026-03-26T11:49:31.986Z</time></trkpt><trkpt lat="44.8023183" lon="9.4889333"><ele>436.4</ele><time>2026-03-26T11:49:32.987Z</time></trkpt><trkpt lat="44.8022333" lon="9.488865"><ele>437.6</ele><time>2026-03-26T11:49:33.986Z</time></trkpt><trkpt lat="44.8021467" lon="9.4888"><ele>438.8</ele><time>2026-03-26T11:49:34.985Z</time></trkpt><trkpt lat="44.8020683" lon="9.4887517"><ele>440.0</ele><time>2026-03-26T11:49:35.986Z</time></trkpt><trkpt lat="44.801985" lon="9.488725"><ele>440.0</ele><time>2026-03-26T11:49:36.986Z</time></trkpt><trkpt lat="44.8018933" lon="9.488705"><ele>440.0</ele><time>2026-03-26T11:49:37.985Z</time></trkpt><trkpt lat="44.801795" lon="9.4887317"><ele>440.0</ele><time>2026-03-26T11:49:38.986Z</time></trkpt><trkpt lat="44.8016983" lon="9.4887633"><ele>440.0</ele><time>2026-03-26T11:49:39.987Z</time></trkpt><trkpt lat="44.8016" lon="9.4887883"><ele>440.0</ele><time>2026-03-26T11:49:40.986Z</time></trkpt><trkpt lat="44.8015033" lon="9.4888133"><ele>442.4</ele><time>2026-03-26T11:49:41.987Z</time></trkpt><trkpt lat="44.8014117" lon="9.48883"><ele>444.8</ele><time>2026-03-26T11:49:42.986Z</time></trkpt><trkpt lat="44.8013183" lon="9.4888433"><ele>447.20000000000005</ele><time>2026-03-26T11:49:43.986Z</time></trkpt><trkpt lat="44.80122" lon="9.4888733"><ele>449.6</ele><time>2026-03-26T11:49:44.987Z</time></trkpt><trkpt lat="44.8011283" lon="9.4889117"><ele>452.0</ele><time>2026-03-26T11:49:45.986Z</time></trkpt><trkpt lat="44.80104" lon="9.4889833"><ele>453.40000000000003</ele><time>2026-03-26T11:49:46.988Z</time></trkpt><trkpt lat="44.8009567" lon="9.489075"><ele>454.80000000000007</ele><time>2026-03-26T11:49:47.986Z</time></trkpt><trkpt lat="44.8008867" lon="9.4891733"><ele>456.2</ele><time>2026-03-26T11:49:48.986Z</time></trkpt><trkpt lat="44.8008133" lon="9.48927"><ele>457.6</ele><time>2026-03-26T11:49:49.987Z</time></trkpt><trkpt lat="44.80074" lon="9.4893533"><ele>459.0</ele><time>2026-03-26T11:49:50.986Z</time></trkpt><trkpt lat="44.8006667" lon="9.489435"><ele>459.0</ele><time>2026-03-26T11:49:51.986Z</time></trkpt><trkpt lat="44.8005933" lon="9.4895067"><ele>459.0</ele><time>2026-03-26T11:49:52.988Z</time></trkpt><trkpt lat="44.8005167" lon="9.489555"><ele>459.0</ele><time>2026-03-26T11:49:53.986Z</time></trkpt><trkpt lat="44.8004283" lon="9.48958"><ele>459.0</ele><time>2026-03-26T11:49:54.986Z</time></trkpt><trkpt lat="44.8003317" lon="9.4895683"><ele>459.0</ele><time>2026-03-26T11:49:55.988Z</time></trkpt><trkpt lat="44.800245" lon="9.48953"><ele>459.0</ele><time>2026-03-26T11:49:56.987Z</time></trkpt><trkpt lat="44.80017" lon="9.4894683"><ele>459.0</ele><time>2026-03-26T11:49:57.985Z</time></trkpt><trkpt lat="44.800095" lon="9.4893967"><ele>459.0</ele><time>2026-03-26T11:49:58.986Z</time></trkpt><trkpt lat="44.8000167" lon="9.489335"><ele>459.0</ele><time>2026-03-26T11:49:59.986Z</time></trkpt><trkpt lat="44.7999217" lon="9.48929"><ele>459.0</ele><time>2026-03-26T11:50:00.985Z</time></trkpt><trkpt lat="44.79983" lon="9.489255"><ele>460.3333333333333</ele><time>2026-03-26T11:50:01.986Z</time></trkpt><trkpt lat="44.79974" lon="9.48922"><ele>461.66666666666663</ele><time>2026-03-26T11:50:02.987Z</time></trkpt><trkpt lat="44.7996533" lon="9.48918"><ele>463.0</ele><time>2026-03-26T11:50:03.986Z</time></trkpt><trkpt lat="44.7995667" lon="9.4891467"><ele>464.3333333333333</ele><time>2026-03-26T11:50:04.987Z</time></trkpt><trkpt lat="44.79948" lon="9.4891183"><ele>465.66666666666663</ele><time>2026-03-26T11:50:05.987Z</time></trkpt><trkpt lat="44.799405" lon="9.4891167"><ele>467.0</ele><time>2026-03-26T11:50:06.986Z</time></trkpt><trkpt lat="44.799325" lon="9.48912"><ele>467.99999999999994</ele><time>2026-03-26T11:50:07.986Z</time></trkpt><trkpt lat="44.7992517" lon="9.4891267"><ele>469.0</ele><time>2026-03-26T11:50:08.988Z</time></trkpt><trkpt lat="44.79917" lon="9.48912"><ele>470.0</ele><time>2026-03-26T11:50:09.985Z</time></trkpt><trkpt lat="44.799105" lon="9.4891033"><ele>471.0</ele><time>2026-03-26T11:50:10.987Z</time></trkpt><trkpt lat="44.7989883" lon="9.4890683"><ele>471.99999999999994</ele><time>2026-03-26T11:50:12.986Z</time></trkpt><trkpt lat="44.7988933" lon="9.488995"><ele>473.0</ele><time>2026-03-26T11:50:14.987Z</time></trkpt><trkpt lat="44.798855" lon="9.4889183"><ele>472.99999999999994</ele><time>2026-03-26T11:50:15.987Z</time></trkpt><trkpt lat="44.7988117" lon="9.4888217"><ele>473.0</ele><time>2026-03-26T11:50:16.987Z</time></trkpt><trkpt lat="44.79876" lon="9.4887233"><ele>473.0</ele><time>2026-03-26T11:50:17.988Z</time></trkpt><trkpt lat="44.7987017" lon="9.4886417"><ele>473.0</ele><time>2026-03-26T11:50:18.986Z</time></trkpt><trkpt lat="44.79864" lon="9.488585"><ele>472.99999999999994</ele><time>2026-03-26T11:50:19.986Z</time></trkpt><trkpt lat="44.79858" lon="9.48854"><ele>473.0</ele><time>2026-03-26T11:50:20.987Z</time></trkpt><trkpt lat="44.79848" lon="9.4884467"><ele>472.59999999999997</ele><time>2026-03-26T11:50:22.987Z</time></trkpt><trkpt lat="44.7984533" lon="9.4883067"><ele>472.19999999999993</ele><time>2026-03-26T11:50:24.986Z</time></trkpt><trkpt lat="44.7985067" lon="9.488145"><ele>471.8</ele><time>2026-03-26T11:50:26.987Z</time></trkpt><trkpt lat="44.7985683" lon="9.48805"><ele>471.4</ele><time>2026-03-26T11:50:27.986Z</time></trkpt><trkpt lat="44.7986367" lon="9.487975"><ele>471.0</ele><time>2026-03-26T11:50:28.986Z</time></trkpt><trkpt lat="44.79871" lon="9.487915"><ele>471.0</ele><time>2026-03-26T11:50:29.985Z</time></trkpt><trkpt lat="44.79877" lon="9.487855"><ele>471.0</ele><time>2026-03-26T11:50:30.986Z</time></trkpt><trkpt lat="44.7988317" lon="9.4877333"><ele>471.0</ele><time>2026-03-26T11:50:32.987Z</time></trkpt><trkpt lat="44.7987717" lon="9.4876483"><ele>471.0</ele><time>2026-03-26T11:50:34.985Z</time></trkpt><trkpt lat="44.7986633" lon="9.4876217"><ele>471.0</ele><time>2026-03-26T11:50:36.987Z</time></trkpt><trkpt lat="44.79853" lon="9.4877133"><ele>473.4</ele><time>2026-03-26T11:50:38.987Z</time></trkpt><trkpt lat="44.7984533" lon="9.4877517"><ele>475.8</ele><time>2026-03-26T11:50:39.986Z</time></trkpt><trkpt lat="44.7983633" lon="9.4877767"><ele>478.19999999999993</ele><time>2026-03-26T11:50:40.987Z</time></trkpt><trkpt lat="44.798285" lon="9.4877833"><ele>480.59999999999997</ele><time>2026-03-26T11:50:41.987Z</time></trkpt><trkpt lat="44.7981633" lon="9.4877567"><ele>483.0</ele><time>2026-03-26T11:50:43.986Z</time></trkpt><trkpt lat="44.7980483" lon="9.4876717"><ele>483.0</ele><time>2026-03-26T11:50:45.987Z</time></trkpt><trkpt lat="44.79797" lon="9.4876467"><ele>483.0</ele><time>2026-03-26T11:50:46.987Z</time></trkpt><trkpt lat="44.7978867" lon="9.48764"><ele>483.0</ele><time>2026-03-26T11:50:47.986Z</time></trkpt><trkpt lat="44.7978" lon="9.4876533"><ele>483.0</ele><time>2026-03-26T11:50:48.986Z</time></trkpt><trkpt lat="44.7977033" lon="9.4876583"><ele>483.0</ele><time>2026-03-26T11:50:49.985Z</time></trkpt><trkpt lat="44.79761" lon="9.48765"><ele>483.0</ele><time>2026-03-26T11:50:50.987Z</time></trkpt><trkpt lat="44.79753" lon="9.4876417"><ele>483.57142857142856</ele><time>2026-03-26T11:50:51.986Z</time></trkpt><trkpt lat="44.7974583" lon="9.4876417"><ele>484.1428571428571</ele><time>2026-03-26T11:50:52.987Z</time></trkpt><trkpt lat="44.7973967" lon="9.4876633"><ele>484.7142857142857</ele><time>2026-03-26T11:50:53.986Z</time></trkpt><trkpt lat="44.7973517" lon="9.4877417"><ele>485.2857142857143</ele><time>2026-03-26T11:50:54.987Z</time></trkpt><trkpt lat="44.79731" lon="9.487845"><ele>485.85714285714283</ele><time>2026-03-26T11:50:55.985Z</time></trkpt><trkpt lat="44.79727" lon="9.4879383"><ele>486.42857142857144</ele><time>2026-03-26T11:50:56.986Z</time></trkpt><trkpt lat="44.7972183" lon="9.488005"><ele>487.0</ele><time>2026-03-26T11:50:57.986Z</time></trkpt><trkpt lat="44.7971067" lon="9.4880167"><ele>487.0</ele><time>2026-03-26T11:50:59.986Z</time></trkpt><trkpt lat="44.7970433" lon="9.48797"><ele>487.00000000000006</ele><time>2026-03-26T11:51:00.986Z</time></trkpt><trkpt lat="44.7969667" lon="9.4879117"><ele>487.00000000000006</ele><time>2026-03-26T11:51:01.985Z</time></trkpt><trkpt lat="44.79688" lon="9.4878517"><ele>487.0</ele><time>2026-03-26T11:51:02.99Z</time></trkpt><trkpt lat="44.796785" lon="9.4878017"><ele>487.0</ele><time>2026-03-26T11:51:03.986Z</time></trkpt><trkpt lat="44.7966906" lon="9.4877569"><ele>490.8</ele><time>2026-03-26T11:51:04.986Z</time></trkpt><trkpt lat="44.7965995" lon="9.4877218"><ele>494.6</ele><time>2026-03-26T11:51:05.986Z</time></trkpt><trkpt lat="44.796522" lon="9.4876897"><ele>498.40000000000003</ele><time>2026-03-26T11:51:06.989Z</time></trkpt><trkpt lat="44.7964413" lon="9.4875998"><ele>502.20000000000005</ele><time>2026-03-26T11:51:08.986Z</time></trkpt><trkpt lat="44.7964343" lon="9.4873988"><ele>506.0</ele><time>2026-03-26T11:51:10.987Z</time></trkpt><trkpt lat="44.7964431" lon="9.4872745"><ele>506.00000000000006</ele><time>2026-03-26T11:51:11.987Z</time></trkpt><trkpt lat="44.796458" lon="9.4871587"><ele>506.0</ele><time>2026-03-26T11:51:12.986Z</time></trkpt><trkpt lat="44.7964721" lon="9.4870509"><ele>506.00000000000006</ele><time>2026-03-26T11:51:13.986Z</time></trkpt><trkpt lat="44.7964736" lon="9.486944"><ele>506.00000000000006</ele><time>2026-03-26T11:51:14.987Z</time></trkpt><trkpt lat="44.7964629" lon="9.4868454"><ele>506.0</ele><time>2026-03-26T11:51:15.986Z</time></trkpt><trkpt lat="44.7964228" lon="9.4867714"><ele>506.00000000000006</ele><time>2026-03-26T11:51:16.987Z</time></trkpt><trkpt lat="44.7963625" lon="9.486725"><ele>506.00000000000006</ele><time>2026-03-26T11:51:17.985Z</time></trkpt><trkpt lat="44.7962909" lon="9.4866831"><ele>505.8333333333333</ele><time>2026-03-26T11:51:18.986Z</time></trkpt><trkpt lat="44.7962142" lon="9.4866333"><ele>505.66666666666663</ele><time>2026-03-26T11:51:19.987Z</time></trkpt><trkpt lat="44.7961498" lon="9.4865713"><ele>505.5</ele><time>2026-03-26T11:51:20.987Z</time></trkpt><trkpt lat="44.7960964" lon="9.4865128"><ele>505.33333333333337</ele><time>2026-03-26T11:51:21.986Z</time></trkpt><trkpt lat="44.7959943" lon="9.486462"><ele>505.1666666666667</ele><time>2026-03-26T11:51:23.987Z</time></trkpt><trkpt lat="44.795908" lon="9.4865474"><ele>505.0</ele><time>2026-03-26T11:51:25.986Z</time></trkpt><trkpt lat="44.79588" lon="9.4866321"><ele>508.50000000000006</ele><time>2026-03-26T11:51:26.987Z</time></trkpt><trkpt lat="44.7958532" lon="9.4867299"><ele>512.0</ele><time>2026-03-26T11:51:27.986Z</time></trkpt><trkpt lat="44.7958215" lon="9.4868319"><ele>515.5</ele><time>2026-03-26T11:51:28.988Z</time></trkpt><trkpt lat="44.7957801" lon="9.486942"><ele>519.0</ele><time>2026-03-26T11:51:29.986Z</time></trkpt><trkpt lat="44.795732" lon="9.4870633"><ele>522.5</ele><time>2026-03-26T11:51:30.986Z</time></trkpt><trkpt lat="44.7956892" lon="9.4871767"><ele>526.0</ele><time>2026-03-26T11:51:31.986Z</time></trkpt><trkpt lat="44.795654" lon="9.4872818"><ele>526.1666666666667</ele><time>2026-03-26T11:51:32.986Z</time></trkpt><trkpt lat="44.795623" lon="9.4873787"><ele>526.3333333333334</ele><time>2026-03-26T11:51:33.987Z</time></trkpt><trkpt lat="44.7955909" lon="9.4874609"><ele>526.5</ele><time>2026-03-26T11:51:34.986Z</time></trkpt><trkpt lat="44.7955074" lon="9.4875142"><ele>526.6666666666666</ele><time>2026-03-26T11:51:36.985Z</time></trkpt><trkpt lat="44.7954507" lon="9.4873748"><ele>526.8333333333333</ele><time>2026-03-26T11:51:38.986Z</time></trkpt><trkpt lat="44.795453" lon="9.4872688"><ele>527.0</ele><time>2026-03-26T11:51:39.986Z</time></trkpt><trkpt lat="44.7954612" lon="9.4871675"><ele>526.8333333333333</ele><time>2026-03-26T11:51:40.986Z</time></trkpt><trkpt lat="44.795465" lon="9.4870726"><ele>526.6666666666666</ele><time>2026-03-26T11:51:41.987Z</time></trkpt><trkpt lat="44.7954357" lon="9.4869011"><ele>526.5</ele><time>2026-03-26T11:51:43.986Z</time></trkpt><trkpt lat="44.7953944" lon="9.4868125"><ele>526.3333333333334</ele><time>2026-03-26T11:51:44.987Z</time></trkpt><trkpt lat="44.7953483" lon="9.4867185"><ele>526.1666666666667</ele><time>2026-03-26T11:51:45.986Z</time></trkpt><trkpt lat="44.7953063" lon="9.4866273"><ele>526.0</ele><time>2026-03-26T11:51:46.985Z</time></trkpt><trkpt lat="44.7952593" lon="9.4865519"><ele>526.0</ele><time>2026-03-26T11:51:47.987Z</time></trkpt><trkpt lat="44.7952001" lon="9.4864967"><ele>526.0</ele><time>2026-03-26T11:51:48.986Z</time></trkpt><trkpt lat="44.7951245" lon="9.486456"><ele>526.0</ele><time>2026-03-26T11:51:49.988Z</time></trkpt><trkpt lat="44.7950362" lon="9.4864253"><ele>526.0</ele><time>2026-03-26T11:51:50.988Z</time></trkpt><trkpt lat="44.7949475" lon="9.4863972"><ele>526.0</ele><time>2026-03-26T11:51:51.986Z</time></trkpt><trkpt lat="44.79486" lon="9.4863583"><ele>526.0</ele><time>2026-03-26T11:51:52.986Z</time></trkpt><trkpt lat="44.7947867" lon="9.4863133"><ele>528.1666666666667</ele><time>2026-03-26T11:51:53.986Z</time></trkpt><trkpt lat="44.7947217" lon="9.48627"><ele>530.3333333333334</ele><time>2026-03-26T11:51:54.986Z</time></trkpt><trkpt lat="44.794655" lon="9.486225"><ele>532.5</ele><time>2026-03-26T11:51:55.987Z</time></trkpt><trkpt lat="44.7945867" lon="9.486175"><ele>534.6666666666666</ele><time>2026-03-26T11:51:56.986Z</time></trkpt><trkpt lat="44.7945067" lon="9.4861183"><ele>536.8333333333333</ele><time>2026-03-26T11:51:57.986Z</time></trkpt><trkpt lat="44.7944167" lon="9.48607"><ele>539.0</ele><time>2026-03-26T11:51:58.986Z</time></trkpt><trkpt lat="44.7943183" lon="9.48602"><ele>541.0</ele><time>2026-03-26T11:51:59.986Z</time></trkpt><trkpt lat="44.79422" lon="9.485975"><ele>543.0</ele><time>2026-03-26T11:52:00.986Z</time></trkpt><trkpt lat="44.79413" lon="9.485935"><ele>545.0</ele><time>2026-03-26T11:52:01.987Z</time></trkpt><trkpt lat="44.7940517" lon="9.4858883"><ele>547.0</ele><time>2026-03-26T11:52:02.987Z</time></trkpt><trkpt lat="44.7939817" lon="9.4858283"><ele>549.0</ele><time>2026-03-26T11:52:03.987Z</time></trkpt><trkpt lat="44.7939117" lon="9.485765"><ele>551.0</ele><time>2026-03-26T11:52:04.986Z</time></trkpt><trkpt lat="44.7938283" lon="9.4857"><ele>551.0</ele><time>2026-03-26T11:52:05.985Z</time></trkpt><trkpt lat="44.79374" lon="9.4856283"><ele>551.0</ele><time>2026-03-26T11:52:06.986Z</time></trkpt><trkpt lat="44.7936633" lon="9.485535"><ele>551.0</ele><time>2026-03-26T11:52:07.986Z</time></trkpt><trkpt lat="44.7935867" lon="9.485425"><ele>551.0</ele><time>2026-03-26T11:52:08.987Z</time></trkpt><trkpt lat="44.7935083" lon="9.48532"><ele>551.0</ele><time>2026-03-26T11:52:09.986Z</time></trkpt><trkpt lat="44.7934267" lon="9.4852317"><ele>552.8</ele><time>2026-03-26T11:52:10.985Z</time></trkpt><trkpt lat="44.7933317" lon="9.4851633"><ele>554.6</ele><time>2026-03-26T11:52:11.986Z</time></trkpt><trkpt lat="44.79324" lon="9.4851133"><ele>556.4</ele><time>2026-03-26T11:52:12.986Z</time></trkpt><trkpt lat="44.793145" lon="9.4850733"><ele>558.2</ele><time>2026-03-26T11:52:13.986Z</time></trkpt><trkpt lat="44.7930617" lon="9.485015"><ele>560.0</ele><time>2026-03-26T11:52:14.988Z</time></trkpt><trkpt lat="44.7929983" lon="9.48493"><ele>560.0</ele><time>2026-03-26T11:52:15.987Z</time></trkpt><trkpt lat="44.792945" lon="9.484825"><ele>560.0</ele><time>2026-03-26T11:52:16.987Z</time></trkpt><trkpt lat="44.7928967" lon="9.4847283"><ele>560.0</ele><time>2026-03-26T11:52:17.987Z</time></trkpt><trkpt lat="44.7928467" lon="9.484655"><ele>560.0</ele><time>2026-03-26T11:52:18.988Z</time></trkpt><trkpt lat="44.792795" lon="9.4846"><ele>560.0</ele><time>2026-03-26T11:52:19.988Z</time></trkpt><trkpt lat="44.7927117" lon="9.484545"><ele>560.0</ele><time>2026-03-26T11:52:21.989Z</time></trkpt><trkpt lat="44.7926067" lon="9.48461"><ele>562.3333333333333</ele><time>2026-03-26T11:56:38.988Z</time></trkpt><trkpt lat="44.7925467" lon="9.48457"><ele>564.6666666666666</ele><time>2026-03-26T11:56:44.987Z</time></trkpt><trkpt lat="44.79249" lon="9.484525"><ele>567.0</ele><time>2026-03-26T11:56:46.986Z</time></trkpt><trkpt lat="44.792455" lon="9.48444"><ele>569.3333333333334</ele><time>2026-03-26T11:56:48.987Z</time></trkpt><trkpt lat="44.7924383" lon="9.4842917"><ele>571.6666666666667</ele><time>2026-03-26T11:56:50.987Z</time></trkpt><trkpt lat="44.7924317" lon="9.4841917"><ele>574.0</ele><time>2026-03-26T11:56:51.987Z</time></trkpt><trkpt lat="44.7924133" lon="9.484085"><ele>574.0</ele><time>2026-03-26T11:56:52.986Z</time></trkpt><trkpt lat="44.7923933" lon="9.483945"><ele>574.0</ele><time>2026-03-26T11:56:53.987Z</time></trkpt><trkpt lat="44.792365" lon="9.4838233"><ele>574.0</ele><time>2026-03-26T11:56:54.987Z</time></trkpt><trkpt lat="44.792325" lon="9.4837133"><ele>574.0</ele><time>2026-03-26T11:56:55.988Z</time></trkpt><trkpt lat="44.7922817" lon="9.4835967"><ele>574.0</ele><time>2026-03-26T11:56:56.988Z</time></trkpt><trkpt lat="44.792225" lon="9.483485"><ele>574.3333333333334</ele><time>2026-03-26T11:56:57.987Z</time></trkpt><trkpt lat="44.792175" lon="9.483405"><ele>574.6666666666667</ele><time>2026-03-26T11:56:58.987Z</time></trkpt><trkpt lat="44.7921383" lon="9.483325"><ele>575.0</ele><time>2026-03-26T11:56:59.986Z</time></trkpt><trkpt lat="44.7921117" lon="9.4831867"><ele>575.3333333333334</ele><time>2026-03-26T11:57:01.987Z</time></trkpt><trkpt lat="44.792135" lon="9.4830333"><ele>575.6666666666666</ele><time>2026-03-26T11:57:03.987Z</time></trkpt><trkpt lat="44.7921433" lon="9.4829317"><ele>576.0</ele><time>2026-03-26T11:57:05.986Z</time></trkpt><trkpt lat="44.792095" lon="9.4828467"><ele>578.0</ele><time>2026-03-26T11:57:08.987Z</time></trkpt><trkpt lat="44.7920567" lon="9.4827633"><ele>580.0</ele><time>2026-03-26T11:57:10.989Z</time></trkpt><trkpt lat="44.7919995" lon="9.4826674"><ele>582.0</ele><time>2026-03-26T11:57:12.987Z</time></trkpt><trkpt lat="44.7919396" lon="9.482558"><ele>584.0</ele><time>2026-03-26T11:57:14.988Z</time></trkpt><trkpt lat="44.7918793" lon="9.4824453"><ele>586.0</ele><time>2026-03-26T11:57:16.987Z</time></trkpt><trkpt lat="44.7918117" lon="9.4823195"><ele>589.5</ele><time>2026-03-26T11:57:18.987Z</time></trkpt><trkpt lat="44.7917224" lon="9.4822351"><ele>593.0</ele><time>2026-03-26T11:57:20.988Z</time></trkpt><trkpt lat="44.7916216" lon="9.482151"><ele>596.5</ele><time>2026-03-26T11:57:22.987Z</time></trkpt><trkpt lat="44.7915494" lon="9.4820586"><ele>600.0</ele><time>2026-03-26T11:57:24.986Z</time></trkpt><trkpt lat="44.7914558" lon="9.4819096"><ele>600.3333333333334</ele><time>2026-03-26T11:57:38.024Z</time></trkpt><trkpt lat="44.7914116" lon="9.4818132"><ele>600.6666666666666</ele><time>2026-03-26T11:57:38.988Z</time></trkpt><trkpt lat="44.7913557" lon="9.4816935"><ele>601.0</ele><time>2026-03-26T11:57:39.987Z</time></trkpt><trkpt lat="44.7913063" lon="9.4816118"><ele>601.3333333333333</ele><time>2026-03-26T11:57:40.987Z</time></trkpt><trkpt lat="44.7912565" lon="9.4815364"><ele>601.6666666666666</ele><time>2026-03-26T11:57:42.987Z</time></trkpt><trkpt lat="44.7911995" lon="9.4816358"><ele>602.0</ele><time>2026-03-26T11:57:52.987Z</time></trkpt><trkpt lat="44.7911991" lon="9.4817547"><ele>602.0</ele><time>2026-03-26T11:57:54.988Z</time></trkpt><trkpt lat="44.7911942" lon="9.4818747"><ele>602.0</ele><time>2026-03-26T11:57:56.988Z</time></trkpt><trkpt lat="44.7911653" lon="9.4819787"><ele>602.0</ele><time>2026-03-26T11:57:58.987Z</time></trkpt><trkpt lat="44.7911005" lon="9.4820247"><ele>602.0</ele><time>2026-03-26T11:58:00.986Z</time></trkpt><trkpt lat="44.7910189" lon="9.4820048"><ele>602.0</ele><time>2026-03-26T11:58:02.988Z</time></trkpt><trkpt lat="44.7909129" lon="9.4819269"><ele>602.0</ele><time>2026-03-26T11:58:04.988Z</time></trkpt><trkpt lat="44.7908521" lon="9.481882"><ele>604.2857142857143</ele><time>2026-03-26T11:58:05.988Z</time></trkpt><trkpt lat="44.7907859" lon="9.4818445"><ele>606.5714285714286</ele><time>2026-03-26T11:58:06.987Z</time></trkpt><trkpt lat="44.7907145" lon="9.4818148"><ele>608.8571428571429</ele><time>2026-03-26T11:58:07.987Z</time></trkpt><trkpt lat="44.7906487" lon="9.4817854"><ele>611.1428571428571</ele><time>2026-03-26T11:58:08.988Z</time></trkpt><trkpt lat="44.7905904" lon="9.481749"><ele>613.4285714285714</ele><time>2026-03-26T11:58:09.985Z</time></trkpt><trkpt lat="44.7905366" lon="9.4816968"><ele>615.7142857142858</ele><time>2026-03-26T11:58:10.987Z</time></trkpt><trkpt lat="44.790479" lon="9.4816203"><ele>618.0</ele><time>2026-03-26T11:58:11.987Z</time></trkpt><trkpt lat="44.7904294" lon="9.4815349"><ele>618.0</ele><time>2026-03-26T11:58:12.986Z</time></trkpt><trkpt lat="44.7903911" lon="9.4814593"><ele>618.0</ele><time>2026-03-26T11:58:13.986Z</time></trkpt><trkpt lat="44.7903416" lon="9.4813448"><ele>618.0</ele><time>2026-03-26T11:58:15.987Z</time></trkpt><trkpt lat="44.7903036" lon="9.481245"><ele>618.0</ele><time>2026-03-26T11:58:17.987Z</time></trkpt><trkpt lat="44.7902625" lon="9.4811306"><ele>618.0</ele><time>2026-03-26T11:58:19.986Z</time></trkpt><trkpt lat="44.7902201" lon="9.4809895"><ele>618.0</ele><time>2026-03-26T11:58:21.987Z</time></trkpt><trkpt lat="44.7901643" lon="9.4808669"><ele>621.6</ele><time>2026-03-26T11:58:23.986Z</time></trkpt><trkpt lat="44.7900875" lon="9.4807837"><ele>625.1999999999999</ele><time>2026-03-26T11:58:25.987Z</time></trkpt><trkpt lat="44.7899846" lon="9.4807318"><ele>628.8</ele><time>2026-03-26T11:58:27.987Z</time></trkpt><trkpt lat="44.7898783" lon="9.4806509"><ele>632.4</ele><time>2026-03-26T11:58:29.986Z</time></trkpt><trkpt lat="44.7897848" lon="9.4805605"><ele>636.0</ele><time>2026-03-26T11:58:31.987Z</time></trkpt><trkpt lat="44.7896716" lon="9.480508"><ele>636.0</ele><time>2026-03-26T11:58:33.987Z</time></trkpt><trkpt lat="44.789608" lon="9.4804802"><ele>636.0</ele><time>2026-03-26T11:58:34.987Z</time></trkpt><trkpt lat="44.7895463" lon="9.4804492"><ele>636.0</ele><time>2026-03-26T11:58:35.987Z</time></trkpt><trkpt lat="44.7894774" lon="9.4804236"><ele>636.0</ele><time>2026-03-26T11:58:36.988Z</time></trkpt><trkpt lat="44.7894083" lon="9.4804018"><ele>636.0</ele><time>2026-03-26T11:58:37.987Z</time></trkpt><trkpt lat="44.7893351" lon="9.480379"><ele>636.0</ele><time>2026-03-26T11:58:38.988Z</time></trkpt><trkpt lat="44.7892625" lon="9.4803582"><ele>636.0</ele><time>2026-03-26T11:58:39.987Z</time></trkpt><trkpt lat="44.7891866" lon="9.480341"><ele>639.8333333333334</ele><time>2026-03-26T11:58:40.987Z</time></trkpt><trkpt lat="44.789115" lon="9.4803335"><ele>643.6666666666666</ele><time>2026-03-26T11:58:41.987Z</time></trkpt><trkpt lat="44.7890409" lon="9.4803289"><ele>647.5</ele><time>2026-03-26T11:58:42.987Z</time></trkpt><trkpt lat="44.788932" lon="9.4803118"><ele>651.3333333333333</ele><time>2026-03-26T11:58:44.988Z</time></trkpt><trkpt lat="44.7888429" lon="9.480225"><ele>655.1666666666666</ele><time>2026-03-26T11:58:46.987Z</time></trkpt><trkpt lat="44.7888026" lon="9.4801512"><ele>659.0</ele><time>2026-03-26T11:58:47.987Z</time></trkpt><trkpt lat="44.7887408" lon="9.4800116"><ele>659.0</ele><time>2026-03-26T11:58:49.988Z</time></trkpt><trkpt lat="44.7886919" lon="9.4799104"><ele>659.0</ele><time>2026-03-26T11:58:51.986Z</time></trkpt><trkpt lat="44.7886536" lon="9.4798335"><ele>659.0</ele><time>2026-03-26T11:58:54.987Z</time></trkpt><trkpt lat="44.7885436" lon="9.479702"><ele>659.0</ele><time>2026-03-26T11:59:22.987Z</time></trkpt><trkpt lat="44.7884689" lon="9.4796155"><ele>659.0</ele><time>2026-03-26T11:59:23.988Z</time></trkpt><trkpt lat="44.7883905" lon="9.479528"><ele>660.4000000000001</ele><time>2026-03-26T11:59:24.987Z</time></trkpt><trkpt lat="44.7882933" lon="9.479435"><ele>661.8</ele><time>2026-03-26T11:59:25.987Z</time></trkpt><trkpt lat="44.7882017" lon="9.4793633"><ele>663.2</ele><time>2026-03-26T11:59:26.987Z</time></trkpt><trkpt lat="44.7881067" lon="9.4792933"><ele>664.5999999999999</ele><time>2026-03-26T11:59:27.986Z</time></trkpt><trkpt lat="44.7880167" lon="9.4792267"><ele>666.0</ele><time>2026-03-26T11:59:28.987Z</time></trkpt><trkpt lat="44.7879283" lon="9.479165"><ele>666.0</ele><time>2026-03-26T11:59:29.987Z</time></trkpt><trkpt lat="44.787865" lon="9.479095"><ele>666.0</ele><time>2026-03-26T11:59:30.987Z</time></trkpt><trkpt lat="44.7878183" lon="9.47901"><ele>666.0</ele><time>2026-03-26T11:59:31.987Z</time></trkpt><trkpt lat="44.78777" lon="9.47891"><ele>666.0</ele><time>2026-03-26T11:59:32.988Z</time></trkpt><trkpt lat="44.7877367" lon="9.4788017"><ele>666.0</ele><time>2026-03-26T11:59:33.987Z</time></trkpt><trkpt lat="44.7877117" lon="9.4786767"><ele>666.0</ele><time>2026-03-26T11:59:34.986Z</time></trkpt><trkpt lat="44.7876867" lon="9.47854"><ele>670.0</ele><time>2026-03-26T11:59:35.986Z</time></trkpt><trkpt lat="44.7876533" lon="9.4784083"><ele>674.0</ele><time>2026-03-26T11:59:36.987Z</time></trkpt><trkpt lat="44.787635" lon="9.4782817"><ele>678.0</ele><time>2026-03-26T11:59:37.987Z</time></trkpt><trkpt lat="44.7876167" lon="9.4781583"><ele>682.0</ele><time>2026-03-26T11:59:38.988Z</time></trkpt><trkpt lat="44.7875917" lon="9.4780333"><ele>686.0</ele><time>2026-03-26T11:59:39.987Z</time></trkpt><trkpt lat="44.7875617" lon="9.477915"><ele>687.5</ele><time>2026-03-26T11:59:40.988Z</time></trkpt><trkpt lat="44.7875483" lon="9.4777983"><ele>689.0</ele><time>2026-03-26T11:59:41.987Z</time></trkpt><trkpt lat="44.7875417" lon="9.4776883"><ele>690.5</ele><time>2026-03-26T11:59:42.986Z</time></trkpt><trkpt lat="44.7875417" lon="9.477595"><ele>692.0</ele><time>2026-03-26T11:59:43.986Z</time></trkpt><trkpt lat="44.7875333" lon="9.4774417"><ele>693.5</ele><time>2026-03-26T11:59:45.987Z</time></trkpt><trkpt lat="44.7874667" lon="9.4773217"><ele>695.0</ele><time>2026-03-26T11:59:47.987Z</time></trkpt><trkpt lat="44.7874117" lon="9.4772783"><ele>695.0</ele><time>2026-03-26T11:59:48.987Z</time></trkpt><trkpt lat="44.7873567" lon="9.477225"><ele>695.0</ele><time>2026-03-26T11:59:49.988Z</time></trkpt><trkpt lat="44.787295" lon="9.4771833"><ele>695.0</ele><time>2026-03-26T11:59:50.988Z</time></trkpt><trkpt lat="44.78722" lon="9.4771483"><ele>695.0</ele><time>2026-03-26T11:59:51.987Z</time></trkpt><trkpt lat="44.7871233" lon="9.47711"><ele>695.0</ele><time>2026-03-26T11:59:52.987Z</time></trkpt><trkpt lat="44.7870267" lon="9.477055"><ele>695.0</ele><time>2026-03-26T11:59:53.988Z</time></trkpt><trkpt lat="44.7869433" lon="9.4769817"><ele>695.8</ele><time>2026-03-26T11:59:54.987Z</time></trkpt><trkpt lat="44.786875" lon="9.47689"><ele>696.6</ele><time>2026-03-26T11:59:55.987Z</time></trkpt><trkpt lat="44.786825" lon="9.476785"><ele>697.4000000000001</ele><time>2026-03-26T11:59:56.988Z</time></trkpt><trkpt lat="44.7867933" lon="9.4766583"><ele>698.2</ele><time>2026-03-26T11:59:57.988Z</time></trkpt><trkpt lat="44.7867683" lon="9.47652"><ele>699.0</ele><time>2026-03-26T11:59:58.987Z</time></trkpt><trkpt lat="44.7867417" lon="9.47637"><ele>701.0</ele><time>2026-03-26T11:59:59.987Z</time></trkpt><trkpt lat="44.7867083" lon="9.4762217"><ele>703.0</ele><time>2026-03-26T12:00:00.986Z</time></trkpt><trkpt lat="44.7866617" lon="9.4760867"><ele>705.0</ele><time>2026-03-26T12:00:01.988Z</time></trkpt><trkpt lat="44.7866067" lon="9.475975"><ele>707.0</ele><time>2026-03-26T12:00:02.987Z</time></trkpt><trkpt lat="44.7865467" lon="9.475875"><ele>709.0</ele><time>2026-03-26T12:00:03.986Z</time></trkpt><trkpt lat="44.786475" lon="9.4757833"><ele>709.0</ele><time>2026-03-26T12:00:04.986Z</time></trkpt><trkpt lat="44.7864067" lon="9.4756817"><ele>709.0</ele><time>2026-03-26T12:00:05.987Z</time></trkpt><trkpt lat="44.7863483" lon="9.475575"><ele>709.0</ele><time>2026-03-26T12:00:06.987Z</time></trkpt><trkpt lat="44.786295" lon="9.47546"><ele>709.0</ele><time>2026-03-26T12:00:07.987Z</time></trkpt><trkpt lat="44.7862433" lon="9.4753483"><ele>709.0</ele><time>2026-03-26T12:00:08.987Z</time></trkpt><trkpt lat="44.7861817" lon="9.4752567"><ele>709.8333333333334</ele><time>2026-03-26T12:00:09.987Z</time></trkpt><trkpt lat="44.7861117" lon="9.475185"><ele>710.6666666666667</ele><time>2026-03-26T12:00:10.988Z</time></trkpt><trkpt lat="44.786045" lon="9.47513"><ele>711.5</ele><time>2026-03-26T12:00:11.988Z</time></trkpt><trkpt lat="44.785985" lon="9.4750817"><ele>712.3333333333334</ele><time>2026-03-26T12:00:12.987Z</time></trkpt><trkpt lat="44.785895" lon="9.4750367"><ele>713.1666666666666</ele><time>2026-03-26T12:00:14.988Z</time></trkpt><trkpt lat="44.7858267" lon="9.475125"><ele>714.0</ele><time>2026-03-26T12:00:16.986Z</time></trkpt><trkpt lat="44.7857633" lon="9.4751433"><ele>715.5</ele><time>2026-03-26T12:00:19.988Z</time></trkpt><trkpt lat="44.7857667" lon="9.4750533"><ele>717.0</ele><time>2026-03-26T12:00:21.987Z</time></trkpt><trkpt lat="44.7857933" lon="9.4749667"><ele>718.5</ele><time>2026-03-26T12:00:23.986Z</time></trkpt><trkpt lat="44.7857917" lon="9.474875"><ele>720.0</ele><time>2026-03-26T12:00:25.987Z</time></trkpt><trkpt lat="44.78577" lon="9.474775"><ele>721.5</ele><time>2026-03-26T12:00:27.987Z</time></trkpt><trkpt lat="44.7857067" lon="9.4746983"><ele>723.0</ele><time>2026-03-26T12:00:29.989Z</time></trkpt><trkpt lat="44.7856183" lon="9.4746267"><ele>723.6666666666666</ele><time>2026-03-26T12:00:31.987Z</time></trkpt><trkpt lat="44.7855567" lon="9.4745933"><ele>724.3333333333334</ele><time>2026-03-26T12:00:32.989Z</time></trkpt><trkpt lat="44.78549" lon="9.4745567"><ele>725.0</ele><time>2026-03-26T12:00:33.987Z</time></trkpt><trkpt lat="44.7854183" lon="9.4745117"><ele>725.6666666666667</ele><time>2026-03-26T12:00:34.987Z</time></trkpt><trkpt lat="44.785335" lon="9.4744633"><ele>726.3333333333334</ele><time>2026-03-26T12:00:35.987Z</time></trkpt><trkpt lat="44.7852517" lon="9.4744183"><ele>727.0</ele><time>2026-03-26T12:00:36.987Z</time></trkpt><trkpt lat="44.7851717" lon="9.4743817"><ele>728.6666666666667</ele><time>2026-03-26T12:00:37.988Z</time></trkpt><trkpt lat="44.7850917" lon="9.4743517"><ele>730.3333333333334</ele><time>2026-03-26T12:00:38.988Z</time></trkpt><trkpt lat="44.7850183" lon="9.4743183"><ele>732.0</ele><time>2026-03-26T12:00:39.987Z</time></trkpt><trkpt lat="44.7849583" lon="9.474265"><ele>733.6666666666666</ele><time>2026-03-26T12:00:40.987Z</time></trkpt><trkpt lat="44.7849067" lon="9.4741933"><ele>735.3333333333333</ele><time>2026-03-26T12:00:41.987Z</time></trkpt><trkpt lat="44.7848667" lon="9.4740983"><ele>737.0</ele><time>2026-03-26T12:00:42.986Z</time></trkpt><trkpt lat="44.78483" lon="9.4740033"><ele>737.0</ele><time>2026-03-26T12:00:43.988Z</time></trkpt><trkpt lat="44.7847917" lon="9.4739133"><ele>737.0</ele><time>2026-03-26T12:00:44.987Z</time></trkpt><trkpt lat="44.7847367" lon="9.4738333"><ele>737.0</ele><time>2026-03-26T12:00:45.987Z</time></trkpt><trkpt lat="44.7846733" lon="9.47376"><ele>737.0</ele><time>2026-03-26T12:00:46.987Z</time></trkpt><trkpt lat="44.7846067" lon="9.4736867"><ele>737.0</ele><time>2026-03-26T12:00:47.988Z</time></trkpt><trkpt lat="44.78454" lon="9.47362"><ele>737.0</ele><time>2026-03-26T12:00:48.987Z</time></trkpt><trkpt lat="44.78448" lon="9.473555"><ele>737.1666666666666</ele><time>2026-03-26T12:00:49.987Z</time></trkpt><trkpt lat="44.7844283" lon="9.4734883"><ele>737.3333333333333</ele><time>2026-03-26T12:00:50.987Z</time></trkpt><trkpt lat="44.7843917" lon="9.473405"><ele>737.5</ele><time>2026-03-26T12:00:51.986Z</time></trkpt><trkpt lat="44.784365" lon="9.4733067"><ele>737.6666666666666</ele><time>2026-03-26T12:00:52.987Z</time></trkpt><trkpt lat="44.7843367" lon="9.4732"><ele>737.8333333333334</ele><time>2026-03-26T12:00:53.988Z</time></trkpt><trkpt lat="44.7843067" lon="9.4730983"><ele>738.0</ele><time>2026-03-26T12:00:54.987Z</time></trkpt><trkpt lat="44.7842867" lon="9.4729867"><ele>739.2</ele><time>2026-03-26T12:00:55.987Z</time></trkpt><trkpt lat="44.7842867" lon="9.4728717"><ele>740.4</ele><time>2026-03-26T12:00:56.989Z</time></trkpt><trkpt lat="44.7843017" lon="9.4727833"><ele>741.6</ele><time>2026-03-26T12:00:57.986Z</time></trkpt><trkpt lat="44.7843283" lon="9.4726633"><ele>742.8000000000001</ele><time>2026-03-26T12:00:59.988Z</time></trkpt><trkpt lat="44.78436" lon="9.4725683"><ele>744.0</ele><time>2026-03-26T12:01:01.988Z</time></trkpt><trkpt lat="44.7844433" lon="9.4723783"><ele>744.0</ele><time>2026-03-26T12:01:03.986Z</time></trkpt><trkpt lat="44.784495" lon="9.4722567"><ele>744.0</ele><time>2026-03-26T12:01:04.987Z</time></trkpt><trkpt lat="44.7845617" lon="9.4721383"><ele>744.0</ele><time>2026-03-26T12:01:05.987Z</time></trkpt><trkpt lat="44.7846283" lon="9.472055"><ele>744.0</ele><time>2026-03-26T12:01:06.987Z</time></trkpt><trkpt lat="44.7847017" lon="9.4719917"><ele>744.0</ele><time>2026-03-26T12:01:07.986Z</time></trkpt><trkpt lat="44.7847817" lon="9.4719567"><ele>746.0</ele><time>2026-03-26T12:01:08.987Z</time></trkpt><trkpt lat="44.7848733" lon="9.4719383"><ele>748.0</ele><time>2026-03-26T12:01:09.987Z</time></trkpt><trkpt lat="44.7849783" lon="9.4719467"><ele>750.0</ele><time>2026-03-26T12:01:10.988Z</time></trkpt><trkpt lat="44.785075" lon="9.4719567"><ele>752.0</ele><time>2026-03-26T12:01:11.987Z</time></trkpt><trkpt lat="44.785165" lon="9.4719717"><ele>754.0</ele><time>2026-03-26T12:01:12.986Z</time></trkpt><trkpt lat="44.7852367" lon="9.4719783"><ele>754.0</ele><time>2026-03-26T12:01:13.988Z</time></trkpt><trkpt lat="44.7853133" lon="9.471985"><ele>754.0</ele><time>2026-03-26T12:01:14.988Z</time></trkpt><trkpt lat="44.78538" lon="9.4719867"><ele>754.0</ele><time>2026-03-26T12:01:15.987Z</time></trkpt><trkpt lat="44.7854933" lon="9.4719583"><ele>754.0</ele><time>2026-03-26T12:01:17.987Z</time></trkpt><trkpt lat="44.7856017" lon="9.47184"><ele>754.0</ele><time>2026-03-26T12:01:19.987Z</time></trkpt><trkpt lat="44.7856667" lon="9.4717683"><ele>754.0</ele><time>2026-03-26T12:01:20.988Z</time></trkpt><trkpt lat="44.785735" lon="9.4717"><ele>754.0</ele><time>2026-03-26T12:01:21.986Z</time></trkpt><trkpt lat="44.7858" lon="9.47164"><ele>754.0</ele><time>2026-03-26T12:01:22.987Z</time></trkpt><trkpt lat="44.78586" lon="9.471595"><ele>754.0</ele><time>2026-03-26T12:01:23.987Z</time></trkpt><trkpt lat="44.7859183" lon="9.4715517"><ele>754.0</ele><time>2026-03-26T12:01:24.989Z</time></trkpt><trkpt lat="44.7859883" lon="9.4714967"><ele>754.0</ele><time>2026-03-26T12:01:25.988Z</time></trkpt><trkpt lat="44.7860483" lon="9.4714267"><ele>754.6666666666667</ele><time>2026-03-26T12:01:26.989Z</time></trkpt><trkpt lat="44.78611" lon="9.4713433"><ele>755.3333333333334</ele><time>2026-03-26T12:01:27.987Z</time></trkpt><trkpt lat="44.7861783" lon="9.4712467"><ele>756.0</ele><time>2026-03-26T12:01:28.987Z</time></trkpt><trkpt lat="44.7862333" lon="9.4711417"><ele>756.6666666666666</ele><time>2026-03-26T12:01:29.987Z</time></trkpt><trkpt lat="44.78628" lon="9.471035"><ele>757.3333333333333</ele><time>2026-03-26T12:01:30.987Z</time></trkpt><trkpt lat="44.7863117" lon="9.47093"><ele>758.0</ele><time>2026-03-26T12:01:31.987Z</time></trkpt><trkpt lat="44.7863267" lon="9.4708333"><ele>758.0</ele><time>2026-03-26T12:01:32.987Z</time></trkpt><trkpt lat="44.78634" lon="9.4707433"><ele>758.0</ele><time>2026-03-26T12:01:33.987Z</time></trkpt><trkpt lat="44.7863483" lon="9.4706367"><ele>758.0</ele><time>2026-03-26T12:01:34.987Z</time></trkpt><trkpt lat="44.7863583" lon="9.4705133"><ele>758.0</ele><time>2026-03-26T12:01:35.988Z</time></trkpt><trkpt lat="44.78637" lon="9.4703883"><ele>758.0</ele><time>2026-03-26T12:01:36.987Z</time></trkpt><trkpt lat="44.786385" lon="9.4702667"><ele>758.0</ele><time>2026-03-26T12:01:37.987Z</time></trkpt><trkpt lat="44.7864017" lon="9.470155"><ele>759.0</ele><time>2026-03-26T12:01:38.989Z</time></trkpt><trkpt lat="44.7864133" lon="9.4700633"><ele>760.0</ele><time>2026-03-26T12:01:39.986Z</time></trkpt><trkpt lat="44.7864233" lon="9.469975"><ele>761.0</ele><time>2026-03-26T12:01:40.986Z</time></trkpt><trkpt lat="44.7864217" lon="9.4698783"><ele>762.0</ele><time>2026-03-26T12:01:41.987Z</time></trkpt><trkpt lat="44.7864167" lon="9.46978"><ele>763.0</ele><time>2026-03-26T12:01:42.986Z</time></trkpt><trkpt lat="44.7863967" lon="9.4696167"><ele>764.0</ele><time>2026-03-26T12:01:44.988Z</time></trkpt><trkpt lat="44.7863733" lon="9.4695283"><ele>764.0</ele><time>2026-03-26T12:01:45.988Z</time></trkpt><trkpt lat="44.78633" lon="9.4693817"><ele>764.0</ele><time>2026-03-26T12:01:47.988Z</time></trkpt><trkpt lat="44.7862583" lon="9.469305"><ele>764.0</ele><time>2026-03-26T12:02:10.987Z</time></trkpt><trkpt lat="44.7861983" lon="9.4692617"><ele>764.0</ele><time>2026-03-26T12:02:12.986Z</time></trkpt><trkpt lat="44.78614" lon="9.4691833"><ele>764.0</ele><time>2026-03-26T12:02:14.988Z</time></trkpt><trkpt lat="44.7861283" lon="9.4690617"><ele>764.0</ele><time>2026-03-26T12:02:16.987Z</time></trkpt><trkpt lat="44.7861167" lon="9.468925"><ele>764.0</ele><time>2026-03-26T12:02:18.987Z</time></trkpt><trkpt lat="44.7861167" lon="9.468825"><ele>764.0</ele><time>2026-03-26T12:02:20.988Z</time></trkpt><trkpt lat="44.7861167" lon="9.4686917"><ele>764.0</ele><time>2026-03-26T12:02:23.987Z</time></trkpt><trkpt lat="44.786145" lon="9.4685933"><ele>764.0</ele><time>2026-03-26T12:02:25.987Z</time></trkpt><trkpt lat="44.7861817" lon="9.4684883"><ele>764.0</ele><time>2026-03-26T12:02:27.986Z</time></trkpt><trkpt lat="44.786215" lon="9.4684067"><ele>764.0</ele><time>2026-03-26T12:02:29.988Z</time></trkpt><trkpt lat="44.7862533" lon="9.4683117"><ele>764.0</ele><time>2026-03-26T12:02:31.987Z</time></trkpt><trkpt lat="44.7863133" lon="9.4682167"><ele>764.0</ele><time>2026-03-26T12:02:34.987Z</time></trkpt><trkpt lat="44.7863517" lon="9.4681117"><ele>764.0</ele><time>2026-03-26T12:02:37.987Z</time></trkpt><trkpt lat="44.7863617" lon="9.4680183"><ele>764.0</ele><time>2026-03-26T12:02:39.986Z</time></trkpt><trkpt lat="44.78638" lon="9.4679317"><ele>764.0</ele><time>2026-03-26T12:02:41.987Z</time></trkpt><trkpt lat="44.7864217" lon="9.467805"><ele>764.0</ele><time>2026-03-26T12:02:43.987Z</time></trkpt><trkpt lat="44.786465" lon="9.4676767"><ele>763.8333333333333</ele><time>2026-03-26T12:02:45.987Z</time></trkpt><trkpt lat="44.7865033" lon="9.4675367"><ele>763.6666666666666</ele><time>2026-03-26T12:02:47.987Z</time></trkpt><trkpt lat="44.7865217" lon="9.4674483"><ele>763.5</ele><time>2026-03-26T12:02:48.989Z</time></trkpt><trkpt lat="44.7865383" lon="9.4673617"><ele>763.3333333333334</ele><time>2026-03-26T12:02:49.988Z</time></trkpt><trkpt lat="44.7865667" lon="9.4672267"><ele>763.1666666666667</ele><time>2026-03-26T12:02:51.988Z</time></trkpt><trkpt lat="44.7865733" lon="9.4670817"><ele>763.0</ele><time>2026-03-26T12:03:01.988Z</time></trkpt><trkpt lat="44.7866117" lon="9.4669483"><ele>762.2</ele><time>2026-03-26T12:03:03.987Z</time></trkpt><trkpt lat="44.7866817" lon="9.4668533"><ele>761.4</ele><time>2026-03-26T12:03:05.988Z</time></trkpt><trkpt lat="44.7867583" lon="9.4667567"><ele>760.6</ele><time>2026-03-26T12:03:07.988Z</time></trkpt><trkpt lat="44.786835" lon="9.46664"><ele>759.8000000000001</ele><time>2026-03-26T12:03:09.988Z</time></trkpt><trkpt lat="44.7868933" lon="9.4664983"><ele>759.0</ele><time>2026-03-26T12:03:11.986Z</time></trkpt><trkpt lat="44.7869433" lon="9.4663983"><ele>757.2</ele><time>2026-03-26T12:03:13.986Z</time></trkpt><trkpt lat="44.7870183" lon="9.46632"><ele>755.4000000000001</ele><time>2026-03-26T12:03:16.986Z</time></trkpt><trkpt lat="44.7870833" lon="9.4662567"><ele>753.6</ele><time>2026-03-26T12:03:18.986Z</time></trkpt><trkpt lat="44.7871567" lon="9.4661617"><ele>751.8</ele><time>2026-03-26T12:03:20.986Z</time></trkpt><trkpt lat="44.7872417" lon="9.4660817"><ele>750.0</ele><time>2026-03-26T12:03:22.987Z</time></trkpt><trkpt lat="44.78733" lon="9.4660217"><ele>748.5</ele><time>2026-03-26T12:03:24.987Z</time></trkpt><trkpt lat="44.7873817" lon="9.4659217"><ele>747.0</ele><time>2026-03-26T12:03:26.988Z</time></trkpt><trkpt lat="44.7873783" lon="9.4658083"><ele>745.5</ele><time>2026-03-26T12:03:28.987Z</time></trkpt><trkpt lat="44.78737" lon="9.4657117"><ele>744.0</ele><time>2026-03-26T12:03:30.987Z</time></trkpt><trkpt lat="44.7874533" lon="9.4657017"><ele>742.5</ele><time>2026-03-26T12:03:33.987Z</time></trkpt><trkpt lat="44.7875117" lon="9.4658133"><ele>741.0</ele><time>2026-03-26T12:03:35.987Z</time></trkpt><trkpt lat="44.7875683" lon="9.4658967"><ele>741.0</ele><time>2026-03-26T12:03:37.988Z</time></trkpt><trkpt lat="44.7876417" lon="9.465905"><ele>741.0</ele><time>2026-03-26T12:03:39.986Z</time></trkpt><trkpt lat="44.78772" lon="9.4658667"><ele>741.0</ele><time>2026-03-26T12:03:41.985Z</time></trkpt><trkpt lat="44.7878283" lon="9.4658083"><ele>741.0</ele><time>2026-03-26T12:03:43.986Z</time></trkpt><trkpt lat="44.7879467" lon="9.46577"><ele>741.0</ele><time>2026-03-26T12:03:45.987Z</time></trkpt><trkpt lat="44.7880533" lon="9.4657317"><ele>741.0</ele><time>2026-03-26T12:03:47.987Z</time></trkpt><trkpt lat="44.7881433" lon="9.4656417"><ele>741.0</ele><time>2026-03-26T12:03:49.987Z</time></trkpt><trkpt lat="44.7881883" lon="9.4655683"><ele>741.0</ele><time>2026-03-26T12:03:50.987Z</time></trkpt><trkpt lat="44.7882417" lon="9.4654933"><ele>741.0</ele><time>2026-03-26T12:03:51.986Z</time></trkpt><trkpt lat="44.7883033" lon="9.46543"><ele>741.0</ele><time>2026-03-26T12:03:52.987Z</time></trkpt><trkpt lat="44.7883733" lon="9.4653717"><ele>741.0</ele><time>2026-03-26T12:03:53.987Z</time></trkpt><trkpt lat="44.7884467" lon="9.46531"><ele>737.8333333333334</ele><time>2026-03-26T12:03:54.985Z</time></trkpt><trkpt lat="44.7885117" lon="9.4652483"><ele>734.6666666666666</ele><time>2026-03-26T12:03:55.988Z</time></trkpt><trkpt lat="44.7885667" lon="9.4651817"><ele>731.5</ele><time>2026-03-26T12:03:56.987Z</time></trkpt><trkpt lat="44.7886333" lon="9.465115"><ele>728.3333333333333</ele><time>2026-03-26T12:03:57.987Z</time></trkpt><trkpt lat="44.7887083" lon="9.4650567"><ele>725.1666666666666</ele><time>2026-03-26T12:03:58.987Z</time></trkpt><trkpt lat="44.788785" lon="9.4650083"><ele>722.0</ele><time>2026-03-26T12:03:59.987Z</time></trkpt><trkpt lat="44.78886" lon="9.4649667"><ele>722.0</ele><time>2026-03-26T12:04:00.991Z</time></trkpt><trkpt lat="44.7889333" lon="9.4649167"><ele>722.0</ele><time>2026-03-26T12:04:01.987Z</time></trkpt><trkpt lat="44.7890067" lon="9.46486"><ele>722.0</ele><time>2026-03-26T12:04:02.987Z</time></trkpt><trkpt lat="44.7890717" lon="9.46479"><ele>722.0</ele><time>2026-03-26T12:04:03.986Z</time></trkpt><trkpt lat="44.7891267" lon="9.4647033"><ele>722.0</ele><time>2026-03-26T12:04:04.987Z</time></trkpt><trkpt lat="44.789175" lon="9.4646133"><ele>722.0</ele><time>2026-03-26T12:04:05.987Z</time></trkpt><trkpt lat="44.7892017" lon="9.4645183"><ele>720.0</ele><time>2026-03-26T12:04:06.987Z</time></trkpt><trkpt lat="44.7892183" lon="9.4644217"><ele>718.0</ele><time>2026-03-26T12:04:07.987Z</time></trkpt><trkpt lat="44.78922" lon="9.464325"><ele>716.0</ele><time>2026-03-26T12:04:08.987Z</time></trkpt><trkpt lat="44.78923" lon="9.4642333"><ele>714.0</ele><time>2026-03-26T12:04:09.987Z</time></trkpt><trkpt lat="44.789285" lon="9.4640883"><ele>712.0</ele><time>2026-03-26T12:04:11.988Z</time></trkpt><trkpt lat="44.7893733" lon="9.4640417"><ele>710.0</ele><time>2026-03-26T12:04:13.986Z</time></trkpt><trkpt lat="44.789435" lon="9.4640683"><ele>710.0</ele><time>2026-03-26T12:04:14.987Z</time></trkpt><trkpt lat="44.78953" lon="9.4641583"><ele>710.0</ele><time>2026-03-26T12:04:16.987Z</time></trkpt><trkpt lat="44.7895867" lon="9.46431"><ele>710.0</ele><time>2026-03-26T12:04:18.986Z</time></trkpt><trkpt lat="44.7896467" lon="9.46441"><ele>710.0</ele><time>2026-03-26T12:04:20.986Z</time></trkpt><trkpt lat="44.7897183" lon="9.4644933"><ele>710.0</ele><time>2026-03-26T12:04:22.987Z</time></trkpt><trkpt lat="44.7897717" lon="9.4646017"><ele>710.0</ele><time>2026-03-26T12:04:24.986Z</time></trkpt><trkpt lat="44.789815" lon="9.46471"><ele>710.0</ele><time>2026-03-26T12:04:26.989Z</time></trkpt><trkpt lat="44.7898817" lon="9.4646667"><ele>710.0</ele><time>2026-03-26T12:04:28.987Z</time></trkpt><trkpt lat="44.7899417" lon="9.46454"><ele>710.0</ele><time>2026-03-26T12:04:30.987Z</time></trkpt><trkpt lat="44.78998" lon="9.4644633"><ele>710.0</ele><time>2026-03-26T12:04:31.986Z</time></trkpt><trkpt lat="44.7900267" lon="9.464395"><ele>710.0</ele><time>2026-03-26T12:04:32.987Z</time></trkpt><trkpt lat="44.7900933" lon="9.4642983"><ele>710.0</ele><time>2026-03-26T12:04:34.987Z</time></trkpt><trkpt lat="44.790165" lon="9.4641917"><ele>710.0</ele><time>2026-03-26T12:04:36.986Z</time></trkpt><trkpt lat="44.7902567" lon="9.46412"><ele>710.0</ele><time>2026-03-26T12:04:38.987Z</time></trkpt><trkpt lat="44.7903017" lon="9.4640333"><ele>710.0</ele><time>2026-03-26T12:04:40.986Z</time></trkpt><trkpt lat="44.79032" lon="9.4638833"><ele>710.0</ele><time>2026-03-26T12:04:42.986Z</time></trkpt><trkpt lat="44.79039" lon="9.4637267"><ele>708.8</ele><time>2026-03-26T12:04:44.987Z</time></trkpt><trkpt lat="44.7904483" lon="9.4636267"><ele>707.6</ele><time>2026-03-26T12:04:45.986Z</time></trkpt><trkpt lat="44.79052" lon="9.4635167"><ele>706.4000000000001</ele><time>2026-03-26T12:04:46.987Z</time></trkpt><trkpt lat="44.79059" lon="9.463405"><ele>705.2</ele><time>2026-03-26T12:04:47.988Z</time></trkpt><trkpt lat="44.7906583" lon="9.4633033"><ele>704.0</ele><time>2026-03-26T12:04:48.986Z</time></trkpt><trkpt lat="44.7907217" lon="9.46321"><ele>704.0</ele><time>2026-03-26T12:04:49.987Z</time></trkpt><trkpt lat="44.7907733" lon="9.463125"><ele>704.0</ele><time>2026-03-26T12:04:50.987Z</time></trkpt><trkpt lat="44.7908217" lon="9.46304"><ele>704.0</ele><time>2026-03-26T12:04:51.987Z</time></trkpt><trkpt lat="44.790875" lon="9.4629567"><ele>704.0</ele><time>2026-03-26T12:04:52.986Z</time></trkpt><trkpt lat="44.79093" lon="9.4628867"><ele>704.0</ele><time>2026-03-26T12:04:53.987Z</time></trkpt><trkpt lat="44.79097" lon="9.462815"><ele>704.0</ele><time>2026-03-26T12:04:54.986Z</time></trkpt><trkpt lat="44.79102" lon="9.4626683"><ele>699.8333333333333</ele><time>2026-03-26T12:04:56.987Z</time></trkpt><trkpt lat="44.791075" lon="9.4625367"><ele>695.6666666666666</ele><time>2026-03-26T12:04:58.987Z</time></trkpt><trkpt lat="44.791105" lon="9.4624483"><ele>691.5</ele><time>2026-03-26T12:04:59.988Z</time></trkpt><trkpt lat="44.7911367" lon="9.4623467"><ele>687.3333333333334</ele><time>2026-03-26T12:05:00.986Z</time></trkpt><trkpt lat="44.791165" lon="9.462255"><ele>683.1666666666667</ele><time>2026-03-26T12:05:01.989Z</time></trkpt><trkpt lat="44.7911817" lon="9.462165"><ele>679.0</ele><time>2026-03-26T12:05:02.988Z</time></trkpt><trkpt lat="44.79119" lon="9.462075"><ele>677.3333333333334</ele><time>2026-03-26T12:05:03.987Z</time></trkpt><trkpt lat="44.7912417" lon="9.4619217"><ele>675.6666666666667</ele><time>2026-03-26T12:05:05.988Z</time></trkpt><trkpt lat="44.7913267" lon="9.4618467"><ele>674.0</ele><time>2026-03-26T12:05:07.987Z</time></trkpt><trkpt lat="44.7914033" lon="9.4618167"><ele>672.3333333333334</ele><time>2026-03-26T12:05:09.987Z</time></trkpt><trkpt lat="44.7914683" lon="9.4617683"><ele>670.6666666666666</ele><time>2026-03-26T12:05:11.987Z</time></trkpt><trkpt lat="44.79153" lon="9.4617067"><ele>669.0</ele><time>2026-03-26T12:05:13.986Z</time></trkpt><trkpt lat="44.7916183" lon="9.4616617"><ele>669.0</ele><time>2026-03-26T12:05:15.987Z</time></trkpt><trkpt lat="44.7917267" lon="9.4616383"><ele>669.0</ele><time>2026-03-26T12:05:17.987Z</time></trkpt><trkpt lat="44.79183" lon="9.4615883"><ele>669.0</ele><time>2026-03-26T12:05:19.987Z</time></trkpt><trkpt lat="44.7919183" lon="9.4615167"><ele>669.0</ele><time>2026-03-26T12:05:21.985Z</time></trkpt><trkpt lat="44.79201" lon="9.4614783"><ele>669.0</ele><time>2026-03-26T12:05:23.988Z</time></trkpt><trkpt lat="44.7921317" lon="9.461485"><ele>667.4285714285714</ele><time>2026-03-26T12:05:25.987Z</time></trkpt><trkpt lat="44.792195" lon="9.4614983"><ele>665.8571428571429</ele><time>2026-03-26T12:05:26.987Z</time></trkpt><trkpt lat="44.7922567" lon="9.46152"><ele>664.2857142857142</ele><time>2026-03-26T12:05:27.986Z</time></trkpt><trkpt lat="44.7923267" lon="9.4615367"><ele>662.7142857142858</ele><time>2026-03-26T12:05:28.987Z</time></trkpt><trkpt lat="44.7924067" lon="9.4615417"><ele>661.1428571428571</ele><time>2026-03-26T12:05:29.987Z</time></trkpt><trkpt lat="44.7924817" lon="9.4615333"><ele>659.5714285714286</ele><time>2026-03-26T12:05:30.986Z</time></trkpt><trkpt lat="44.7925467" lon="9.4615083"><ele>658.0</ele><time>2026-03-26T12:05:31.987Z</time></trkpt><trkpt lat="44.7926083" lon="9.461465"><ele>658.0</ele><time>2026-03-26T12:05:32.987Z</time></trkpt><trkpt lat="44.792665" lon="9.4614117"><ele>658.0</ele><time>2026-03-26T12:05:33.986Z</time></trkpt><trkpt lat="44.792755" lon="9.4613033"><ele>658.0</ele><time>2026-03-26T12:05:35.987Z</time></trkpt><trkpt lat="44.7928667" lon="9.4612517"><ele>658.0</ele><time>2026-03-26T12:05:37.987Z</time></trkpt><trkpt lat="44.7929633" lon="9.4612583"><ele>658.0</ele><time>2026-03-26T12:05:39.986Z</time></trkpt><trkpt lat="44.793045" lon="9.46125"><ele>656.0</ele><time>2026-03-26T12:05:42.986Z</time></trkpt><trkpt lat="44.7931083" lon="9.4612283"><ele>654.0</ele><time>2026-03-26T12:05:45.986Z</time></trkpt><trkpt lat="44.79318" lon="9.461195"><ele>652.0</ele><time>2026-03-26T12:05:47.988Z</time></trkpt><trkpt lat="44.7932583" lon="9.4611433"><ele>650.0</ele><time>2026-03-26T12:05:49.987Z</time></trkpt><trkpt lat="44.7933533" lon="9.4611"><ele>648.0</ele><time>2026-03-26T12:05:51.986Z</time></trkpt><trkpt lat="44.793475" lon="9.46105"><ele>646.4</ele><time>2026-03-26T12:05:53.987Z</time></trkpt><trkpt lat="44.7935917" lon="9.4610167"><ele>644.8</ele><time>2026-03-26T12:05:55.986Z</time></trkpt><trkpt lat="44.793675" lon="9.461015"><ele>643.2</ele><time>2026-03-26T12:05:57.986Z</time></trkpt><trkpt lat="44.7937817" lon="9.4610033"><ele>641.6</ele><time>2026-03-26T12:06:18.986Z</time></trkpt><trkpt lat="44.7938633" lon="9.46099"><ele>640.0</ele><time>2026-03-26T12:06:20.988Z</time></trkpt><trkpt lat="44.7940033" lon="9.46102"><ele>640.0</ele><time>2026-03-26T12:06:22.986Z</time></trkpt><trkpt lat="44.794095" lon="9.4610433"><ele>640.0</ele><time>2026-03-26T12:06:23.986Z</time></trkpt><trkpt lat="44.7941933" lon="9.461065"><ele>640.0</ele><time>2026-03-26T12:06:24.987Z</time></trkpt><trkpt lat="44.79429" lon="9.4610817"><ele>640.0</ele><time>2026-03-26T12:06:25.986Z</time></trkpt><trkpt lat="44.794385" lon="9.4610983"><ele>640.0</ele><time>2026-03-26T12:06:26.987Z</time></trkpt><trkpt lat="44.7944767" lon="9.4611183"><ele>638.8333333333334</ele><time>2026-03-26T12:06:27.986Z</time></trkpt><trkpt lat="44.794565" lon="9.4611317"><ele>637.6666666666667</ele><time>2026-03-26T12:06:28.987Z</time></trkpt><trkpt lat="44.7946517" lon="9.4611617"><ele>636.5</ele><time>2026-03-26T12:06:29.988Z</time></trkpt><trkpt lat="44.794735" lon="9.4612"><ele>635.3333333333334</ele><time>2026-03-26T12:06:30.987Z</time></trkpt><trkpt lat="44.7948133" lon="9.461235"><ele>634.1666666666666</ele><time>2026-03-26T12:06:31.987Z</time></trkpt><trkpt lat="44.7948883" lon="9.4612633"><ele>633.0</ele><time>2026-03-26T12:06:32.987Z</time></trkpt><trkpt lat="44.79496" lon="9.4612917"><ele>633.0</ele><time>2026-03-26T12:06:33.986Z</time></trkpt><trkpt lat="44.795035" lon="9.4613217"><ele>633.0</ele><time>2026-03-26T12:06:34.987Z</time></trkpt><trkpt lat="44.7951083" lon="9.4613533"><ele>633.0</ele><time>2026-03-26T12:06:35.987Z</time></trkpt><trkpt lat="44.7951833" lon="9.4613967"><ele>633.0</ele><time>2026-03-26T12:06:36.985Z</time></trkpt><trkpt lat="44.7952617" lon="9.4614583"><ele>633.0</ele><time>2026-03-26T12:06:37.987Z</time></trkpt><trkpt lat="44.7953317" lon="9.461515"><ele>633.0</ele><time>2026-03-26T12:06:38.987Z</time></trkpt><trkpt lat="44.7953983" lon="9.46157"><ele>629.1666666666666</ele><time>2026-03-26T12:06:39.986Z</time></trkpt><trkpt lat="44.7954633" lon="9.4616283"><ele>625.3333333333334</ele><time>2026-03-26T12:06:40.987Z</time></trkpt><trkpt lat="44.7955283" lon="9.4616967"><ele>621.5</ele><time>2026-03-26T12:06:41.987Z</time></trkpt><trkpt lat="44.795585" lon="9.461775"><ele>617.6666666666667</ele><time>2026-03-26T12:06:42.986Z</time></trkpt><trkpt lat="44.7956267" lon="9.46185"><ele>613.8333333333334</ele><time>2026-03-26T12:06:43.987Z</time></trkpt><trkpt lat="44.7957067" lon="9.4619633"><ele>610.0</ele><time>2026-03-26T12:06:45.987Z</time></trkpt><trkpt lat="44.7957667" lon="9.4620933"><ele>611.4</ele><time>2026-03-26T12:06:47.986Z</time></trkpt><trkpt lat="44.7958117" lon="9.4622767"><ele>612.8</ele><time>2026-03-26T12:06:49.986Z</time></trkpt><trkpt lat="44.79585" lon="9.4623867"><ele>614.2</ele><time>2026-03-26T12:06:50.987Z</time></trkpt><trkpt lat="44.795895" lon="9.4624933"><ele>615.6</ele><time>2026-03-26T12:06:51.987Z</time></trkpt><trkpt lat="44.7959533" lon="9.46261"><ele>617.0</ele><time>2026-03-26T12:06:52.988Z</time></trkpt><trkpt lat="44.79601" lon="9.46271"><ele>612.0</ele><time>2026-03-26T12:06:53.986Z</time></trkpt><trkpt lat="44.7960733" lon="9.4627817"><ele>607.0</ele><time>2026-03-26T12:06:54.986Z</time></trkpt><trkpt lat="44.7961383" lon="9.4628483"><ele>602.0</ele><time>2026-03-26T12:06:55.987Z</time></trkpt><trkpt lat="44.796185" lon="9.46291"><ele>597.0</ele><time>2026-03-26T12:06:56.987Z</time></trkpt><trkpt lat="44.796265" lon="9.463045"><ele>592.0</ele><time>2026-03-26T12:06:58.986Z</time></trkpt><trkpt lat="44.7963" lon="9.46314"><ele>587.0</ele><time>2026-03-26T12:06:59.987Z</time></trkpt><trkpt lat="44.7963317" lon="9.4632317"><ele>587.0</ele><time>2026-03-26T12:07:00.987Z</time></trkpt><trkpt lat="44.7963617" lon="9.4633167"><ele>587.0</ele><time>2026-03-26T12:07:01.987Z</time></trkpt><trkpt lat="44.7964517" lon="9.46332"><ele>587.0</ele><time>2026-03-26T12:07:03.986Z</time></trkpt><trkpt lat="44.7965033" lon="9.463265"><ele>587.0</ele><time>2026-03-26T12:07:04.987Z</time></trkpt><trkpt lat="44.7966067" lon="9.4631833"><ele>587.0</ele><time>2026-03-26T12:07:06.986Z</time></trkpt><trkpt lat="44.7966883" lon="9.4631667"><ele>587.0</ele><time>2026-03-26T12:07:08.989Z</time></trkpt><trkpt lat="44.796745" lon="9.4632167"><ele>587.0</ele><time>2026-03-26T12:07:10.987Z</time></trkpt><trkpt lat="44.7967983" lon="9.4633317"><ele>587.0</ele><time>2026-03-26T12:07:12.987Z</time></trkpt><trkpt lat="44.7968567" lon="9.4634933"><ele>587.0</ele><time>2026-03-26T12:07:14.987Z</time></trkpt><trkpt lat="44.796905" lon="9.4635633"><ele>587.0</ele><time>2026-03-26T12:07:15.987Z</time></trkpt><trkpt lat="44.7969667" lon="9.4636183"><ele>587.0</ele><time>2026-03-26T12:07:16.986Z</time></trkpt><trkpt lat="44.7970383" lon="9.4636717"><ele>587.0</ele><time>2026-03-26T12:07:17.986Z</time></trkpt><trkpt lat="44.7971" lon="9.4637233"><ele>587.3333333333333</ele><time>2026-03-26T12:07:18.987Z</time></trkpt><trkpt lat="44.79719" lon="9.4638067"><ele>587.6666666666666</ele><time>2026-03-26T12:07:20.988Z</time></trkpt><trkpt lat="44.79724" lon="9.463885"><ele>588.0</ele><time>2026-03-26T12:07:40.985Z</time></trkpt><trkpt lat="44.7972783" lon="9.4639617"><ele>588.3333333333334</ele><time>2026-03-26T12:07:42.986Z</time></trkpt><trkpt lat="44.7973233" lon="9.46389"><ele>588.6666666666667</ele><time>2026-03-26T12:08:06.986Z</time></trkpt><trkpt lat="44.797405" lon="9.4638267"><ele>589.0</ele><time>2026-03-26T12:08:08.988Z</time></trkpt><trkpt lat="44.797495" lon="9.46378"><ele>586.1666666666667</ele><time>2026-03-26T12:08:10.986Z</time></trkpt><trkpt lat="44.79757" lon="9.4637267"><ele>583.3333333333334</ele><time>2026-03-26T12:08:12.986Z</time></trkpt><trkpt lat="44.7976283" lon="9.46365"><ele>580.5</ele><time>2026-03-26T12:08:14.988Z</time></trkpt><trkpt lat="44.7976933" lon="9.46355"><ele>577.6666666666666</ele><time>2026-03-26T12:08:16.986Z</time></trkpt><trkpt lat="44.7977717" lon="9.4635167"><ele>574.8333333333333</ele><time>2026-03-26T12:08:18.986Z</time></trkpt><trkpt lat="44.797835" lon="9.4635783"><ele>572.0</ele><time>2026-03-26T12:08:20.99Z</time></trkpt><trkpt lat="44.79789" lon="9.4636817"><ele>571.2</ele><time>2026-03-26T12:08:22.986Z</time></trkpt><trkpt lat="44.7979417" lon="9.46374"><ele>570.4000000000001</ele><time>2026-03-26T12:08:24.987Z</time></trkpt><trkpt lat="44.7979333" lon="9.4639317"><ele>569.5999999999999</ele><time>2026-03-26T12:22:05.986Z</time></trkpt><trkpt lat="44.7979317" lon="9.4638067"><ele>568.8</ele><time>2026-03-26T12:50:55.987Z</time></trkpt><trkpt lat="44.79788" lon="9.4636764"><ele>568.0</ele><time>2026-03-26T13:45:27.996Z</time></trkpt><trkpt lat="44.7979133" lon="9.4635891"><ele>568.0</ele><time>2026-03-26T13:45:32.052Z</time></trkpt><trkpt lat="44.7980576" lon="9.4635195"><ele>568.0</ele><time>2026-03-26T13:45:34.987Z</time></trkpt><trkpt lat="44.7981318" lon="9.4634629"><ele>568.0</ele><time>2026-03-26T13:45:35.987Z</time></trkpt><trkpt lat="44.798198" lon="9.4634038"><ele>568.0</ele><time>2026-03-26T13:45:36.987Z</time></trkpt><trkpt lat="44.7982713" lon="9.463346"><ele>568.0</ele><time>2026-03-26T13:45:37.989Z</time></trkpt><trkpt lat="44.7983566" lon="9.4632987"><ele>568.0</ele><time>2026-03-26T13:45:38.987Z</time></trkpt><trkpt lat="44.7984486" lon="9.4632666"><ele>568.0</ele><time>2026-03-26T13:45:39.987Z</time></trkpt><trkpt lat="44.7985339" lon="9.463241"><ele>568.0</ele><time>2026-03-26T13:45:40.987Z</time></trkpt><trkpt lat="44.7986109" lon="9.4631996"><ele>568.0</ele><time>2026-03-26T13:45:41.987Z</time></trkpt><trkpt lat="44.7986783" lon="9.463147"><ele>568.0</ele><time>2026-03-26T13:45:42.987Z</time></trkpt><trkpt lat="44.7987359" lon="9.463083"><ele>568.0</ele><time>2026-03-26T13:45:43.987Z</time></trkpt><trkpt lat="44.7987901" lon="9.4630211"><ele>564.0</ele><time>2026-03-26T13:45:44.987Z</time></trkpt><trkpt lat="44.7988917" lon="9.462934"><ele>560.0</ele><time>2026-03-26T13:45:46.987Z</time></trkpt><trkpt lat="44.7990002" lon="9.4628938"><ele>556.0</ele><time>2026-03-26T13:45:48.987Z</time></trkpt><trkpt lat="44.7991169" lon="9.4628715"><ele>552.0</ele><time>2026-03-26T13:45:50.987Z</time></trkpt><trkpt lat="44.7992226" lon="9.4628603"><ele>550.0</ele><time>2026-03-26T13:45:52.987Z</time></trkpt><trkpt lat="44.7993376" lon="9.4628675"><ele>548.0</ele><time>2026-03-26T13:45:54.987Z</time></trkpt><trkpt lat="44.7994051" lon="9.4628741"><ele>546.0</ele><time>2026-03-26T13:45:55.989Z</time></trkpt><trkpt lat="44.7994781" lon="9.4628794"><ele>544.0</ele><time>2026-03-26T13:45:56.989Z</time></trkpt><trkpt lat="44.799552" lon="9.4628844"><ele>542.0</ele><time>2026-03-26T13:45:57.988Z</time></trkpt><trkpt lat="44.799627" lon="9.462881"><ele>540.0</ele><time>2026-03-26T13:45:58.988Z</time></trkpt><trkpt lat="44.7996966" lon="9.4628612"><ele>540.0</ele><time>2026-03-26T13:45:59.988Z</time></trkpt><trkpt lat="44.7997621" lon="9.4628176"><ele>540.0</ele><time>2026-03-26T13:46:00.989Z</time></trkpt><trkpt lat="44.7998055" lon="9.4627442"><ele>540.0</ele><time>2026-03-26T13:46:01.989Z</time></trkpt><trkpt lat="44.7998266" lon="9.4626455"><ele>540.0</ele><time>2026-03-26T13:46:02.989Z</time></trkpt><trkpt lat="44.7998366" lon="9.4625299"><ele>540.0</ele><time>2026-03-26T13:46:03.989Z</time></trkpt><trkpt lat="44.7998432" lon="9.4624025"><ele>540.0</ele><time>2026-03-26T13:46:04.989Z</time></trkpt><trkpt lat="44.7998505" lon="9.4622649"><ele>540.0</ele><time>2026-03-26T13:46:05.989Z</time></trkpt><trkpt lat="44.799856" lon="9.4621256"><ele>540.0</ele><time>2026-03-26T13:46:06.988Z</time></trkpt><trkpt lat="44.7998595" lon="9.4619897"><ele>540.0</ele><time>2026-03-26T13:46:07.989Z</time></trkpt><trkpt lat="44.7998581" lon="9.4618615"><ele>540.0</ele><time>2026-03-26T13:46:08.989Z</time></trkpt><trkpt lat="44.7998521" lon="9.4617396"><ele>540.0</ele><time>2026-03-26T13:46:09.988Z</time></trkpt><trkpt lat="44.7998403" lon="9.4616225"><ele>539.5</ele><time>2026-03-26T13:46:10.988Z</time></trkpt><trkpt lat="44.7998199" lon="9.4615077"><ele>539.0</ele><time>2026-03-26T13:46:11.988Z</time></trkpt><trkpt lat="44.7997869" lon="9.4613994"><ele>538.5</ele><time>2026-03-26T13:46:12.988Z</time></trkpt><trkpt lat="44.7997452" lon="9.4612958"><ele>538.0</ele><time>2026-03-26T13:46:13.989Z</time></trkpt><trkpt lat="44.7997001" lon="9.4611971"><ele>537.5</ele><time>2026-03-26T13:46:14.988Z</time></trkpt><trkpt lat="44.7996668" lon="9.4611034"><ele>537.0</ele><time>2026-03-26T13:46:15.987Z</time></trkpt><trkpt lat="44.7996595" lon="9.4610056"><ele>534.8000000000001</ele><time>2026-03-26T13:46:16.987Z</time></trkpt><trkpt lat="44.7996798" lon="9.4609091"><ele>532.6</ele><time>2026-03-26T13:46:17.987Z</time></trkpt><trkpt lat="44.7997252" lon="9.4608268"><ele>530.4000000000001</ele><time>2026-03-26T13:46:18.988Z</time></trkpt><trkpt lat="44.7998062" lon="9.4607793"><ele>528.2</ele><time>2026-03-26T13:46:19.99Z</time></trkpt><trkpt lat="44.7999061" lon="9.4607517"><ele>526.0</ele><time>2026-03-26T13:46:20.989Z</time></trkpt><trkpt lat="44.8000212" lon="9.460733"><ele>526.0</ele><time>2026-03-26T13:46:21.987Z</time></trkpt><trkpt lat="44.8001384" lon="9.4607159"><ele>526.0</ele><time>2026-03-26T13:46:22.987Z</time></trkpt><trkpt lat="44.8002475" lon="9.4606991"><ele>526.0</ele><time>2026-03-26T13:46:23.987Z</time></trkpt><trkpt lat="44.8003413" lon="9.4606941"><ele>526.0</ele><time>2026-03-26T13:46:24.987Z</time></trkpt><trkpt lat="44.8004176" lon="9.4607147"><ele>526.0</ele><time>2026-03-26T13:46:25.988Z</time></trkpt><trkpt lat="44.8004727" lon="9.4607585"><ele>523.6666666666667</ele><time>2026-03-26T13:46:26.988Z</time></trkpt><trkpt lat="44.8005197" lon="9.4608211"><ele>521.3333333333334</ele><time>2026-03-26T13:46:27.987Z</time></trkpt><trkpt lat="44.8005659" lon="9.4608942"><ele>519.0</ele><time>2026-03-26T13:46:28.986Z</time></trkpt><trkpt lat="44.8006044" lon="9.4609695"><ele>516.6666666666666</ele><time>2026-03-26T13:46:29.988Z</time></trkpt><trkpt lat="44.8006483" lon="9.4611283"><ele>514.3333333333333</ele><time>2026-03-26T13:46:31.987Z</time></trkpt><trkpt lat="44.8006617" lon="9.4612217"><ele>512.0</ele><time>2026-03-26T13:46:32.988Z</time></trkpt><trkpt lat="44.8006733" lon="9.4613283"><ele>511.8</ele><time>2026-03-26T13:46:33.988Z</time></trkpt><trkpt lat="44.8006867" lon="9.46145"><ele>511.6</ele><time>2026-03-26T13:46:34.987Z</time></trkpt><trkpt lat="44.800695" lon="9.4615833"><ele>511.40000000000003</ele><time>2026-03-26T13:46:35.988Z</time></trkpt><trkpt lat="44.8006983" lon="9.4617183"><ele>511.20000000000005</ele><time>2026-03-26T13:46:36.988Z</time></trkpt><trkpt lat="44.8007017" lon="9.46185"><ele>511.0</ele><time>2026-03-26T13:46:37.987Z</time></trkpt><trkpt lat="44.80071" lon="9.461965"><ele>511.00000000000006</ele><time>2026-03-26T13:46:38.988Z</time></trkpt><trkpt lat="44.8007383" lon="9.4620633"><ele>511.0</ele><time>2026-03-26T13:46:39.987Z</time></trkpt><trkpt lat="44.800785" lon="9.462165"><ele>511.0</ele><time>2026-03-26T13:46:40.987Z</time></trkpt><trkpt lat="44.8008417" lon="9.4622567"><ele>511.0</ele><time>2026-03-26T13:46:41.987Z</time></trkpt><trkpt lat="44.8009083" lon="9.4623483"><ele>511.00000000000006</ele><time>2026-03-26T13:46:42.987Z</time></trkpt><trkpt lat="44.80099" lon="9.4624467"><ele>511.0</ele><time>2026-03-26T13:46:43.987Z</time></trkpt><trkpt lat="44.8010767" lon="9.46255"><ele>507.50000000000006</ele><time>2026-03-26T13:46:44.987Z</time></trkpt><trkpt lat="44.8011683" lon="9.46264"><ele>504.0</ele><time>2026-03-26T13:46:45.987Z</time></trkpt><trkpt lat="44.8012483" lon="9.462705"><ele>500.5</ele><time>2026-03-26T13:46:46.987Z</time></trkpt><trkpt lat="44.8013167" lon="9.4627433"><ele>497.0</ele><time>2026-03-26T13:46:47.988Z</time></trkpt><trkpt lat="44.8014083" lon="9.46278"><ele>493.50000000000006</ele><time>2026-03-26T13:46:49.986Z</time></trkpt><trkpt lat="44.8014817" lon="9.4627783"><ele>490.0</ele><time>2026-03-26T13:46:59.988Z</time></trkpt><trkpt lat="44.8015767" lon="9.4628383"><ele>490.00000000000006</ele><time>2026-03-26T13:47:01.988Z</time></trkpt><trkpt lat="44.80164" lon="9.4628833"><ele>490.0</ele><time>2026-03-26T13:47:02.987Z</time></trkpt><trkpt lat="44.8017017" lon="9.462935"><ele>490.0</ele><time>2026-03-26T13:47:03.988Z</time></trkpt><trkpt lat="44.8017617" lon="9.463"><ele>490.0</ele><time>2026-03-26T13:47:04.988Z</time></trkpt><trkpt lat="44.8018283" lon="9.46307"><ele>490.00000000000006</ele><time>2026-03-26T13:47:05.989Z</time></trkpt><trkpt lat="44.8019083" lon="9.4631317"><ele>490.0</ele><time>2026-03-26T13:47:06.988Z</time></trkpt><trkpt lat="44.8019967" lon="9.4631817"><ele>491.2</ele><time>2026-03-26T13:47:07.988Z</time></trkpt><trkpt lat="44.8020867" lon="9.4632117"><ele>492.4</ele><time>2026-03-26T13:47:08.988Z</time></trkpt><trkpt lat="44.8021717" lon="9.463225"><ele>493.6</ele><time>2026-03-26T13:47:09.988Z</time></trkpt><trkpt lat="44.8022567" lon="9.463245"><ele>494.8</ele><time>2026-03-26T13:47:10.987Z</time></trkpt><trkpt lat="44.8023483" lon="9.4632833"><ele>496.0</ele><time>2026-03-26T13:47:11.989Z</time></trkpt><trkpt lat="44.8024467" lon="9.4633367"><ele>496.0</ele><time>2026-03-26T13:47:12.987Z</time></trkpt><trkpt lat="44.802545" lon="9.463395"><ele>496.0</ele><time>2026-03-26T13:47:13.988Z</time></trkpt><trkpt lat="44.8026433" lon="9.463455"><ele>496.0</ele><time>2026-03-26T13:47:14.988Z</time></trkpt><trkpt lat="44.8027217" lon="9.4635233"><ele>496.0</ele><time>2026-03-26T13:47:15.986Z</time></trkpt><trkpt lat="44.8027833" lon="9.4636017"><ele>496.0</ele><time>2026-03-26T13:47:16.986Z</time></trkpt><trkpt lat="44.802835" lon="9.4636867"><ele>494.8</ele><time>2026-03-26T13:47:17.988Z</time></trkpt><trkpt lat="44.8028567" lon="9.4637917"><ele>493.6</ele><time>2026-03-26T13:47:18.986Z</time></trkpt><trkpt lat="44.802865" lon="9.4639117"><ele>492.4</ele><time>2026-03-26T13:47:19.987Z</time></trkpt><trkpt lat="44.8028667" lon="9.4640517"><ele>491.2</ele><time>2026-03-26T13:47:20.987Z</time></trkpt><trkpt lat="44.802875" lon="9.4642083"><ele>490.0</ele><time>2026-03-26T13:47:21.986Z</time></trkpt><trkpt lat="44.8028933" lon="9.464365"><ele>490.0</ele><time>2026-03-26T13:47:22.985Z</time></trkpt><trkpt lat="44.8029183" lon="9.4645233"><ele>490.0</ele><time>2026-03-26T13:47:23.987Z</time></trkpt><trkpt lat="44.8029417" lon="9.4646717"><ele>490.0</ele><time>2026-03-26T13:47:24.986Z</time></trkpt><trkpt lat="44.8029567" lon="9.464805"><ele>490.0</ele><time>2026-03-26T13:47:25.987Z</time></trkpt><trkpt lat="44.8029567" lon="9.4649283"><ele>490.0</ele><time>2026-03-26T13:47:26.987Z</time></trkpt><trkpt lat="44.8029417" lon="9.4650417"><ele>491.4</ele><time>2026-03-26T13:47:27.986Z</time></trkpt><trkpt lat="44.802915" lon="9.465155"><ele>492.8</ele><time>2026-03-26T13:47:28.986Z</time></trkpt><trkpt lat="44.8028683" lon="9.4653067"><ele>494.20000000000005</ele><time>2026-03-26T13:47:29.987Z</time></trkpt><trkpt lat="44.8028267" lon="9.4654633"><ele>495.6</ele><time>2026-03-26T13:47:30.986Z</time></trkpt><trkpt lat="44.80279" lon="9.4656133"><ele>497.0</ele><time>2026-03-26T13:47:31.986Z</time></trkpt><trkpt lat="44.802755" lon="9.465765"><ele>497.20000000000005</ele><time>2026-03-26T13:47:32.987Z</time></trkpt><trkpt lat="44.8027183" lon="9.4659117"><ele>497.40000000000003</ele><time>2026-03-26T13:47:33.986Z</time></trkpt><trkpt lat="44.8026833" lon="9.46607"><ele>497.59999999999997</ele><time>2026-03-26T13:47:34.986Z</time></trkpt><trkpt lat="44.8026533" lon="9.4662133"><ele>497.79999999999995</ele><time>2026-03-26T13:47:35.985Z</time></trkpt><trkpt lat="44.80263" lon="9.4663383"><ele>498.0</ele><time>2026-03-26T13:47:36.987Z</time></trkpt><trkpt lat="44.8026233" lon="9.46644"><ele>501.4</ele><time>2026-03-26T13:47:37.987Z</time></trkpt><trkpt lat="44.8026083" lon="9.46653"><ele>504.79999999999995</ele><time>2026-03-26T13:47:38.985Z</time></trkpt><trkpt lat="44.8025517" lon="9.466675"><ele>508.2</ele><time>2026-03-26T13:47:40.987Z</time></trkpt><trkpt lat="44.80246" lon="9.4667883"><ele>511.6</ele><time>2026-03-26T13:47:42.985Z</time></trkpt><trkpt lat="44.8024283" lon="9.4668833"><ele>515.0</ele><time>2026-03-26T13:47:43.987Z</time></trkpt><trkpt lat="44.80241" lon="9.4669967"><ele>514.0</ele><time>2026-03-26T13:47:44.987Z</time></trkpt><trkpt lat="44.8023933" lon="9.467125"><ele>513.0</ele><time>2026-03-26T13:47:45.985Z</time></trkpt><trkpt lat="44.802385" lon="9.4672383"><ele>512.0</ele><time>2026-03-26T13:47:46.986Z</time></trkpt><trkpt lat="44.8023867" lon="9.4673333"><ele>511.0</ele><time>2026-03-26T13:47:47.986Z</time></trkpt><trkpt lat="44.8024133" lon="9.4674233"><ele>509.99999999999994</ele><time>2026-03-26T13:47:48.988Z</time></trkpt><trkpt lat="44.8024417" lon="9.4675067"><ele>509.0</ele><time>2026-03-26T13:47:49.987Z</time></trkpt><trkpt lat="44.8024517" lon="9.4676833"><ele>508.99999999999994</ele><time>2026-03-26T13:47:51.988Z</time></trkpt><trkpt lat="44.8024367" lon="9.4677717"><ele>509.0</ele><time>2026-03-26T13:47:52.987Z</time></trkpt><trkpt lat="44.8023483" lon="9.4679"><ele>509.0</ele><time>2026-03-26T13:47:54.987Z</time></trkpt><trkpt lat="44.80229" lon="9.467955"><ele>509.0</ele><time>2026-03-26T13:47:55.987Z</time></trkpt><trkpt lat="44.8022367" lon="9.4680133"><ele>508.99999999999994</ele><time>2026-03-26T13:47:56.986Z</time></trkpt><trkpt lat="44.8021933" lon="9.46808"><ele>509.0</ele><time>2026-03-26T13:47:57.987Z</time></trkpt><trkpt lat="44.8021067" lon="9.4681983"><ele>508.0</ele><time>2026-03-26T13:47:59.988Z</time></trkpt><trkpt lat="44.801995" lon="9.4682333"><ele>507.0</ele><time>2026-03-26T13:48:01.987Z</time></trkpt><trkpt lat="44.8019017" lon="9.4682583"><ele>506.0</ele><time>2026-03-26T13:48:03.987Z</time></trkpt><trkpt lat="44.8018467" lon="9.4683633"><ele>505.0</ele><time>2026-03-26T13:48:05.986Z</time></trkpt><trkpt lat="44.8018683" lon="9.4685183"><ele>504.0</ele><time>2026-03-26T13:48:07.985Z</time></trkpt><trkpt lat="44.8019133" lon="9.4686717"><ele>501.4</ele><time>2026-03-26T13:48:09.986Z</time></trkpt><trkpt lat="44.8019883" lon="9.468795"><ele>498.79999999999995</ele><time>2026-03-26T13:48:11.986Z</time></trkpt><trkpt lat="44.8020217" lon="9.468935"><ele>496.20000000000005</ele><time>2026-03-26T13:48:13.986Z</time></trkpt><trkpt lat="44.8020217" lon="9.4690767"><ele>493.6</ele><time>2026-03-26T13:48:15.985Z</time></trkpt><trkpt lat="44.8020333" lon="9.4692383"><ele>491.0</ele><time>2026-03-26T13:48:17.987Z</time></trkpt><trkpt lat="44.802045" lon="9.4694083"><ele>490.99999999999994</ele><time>2026-03-26T13:48:19.986Z</time></trkpt><trkpt lat="44.802065" lon="9.4694967"><ele>491.0</ele><time>2026-03-26T13:48:20.986Z</time></trkpt><trkpt lat="44.802095" lon="9.4695883"><ele>491.0</ele><time>2026-03-26T13:48:21.987Z</time></trkpt><trkpt lat="44.80213" lon="9.46968"><ele>491.0</ele><time>2026-03-26T13:48:22.987Z</time></trkpt><trkpt lat="44.80217" lon="9.46978"><ele>490.99999999999994</ele><time>2026-03-26T13:48:23.986Z</time></trkpt><trkpt lat="44.8022183" lon="9.4698733"><ele>491.0</ele><time>2026-03-26T13:48:24.987Z</time></trkpt><trkpt lat="44.8022733" lon="9.4699517"><ele>491.8333333333333</ele><time>2026-03-26T13:48:25.99Z</time></trkpt><trkpt lat="44.8023233" lon="9.4700283"><ele>492.66666666666663</ele><time>2026-03-26T13:48:26.987Z</time></trkpt><trkpt lat="44.8023767" lon="9.4701083"><ele>493.5</ele><time>2026-03-26T13:48:27.986Z</time></trkpt><trkpt lat="44.8024333" lon="9.4702067"><ele>494.33333333333337</ele><time>2026-03-26T13:48:28.986Z</time></trkpt><trkpt lat="44.8024883" lon="9.4703167"><ele>495.1666666666667</ele><time>2026-03-26T13:48:29.986Z</time></trkpt><trkpt lat="44.8025433" lon="9.47042"><ele>496.0</ele><time>2026-03-26T13:48:30.986Z</time></trkpt><trkpt lat="44.802605" lon="9.4705167"><ele>494.20000000000005</ele><time>2026-03-26T13:48:31.988Z</time></trkpt><trkpt lat="44.8026683" lon="9.4706017"><ele>492.40000000000003</ele><time>2026-03-26T13:48:32.988Z</time></trkpt><trkpt lat="44.8027383" lon="9.4707"><ele>490.6</ele><time>2026-03-26T13:48:33.986Z</time></trkpt><trkpt lat="44.802795" lon="9.4708083"><ele>488.8</ele><time>2026-03-26T13:48:34.987Z</time></trkpt><trkpt lat="44.8028417" lon="9.4709133"><ele>487.0</ele><time>2026-03-26T13:48:35.986Z</time></trkpt><trkpt lat="44.80288" lon="9.471015"><ele>487.00000000000006</ele><time>2026-03-26T13:48:36.986Z</time></trkpt><trkpt lat="44.8029083" lon="9.4711167"><ele>487.0</ele><time>2026-03-26T13:48:37.987Z</time></trkpt><trkpt lat="44.8029367" lon="9.471215"><ele>487.0</ele><time>2026-03-26T13:48:38.987Z</time></trkpt><trkpt lat="44.80298" lon="9.4713083"><ele>487.0</ele><time>2026-03-26T13:48:39.986Z</time></trkpt><trkpt lat="44.8030367" lon="9.4713967"><ele>487.00000000000006</ele><time>2026-03-26T13:48:40.985Z</time></trkpt><trkpt lat="44.8030917" lon="9.4714783"><ele>487.0</ele><time>2026-03-26T13:48:41.987Z</time></trkpt><trkpt lat="44.8031383" lon="9.47157"><ele>488.00000000000006</ele><time>2026-03-26T13:48:42.986Z</time></trkpt><trkpt lat="44.8031817" lon="9.4716717"><ele>489.0</ele><time>2026-03-26T13:48:43.986Z</time></trkpt><trkpt lat="44.8032217" lon="9.471775"><ele>490.0</ele><time>2026-03-26T13:48:44.987Z</time></trkpt><trkpt lat="44.8032542" lon="9.4718798"><ele>491.0</ele><time>2026-03-26T13:48:45.986Z</time></trkpt><trkpt lat="44.803283" lon="9.4719764"><ele>492.00000000000006</ele><time>2026-03-26T13:48:46.986Z</time></trkpt><trkpt lat="44.8033109" lon="9.4720766"><ele>493.0</ele><time>2026-03-26T13:48:47.987Z</time></trkpt><trkpt lat="44.8033573" lon="9.4721602"><ele>493.2857142857143</ele><time>2026-03-26T13:48:48.986Z</time></trkpt><trkpt lat="44.8034106" lon="9.4722256"><ele>493.57142857142856</ele><time>2026-03-26T13:48:49.986Z</time></trkpt><trkpt lat="44.8034709" lon="9.4722808"><ele>493.85714285714283</ele><time>2026-03-26T13:48:50.987Z</time></trkpt><trkpt lat="44.8035215" lon="9.4723453"><ele>494.1428571428571</ele><time>2026-03-26T13:48:51.986Z</time></trkpt><trkpt lat="44.8035673" lon="9.4724328"><ele>494.42857142857144</ele><time>2026-03-26T13:48:52.987Z</time></trkpt><trkpt lat="44.8036096" lon="9.4725243"><ele>494.71428571428567</ele><time>2026-03-26T13:48:53.986Z</time></trkpt><trkpt lat="44.8036489" lon="9.4726027"><ele>494.99999999999994</ele><time>2026-03-26T13:48:54.986Z</time></trkpt><trkpt lat="44.803731" lon="9.4727114"><ele>495.0</ele><time>2026-03-26T13:48:56.987Z</time></trkpt><trkpt lat="44.8037942" lon="9.4727264"><ele>495.0</ele><time>2026-03-26T13:48:57.987Z</time></trkpt><trkpt lat="44.8038574" lon="9.4727489"><ele>495.0</ele><time>2026-03-26T13:48:58.988Z</time></trkpt><trkpt lat="44.8039219" lon="9.4727654"><ele>495.0</ele><time>2026-03-26T13:48:59.986Z</time></trkpt><trkpt lat="44.8039851" lon="9.4727593"><ele>495.0</ele><time>2026-03-26T13:49:00.987Z</time></trkpt><trkpt lat="44.804078" lon="9.4726919"><ele>495.0</ele><time>2026-03-26T13:49:02.988Z</time></trkpt><trkpt lat="44.8041697" lon="9.472653"><ele>495.0</ele><time>2026-03-26T13:49:04.987Z</time></trkpt><trkpt lat="44.8042883" lon="9.472626"><ele>495.0</ele><time>2026-03-26T13:49:06.987Z</time></trkpt><trkpt lat="44.8043926" lon="9.4726277"><ele>495.0</ele><time>2026-03-26T13:49:08.989Z</time></trkpt><trkpt lat="44.8044947" lon="9.4726663"><ele>495.0</ele><time>2026-03-26T13:49:10.988Z</time></trkpt><trkpt lat="44.8045604" lon="9.4726945"><ele>495.0</ele><time>2026-03-26T13:49:11.987Z</time></trkpt><trkpt lat="44.8046274" lon="9.4727349"><ele>495.8333333333333</ele><time>2026-03-26T13:49:12.987Z</time></trkpt><trkpt lat="44.8046901" lon="9.4727912"><ele>496.66666666666663</ele><time>2026-03-26T13:49:13.986Z</time></trkpt><trkpt lat="44.8047424" lon="9.4728655"><ele>497.5</ele><time>2026-03-26T13:49:14.988Z</time></trkpt><trkpt lat="44.8047907" lon="9.4729568"><ele>498.3333333333333</ele><time>2026-03-26T13:49:15.987Z</time></trkpt><trkpt lat="44.8048329" lon="9.4730563"><ele>499.16666666666663</ele><time>2026-03-26T13:49:16.987Z</time></trkpt><trkpt lat="44.804873" lon="9.4731515"><ele>500.0</ele><time>2026-03-26T13:49:17.987Z</time></trkpt><trkpt lat="44.804908" lon="9.4732513"><ele>499.99999999999994</ele><time>2026-03-26T13:49:18.987Z</time></trkpt><trkpt lat="44.8049253" lon="9.4733721"><ele>500.0</ele><time>2026-03-26T13:49:19.988Z</time></trkpt><trkpt lat="44.8049337" lon="9.4735004"><ele>500.0</ele><time>2026-03-26T13:49:20.989Z</time></trkpt><trkpt lat="44.8049412" lon="9.4736271"><ele>500.0</ele><time>2026-03-26T13:49:21.988Z</time></trkpt><trkpt lat="44.8049517" lon="9.4737457"><ele>499.99999999999994</ele><time>2026-03-26T13:49:22.987Z</time></trkpt><trkpt lat="44.8049569" lon="9.4738501"><ele>500.0</ele><time>2026-03-26T13:49:23.988Z</time></trkpt><trkpt lat="44.8049438" lon="9.4739567"><ele>499.16666666666663</ele><time>2026-03-26T13:49:24.986Z</time></trkpt><trkpt lat="44.8049196" lon="9.4740609"><ele>498.3333333333333</ele><time>2026-03-26T13:49:25.987Z</time></trkpt><trkpt lat="44.8048912" lon="9.4741599"><ele>497.5</ele><time>2026-03-26T13:49:26.988Z</time></trkpt><trkpt lat="44.8048706" lon="9.4742557"><ele>496.66666666666663</ele><time>2026-03-26T13:49:27.987Z</time></trkpt><trkpt lat="44.8048629" lon="9.4743481"><ele>495.8333333333333</ele><time>2026-03-26T13:49:28.987Z</time></trkpt><trkpt lat="44.8049282" lon="9.4745072"><ele>495.0</ele><time>2026-03-26T13:49:30.989Z</time></trkpt><trkpt lat="44.8049804" lon="9.4745959"><ele>494.5714285714285</ele><time>2026-03-26T13:49:31.988Z</time></trkpt><trkpt lat="44.8050287" lon="9.4747012"><ele>494.1428571428571</ele><time>2026-03-26T13:49:32.988Z</time></trkpt><trkpt lat="44.8050567" lon="9.474815"><ele>493.7142857142857</ele><time>2026-03-26T13:49:33.989Z</time></trkpt><trkpt lat="44.8050633" lon="9.4749183"><ele>493.2857142857143</ele><time>2026-03-26T13:49:34.987Z</time></trkpt><trkpt lat="44.8050533" lon="9.4750117"><ele>492.8571428571429</ele><time>2026-03-26T13:49:35.987Z</time></trkpt><trkpt lat="44.80504" lon="9.4751067"><ele>492.4285714285715</ele><time>2026-03-26T13:49:36.987Z</time></trkpt><trkpt lat="44.805025" lon="9.4751933"><ele>492.00000000000006</ele><time>2026-03-26T13:49:37.987Z</time></trkpt><trkpt lat="44.8049633" lon="9.475355"><ele>490.40000000000003</ele><time>2026-03-26T13:49:39.987Z</time></trkpt><trkpt lat="44.8049117" lon="9.475445"><ele>488.80000000000007</ele><time>2026-03-26T13:49:40.987Z</time></trkpt><trkpt lat="44.8048517" lon="9.475555"><ele>487.2</ele><time>2026-03-26T13:49:41.987Z</time></trkpt><trkpt lat="44.8047967" lon="9.4756733"><ele>485.6</ele><time>2026-03-26T13:49:42.987Z</time></trkpt><trkpt lat="44.80475" lon="9.4757867"><ele>484.0</ele><time>2026-03-26T13:49:43.987Z</time></trkpt><trkpt lat="44.804725" lon="9.4758917"><ele>484.0</ele><time>2026-03-26T13:49:44.988Z</time></trkpt><trkpt lat="44.80468" lon="9.4760067"><ele>484.0</ele><time>2026-03-26T13:49:45.987Z</time></trkpt><trkpt lat="44.8046183" lon="9.4761283"><ele>484.0</ele><time>2026-03-26T13:49:46.987Z</time></trkpt><trkpt lat="44.8045567" lon="9.4762483"><ele>484.0</ele><time>2026-03-26T13:49:47.987Z</time></trkpt><trkpt lat="44.8044983" lon="9.4763667"><ele>484.0</ele><time>2026-03-26T13:49:48.987Z</time></trkpt><trkpt lat="44.804445" lon="9.4764733"><ele>483.0</ele><time>2026-03-26T13:49:49.987Z</time></trkpt><trkpt lat="44.8043783" lon="9.4765917"><ele>482.0</ele><time>2026-03-26T13:49:50.987Z</time></trkpt><trkpt lat="44.8043167" lon="9.47671"><ele>481.0</ele><time>2026-03-26T13:49:51.988Z</time></trkpt><trkpt lat="44.8042717" lon="9.4768117"><ele>480.0</ele><time>2026-03-26T13:49:52.989Z</time></trkpt><trkpt lat="44.8042333" lon="9.4768967"><ele>479.0</ele><time>2026-03-26T13:49:53.987Z</time></trkpt><trkpt lat="44.8042" lon="9.477035"><ele>479.6</ele><time>2026-03-26T13:49:55.987Z</time></trkpt><trkpt lat="44.80422" lon="9.4771717"><ele>480.2</ele><time>2026-03-26T13:49:57.986Z</time></trkpt><trkpt lat="44.8042867" lon="9.4773283"><ele>480.80000000000007</ele><time>2026-03-26T13:49:59.988Z</time></trkpt><trkpt lat="44.8043367" lon="9.47741"><ele>481.40000000000003</ele><time>2026-03-26T13:50:00.987Z</time></trkpt><trkpt lat="44.8044017" lon="9.4774933"><ele>482.0</ele><time>2026-03-26T13:50:01.988Z</time></trkpt><trkpt lat="44.804465" lon="9.4775683"><ele>481.99999999999994</ele><time>2026-03-26T13:50:02.988Z</time></trkpt><trkpt lat="44.80453" lon="9.477635"><ele>482.0</ele><time>2026-03-26T13:50:03.986Z</time></trkpt><trkpt lat="44.8046017" lon="9.4777"><ele>482.0</ele><time>2026-03-26T13:50:04.987Z</time></trkpt><trkpt lat="44.80466" lon="9.4777717"><ele>482.0</ele><time>2026-03-26T13:50:05.988Z</time></trkpt><trkpt lat="44.80471" lon="9.4778417"><ele>481.99999999999994</ele><time>2026-03-26T13:50:06.987Z</time></trkpt><trkpt lat="44.8047583" lon="9.477915"><ele>482.0</ele><time>2026-03-26T13:50:07.988Z</time></trkpt><trkpt lat="44.8048083" lon="9.4779933"><ele>482.66666666666663</ele><time>2026-03-26T13:50:08.987Z</time></trkpt><trkpt lat="44.8048617" lon="9.4780583"><ele>483.3333333333333</ele><time>2026-03-26T13:50:09.987Z</time></trkpt><trkpt lat="44.8049167" lon="9.47811"><ele>484.0</ele><time>2026-03-26T13:50:10.987Z</time></trkpt><trkpt lat="44.80498" lon="9.4781517"><ele>484.66666666666663</ele><time>2026-03-26T13:50:11.988Z</time></trkpt><trkpt lat="44.8050533" lon="9.4781917"><ele>485.3333333333333</ele><time>2026-03-26T13:50:12.987Z</time></trkpt><trkpt lat="44.80513" lon="9.4782383"><ele>486.0</ele><time>2026-03-26T13:50:13.988Z</time></trkpt><trkpt lat="44.8052083" lon="9.478295"><ele>486.0</ele><time>2026-03-26T13:50:14.987Z</time></trkpt><trkpt lat="44.8052883" lon="9.4783583"><ele>486.0</ele><time>2026-03-26T13:50:15.987Z</time></trkpt><trkpt lat="44.8053733" lon="9.4784367"><ele>486.0</ele><time>2026-03-26T13:50:16.987Z</time></trkpt><trkpt lat="44.80545" lon="9.4785167"><ele>486.0</ele><time>2026-03-26T13:50:17.987Z</time></trkpt><trkpt lat="44.805515" lon="9.4785933"><ele>486.0</ele><time>2026-03-26T13:50:18.987Z</time></trkpt><trkpt lat="44.8055667" lon="9.478685"><ele>485.6</ele><time>2026-03-26T13:50:19.987Z</time></trkpt><trkpt lat="44.8056117" lon="9.4788"><ele>485.20000000000005</ele><time>2026-03-26T13:50:20.987Z</time></trkpt><trkpt lat="44.805645" lon="9.4789533"><ele>484.79999999999995</ele><time>2026-03-26T13:50:21.987Z</time></trkpt><trkpt lat="44.8056917" lon="9.4791017"><ele>484.4</ele><time>2026-03-26T13:50:22.987Z</time></trkpt><trkpt lat="44.8057333" lon="9.4792367"><ele>484.0</ele><time>2026-03-26T13:50:23.986Z</time></trkpt><trkpt lat="44.805775" lon="9.47936"><ele>484.00000000000006</ele><time>2026-03-26T13:50:24.987Z</time></trkpt><trkpt lat="44.8058117" lon="9.4794833"><ele>484.0</ele><time>2026-03-26T13:50:25.987Z</time></trkpt><trkpt lat="44.8058383" lon="9.4796083"><ele>484.0</ele><time>2026-03-26T13:50:26.989Z</time></trkpt><trkpt lat="44.8058533" lon="9.479735"><ele>484.0</ele><time>2026-03-26T13:50:27.989Z</time></trkpt><trkpt lat="44.805855" lon="9.4798533"><ele>484.00000000000006</ele><time>2026-03-26T13:50:28.989Z</time></trkpt><trkpt lat="44.80585" lon="9.4799733"><ele>484.0</ele><time>2026-03-26T13:50:29.987Z</time></trkpt><trkpt lat="44.8058417" lon="9.4800933"><ele>483.0</ele><time>2026-03-26T13:50:30.987Z</time></trkpt><trkpt lat="44.805835" lon="9.4802017"><ele>481.99999999999994</ele><time>2026-03-26T13:50:31.987Z</time></trkpt><trkpt lat="44.80583" lon="9.4803033"><ele>481.0</ele><time>2026-03-26T13:50:32.988Z</time></trkpt><trkpt lat="44.8058333" lon="9.4804"><ele>480.0</ele><time>2026-03-26T13:50:33.987Z</time></trkpt><trkpt lat="44.8058417" lon="9.4805"><ele>478.99999999999994</ele><time>2026-03-26T13:50:34.987Z</time></trkpt><trkpt lat="44.80585" lon="9.4806067"><ele>478.0</ele><time>2026-03-26T13:50:35.988Z</time></trkpt><trkpt lat="44.8058683" lon="9.4807167"><ele>477.0</ele><time>2026-03-26T13:50:36.987Z</time></trkpt><trkpt lat="44.805895" lon="9.480825"><ele>475.8333333333333</ele><time>2026-03-26T13:50:37.987Z</time></trkpt><trkpt lat="44.805915" lon="9.4809367"><ele>474.66666666666663</ele><time>2026-03-26T13:50:38.987Z</time></trkpt><trkpt lat="44.80594" lon="9.481055"><ele>473.5</ele><time>2026-03-26T13:50:39.987Z</time></trkpt><trkpt lat="44.805965" lon="9.4811683"><ele>472.3333333333333</ele><time>2026-03-26T13:50:40.987Z</time></trkpt><trkpt lat="44.8059933" lon="9.4812633"><ele>471.16666666666663</ele><time>2026-03-26T13:50:41.988Z</time></trkpt><trkpt lat="44.8060167" lon="9.4813467"><ele>470.0</ele><time>2026-03-26T13:50:42.987Z</time></trkpt><trkpt lat="44.8060383" lon="9.4814867"><ele>468.16666666666663</ele><time>2026-03-26T13:50:44.988Z</time></trkpt><trkpt lat="44.806" lon="9.4816017"><ele>466.3333333333333</ele><time>2026-03-26T13:50:46.987Z</time></trkpt><trkpt lat="44.805945" lon="9.4816583"><ele>464.5</ele><time>2026-03-26T13:50:47.987Z</time></trkpt><trkpt lat="44.8058833" lon="9.4817267"><ele>462.66666666666663</ele><time>2026-03-26T13:50:48.987Z</time></trkpt><trkpt lat="44.8058233" lon="9.481805"><ele>460.8333333333333</ele><time>2026-03-26T13:50:49.987Z</time></trkpt><trkpt lat="44.805765" lon="9.4818883"><ele>459.0</ele><time>2026-03-26T13:50:50.988Z</time></trkpt><trkpt lat="44.8057017" lon="9.4819733"><ele>459.0</ele><time>2026-03-26T13:50:51.987Z</time></trkpt><trkpt lat="44.8056333" lon="9.482045"><ele>459.0</ele><time>2026-03-26T13:50:52.987Z</time></trkpt><trkpt lat="44.8055517" lon="9.4821233"><ele>459.0</ele><time>2026-03-26T13:50:53.988Z</time></trkpt><trkpt lat="44.805455" lon="9.4822167"><ele>459.0</ele><time>2026-03-26T13:50:54.986Z</time></trkpt><trkpt lat="44.8053517" lon="9.4823233"><ele>459.0</ele><time>2026-03-26T13:50:55.987Z</time></trkpt><trkpt lat="44.8052417" lon="9.48242"><ele>458.0</ele><time>2026-03-26T13:50:56.988Z</time></trkpt><trkpt lat="44.8051383" lon="9.4825117"><ele>457.0</ele><time>2026-03-26T13:50:57.987Z</time></trkpt><trkpt lat="44.8050467" lon="9.4826067"><ele>456.0</ele><time>2026-03-26T13:50:58.987Z</time></trkpt><trkpt lat="44.8049683" lon="9.4827133"><ele>455.0</ele><time>2026-03-26T13:50:59.987Z</time></trkpt><trkpt lat="44.8048967" lon="9.48282"><ele>454.0</ele><time>2026-03-26T13:51:00.988Z</time></trkpt><trkpt lat="44.804835" lon="9.482925"><ele>451.33333333333337</ele><time>2026-03-26T13:51:01.987Z</time></trkpt><trkpt lat="44.80478" lon="9.48302"><ele>448.6666666666667</ele><time>2026-03-26T13:51:02.987Z</time></trkpt><trkpt lat="44.8047267" lon="9.4831117"><ele>446.0</ele><time>2026-03-26T13:51:03.987Z</time></trkpt><trkpt lat="44.804685" lon="9.4831917"><ele>443.33333333333337</ele><time>2026-03-26T13:51:04.987Z</time></trkpt><trkpt lat="44.804655" lon="9.483275"><ele>440.6666666666667</ele><time>2026-03-26T13:51:05.988Z</time></trkpt><trkpt lat="44.8046833" lon="9.4834417"><ele>438.0</ele><time>2026-03-26T13:51:07.987Z</time></trkpt><trkpt lat="44.8047317" lon="9.4835167"><ele>438.0</ele><time>2026-03-26T13:51:08.988Z</time></trkpt><trkpt lat="44.8047733" lon="9.4836567"><ele>438.0</ele><time>2026-03-26T13:51:10.987Z</time></trkpt><trkpt lat="44.8047167" lon="9.4837667"><ele>438.0</ele><time>2026-03-26T13:51:12.986Z</time></trkpt><trkpt lat="44.8046667" lon="9.483825"><ele>438.0</ele><time>2026-03-26T13:51:13.988Z</time></trkpt><trkpt lat="44.804615" lon="9.4838883"><ele>438.0</ele><time>2026-03-26T13:51:14.986Z</time></trkpt><trkpt lat="44.804565" lon="9.4839517"><ele>438.0</ele><time>2026-03-26T13:51:15.986Z</time></trkpt><trkpt lat="44.8045167" lon="9.4840133"><ele>439.3333333333333</ele><time>2026-03-26T13:51:16.988Z</time></trkpt><trkpt lat="44.8044567" lon="9.4840917"><ele>440.66666666666663</ele><time>2026-03-26T13:51:17.987Z</time></trkpt><trkpt lat="44.8044" lon="9.4841733"><ele>442.0</ele><time>2026-03-26T13:51:18.986Z</time></trkpt><trkpt lat="44.8043533" lon="9.484265"><ele>443.3333333333333</ele><time>2026-03-26T13:51:19.987Z</time></trkpt><trkpt lat="44.8043167" lon="9.4843667"><ele>444.66666666666663</ele><time>2026-03-26T13:51:20.988Z</time></trkpt><trkpt lat="44.804285" lon="9.4844817"><ele>446.0</ele><time>2026-03-26T13:51:21.987Z</time></trkpt><trkpt lat="44.80425" lon="9.4845917"><ele>442.66666666666663</ele><time>2026-03-26T13:51:22.988Z</time></trkpt><trkpt lat="44.8042033" lon="9.484695"><ele>439.3333333333333</ele><time>2026-03-26T13:51:23.988Z</time></trkpt><trkpt lat="44.8041567" lon="9.4847833"><ele>436.0</ele><time>2026-03-26T13:51:24.987Z</time></trkpt><trkpt lat="44.8041017" lon="9.48486"><ele>432.66666666666663</ele><time>2026-03-26T13:51:25.987Z</time></trkpt><trkpt lat="44.8040433" lon="9.48493"><ele>429.3333333333333</ele><time>2026-03-26T13:51:26.987Z</time></trkpt><trkpt lat="44.803975" lon="9.4850083"><ele>426.0</ele><time>2026-03-26T13:51:27.987Z</time></trkpt><trkpt lat="44.8038967" lon="9.4850933"><ele>426.0</ele><time>2026-03-26T13:51:28.988Z</time></trkpt><trkpt lat="44.8038167" lon="9.4851683"><ele>426.0</ele><time>2026-03-26T13:51:29.987Z</time></trkpt><trkpt lat="44.8037433" lon="9.4852467"><ele>426.0</ele><time>2026-03-26T13:51:30.987Z</time></trkpt><trkpt lat="44.8036717" lon="9.485325"><ele>426.0</ele><time>2026-03-26T13:51:31.986Z</time></trkpt><trkpt lat="44.8036033" lon="9.485405"><ele>426.0</ele><time>2026-03-26T13:51:32.988Z</time></trkpt><trkpt lat="44.8035333" lon="9.4854917"><ele>424.1666666666667</ele><time>2026-03-26T13:51:33.986Z</time></trkpt><trkpt lat="44.8034733" lon="9.4855717"><ele>422.33333333333337</ele><time>2026-03-26T13:51:34.987Z</time></trkpt><trkpt lat="44.8034183" lon="9.4856283"><ele>420.5</ele><time>2026-03-26T13:51:35.987Z</time></trkpt><trkpt lat="44.8033383" lon="9.4856667"><ele>418.6666666666667</ele><time>2026-03-26T13:51:36.988Z</time></trkpt><trkpt lat="44.8032683" lon="9.4856983"><ele>416.83333333333337</ele><time>2026-03-26T13:51:37.988Z</time></trkpt><trkpt lat="44.80317" lon="9.4857867"><ele>415.0</ele><time>2026-03-26T13:51:39.988Z</time></trkpt><trkpt lat="44.80312" lon="9.485855"><ele>415.00000000000006</ele><time>2026-03-26T13:51:40.987Z</time></trkpt><trkpt lat="44.8030667" lon="9.4859133"><ele>415.0</ele><time>2026-03-26T13:51:41.987Z</time></trkpt><trkpt lat="44.8029933" lon="9.4859667"><ele>415.0</ele><time>2026-03-26T13:51:42.987Z</time></trkpt><trkpt lat="44.8029117" lon="9.4860033"><ele>415.0</ele><time>2026-03-26T13:51:43.989Z</time></trkpt><trkpt lat="44.8028333" lon="9.4860467"><ele>415.00000000000006</ele><time>2026-03-26T13:51:44.988Z</time></trkpt><trkpt lat="44.8027717" lon="9.4861133"><ele>415.0</ele><time>2026-03-26T13:51:45.987Z</time></trkpt><trkpt lat="44.8027217" lon="9.486185"><ele>414.50000000000006</ele><time>2026-03-26T13:51:46.987Z</time></trkpt><trkpt lat="44.8026833" lon="9.4862633"><ele>414.0</ele><time>2026-03-26T13:51:47.987Z</time></trkpt><trkpt lat="44.80266" lon="9.4864267"><ele>413.5</ele><time>2026-03-26T13:51:49.987Z</time></trkpt><trkpt lat="44.8026817" lon="9.48657"><ele>413.0</ele><time>2026-03-26T13:51:51.986Z</time></trkpt><trkpt lat="44.8027417" lon="9.48663"><ele>412.50000000000006</ele><time>2026-03-26T13:51:52.989Z</time></trkpt><trkpt lat="44.8027983" lon="9.4866767"><ele>412.0</ele><time>2026-03-26T13:51:53.987Z</time></trkpt><trkpt lat="44.8028717" lon="9.48672"><ele>412.0</ele><time>2026-03-26T13:51:54.987Z</time></trkpt><trkpt lat="44.8029817" lon="9.48676"><ele>412.0</ele><time>2026-03-26T13:51:55.987Z</time></trkpt><trkpt lat="44.8030717" lon="9.4868017"><ele>412.0</ele><time>2026-03-26T13:51:56.987Z</time></trkpt><trkpt lat="44.8031717" lon="9.4868617"><ele>412.0</ele><time>2026-03-26T13:51:57.986Z</time></trkpt><trkpt lat="44.8032667" lon="9.48692"><ele>412.0</ele><time>2026-03-26T13:51:58.987Z</time></trkpt><trkpt lat="44.8033633" lon="9.486975"><ele>412.0</ele><time>2026-03-26T13:51:59.987Z</time></trkpt><trkpt lat="44.8034567" lon="9.48702"><ele>412.0</ele><time>2026-03-26T13:52:00.987Z</time></trkpt><trkpt lat="44.8035517" lon="9.4870733"><ele>412.0</ele><time>2026-03-26T13:52:01.987Z</time></trkpt><trkpt lat="44.8036467" lon="9.48714"><ele>412.0</ele><time>2026-03-26T13:52:02.986Z</time></trkpt><trkpt lat="44.8037417" lon="9.4872233"><ele>412.0</ele><time>2026-03-26T13:52:03.986Z</time></trkpt><trkpt lat="44.80383" lon="9.4872983"><ele>412.83333333333337</ele><time>2026-03-26T13:52:04.985Z</time></trkpt><trkpt lat="44.8039117" lon="9.4873583"><ele>413.6666666666667</ele><time>2026-03-26T13:52:05.986Z</time></trkpt><trkpt lat="44.8039767" lon="9.4874033"><ele>414.5</ele><time>2026-03-26T13:52:06.987Z</time></trkpt><trkpt lat="44.8040383" lon="9.4874383"><ele>415.33333333333337</ele><time>2026-03-26T13:52:07.988Z</time></trkpt><trkpt lat="44.8041583" lon="9.4874617"><ele>416.1666666666667</ele><time>2026-03-26T13:52:09.987Z</time></trkpt><trkpt lat="44.804225" lon="9.4874617"><ele>417.0</ele><time>2026-03-26T13:52:10.987Z</time></trkpt><trkpt lat="44.8042933" lon="9.4874533"><ele>415.3333333333333</ele><time>2026-03-26T13:52:11.987Z</time></trkpt><trkpt lat="44.804365" lon="9.48743"><ele>413.66666666666663</ele><time>2026-03-26T13:52:12.987Z</time></trkpt><trkpt lat="44.8044367" lon="9.4873983"><ele>412.0</ele><time>2026-03-26T13:52:13.986Z</time></trkpt><trkpt lat="44.8045033" lon="9.48738"><ele>410.3333333333333</ele><time>2026-03-26T13:52:14.987Z</time></trkpt><trkpt lat="44.8045683" lon="9.4873817"><ele>408.66666666666663</ele><time>2026-03-26T13:52:15.987Z</time></trkpt><trkpt lat="44.804695" lon="9.4874367"><ele>407.0</ele><time>2026-03-26T13:52:17.987Z</time></trkpt><trkpt lat="44.8047683" lon="9.4874917"><ele>406.99999999999994</ele><time>2026-03-26T13:52:18.987Z</time></trkpt><trkpt lat="44.804835" lon="9.487565"><ele>407.0</ele><time>2026-03-26T13:52:19.987Z</time></trkpt><trkpt lat="44.8048967" lon="9.4876467"><ele>407.0</ele><time>2026-03-26T13:52:20.987Z</time></trkpt><trkpt lat="44.80495" lon="9.4877217"><ele>407.0</ele><time>2026-03-26T13:52:21.987Z</time></trkpt><trkpt lat="44.80501" lon="9.4877883"><ele>406.99999999999994</ele><time>2026-03-26T13:52:22.986Z</time></trkpt><trkpt lat="44.8050683" lon="9.4878383"><ele>407.0</ele><time>2026-03-26T13:52:23.988Z</time></trkpt><trkpt lat="44.8051317" lon="9.4878733"><ele>404.6</ele><time>2026-03-26T13:52:24.988Z</time></trkpt><trkpt lat="44.8052017" lon="9.4878933"><ele>402.20000000000005</ele><time>2026-03-26T13:52:25.987Z</time></trkpt><trkpt lat="44.8052883" lon="9.4878867"><ele>399.8</ele><time>2026-03-26T13:52:26.987Z</time></trkpt><trkpt lat="44.8053967" lon="9.4878633"><ele>397.4</ele><time>2026-03-26T13:52:27.987Z</time></trkpt><trkpt lat="44.8055233" lon="9.487845"><ele>395.0</ele><time>2026-03-26T13:52:28.987Z</time></trkpt><trkpt lat="44.8056633" lon="9.4878633"><ele>395.0</ele><time>2026-03-26T13:52:29.989Z</time></trkpt><trkpt lat="44.805795" lon="9.48791"><ele>395.0</ele><time>2026-03-26T13:52:30.989Z</time></trkpt><trkpt lat="44.8059233" lon="9.4879767"><ele>395.0</ele><time>2026-03-26T13:52:31.987Z</time></trkpt><trkpt lat="44.80604" lon="9.488055"><ele>395.0</ele><time>2026-03-26T13:52:32.987Z</time></trkpt><trkpt lat="44.8061517" lon="9.4881233"><ele>393.6</ele><time>2026-03-26T13:52:33.987Z</time></trkpt><trkpt lat="44.8062517" lon="9.4881633"><ele>392.2</ele><time>2026-03-26T13:52:34.987Z</time></trkpt><trkpt lat="44.8063483" lon="9.4881683"><ele>390.79999999999995</ele><time>2026-03-26T13:52:35.987Z</time></trkpt><trkpt lat="44.806455" lon="9.48814"><ele>389.4</ele><time>2026-03-26T13:52:36.987Z</time></trkpt><trkpt lat="44.8065667" lon="9.4880883"><ele>388.0</ele><time>2026-03-26T13:52:37.987Z</time></trkpt><trkpt lat="44.8066817" lon="9.4880367"><ele>388.0</ele><time>2026-03-26T13:52:38.987Z</time></trkpt><trkpt lat="44.80679" lon="9.488005"><ele>388.0</ele><time>2026-03-26T13:52:39.987Z</time></trkpt><trkpt lat="44.8069" lon="9.4880067"><ele>388.0</ele><time>2026-03-26T13:52:40.986Z</time></trkpt><trkpt lat="44.80701" lon="9.48803"><ele>388.0</ele><time>2026-03-26T13:52:41.987Z</time></trkpt><trkpt lat="44.8071117" lon="9.4880617"><ele>388.0</ele><time>2026-03-26T13:52:42.987Z</time></trkpt><trkpt lat="44.8072117" lon="9.488105"><ele>385.79999999999995</ele><time>2026-03-26T13:52:43.989Z</time></trkpt><trkpt lat="44.8073083" lon="9.488165"><ele>383.6</ele><time>2026-03-26T13:52:44.99Z</time></trkpt><trkpt lat="44.8073967" lon="9.48824"><ele>381.4</ele><time>2026-03-26T13:52:45.987Z</time></trkpt><trkpt lat="44.8074683" lon="9.488325"><ele>379.20000000000005</ele><time>2026-03-26T13:52:46.988Z</time></trkpt><trkpt lat="44.80753" lon="9.488415"><ele>377.0</ele><time>2026-03-26T13:52:47.987Z</time></trkpt><trkpt lat="44.8075733" lon="9.4885183"><ele>377.0</ele><time>2026-03-26T13:52:48.987Z</time></trkpt><trkpt lat="44.807605" lon="9.4886283"><ele>377.0</ele><time>2026-03-26T13:52:49.988Z</time></trkpt><trkpt lat="44.8076433" lon="9.4887367"><ele>377.0</ele><time>2026-03-26T13:52:50.988Z</time></trkpt><trkpt lat="44.8076917" lon="9.48884"><ele>377.0</ele><time>2026-03-26T13:52:51.987Z</time></trkpt><trkpt lat="44.8077533" lon="9.4889217"><ele>377.0</ele><time>2026-03-26T13:52:52.987Z</time></trkpt><trkpt lat="44.8078333" lon="9.48898"><ele>377.0</ele><time>2026-03-26T13:52:53.987Z</time></trkpt><trkpt lat="44.8079033" lon="9.4890033"><ele>375.83333333333337</ele><time>2026-03-26T13:52:54.988Z</time></trkpt><trkpt lat="44.8079733" lon="9.4890183"><ele>374.6666666666667</ele><time>2026-03-26T13:52:55.988Z</time></trkpt><trkpt lat="44.8080417" lon="9.4889433"><ele>373.5</ele><time>2026-03-26T13:52:57.988Z</time></trkpt><trkpt lat="44.8080633" lon="9.4887617"><ele>372.3333333333333</ele><time>2026-03-26T13:52:59.987Z</time></trkpt><trkpt lat="44.8080733" lon="9.4886483"><ele>371.16666666666663</ele><time>2026-03-26T13:53:00.986Z</time></trkpt><trkpt lat="44.8081033" lon="9.4885433"><ele>370.0</ele><time>2026-03-26T13:53:01.987Z</time></trkpt><trkpt lat="44.8081533" lon="9.488435"><ele>369.0</ele><time>2026-03-26T13:53:02.987Z</time></trkpt><trkpt lat="44.8082117" lon="9.4883267"><ele>368.0</ele><time>2026-03-26T13:53:03.987Z</time></trkpt><trkpt lat="44.808275" lon="9.4882267"><ele>367.0</ele><time>2026-03-26T13:53:04.988Z</time></trkpt><trkpt lat="44.80834" lon="9.4881433"><ele>366.0</ele><time>2026-03-26T13:53:05.99Z</time></trkpt><trkpt lat="44.808415" lon="9.488085"><ele>365.0</ele><time>2026-03-26T13:53:06.988Z</time></trkpt><trkpt lat="44.8084967" lon="9.4880333"><ele>363.75</ele><time>2026-03-26T13:53:07.989Z</time></trkpt><trkpt lat="44.8086017" lon="9.4879833"><ele>362.5</ele><time>2026-03-26T13:53:08.991Z</time></trkpt><trkpt lat="44.8087167" lon="9.4879317"><ele>361.25</ele><time>2026-03-26T13:53:09.989Z</time></trkpt><trkpt lat="44.8088233" lon="9.4878767"><ele>360.0</ele><time>2026-03-26T13:53:10.989Z</time></trkpt><trkpt lat="44.8089233" lon="9.487825"><ele>359.4</ele><time>2026-03-26T13:53:11.99Z</time></trkpt><trkpt lat="44.80902" lon="9.4877767"><ele>358.8</ele><time>2026-03-26T13:53:12.988Z</time></trkpt><trkpt lat="44.8091183" lon="9.4877383"><ele>358.20000000000005</ele><time>2026-03-26T13:53:13.991Z</time></trkpt><trkpt lat="44.8092267" lon="9.4877117"><ele>357.6</ele><time>2026-03-26T13:53:14.989Z</time></trkpt><trkpt lat="44.8093417" lon="9.4877067"><ele>357.0</ele><time>2026-03-26T13:53:15.987Z</time></trkpt><trkpt lat="44.809455" lon="9.4877217"><ele>355.0</ele><time>2026-03-26T13:53:16.987Z</time></trkpt><trkpt lat="44.8095717" lon="9.4877533"><ele>353.0</ele><time>2026-03-26T13:53:17.988Z</time></trkpt><trkpt lat="44.8096983" lon="9.4877833"><ele>351.0</ele><time>2026-03-26T13:53:18.987Z</time></trkpt><trkpt lat="44.8098267" lon="9.4877917"><ele>349.0</ele><time>2026-03-26T13:53:19.988Z</time></trkpt><trkpt lat="44.8099467" lon="9.48779"><ele>349.0</ele><time>2026-03-26T13:53:20.987Z</time></trkpt><trkpt lat="44.81006" lon="9.4877917"><ele>349.0</ele><time>2026-03-26T13:53:21.988Z</time></trkpt><trkpt lat="44.8101583" lon="9.4878217"><ele>349.0</ele><time>2026-03-26T13:53:22.987Z</time></trkpt><trkpt lat="44.810245" lon="9.487885"><ele>349.0</ele><time>2026-03-26T13:53:23.988Z</time></trkpt><trkpt lat="44.8103283" lon="9.48797"><ele>349.0</ele><time>2026-03-26T13:53:24.987Z</time></trkpt><trkpt lat="44.8104133" lon="9.488055"><ele>346.2</ele><time>2026-03-26T13:53:25.99Z</time></trkpt><trkpt lat="44.8105017" lon="9.488125"><ele>343.4</ele><time>2026-03-26T13:53:26.988Z</time></trkpt><trkpt lat="44.81059" lon="9.4881733"><ele>340.6</ele><time>2026-03-26T13:53:27.987Z</time></trkpt><trkpt lat="44.8106783" lon="9.488205"><ele>337.8</ele><time>2026-03-26T13:53:28.989Z</time></trkpt><trkpt lat="44.810765" lon="9.4882167"><ele>335.0</ele><time>2026-03-26T13:53:29.989Z</time></trkpt><trkpt lat="44.810855" lon="9.488215"><ele>335.0</ele><time>2026-03-26T13:53:30.989Z</time></trkpt><trkpt lat="44.810955" lon="9.4882067"><ele>335.0</ele><time>2026-03-26T13:53:31.99Z</time></trkpt><trkpt lat="44.81107" lon="9.488195"><ele>335.0</ele><time>2026-03-26T13:53:32.99Z</time></trkpt><trkpt lat="44.8111883" lon="9.4881817"><ele>335.0</ele><time>2026-03-26T13:53:33.989Z</time></trkpt><trkpt lat="44.8113033" lon="9.488185"><ele>335.0</ele><time>2026-03-26T13:53:34.99Z</time></trkpt><trkpt lat="44.811415" lon="9.4882117"><ele>332.5</ele><time>2026-03-26T13:53:35.99Z</time></trkpt><trkpt lat="44.8115283" lon="9.4882517"><ele>330.0</ele><time>2026-03-26T13:53:36.989Z</time></trkpt><trkpt lat="44.8116417" lon="9.48829"><ele>327.5</ele><time>2026-03-26T13:53:37.99Z</time></trkpt><trkpt lat="44.8117583" lon="9.488315"><ele>325.0</ele><time>2026-03-26T13:53:38.99Z</time></trkpt><trkpt lat="44.8118733" lon="9.4883233"><ele>323.16666666666663</ele><time>2026-03-26T13:53:39.989Z</time></trkpt><trkpt lat="44.81198" lon="9.4883233"><ele>321.3333333333333</ele><time>2026-03-26T13:53:40.989Z</time></trkpt><trkpt lat="44.8120767" lon="9.488325"><ele>319.5</ele><time>2026-03-26T13:53:41.989Z</time></trkpt><trkpt lat="44.8121583" lon="9.4883133"><ele>317.6666666666667</ele><time>2026-03-26T13:53:42.989Z</time></trkpt><trkpt lat="44.8122367" lon="9.488295"><ele>315.83333333333337</ele><time>2026-03-26T13:53:43.987Z</time></trkpt><trkpt lat="44.8123117" lon="9.4882667"><ele>314.0</ele><time>2026-03-26T13:53:44.988Z</time></trkpt><trkpt lat="44.8123817" lon="9.4882267"><ele>314.0</ele><time>2026-03-26T13:53:45.987Z</time></trkpt><trkpt lat="44.8124733" lon="9.4881567"><ele>314.0</ele><time>2026-03-26T13:53:47.988Z</time></trkpt><trkpt lat="44.8125267" lon="9.4882067"><ele>314.0</ele><time>2026-03-26T13:53:50.99Z</time></trkpt><trkpt lat="44.812555" lon="9.4883283"><ele>314.0</ele><time>2026-03-26T13:53:52.989Z</time></trkpt><trkpt lat="44.8126117" lon="9.4884183"><ele>314.0</ele><time>2026-03-26T13:53:54.986Z</time></trkpt><trkpt lat="44.8127367" lon="9.48846"><ele>311.1666666666667</ele><time>2026-03-26T13:53:56.99Z</time></trkpt><trkpt lat="44.8128167" lon="9.4884717"><ele>308.33333333333337</ele><time>2026-03-26T13:53:57.991Z</time></trkpt><trkpt lat="44.812905" lon="9.48848"><ele>305.5</ele><time>2026-03-26T13:53:58.989Z</time></trkpt><trkpt lat="44.81299" lon="9.48849"><ele>302.6666666666667</ele><time>2026-03-26T13:53:59.988Z</time></trkpt><trkpt lat="44.813065" lon="9.4884983"><ele>299.8333333333333</ele><time>2026-03-26T13:54:00.989Z</time></trkpt><trkpt lat="44.8131633" lon="9.4885317"><ele>297.0</ele><time>2026-03-26T13:54:02.989Z</time></trkpt><trkpt lat="44.8131983" lon="9.4886417"><ele>297.0</ele><time>2026-03-26T13:54:04.988Z</time></trkpt><trkpt lat="44.8131867" lon="9.4887367"><ele>297.0</ele><time>2026-03-26T13:54:05.989Z</time></trkpt><trkpt lat="44.8131517" lon="9.4888517"><ele>297.0</ele><time>2026-03-26T13:54:06.989Z</time></trkpt><trkpt lat="44.8131067" lon="9.48898"><ele>297.0</ele><time>2026-03-26T13:54:07.989Z</time></trkpt><trkpt lat="44.8130517" lon="9.4891033"><ele>297.0</ele><time>2026-03-26T13:54:08.99Z</time></trkpt><trkpt lat="44.812995" lon="9.4892167"><ele>295.6666666666667</ele><time>2026-03-26T13:54:09.987Z</time></trkpt><trkpt lat="44.8129367" lon="9.4893117"><ele>294.3333333333333</ele><time>2026-03-26T13:54:10.987Z</time></trkpt><trkpt lat="44.8128883" lon="9.4893917"><ele>293.0</ele><time>2026-03-26T13:54:11.987Z</time></trkpt><trkpt lat="44.8128733" lon="9.48951"><ele>291.66666666666663</ele><time>2026-03-26T13:54:13.987Z</time></trkpt><trkpt lat="44.812875" lon="9.4896267"><ele>290.3333333333333</ele><time>2026-03-26T13:54:15.986Z</time></trkpt><trkpt lat="44.812795" lon="9.48972"><ele>289.0</ele><time>2026-03-26T13:54:17.987Z</time></trkpt><trkpt lat="44.81273" lon="9.4898317"><ele>288.5</ele><time>2026-03-26T13:54:19.987Z</time></trkpt><trkpt lat="44.8127083" lon="9.4900117"><ele>288.0</ele><time>2026-03-26T13:54:21.986Z</time></trkpt><trkpt lat="44.8126767" lon="9.4901117"><ele>287.5</ele><time>2026-03-26T13:54:22.986Z</time></trkpt><trkpt lat="44.8126417" lon="9.4902067"><ele>287.0</ele><time>2026-03-26T13:54:23.986Z</time></trkpt><trkpt lat="44.812615" lon="9.4903083"><ele>286.5</ele><time>2026-03-26T13:54:24.986Z</time></trkpt><trkpt lat="44.8126" lon="9.490425"><ele>286.0</ele><time>2026-03-26T13:54:25.986Z</time></trkpt><trkpt lat="44.8125983" lon="9.4905517"><ele>286.0</ele><time>2026-03-26T13:54:26.988Z</time></trkpt><trkpt lat="44.8126117" lon="9.4906767"><ele>286.0</ele><time>2026-03-26T13:54:27.986Z</time></trkpt><trkpt lat="44.81263" lon="9.4908033"><ele>286.0</ele><time>2026-03-26T13:54:28.987Z</time></trkpt><trkpt lat="44.8126417" lon="9.49093"><ele>286.0</ele><time>2026-03-26T13:54:29.986Z</time></trkpt><trkpt lat="44.8126517" lon="9.4910483"><ele>286.0</ele><time>2026-03-26T13:54:30.986Z</time></trkpt><trkpt lat="44.8126633" lon="9.4911567"><ele>286.0</ele><time>2026-03-26T13:54:31.986Z</time></trkpt><trkpt lat="44.8126733" lon="9.4912717"><ele>285.0</ele><time>2026-03-26T13:54:32.989Z</time></trkpt><trkpt lat="44.812675" lon="9.491385"><ele>284.0</ele><time>2026-03-26T13:54:33.986Z</time></trkpt><trkpt lat="44.8126733" lon="9.49149"><ele>283.0</ele><time>2026-03-26T13:54:34.987Z</time></trkpt><trkpt lat="44.81269" lon="9.4916383"><ele>282.0</ele><time>2026-03-26T13:54:36.987Z</time></trkpt><trkpt lat="44.812755" lon="9.4916767"><ele>281.0</ele><time>2026-03-26T13:54:38.989Z</time></trkpt><trkpt lat="44.8128867" lon="9.49167"><ele>281.0</ele><time>2026-03-26T13:54:40.986Z</time></trkpt><trkpt lat="44.8129817" lon="9.4916783"><ele>281.0</ele><time>2026-03-26T13:54:41.987Z</time></trkpt><trkpt lat="44.8130667" lon="9.4917083"><ele>281.0</ele><time>2026-03-26T13:54:42.987Z</time></trkpt><trkpt lat="44.8131383" lon="9.4917483"><ele>281.0</ele><time>2026-03-26T13:54:43.988Z</time></trkpt><trkpt lat="44.813205" lon="9.4917983"><ele>281.0</ele><time>2026-03-26T13:54:44.987Z</time></trkpt><trkpt lat="44.8132833" lon="9.4918583"><ele>281.0</ele><time>2026-03-26T13:54:45.987Z</time></trkpt><trkpt lat="44.8133567" lon="9.49188"><ele>281.0</ele><time>2026-03-26T13:54:46.987Z</time></trkpt><trkpt lat="44.81343" lon="9.4918683"><ele>281.0</ele><time>2026-03-26T13:54:47.987Z</time></trkpt><trkpt lat="44.8134983" lon="9.491835"><ele>281.0</ele><time>2026-03-26T13:54:48.988Z</time></trkpt><trkpt lat="44.8135583" lon="9.4917967"><ele>281.0</ele><time>2026-03-26T13:54:49.986Z</time></trkpt><trkpt lat="44.8136217" lon="9.4917667"><ele>281.0</ele><time>2026-03-26T13:54:50.988Z</time></trkpt><trkpt lat="44.8137367" lon="9.4917333"><ele>281.0</ele><time>2026-03-26T13:54:52.987Z</time></trkpt><trkpt lat="44.81384" lon="9.4917567"><ele>279.40000000000003</ele><time>2026-03-26T13:54:54.986Z</time></trkpt><trkpt lat="44.8139417" lon="9.4917983"><ele>277.8</ele><time>2026-03-26T13:54:56.988Z</time></trkpt><trkpt lat="44.814055" lon="9.49186"><ele>276.20000000000005</ele><time>2026-03-26T13:54:58.987Z</time></trkpt><trkpt lat="44.8141067" lon="9.4919267"><ele>274.6</ele><time>2026-03-26T13:54:59.989Z</time></trkpt><trkpt lat="44.8141533" lon="9.4920017"><ele>273.0</ele><time>2026-03-26T13:55:00.987Z</time></trkpt><trkpt lat="44.8142133" lon="9.4920833"><ele>273.0</ele><time>2026-03-26T13:55:01.988Z</time></trkpt><trkpt lat="44.8142667" lon="9.492165"><ele>273.0</ele><time>2026-03-26T13:55:02.988Z</time></trkpt><trkpt lat="44.8143167" lon="9.49224"><ele>273.0</ele><time>2026-03-26T13:55:03.987Z</time></trkpt><trkpt lat="44.81437" lon="9.492305"><ele>273.0</ele><time>2026-03-26T13:55:04.987Z</time></trkpt><trkpt lat="44.8144233" lon="9.492365"><ele>273.0</ele><time>2026-03-26T13:55:05.987Z</time></trkpt><trkpt lat="44.8144817" lon="9.4924133"><ele>273.0</ele><time>2026-03-26T13:55:06.987Z</time></trkpt><trkpt lat="44.8146017" lon="9.4924567"><ele>273.0</ele><time>2026-03-26T13:55:08.989Z</time></trkpt><trkpt lat="44.8146683" lon="9.4924767"><ele>273.0</ele><time>2026-03-26T13:55:09.987Z</time></trkpt><trkpt lat="44.81474" lon="9.4924983"><ele>273.0</ele><time>2026-03-26T13:55:10.987Z</time></trkpt><trkpt lat="44.81481" lon="9.4925183"><ele>273.0</ele><time>2026-03-26T13:55:11.987Z</time></trkpt><trkpt lat="44.8148733" lon="9.49253"><ele>273.0</ele><time>2026-03-26T13:55:12.987Z</time></trkpt><trkpt lat="44.8149367" lon="9.4925617"><ele>273.0</ele><time>2026-03-26T13:55:14.987Z</time></trkpt><trkpt lat="44.814865" lon="9.4926333"><ele>273.0</ele><time>2026-03-26T13:55:17.986Z</time></trkpt><trkpt lat="44.8147483" lon="9.492675"><ele>273.0</ele><time>2026-03-26T13:55:19.986Z</time></trkpt><trkpt lat="44.8146783" lon="9.4927083"><ele>273.0</ele><time>2026-03-26T13:55:20.987Z</time></trkpt><trkpt lat="44.8146033" lon="9.49275"><ele>273.0</ele><time>2026-03-26T13:55:21.987Z</time></trkpt><trkpt lat="44.8145267" lon="9.4927933"><ele>273.0</ele><time>2026-03-26T13:55:22.987Z</time></trkpt><trkpt lat="44.8144417" lon="9.4928467"><ele>273.0</ele><time>2026-03-26T13:55:23.987Z</time></trkpt><trkpt lat="44.8143511" lon="9.4929081"><ele>273.0</ele><time>2026-03-26T13:55:24.986Z</time></trkpt><trkpt lat="44.8142588" lon="9.4929754"><ele>275.6666666666667</ele><time>2026-03-26T13:55:25.987Z</time></trkpt><trkpt lat="44.8141767" lon="9.4930493"><ele>278.3333333333333</ele><time>2026-03-26T13:55:26.988Z</time></trkpt><trkpt lat="44.8141119" lon="9.4931199"><ele>281.0</ele><time>2026-03-26T13:55:27.986Z</time></trkpt><trkpt lat="44.8140605" lon="9.4931901"><ele>283.66666666666663</ele><time>2026-03-26T13:55:28.987Z</time></trkpt><trkpt lat="44.8140084" lon="9.4932656"><ele>286.3333333333333</ele><time>2026-03-26T13:55:29.988Z</time></trkpt><trkpt lat="44.813957" lon="9.4933543"><ele>289.0</ele><time>2026-03-26T13:55:30.988Z</time></trkpt><trkpt lat="44.8139158" lon="9.4934611"><ele>289.0</ele><time>2026-03-26T13:55:31.99Z</time></trkpt><trkpt lat="44.813888" lon="9.4935682"><ele>289.0</ele><time>2026-03-26T13:55:32.989Z</time></trkpt><trkpt lat="44.8138726" lon="9.4936777"><ele>289.0</ele><time>2026-03-26T13:55:33.986Z</time></trkpt><trkpt lat="44.8138722" lon="9.493798"><ele>289.0</ele><time>2026-03-26T13:55:34.985Z</time></trkpt><trkpt lat="44.8138854" lon="9.4939429"><ele>289.0</ele><time>2026-03-26T13:55:35.987Z</time></trkpt><trkpt lat="44.8139044" lon="9.4940862"><ele>288.4</ele><time>2026-03-26T13:55:36.986Z</time></trkpt><trkpt lat="44.8139243" lon="9.4942282"><ele>287.79999999999995</ele><time>2026-03-26T13:55:37.988Z</time></trkpt><trkpt lat="44.813939" lon="9.4943727"><ele>287.20000000000005</ele><time>2026-03-26T13:55:38.987Z</time></trkpt><trkpt lat="44.8139481" lon="9.4945114"><ele>286.6</ele><time>2026-03-26T13:55:39.987Z</time></trkpt><trkpt lat="44.8139562" lon="9.4946377"><ele>286.0</ele><time>2026-03-26T13:55:40.986Z</time></trkpt><trkpt lat="44.8139677" lon="9.4947532"><ele>287.16666666666663</ele><time>2026-03-26T13:55:41.987Z</time></trkpt><trkpt lat="44.813982" lon="9.4948531"><ele>288.3333333333333</ele><time>2026-03-26T13:55:42.985Z</time></trkpt><trkpt lat="44.8140331" lon="9.4949945"><ele>289.5</ele><time>2026-03-26T13:55:44.987Z</time></trkpt><trkpt lat="44.8141504" lon="9.4950167"><ele>290.6666666666667</ele><time>2026-03-26T13:55:46.987Z</time></trkpt><trkpt lat="44.8142147" lon="9.4950503"><ele>291.83333333333337</ele><time>2026-03-26T13:55:47.987Z</time></trkpt><trkpt lat="44.8142683" lon="9.4951099"><ele>293.0</ele><time>2026-03-26T13:55:48.986Z</time></trkpt><trkpt lat="44.8143186" lon="9.4951666"><ele>293.8</ele><time>2026-03-26T13:55:49.987Z</time></trkpt><trkpt lat="44.8144213" lon="9.4952136"><ele>294.6</ele><time>2026-03-26T13:55:51.986Z</time></trkpt><trkpt lat="44.8144768" lon="9.4951581"><ele>295.4</ele><time>2026-03-26T13:55:52.987Z</time></trkpt><trkpt lat="44.8145272" lon="9.4950571"><ele>296.2</ele><time>2026-03-26T13:55:53.987Z</time></trkpt><trkpt lat="44.8145764" lon="9.4949343"><ele>297.0</ele><time>2026-03-26T13:55:54.986Z</time></trkpt><trkpt lat="44.8146308" lon="9.4948262"><ele>297.0</ele><time>2026-03-26T13:55:55.987Z</time></trkpt><trkpt lat="44.8146883" lon="9.4947441"><ele>297.0</ele><time>2026-03-26T13:55:56.988Z</time></trkpt><trkpt lat="44.8147533" lon="9.4946919"><ele>297.0</ele><time>2026-03-26T13:55:57.987Z</time></trkpt><trkpt lat="44.8148286" lon="9.4946637"><ele>297.0</ele><time>2026-03-26T13:55:58.987Z</time></trkpt><trkpt lat="44.8149181" lon="9.4946483"><ele>297.0</ele><time>2026-03-26T13:55:59.987Z</time></trkpt><trkpt lat="44.8150022" lon="9.4946513"><ele>297.0</ele><time>2026-03-26T13:56:00.986Z</time></trkpt><trkpt lat="44.8150739" lon="9.4946749"><ele>297.0</ele><time>2026-03-26T13:56:01.987Z</time></trkpt><trkpt lat="44.8151408" lon="9.4947201"><ele>297.0</ele><time>2026-03-26T13:56:02.987Z</time></trkpt><trkpt lat="44.8152032" lon="9.4947921"><ele>297.0</ele><time>2026-03-26T13:56:03.986Z</time></trkpt><trkpt lat="44.8152611" lon="9.4948907"><ele>297.0</ele><time>2026-03-26T13:56:04.986Z</time></trkpt><trkpt lat="44.8153231" lon="9.4950153"><ele>297.0</ele><time>2026-03-26T13:56:05.986Z</time></trkpt><trkpt lat="44.8153911" lon="9.4951463"><ele>294.6</ele><time>2026-03-26T13:56:06.987Z</time></trkpt><trkpt lat="44.8154552" lon="9.4952661"><ele>292.2</ele><time>2026-03-26T13:56:07.987Z</time></trkpt><trkpt lat="44.8155131" lon="9.4953722"><ele>289.8</ele><time>2026-03-26T13:56:08.986Z</time></trkpt><trkpt lat="44.8155736" lon="9.4954724"><ele>287.4</ele><time>2026-03-26T13:56:09.987Z</time></trkpt><trkpt lat="44.8156389" lon="9.4955658"><ele>285.0</ele><time>2026-03-26T13:56:10.987Z</time></trkpt><trkpt lat="44.8157034" lon="9.4956451"><ele>285.0</ele><time>2026-03-26T13:56:11.987Z</time></trkpt><trkpt lat="44.815765" lon="9.4957067"><ele>285.0</ele><time>2026-03-26T13:56:12.987Z</time></trkpt><trkpt lat="44.8158217" lon="9.4957617"><ele>285.0</ele><time>2026-03-26T13:56:13.987Z</time></trkpt><trkpt lat="44.81591" lon="9.49586"><ele>285.0</ele><time>2026-03-26T13:56:15.987Z</time></trkpt><trkpt lat="44.8159517" lon="9.49604"><ele>285.0</ele><time>2026-03-26T13:56:17.986Z</time></trkpt><trkpt lat="44.8159717" lon="9.4961317"><ele>283.1666666666667</ele><time>2026-03-26T13:56:18.987Z</time></trkpt><trkpt lat="44.8160017" lon="9.4962267"><ele>281.3333333333333</ele><time>2026-03-26T13:56:19.986Z</time></trkpt><trkpt lat="44.8160267" lon="9.4963333"><ele>279.5</ele><time>2026-03-26T13:56:20.987Z</time></trkpt><trkpt lat="44.8160483" lon="9.4964367"><ele>277.66666666666663</ele><time>2026-03-26T13:56:21.987Z</time></trkpt><trkpt lat="44.8160717" lon="9.496535"><ele>275.8333333333333</ele><time>2026-03-26T13:56:22.986Z</time></trkpt><trkpt lat="44.8161017" lon="9.4966317"><ele>274.0</ele><time>2026-03-26T13:56:23.987Z</time></trkpt><trkpt lat="44.8161367" lon="9.4967233"><ele>274.0</ele><time>2026-03-26T13:56:24.986Z</time></trkpt><trkpt lat="44.8161833" lon="9.4968117"><ele>274.0</ele><time>2026-03-26T13:56:25.988Z</time></trkpt><trkpt lat="44.81623" lon="9.49689"><ele>274.0</ele><time>2026-03-26T13:56:26.99Z</time></trkpt><trkpt lat="44.8162783" lon="9.4969667"><ele>274.0</ele><time>2026-03-26T13:56:27.989Z</time></trkpt><trkpt lat="44.8163233" lon="9.4970383"><ele>274.0</ele><time>2026-03-26T13:56:28.989Z</time></trkpt><trkpt lat="44.8163683" lon="9.4971083"><ele>274.0</ele><time>2026-03-26T13:56:29.99Z</time></trkpt><trkpt lat="44.8164433" lon="9.4972467"><ele>275.3333333333333</ele><time>2026-03-26T13:56:31.989Z</time></trkpt><trkpt lat="44.8165067" lon="9.49737"><ele>276.66666666666663</ele><time>2026-03-26T13:56:33.989Z</time></trkpt><trkpt lat="44.8165567" lon="9.4974667"><ele>278.0</ele><time>2026-03-26T13:56:35.988Z</time></trkpt><trkpt lat="44.8165783" lon="9.497565"><ele>279.3333333333333</ele><time>2026-03-26T13:56:38.988Z</time></trkpt><trkpt lat="44.8165317" lon="9.497705"><ele>280.6666666666667</ele><time>2026-03-26T13:56:41.987Z</time></trkpt><trkpt lat="44.8165133" lon="9.497805"><ele>282.0</ele><time>2026-03-26T13:56:42.986Z</time></trkpt><trkpt lat="44.816505" lon="9.49793"><ele>282.6</ele><time>2026-03-26T13:56:43.988Z</time></trkpt><trkpt lat="44.8165" lon="9.4980483"><ele>283.2</ele><time>2026-03-26T13:56:44.988Z</time></trkpt><trkpt lat="44.8164933" lon="9.498165"><ele>283.8</ele><time>2026-03-26T13:56:45.987Z</time></trkpt><trkpt lat="44.8164733" lon="9.4983"><ele>284.4</ele><time>2026-03-26T13:56:46.986Z</time></trkpt><trkpt lat="44.8164483" lon="9.498445"><ele>285.0</ele><time>2026-03-26T13:56:47.986Z</time></trkpt><trkpt lat="44.8164233" lon="9.4985733"><ele>285.0</ele><time>2026-03-26T13:56:48.987Z</time></trkpt><trkpt lat="44.8164" lon="9.4986817"><ele>285.0</ele><time>2026-03-26T13:56:49.986Z</time></trkpt><trkpt lat="44.8163817" lon="9.498795"><ele>285.0</ele><time>2026-03-26T13:56:50.986Z</time></trkpt><trkpt lat="44.816365" lon="9.4989317"><ele>285.0</ele><time>2026-03-26T13:56:51.987Z</time></trkpt><trkpt lat="44.8163533" lon="9.4990817"><ele>285.0</ele><time>2026-03-26T13:56:52.986Z</time></trkpt><trkpt lat="44.81634" lon="9.4992217"><ele>285.8333333333333</ele><time>2026-03-26T13:56:53.985Z</time></trkpt><trkpt lat="44.8163167" lon="9.4993533"><ele>286.6666666666667</ele><time>2026-03-26T13:56:54.987Z</time></trkpt><trkpt lat="44.81629" lon="9.4994717"><ele>287.5</ele><time>2026-03-26T13:56:55.986Z</time></trkpt><trkpt lat="44.816265" lon="9.4995683"><ele>288.33333333333337</ele><time>2026-03-26T13:56:56.987Z</time></trkpt><trkpt lat="44.8162383" lon="9.49965"><ele>289.1666666666667</ele><time>2026-03-26T13:56:57.987Z</time></trkpt><trkpt lat="44.8162017" lon="9.4997783"><ele>290.0</ele><time>2026-03-26T13:56:59.987Z</time></trkpt><trkpt lat="44.8162033" lon="9.4998683"><ele>291.0</ele><time>2026-03-26T13:57:01.989Z</time></trkpt><trkpt lat="44.8162783" lon="9.4999567"><ele>292.0</ele><time>2026-03-26T13:57:03.988Z</time></trkpt><trkpt lat="44.8163483" lon="9.5000367"><ele>293.0</ele><time>2026-03-26T13:57:05.989Z</time></trkpt><trkpt lat="44.8163483" lon="9.500155"><ele>294.0</ele><time>2026-03-26T13:57:07.987Z</time></trkpt><trkpt lat="44.81631" lon="9.5003"><ele>295.0</ele><time>2026-03-26T13:57:09.986Z</time></trkpt><trkpt lat="44.8163317" lon="9.5004667"><ele>292.8</ele><time>2026-03-26T13:57:11.987Z</time></trkpt><trkpt lat="44.8163583" lon="9.5005533"><ele>290.6</ele><time>2026-03-26T13:57:12.986Z</time></trkpt><trkpt lat="44.8164" lon="9.5006317"><ele>288.4</ele><time>2026-03-26T13:57:13.988Z</time></trkpt><trkpt lat="44.8164883" lon="9.5007467"><ele>286.2</ele><time>2026-03-26T13:57:15.987Z</time></trkpt><trkpt lat="44.81656" lon="9.5008617"><ele>284.0</ele><time>2026-03-26T13:57:17.988Z</time></trkpt><trkpt lat="44.816605" lon="9.5010017"><ele>284.0</ele><time>2026-03-26T13:57:19.987Z</time></trkpt><trkpt lat="44.8166083" lon="9.5011"><ele>284.0</ele><time>2026-03-26T13:57:20.987Z</time></trkpt><trkpt lat="44.8165967" lon="9.501205"><ele>284.0</ele><time>2026-03-26T13:57:21.987Z</time></trkpt><trkpt lat="44.8165817" lon="9.5013117"><ele>284.0</ele><time>2026-03-26T13:57:22.986Z</time></trkpt><trkpt lat="44.81657" lon="9.50142"><ele>284.0</ele><time>2026-03-26T13:57:23.986Z</time></trkpt><trkpt lat="44.8165667" lon="9.5015467"><ele>284.0</ele><time>2026-03-26T13:57:24.985Z</time></trkpt><trkpt lat="44.8165683" lon="9.50166"><ele>280.83333333333337</ele><time>2026-03-26T13:57:25.986Z</time></trkpt><trkpt lat="44.816575" lon="9.50176"><ele>277.6666666666667</ele><time>2026-03-26T13:57:26.988Z</time></trkpt><trkpt lat="44.8165767" lon="9.5018517"><ele>274.5</ele><time>2026-03-26T13:57:27.987Z</time></trkpt><trkpt lat="44.8165833" lon="9.50201"><ele>271.3333333333333</ele><time>2026-03-26T13:57:29.987Z</time></trkpt><trkpt lat="44.8165667" lon="9.50211"><ele>268.16666666666663</ele><time>2026-03-26T13:57:31.986Z</time></trkpt><trkpt lat="44.8166483" lon="9.5021567"><ele>265.0</ele><time>2026-03-26T13:57:34.987Z</time></trkpt><trkpt lat="44.8167217" lon="9.5022133"><ele>260.8</ele><time>2026-03-26T13:57:36.986Z</time></trkpt><trkpt lat="44.8167233" lon="9.5023483"><ele>256.6</ele><time>2026-03-26T13:57:38.987Z</time></trkpt><trkpt lat="44.816665" lon="9.502495"><ele>252.39999999999998</ele><time>2026-03-26T13:57:40.989Z</time></trkpt><trkpt lat="44.816605" lon="9.5026"><ele>248.2</ele><time>2026-03-26T13:57:42.986Z</time></trkpt><trkpt lat="44.8165667" lon="9.5027167"><ele>244.0</ele><time>2026-03-26T13:57:44.988Z</time></trkpt><trkpt lat="44.81653" lon="9.5028617"><ele>240.79999999999998</ele><time>2026-03-26T13:57:46.987Z</time></trkpt><trkpt lat="44.81647" lon="9.5030083"><ele>237.59999999999997</ele><time>2026-03-26T13:57:48.986Z</time></trkpt><trkpt lat="44.81642" lon="9.5030967"><ele>234.4</ele><time>2026-03-26T13:57:49.989Z</time></trkpt><trkpt lat="44.8163633" lon="9.503175"><ele>231.2</ele><time>2026-03-26T13:57:50.988Z</time></trkpt><trkpt lat="44.81631" lon="9.5032383"><ele>228.0</ele><time>2026-03-26T13:57:51.988Z</time></trkpt><trkpt lat="44.8162217" lon="9.5033483"><ele>228.0</ele><time>2026-03-26T13:57:53.987Z</time></trkpt><trkpt lat="44.81619" lon="9.5034867"><ele>228.0</ele><time>2026-03-26T13:57:55.986Z</time></trkpt><trkpt lat="44.81623" lon="9.5036533"><ele>228.0</ele><time>2026-03-26T13:57:57.987Z</time></trkpt><trkpt lat="44.816265" lon="9.5037317"><ele>228.0</ele><time>2026-03-26T13:57:58.987Z</time></trkpt><trkpt lat="44.8162983" lon="9.5038183"><ele>228.0</ele><time>2026-03-26T13:57:59.987Z</time></trkpt><trkpt lat="44.816335" lon="9.5039083"><ele>228.0</ele><time>2026-03-26T13:58:00.987Z</time></trkpt><trkpt lat="44.8163683" lon="9.5039967"><ele>226.0</ele><time>2026-03-26T13:58:01.987Z</time></trkpt><trkpt lat="44.8164383" lon="9.50412"><ele>224.0</ele><time>2026-03-26T13:58:03.987Z</time></trkpt><trkpt lat="44.816485" lon="9.504185"><ele>222.0</ele><time>2026-03-26T13:58:05.987Z</time></trkpt><trkpt lat="44.816555" lon="9.5042133"><ele>220.0</ele><time>2026-03-26T13:58:07.987Z</time></trkpt><trkpt lat="44.8166183" lon="9.504205"><ele>218.0</ele><time>2026-03-26T13:58:08.988Z</time></trkpt><trkpt lat="44.8167" lon="9.5041783"><ele>216.0</ele><time>2026-03-26T13:58:09.987Z</time></trkpt><trkpt lat="44.8168033" lon="9.50413"><ele>215.8</ele><time>2026-03-26T13:58:10.987Z</time></trkpt><trkpt lat="44.8169033" lon="9.5040567"><ele>215.60000000000002</ele><time>2026-03-26T13:58:11.987Z</time></trkpt><trkpt lat="44.8169883" lon="9.50397"><ele>215.4</ele><time>2026-03-26T13:58:12.987Z</time></trkpt><trkpt lat="44.81706" lon="9.50388"><ele>215.2</ele><time>2026-03-26T13:58:13.985Z</time></trkpt><trkpt lat="44.8171233" lon="9.5037933"><ele>215.0</ele><time>2026-03-26T13:58:14.987Z</time></trkpt><trkpt lat="44.81718" lon="9.5037033"><ele>215.00000000000003</ele><time>2026-03-26T13:58:15.986Z</time></trkpt><trkpt lat="44.81724" lon="9.5036283"><ele>215.0</ele><time>2026-03-26T13:58:16.986Z</time></trkpt><trkpt lat="44.8173017" lon="9.503565"><ele>215.0</ele><time>2026-03-26T13:58:17.986Z</time></trkpt><trkpt lat="44.81737" lon="9.5035033"><ele>215.0</ele><time>2026-03-26T13:58:18.987Z</time></trkpt><trkpt lat="44.81745" lon="9.50344"><ele>215.00000000000003</ele><time>2026-03-26T13:58:19.987Z</time></trkpt><trkpt lat="44.8175283" lon="9.5033767"><ele>215.0</ele><time>2026-03-26T13:58:20.988Z</time></trkpt><trkpt lat="44.8176033" lon="9.5033117"><ele>214.66666666666669</ele><time>2026-03-26T13:58:21.987Z</time></trkpt><trkpt lat="44.817675" lon="9.5032467"><ele>214.33333333333334</ele><time>2026-03-26T13:58:22.987Z</time></trkpt><trkpt lat="44.81774" lon="9.5031833"><ele>214.0</ele><time>2026-03-26T13:58:23.987Z</time></trkpt><trkpt lat="44.8178067" lon="9.5031083"><ele>213.66666666666669</ele><time>2026-03-26T13:58:24.987Z</time></trkpt><trkpt lat="44.8178717" lon="9.50303"><ele>213.33333333333334</ele><time>2026-03-26T13:58:25.987Z</time></trkpt><trkpt lat="44.81794" lon="9.5029533"><ele>213.0</ele><time>2026-03-26T13:58:26.989Z</time></trkpt><trkpt lat="44.8180117" lon="9.50288"><ele>213.0</ele><time>2026-03-26T13:58:27.987Z</time></trkpt><trkpt lat="44.8180917" lon="9.502815"><ele>213.0</ele><time>2026-03-26T13:58:28.987Z</time></trkpt><trkpt lat="44.8181783" lon="9.502755"><ele>213.0</ele><time>2026-03-26T13:58:29.987Z</time></trkpt><trkpt lat="44.8182767" lon="9.502705"><ele>213.0</ele><time>2026-03-26T13:58:30.987Z</time></trkpt><trkpt lat="44.818385" lon="9.502655"><ele>213.0</ele><time>2026-03-26T13:58:31.987Z</time></trkpt><trkpt lat="44.8184967" lon="9.502605"><ele>211.75</ele><time>2026-03-26T13:58:32.988Z</time></trkpt><trkpt lat="44.8186133" lon="9.5025467"><ele>210.5</ele><time>2026-03-26T13:58:33.986Z</time></trkpt><trkpt lat="44.8187433" lon="9.5024817"><ele>209.25</ele><time>2026-03-26T13:58:34.987Z</time></trkpt><trkpt lat="44.818875" lon="9.502415"><ele>208.0</ele><time>2026-03-26T13:58:35.987Z</time></trkpt><trkpt lat="44.8189933" lon="9.5023467"><ele>208.0</ele><time>2026-03-26T13:58:36.987Z</time></trkpt><trkpt lat="44.8191" lon="9.5022833"><ele>208.0</ele><time>2026-03-26T13:58:37.988Z</time></trkpt><trkpt lat="44.819195" lon="9.50222"><ele>208.0</ele><time>2026-03-26T13:58:38.987Z</time></trkpt><trkpt lat="44.81928" lon="9.5021683"><ele>208.0</ele><time>2026-03-26T13:58:39.987Z</time></trkpt><trkpt lat="44.81936" lon="9.5021367"><ele>208.0</ele><time>2026-03-26T13:58:40.987Z</time></trkpt><trkpt lat="44.81943" lon="9.50213"><ele>207.49999999999997</ele><time>2026-03-26T13:58:41.988Z</time></trkpt><trkpt lat="44.8194933" lon="9.5021533"><ele>207.0</ele><time>2026-03-26T13:58:42.987Z</time></trkpt><trkpt lat="44.8195433" lon="9.5022083"><ele>206.5</ele><time>2026-03-26T13:58:43.987Z</time></trkpt><trkpt lat="44.8195867" lon="9.50229"><ele>206.0</ele><time>2026-03-26T13:58:44.987Z</time></trkpt><trkpt lat="44.81963" lon="9.5023967"><ele>205.49999999999997</ele><time>2026-03-26T13:58:45.986Z</time></trkpt><trkpt lat="44.8196717" lon="9.50251"><ele>205.0</ele><time>2026-03-26T13:58:46.986Z</time></trkpt><trkpt lat="44.8197117" lon="9.5026183"><ele>204.99999999999997</ele><time>2026-03-26T13:58:47.987Z</time></trkpt><trkpt lat="44.8197483" lon="9.5027133"><ele>205.0</ele><time>2026-03-26T13:58:48.988Z</time></trkpt><trkpt lat="44.8197833" lon="9.5028067"><ele>205.0</ele><time>2026-03-26T13:58:49.987Z</time></trkpt><trkpt lat="44.8198233" lon="9.5029083"><ele>205.0</ele><time>2026-03-26T13:58:50.987Z</time></trkpt><trkpt lat="44.8198633" lon="9.5030183"><ele>204.99999999999997</ele><time>2026-03-26T13:58:51.987Z</time></trkpt><trkpt lat="44.8199017" lon="9.5031283"><ele>205.0</ele><time>2026-03-26T13:58:52.986Z</time></trkpt><trkpt lat="44.8199367" lon="9.5032283"><ele>204.8</ele><time>2026-03-26T13:58:53.989Z</time></trkpt><trkpt lat="44.8199733" lon="9.5033167"><ele>204.6</ele><time>2026-03-26T13:58:54.989Z</time></trkpt><trkpt lat="44.8200717" lon="9.5034017"><ele>204.39999999999998</ele><time>2026-03-26T13:58:56.987Z</time></trkpt><trkpt lat="44.820205" lon="9.503335"><ele>204.2</ele><time>2026-03-26T13:58:58.987Z</time></trkpt><trkpt lat="44.8202967" lon="9.50327"><ele>204.0</ele><time>2026-03-26T13:58:59.989Z</time></trkpt><trkpt lat="44.8204" lon="9.50319"><ele>202.5</ele><time>2026-03-26T13:59:00.987Z</time></trkpt><trkpt lat="44.8205083" lon="9.5031067"><ele>201.0</ele><time>2026-03-26T13:59:01.988Z</time></trkpt><trkpt lat="44.8206217" lon="9.5030267"><ele>199.5</ele><time>2026-03-26T13:59:02.99Z</time></trkpt><trkpt lat="44.8207417" lon="9.5029517"><ele>198.0</ele><time>2026-03-26T13:59:03.99Z</time></trkpt><trkpt lat="44.82086" lon="9.5028817"><ele>198.0</ele><time>2026-03-26T13:59:04.987Z</time></trkpt><trkpt lat="44.8209717" lon="9.5028133"><ele>198.0</ele><time>2026-03-26T13:59:05.987Z</time></trkpt><trkpt lat="44.82108" lon="9.502755"><ele>198.0</ele><time>2026-03-26T13:59:06.986Z</time></trkpt><trkpt lat="44.8211983" lon="9.5027"><ele>198.0</ele><time>2026-03-26T13:59:07.987Z</time></trkpt><trkpt lat="44.8213233" lon="9.50263"><ele>197.2</ele><time>2026-03-26T13:59:08.987Z</time></trkpt><trkpt lat="44.82144" lon="9.502555"><ele>196.4</ele><time>2026-03-26T13:59:09.987Z</time></trkpt><trkpt lat="44.8215417" lon="9.5024867"><ele>195.6</ele><time>2026-03-26T13:59:10.987Z</time></trkpt><trkpt lat="44.8216283" lon="9.5024217"><ele>194.79999999999998</ele><time>2026-03-26T13:59:11.986Z</time></trkpt><trkpt lat="44.8217067" lon="9.5023633"><ele>194.0</ele><time>2026-03-26T13:59:12.987Z</time></trkpt><trkpt lat="44.8217733" lon="9.502315"><ele>193.66666666666669</ele><time>2026-03-26T13:59:13.988Z</time></trkpt><trkpt lat="44.82183" lon="9.502265"><ele>193.33333333333334</ele><time>2026-03-26T13:59:14.988Z</time></trkpt><trkpt lat="44.8219" lon="9.502175"><ele>193.0</ele><time>2026-03-26T13:59:16.987Z</time></trkpt><trkpt lat="44.82191" lon="9.5020383"><ele>192.66666666666669</ele><time>2026-03-26T13:59:21.986Z</time></trkpt><trkpt lat="44.82188" lon="9.5019517"><ele>192.33333333333334</ele><time>2026-03-26T13:59:22.987Z</time></trkpt><trkpt lat="44.8218317" lon="9.5018633"><ele>192.0</ele><time>2026-03-26T13:59:23.987Z</time></trkpt><trkpt lat="44.8217733" lon="9.5017717"><ele>192.0</ele><time>2026-03-26T13:59:24.987Z</time></trkpt><trkpt lat="44.8217067" lon="9.501675"><ele>192.0</ele><time>2026-03-26T13:59:25.988Z</time></trkpt><trkpt lat="44.82163" lon="9.5015667"><ele>192.0</ele><time>2026-03-26T13:59:26.987Z</time></trkpt><trkpt lat="44.8215333" lon="9.501425"><ele>192.0</ele><time>2026-03-26T13:59:27.987Z</time></trkpt><trkpt lat="44.82143" lon="9.5012517"><ele>191.0</ele><time>2026-03-26T13:59:28.987Z</time></trkpt><trkpt lat="44.821325" lon="9.50105"><ele>190.0</ele><time>2026-03-26T13:59:29.988Z</time></trkpt><trkpt lat="44.8212233" lon="9.5008367"><ele>189.0</ele><time>2026-03-26T13:59:30.987Z</time></trkpt><trkpt lat="44.82113" lon="9.5006233"><ele>188.33333333333334</ele><time>2026-03-26T13:59:31.987Z</time></trkpt><trkpt lat="44.8210517" lon="9.5004133"><ele>187.66666666666669</ele><time>2026-03-26T13:59:32.987Z</time></trkpt><trkpt lat="44.820985" lon="9.50021"><ele>187.0</ele><time>2026-03-26T13:59:33.986Z</time></trkpt><trkpt lat="44.820925" lon="9.50001"><ele>189.0</ele><time>2026-03-26T13:59:34.987Z</time></trkpt><trkpt lat="44.8208683" lon="9.4998117"><ele>191.0</ele><time>2026-03-26T13:59:35.988Z</time></trkpt><trkpt lat="44.820815" lon="9.4996117"><ele>193.0</ele><time>2026-03-26T13:59:36.987Z</time></trkpt><trkpt lat="44.820765" lon="9.49941"><ele>193.0</ele><time>2026-03-26T13:59:37.988Z</time></trkpt><trkpt lat="44.8207167" lon="9.4992117"><ele>193.0</ele><time>2026-03-26T13:59:38.988Z</time></trkpt><trkpt lat="44.820665" lon="9.4990167"><ele>193.0</ele><time>2026-03-26T13:59:39.986Z</time></trkpt><trkpt lat="44.820615" lon="9.4988217"><ele>193.0</ele><time>2026-03-26T13:59:40.987Z</time></trkpt><trkpt lat="44.8205667" lon="9.4986283"><ele>192.75</ele><time>2026-03-26T13:59:41.988Z</time></trkpt><trkpt lat="44.8205183" lon="9.4984333"><ele>192.5</ele><time>2026-03-26T13:59:42.986Z</time></trkpt><trkpt lat="44.8204717" lon="9.4982467"><ele>192.25</ele><time>2026-03-26T13:59:43.99Z</time></trkpt><trkpt lat="44.8204283" lon="9.4980783"><ele>192.0</ele><time>2026-03-26T13:59:44.988Z</time></trkpt><trkpt lat="44.8203883" lon="9.497925"><ele>191.83333333333334</ele><time>2026-03-26T13:59:45.987Z</time></trkpt><trkpt lat="44.8203517" lon="9.4977817"><ele>191.66666666666666</ele><time>2026-03-26T13:59:46.986Z</time></trkpt><trkpt lat="44.82032" lon="9.49765"><ele>191.5</ele><time>2026-03-26T13:59:47.987Z</time></trkpt><trkpt lat="44.8203033" lon="9.4975317"><ele>191.33333333333331</ele><time>2026-03-26T13:59:48.987Z</time></trkpt><trkpt lat="44.8203033" lon="9.49742"><ele>191.16666666666666</ele><time>2026-03-26T13:59:49.987Z</time></trkpt><trkpt lat="44.8203317" lon="9.4973217"><ele>191.0</ele><time>2026-03-26T13:59:50.987Z</time></trkpt><trkpt lat="44.8203817" lon="9.4972367"><ele>191.0</ele><time>2026-03-26T13:59:51.988Z</time></trkpt><trkpt lat="44.8204617" lon="9.49716"><ele>191.0</ele><time>2026-03-26T13:59:52.988Z</time></trkpt><trkpt lat="44.8205683" lon="9.4970883"><ele>191.0</ele><time>2026-03-26T13:59:53.987Z</time></trkpt><trkpt lat="44.8206833" lon="9.497015"><ele>191.0</ele><time>2026-03-26T13:59:54.988Z</time></trkpt><trkpt lat="44.8208" lon="9.49694"><ele>191.0</ele><time>2026-03-26T13:59:55.989Z</time></trkpt><trkpt lat="44.8209133" lon="9.4968633"><ele>191.0</ele><time>2026-03-26T13:59:56.987Z</time></trkpt><trkpt lat="44.82103" lon="9.49679"><ele>191.0</ele><time>2026-03-26T13:59:57.989Z</time></trkpt><trkpt lat="44.821145" lon="9.4967133"><ele>191.0</ele><time>2026-03-26T13:59:58.987Z</time></trkpt><trkpt lat="44.8212617" lon="9.496635"><ele>191.75</ele><time>2026-03-26T13:59:59.988Z</time></trkpt><trkpt lat="44.8213783" lon="9.496555"><ele>192.5</ele><time>2026-03-26T14:00:00.988Z</time></trkpt><trkpt lat="44.8214917" lon="9.4964767"><ele>193.25</ele><time>2026-03-26T14:00:01.988Z</time></trkpt><trkpt lat="44.8215967" lon="9.496405"><ele>194.0</ele><time>2026-03-26T14:00:02.989Z</time></trkpt><trkpt lat="44.8216917" lon="9.4963433"><ele>194.0</ele><time>2026-03-26T14:00:03.988Z</time></trkpt><trkpt lat="44.8217783" lon="9.4962883"><ele>194.0</ele><time>2026-03-26T14:00:04.988Z</time></trkpt><trkpt lat="44.8218633" lon="9.49625"><ele>194.0</ele><time>2026-03-26T14:00:05.989Z</time></trkpt><trkpt lat="44.8219517" lon="9.4962417"><ele>194.0</ele><time>2026-03-26T14:00:06.988Z</time></trkpt><trkpt lat="44.8220483" lon="9.496265"><ele>194.0</ele><time>2026-03-26T14:00:07.987Z</time></trkpt><trkpt lat="44.8221567" lon="9.4963117"><ele>194.0</ele><time>2026-03-26T14:00:08.989Z</time></trkpt><trkpt lat="44.822275" lon="9.4963717"><ele>194.0</ele><time>2026-03-26T14:00:09.988Z</time></trkpt><trkpt lat="44.822405" lon="9.4964333"><ele>194.0</ele><time>2026-03-26T14:00:10.988Z</time></trkpt><trkpt lat="44.8225367" lon="9.496495"><ele>194.0</ele><time>2026-03-26T14:00:11.988Z</time></trkpt><trkpt lat="44.8226633" lon="9.4965533"><ele>194.0</ele><time>2026-03-26T14:00:12.988Z</time></trkpt><trkpt lat="44.8227833" lon="9.4966"><ele>194.0</ele><time>2026-03-26T14:00:13.987Z</time></trkpt><trkpt lat="44.8229033" lon="9.4966233"><ele>194.0</ele><time>2026-03-26T14:00:14.987Z</time></trkpt><trkpt lat="44.82303" lon="9.4966167"><ele>194.0</ele><time>2026-03-26T14:00:15.986Z</time></trkpt><trkpt lat="44.8231633" lon="9.4965783"><ele>194.0</ele><time>2026-03-26T14:00:16.989Z</time></trkpt><trkpt lat="44.8232917" lon="9.4965117"><ele>194.0</ele><time>2026-03-26T14:00:17.988Z</time></trkpt><trkpt lat="44.823415" lon="9.4964367"><ele>194.0</ele><time>2026-03-26T14:00:18.988Z</time></trkpt><trkpt lat="44.8235333" lon="9.4963667"><ele>194.0</ele><time>2026-03-26T14:00:19.988Z</time></trkpt><trkpt lat="44.8236467" lon="9.4963133"><ele>195.0</ele><time>2026-03-26T14:00:20.989Z</time></trkpt><trkpt lat="44.823755" lon="9.49629"><ele>196.0</ele><time>2026-03-26T14:00:21.989Z</time></trkpt><trkpt lat="44.8238633" lon="9.496295"><ele>197.0</ele><time>2026-03-26T14:00:22.988Z</time></trkpt><trkpt lat="44.8239667" lon="9.496335"><ele>198.0</ele><time>2026-03-26T14:00:23.989Z</time></trkpt><trkpt lat="44.8240683" lon="9.4964117"><ele>199.0</ele><time>2026-03-26T14:00:24.988Z</time></trkpt><trkpt lat="44.8241667" lon="9.49652"><ele>199.0</ele><time>2026-03-26T14:00:25.988Z</time></trkpt><trkpt lat="44.8242633" lon="9.4966433"><ele>199.0</ele><time>2026-03-26T14:00:26.988Z</time></trkpt><trkpt lat="44.8243567" lon="9.4967717"><ele>199.0</ele><time>2026-03-26T14:00:27.988Z</time></trkpt><trkpt lat="44.8244483" lon="9.4968983"><ele>199.0</ele><time>2026-03-26T14:00:28.987Z</time></trkpt><trkpt lat="44.824535" lon="9.497015"><ele>202.0</ele><time>2026-03-26T14:00:29.988Z</time></trkpt><trkpt lat="44.82461" lon="9.497115"><ele>205.0</ele><time>2026-03-26T14:00:30.991Z</time></trkpt><trkpt lat="44.8246767" lon="9.4972"><ele>207.99999999999997</ele><time>2026-03-26T14:00:31.989Z</time></trkpt><trkpt lat="44.8247267" lon="9.49726"><ele>211.0</ele><time>2026-03-26T14:00:32.989Z</time></trkpt><trkpt lat="44.82482" lon="9.4973117"><ele>214.0</ele><time>2026-03-26T14:00:34.988Z</time></trkpt><trkpt lat="44.82495" lon="9.49728"><ele>213.99999999999997</ele><time>2026-03-26T14:00:36.99Z</time></trkpt><trkpt lat="44.8250183" lon="9.4972717"><ele>214.0</ele><time>2026-03-26T14:00:37.989Z</time></trkpt><trkpt lat="44.82512" lon="9.497345"><ele>214.0</ele><time>2026-03-26T14:00:39.988Z</time></trkpt><trkpt lat="44.825145" lon="9.497435"><ele>214.0</ele><time>2026-03-26T14:00:40.987Z</time></trkpt><trkpt lat="44.8251817" lon="9.4975367"><ele>213.99999999999997</ele><time>2026-03-26T14:00:41.988Z</time></trkpt><trkpt lat="44.825235" lon="9.4976417"><ele>214.0</ele><time>2026-03-26T14:00:42.987Z</time></trkpt><trkpt lat="44.82531" lon="9.4977367"><ele>217.2</ele><time>2026-03-26T14:00:43.988Z</time></trkpt><trkpt lat="44.8254067" lon="9.4978117"><ele>220.39999999999998</ele><time>2026-03-26T14:00:44.988Z</time></trkpt><trkpt lat="44.8255017" lon="9.4978783"><ele>223.6</ele><time>2026-03-26T14:00:45.988Z</time></trkpt><trkpt lat="44.8255833" lon="9.4979383"><ele>226.8</ele><time>2026-03-26T14:00:46.987Z</time></trkpt><trkpt lat="44.8256633" lon="9.497995"><ele>230.0</ele><time>2026-03-26T14:00:47.987Z</time></trkpt><trkpt lat="44.8257533" lon="9.498055"><ele>230.50000000000003</ele><time>2026-03-26T14:00:48.987Z</time></trkpt><trkpt lat="44.8258433" lon="9.498105"><ele>231.0</ele><time>2026-03-26T14:00:49.989Z</time></trkpt><trkpt lat="44.8259267" lon="9.4981433"><ele>231.5</ele><time>2026-03-26T14:00:50.988Z</time></trkpt><trkpt lat="44.8260067" lon="9.4981717"><ele>232.0</ele><time>2026-03-26T14:00:51.986Z</time></trkpt><trkpt lat="44.8260833" lon="9.49818"><ele>232.50000000000003</ele><time>2026-03-26T14:00:52.987Z</time></trkpt><trkpt lat="44.82616" lon="9.4981733"><ele>233.0</ele><time>2026-03-26T14:00:53.987Z</time></trkpt><trkpt lat="44.8262383" lon="9.4981417"><ele>235.2</ele><time>2026-03-26T14:00:54.987Z</time></trkpt><trkpt lat="44.82633" lon="9.49809"><ele>237.4</ele><time>2026-03-26T14:00:55.987Z</time></trkpt><trkpt lat="44.8264283" lon="9.4980133"><ele>239.59999999999997</ele><time>2026-03-26T14:00:56.988Z</time></trkpt><trkpt lat="44.8265283" lon="9.4979267"><ele>241.79999999999998</ele><time>2026-03-26T14:00:57.986Z</time></trkpt><trkpt lat="44.8266217" lon="9.4978417"><ele>244.0</ele><time>2026-03-26T14:00:58.987Z</time></trkpt><trkpt lat="44.8267117" lon="9.4977667"><ele>244.0</ele><time>2026-03-26T14:00:59.988Z</time></trkpt><trkpt lat="44.82681" lon="9.4977033"><ele>244.0</ele><time>2026-03-26T14:01:00.987Z</time></trkpt><trkpt lat="44.826925" lon="9.4976567"><ele>244.0</ele><time>2026-03-26T14:01:01.987Z</time></trkpt><trkpt lat="44.82704" lon="9.49761"><ele>244.0</ele><time>2026-03-26T14:01:02.989Z</time></trkpt><trkpt lat="44.827135" lon="9.49755"><ele>245.79999999999998</ele><time>2026-03-26T14:01:03.987Z</time></trkpt><trkpt lat="44.82721" lon="9.497465"><ele>247.59999999999997</ele><time>2026-03-26T14:01:04.987Z</time></trkpt><trkpt lat="44.82728" lon="9.4973617"><ele>249.4</ele><time>2026-03-26T14:01:05.987Z</time></trkpt><trkpt lat="44.8273533" lon="9.4972533"><ele>251.2</ele><time>2026-03-26T14:01:06.987Z</time></trkpt><trkpt lat="44.8274367" lon="9.4971567"><ele>253.0</ele><time>2026-03-26T14:01:07.988Z</time></trkpt><trkpt lat="44.8275283" lon="9.497085"><ele>253.0</ele><time>2026-03-26T14:01:08.987Z</time></trkpt><trkpt lat="44.8276283" lon="9.497045"><ele>253.0</ele><time>2026-03-26T14:01:09.986Z</time></trkpt><trkpt lat="44.8277367" lon="9.4970117"><ele>253.0</ele><time>2026-03-26T14:01:10.988Z</time></trkpt><trkpt lat="44.8278467" lon="9.4969833"><ele>253.0</ele><time>2026-03-26T14:01:11.987Z</time></trkpt><trkpt lat="44.82795" lon="9.4969583"><ele>253.0</ele><time>2026-03-26T14:01:12.987Z</time></trkpt><trkpt lat="44.82804" lon="9.4969533"><ele>255.4</ele><time>2026-03-26T14:01:13.987Z</time></trkpt><trkpt lat="44.8281117" lon="9.4969767"><ele>257.8</ele><time>2026-03-26T14:01:14.987Z</time></trkpt><trkpt lat="44.8281717" lon="9.497045"><ele>260.2</ele><time>2026-03-26T14:01:15.987Z</time></trkpt><trkpt lat="44.8282233" lon="9.4971533"><ele>262.6</ele><time>2026-03-26T14:01:16.988Z</time></trkpt><trkpt lat="44.8282583" lon="9.4972967"><ele>265.0</ele><time>2026-03-26T14:01:17.988Z</time></trkpt><trkpt lat="44.8282817" lon="9.49744"><ele>265.3333333333333</ele><time>2026-03-26T14:01:18.988Z</time></trkpt><trkpt lat="44.8282967" lon="9.4975783"><ele>265.66666666666663</ele><time>2026-03-26T14:01:19.988Z</time></trkpt><trkpt lat="44.8283117" lon="9.497705"><ele>266.0</ele><time>2026-03-26T14:01:20.988Z</time></trkpt><trkpt lat="44.8283333" lon="9.4978167"><ele>266.3333333333333</ele><time>2026-03-26T14:01:21.988Z</time></trkpt><trkpt lat="44.828375" lon="9.4979167"><ele>266.6666666666667</ele><time>2026-03-26T14:01:22.987Z</time></trkpt><trkpt lat="44.8284367" lon="9.498"><ele>267.0</ele><time>2026-03-26T14:01:23.988Z</time></trkpt><trkpt lat="44.82852" lon="9.4980717"><ele>267.6666666666667</ele><time>2026-03-26T14:01:24.988Z</time></trkpt><trkpt lat="44.8286067" lon="9.4981417"><ele>268.3333333333333</ele><time>2026-03-26T14:01:25.988Z</time></trkpt><trkpt lat="44.8286867" lon="9.4982017"><ele>269.0</ele><time>2026-03-26T14:01:26.988Z</time></trkpt><trkpt lat="44.828765" lon="9.4982383"><ele>269.66666666666663</ele><time>2026-03-26T14:01:27.988Z</time></trkpt><trkpt lat="44.8288417" lon="9.4982517"><ele>270.3333333333333</ele><time>2026-03-26T14:01:28.986Z</time></trkpt><trkpt lat="44.8289183" lon="9.49823"><ele>271.0</ele><time>2026-03-26T14:01:29.988Z</time></trkpt><trkpt lat="44.8290033" lon="9.498185"><ele>271.0</ele><time>2026-03-26T14:01:30.988Z</time></trkpt><trkpt lat="44.8290983" lon="9.49813"><ele>271.0</ele><time>2026-03-26T14:01:31.989Z</time></trkpt><trkpt lat="44.8291983" lon="9.4980633"><ele>271.0</ele><time>2026-03-26T14:01:32.989Z</time></trkpt><trkpt lat="44.8293" lon="9.4979883"><ele>271.0</ele><time>2026-03-26T14:01:33.988Z</time></trkpt><trkpt lat="44.8294067" lon="9.4979217"><ele>271.0</ele><time>2026-03-26T14:01:34.988Z</time></trkpt><trkpt lat="44.82952" lon="9.4978467"><ele>273.75</ele><time>2026-03-26T14:01:35.988Z</time></trkpt><trkpt lat="44.8296367" lon="9.4977583"><ele>276.5</ele><time>2026-03-26T14:01:36.988Z</time></trkpt><trkpt lat="44.829745" lon="9.4976767"><ele>279.25</ele><time>2026-03-26T14:01:37.988Z</time></trkpt><trkpt lat="44.8298567" lon="9.4976033"><ele>282.0</ele><time>2026-03-26T14:01:38.989Z</time></trkpt><trkpt lat="44.8299633" lon="9.4975283"><ele>282.0</ele><time>2026-03-26T14:01:39.988Z</time></trkpt><trkpt lat="44.8300717" lon="9.49745"><ele>282.0</ele><time>2026-03-26T14:01:40.988Z</time></trkpt><trkpt lat="44.8301783" lon="9.4973717"><ele>282.0</ele><time>2026-03-26T14:01:41.986Z</time></trkpt><trkpt lat="44.83027" lon="9.4972933"><ele>282.0</ele><time>2026-03-26T14:01:42.987Z</time></trkpt><trkpt lat="44.830345" lon="9.4972067"><ele>282.0</ele><time>2026-03-26T14:01:43.986Z</time></trkpt><trkpt lat="44.8304067" lon="9.49711"><ele>284.3333333333333</ele><time>2026-03-26T14:01:44.988Z</time></trkpt><trkpt lat="44.8304533" lon="9.4969933"><ele>286.6666666666667</ele><time>2026-03-26T14:01:45.987Z</time></trkpt><trkpt lat="44.83048" lon="9.4968667"><ele>289.0</ele><time>2026-03-26T14:01:46.987Z</time></trkpt><trkpt lat="44.8304967" lon="9.4967367"><ele>291.33333333333337</ele><time>2026-03-26T14:01:47.987Z</time></trkpt><trkpt lat="44.83052" lon="9.4966233"><ele>293.6666666666667</ele><time>2026-03-26T14:01:48.986Z</time></trkpt><trkpt lat="44.8305517" lon="9.49653"><ele>296.0</ele><time>2026-03-26T14:01:49.986Z</time></trkpt><trkpt lat="44.8306" lon="9.49647"><ele>296.0</ele><time>2026-03-26T14:01:50.987Z</time></trkpt><trkpt lat="44.8306867" lon="9.4964467"><ele>296.0</ele><time>2026-03-26T14:01:51.987Z</time></trkpt><trkpt lat="44.830785" lon="9.4964233"><ele>296.0</ele><time>2026-03-26T14:01:52.987Z</time></trkpt><trkpt lat="44.830895" lon="9.4963833"><ele>296.0</ele><time>2026-03-26T14:01:53.987Z</time></trkpt><trkpt lat="44.83101" lon="9.4963233"><ele>296.0</ele><time>2026-03-26T14:01:54.987Z</time></trkpt><trkpt lat="44.8311267" lon="9.4962567"><ele>298.5</ele><time>2026-03-26T14:01:55.987Z</time></trkpt><trkpt lat="44.83124" lon="9.49619"><ele>301.0</ele><time>2026-03-26T14:01:56.989Z</time></trkpt><trkpt lat="44.8313567" lon="9.4961267"><ele>303.5</ele><time>2026-03-26T14:01:57.985Z</time></trkpt><trkpt lat="44.8314717" lon="9.4960617"><ele>306.0</ele><time>2026-03-26T14:01:58.987Z</time></trkpt><trkpt lat="44.8315883" lon="9.4959983"><ele>306.0</ele><time>2026-03-26T14:01:59.987Z</time></trkpt><trkpt lat="44.8317017" lon="9.4959383"><ele>306.0</ele><time>2026-03-26T14:02:00.987Z</time></trkpt><trkpt lat="44.8318133" lon="9.4958767"><ele>306.0</ele><time>2026-03-26T14:02:01.987Z</time></trkpt><trkpt lat="44.83192" lon="9.49581"><ele>306.0</ele><time>2026-03-26T14:02:02.987Z</time></trkpt><trkpt lat="44.8320217" lon="9.49573"><ele>308.75</ele><time>2026-03-26T14:02:03.987Z</time></trkpt><trkpt lat="44.8321183" lon="9.4956367"><ele>311.5</ele><time>2026-03-26T14:02:04.986Z</time></trkpt><trkpt lat="44.8322133" lon="9.4955367"><ele>314.25</ele><time>2026-03-26T14:02:05.987Z</time></trkpt><trkpt lat="44.8323033" lon="9.495435"><ele>317.0</ele><time>2026-03-26T14:02:06.986Z</time></trkpt><trkpt lat="44.8323883" lon="9.4953383"><ele>317.4</ele><time>2026-03-26T14:02:07.986Z</time></trkpt><trkpt lat="44.832465" lon="9.4952667"><ele>317.79999999999995</ele><time>2026-03-26T14:02:08.987Z</time></trkpt><trkpt lat="44.8325417" lon="9.4952333"><ele>318.2</ele><time>2026-03-26T14:02:09.989Z</time></trkpt><trkpt lat="44.832625" lon="9.4952383"><ele>318.59999999999997</ele><time>2026-03-26T14:02:10.987Z</time></trkpt><trkpt lat="44.8327183" lon="9.4952667"><ele>319.0</ele><time>2026-03-26T14:02:11.987Z</time></trkpt><trkpt lat="44.8328167" lon="9.4953017"><ele>321.2</ele><time>2026-03-26T14:02:12.986Z</time></trkpt><trkpt lat="44.8329133" lon="9.4953217"><ele>323.4</ele><time>2026-03-26T14:02:13.987Z</time></trkpt><trkpt lat="44.8330083" lon="9.49531"><ele>325.6</ele><time>2026-03-26T14:02:14.987Z</time></trkpt><trkpt lat="44.8331033" lon="9.4952633"><ele>327.8</ele><time>2026-03-26T14:02:15.987Z</time></trkpt><trkpt lat="44.8332" lon="9.4951933"><ele>330.0</ele><time>2026-03-26T14:02:16.986Z</time></trkpt><trkpt lat="44.8332983" lon="9.4951183"><ele>330.0</ele><time>2026-03-26T14:02:17.987Z</time></trkpt><trkpt lat="44.833395" lon="9.495045"><ele>330.0</ele><time>2026-03-26T14:02:18.986Z</time></trkpt><trkpt lat="44.8334833" lon="9.4949483"><ele>330.0</ele><time>2026-03-26T14:02:19.986Z</time></trkpt><trkpt lat="44.8335533" lon="9.4948217"><ele>330.0</ele><time>2026-03-26T14:02:20.988Z</time></trkpt><trkpt lat="44.8336083" lon="9.4946867"><ele>330.0</ele><time>2026-03-26T14:02:21.986Z</time></trkpt><trkpt lat="44.833655" lon="9.4945617"><ele>332.0</ele><time>2026-03-26T14:02:22.987Z</time></trkpt><trkpt lat="44.8337033" lon="9.4944583"><ele>334.0</ele><time>2026-03-26T14:02:23.987Z</time></trkpt><trkpt lat="44.8337667" lon="9.494365"><ele>336.0</ele><time>2026-03-26T14:02:24.987Z</time></trkpt><trkpt lat="44.8338383" lon="9.4942883"><ele>338.0</ele><time>2026-03-26T14:02:25.987Z</time></trkpt><trkpt lat="44.833915" lon="9.4942333"><ele>340.0</ele><time>2026-03-26T14:02:26.987Z</time></trkpt><trkpt lat="44.83399" lon="9.4942017"><ele>342.0</ele><time>2026-03-26T14:02:27.985Z</time></trkpt><trkpt lat="44.834055" lon="9.494175"><ele>342.0</ele><time>2026-03-26T14:02:28.987Z</time></trkpt><trkpt lat="44.8341483" lon="9.4940817"><ele>342.0</ele><time>2026-03-26T14:02:30.987Z</time></trkpt><trkpt lat="44.8341867" lon="9.4939567"><ele>342.0</ele><time>2026-03-26T14:02:32.988Z</time></trkpt><trkpt lat="44.8341867" lon="9.4938117"><ele>342.0</ele><time>2026-03-26T14:02:34.988Z</time></trkpt><trkpt lat="44.8341867" lon="9.4937033"><ele>342.0</ele><time>2026-03-26T14:02:35.987Z</time></trkpt><trkpt lat="44.8341983" lon="9.4935667"><ele>344.6</ele><time>2026-03-26T14:02:36.987Z</time></trkpt><trkpt lat="44.83422" lon="9.493435"><ele>347.20000000000005</ele><time>2026-03-26T14:02:37.987Z</time></trkpt><trkpt lat="44.8342533" lon="9.4933117"><ele>349.8</ele><time>2026-03-26T14:02:38.987Z</time></trkpt><trkpt lat="44.8342933" lon="9.493185"><ele>352.4</ele><time>2026-03-26T14:02:39.987Z</time></trkpt><trkpt lat="44.8343333" lon="9.49306"><ele>355.0</ele><time>2026-03-26T14:02:40.987Z</time></trkpt><trkpt lat="44.8343667" lon="9.4929217"><ele>359.75</ele><time>2026-03-26T14:02:41.987Z</time></trkpt><trkpt lat="44.8344" lon="9.492775"><ele>364.5</ele><time>2026-03-26T14:02:42.987Z</time></trkpt><trkpt lat="44.83444" lon="9.4926217"><ele>369.25</ele><time>2026-03-26T14:02:43.986Z</time></trkpt><trkpt lat="44.834485" lon="9.4924667"><ele>374.0</ele><time>2026-03-26T14:02:44.986Z</time></trkpt><trkpt lat="44.8345217" lon="9.492315"><ele>374.0</ele><time>2026-03-26T14:02:45.987Z</time></trkpt><trkpt lat="44.83456" lon="9.4921517"><ele>374.0</ele><time>2026-03-26T14:02:46.987Z</time></trkpt><trkpt lat="44.8346" lon="9.4920033"><ele>374.0</ele><time>2026-03-26T14:02:47.987Z</time></trkpt><trkpt lat="44.8346367" lon="9.4918883"><ele>374.0</ele><time>2026-03-26T14:02:48.986Z</time></trkpt><trkpt lat="44.834665" lon="9.491785"><ele>374.0</ele><time>2026-03-26T14:02:49.987Z</time></trkpt><trkpt lat="44.834685" lon="9.4916717"><ele>376.5</ele><time>2026-03-26T14:02:50.986Z</time></trkpt><trkpt lat="44.8347" lon="9.4915467"><ele>379.0</ele><time>2026-03-26T14:02:51.988Z</time></trkpt><trkpt lat="44.8347167" lon="9.491415"><ele>381.5</ele><time>2026-03-26T14:02:52.987Z</time></trkpt><trkpt lat="44.83474" lon="9.4912883"><ele>384.0</ele><time>2026-03-26T14:02:53.987Z</time></trkpt><trkpt lat="44.8347617" lon="9.491175"><ele>386.49999999999994</ele><time>2026-03-26T14:02:54.987Z</time></trkpt><trkpt lat="44.834755" lon="9.4910617"><ele>389.0</ele><time>2026-03-26T14:02:55.987Z</time></trkpt><trkpt lat="44.8347383" lon="9.4909467"><ele>392.0</ele><time>2026-03-26T14:02:56.988Z</time></trkpt><trkpt lat="44.834715" lon="9.490825"><ele>395.0</ele><time>2026-03-26T14:02:57.987Z</time></trkpt><trkpt lat="44.834705" lon="9.49071"><ele>398.0</ele><time>2026-03-26T14:02:58.988Z</time></trkpt><trkpt lat="44.8347233" lon="9.49058"><ele>401.0</ele><time>2026-03-26T14:02:59.986Z</time></trkpt><trkpt lat="44.8347467" lon="9.4904317"><ele>404.0</ele><time>2026-03-26T14:03:00.987Z</time></trkpt><trkpt lat="44.834765" lon="9.4902733"><ele>406.6</ele><time>2026-03-26T14:03:01.988Z</time></trkpt><trkpt lat="44.8347817" lon="9.4901167"><ele>409.2</ele><time>2026-03-26T14:03:02.988Z</time></trkpt><trkpt lat="44.8348033" lon="9.48998"><ele>411.8</ele><time>2026-03-26T14:03:03.987Z</time></trkpt><trkpt lat="44.8348233" lon="9.4898433"><ele>414.40000000000003</ele><time>2026-03-26T14:03:04.988Z</time></trkpt><trkpt lat="44.8348483" lon="9.4897033"><ele>417.0</ele><time>2026-03-26T14:03:05.988Z</time></trkpt><trkpt lat="44.8348783" lon="9.4895567"><ele>420.20000000000005</ele><time>2026-03-26T14:03:06.987Z</time></trkpt><trkpt lat="44.83491" lon="9.4894117"><ele>423.4</ele><time>2026-03-26T14:03:07.989Z</time></trkpt><trkpt lat="44.83493" lon="9.4892583"><ele>426.59999999999997</ele><time>2026-03-26T14:03:08.988Z</time></trkpt><trkpt lat="44.8349483" lon="9.48911"><ele>429.79999999999995</ele><time>2026-03-26T14:03:09.987Z</time></trkpt><trkpt lat="44.83496" lon="9.4889533"><ele>433.0</ele><time>2026-03-26T14:03:10.986Z</time></trkpt><trkpt lat="44.8349667" lon="9.4887933"><ele>436.2</ele><time>2026-03-26T14:03:11.987Z</time></trkpt><trkpt lat="44.8349583" lon="9.4886367"><ele>439.4</ele><time>2026-03-26T14:03:12.987Z</time></trkpt><trkpt lat="44.8349283" lon="9.48849"><ele>442.59999999999997</ele><time>2026-03-26T14:03:13.987Z</time></trkpt><trkpt lat="44.834885" lon="9.48835"><ele>445.79999999999995</ele><time>2026-03-26T14:03:14.988Z</time></trkpt><trkpt lat="44.8348367" lon="9.4881983"><ele>449.0</ele><time>2026-03-26T14:03:15.987Z</time></trkpt><trkpt lat="44.8347867" lon="9.4880467"><ele>451.2</ele><time>2026-03-26T14:03:16.987Z</time></trkpt><trkpt lat="44.83474" lon="9.487915"><ele>453.4</ele><time>2026-03-26T14:03:17.988Z</time></trkpt><trkpt lat="44.834715" lon="9.487795"><ele>455.6</ele><time>2026-03-26T14:03:18.987Z</time></trkpt><trkpt lat="44.8347183" lon="9.48767"><ele>457.8</ele><time>2026-03-26T14:03:19.987Z</time></trkpt><trkpt lat="44.8347517" lon="9.487545"><ele>460.0</ele><time>2026-03-26T14:03:20.988Z</time></trkpt><trkpt lat="44.8348117" lon="9.4874233"><ele>460.0</ele><time>2026-03-26T14:03:21.988Z</time></trkpt><trkpt lat="44.8348733" lon="9.48731"><ele>460.0</ele><time>2026-03-26T14:03:22.987Z</time></trkpt><trkpt lat="44.8349267" lon="9.487195"><ele>460.0</ele><time>2026-03-26T14:03:23.988Z</time></trkpt><trkpt lat="44.834975" lon="9.487055"><ele>460.0</ele><time>2026-03-26T14:03:24.986Z</time></trkpt><trkpt lat="44.8350133" lon="9.4868917"><ele>460.0</ele><time>2026-03-26T14:03:25.988Z</time></trkpt><trkpt lat="44.8350467" lon="9.4867267"><ele>462.6</ele><time>2026-03-26T14:03:26.988Z</time></trkpt><trkpt lat="44.83508" lon="9.486575"><ele>465.2</ele><time>2026-03-26T14:03:27.987Z</time></trkpt><trkpt lat="44.8351167" lon="9.4864483"><ele>467.79999999999995</ele><time>2026-03-26T14:03:28.987Z</time></trkpt><trkpt lat="44.8351467" lon="9.4863217"><ele>470.4</ele><time>2026-03-26T14:03:29.988Z</time></trkpt><trkpt lat="44.8351767" lon="9.4861983"><ele>473.0</ele><time>2026-03-26T14:03:30.987Z</time></trkpt><trkpt lat="44.835206" lon="9.4860862"><ele>476.59999999999997</ele><time>2026-03-26T14:03:31.988Z</time></trkpt><trkpt lat="44.8352418" lon="9.4859734"><ele>480.19999999999993</ele><time>2026-03-26T14:03:32.988Z</time></trkpt><trkpt lat="44.8352825" lon="9.4858581"><ele>483.8</ele><time>2026-03-26T14:03:33.986Z</time></trkpt><trkpt lat="44.8353243" lon="9.4857345"><ele>487.4</ele><time>2026-03-26T14:03:34.987Z</time></trkpt><trkpt lat="44.8353704" lon="9.4856008"><ele>491.0</ele><time>2026-03-26T14:03:35.988Z</time></trkpt><trkpt lat="44.8354189" lon="9.4854662"><ele>493.6</ele><time>2026-03-26T14:03:36.987Z</time></trkpt><trkpt lat="44.8354715" lon="9.4853358"><ele>496.20000000000005</ele><time>2026-03-26T14:03:37.988Z</time></trkpt><trkpt lat="44.8355292" lon="9.4852156"><ele>498.79999999999995</ele><time>2026-03-26T14:03:38.987Z</time></trkpt><trkpt lat="44.8355847" lon="9.4851099"><ele>501.4</ele><time>2026-03-26T14:03:39.987Z</time></trkpt><trkpt lat="44.8356305" lon="9.4850094"><ele>504.0</ele><time>2026-03-26T14:03:40.987Z</time></trkpt><trkpt lat="44.8356618" lon="9.4848968"><ele>504.0</ele><time>2026-03-26T14:03:41.988Z</time></trkpt><trkpt lat="44.8356804" lon="9.4847768"><ele>504.0</ele><time>2026-03-26T14:03:42.987Z</time></trkpt><trkpt lat="44.8356867" lon="9.4846579"><ele>504.0</ele><time>2026-03-26T14:03:43.987Z</time></trkpt><trkpt lat="44.8356937" lon="9.4845688"><ele>504.0</ele><time>2026-03-26T14:03:44.988Z</time></trkpt><trkpt lat="44.8357395" lon="9.4844765"><ele>504.0</ele><time>2026-03-26T14:03:46.987Z</time></trkpt><trkpt lat="44.8357906" lon="9.4844223"><ele>504.0</ele><time>2026-03-26T14:03:48.987Z</time></trkpt><trkpt lat="44.8358617" lon="9.484379"><ele>505.6</ele><time>2026-03-26T14:06:32.986Z</time></trkpt><trkpt lat="44.8359498" lon="9.4843098"><ele>507.2</ele><time>2026-03-26T14:06:34.986Z</time></trkpt><trkpt lat="44.8360372" lon="9.484218"><ele>508.80000000000007</ele><time>2026-03-26T14:06:36.987Z</time></trkpt><trkpt lat="44.8360952" lon="9.4840856"><ele>510.40000000000003</ele><time>2026-03-26T14:06:38.987Z</time></trkpt><trkpt lat="44.8361547" lon="9.4840039"><ele>512.0</ele><time>2026-03-26T14:06:40.986Z</time></trkpt><trkpt lat="44.8362113" lon="9.4839646"><ele>513.0</ele><time>2026-03-26T14:06:42.986Z</time></trkpt><trkpt lat="44.8362772" lon="9.4838793"><ele>514.0</ele><time>2026-03-26T14:06:45.987Z</time></trkpt><trkpt lat="44.8362833" lon="9.4837874"><ele>515.0</ele><time>2026-03-26T14:06:47.986Z</time></trkpt><trkpt lat="44.8363088" lon="9.4836727"><ele>516.0</ele><time>2026-03-26T14:06:51.986Z</time></trkpt><trkpt lat="44.8363777" lon="9.4835902"><ele>517.0</ele><time>2026-03-26T14:06:53.988Z</time></trkpt><trkpt lat="44.8364643" lon="9.4834645"><ele>518.3333333333334</ele><time>2026-03-26T14:06:55.987Z</time></trkpt><trkpt lat="44.8365235" lon="9.4833983"><ele>519.6666666666667</ele><time>2026-03-26T14:06:56.988Z</time></trkpt><trkpt lat="44.8365939" lon="9.4833303"><ele>521.0</ele><time>2026-03-26T14:06:57.987Z</time></trkpt><trkpt lat="44.8366685" lon="9.4832641"><ele>522.3333333333334</ele><time>2026-03-26T14:06:58.987Z</time></trkpt><trkpt lat="44.8367439" lon="9.4832028"><ele>523.6666666666666</ele><time>2026-03-26T14:06:59.987Z</time></trkpt><trkpt lat="44.8368205" lon="9.4831414"><ele>525.0</ele><time>2026-03-26T14:07:00.987Z</time></trkpt><trkpt lat="44.8369005" lon="9.4830705"><ele>525.0</ele><time>2026-03-26T14:07:01.987Z</time></trkpt><trkpt lat="44.836989" lon="9.4829904"><ele>525.0</ele><time>2026-03-26T14:07:02.988Z</time></trkpt><trkpt lat="44.8370763" lon="9.4829065"><ele>525.0</ele><time>2026-03-26T14:07:03.987Z</time></trkpt><trkpt lat="44.837158" lon="9.4828124"><ele>525.0</ele><time>2026-03-26T14:07:04.987Z</time></trkpt><trkpt lat="44.8372279" lon="9.4827258"><ele>525.0</ele><time>2026-03-26T14:07:05.987Z</time></trkpt><trkpt lat="44.8372957" lon="9.4826501"><ele>526.8333333333334</ele><time>2026-03-26T14:07:06.986Z</time></trkpt><trkpt lat="44.8373647" lon="9.4825795"><ele>528.6666666666666</ele><time>2026-03-26T14:07:07.988Z</time></trkpt><trkpt lat="44.8374342" lon="9.4825325"><ele>530.5</ele><time>2026-03-26T14:07:08.987Z</time></trkpt><trkpt lat="44.8375154" lon="9.4825069"><ele>532.3333333333333</ele><time>2026-03-26T14:07:09.986Z</time></trkpt><trkpt lat="44.8376039" lon="9.4824978"><ele>534.1666666666666</ele><time>2026-03-26T14:07:10.987Z</time></trkpt><trkpt lat="44.8376825" lon="9.4824948"><ele>536.0</ele><time>2026-03-26T14:07:11.987Z</time></trkpt><trkpt lat="44.8377533" lon="9.48249"><ele>537.6</ele><time>2026-03-26T14:07:12.986Z</time></trkpt><trkpt lat="44.8378205" lon="9.4824686"><ele>539.2</ele><time>2026-03-26T14:07:13.987Z</time></trkpt><trkpt lat="44.8378935" lon="9.4824278"><ele>540.8</ele><time>2026-03-26T14:07:14.987Z</time></trkpt><trkpt lat="44.8379805" lon="9.4823605"><ele>542.4</ele><time>2026-03-26T14:07:15.987Z</time></trkpt><trkpt lat="44.8380715" lon="9.4822874"><ele>544.0</ele><time>2026-03-26T14:07:16.986Z</time></trkpt><trkpt lat="44.8381741" lon="9.4822185"><ele>544.0</ele><time>2026-03-26T14:07:17.986Z</time></trkpt><trkpt lat="44.8382784" lon="9.4821501"><ele>544.0</ele><time>2026-03-26T14:07:18.986Z</time></trkpt><trkpt lat="44.8383837" lon="9.4820784"><ele>544.0</ele><time>2026-03-26T14:07:19.986Z</time></trkpt><trkpt lat="44.8384785" lon="9.4819992"><ele>544.0</ele><time>2026-03-26T14:07:20.988Z</time></trkpt><trkpt lat="44.8385579" lon="9.4819328"><ele>544.0</ele><time>2026-03-26T14:07:21.987Z</time></trkpt><trkpt lat="44.838636" lon="9.481884"><ele>547.8</ele><time>2026-03-26T14:07:22.986Z</time></trkpt><trkpt lat="44.8387244" lon="9.4818465"><ele>551.5999999999999</ele><time>2026-03-26T14:07:23.986Z</time></trkpt><trkpt lat="44.8388236" lon="9.481825"><ele>555.4</ele><time>2026-03-26T14:07:24.986Z</time></trkpt><trkpt lat="44.8389219" lon="9.4818216"><ele>559.1999999999999</ele><time>2026-03-26T14:07:25.985Z</time></trkpt><trkpt lat="44.8390194" lon="9.4818397"><ele>563.0</ele><time>2026-03-26T14:07:26.987Z</time></trkpt><trkpt lat="44.8391176" lon="9.4818579"><ele>563.0</ele><time>2026-03-26T14:07:27.986Z</time></trkpt><trkpt lat="44.8392134" lon="9.4818545"><ele>563.0</ele><time>2026-03-26T14:07:28.987Z</time></trkpt><trkpt lat="44.8393043" lon="9.4818296"><ele>563.0</ele><time>2026-03-26T14:07:29.987Z</time></trkpt><trkpt lat="44.8393875" lon="9.481806"><ele>563.0</ele><time>2026-03-26T14:07:30.987Z</time></trkpt><trkpt lat="44.8394648" lon="9.4817754"><ele>563.0</ele><time>2026-03-26T14:07:31.987Z</time></trkpt><trkpt lat="44.8395358" lon="9.4817436"><ele>563.0</ele><time>2026-03-26T14:07:32.987Z</time></trkpt><trkpt lat="44.8396099" lon="9.4817167"><ele>563.3333333333333</ele><time>2026-03-26T14:07:33.986Z</time></trkpt><trkpt lat="44.8396744" lon="9.4816869"><ele>563.6666666666666</ele><time>2026-03-26T14:07:35.986Z</time></trkpt><trkpt lat="44.8397184" lon="9.4815749"><ele>564.0</ele><time>2026-03-26T14:07:45.987Z</time></trkpt><trkpt lat="44.8398187" lon="9.4815038"><ele>564.3333333333334</ele><time>2026-03-26T14:07:47.987Z</time></trkpt><trkpt lat="44.8398993" lon="9.4814452"><ele>564.6666666666667</ele><time>2026-03-26T14:07:49.985Z</time></trkpt><trkpt lat="44.839966" lon="9.4814018"><ele>565.0</ele><time>2026-03-26T14:07:51.987Z</time></trkpt><trkpt lat="44.8400478" lon="9.4813345"><ele>568.3333333333334</ele><time>2026-03-26T14:15:41.987Z</time></trkpt><trkpt lat="44.8401389" lon="9.4812228"><ele>571.6666666666667</ele><time>2026-03-26T14:15:43.987Z</time></trkpt><trkpt lat="44.8401977" lon="9.4811574"><ele>575.0</ele><time>2026-03-26T14:15:44.986Z</time></trkpt><trkpt lat="44.8402618" lon="9.4811031"><ele>578.3333333333334</ele><time>2026-03-26T14:15:45.986Z</time></trkpt><trkpt lat="44.8403272" lon="9.4810614"><ele>581.6666666666666</ele><time>2026-03-26T14:15:46.987Z</time></trkpt><trkpt lat="44.8403869" lon="9.4810222"><ele>585.0</ele><time>2026-03-26T14:15:47.986Z</time></trkpt><trkpt lat="44.8404449" lon="9.4809762"><ele>585.0</ele><time>2026-03-26T14:15:48.986Z</time></trkpt><trkpt lat="44.840499" lon="9.480925"><ele>585.0</ele><time>2026-03-26T14:15:49.987Z</time></trkpt><trkpt lat="44.8405486" lon="9.4808655"><ele>585.0</ele><time>2026-03-26T14:15:50.988Z</time></trkpt><trkpt lat="44.8405934" lon="9.4807918"><ele>585.0</ele><time>2026-03-26T14:15:51.987Z</time></trkpt><trkpt lat="44.840644" lon="9.4807213"><ele>585.0</ele><time>2026-03-26T14:15:52.987Z</time></trkpt><trkpt lat="44.8407004" lon="9.4806603"><ele>585.0</ele><time>2026-03-26T14:15:53.988Z</time></trkpt><trkpt lat="44.8407609" lon="9.4806054"><ele>585.0</ele><time>2026-03-26T14:15:54.986Z</time></trkpt><trkpt lat="44.8408313" lon="9.4805565"><ele>585.0</ele><time>2026-03-26T14:15:55.986Z</time></trkpt><trkpt lat="44.8409102" lon="9.4805093"><ele>585.0</ele><time>2026-03-26T14:15:56.988Z</time></trkpt><trkpt lat="44.8409861" lon="9.4804569"><ele>585.0</ele><time>2026-03-26T14:15:57.987Z</time></trkpt><trkpt lat="44.8410586" lon="9.4803892"><ele>585.0</ele><time>2026-03-26T14:15:58.987Z</time></trkpt><trkpt lat="44.8411307" lon="9.4803041"><ele>585.0</ele><time>2026-03-26T14:15:59.987Z</time></trkpt><trkpt lat="44.8412062" lon="9.4802187"><ele>585.0</ele><time>2026-03-26T14:16:00.987Z</time></trkpt><trkpt lat="44.8412801" lon="9.4801396"><ele>585.6666666666666</ele><time>2026-03-26T14:16:01.988Z</time></trkpt><trkpt lat="44.8413519" lon="9.4800667"><ele>586.3333333333334</ele><time>2026-03-26T14:16:02.986Z</time></trkpt><trkpt lat="44.8414157" lon="9.480006"><ele>587.0</ele><time>2026-03-26T14:16:03.986Z</time></trkpt><trkpt lat="44.8415121" lon="9.4799413"><ele>587.6666666666667</ele><time>2026-03-26T14:16:05.987Z</time></trkpt><trkpt lat="44.8415952" lon="9.4799319"><ele>588.3333333333334</ele><time>2026-03-26T14:16:07.987Z</time></trkpt><trkpt lat="44.841669" lon="9.4799357"><ele>589.0</ele><time>2026-03-26T14:16:09.988Z</time></trkpt><trkpt lat="44.8417335" lon="9.4798741"><ele>589.0</ele><time>2026-03-26T14:16:11.988Z</time></trkpt><trkpt lat="44.8417976" lon="9.4797531"><ele>589.0</ele><time>2026-03-26T14:16:13.987Z</time></trkpt><trkpt lat="44.8418831" lon="9.4796705"><ele>589.0</ele><time>2026-03-26T14:16:15.986Z</time></trkpt><trkpt lat="44.8419798" lon="9.479649"><ele>589.0</ele><time>2026-03-26T14:16:17.987Z</time></trkpt><trkpt lat="44.8420744" lon="9.4796778"><ele>589.0</ele><time>2026-03-26T14:16:19.987Z</time></trkpt><trkpt lat="44.8421704" lon="9.4797538"><ele>589.2</ele><time>2026-03-26T14:16:21.987Z</time></trkpt><trkpt lat="44.8422511" lon="9.4798245"><ele>589.4</ele><time>2026-03-26T14:16:23.987Z</time></trkpt><trkpt lat="44.8423545" lon="9.4798595"><ele>589.6</ele><time>2026-03-26T14:16:25.988Z</time></trkpt><trkpt lat="44.8424417" lon="9.4798333"><ele>589.8</ele><time>2026-03-26T14:16:27.987Z</time></trkpt><trkpt lat="44.8425283" lon="9.4798167"><ele>590.0</ele><time>2026-03-26T14:16:29.986Z</time></trkpt><trkpt lat="44.84262" lon="9.4798533"><ele>592.0000000000001</ele><time>2026-03-26T14:16:31.986Z</time></trkpt><trkpt lat="44.8426883" lon="9.4799117"><ele>594.0</ele><time>2026-03-26T14:16:33.986Z</time></trkpt><trkpt lat="44.8427633" lon="9.4799267"><ele>596.0</ele><time>2026-03-26T14:16:35.986Z</time></trkpt><trkpt lat="44.842845" lon="9.4799583"><ele>598.0</ele><time>2026-03-26T14:16:38.986Z</time></trkpt><trkpt lat="44.842905" lon="9.4799967"><ele>600.0</ele><time>2026-03-26T14:16:40.987Z</time></trkpt><trkpt lat="44.8429683" lon="9.48002"><ele>602.0000000000001</ele><time>2026-03-26T14:16:42.985Z</time></trkpt><trkpt lat="44.843035" lon="9.4800183"><ele>604.0</ele><time>2026-03-26T14:16:45.986Z</time></trkpt><trkpt lat="44.84311" lon="9.4800333"><ele>604.0</ele><time>2026-03-26T14:16:50.986Z</time></trkpt><trkpt lat="44.8431717" lon="9.4800017"><ele>604.0</ele><time>2026-03-26T14:16:53.987Z</time></trkpt><trkpt lat="44.8432433" lon="9.479945"><ele>604.0</ele><time>2026-03-26T14:16:56.987Z</time></trkpt><trkpt lat="44.84333" lon="9.4799117"><ele>604.0</ele><time>2026-03-26T14:16:59.987Z</time></trkpt><trkpt lat="44.8434117" lon="9.4799367"><ele>604.0</ele><time>2026-03-26T14:17:01.987Z</time></trkpt><trkpt lat="44.8434767" lon="9.4799983"><ele>604.0</ele><time>2026-03-26T14:17:04.986Z</time></trkpt><trkpt lat="44.84355" lon="9.4800017"><ele>607.8333333333334</ele><time>2026-03-26T14:17:08.988Z</time></trkpt><trkpt lat="44.84363" lon="9.48"><ele>611.6666666666667</ele><time>2026-03-26T14:17:11.987Z</time></trkpt><trkpt lat="44.8437217" lon="9.4800417"><ele>615.5</ele><time>2026-03-26T14:17:14.988Z</time></trkpt><trkpt lat="44.8437817" lon="9.4801017"><ele>619.3333333333334</ele><time>2026-03-26T14:17:17.988Z</time></trkpt><trkpt lat="44.8438583" lon="9.4802033"><ele>623.1666666666666</ele><time>2026-03-26T14:17:49.986Z</time></trkpt><trkpt lat="44.84385" lon="9.4803317"><ele>627.0</ele><time>2026-03-26T14:17:51.986Z</time></trkpt><trkpt lat="44.8438333" lon="9.48042"><ele>625.8000000000001</ele><time>2026-03-26T14:17:52.987Z</time></trkpt><trkpt lat="44.8438117" lon="9.4805167"><ele>624.6</ele><time>2026-03-26T14:17:53.987Z</time></trkpt><trkpt lat="44.8437767" lon="9.480675"><ele>623.4000000000001</ele><time>2026-03-26T14:17:55.987Z</time></trkpt><trkpt lat="44.8437233" lon="9.4808283"><ele>622.2</ele><time>2026-03-26T14:17:57.986Z</time></trkpt><trkpt lat="44.843685" lon="9.4809117"><ele>621.0</ele><time>2026-03-26T14:17:58.988Z</time></trkpt><trkpt lat="44.843645" lon="9.4810533"><ele>621.0</ele><time>2026-03-26T14:18:00.986Z</time></trkpt><trkpt lat="44.8436567" lon="9.48117"><ele>621.0</ele><time>2026-03-26T14:18:02.986Z</time></trkpt><trkpt lat="44.8436917" lon="9.4812517"><ele>621.0</ele><time>2026-03-26T14:18:03.986Z</time></trkpt><trkpt lat="44.8437233" lon="9.4813317"><ele>621.0</ele><time>2026-03-26T14:18:04.987Z</time></trkpt><trkpt lat="44.8437567" lon="9.4814133"><ele>621.0</ele><time>2026-03-26T14:18:05.987Z</time></trkpt><trkpt lat="44.8438067" lon="9.48154"><ele>621.0</ele><time>2026-03-26T14:18:07.987Z</time></trkpt><trkpt lat="44.8438717" lon="9.4816183"><ele>619.1666666666666</ele><time>2026-03-26T14:18:09.986Z</time></trkpt><trkpt lat="44.843975" lon="9.4817267"><ele>617.3333333333334</ele><time>2026-03-26T14:18:11.988Z</time></trkpt><trkpt lat="44.844035" lon="9.4817933"><ele>615.5</ele><time>2026-03-26T14:18:12.986Z</time></trkpt><trkpt lat="44.8441" lon="9.4818517"><ele>613.6666666666667</ele><time>2026-03-26T14:18:13.987Z</time></trkpt><trkpt lat="44.84417" lon="9.4819017"><ele>611.8333333333334</ele><time>2026-03-26T14:18:14.987Z</time></trkpt><trkpt lat="44.84422" lon="9.4819617"><ele>610.0</ele><time>2026-03-26T14:18:15.986Z</time></trkpt><trkpt lat="44.8442767" lon="9.4820333"><ele>610.3333333333334</ele><time>2026-03-26T14:18:16.987Z</time></trkpt><trkpt lat="44.844325" lon="9.4820967"><ele>610.6666666666667</ele><time>2026-03-26T14:18:17.987Z</time></trkpt><trkpt lat="44.8444233" lon="9.4822167"><ele>611.0</ele><time>2026-03-26T14:18:19.987Z</time></trkpt><trkpt lat="44.84448" lon="9.4822783"><ele>611.3333333333334</ele><time>2026-03-26T14:18:20.988Z</time></trkpt><trkpt lat="44.8445567" lon="9.4823417"><ele>611.6666666666666</ele><time>2026-03-26T14:18:21.986Z</time></trkpt><trkpt lat="44.844635" lon="9.4824"><ele>612.0</ele><time>2026-03-26T14:18:22.987Z</time></trkpt><trkpt lat="44.8447183" lon="9.4824567"><ele>610.0</ele><time>2026-03-26T14:18:23.987Z</time></trkpt><trkpt lat="44.8448017" lon="9.4825167"><ele>608.0</ele><time>2026-03-26T14:18:24.986Z</time></trkpt><trkpt lat="44.8448733" lon="9.4825833"><ele>606.0</ele><time>2026-03-26T14:18:25.987Z</time></trkpt><trkpt lat="44.8449417" lon="9.482645"><ele>604.0</ele><time>2026-03-26T14:18:26.988Z</time></trkpt><trkpt lat="44.8450133" lon="9.4826983"><ele>602.0</ele><time>2026-03-26T14:18:27.987Z</time></trkpt><trkpt lat="44.845085" lon="9.4827483"><ele>600.0</ele><time>2026-03-26T14:18:28.988Z</time></trkpt><trkpt lat="44.84516" lon="9.4828033"><ele>598.1666666666666</ele><time>2026-03-26T14:18:29.986Z</time></trkpt><trkpt lat="44.8452367" lon="9.482855"><ele>596.3333333333334</ele><time>2026-03-26T14:18:30.987Z</time></trkpt><trkpt lat="44.8453083" lon="9.4829017"><ele>594.5</ele><time>2026-03-26T14:18:31.987Z</time></trkpt><trkpt lat="44.84538" lon="9.4829533"><ele>592.6666666666667</ele><time>2026-03-26T14:18:32.988Z</time></trkpt><trkpt lat="44.8454483" lon="9.4830017"><ele>590.8333333333334</ele><time>2026-03-26T14:18:33.987Z</time></trkpt><trkpt lat="44.8455117" lon="9.4830433"><ele>589.0</ele><time>2026-03-26T14:18:34.987Z</time></trkpt><trkpt lat="44.8456133" lon="9.4831117"><ele>587.1666666666667</ele><time>2026-03-26T14:18:36.987Z</time></trkpt><trkpt lat="44.845635" lon="9.4832"><ele>585.3333333333334</ele><time>2026-03-26T14:18:38.988Z</time></trkpt><trkpt lat="44.8455983" lon="9.4832983"><ele>583.5</ele><time>2026-03-26T14:18:40.987Z</time></trkpt><trkpt lat="44.84555" lon="9.48341"><ele>581.6666666666666</ele><time>2026-03-26T14:18:42.984Z</time></trkpt><trkpt lat="44.845515" lon="9.4835467"><ele>579.8333333333333</ele><time>2026-03-26T14:18:44.987Z</time></trkpt><trkpt lat="44.8454967" lon="9.483635"><ele>578.0</ele><time>2026-03-26T14:18:45.986Z</time></trkpt><trkpt lat="44.8454667" lon="9.4837533"><ele>576.4</ele><time>2026-03-26T14:18:46.986Z</time></trkpt><trkpt lat="44.8454267" lon="9.48389"><ele>574.8</ele><time>2026-03-26T14:18:47.987Z</time></trkpt><trkpt lat="44.845375" lon="9.4840333"><ele>573.2</ele><time>2026-03-26T14:18:48.986Z</time></trkpt><trkpt lat="44.8453233" lon="9.4841683"><ele>571.6</ele><time>2026-03-26T14:18:49.988Z</time></trkpt><trkpt lat="44.84527" lon="9.4842917"><ele>570.0</ele><time>2026-03-26T14:18:50.986Z</time></trkpt><trkpt lat="44.8452217" lon="9.484415"><ele>570.0</ele><time>2026-03-26T14:18:51.987Z</time></trkpt><trkpt lat="44.8451767" lon="9.4845583"><ele>570.0</ele><time>2026-03-26T14:18:52.987Z</time></trkpt><trkpt lat="44.84514" lon="9.4847"><ele>570.0</ele><time>2026-03-26T14:18:53.987Z</time></trkpt><trkpt lat="44.8451017" lon="9.4848367"><ele>570.0</ele><time>2026-03-26T14:18:54.988Z</time></trkpt><trkpt lat="44.8450683" lon="9.4849767"><ele>570.0</ele><time>2026-03-26T14:18:55.986Z</time></trkpt><trkpt lat="44.8450317" lon="9.485115"><ele>570.8</ele><time>2026-03-26T14:18:56.988Z</time></trkpt><trkpt lat="44.8449967" lon="9.48524"><ele>571.6</ele><time>2026-03-26T14:18:57.987Z</time></trkpt><trkpt lat="44.8449567" lon="9.4853583"><ele>572.4</ele><time>2026-03-26T14:18:58.987Z</time></trkpt><trkpt lat="44.8449" lon="9.4854833"><ele>573.2</ele><time>2026-03-26T14:18:59.987Z</time></trkpt><trkpt lat="44.8448333" lon="9.48561"><ele>574.0</ele><time>2026-03-26T14:19:00.986Z</time></trkpt><trkpt lat="44.8447683" lon="9.4857367"><ele>574.0</ele><time>2026-03-26T14:19:01.986Z</time></trkpt><trkpt lat="44.8447033" lon="9.485875"><ele>574.0</ele><time>2026-03-26T14:19:02.987Z</time></trkpt><trkpt lat="44.84464" lon="9.4860217"><ele>574.0</ele><time>2026-03-26T14:19:03.987Z</time></trkpt><trkpt lat="44.84458" lon="9.4861717"><ele>574.0</ele><time>2026-03-26T14:19:04.987Z</time></trkpt><trkpt lat="44.844525" lon="9.4863233"><ele>571.8</ele><time>2026-03-26T14:19:05.986Z</time></trkpt><trkpt lat="44.8444733" lon="9.486475"><ele>569.5999999999999</ele><time>2026-03-26T14:19:06.986Z</time></trkpt><trkpt lat="44.84442" lon="9.486625"><ele>567.4</ele><time>2026-03-26T14:19:07.987Z</time></trkpt><trkpt lat="44.8443783" lon="9.486765"><ele>565.1999999999999</ele><time>2026-03-26T14:19:08.987Z</time></trkpt><trkpt lat="44.844345" lon="9.4869017"><ele>563.0</ele><time>2026-03-26T14:19:09.987Z</time></trkpt><trkpt lat="44.8443183" lon="9.4870367"><ele>562.8</ele><time>2026-03-26T14:19:10.986Z</time></trkpt><trkpt lat="44.844295" lon="9.4871717"><ele>562.5999999999999</ele><time>2026-03-26T14:19:11.987Z</time></trkpt><trkpt lat="44.8442767" lon="9.4873"><ele>562.4000000000001</ele><time>2026-03-26T14:19:12.987Z</time></trkpt><trkpt lat="44.8442867" lon="9.4874317"><ele>562.2</ele><time>2026-03-26T14:19:13.987Z</time></trkpt><trkpt lat="44.8443133" lon="9.4875667"><ele>562.0</ele><time>2026-03-26T14:19:14.987Z</time></trkpt><trkpt lat="44.8443433" lon="9.4877083"><ele>562.0</ele><time>2026-03-26T14:19:15.987Z</time></trkpt><trkpt lat="44.8443817" lon="9.4878417"><ele>562.0</ele><time>2026-03-26T14:19:16.987Z</time></trkpt><trkpt lat="44.84443" lon="9.4879817"><ele>562.0</ele><time>2026-03-26T14:19:17.985Z</time></trkpt><trkpt lat="44.8445033" lon="9.4881433"><ele>562.0</ele><time>2026-03-26T14:19:18.987Z</time></trkpt><trkpt lat="44.844575" lon="9.4882983"><ele>562.0</ele><time>2026-03-26T14:19:19.987Z</time></trkpt><trkpt lat="44.8446267" lon="9.4884383"><ele>562.0</ele><time>2026-03-26T14:19:20.987Z</time></trkpt><trkpt lat="44.8446567" lon="9.4885583"><ele>562.0</ele><time>2026-03-26T14:19:21.987Z</time></trkpt><trkpt lat="44.8446667" lon="9.4886533"><ele>562.0</ele><time>2026-03-26T14:19:22.987Z</time></trkpt><trkpt lat="44.8446167" lon="9.4887717"><ele>562.0</ele><time>2026-03-26T14:19:24.987Z</time></trkpt><trkpt lat="44.8445483" lon="9.4888483"><ele>562.0</ele><time>2026-03-26T14:19:26.988Z</time></trkpt><trkpt lat="44.8444817" lon="9.488945"><ele>562.0</ele><time>2026-03-26T14:19:28.987Z</time></trkpt><trkpt lat="44.8443983" lon="9.4890633"><ele>562.0</ele><time>2026-03-26T14:19:30.986Z</time></trkpt><trkpt lat="44.844345" lon="9.4891367"><ele>562.0</ele><time>2026-03-26T14:19:31.986Z</time></trkpt><trkpt lat="44.84428" lon="9.4892183"><ele>562.0</ele><time>2026-03-26T14:19:32.988Z</time></trkpt><trkpt lat="44.844215" lon="9.4893033"><ele>561.4</ele><time>2026-03-26T14:19:33.987Z</time></trkpt><trkpt lat="44.8441533" lon="9.4894"><ele>560.8000000000001</ele><time>2026-03-26T14:19:34.987Z</time></trkpt><trkpt lat="44.8440983" lon="9.4895067"><ele>560.2</ele><time>2026-03-26T14:19:35.986Z</time></trkpt><trkpt lat="44.84405" lon="9.4896233"><ele>559.6</ele><time>2026-03-26T14:19:36.987Z</time></trkpt><trkpt lat="44.8439983" lon="9.489735"><ele>559.0</ele><time>2026-03-26T14:19:37.987Z</time></trkpt><trkpt lat="44.8439417" lon="9.4898317"><ele>557.1666666666667</ele><time>2026-03-26T14:19:38.987Z</time></trkpt><trkpt lat="44.8438833" lon="9.4899183"><ele>555.3333333333334</ele><time>2026-03-26T14:19:39.987Z</time></trkpt><trkpt lat="44.8438333" lon="9.4899867"><ele>553.5</ele><time>2026-03-26T14:19:40.987Z</time></trkpt><trkpt lat="44.843745" lon="9.4901017"><ele>551.6666666666666</ele><time>2026-03-26T14:19:42.987Z</time></trkpt><trkpt lat="44.8436967" lon="9.4901633"><ele>549.8333333333333</ele><time>2026-03-26T14:19:43.988Z</time></trkpt><trkpt lat="44.8436433" lon="9.49023"><ele>548.0</ele><time>2026-03-26T14:19:44.987Z</time></trkpt><trkpt lat="44.843585" lon="9.490315"><ele>548.0</ele><time>2026-03-26T14:19:45.987Z</time></trkpt><trkpt lat="44.8435183" lon="9.4904"><ele>548.0</ele><time>2026-03-26T14:19:46.991Z</time></trkpt><trkpt lat="44.8434467" lon="9.4904867"><ele>548.0</ele><time>2026-03-26T14:19:47.987Z</time></trkpt><trkpt lat="44.8433717" lon="9.4905717"><ele>548.0</ele><time>2026-03-26T14:19:48.987Z</time></trkpt><trkpt lat="44.8433" lon="9.4906467"><ele>548.0</ele><time>2026-03-26T14:19:49.988Z</time></trkpt><trkpt lat="44.84323" lon="9.4907083"><ele>544.1999999999999</ele><time>2026-03-26T14:19:50.987Z</time></trkpt><trkpt lat="44.8431667" lon="9.4907517"><ele>540.4</ele><time>2026-03-26T14:19:51.987Z</time></trkpt><trkpt lat="44.8430533" lon="9.490795"><ele>536.5999999999999</ele><time>2026-03-26T14:19:53.986Z</time></trkpt><trkpt lat="44.84294" lon="9.4908133"><ele>532.8</ele><time>2026-03-26T14:19:55.987Z</time></trkpt><trkpt lat="44.8428667" lon="9.4908833"><ele>529.0</ele><time>2026-03-26T14:19:57.987Z</time></trkpt><trkpt lat="44.84292" lon="9.49094"><ele>529.0</ele><time>2026-03-26T14:20:27.986Z</time></trkpt><trkpt lat="44.843025" lon="9.49098"><ele>529.0</ele><time>2026-03-26T14:20:29.987Z</time></trkpt><trkpt lat="44.8430933" lon="9.4909883"><ele>529.0</ele><time>2026-03-26T14:20:30.988Z</time></trkpt><trkpt lat="44.843165" lon="9.4909933"><ele>529.0</ele><time>2026-03-26T14:20:31.987Z</time></trkpt><trkpt lat="44.8432417" lon="9.4909933"><ele>529.0</ele><time>2026-03-26T14:20:32.987Z</time></trkpt><trkpt lat="44.8433217" lon="9.4909917"><ele>529.0</ele><time>2026-03-26T14:20:33.987Z</time></trkpt><trkpt lat="44.84341" lon="9.4909883"><ele>529.3333333333334</ele><time>2026-03-26T14:20:34.988Z</time></trkpt><trkpt lat="44.8434983" lon="9.49098"><ele>529.6666666666667</ele><time>2026-03-26T14:20:35.987Z</time></trkpt><trkpt lat="44.8435783" lon="9.4909683"><ele>530.0</ele><time>2026-03-26T14:20:36.986Z</time></trkpt><trkpt lat="44.8436517" lon="9.49096"><ele>530.3333333333334</ele><time>2026-03-26T14:20:37.988Z</time></trkpt><trkpt lat="44.8437283" lon="9.4909567"><ele>530.6666666666666</ele><time>2026-03-26T14:20:38.987Z</time></trkpt><trkpt lat="44.8438183" lon="9.4909567"><ele>531.0</ele><time>2026-03-26T14:20:39.985Z</time></trkpt><trkpt lat="44.84392" lon="9.4909517"><ele>531.0</ele><time>2026-03-26T14:20:40.987Z</time></trkpt><trkpt lat="44.8440283" lon="9.49094"><ele>531.0</ele><time>2026-03-26T14:20:41.987Z</time></trkpt><trkpt lat="44.84415" lon="9.490925"><ele>531.0</ele><time>2026-03-26T14:20:42.987Z</time></trkpt><trkpt lat="44.8442767" lon="9.49091"><ele>531.0</ele><time>2026-03-26T14:20:43.988Z</time></trkpt><trkpt lat="44.8444033" lon="9.49091"><ele>532.5</ele><time>2026-03-26T14:20:44.987Z</time></trkpt><trkpt lat="44.8445167" lon="9.49094"><ele>534.0</ele><time>2026-03-26T14:20:45.986Z</time></trkpt><trkpt lat="44.84461" lon="9.49101"><ele>535.5</ele><time>2026-03-26T14:20:46.986Z</time></trkpt><trkpt lat="44.8446933" lon="9.4911083"><ele>537.0</ele><time>2026-03-26T14:20:47.988Z</time></trkpt><trkpt lat="44.8447883" lon="9.4912133"><ele>535.75</ele><time>2026-03-26T14:20:48.987Z</time></trkpt><trkpt lat="44.844895" lon="9.49131"><ele>534.5</ele><time>2026-03-26T14:20:49.987Z</time></trkpt><trkpt lat="44.8450083" lon="9.4913917"><ele>533.25</ele><time>2026-03-26T14:20:50.987Z</time></trkpt><trkpt lat="44.8451167" lon="9.4914717"><ele>532.0</ele><time>2026-03-26T14:20:51.986Z</time></trkpt><trkpt lat="44.8452167" lon="9.491555"><ele>532.0</ele><time>2026-03-26T14:20:52.986Z</time></trkpt><trkpt lat="44.8453117" lon="9.4916433"><ele>532.0</ele><time>2026-03-26T14:20:53.987Z</time></trkpt><trkpt lat="44.8453867" lon="9.49173"><ele>532.0</ele><time>2026-03-26T14:20:54.987Z</time></trkpt><trkpt lat="44.845455" lon="9.491825"><ele>532.0</ele><time>2026-03-26T14:20:55.986Z</time></trkpt><trkpt lat="44.84551" lon="9.4919217"><ele>532.0</ele><time>2026-03-26T14:20:56.987Z</time></trkpt><trkpt lat="44.84555" lon="9.4920533"><ele>530.0</ele><time>2026-03-26T14:20:57.986Z</time></trkpt><trkpt lat="44.845585" lon="9.492215"><ele>528.0</ele><time>2026-03-26T14:20:58.987Z</time></trkpt><trkpt lat="44.84562" lon="9.4923767"><ele>526.0</ele><time>2026-03-26T14:20:59.986Z</time></trkpt><trkpt lat="44.8456583" lon="9.49252"><ele>524.0</ele><time>2026-03-26T14:21:00.987Z</time></trkpt><trkpt lat="44.8457033" lon="9.49265"><ele>524.0</ele><time>2026-03-26T14:21:01.986Z</time></trkpt><trkpt lat="44.8457533" lon="9.49277"><ele>524.0</ele><time>2026-03-26T14:21:02.986Z</time></trkpt><trkpt lat="44.8458167" lon="9.492875"><ele>524.0</ele><time>2026-03-26T14:21:03.986Z</time></trkpt><trkpt lat="44.8458867" lon="9.49297"><ele>524.0</ele><time>2026-03-26T14:21:04.987Z</time></trkpt><trkpt lat="44.8459683" lon="9.49303"><ele>524.0</ele><time>2026-03-26T14:21:05.986Z</time></trkpt><trkpt lat="44.8460717" lon="9.493065"><ele>523.2</ele><time>2026-03-26T14:21:06.987Z</time></trkpt><trkpt lat="44.84618" lon="9.4930733"><ele>522.4</ele><time>2026-03-26T14:21:07.987Z</time></trkpt><trkpt lat="44.8462833" lon="9.4930633"><ele>521.6</ele><time>2026-03-26T14:21:08.987Z</time></trkpt><trkpt lat="44.846375" lon="9.4930367"><ele>520.8</ele><time>2026-03-26T14:21:09.986Z</time></trkpt><trkpt lat="44.8464633" lon="9.4929833"><ele>520.0</ele><time>2026-03-26T14:21:10.987Z</time></trkpt><trkpt lat="44.84654" lon="9.4928933"><ele>520.0</ele><time>2026-03-26T14:21:11.987Z</time></trkpt><trkpt lat="44.8466233" lon="9.4927883"><ele>520.0</ele><time>2026-03-26T14:21:12.987Z</time></trkpt><trkpt lat="44.846705" lon="9.4926717"><ele>520.0</ele><time>2026-03-26T14:21:13.986Z</time></trkpt><trkpt lat="44.8467833" lon="9.4925617"><ele>520.0</ele><time>2026-03-26T14:21:14.987Z</time></trkpt><trkpt lat="44.846855" lon="9.4924533"><ele>520.0</ele><time>2026-03-26T14:21:15.987Z</time></trkpt><trkpt lat="44.846915" lon="9.4923367"><ele>515.75</ele><time>2026-03-26T14:21:16.987Z</time></trkpt><trkpt lat="44.8469667" lon="9.492205"><ele>511.5</ele><time>2026-03-26T14:21:17.987Z</time></trkpt><trkpt lat="44.84701" lon="9.4920417"><ele>507.25</ele><time>2026-03-26T14:21:18.985Z</time></trkpt><trkpt lat="44.8470483" lon="9.4918617"><ele>503.0</ele><time>2026-03-26T14:21:19.987Z</time></trkpt><trkpt lat="44.84709" lon="9.4916783"><ele>503.0</ele><time>2026-03-26T14:21:20.987Z</time></trkpt><trkpt lat="44.8471267" lon="9.491505"><ele>503.0</ele><time>2026-03-26T14:21:21.987Z</time></trkpt><trkpt lat="44.8471633" lon="9.4913433"><ele>503.0</ele><time>2026-03-26T14:21:22.985Z</time></trkpt><trkpt lat="44.847205" lon="9.4912067"><ele>503.0</ele><time>2026-03-26T14:21:23.987Z</time></trkpt><trkpt lat="44.8472617" lon="9.4910867"><ele>504.59999999999997</ele><time>2026-03-26T14:21:24.985Z</time></trkpt><trkpt lat="44.8473317" lon="9.4909867"><ele>506.19999999999993</ele><time>2026-03-26T14:21:25.987Z</time></trkpt><trkpt lat="44.847405" lon="9.4909067"><ele>507.8</ele><time>2026-03-26T14:21:26.987Z</time></trkpt><trkpt lat="44.8474733" lon="9.490845"><ele>509.4</ele><time>2026-03-26T14:21:27.987Z</time></trkpt><trkpt lat="44.847565" lon="9.490755"><ele>511.0</ele><time>2026-03-26T14:21:29.986Z</time></trkpt><trkpt lat="44.8476333" lon="9.4906717"><ele>511.33333333333337</ele><time>2026-03-26T14:21:31.987Z</time></trkpt><trkpt lat="44.847685" lon="9.4905767"><ele>511.6666666666667</ele><time>2026-03-26T14:21:33.987Z</time></trkpt><trkpt lat="44.8476567" lon="9.4904867"><ele>512.0</ele><time>2026-03-26T14:21:36.986Z</time></trkpt><trkpt lat="44.847565" lon="9.4904117"><ele>512.3333333333334</ele><time>2026-03-26T14:21:38.987Z</time></trkpt><trkpt lat="44.8475217" lon="9.4902517"><ele>512.6666666666666</ele><time>2026-03-26T14:21:40.987Z</time></trkpt><trkpt lat="44.8475233" lon="9.49016"><ele>513.0</ele><time>2026-03-26T14:21:41.987Z</time></trkpt><trkpt lat="44.8475317" lon="9.4900617"><ele>513.0000000000001</ele><time>2026-03-26T14:21:42.987Z</time></trkpt><trkpt lat="44.84755" lon="9.4899683"><ele>513.0</ele><time>2026-03-26T14:21:43.986Z</time></trkpt><trkpt lat="44.8475717" lon="9.4898717"><ele>513.0</ele><time>2026-03-26T14:21:44.986Z</time></trkpt><trkpt lat="44.8475917" lon="9.489775"><ele>513.0</ele><time>2026-03-26T14:21:45.986Z</time></trkpt><trkpt lat="44.8476067" lon="9.4896767"><ele>513.0</ele><time>2026-03-26T14:21:46.988Z</time></trkpt><trkpt lat="44.8476183" lon="9.48958"><ele>513.0000000000001</ele><time>2026-03-26T14:21:47.986Z</time></trkpt><trkpt lat="44.8476267" lon="9.4894883"><ele>513.0</ele><time>2026-03-26T14:21:48.985Z</time></trkpt><trkpt lat="44.8476433" lon="9.4893167"><ele>510.3333333333333</ele><time>2026-03-26T14:21:50.987Z</time></trkpt><trkpt lat="44.8476683" lon="9.4891733"><ele>507.66666666666663</ele><time>2026-03-26T14:21:52.987Z</time></trkpt><trkpt lat="44.84769" lon="9.4890717"><ele>505.0</ele><time>2026-03-26T14:21:54.986Z</time></trkpt><trkpt lat="44.84773" lon="9.4889783"><ele>502.3333333333333</ele><time>2026-03-26T14:21:57.986Z</time></trkpt><trkpt lat="44.84779" lon="9.4888683"><ele>499.66666666666663</ele><time>2026-03-26T14:21:59.987Z</time></trkpt><trkpt lat="44.8478367" lon="9.4887717"><ele>497.0</ele><time>2026-03-26T14:22:00.986Z</time></trkpt><trkpt lat="44.847885" lon="9.4886667"><ele>496.99999999999994</ele><time>2026-03-26T14:22:01.987Z</time></trkpt><trkpt lat="44.8479383" lon="9.4885667"><ele>497.0</ele><time>2026-03-26T14:22:02.987Z</time></trkpt><trkpt lat="44.8479983" lon="9.488475"><ele>497.0</ele><time>2026-03-26T14:22:03.986Z</time></trkpt><trkpt lat="44.8480617" lon="9.488405"><ele>497.0</ele><time>2026-03-26T14:22:04.987Z</time></trkpt><trkpt lat="44.8481267" lon="9.48837"><ele>496.99999999999994</ele><time>2026-03-26T14:22:05.987Z</time></trkpt><trkpt lat="44.8482017" lon="9.4883617"><ele>497.0</ele><time>2026-03-26T14:22:06.987Z</time></trkpt><trkpt lat="44.8482867" lon="9.488385"><ele>497.0</ele><time>2026-03-26T14:22:07.987Z</time></trkpt><trkpt lat="44.8483783" lon="9.4884467"><ele>497.0</ele><time>2026-03-26T14:22:08.986Z</time></trkpt><trkpt lat="44.8484833" lon="9.4885283"><ele>497.0</ele><time>2026-03-26T14:22:09.986Z</time></trkpt><trkpt lat="44.8485817" lon="9.4886183"><ele>497.0</ele><time>2026-03-26T14:22:10.987Z</time></trkpt><trkpt lat="44.8486767" lon="9.488705"><ele>493.40000000000003</ele><time>2026-03-26T14:22:11.987Z</time></trkpt><trkpt lat="44.8487617" lon="9.4887833"><ele>489.80000000000007</ele><time>2026-03-26T14:22:12.986Z</time></trkpt><trkpt lat="44.8488383" lon="9.4888533"><ele>486.2</ele><time>2026-03-26T14:22:13.986Z</time></trkpt><trkpt lat="44.8489183" lon="9.4889183"><ele>482.6</ele><time>2026-03-26T14:22:14.987Z</time></trkpt><trkpt lat="44.8489967" lon="9.4889767"><ele>479.0</ele><time>2026-03-26T14:22:15.986Z</time></trkpt><trkpt lat="44.8490833" lon="9.4890267"><ele>479.0</ele><time>2026-03-26T14:22:16.987Z</time></trkpt><trkpt lat="44.8491717" lon="9.489075"><ele>479.0</ele><time>2026-03-26T14:22:17.986Z</time></trkpt><trkpt lat="44.8492567" lon="9.4891233"><ele>479.0</ele><time>2026-03-26T14:22:18.987Z</time></trkpt><trkpt lat="44.8493333" lon="9.48918"><ele>479.0</ele><time>2026-03-26T14:22:19.987Z</time></trkpt><trkpt lat="44.8494017" lon="9.4892333"><ele>479.0</ele><time>2026-03-26T14:22:20.986Z</time></trkpt><trkpt lat="44.8494967" lon="9.4893117"><ele>479.79999999999995</ele><time>2026-03-26T14:22:22.987Z</time></trkpt><trkpt lat="44.8495567" lon="9.4894033"><ele>480.59999999999997</ele><time>2026-03-26T14:22:24.987Z</time></trkpt><trkpt lat="44.8495533" lon="9.4895317"><ele>481.4</ele><time>2026-03-26T14:22:26.986Z</time></trkpt><trkpt lat="44.8494383" lon="9.4896217"><ele>482.2</ele><time>2026-03-26T14:22:28.986Z</time></trkpt><trkpt lat="44.84937" lon="9.4896683"><ele>483.0</ele><time>2026-03-26T14:22:29.987Z</time></trkpt><trkpt lat="44.84931" lon="9.4897333"><ele>481.1666666666667</ele><time>2026-03-26T14:22:30.986Z</time></trkpt><trkpt lat="44.84928" lon="9.4898133"><ele>479.33333333333337</ele><time>2026-03-26T14:22:31.987Z</time></trkpt><trkpt lat="44.8493033" lon="9.48998"><ele>477.5</ele><time>2026-03-26T14:22:33.986Z</time></trkpt><trkpt lat="44.8493483" lon="9.4900433"><ele>475.6666666666667</ele><time>2026-03-26T14:22:34.987Z</time></trkpt><trkpt lat="44.84941" lon="9.4900983"><ele>473.83333333333337</ele><time>2026-03-26T14:22:35.988Z</time></trkpt><trkpt lat="44.8494967" lon="9.4901467"><ele>472.0</ele><time>2026-03-26T14:22:36.987Z</time></trkpt><trkpt lat="44.8495933" lon="9.4901917"><ele>470.8</ele><time>2026-03-26T14:22:37.986Z</time></trkpt><trkpt lat="44.8496933" lon="9.490225"><ele>469.6</ele><time>2026-03-26T14:22:38.988Z</time></trkpt><trkpt lat="44.8497867" lon="9.4902367"><ele>468.40000000000003</ele><time>2026-03-26T14:22:39.987Z</time></trkpt><trkpt lat="44.84989" lon="9.4902383"><ele>467.20000000000005</ele><time>2026-03-26T14:22:40.986Z</time></trkpt><trkpt lat="44.8499933" lon="9.4902417"><ele>466.0</ele><time>2026-03-26T14:22:41.987Z</time></trkpt><trkpt lat="44.850095" lon="9.4902533"><ele>466.50000000000006</ele><time>2026-03-26T14:22:42.987Z</time></trkpt><trkpt lat="44.85019" lon="9.49027"><ele>467.0</ele><time>2026-03-26T14:22:43.987Z</time></trkpt><trkpt lat="44.8502767" lon="9.4902883"><ele>467.5</ele><time>2026-03-26T14:22:44.987Z</time></trkpt><trkpt lat="44.8503567" lon="9.490305"><ele>468.0</ele><time>2026-03-26T14:22:45.986Z</time></trkpt><trkpt lat="44.8504467" lon="9.490315"><ele>468.50000000000006</ele><time>2026-03-26T14:22:46.986Z</time></trkpt><trkpt lat="44.85054" lon="9.4903233"><ele>469.0</ele><time>2026-03-26T14:22:47.987Z</time></trkpt><trkpt lat="44.8506383" lon="9.4903433"><ele>469.00000000000006</ele><time>2026-03-26T14:22:48.987Z</time></trkpt><trkpt lat="44.8507267" lon="9.4903683"><ele>469.0</ele><time>2026-03-26T14:22:49.987Z</time></trkpt><trkpt lat="44.850815" lon="9.4904133"><ele>469.0</ele><time>2026-03-26T14:22:50.987Z</time></trkpt><trkpt lat="44.8508967" lon="9.4904633"><ele>469.0</ele><time>2026-03-26T14:22:51.986Z</time></trkpt><trkpt lat="44.8509717" lon="9.49052"><ele>469.00000000000006</ele><time>2026-03-26T14:22:52.987Z</time></trkpt><trkpt lat="44.8510417" lon="9.4905817"><ele>469.0</ele><time>2026-03-26T14:22:53.987Z</time></trkpt><trkpt lat="44.8510967" lon="9.49065"><ele>464.1666666666667</ele><time>2026-03-26T14:22:54.985Z</time></trkpt><trkpt lat="44.8511483" lon="9.4907183"><ele>459.33333333333337</ele><time>2026-03-26T14:22:55.987Z</time></trkpt><trkpt lat="44.851205" lon="9.4907967"><ele>454.5</ele><time>2026-03-26T14:22:56.986Z</time></trkpt><trkpt lat="44.85127" lon="9.490875"><ele>449.66666666666663</ele><time>2026-03-26T14:22:57.986Z</time></trkpt><trkpt lat="44.8513533" lon="9.4909483"><ele>444.8333333333333</ele><time>2026-03-26T14:22:58.988Z</time></trkpt><trkpt lat="44.8514383" lon="9.491015"><ele>440.0</ele><time>2026-03-26T14:22:59.987Z</time></trkpt><trkpt lat="44.851525" lon="9.491075"><ele>440.0</ele><time>2026-03-26T14:23:00.987Z</time></trkpt><trkpt lat="44.8516083" lon="9.4911367"><ele>440.0</ele><time>2026-03-26T14:23:01.987Z</time></trkpt><trkpt lat="44.851685" lon="9.4912033"><ele>440.0</ele><time>2026-03-26T14:23:02.987Z</time></trkpt><trkpt lat="44.85176" lon="9.491285"><ele>440.0</ele><time>2026-03-26T14:23:03.986Z</time></trkpt><trkpt lat="44.8518417" lon="9.4913783"><ele>440.0</ele><time>2026-03-26T14:23:04.986Z</time></trkpt><trkpt lat="44.851925" lon="9.49147"><ele>437.4</ele><time>2026-03-26T14:23:05.986Z</time></trkpt><trkpt lat="44.852005" lon="9.4915517"><ele>434.8</ele><time>2026-03-26T14:23:06.986Z</time></trkpt><trkpt lat="44.852085" lon="9.4916267"><ele>432.20000000000005</ele><time>2026-03-26T14:23:07.987Z</time></trkpt><trkpt lat="44.8521633" lon="9.4916933"><ele>429.6</ele><time>2026-03-26T14:23:08.987Z</time></trkpt><trkpt lat="44.852235" lon="9.4917567"><ele>427.0</ele><time>2026-03-26T14:23:09.986Z</time></trkpt><trkpt lat="44.8523217" lon="9.4918267"><ele>427.0</ele><time>2026-03-26T14:23:10.986Z</time></trkpt><trkpt lat="44.8524067" lon="9.4918983"><ele>427.00000000000006</ele><time>2026-03-26T14:23:11.986Z</time></trkpt><trkpt lat="44.8524883" lon="9.4919733"><ele>427.00000000000006</ele><time>2026-03-26T14:23:12.987Z</time></trkpt><trkpt lat="44.8525633" lon="9.4920483"><ele>427.0</ele><time>2026-03-26T14:23:13.987Z</time></trkpt><trkpt lat="44.8526317" lon="9.492125"><ele>427.0</ele><time>2026-03-26T14:23:14.987Z</time></trkpt><trkpt lat="44.8526983" lon="9.4922017"><ele>424.00000000000006</ele><time>2026-03-26T14:23:15.985Z</time></trkpt><trkpt lat="44.8527583" lon="9.492275"><ele>421.0</ele><time>2026-03-26T14:23:16.987Z</time></trkpt><trkpt lat="44.852815" lon="9.49235"><ele>418.0</ele><time>2026-03-26T14:23:17.987Z</time></trkpt><trkpt lat="44.8528617" lon="9.492435"><ele>415.0</ele><time>2026-03-26T14:23:18.987Z</time></trkpt><trkpt lat="44.852885" lon="9.4925317"><ele>412.00000000000006</ele><time>2026-03-26T14:23:19.986Z</time></trkpt><trkpt lat="44.85289" lon="9.4926383"><ele>409.0</ele><time>2026-03-26T14:23:20.988Z</time></trkpt><trkpt lat="44.852865" lon="9.4927567"><ele>409.0</ele><time>2026-03-26T14:23:21.986Z</time></trkpt><trkpt lat="44.85283" lon="9.4928833"><ele>409.0</ele><time>2026-03-26T14:23:22.987Z</time></trkpt><trkpt lat="44.8527933" lon="9.49301"><ele>409.0</ele><time>2026-03-26T14:23:23.987Z</time></trkpt><trkpt lat="44.8527683" lon="9.4931317"><ele>409.0</ele><time>2026-03-26T14:23:24.986Z</time></trkpt><trkpt lat="44.8527533" lon="9.4932567"><ele>409.0</ele><time>2026-03-26T14:23:25.987Z</time></trkpt><trkpt lat="44.8527617" lon="9.49339"><ele>406.4</ele><time>2026-03-26T14:23:26.987Z</time></trkpt><trkpt lat="44.8527683" lon="9.4935367"><ele>403.79999999999995</ele><time>2026-03-26T14:23:27.986Z</time></trkpt><trkpt lat="44.8527767" lon="9.4936867"><ele>401.20000000000005</ele><time>2026-03-26T14:23:28.987Z</time></trkpt><trkpt lat="44.8527817" lon="9.4938417"><ele>398.6</ele><time>2026-03-26T14:23:29.987Z</time></trkpt><trkpt lat="44.8527983" lon="9.4939917"><ele>396.0</ele><time>2026-03-26T14:23:30.987Z</time></trkpt><trkpt lat="44.8528267" lon="9.4941467"><ele>394.75</ele><time>2026-03-26T14:23:31.986Z</time></trkpt><trkpt lat="44.8528717" lon="9.49431"><ele>393.5</ele><time>2026-03-26T14:23:32.987Z</time></trkpt><trkpt lat="44.852925" lon="9.4944767"><ele>392.25</ele><time>2026-03-26T14:23:33.986Z</time></trkpt><trkpt lat="44.8529833" lon="9.49463"><ele>391.0</ele><time>2026-03-26T14:23:34.987Z</time></trkpt><trkpt lat="44.8530367" lon="9.4947617"><ele>390.8</ele><time>2026-03-26T14:23:35.986Z</time></trkpt><trkpt lat="44.8530883" lon="9.4948833"><ele>390.6</ele><time>2026-03-26T14:23:36.987Z</time></trkpt><trkpt lat="44.853135" lon="9.4949867"><ele>390.4</ele><time>2026-03-26T14:23:37.987Z</time></trkpt><trkpt lat="44.85319" lon="9.49508"><ele>390.2</ele><time>2026-03-26T14:23:38.987Z</time></trkpt><trkpt lat="44.8532583" lon="9.495165"><ele>390.0</ele><time>2026-03-26T14:23:39.987Z</time></trkpt><trkpt lat="44.853335" lon="9.4952383"><ele>390.0</ele><time>2026-03-26T14:23:40.987Z</time></trkpt><trkpt lat="44.8534117" lon="9.4953067"><ele>390.0</ele><time>2026-03-26T14:23:41.986Z</time></trkpt><trkpt lat="44.8534833" lon="9.4953767"><ele>390.0</ele><time>2026-03-26T14:23:42.986Z</time></trkpt><trkpt lat="44.85355" lon="9.4954467"><ele>390.0</ele><time>2026-03-26T14:23:43.987Z</time></trkpt><trkpt lat="44.8536217" lon="9.495515"><ele>390.0</ele><time>2026-03-26T14:23:44.987Z</time></trkpt><trkpt lat="44.8536983" lon="9.4955833"><ele>390.0</ele><time>2026-03-26T14:23:45.987Z</time></trkpt><trkpt lat="44.8537717" lon="9.4956583"><ele>387.4</ele><time>2026-03-26T14:23:46.987Z</time></trkpt><trkpt lat="44.8538483" lon="9.49573"><ele>384.8</ele><time>2026-03-26T14:23:47.987Z</time></trkpt><trkpt lat="44.8539267" lon="9.4957867"><ele>382.20000000000005</ele><time>2026-03-26T14:23:48.987Z</time></trkpt><trkpt lat="44.8540083" lon="9.4958233"><ele>379.6</ele><time>2026-03-26T14:23:49.986Z</time></trkpt><trkpt lat="44.8541033" lon="9.4958567"><ele>377.0</ele><time>2026-03-26T14:23:50.987Z</time></trkpt><trkpt lat="44.8542033" lon="9.4958933"><ele>375.0</ele><time>2026-03-26T14:23:51.986Z</time></trkpt><trkpt lat="44.8542983" lon="9.4959267"><ele>373.0</ele><time>2026-03-26T14:23:52.987Z</time></trkpt><trkpt lat="44.85439" lon="9.495965"><ele>371.0</ele><time>2026-03-26T14:23:53.99Z</time></trkpt><trkpt lat="44.8544667" lon="9.496005"><ele>369.0</ele><time>2026-03-26T14:23:54.986Z</time></trkpt><trkpt lat="44.854525" lon="9.4960633"><ele>367.0</ele><time>2026-03-26T14:23:55.986Z</time></trkpt><trkpt lat="44.85457" lon="9.4961383"><ele>365.0</ele><time>2026-03-26T14:23:56.986Z</time></trkpt><trkpt lat="44.854605" lon="9.4962267"><ele>364.1666666666667</ele><time>2026-03-26T14:23:57.987Z</time></trkpt><trkpt lat="44.8546267" lon="9.4963233"><ele>363.33333333333337</ele><time>2026-03-26T14:23:58.987Z</time></trkpt><trkpt lat="44.854635" lon="9.4964233"><ele>362.5</ele><time>2026-03-26T14:23:59.986Z</time></trkpt><trkpt lat="44.854635" lon="9.4965283"><ele>361.6666666666667</ele><time>2026-03-26T14:24:00.986Z</time></trkpt><trkpt lat="44.8546267" lon="9.4966533"><ele>360.8333333333333</ele><time>2026-03-26T14:24:01.987Z</time></trkpt><trkpt lat="44.85461" lon="9.4967933"><ele>360.0</ele><time>2026-03-26T14:24:02.987Z</time></trkpt><trkpt lat="44.8545867" lon="9.4969383"><ele>360.0</ele><time>2026-03-26T14:24:03.986Z</time></trkpt><trkpt lat="44.8545717" lon="9.4970833"><ele>360.0</ele><time>2026-03-26T14:24:04.986Z</time></trkpt><trkpt lat="44.854575" lon="9.49722"><ele>360.0</ele><time>2026-03-26T14:24:05.987Z</time></trkpt><trkpt lat="44.8545983" lon="9.4973617"><ele>360.0</ele><time>2026-03-26T14:24:06.987Z</time></trkpt><trkpt lat="44.8546233" lon="9.4975033"><ele>360.0</ele><time>2026-03-26T14:24:07.987Z</time></trkpt><trkpt lat="44.8546483" lon="9.4976333"><ele>359.6666666666667</ele><time>2026-03-26T14:24:08.987Z</time></trkpt><trkpt lat="44.8546733" lon="9.4977533"><ele>359.3333333333333</ele><time>2026-03-26T14:24:09.986Z</time></trkpt><trkpt lat="44.854705" lon="9.4978667"><ele>359.0</ele><time>2026-03-26T14:24:10.987Z</time></trkpt><trkpt lat="44.8547467" lon="9.497975"><ele>358.66666666666663</ele><time>2026-03-26T14:24:11.987Z</time></trkpt><trkpt lat="44.8548017" lon="9.4980783"><ele>358.3333333333333</ele><time>2026-03-26T14:24:12.986Z</time></trkpt><trkpt lat="44.8548533" lon="9.498185"><ele>358.0</ele><time>2026-03-26T14:24:13.987Z</time></trkpt><trkpt lat="44.8549033" lon="9.4983017"><ele>356.66666666666663</ele><time>2026-03-26T14:24:14.986Z</time></trkpt><trkpt lat="44.8549333" lon="9.4984217"><ele>355.3333333333333</ele><time>2026-03-26T14:24:15.986Z</time></trkpt><trkpt lat="44.854955" lon="9.4985317"><ele>354.0</ele><time>2026-03-26T14:24:16.986Z</time></trkpt><trkpt lat="44.8549717" lon="9.4986267"><ele>352.6666666666667</ele><time>2026-03-26T14:24:17.988Z</time></trkpt><trkpt lat="44.8549933" lon="9.4987867"><ele>351.33333333333337</ele><time>2026-03-26T14:24:19.987Z</time></trkpt><trkpt lat="44.8550167" lon="9.4988867"><ele>350.0</ele><time>2026-03-26T14:24:22.987Z</time></trkpt><trkpt lat="44.855045" lon="9.4989733"><ele>348.83333333333337</ele><time>2026-03-26T14:24:43.988Z</time></trkpt><trkpt lat="44.85509" lon="9.499105"><ele>347.6666666666667</ele><time>2026-03-26T14:24:45.987Z</time></trkpt><trkpt lat="44.8551283" lon="9.49925"><ele>346.5</ele><time>2026-03-26T14:24:47.986Z</time></trkpt><trkpt lat="44.8551583" lon="9.4993317"><ele>345.3333333333333</ele><time>2026-03-26T14:24:48.987Z</time></trkpt><trkpt lat="44.85519" lon="9.4994117"><ele>344.16666666666663</ele><time>2026-03-26T14:24:49.988Z</time></trkpt><trkpt lat="44.855225" lon="9.499495"><ele>343.0</ele><time>2026-03-26T14:24:50.987Z</time></trkpt><trkpt lat="44.855255" lon="9.4995833"><ele>340.57142857142856</ele><time>2026-03-26T14:24:51.987Z</time></trkpt><trkpt lat="44.85527" lon="9.499685"><ele>338.1428571428571</ele><time>2026-03-26T14:24:52.987Z</time></trkpt><trkpt lat="44.8552633" lon="9.4997867"><ele>335.7142857142857</ele><time>2026-03-26T14:24:53.986Z</time></trkpt><trkpt lat="44.85525" lon="9.4998783"><ele>333.2857142857143</ele><time>2026-03-26T14:24:54.987Z</time></trkpt><trkpt lat="44.8552183" lon="9.4999717"><ele>330.85714285714283</ele><time>2026-03-26T14:24:55.985Z</time></trkpt><trkpt lat="44.8551867" lon="9.5000667"><ele>328.42857142857144</ele><time>2026-03-26T14:24:56.987Z</time></trkpt><trkpt lat="44.8551733" lon="9.5001683"><ele>326.0</ele><time>2026-03-26T14:24:57.986Z</time></trkpt><trkpt lat="44.8551617" lon="9.5002683"><ele>326.0</ele><time>2026-03-26T14:24:58.987Z</time></trkpt><trkpt lat="44.855165" lon="9.50037"><ele>326.0</ele><time>2026-03-26T14:24:59.986Z</time></trkpt><trkpt lat="44.8551717" lon="9.5004783"><ele>326.0</ele><time>2026-03-26T14:25:00.986Z</time></trkpt><trkpt lat="44.85518" lon="9.5005917"><ele>326.0</ele><time>2026-03-26T14:25:01.987Z</time></trkpt><trkpt lat="44.8551867" lon="9.5007017"><ele>326.0</ele><time>2026-03-26T14:25:02.987Z</time></trkpt><trkpt lat="44.8551917" lon="9.500795"><ele>326.0</ele><time>2026-03-26T14:25:03.986Z</time></trkpt><trkpt lat="44.8552" lon="9.50089"><ele>326.0</ele><time>2026-03-26T14:25:04.987Z</time></trkpt><trkpt lat="44.855205" lon="9.5009833"><ele>323.0</ele><time>2026-03-26T14:25:05.987Z</time></trkpt><trkpt lat="44.85518" lon="9.5011517"><ele>320.0</ele><time>2026-03-26T14:25:07.987Z</time></trkpt><trkpt lat="44.8551083" lon="9.5012867"><ele>317.0</ele><time>2026-03-26T14:25:09.986Z</time></trkpt><trkpt lat="44.8550617" lon="9.5014233"><ele>314.0</ele><time>2026-03-26T14:25:11.987Z</time></trkpt><trkpt lat="44.855015" lon="9.5015617"><ele>313.8</ele><time>2026-03-26T14:25:13.986Z</time></trkpt><trkpt lat="44.8549417" lon="9.50166"><ele>313.59999999999997</ele><time>2026-03-26T14:25:15.986Z</time></trkpt><trkpt lat="44.85487" lon="9.5017683"><ele>313.4</ele><time>2026-03-26T14:25:17.987Z</time></trkpt><trkpt lat="44.854795" lon="9.501895"><ele>313.2</ele><time>2026-03-26T14:25:19.988Z</time></trkpt><trkpt lat="44.8547133" lon="9.502"><ele>313.0</ele><time>2026-03-26T14:25:21.985Z</time></trkpt><trkpt lat="44.8546567" lon="9.5021233"><ele>311.2</ele><time>2026-03-26T14:25:23.987Z</time></trkpt><trkpt lat="44.8546217" lon="9.5022833"><ele>309.4</ele><time>2026-03-26T14:25:25.988Z</time></trkpt><trkpt lat="44.8546317" lon="9.5024533"><ele>307.59999999999997</ele><time>2026-03-26T14:25:27.986Z</time></trkpt><trkpt lat="44.85464" lon="9.5025433"><ele>305.8</ele><time>2026-03-26T14:25:28.987Z</time></trkpt><trkpt lat="44.8546117" lon="9.5026633"><ele>304.0</ele><time>2026-03-26T14:25:30.987Z</time></trkpt><trkpt lat="44.8545133" lon="9.5026817"><ele>304.0</ele><time>2026-03-26T14:25:32.987Z</time></trkpt><trkpt lat="44.854425" lon="9.5027"><ele>304.0</ele><time>2026-03-26T14:25:34.985Z</time></trkpt><trkpt lat="44.8543383" lon="9.502735"><ele>304.0</ele><time>2026-03-26T14:25:36.986Z</time></trkpt><trkpt lat="44.854235" lon="9.5027933"><ele>304.0</ele><time>2026-03-26T14:25:38.987Z</time></trkpt><trkpt lat="44.85417" lon="9.5028317"><ele>304.0</ele><time>2026-03-26T14:25:39.986Z</time></trkpt><trkpt lat="44.8541133" lon="9.50288"><ele>304.0</ele><time>2026-03-26T14:25:40.986Z</time></trkpt><trkpt lat="44.8540483" lon="9.50303"><ele>300.59999999999997</ele><time>2026-03-26T14:25:42.986Z</time></trkpt><trkpt lat="44.854035" lon="9.5031183"><ele>297.2</ele><time>2026-03-26T14:25:43.986Z</time></trkpt><trkpt lat="44.8540383" lon="9.5032767"><ele>293.79999999999995</ele><time>2026-03-26T14:25:45.985Z</time></trkpt><trkpt lat="44.8540733" lon="9.5033917"><ele>290.4</ele><time>2026-03-26T14:25:47.985Z</time></trkpt><trkpt lat="44.8541033" lon="9.5034983"><ele>287.0</ele><time>2026-03-26T14:25:49.987Z</time></trkpt><trkpt lat="44.85414" lon="9.5036383"><ele>286.33333333333337</ele><time>2026-03-26T14:25:51.986Z</time></trkpt><trkpt lat="44.8541867" lon="9.5037967"><ele>285.6666666666667</ele><time>2026-03-26T14:25:53.985Z</time></trkpt><trkpt lat="44.8542133" lon="9.5038833"><ele>285.0</ele><time>2026-03-26T14:25:54.986Z</time></trkpt><trkpt lat="44.854235" lon="9.5039867"><ele>284.3333333333333</ele><time>2026-03-26T14:25:55.987Z</time></trkpt><trkpt lat="44.8542633" lon="9.5041"><ele>283.66666666666663</ele><time>2026-03-26T14:25:56.986Z</time></trkpt><trkpt lat="44.8543" lon="9.504215"><ele>283.0</ele><time>2026-03-26T14:25:57.987Z</time></trkpt><trkpt lat="44.8543433" lon="9.5043217"><ele>283.0</ele><time>2026-03-26T14:25:58.987Z</time></trkpt><trkpt lat="44.8543883" lon="9.5044267"><ele>283.0</ele><time>2026-03-26T14:25:59.987Z</time></trkpt><trkpt lat="44.85443" lon="9.50453"><ele>283.0</ele><time>2026-03-26T14:26:00.986Z</time></trkpt><trkpt lat="44.85447" lon="9.504635"><ele>283.0</ele><time>2026-03-26T14:26:01.986Z</time></trkpt><trkpt lat="44.85451" lon="9.5047483"><ele>283.0</ele><time>2026-03-26T14:26:02.986Z</time></trkpt><trkpt lat="44.854555" lon="9.504865"><ele>283.0</ele><time>2026-03-26T14:26:03.986Z</time></trkpt><trkpt lat="44.854605" lon="9.5049817"><ele>279.8</ele><time>2026-03-26T14:26:04.986Z</time></trkpt><trkpt lat="44.8546467" lon="9.5051"><ele>276.6</ele><time>2026-03-26T14:26:05.987Z</time></trkpt><trkpt lat="44.8546917" lon="9.5052183"><ele>273.4</ele><time>2026-03-26T14:26:06.986Z</time></trkpt><trkpt lat="44.8547367" lon="9.5053383"><ele>270.2</ele><time>2026-03-26T14:26:07.987Z</time></trkpt><trkpt lat="44.85478" lon="9.5054583"><ele>267.0</ele><time>2026-03-26T14:26:08.988Z</time></trkpt><trkpt lat="44.8548217" lon="9.5055683"><ele>264.2</ele><time>2026-03-26T14:26:09.985Z</time></trkpt><trkpt lat="44.854875" lon="9.5056733"><ele>261.4</ele><time>2026-03-26T14:26:10.986Z</time></trkpt><trkpt lat="44.854935" lon="9.5057767"><ele>258.6</ele><time>2026-03-26T14:26:11.987Z</time></trkpt><trkpt lat="44.854995" lon="9.5058833"><ele>255.8</ele><time>2026-03-26T14:26:12.986Z</time></trkpt><trkpt lat="44.8550567" lon="9.5059817"><ele>253.0</ele><time>2026-03-26T14:26:13.986Z</time></trkpt><trkpt lat="44.8551283" lon="9.506055"><ele>251.49999999999997</ele><time>2026-03-26T14:26:14.987Z</time></trkpt><trkpt lat="44.8552" lon="9.506115"><ele>250.0</ele><time>2026-03-26T14:26:15.985Z</time></trkpt><trkpt lat="44.8552683" lon="9.5061783"><ele>248.5</ele><time>2026-03-26T14:26:16.987Z</time></trkpt><trkpt lat="44.855335" lon="9.5062583"><ele>247.0</ele><time>2026-03-26T14:26:17.987Z</time></trkpt><trkpt lat="44.8553967" lon="9.5063383"><ele>245.49999999999997</ele><time>2026-03-26T14:26:18.986Z</time></trkpt><trkpt lat="44.855445" lon="9.506415"><ele>244.0</ele><time>2026-03-26T14:26:19.987Z</time></trkpt><trkpt lat="44.855495" lon="9.50656"><ele>243.83333333333331</ele><time>2026-03-26T14:26:21.986Z</time></trkpt><trkpt lat="44.8554817" lon="9.5066533"><ele>243.66666666666666</ele><time>2026-03-26T14:26:23.986Z</time></trkpt><trkpt lat="44.85549" lon="9.5067683"><ele>243.5</ele><time>2026-03-26T14:26:26.987Z</time></trkpt><trkpt lat="44.85549" lon="9.506875"><ele>243.33333333333331</ele><time>2026-03-26T14:26:28.985Z</time></trkpt><trkpt lat="44.8554467" lon="9.5069517"><ele>243.16666666666666</ele><time>2026-03-26T14:26:30.986Z</time></trkpt><trkpt lat="44.8553883" lon="9.5070333"><ele>243.0</ele><time>2026-03-26T14:26:32.987Z</time></trkpt><trkpt lat="44.8553317" lon="9.5071517"><ele>243.0</ele><time>2026-03-26T14:26:34.986Z</time></trkpt><trkpt lat="44.855245" lon="9.50729"><ele>243.0</ele><time>2026-03-26T14:26:36.987Z</time></trkpt><trkpt lat="44.8552" lon="9.5073783"><ele>243.0</ele><time>2026-03-26T14:26:37.986Z</time></trkpt><trkpt lat="44.855155" lon="9.5074733"><ele>243.0</ele><time>2026-03-26T14:26:38.987Z</time></trkpt><trkpt lat="44.85511" lon="9.5075583"><ele>243.0</ele><time>2026-03-26T14:26:39.986Z</time></trkpt><trkpt lat="44.8550683" lon="9.507645"><ele>243.0</ele><time>2026-03-26T14:26:40.986Z</time></trkpt><trkpt lat="44.8550317" lon="9.50773"><ele>241.83333333333334</ele><time>2026-03-26T14:26:41.987Z</time></trkpt><trkpt lat="44.854995" lon="9.5078267"><ele>240.66666666666669</ele><time>2026-03-26T14:26:42.985Z</time></trkpt><trkpt lat="44.8549567" lon="9.5079183"><ele>239.5</ele><time>2026-03-26T14:26:43.986Z</time></trkpt><trkpt lat="44.8549117" lon="9.5079967"><ele>238.33333333333334</ele><time>2026-03-26T14:26:44.987Z</time></trkpt><trkpt lat="44.8548483" lon="9.5081433"><ele>237.16666666666669</ele><time>2026-03-26T14:26:46.986Z</time></trkpt><trkpt lat="44.8548317" lon="9.5082417"><ele>236.0</ele><time>2026-03-26T14:26:47.986Z</time></trkpt><trkpt lat="44.85481" lon="9.5083633"><ele>236.00000000000003</ele><time>2026-03-26T14:26:48.986Z</time></trkpt><trkpt lat="44.8547917" lon="9.50848"><ele>236.0</ele><time>2026-03-26T14:26:49.986Z</time></trkpt><trkpt lat="44.85476" lon="9.50858"><ele>236.0</ele><time>2026-03-26T14:26:50.986Z</time></trkpt><trkpt lat="44.8547217" lon="9.50867"><ele>236.0</ele><time>2026-03-26T14:26:51.986Z</time></trkpt><trkpt lat="44.8546717" lon="9.508745"><ele>236.00000000000003</ele><time>2026-03-26T14:26:52.987Z</time></trkpt><trkpt lat="44.8546183" lon="9.508815"><ele>236.0</ele><time>2026-03-26T14:26:53.986Z</time></trkpt><trkpt lat="44.8545767" lon="9.50891"><ele>235.83333333333334</ele><time>2026-03-26T14:26:54.986Z</time></trkpt><trkpt lat="44.85455" lon="9.5090167"><ele>235.66666666666669</ele><time>2026-03-26T14:26:55.986Z</time></trkpt><trkpt lat="44.8545217" lon="9.5091167"><ele>235.5</ele><time>2026-03-26T14:26:56.987Z</time></trkpt><trkpt lat="44.854495" lon="9.5092033"><ele>235.33333333333331</ele><time>2026-03-26T14:26:57.986Z</time></trkpt><trkpt lat="44.8544417" lon="9.50935"><ele>235.16666666666666</ele><time>2026-03-26T14:26:59.987Z</time></trkpt><trkpt lat="44.8543867" lon="9.509425"><ele>235.0</ele><time>2026-03-26T14:27:01.986Z</time></trkpt><trkpt lat="44.8543133" lon="9.5094817"><ele>235.4</ele><time>2026-03-26T14:27:04.986Z</time></trkpt><trkpt lat="44.8542533" lon="9.509545"><ele>235.8</ele><time>2026-03-26T14:27:06.985Z</time></trkpt><trkpt lat="44.8541717" lon="9.5096267"><ele>236.2</ele><time>2026-03-26T14:27:08.986Z</time></trkpt><trkpt lat="44.85407" lon="9.5096733"><ele>236.6</ele><time>2026-03-26T14:27:10.985Z</time></trkpt><trkpt lat="44.85398" lon="9.509715"><ele>237.0</ele><time>2026-03-26T14:27:12.986Z</time></trkpt><trkpt lat="44.853905" lon="9.5097333"><ele>235.83333333333334</ele><time>2026-03-26T14:27:14.986Z</time></trkpt><trkpt lat="44.85381" lon="9.5097267"><ele>234.66666666666669</ele><time>2026-03-26T14:27:16.986Z</time></trkpt><trkpt lat="44.8536967" lon="9.509745"><ele>233.5</ele><time>2026-03-26T14:27:18.985Z</time></trkpt><trkpt lat="44.8536283" lon="9.5097667"><ele>232.33333333333334</ele><time>2026-03-26T14:27:19.987Z</time></trkpt><trkpt lat="44.8535483" lon="9.5097867"><ele>231.16666666666669</ele><time>2026-03-26T14:27:20.987Z</time></trkpt><trkpt lat="44.85347" lon="9.509815"><ele>230.0</ele><time>2026-03-26T14:27:21.986Z</time></trkpt><trkpt lat="44.8533933" lon="9.5098517"><ele>232.1428571428571</ele><time>2026-03-26T14:27:22.988Z</time></trkpt><trkpt lat="44.8533267" lon="9.5098983"><ele>234.28571428571428</ele><time>2026-03-26T14:27:23.987Z</time></trkpt><trkpt lat="44.8532767" lon="9.509965"><ele>236.42857142857142</ele><time>2026-03-26T14:27:24.986Z</time></trkpt><trkpt lat="44.853245" lon="9.5100517"><ele>238.57142857142856</ele><time>2026-03-26T14:27:25.987Z</time></trkpt><trkpt lat="44.8532083" lon="9.5101317"><ele>240.71428571428572</ele><time>2026-03-26T14:27:26.987Z</time></trkpt><trkpt lat="44.8531367" lon="9.5102"><ele>242.85714285714286</ele><time>2026-03-26T14:27:28.986Z</time></trkpt><trkpt lat="44.85306" lon="9.5102333"><ele>245.0</ele><time>2026-03-26T14:27:30.986Z</time></trkpt><trkpt lat="44.8529783" lon="9.5102717"><ele>245.00000000000003</ele><time>2026-03-26T14:27:32.987Z</time></trkpt><trkpt lat="44.8528933" lon="9.5103067"><ele>245.0</ele><time>2026-03-26T14:27:34.986Z</time></trkpt><trkpt lat="44.85283" lon="9.5103367"><ele>245.0</ele><time>2026-03-26T14:27:36.986Z</time></trkpt><trkpt lat="44.8527483" lon="9.5103683"><ele>245.0</ele><time>2026-03-26T14:27:39.986Z</time></trkpt><trkpt lat="44.8526483" lon="9.5103867"><ele>245.00000000000003</ele><time>2026-03-26T14:27:41.986Z</time></trkpt><trkpt lat="44.8525833" lon="9.5104133"><ele>245.0</ele><time>2026-03-26T14:27:42.986Z</time></trkpt><trkpt lat="44.8525217" lon="9.510445"><ele>245.16666666666669</ele><time>2026-03-26T14:27:43.986Z</time></trkpt><trkpt lat="44.85246" lon="9.5104883"><ele>245.33333333333334</ele><time>2026-03-26T14:27:44.986Z</time></trkpt><trkpt lat="44.8523567" lon="9.5105383"><ele>245.5</ele><time>2026-03-26T14:27:46.986Z</time></trkpt><trkpt lat="44.852245" lon="9.5105317"><ele>245.66666666666669</ele><time>2026-03-26T14:27:48.986Z</time></trkpt><trkpt lat="44.85218" lon="9.5105317"><ele>245.83333333333334</ele><time>2026-03-26T14:27:49.986Z</time></trkpt><trkpt lat="44.8521117" lon="9.5105483"><ele>246.0</ele><time>2026-03-26T14:27:50.987Z</time></trkpt><trkpt lat="44.852025" lon="9.510585"><ele>246.0</ele><time>2026-03-26T14:27:51.986Z</time></trkpt><trkpt lat="44.851935" lon="9.51065"><ele>246.00000000000003</ele><time>2026-03-26T14:27:52.987Z</time></trkpt><trkpt lat="44.8518467" lon="9.5107317"><ele>246.00000000000003</ele><time>2026-03-26T14:27:53.987Z</time></trkpt><trkpt lat="44.8517733" lon="9.5108133"><ele>246.0</ele><time>2026-03-26T14:27:54.986Z</time></trkpt><trkpt lat="44.8517117" lon="9.510895"><ele>246.0</ele><time>2026-03-26T14:27:55.987Z</time></trkpt><trkpt lat="44.85166" lon="9.510985"><ele>249.60000000000002</ele><time>2026-03-26T14:27:56.987Z</time></trkpt><trkpt lat="44.85163" lon="9.5110683"><ele>253.20000000000002</ele><time>2026-03-26T14:27:57.986Z</time></trkpt><trkpt lat="44.8516317" lon="9.51122"><ele>256.79999999999995</ele><time>2026-03-26T14:27:59.987Z</time></trkpt><trkpt lat="44.8516517" lon="9.511395"><ele>260.4</ele><time>2026-03-26T14:28:01.986Z</time></trkpt><trkpt lat="44.8516567" lon="9.5115567"><ele>264.0</ele><time>2026-03-26T14:28:03.986Z</time></trkpt><trkpt lat="44.8516583" lon="9.5117017"><ele>264.0</ele><time>2026-03-26T14:28:05.987Z</time></trkpt><trkpt lat="44.851635" lon="9.51179"><ele>264.0</ele><time>2026-03-26T14:28:06.986Z</time></trkpt><trkpt lat="44.851615" lon="9.5118767"><ele>264.0</ele><time>2026-03-26T14:28:07.986Z</time></trkpt><trkpt lat="44.8515767" lon="9.5120067"><ele>264.0</ele><time>2026-03-26T14:28:09.985Z</time></trkpt><trkpt lat="44.8514983" lon="9.512035"><ele>264.0</ele><time>2026-03-26T14:28:11.986Z</time></trkpt><trkpt lat="44.85143" lon="9.5120083"><ele>264.0</ele><time>2026-03-26T14:28:12.989Z</time></trkpt><trkpt lat="44.8513483" lon="9.51199"><ele>264.0</ele><time>2026-03-26T14:28:13.987Z</time></trkpt><trkpt lat="44.851265" lon="9.5119783"><ele>264.0</ele><time>2026-03-26T14:28:14.986Z</time></trkpt><trkpt lat="44.8511883" lon="9.51198"><ele>264.0</ele><time>2026-03-26T14:28:15.986Z</time></trkpt><trkpt lat="44.8510717" lon="9.5120267"><ele>264.0</ele><time>2026-03-26T14:28:17.986Z</time></trkpt><trkpt lat="44.8509733" lon="9.5121417"><ele>264.0</ele><time>2026-03-26T14:28:19.987Z</time></trkpt><trkpt lat="44.8509133" lon="9.5122317"><ele>266.0</ele><time>2026-03-26T14:28:20.986Z</time></trkpt><trkpt lat="44.85085" lon="9.512345"><ele>268.0</ele><time>2026-03-26T14:28:21.985Z</time></trkpt><trkpt lat="44.850785" lon="9.5124467"><ele>270.0</ele><time>2026-03-26T14:28:22.987Z</time></trkpt><trkpt lat="44.8507267" lon="9.512535"><ele>272.0</ele><time>2026-03-26T14:28:23.987Z</time></trkpt><trkpt lat="44.8506783" lon="9.5126117"><ele>274.0</ele><time>2026-03-26T14:28:24.986Z</time></trkpt><trkpt lat="44.850635" lon="9.5126933"><ele>276.0</ele><time>2026-03-26T14:28:25.987Z</time></trkpt><trkpt lat="44.8506317" lon="9.5127933"><ele>276.0</ele><time>2026-03-26T14:28:26.986Z</time></trkpt><trkpt lat="44.850665" lon="9.5128967"><ele>276.0</ele><time>2026-03-26T14:28:27.985Z</time></trkpt><trkpt lat="44.8507" lon="9.5130217"><ele>276.0</ele><time>2026-03-26T14:28:28.986Z</time></trkpt><trkpt lat="44.85071" lon="9.51314"><ele>276.0</ele><time>2026-03-26T14:28:29.986Z</time></trkpt><trkpt lat="44.8507017" lon="9.5132617"><ele>276.0</ele><time>2026-03-26T14:28:30.984Z</time></trkpt><trkpt lat="44.8506733" lon="9.5133833"><ele>276.0</ele><time>2026-03-26T14:28:31.987Z</time></trkpt><trkpt lat="44.85063" lon="9.5135117"><ele>276.0</ele><time>2026-03-26T14:28:32.988Z</time></trkpt><trkpt lat="44.8505883" lon="9.513635"><ele>276.0</ele><time>2026-03-26T14:28:33.986Z</time></trkpt><trkpt lat="44.8505467" lon="9.5137467"><ele>276.0</ele><time>2026-03-26T14:28:34.987Z</time></trkpt><trkpt lat="44.8505217" lon="9.513845"><ele>276.0</ele><time>2026-03-26T14:28:35.987Z</time></trkpt><trkpt lat="44.8505083" lon="9.5139367"><ele>276.0</ele><time>2026-03-26T14:28:36.986Z</time></trkpt><trkpt lat="44.850485" lon="9.5140883"><ele>276.0</ele><time>2026-03-26T14:28:38.988Z</time></trkpt><trkpt lat="44.8504538" lon="9.5142288"><ele>274.2</ele><time>2026-03-26T14:28:40.986Z</time></trkpt><trkpt lat="44.8503988" lon="9.5143598"><ele>272.40000000000003</ele><time>2026-03-26T14:28:42.985Z</time></trkpt><trkpt lat="44.850296" lon="9.5144269"><ele>270.6</ele><time>2026-03-26T14:28:44.988Z</time></trkpt><trkpt lat="44.8502238" lon="9.5144532"><ele>268.8</ele><time>2026-03-26T14:28:45.986Z</time></trkpt><trkpt lat="44.8501455" lon="9.514488"><ele>267.0</ele><time>2026-03-26T14:28:46.987Z</time></trkpt><trkpt lat="44.8500742" lon="9.5145363"><ele>272.3333333333333</ele><time>2026-03-26T14:28:47.986Z</time></trkpt><trkpt lat="44.8500135" lon="9.5145884"><ele>277.6666666666667</ele><time>2026-03-26T14:28:48.985Z</time></trkpt><trkpt lat="44.8499584" lon="9.5146528"><ele>283.0</ele><time>2026-03-26T14:28:49.985Z</time></trkpt><trkpt lat="44.8499068" lon="9.5147269"><ele>288.33333333333337</ele><time>2026-03-26T14:28:50.987Z</time></trkpt><trkpt lat="44.8498505" lon="9.5148056"><ele>293.6666666666667</ele><time>2026-03-26T14:28:51.986Z</time></trkpt><trkpt lat="44.8497894" lon="9.5148907"><ele>299.0</ele><time>2026-03-26T14:28:52.988Z</time></trkpt><trkpt lat="44.8497209" lon="9.5149557"><ele>299.0</ele><time>2026-03-26T14:28:53.987Z</time></trkpt><trkpt lat="44.8496567" lon="9.515019"><ele>299.0</ele><time>2026-03-26T14:28:54.986Z</time></trkpt><trkpt lat="44.8496007" lon="9.5150645"><ele>299.0</ele><time>2026-03-26T14:28:55.986Z</time></trkpt><trkpt lat="44.8495326" lon="9.5151366"><ele>299.0</ele><time>2026-03-26T14:28:57.986Z</time></trkpt><trkpt lat="44.8494641" lon="9.5152057"><ele>299.0</ele><time>2026-03-26T14:28:59.986Z</time></trkpt><trkpt lat="44.8493756" lon="9.5153109"><ele>299.0</ele><time>2026-03-26T14:29:01.987Z</time></trkpt><trkpt lat="44.8493168" lon="9.5154224"><ele>296.83333333333337</ele><time>2026-03-26T14:29:03.985Z</time></trkpt><trkpt lat="44.8492873" lon="9.5155441"><ele>294.6666666666667</ele><time>2026-03-26T14:29:05.987Z</time></trkpt><trkpt lat="44.8493026" lon="9.5156734"><ele>292.5</ele><time>2026-03-26T14:29:07.987Z</time></trkpt><trkpt lat="44.8493231" lon="9.5157613"><ele>290.3333333333333</ele><time>2026-03-26T14:29:08.987Z</time></trkpt><trkpt lat="44.8493611" lon="9.5158719"><ele>288.16666666666663</ele><time>2026-03-26T14:29:09.986Z</time></trkpt><trkpt lat="44.8493918" lon="9.5159885"><ele>286.0</ele><time>2026-03-26T14:29:10.987Z</time></trkpt><trkpt lat="44.8494156" lon="9.5161024"><ele>286.0</ele><time>2026-03-26T14:29:11.986Z</time></trkpt><trkpt lat="44.8494278" lon="9.5162201"><ele>286.0</ele><time>2026-03-26T14:29:12.987Z</time></trkpt><trkpt lat="44.8494221" lon="9.5163409"><ele>286.0</ele><time>2026-03-26T14:29:13.986Z</time></trkpt><trkpt lat="44.8494035" lon="9.5164728"><ele>286.0</ele><time>2026-03-26T14:29:14.987Z</time></trkpt><trkpt lat="44.8493955" lon="9.516629"><ele>286.0</ele><time>2026-03-26T14:29:15.986Z</time></trkpt><trkpt lat="44.8493994" lon="9.5167798"><ele>284.16666666666663</ele><time>2026-03-26T14:29:16.986Z</time></trkpt><trkpt lat="44.8494059" lon="9.5169171"><ele>282.3333333333333</ele><time>2026-03-26T14:29:17.986Z</time></trkpt><trkpt lat="44.8494085" lon="9.5170331"><ele>280.5</ele><time>2026-03-26T14:29:18.985Z</time></trkpt><trkpt lat="44.8494044" lon="9.5171453"><ele>278.6666666666667</ele><time>2026-03-26T14:29:19.985Z</time></trkpt><trkpt lat="44.8493785" lon="9.5172468"><ele>276.83333333333337</ele><time>2026-03-26T14:29:20.987Z</time></trkpt><trkpt lat="44.8493587" lon="9.5173571"><ele>275.0</ele><time>2026-03-26T14:29:21.986Z</time></trkpt><trkpt lat="44.8493405" lon="9.5174697"><ele>273.6666666666667</ele><time>2026-03-26T14:29:22.986Z</time></trkpt><trkpt lat="44.8493174" lon="9.5175842"><ele>272.33333333333337</ele><time>2026-03-26T14:29:23.985Z</time></trkpt><trkpt lat="44.8492974" lon="9.5177019"><ele>271.0</ele><time>2026-03-26T14:29:24.986Z</time></trkpt><trkpt lat="44.8492805" lon="9.5178204"><ele>269.6666666666667</ele><time>2026-03-26T14:29:25.986Z</time></trkpt><trkpt lat="44.8492629" lon="9.5179388"><ele>268.3333333333333</ele><time>2026-03-26T14:29:26.987Z</time></trkpt><trkpt lat="44.8492482" lon="9.5180556"><ele>267.0</ele><time>2026-03-26T14:29:27.986Z</time></trkpt><trkpt lat="44.8492293" lon="9.5181771"><ele>268.8333333333333</ele><time>2026-03-26T14:29:28.985Z</time></trkpt><trkpt lat="44.8492117" lon="9.5182996"><ele>270.6666666666667</ele><time>2026-03-26T14:29:29.987Z</time></trkpt><trkpt lat="44.8491921" lon="9.5184217"><ele>272.5</ele><time>2026-03-26T14:29:30.986Z</time></trkpt><trkpt lat="44.8491773" lon="9.5185479"><ele>274.33333333333337</ele><time>2026-03-26T14:29:31.987Z</time></trkpt><trkpt lat="44.8491571" lon="9.5186714"><ele>276.1666666666667</ele><time>2026-03-26T14:29:32.986Z</time></trkpt><trkpt lat="44.8491312" lon="9.5187872"><ele>278.0</ele><time>2026-03-26T14:29:33.986Z</time></trkpt><trkpt lat="44.8491033" lon="9.5189029"><ele>278.0</ele><time>2026-03-26T14:29:34.987Z</time></trkpt><trkpt lat="44.849084" lon="9.5190049"><ele>278.0</ele><time>2026-03-26T14:29:35.986Z</time></trkpt><trkpt lat="44.8490811" lon="9.5190971"><ele>278.0</ele><time>2026-03-26T14:29:36.985Z</time></trkpt><trkpt lat="44.8490873" lon="9.5191891"><ele>278.0</ele><time>2026-03-26T14:29:37.986Z</time></trkpt><trkpt lat="44.8490974" lon="9.5192874"><ele>278.0</ele><time>2026-03-26T14:29:38.986Z</time></trkpt><trkpt lat="44.8491048" lon="9.5193783"><ele>278.0</ele><time>2026-03-26T14:29:39.986Z</time></trkpt><trkpt lat="44.8491223" lon="9.5194714"><ele>278.0</ele><time>2026-03-26T14:29:40.985Z</time></trkpt><trkpt lat="44.8491329" lon="9.5195629"><ele>275.6</ele><time>2026-03-26T14:29:41.986Z</time></trkpt><trkpt lat="44.8491071" lon="9.5197111"><ele>273.20000000000005</ele><time>2026-03-26T14:29:43.986Z</time></trkpt><trkpt lat="44.8490733" lon="9.5197965"><ele>270.8</ele><time>2026-03-26T14:29:44.987Z</time></trkpt><trkpt lat="44.849029" lon="9.5198966"><ele>268.40000000000003</ele><time>2026-03-26T14:29:45.985Z</time></trkpt><trkpt lat="44.848977" lon="9.5200123"><ele>266.0</ele><time>2026-03-26T14:29:46.987Z</time></trkpt><trkpt lat="44.8489193" lon="9.5201338"><ele>266.0</ele><time>2026-03-26T14:29:47.987Z</time></trkpt><trkpt lat="44.848856" lon="9.5202546"><ele>266.0</ele><time>2026-03-26T14:29:48.987Z</time></trkpt><trkpt lat="44.8487866" lon="9.5203783"><ele>266.0</ele><time>2026-03-26T14:29:49.987Z</time></trkpt><trkpt lat="44.8487186" lon="9.5204972"><ele>266.0</ele><time>2026-03-26T14:29:50.987Z</time></trkpt><trkpt lat="44.8486581" lon="9.5205962"><ele>266.0</ele><time>2026-03-26T14:29:51.986Z</time></trkpt><trkpt lat="44.8486078" lon="9.5206729"><ele>265.5</ele><time>2026-03-26T14:29:52.987Z</time></trkpt><trkpt lat="44.8485331" lon="9.5207778"><ele>265.0</ele><time>2026-03-26T14:29:54.986Z</time></trkpt><trkpt lat="44.8484893" lon="9.5208642"><ele>264.5</ele><time>2026-03-26T14:29:57.986Z</time></trkpt><trkpt lat="44.8484799" lon="9.5209535"><ele>264.0</ele><time>2026-03-26T14:30:28.987Z</time></trkpt><trkpt lat="44.8484743" lon="9.5210918"><ele>263.5</ele><time>2026-03-26T14:30:30.987Z</time></trkpt><trkpt lat="44.8484689" lon="9.5211898"><ele>263.0</ele><time>2026-03-26T14:30:31.988Z</time></trkpt><trkpt lat="44.8484587" lon="9.5213072"><ele>262.6</ele><time>2026-03-26T14:30:32.988Z</time></trkpt><trkpt lat="44.848448" lon="9.5214442"><ele>262.20000000000005</ele><time>2026-03-26T14:30:33.987Z</time></trkpt><trkpt lat="44.8484497" lon="9.5215975"><ele>261.8</ele><time>2026-03-26T14:30:34.987Z</time></trkpt><trkpt lat="44.848474" lon="9.5217545"><ele>261.40000000000003</ele><time>2026-03-26T14:30:35.988Z</time></trkpt><trkpt lat="44.848518" lon="9.5219198"><ele>261.0</ele><time>2026-03-26T14:30:36.987Z</time></trkpt><trkpt lat="44.8485714" lon="9.5220958"><ele>258.75</ele><time>2026-03-26T14:30:37.988Z</time></trkpt><trkpt lat="44.8486275" lon="9.5222677"><ele>256.5</ele><time>2026-03-26T14:30:38.988Z</time></trkpt><trkpt lat="44.84868" lon="9.5224366"><ele>254.25</ele><time>2026-03-26T14:30:39.987Z</time></trkpt><trkpt lat="44.8487281" lon="9.5225966"><ele>252.0</ele><time>2026-03-26T14:30:40.988Z</time></trkpt><trkpt lat="44.8487632" lon="9.5227295"><ele>252.0</ele><time>2026-03-26T14:30:41.988Z</time></trkpt><trkpt lat="44.8487889" lon="9.5228364"><ele>252.0</ele><time>2026-03-26T14:30:42.987Z</time></trkpt><trkpt lat="44.8488072" lon="9.5229764"><ele>252.0</ele><time>2026-03-26T14:30:44.988Z</time></trkpt><trkpt lat="44.8487371" lon="9.5230222"><ele>252.0</ele><time>2026-03-26T14:30:47.987Z</time></trkpt><trkpt lat="44.8486581" lon="9.522929"><ele>252.0</ele><time>2026-03-26T14:30:49.987Z</time></trkpt><trkpt lat="44.8485629" lon="9.5228356"><ele>252.0</ele><time>2026-03-26T14:30:51.988Z</time></trkpt><trkpt lat="44.8484717" lon="9.5228396"><ele>252.0</ele><time>2026-03-26T14:30:53.987Z</time></trkpt><trkpt lat="44.8484382" lon="9.5229411"><ele>252.0</ele><time>2026-03-26T14:30:55.986Z</time></trkpt><trkpt lat="44.8484267" lon="9.5230486"><ele>252.0</ele><time>2026-03-26T14:30:58.986Z</time></trkpt><trkpt lat="44.8483674" lon="9.5230139"><ele>252.0</ele><time>2026-03-26T14:31:00.987Z</time></trkpt><trkpt lat="44.8482612" lon="9.5230052"><ele>252.0</ele><time>2026-03-26T14:31:02.988Z</time></trkpt><trkpt lat="44.8482138" lon="9.5231058"><ele>248.0</ele><time>2026-03-26T14:31:04.987Z</time></trkpt><trkpt lat="44.8483072" lon="9.5232624"><ele>244.0</ele><time>2026-03-26T14:31:06.987Z</time></trkpt><trkpt lat="44.8483943" lon="9.5233657"><ele>240.0</ele><time>2026-03-26T14:31:07.988Z</time></trkpt><trkpt lat="44.8484814" lon="9.5234843"><ele>236.0</ele><time>2026-03-26T14:31:08.988Z</time></trkpt><trkpt lat="44.8485593" lon="9.5236097"><ele>231.8</ele><time>2026-03-26T14:31:09.987Z</time></trkpt><trkpt lat="44.8486312" lon="9.523732"><ele>227.60000000000002</ele><time>2026-03-26T14:31:10.987Z</time></trkpt><trkpt lat="44.8487051" lon="9.5238527"><ele>223.4</ele><time>2026-03-26T14:31:11.987Z</time></trkpt><trkpt lat="44.8487849" lon="9.5239617"><ele>219.2</ele><time>2026-03-26T14:31:12.987Z</time></trkpt><trkpt lat="44.8488698" lon="9.524057"><ele>215.0</ele><time>2026-03-26T14:31:13.987Z</time></trkpt><trkpt lat="44.8489572" lon="9.5241383"><ele>215.0</ele><time>2026-03-26T14:31:14.987Z</time></trkpt><trkpt lat="44.8490501" lon="9.524207"><ele>215.0</ele><time>2026-03-26T14:31:15.987Z</time></trkpt><trkpt lat="44.8491628" lon="9.5242654"><ele>215.0</ele><time>2026-03-26T14:31:16.987Z</time></trkpt><trkpt lat="44.8492849" lon="9.5243217"><ele>215.0</ele><time>2026-03-26T14:31:17.988Z</time></trkpt><trkpt lat="44.8494147" lon="9.5243854"><ele>212.0</ele><time>2026-03-26T14:31:18.987Z</time></trkpt><trkpt lat="44.8495429" lon="9.5244546"><ele>209.0</ele><time>2026-03-26T14:31:19.987Z</time></trkpt><trkpt lat="44.8496651" lon="9.5245257"><ele>206.0</ele><time>2026-03-26T14:31:20.987Z</time></trkpt><trkpt lat="44.8497791" lon="9.5246004"><ele>203.0</ele><time>2026-03-26T14:31:21.986Z</time></trkpt><trkpt lat="44.8498782" lon="9.5246782"><ele>200.60000000000002</ele><time>2026-03-26T14:31:22.987Z</time></trkpt><trkpt lat="44.8499566" lon="9.5247724"><ele>198.20000000000002</ele><time>2026-03-26T14:31:23.987Z</time></trkpt><trkpt lat="44.8500066" lon="9.5248806"><ele>195.8</ele><time>2026-03-26T14:31:24.987Z</time></trkpt><trkpt lat="44.8500203" lon="9.525016"><ele>193.4</ele><time>2026-03-26T14:31:25.986Z</time></trkpt><trkpt lat="44.8500012" lon="9.5251719"><ele>191.0</ele><time>2026-03-26T14:31:26.987Z</time></trkpt><trkpt lat="44.849969" lon="9.5253314"><ele>190.0</ele><time>2026-03-26T14:31:27.987Z</time></trkpt><trkpt lat="44.8499336" lon="9.5254869"><ele>189.0</ele><time>2026-03-26T14:31:28.987Z</time></trkpt><trkpt lat="44.849899" lon="9.5256446"><ele>188.0</ele><time>2026-03-26T14:31:29.987Z</time></trkpt><trkpt lat="44.849863" lon="9.5258068"><ele>187.0</ele><time>2026-03-26T14:31:30.987Z</time></trkpt><trkpt lat="44.8498259" lon="9.525976"><ele>187.0</ele><time>2026-03-26T14:31:31.987Z</time></trkpt><trkpt lat="44.8497893" lon="9.5261508"><ele>187.0</ele><time>2026-03-26T14:31:32.988Z</time></trkpt><trkpt lat="44.8497621" lon="9.5263263"><ele>187.0</ele><time>2026-03-26T14:31:33.986Z</time></trkpt><trkpt lat="44.8497453" lon="9.5264894"><ele>187.0</ele><time>2026-03-26T14:31:34.987Z</time></trkpt><trkpt lat="44.8497397" lon="9.526625"><ele>186.7142857142857</ele><time>2026-03-26T14:31:35.987Z</time></trkpt><trkpt lat="44.8497401" lon="9.5267286"><ele>186.42857142857144</ele><time>2026-03-26T14:31:36.987Z</time></trkpt><trkpt lat="44.8497393" lon="9.526825"><ele>186.14285714285714</ele><time>2026-03-26T14:31:38.987Z</time></trkpt><trkpt lat="44.849739" lon="9.5269269"><ele>185.85714285714283</ele><time>2026-03-26T14:34:19.987Z</time></trkpt><trkpt lat="44.8497354" lon="9.5270165"><ele>185.57142857142856</ele><time>2026-03-26T14:34:20.987Z</time></trkpt><trkpt lat="44.8497288" lon="9.5271207"><ele>185.28571428571428</ele><time>2026-03-26T14:34:21.99Z</time></trkpt><trkpt lat="44.8497245" lon="9.5272296"><ele>185.0</ele><time>2026-03-26T14:34:22.987Z</time></trkpt><trkpt lat="44.8497243" lon="9.5273525"><ele>184.8</ele><time>2026-03-26T14:34:23.987Z</time></trkpt><trkpt lat="44.8497192" lon="9.5274981"><ele>184.6</ele><time>2026-03-26T14:34:24.988Z</time></trkpt><trkpt lat="44.8497137" lon="9.5276519"><ele>184.39999999999998</ele><time>2026-03-26T14:34:25.987Z</time></trkpt><trkpt lat="44.8497117" lon="9.527808"><ele>184.2</ele><time>2026-03-26T14:34:26.987Z</time></trkpt><trkpt lat="44.8497176" lon="9.5279688"><ele>184.0</ele><time>2026-03-26T14:34:27.987Z</time></trkpt><trkpt lat="44.849725" lon="9.5281423"><ele>183.75</ele><time>2026-03-26T14:34:28.987Z</time></trkpt><trkpt lat="44.8497317" lon="9.5283209"><ele>183.5</ele><time>2026-03-26T14:34:29.986Z</time></trkpt><trkpt lat="44.8497446" lon="9.5284901"><ele>183.25</ele><time>2026-03-26T14:34:30.987Z</time></trkpt><trkpt lat="44.849758" lon="9.5286426"><ele>183.0</ele><time>2026-03-26T14:34:31.987Z</time></trkpt><trkpt lat="44.8497764" lon="9.5287961"><ele>182.4</ele><time>2026-03-26T14:34:32.986Z</time></trkpt><trkpt lat="44.8498039" lon="9.528947"><ele>181.8</ele><time>2026-03-26T14:34:33.986Z</time></trkpt><trkpt lat="44.8498373" lon="9.5290936"><ele>181.2</ele><time>2026-03-26T14:34:34.987Z</time></trkpt><trkpt lat="44.8498772" lon="9.5292317"><ele>180.6</ele><time>2026-03-26T14:34:35.987Z</time></trkpt><trkpt lat="44.8499146" lon="9.5293586"><ele>180.0</ele><time>2026-03-26T14:34:36.987Z</time></trkpt><trkpt lat="44.8499552" lon="9.5294764"><ele>179.83333333333334</ele><time>2026-03-26T14:34:37.988Z</time></trkpt><trkpt lat="44.8499905" lon="9.5295802"><ele>179.66666666666666</ele><time>2026-03-26T14:34:38.987Z</time></trkpt><trkpt lat="44.8500241" lon="9.5296768"><ele>179.5</ele><time>2026-03-26T14:34:39.987Z</time></trkpt><trkpt lat="44.850056" lon="9.5297685"><ele>179.33333333333331</ele><time>2026-03-26T14:34:40.986Z</time></trkpt><trkpt lat="44.8500835" lon="9.5298643"><ele>179.16666666666666</ele><time>2026-03-26T14:34:41.987Z</time></trkpt><trkpt lat="44.8501139" lon="9.5299606"><ele>179.0</ele><time>2026-03-26T14:34:42.986Z</time></trkpt><trkpt lat="44.8501469" lon="9.5300629"><ele>178.66666666666666</ele><time>2026-03-26T14:34:43.986Z</time></trkpt><trkpt lat="44.8501845" lon="9.5301723"><ele>178.33333333333331</ele><time>2026-03-26T14:34:44.986Z</time></trkpt><trkpt lat="44.8502287" lon="9.5302867"><ele>178.0</ele><time>2026-03-26T14:34:45.987Z</time></trkpt><trkpt lat="44.8502786" lon="9.5303928"><ele>177.66666666666666</ele><time>2026-03-26T14:34:46.986Z</time></trkpt><trkpt lat="44.8503384" lon="9.5304804"><ele>177.33333333333334</ele><time>2026-03-26T14:34:47.988Z</time></trkpt><trkpt lat="44.8504079" lon="9.530544"><ele>177.0</ele><time>2026-03-26T14:34:48.988Z</time></trkpt><trkpt lat="44.8504947" lon="9.5305734"><ele>176.8</ele><time>2026-03-26T14:34:49.988Z</time></trkpt><trkpt lat="44.8506039" lon="9.5305827"><ele>176.6</ele><time>2026-03-26T14:34:50.988Z</time></trkpt><trkpt lat="44.850712" lon="9.530591"><ele>176.4</ele><time>2026-03-26T14:34:51.988Z</time></trkpt><trkpt lat="44.8508152" lon="9.5305972"><ele>176.20000000000002</ele><time>2026-03-26T14:34:52.987Z</time></trkpt><trkpt lat="44.8509176" lon="9.530607"><ele>176.0</ele><time>2026-03-26T14:34:53.987Z</time></trkpt><trkpt lat="44.8510168" lon="9.5306275"><ele>176.0</ele><time>2026-03-26T14:34:54.987Z</time></trkpt><trkpt lat="44.8511068" lon="9.5306622"><ele>176.0</ele><time>2026-03-26T14:34:55.988Z</time></trkpt><trkpt lat="44.8511846" lon="9.5307201"><ele>176.0</ele><time>2026-03-26T14:34:56.987Z</time></trkpt><trkpt lat="44.8512503" lon="9.5308095"><ele>176.0</ele><time>2026-03-26T14:34:57.986Z</time></trkpt><trkpt lat="44.8512898" lon="9.5309524"><ele>176.0</ele><time>2026-03-26T14:34:58.988Z</time></trkpt><trkpt lat="44.8513071" lon="9.5311462"><ele>175.33333333333331</ele><time>2026-03-26T14:34:59.987Z</time></trkpt><trkpt lat="44.8513092" lon="9.5313598"><ele>174.66666666666666</ele><time>2026-03-26T14:35:00.987Z</time></trkpt><trkpt lat="44.851306" lon="9.5315766"><ele>174.0</ele><time>2026-03-26T14:35:01.988Z</time></trkpt><trkpt lat="44.851301" lon="9.5317906"><ele>174.0</ele><time>2026-03-26T14:35:02.988Z</time></trkpt><trkpt lat="44.8512963" lon="9.5319959"><ele>174.0</ele><time>2026-03-26T14:35:03.986Z</time></trkpt><trkpt lat="44.8512925" lon="9.5321889"><ele>174.0</ele><time>2026-03-26T14:35:04.987Z</time></trkpt><trkpt lat="44.8512926" lon="9.5323687"><ele>174.0</ele><time>2026-03-26T14:35:05.987Z</time></trkpt><trkpt lat="44.8513007" lon="9.5325345"><ele>173.79999999999998</ele><time>2026-03-26T14:35:06.987Z</time></trkpt><trkpt lat="44.8513328" lon="9.5326827"><ele>173.6</ele><time>2026-03-26T14:35:07.987Z</time></trkpt><trkpt lat="44.8513832" lon="9.532803"><ele>173.4</ele><time>2026-03-26T14:35:08.987Z</time></trkpt><trkpt lat="44.851461" lon="9.532889"><ele>173.2</ele><time>2026-03-26T14:35:09.986Z</time></trkpt><trkpt lat="44.8515704" lon="9.5329374"><ele>173.0</ele><time>2026-03-26T14:35:10.988Z</time></trkpt><trkpt lat="44.8517061" lon="9.5329584"><ele>172.5</ele><time>2026-03-26T14:35:11.987Z</time></trkpt><trkpt lat="44.8518564" lon="9.5329767"><ele>172.0</ele><time>2026-03-26T14:35:12.988Z</time></trkpt><trkpt lat="44.8520045" lon="9.5330026"><ele>171.5</ele><time>2026-03-26T14:35:13.988Z</time></trkpt><trkpt lat="44.8521462" lon="9.533036"><ele>171.0</ele><time>2026-03-26T14:35:14.988Z</time></trkpt><trkpt lat="44.8522852" lon="9.5330727"><ele>171.0</ele><time>2026-03-26T14:35:15.987Z</time></trkpt><trkpt lat="44.8524174" lon="9.533108"><ele>171.0</ele><time>2026-03-26T14:35:16.989Z</time></trkpt><trkpt lat="44.8525514" lon="9.5331545"><ele>171.0</ele><time>2026-03-26T14:35:17.989Z</time></trkpt><trkpt lat="44.8526891" lon="9.5332251"><ele>171.0</ele><time>2026-03-26T14:35:18.988Z</time></trkpt><trkpt lat="44.8528406" lon="9.533312"><ele>171.66666666666666</ele><time>2026-03-26T14:35:19.989Z</time></trkpt><trkpt lat="44.8529962" lon="9.533388"><ele>172.33333333333331</ele><time>2026-03-26T14:35:20.989Z</time></trkpt><trkpt lat="44.8531467" lon="9.5334448"><ele>173.0</ele><time>2026-03-26T14:35:21.988Z</time></trkpt><trkpt lat="44.8532996" lon="9.5334902"><ele>173.0</ele><time>2026-03-26T14:35:22.989Z</time></trkpt><trkpt lat="44.8534518" lon="9.5335284"><ele>173.0</ele><time>2026-03-26T14:35:23.99Z</time></trkpt><trkpt lat="44.8536021" lon="9.5335623"><ele>173.0</ele><time>2026-03-26T14:35:24.988Z</time></trkpt><trkpt lat="44.8537518" lon="9.5335991"><ele>172.75</ele><time>2026-03-26T14:35:25.989Z</time></trkpt><trkpt lat="44.8538916" lon="9.5336375"><ele>172.5</ele><time>2026-03-26T14:35:26.989Z</time></trkpt><trkpt lat="44.8540264" lon="9.533678"><ele>172.25</ele><time>2026-03-26T14:35:27.988Z</time></trkpt><trkpt lat="44.8541621" lon="9.5337183"><ele>172.0</ele><time>2026-03-26T14:35:28.988Z</time></trkpt><trkpt lat="44.8542943" lon="9.5337504"><ele>172.75</ele><time>2026-03-26T14:35:29.989Z</time></trkpt><trkpt lat="44.8544197" lon="9.5337695"><ele>173.5</ele><time>2026-03-26T14:35:30.989Z</time></trkpt><trkpt lat="44.854543" lon="9.5337713"><ele>174.25</ele><time>2026-03-26T14:35:31.989Z</time></trkpt><trkpt lat="44.8546728" lon="9.5337494"><ele>175.0</ele><time>2026-03-26T14:35:32.989Z</time></trkpt><trkpt lat="44.8548089" lon="9.5336975"><ele>175.0</ele><time>2026-03-26T14:35:33.988Z</time></trkpt><trkpt lat="44.8549472" lon="9.5336225"><ele>175.0</ele><time>2026-03-26T14:35:34.988Z</time></trkpt><trkpt lat="44.8550819" lon="9.5335405"><ele>175.0</ele><time>2026-03-26T14:35:35.986Z</time></trkpt><trkpt lat="44.8552182" lon="9.5334699"><ele>175.0</ele><time>2026-03-26T14:35:36.986Z</time></trkpt><trkpt lat="44.8553552" lon="9.5334261"><ele>177.25</ele><time>2026-03-26T14:35:37.987Z</time></trkpt><trkpt lat="44.8554878" lon="9.5334021"><ele>179.5</ele><time>2026-03-26T14:35:38.987Z</time></trkpt><trkpt lat="44.8556123" lon="9.5333963"><ele>181.75</ele><time>2026-03-26T14:35:39.986Z</time></trkpt><trkpt lat="44.8557334" lon="9.5334235"><ele>184.0</ele><time>2026-03-26T14:35:40.987Z</time></trkpt><trkpt lat="44.8558503" lon="9.5334823"><ele>182.25</ele><time>2026-03-26T14:35:41.987Z</time></trkpt><trkpt lat="44.8559693" lon="9.5335476"><ele>180.5</ele><time>2026-03-26T14:35:42.987Z</time></trkpt><trkpt lat="44.8560984" lon="9.5336054"><ele>178.75</ele><time>2026-03-26T14:35:43.986Z</time></trkpt><trkpt lat="44.8562345" lon="9.5336695"><ele>177.0</ele><time>2026-03-26T14:35:44.988Z</time></trkpt><trkpt lat="44.8563717" lon="9.5337462"><ele>177.0</ele><time>2026-03-26T14:35:45.986Z</time></trkpt><trkpt lat="44.8565073" lon="9.5338325"><ele>177.0</ele><time>2026-03-26T14:35:46.987Z</time></trkpt><trkpt lat="44.8566356" lon="9.5339153"><ele>177.0</ele><time>2026-03-26T14:35:47.987Z</time></trkpt><trkpt lat="44.8567666" lon="9.5340001"><ele>177.0</ele><time>2026-03-26T14:35:48.986Z</time></trkpt><trkpt lat="44.8568938" lon="9.534087"><ele>177.75</ele><time>2026-03-26T14:35:49.986Z</time></trkpt><trkpt lat="44.8570104" lon="9.5341853"><ele>178.5</ele><time>2026-03-26T14:35:50.988Z</time></trkpt><trkpt lat="44.8571146" lon="9.534298"><ele>179.25</ele><time>2026-03-26T14:35:51.988Z</time></trkpt><trkpt lat="44.8572211" lon="9.5344255"><ele>180.0</ele><time>2026-03-26T14:35:52.988Z</time></trkpt><trkpt lat="44.8573241" lon="9.5345563"><ele>180.0</ele><time>2026-03-26T14:35:53.99Z</time></trkpt><trkpt lat="44.8574173" lon="9.5346871"><ele>180.0</ele><time>2026-03-26T14:35:54.988Z</time></trkpt><trkpt lat="44.8575041" lon="9.534818"><ele>180.0</ele><time>2026-03-26T14:35:55.986Z</time></trkpt><trkpt lat="44.8575943" lon="9.5349473"><ele>180.0</ele><time>2026-03-26T14:35:56.989Z</time></trkpt><trkpt lat="44.857689" lon="9.5350746"><ele>179.25</ele><time>2026-03-26T14:35:57.986Z</time></trkpt><trkpt lat="44.8577938" lon="9.5351917"><ele>178.5</ele><time>2026-03-26T14:35:58.988Z</time></trkpt><trkpt lat="44.8579052" lon="9.5352857"><ele>177.75</ele><time>2026-03-26T14:35:59.987Z</time></trkpt><trkpt lat="44.8580221" lon="9.5353635"><ele>177.0</ele><time>2026-03-26T14:36:00.986Z</time></trkpt><trkpt lat="44.8581326" lon="9.5354412"><ele>177.0</ele><time>2026-03-26T14:36:01.987Z</time></trkpt><trkpt lat="44.8582351" lon="9.5355353"><ele>177.0</ele><time>2026-03-26T14:36:02.987Z</time></trkpt><trkpt lat="44.858318" lon="9.535651"><ele>177.0</ele><time>2026-03-26T14:36:03.986Z</time></trkpt><trkpt lat="44.8583889" lon="9.5357666"><ele>177.0</ele><time>2026-03-26T14:36:04.987Z</time></trkpt><trkpt lat="44.8584541" lon="9.5358648"><ele>177.0</ele><time>2026-03-26T14:36:05.988Z</time></trkpt><trkpt lat="44.8585256" lon="9.5359453"><ele>180.0</ele><time>2026-03-26T14:36:06.986Z</time></trkpt><trkpt lat="44.8586144" lon="9.5360072"><ele>183.0</ele><time>2026-03-26T14:36:07.987Z</time></trkpt><trkpt lat="44.8587121" lon="9.5360571"><ele>186.0</ele><time>2026-03-26T14:36:08.986Z</time></trkpt><trkpt lat="44.8588132" lon="9.5360999"><ele>189.0</ele><time>2026-03-26T14:36:09.986Z</time></trkpt><trkpt lat="44.8589115" lon="9.536143"><ele>192.0</ele><time>2026-03-26T14:36:10.987Z</time></trkpt><trkpt lat="44.859003" lon="9.5361798"><ele>192.0</ele><time>2026-03-26T14:36:11.987Z</time></trkpt><trkpt lat="44.8590938" lon="9.5362014"><ele>192.0</ele><time>2026-03-26T14:36:12.987Z</time></trkpt><trkpt lat="44.8591883" lon="9.5362024"><ele>192.0</ele><time>2026-03-26T14:36:13.986Z</time></trkpt><trkpt lat="44.859298" lon="9.536194"><ele>192.0</ele><time>2026-03-26T14:36:14.987Z</time></trkpt><trkpt lat="44.8594203" lon="9.5361896"><ele>192.0</ele><time>2026-03-26T14:36:15.986Z</time></trkpt><trkpt lat="44.8595492" lon="9.5361915"><ele>192.0</ele><time>2026-03-26T14:36:16.987Z</time></trkpt><trkpt lat="44.8596801" lon="9.5362034"><ele>192.0</ele><time>2026-03-26T14:36:17.987Z</time></trkpt><trkpt lat="44.8598063" lon="9.5362386"><ele>192.0</ele><time>2026-03-26T14:36:18.987Z</time></trkpt><trkpt lat="44.8599133" lon="9.5362962"><ele>192.0</ele><time>2026-03-26T14:36:19.988Z</time></trkpt><trkpt lat="44.8600044" lon="9.5363798"><ele>192.0</ele><time>2026-03-26T14:36:20.989Z</time></trkpt><trkpt lat="44.8600668" lon="9.5364869"><ele>192.0</ele><time>2026-03-26T14:36:21.988Z</time></trkpt><trkpt lat="44.8601044" lon="9.5366048"><ele>192.0</ele><time>2026-03-26T14:36:22.988Z</time></trkpt><trkpt lat="44.8601274" lon="9.5367157"><ele>192.0</ele><time>2026-03-26T14:36:23.989Z</time></trkpt><trkpt lat="44.8601475" lon="9.5368227"><ele>192.0</ele><time>2026-03-26T14:36:24.988Z</time></trkpt><trkpt lat="44.8601642" lon="9.5369455"><ele>192.0</ele><time>2026-03-26T14:36:25.988Z</time></trkpt><trkpt lat="44.8601804" lon="9.5370981"><ele>195.0</ele><time>2026-03-26T14:36:26.989Z</time></trkpt><trkpt lat="44.8602063" lon="9.5372745"><ele>198.0</ele><time>2026-03-26T14:36:27.987Z</time></trkpt><trkpt lat="44.860238" lon="9.5374619"><ele>201.0</ele><time>2026-03-26T14:36:28.988Z</time></trkpt><trkpt lat="44.860277" lon="9.5376521"><ele>204.0</ele><time>2026-03-26T14:36:29.986Z</time></trkpt><trkpt lat="44.8603149" lon="9.5378348"><ele>203.75</ele><time>2026-03-26T14:36:30.986Z</time></trkpt><trkpt lat="44.8603483" lon="9.5380191"><ele>203.5</ele><time>2026-03-26T14:36:31.987Z</time></trkpt><trkpt lat="44.860381" lon="9.5382001"><ele>203.25</ele><time>2026-03-26T14:36:32.988Z</time></trkpt><trkpt lat="44.8604097" lon="9.5383726"><ele>203.0</ele><time>2026-03-26T14:36:33.987Z</time></trkpt><trkpt lat="44.8604364" lon="9.538531"><ele>203.0</ele><time>2026-03-26T14:36:34.987Z</time></trkpt><trkpt lat="44.8604668" lon="9.5386773"><ele>203.0</ele><time>2026-03-26T14:36:35.986Z</time></trkpt><trkpt lat="44.8605082" lon="9.5388215"><ele>203.0</ele><time>2026-03-26T14:36:36.986Z</time></trkpt><trkpt lat="44.8605612" lon="9.5389672"><ele>203.0</ele><time>2026-03-26T14:36:37.986Z</time></trkpt><trkpt lat="44.860616" lon="9.5391089"><ele>203.0</ele><time>2026-03-26T14:36:38.987Z</time></trkpt><trkpt lat="44.8606627" lon="9.539247"><ele>202.4</ele><time>2026-03-26T14:36:39.986Z</time></trkpt><trkpt lat="44.860685" lon="9.5393836"><ele>201.8</ele><time>2026-03-26T14:36:40.987Z</time></trkpt><trkpt lat="44.8606754" lon="9.5395175"><ele>201.2</ele><time>2026-03-26T14:36:41.987Z</time></trkpt><trkpt lat="44.8606426" lon="9.5396521"><ele>200.6</ele><time>2026-03-26T14:36:42.986Z</time></trkpt><trkpt lat="44.8606047" lon="9.5397954"><ele>200.0</ele><time>2026-03-26T14:36:43.987Z</time></trkpt><trkpt lat="44.8605799" lon="9.5399398"><ele>199.5</ele><time>2026-03-26T14:36:44.987Z</time></trkpt><trkpt lat="44.8605771" lon="9.540089"><ele>199.0</ele><time>2026-03-26T14:36:45.986Z</time></trkpt><trkpt lat="44.8605967" lon="9.5402413"><ele>198.5</ele><time>2026-03-26T14:36:46.987Z</time></trkpt><trkpt lat="44.8606436" lon="9.540397"><ele>198.0</ele><time>2026-03-26T14:36:47.987Z</time></trkpt><trkpt lat="44.8607136" lon="9.5405437"><ele>196.75</ele><time>2026-03-26T14:36:48.986Z</time></trkpt><trkpt lat="44.8607881" lon="9.5406831"><ele>195.5</ele><time>2026-03-26T14:36:49.987Z</time></trkpt><trkpt lat="44.8608623" lon="9.5408178"><ele>194.25</ele><time>2026-03-26T14:36:50.989Z</time></trkpt><trkpt lat="44.8609395" lon="9.5409464"><ele>193.0</ele><time>2026-03-26T14:36:51.99Z</time></trkpt><trkpt lat="44.8610158" lon="9.5410739"><ele>193.0</ele><time>2026-03-26T14:36:52.988Z</time></trkpt><trkpt lat="44.8610934" lon="9.5412017"><ele>193.0</ele><time>2026-03-26T14:36:53.989Z</time></trkpt><trkpt lat="44.8611732" lon="9.5413269"><ele>193.0</ele><time>2026-03-26T14:36:54.987Z</time></trkpt><trkpt lat="44.8612532" lon="9.5414471"><ele>193.0</ele><time>2026-03-26T14:36:55.987Z</time></trkpt><trkpt lat="44.8613319" lon="9.5415606"><ele>191.8</ele><time>2026-03-26T14:36:56.986Z</time></trkpt><trkpt lat="44.8614074" lon="9.5416674"><ele>190.60000000000002</ele><time>2026-03-26T14:36:57.987Z</time></trkpt><trkpt lat="44.8614793" lon="9.5417681"><ele>189.39999999999998</ele><time>2026-03-26T14:36:58.988Z</time></trkpt><trkpt lat="44.861549" lon="9.5418672"><ele>188.2</ele><time>2026-03-26T14:36:59.988Z</time></trkpt><trkpt lat="44.8616128" lon="9.5419692"><ele>187.0</ele><time>2026-03-26T14:37:00.988Z</time></trkpt><trkpt lat="44.8616631" lon="9.5420768"><ele>186.5</ele><time>2026-03-26T14:37:01.988Z</time></trkpt><trkpt lat="44.8617005" lon="9.5421927"><ele>186.0</ele><time>2026-03-26T14:37:02.989Z</time></trkpt><trkpt lat="44.8617312" lon="9.542313"><ele>185.5</ele><time>2026-03-26T14:37:03.988Z</time></trkpt><trkpt lat="44.8617605" lon="9.5424337"><ele>185.0</ele><time>2026-03-26T14:37:04.987Z</time></trkpt><trkpt lat="44.8617944" lon="9.5425502"><ele>184.5</ele><time>2026-03-26T14:37:05.989Z</time></trkpt><trkpt lat="44.8618291" lon="9.5426597"><ele>184.0</ele><time>2026-03-26T14:37:06.988Z</time></trkpt><trkpt lat="44.8618519" lon="9.542765"><ele>183.83333333333334</ele><time>2026-03-26T14:37:07.989Z</time></trkpt><trkpt lat="44.8618533" lon="9.5428642"><ele>183.66666666666669</ele><time>2026-03-26T14:37:08.989Z</time></trkpt><trkpt lat="44.8618333" lon="9.5429544"><ele>183.5</ele><time>2026-03-26T14:37:09.988Z</time></trkpt><trkpt lat="44.8617654" lon="9.5430844"><ele>183.33333333333334</ele><time>2026-03-26T14:37:11.988Z</time></trkpt><trkpt lat="44.8617159" lon="9.5431533"><ele>183.16666666666666</ele><time>2026-03-26T14:37:13.987Z</time></trkpt><trkpt lat="44.8617254" lon="9.5432535"><ele>183.0</ele><time>2026-03-26T14:56:07.987Z</time></trkpt><trkpt lat="44.8616544" lon="9.543397"><ele>182.4</ele><time>2026-03-26T14:56:09.988Z</time></trkpt><trkpt lat="44.8615873" lon="9.5435365"><ele>181.8</ele><time>2026-03-26T14:56:11.988Z</time></trkpt><trkpt lat="44.861528" lon="9.5436634"><ele>181.2</ele><time>2026-03-26T14:56:13.988Z</time></trkpt><trkpt lat="44.8614657" lon="9.5437833"><ele>180.6</ele><time>2026-03-26T14:56:15.987Z</time></trkpt><trkpt lat="44.8613928" lon="9.5438977"><ele>180.0</ele><time>2026-03-26T14:56:17.987Z</time></trkpt><trkpt lat="44.8612935" lon="9.5440272"><ele>179.0</ele><time>2026-03-26T14:56:19.988Z</time></trkpt><trkpt lat="44.8612319" lon="9.5441035"><ele>178.0</ele><time>2026-03-26T14:56:20.988Z</time></trkpt><trkpt lat="44.8611617" lon="9.5441896"><ele>177.0</ele><time>2026-03-26T14:56:21.987Z</time></trkpt><trkpt lat="44.8610877" lon="9.5442833"><ele>176.0</ele><time>2026-03-26T14:56:22.988Z</time></trkpt><trkpt lat="44.8610109" lon="9.5443817"><ele>175.0</ele><time>2026-03-26T14:56:23.988Z</time></trkpt><trkpt lat="44.8609307" lon="9.5444865"><ele>173.75</ele><time>2026-03-26T14:56:24.99Z</time></trkpt><trkpt lat="44.8608385" lon="9.5445903"><ele>172.5</ele><time>2026-03-26T14:56:25.987Z</time></trkpt><trkpt lat="44.8607429" lon="9.5446902"><ele>171.25</ele><time>2026-03-26T14:56:26.987Z</time></trkpt><trkpt lat="44.8606376" lon="9.5447832"><ele>170.0</ele><time>2026-03-26T14:56:27.987Z</time></trkpt><trkpt lat="44.8605279" lon="9.5448721"><ele>170.0</ele><time>2026-03-26T14:56:28.987Z</time></trkpt><trkpt lat="44.8604247" lon="9.5449622"><ele>170.0</ele><time>2026-03-26T14:56:29.988Z</time></trkpt><trkpt lat="44.8603336" lon="9.5450465"><ele>170.0</ele><time>2026-03-26T14:56:30.987Z</time></trkpt><trkpt lat="44.8602475" lon="9.5451233"><ele>170.0</ele><time>2026-03-26T14:56:31.988Z</time></trkpt><trkpt lat="44.8601645" lon="9.5451983"><ele>170.0</ele><time>2026-03-26T14:56:32.988Z</time></trkpt><trkpt lat="44.8600757" lon="9.5452763"><ele>168.25</ele><time>2026-03-26T14:56:33.987Z</time></trkpt><trkpt lat="44.8599769" lon="9.5453665"><ele>166.5</ele><time>2026-03-26T14:56:34.987Z</time></trkpt><trkpt lat="44.8598758" lon="9.5454569"><ele>164.75</ele><time>2026-03-26T14:56:35.987Z</time></trkpt><trkpt lat="44.8597801" lon="9.5455384"><ele>163.0</ele><time>2026-03-26T14:56:36.987Z</time></trkpt><trkpt lat="44.8596896" lon="9.5456166"><ele>162.5</ele><time>2026-03-26T14:56:37.987Z</time></trkpt><trkpt lat="44.859597" lon="9.5456957"><ele>162.0</ele><time>2026-03-26T14:56:38.988Z</time></trkpt><trkpt lat="44.8594979" lon="9.5457826"><ele>161.5</ele><time>2026-03-26T14:56:39.985Z</time></trkpt><trkpt lat="44.8593902" lon="9.545879"><ele>161.0</ele><time>2026-03-26T14:56:40.987Z</time></trkpt><trkpt lat="44.8592726" lon="9.5459824"><ele>160.75</ele><time>2026-03-26T14:56:41.987Z</time></trkpt><trkpt lat="44.8591542" lon="9.5460851"><ele>160.5</ele><time>2026-03-26T14:56:42.987Z</time></trkpt><trkpt lat="44.8590343" lon="9.5461853"><ele>160.25</ele><time>2026-03-26T14:56:43.987Z</time></trkpt><trkpt lat="44.8589171" lon="9.5462869"><ele>160.0</ele><time>2026-03-26T14:56:44.989Z</time></trkpt><trkpt lat="44.8588048" lon="9.5463841"><ele>160.5</ele><time>2026-03-26T14:56:45.987Z</time></trkpt><trkpt lat="44.8586906" lon="9.5464834"><ele>161.0</ele><time>2026-03-26T14:56:46.987Z</time></trkpt><trkpt lat="44.8585768" lon="9.5465856"><ele>161.5</ele><time>2026-03-26T14:56:47.987Z</time></trkpt><trkpt lat="44.8584692" lon="9.5466814"><ele>162.0</ele><time>2026-03-26T14:56:48.986Z</time></trkpt><trkpt lat="44.8583629" lon="9.5467729"><ele>162.5</ele><time>2026-03-26T14:56:49.987Z</time></trkpt><trkpt lat="44.8582507" lon="9.5468688"><ele>163.0</ele><time>2026-03-26T14:56:50.988Z</time></trkpt><trkpt lat="44.85813" lon="9.5469741"><ele>163.5</ele><time>2026-03-26T14:56:51.987Z</time></trkpt><trkpt lat="44.8580021" lon="9.5470844"><ele>164.0</ele><time>2026-03-26T14:56:52.987Z</time></trkpt><trkpt lat="44.8578758" lon="9.5471951"><ele>165.0</ele><time>2026-03-26T14:56:53.987Z</time></trkpt><trkpt lat="44.8577544" lon="9.5473066"><ele>166.0</ele><time>2026-03-26T14:56:54.987Z</time></trkpt><trkpt lat="44.8576338" lon="9.5474195"><ele>167.0</ele><time>2026-03-26T14:56:55.986Z</time></trkpt><trkpt lat="44.8575137" lon="9.5475294"><ele>168.0</ele><time>2026-03-26T14:56:56.987Z</time></trkpt><trkpt lat="44.8573958" lon="9.5476292"><ele>169.75</ele><time>2026-03-26T14:56:57.987Z</time></trkpt><trkpt lat="44.8572825" lon="9.5477172"><ele>171.5</ele><time>2026-03-26T14:56:58.987Z</time></trkpt><trkpt lat="44.8571698" lon="9.5477898"><ele>173.25</ele><time>2026-03-26T14:56:59.987Z</time></trkpt><trkpt lat="44.8570554" lon="9.5478294"><ele>175.0</ele><time>2026-03-26T14:57:00.987Z</time></trkpt><trkpt lat="44.8569362" lon="9.5478271"><ele>175.0</ele><time>2026-03-26T14:57:01.987Z</time></trkpt><trkpt lat="44.8568088" lon="9.5477893"><ele>175.0</ele><time>2026-03-26T14:57:02.987Z</time></trkpt><trkpt lat="44.8566706" lon="9.5477235"><ele>175.0</ele><time>2026-03-26T14:57:03.987Z</time></trkpt><trkpt lat="44.856533" lon="9.5476465"><ele>175.0</ele><time>2026-03-26T14:57:04.987Z</time></trkpt><trkpt lat="44.8564144" lon="9.5475593"><ele>176.0</ele><time>2026-03-26T14:57:05.987Z</time></trkpt><trkpt lat="44.856316" lon="9.5474571"><ele>177.0</ele><time>2026-03-26T14:57:06.987Z</time></trkpt><trkpt lat="44.8562356" lon="9.5473328"><ele>178.0</ele><time>2026-03-26T14:57:07.987Z</time></trkpt><trkpt lat="44.856177" lon="9.5471961"><ele>179.0</ele><time>2026-03-26T14:57:08.987Z</time></trkpt><trkpt lat="44.8561298" lon="9.5470623"><ele>179.66666666666666</ele><time>2026-03-26T14:57:09.987Z</time></trkpt><trkpt lat="44.8560784" lon="9.5469481"><ele>180.33333333333331</ele><time>2026-03-26T14:57:10.987Z</time></trkpt><trkpt lat="44.8560177" lon="9.5468616"><ele>181.0</ele><time>2026-03-26T14:57:11.987Z</time></trkpt><trkpt lat="44.8559468" lon="9.5468073"><ele>181.66666666666666</ele><time>2026-03-26T14:57:12.987Z</time></trkpt><trkpt lat="44.8558672" lon="9.5467854"><ele>182.33333333333334</ele><time>2026-03-26T14:57:13.986Z</time></trkpt><trkpt lat="44.8557848" lon="9.5468094"><ele>183.0</ele><time>2026-03-26T14:57:14.987Z</time></trkpt><trkpt lat="44.8557192" lon="9.5468632"><ele>183.0</ele><time>2026-03-26T14:57:15.987Z</time></trkpt><trkpt lat="44.8556633" lon="9.5469869"><ele>183.0</ele><time>2026-03-26T14:57:17.987Z</time></trkpt><trkpt lat="44.8557098" lon="9.5471251"><ele>183.0</ele><time>2026-03-26T14:57:19.987Z</time></trkpt><trkpt lat="44.8557883" lon="9.547235"><ele>183.0</ele><time>2026-03-26T14:57:20.986Z</time></trkpt><trkpt lat="44.8558667" lon="9.5473333"><ele>183.0</ele><time>2026-03-26T14:57:21.987Z</time></trkpt><trkpt lat="44.855945" lon="9.5474367"><ele>182.0</ele><time>2026-03-26T14:57:22.987Z</time></trkpt><trkpt lat="44.8560317" lon="9.54754"><ele>181.0</ele><time>2026-03-26T14:57:23.987Z</time></trkpt><trkpt lat="44.8561333" lon="9.54764"><ele>180.0</ele><time>2026-03-26T14:57:24.988Z</time></trkpt><trkpt lat="44.85625" lon="9.54773"><ele>179.0</ele><time>2026-03-26T14:57:25.988Z</time></trkpt><trkpt lat="44.8563733" lon="9.5478067"><ele>179.0</ele><time>2026-03-26T14:57:26.99Z</time></trkpt><trkpt lat="44.856505" lon="9.5478733"><ele>179.0</ele><time>2026-03-26T14:57:27.988Z</time></trkpt><trkpt lat="44.8566467" lon="9.5479417"><ele>179.0</ele><time>2026-03-26T14:57:28.987Z</time></trkpt><trkpt lat="44.856795" lon="9.5480117"><ele>179.0</ele><time>2026-03-26T14:57:29.987Z</time></trkpt><trkpt lat="44.8569483" lon="9.5480817"><ele>181.0</ele><time>2026-03-26T14:57:30.987Z</time></trkpt><trkpt lat="44.8570983" lon="9.5481567"><ele>183.0</ele><time>2026-03-26T14:57:31.987Z</time></trkpt><trkpt lat="44.857245" lon="9.54823"><ele>185.0</ele><time>2026-03-26T14:57:32.987Z</time></trkpt><trkpt lat="44.8573833" lon="9.5482983"><ele>185.0</ele><time>2026-03-26T14:57:33.987Z</time></trkpt><trkpt lat="44.857515" lon="9.5483667"><ele>185.0</ele><time>2026-03-26T14:57:34.987Z</time></trkpt><trkpt lat="44.8576517" lon="9.5484367"><ele>185.0</ele><time>2026-03-26T14:57:35.988Z</time></trkpt><trkpt lat="44.8577917" lon="9.5485117"><ele>185.0</ele><time>2026-03-26T14:57:36.987Z</time></trkpt><trkpt lat="44.85793" lon="9.5485917"><ele>182.75</ele><time>2026-03-26T14:57:37.987Z</time></trkpt><trkpt lat="44.85806" lon="9.5486833"><ele>180.5</ele><time>2026-03-26T14:57:38.988Z</time></trkpt><trkpt lat="44.8581783" lon="9.5487967"><ele>178.25</ele><time>2026-03-26T14:57:39.986Z</time></trkpt><trkpt lat="44.8582983" lon="9.5489217"><ele>176.0</ele><time>2026-03-26T14:57:40.988Z</time></trkpt><trkpt lat="44.858415" lon="9.549055"><ele>175.0</ele><time>2026-03-26T14:57:41.988Z</time></trkpt><trkpt lat="44.8585283" lon="9.5491833"><ele>174.0</ele><time>2026-03-26T14:57:42.987Z</time></trkpt><trkpt lat="44.8586483" lon="9.549305"><ele>173.0</ele><time>2026-03-26T14:57:43.989Z</time></trkpt><trkpt lat="44.85877" lon="9.5494233"><ele>172.0</ele><time>2026-03-26T14:57:44.988Z</time></trkpt><trkpt lat="44.8588933" lon="9.549545"><ele>172.5</ele><time>2026-03-26T14:57:45.987Z</time></trkpt><trkpt lat="44.85902" lon="9.54967"><ele>173.0</ele><time>2026-03-26T14:57:46.987Z</time></trkpt><trkpt lat="44.8591417" lon="9.5497933"><ele>173.5</ele><time>2026-03-26T14:57:47.988Z</time></trkpt><trkpt lat="44.8592567" lon="9.5499117"><ele>174.0</ele><time>2026-03-26T14:57:48.987Z</time></trkpt><trkpt lat="44.85937" lon="9.5500233"><ele>174.0</ele><time>2026-03-26T14:57:49.988Z</time></trkpt><trkpt lat="44.859485" lon="9.5501333"><ele>174.0</ele><time>2026-03-26T14:57:50.986Z</time></trkpt><trkpt lat="44.859605" lon="9.550245"><ele>174.0</ele><time>2026-03-26T14:57:51.986Z</time></trkpt><trkpt lat="44.8597217" lon="9.5503617"><ele>174.0</ele><time>2026-03-26T14:57:52.987Z</time></trkpt><trkpt lat="44.85984" lon="9.5504883"><ele>172.33333333333334</ele><time>2026-03-26T14:57:53.988Z</time></trkpt><trkpt lat="44.8599533" lon="9.550625"><ele>170.66666666666669</ele><time>2026-03-26T14:57:54.987Z</time></trkpt><trkpt lat="44.8600583" lon="9.5507767"><ele>169.0</ele><time>2026-03-26T14:57:55.987Z</time></trkpt><trkpt lat="44.8601667" lon="9.5509283"><ele>169.0</ele><time>2026-03-26T14:57:56.986Z</time></trkpt><trkpt lat="44.8602717" lon="9.5510733"><ele>169.0</ele><time>2026-03-26T14:57:57.987Z</time></trkpt><trkpt lat="44.860375" lon="9.5512017"><ele>169.0</ele><time>2026-03-26T14:57:58.988Z</time></trkpt><trkpt lat="44.8604717" lon="9.551315"><ele>169.0</ele><time>2026-03-26T14:57:59.987Z</time></trkpt><trkpt lat="44.860565" lon="9.551415"><ele>172.0</ele><time>2026-03-26T14:58:00.987Z</time></trkpt><trkpt lat="44.8606467" lon="9.5515067"><ele>175.0</ele><time>2026-03-26T14:58:01.988Z</time></trkpt><trkpt lat="44.8607167" lon="9.5515817"><ele>178.0</ele><time>2026-03-26T14:58:02.988Z</time></trkpt><trkpt lat="44.860765" lon="9.55164"><ele>181.0</ele><time>2026-03-26T14:58:03.988Z</time></trkpt><trkpt lat="44.8607983" lon="9.55172"><ele>184.0</ele><time>2026-03-26T14:58:05.986Z</time></trkpt><trkpt lat="44.8607217" lon="9.55174"><ele>187.0</ele><time>2026-03-26T14:58:07.987Z</time></trkpt><trkpt lat="44.8605817" lon="9.55163"><ele>187.0</ele><time>2026-03-26T14:58:09.987Z</time></trkpt><trkpt lat="44.8604867" lon="9.5515367"><ele>187.0</ele><time>2026-03-26T14:58:10.987Z</time></trkpt><trkpt lat="44.8603833" lon="9.55143"><ele>187.0</ele><time>2026-03-26T14:58:11.986Z</time></trkpt><trkpt lat="44.8602783" lon="9.5513333"><ele>187.0</ele><time>2026-03-26T14:58:12.986Z</time></trkpt><trkpt lat="44.8601617" lon="9.551235"><ele>188.75</ele><time>2026-03-26T14:58:13.987Z</time></trkpt><trkpt lat="44.8600383" lon="9.55113"><ele>190.5</ele><time>2026-03-26T14:58:14.987Z</time></trkpt><trkpt lat="44.8599117" lon="9.55102"><ele>192.25</ele><time>2026-03-26T14:58:15.987Z</time></trkpt><trkpt lat="44.85979" lon="9.55091"><ele>194.0</ele><time>2026-03-26T14:58:16.987Z</time></trkpt><trkpt lat="44.8596867" lon="9.550805"><ele>194.0</ele><time>2026-03-26T14:58:17.988Z</time></trkpt><trkpt lat="44.8596" lon="9.5507067"><ele>194.0</ele><time>2026-03-26T14:58:18.987Z</time></trkpt><trkpt lat="44.859525" lon="9.5506283"><ele>194.0</ele><time>2026-03-26T14:58:19.987Z</time></trkpt><trkpt lat="44.8594567" lon="9.550585"><ele>194.0</ele><time>2026-03-26T14:58:20.988Z</time></trkpt><trkpt lat="44.85939" lon="9.5505733"><ele>194.0</ele><time>2026-03-26T14:58:21.987Z</time></trkpt><trkpt lat="44.8593083" lon="9.5506733"><ele>194.0</ele><time>2026-03-26T14:58:23.988Z</time></trkpt><trkpt lat="44.8593733" lon="9.5508083"><ele>194.0</ele><time>2026-03-26T14:58:24.986Z</time></trkpt><trkpt lat="44.859435" lon="9.5509283"><ele>194.0</ele><time>2026-03-26T14:58:25.988Z</time></trkpt><trkpt lat="44.859515" lon="9.5510683"><ele>194.0</ele><time>2026-03-26T14:58:26.987Z</time></trkpt><trkpt lat="44.85961" lon="9.551215"><ele>199.75</ele><time>2026-03-26T14:58:27.987Z</time></trkpt><trkpt lat="44.8596983" lon="9.5513517"><ele>205.5</ele><time>2026-03-26T14:58:28.986Z</time></trkpt><trkpt lat="44.8597883" lon="9.5514867"><ele>211.25</ele><time>2026-03-26T14:58:29.987Z</time></trkpt><trkpt lat="44.859865" lon="9.5516283"><ele>217.0</ele><time>2026-03-26T14:58:30.987Z</time></trkpt><trkpt lat="44.8599267" lon="9.5517733"><ele>217.0</ele><time>2026-03-26T14:58:31.987Z</time></trkpt><trkpt lat="44.8599767" lon="9.55192"><ele>217.0</ele><time>2026-03-26T14:58:32.986Z</time></trkpt><trkpt lat="44.86003" lon="9.5520667"><ele>217.0</ele><time>2026-03-26T14:58:33.987Z</time></trkpt><trkpt lat="44.8600733" lon="9.5522083"><ele>217.0</ele><time>2026-03-26T14:58:34.986Z</time></trkpt><trkpt lat="44.8601" lon="9.5523433"><ele>217.0</ele><time>2026-03-26T14:58:35.986Z</time></trkpt><trkpt lat="44.8601067" lon="9.5524783"><ele>218.83333333333331</ele><time>2026-03-26T14:58:36.99Z</time></trkpt><trkpt lat="44.8601067" lon="9.5526083"><ele>220.66666666666666</ele><time>2026-03-26T14:58:37.987Z</time></trkpt><trkpt lat="44.8601217" lon="9.5527217"><ele>222.5</ele><time>2026-03-26T14:58:38.987Z</time></trkpt><trkpt lat="44.8601533" lon="9.55282"><ele>224.33333333333331</ele><time>2026-03-26T14:58:39.988Z</time></trkpt><trkpt lat="44.860215" lon="9.552895"><ele>226.16666666666666</ele><time>2026-03-26T14:58:40.987Z</time></trkpt><trkpt lat="44.8602883" lon="9.5529483"><ele>228.0</ele><time>2026-03-26T14:58:41.988Z</time></trkpt><trkpt lat="44.8603583" lon="9.552995"><ele>228.0</ele><time>2026-03-26T14:58:42.988Z</time></trkpt><trkpt lat="44.86043" lon="9.5530367"><ele>228.0</ele><time>2026-03-26T14:58:43.988Z</time></trkpt><trkpt lat="44.8605017" lon="9.5530833"><ele>228.0</ele><time>2026-03-26T14:58:44.986Z</time></trkpt><trkpt lat="44.8605733" lon="9.55315"><ele>228.0</ele><time>2026-03-26T14:58:45.988Z</time></trkpt><trkpt lat="44.8606533" lon="9.5532367"><ele>228.0</ele><time>2026-03-26T14:58:46.989Z</time></trkpt><trkpt lat="44.8607483" lon="9.5533333"><ele>228.0</ele><time>2026-03-26T14:58:47.99Z</time></trkpt><trkpt lat="44.8608583" lon="9.5534133"><ele>228.0</ele><time>2026-03-26T14:58:48.993Z</time></trkpt><trkpt lat="44.8609433" lon="9.5534883"><ele>228.0</ele><time>2026-03-26T14:58:49.989Z</time></trkpt><trkpt lat="44.860995" lon="9.5535817"><ele>228.0</ele><time>2026-03-26T14:58:50.988Z</time></trkpt><trkpt lat="44.8610417" lon="9.553695"><ele>228.0</ele><time>2026-03-26T14:58:51.988Z</time></trkpt><trkpt lat="44.86105" lon="9.55383"><ele>225.8</ele><time>2026-03-26T14:58:52.989Z</time></trkpt><trkpt lat="44.8610417" lon="9.5539667"><ele>223.60000000000002</ele><time>2026-03-26T14:58:53.988Z</time></trkpt><trkpt lat="44.8610067" lon="9.5540983"><ele>221.39999999999998</ele><time>2026-03-26T14:58:54.987Z</time></trkpt><trkpt lat="44.86095" lon="9.554245"><ele>219.2</ele><time>2026-03-26T14:58:55.986Z</time></trkpt><trkpt lat="44.8609017" lon="9.5544067"><ele>217.0</ele><time>2026-03-26T14:58:56.987Z</time></trkpt><trkpt lat="44.8608933" lon="9.5545717"><ele>220.0</ele><time>2026-03-26T14:58:57.987Z</time></trkpt><trkpt lat="44.86091" lon="9.5547367"><ele>223.0</ele><time>2026-03-26T14:58:58.987Z</time></trkpt><trkpt lat="44.8609433" lon="9.55489"><ele>226.0</ele><time>2026-03-26T14:58:59.987Z</time></trkpt><trkpt lat="44.8609883" lon="9.5550183"><ele>229.0</ele><time>2026-03-26T14:59:00.987Z</time></trkpt><trkpt lat="44.8610283" lon="9.5551233"><ele>232.0</ele><time>2026-03-26T14:59:01.987Z</time></trkpt><trkpt lat="44.8610633" lon="9.5552033"><ele>232.0</ele><time>2026-03-26T14:59:02.986Z</time></trkpt><trkpt lat="44.8610667" lon="9.5552967"><ele>232.0</ele><time>2026-03-26T14:59:04.987Z</time></trkpt><trkpt lat="44.8609733" lon="9.55526"><ele>232.0</ele><time>2026-03-26T14:59:06.987Z</time></trkpt><trkpt lat="44.8609233" lon="9.5551983"><ele>232.0</ele><time>2026-03-26T14:59:07.987Z</time></trkpt><trkpt lat="44.860855" lon="9.5550933"><ele>232.0</ele><time>2026-03-26T14:59:08.988Z</time></trkpt><trkpt lat="44.8607833" lon="9.5549583"><ele>235.0</ele><time>2026-03-26T14:59:09.987Z</time></trkpt><trkpt lat="44.8607117" lon="9.5547867"><ele>238.0</ele><time>2026-03-26T14:59:10.987Z</time></trkpt><trkpt lat="44.8606467" lon="9.5546117"><ele>241.0</ele><time>2026-03-26T14:59:11.987Z</time></trkpt><trkpt lat="44.86059" lon="9.554435"><ele>244.0</ele><time>2026-03-26T14:59:12.986Z</time></trkpt><trkpt lat="44.860535" lon="9.5542567"><ele>244.0</ele><time>2026-03-26T14:59:13.987Z</time></trkpt><trkpt lat="44.86048" lon="9.5540967"><ele>243.99999999999997</ele><time>2026-03-26T14:59:14.988Z</time></trkpt><trkpt lat="44.860425" lon="9.5539717"><ele>243.99999999999997</ele><time>2026-03-26T14:59:15.987Z</time></trkpt><trkpt lat="44.8603583" lon="9.55387"><ele>244.0</ele><time>2026-03-26T14:59:16.987Z</time></trkpt><trkpt lat="44.86029" lon="9.5537933"><ele>244.0</ele><time>2026-03-26T14:59:17.987Z</time></trkpt><trkpt lat="44.86021" lon="9.5537383"><ele>246.0</ele><time>2026-03-26T14:59:18.989Z</time></trkpt><trkpt lat="44.8601083" lon="9.5537117"><ele>247.99999999999997</ele><time>2026-03-26T14:59:19.987Z</time></trkpt><trkpt lat="44.8599883" lon="9.55372"><ele>249.99999999999997</ele><time>2026-03-26T14:59:20.989Z</time></trkpt><trkpt lat="44.85989" lon="9.5537233"><ele>252.0</ele><time>2026-03-26T14:59:21.987Z</time></trkpt><trkpt lat="44.8598117" lon="9.553695"><ele>254.0</ele><time>2026-03-26T14:59:22.987Z</time></trkpt><trkpt lat="44.8597383" lon="9.5536433"><ele>254.0</ele><time>2026-03-26T14:59:23.988Z</time></trkpt><trkpt lat="44.8596733" lon="9.553555"><ele>254.0</ele><time>2026-03-26T14:59:24.987Z</time></trkpt><trkpt lat="44.8596033" lon="9.55343"><ele>254.0</ele><time>2026-03-26T14:59:25.987Z</time></trkpt><trkpt lat="44.8595417" lon="9.55326"><ele>254.0</ele><time>2026-03-26T14:59:26.99Z</time></trkpt><trkpt lat="44.859465" lon="9.5530933"><ele>254.0</ele><time>2026-03-26T14:59:27.986Z</time></trkpt><trkpt lat="44.8593967" lon="9.5529217"><ele>254.0</ele><time>2026-03-26T14:59:28.986Z</time></trkpt><trkpt lat="44.85933" lon="9.5527617"><ele>254.0</ele><time>2026-03-26T14:59:29.988Z</time></trkpt><trkpt lat="44.8592617" lon="9.552605"><ele>254.0</ele><time>2026-03-26T14:59:30.988Z</time></trkpt><trkpt lat="44.8591833" lon="9.55247"><ele>260.0</ele><time>2026-03-26T14:59:31.987Z</time></trkpt><trkpt lat="44.8590783" lon="9.5523417"><ele>266.0</ele><time>2026-03-26T14:59:32.988Z</time></trkpt><trkpt lat="44.8589617" lon="9.5522367"><ele>272.0</ele><time>2026-03-26T14:59:33.987Z</time></trkpt><trkpt lat="44.8588317" lon="9.5521667"><ele>278.0</ele><time>2026-03-26T14:59:34.986Z</time></trkpt><trkpt lat="44.8587083" lon="9.5521167"><ele>278.0</ele><time>2026-03-26T14:59:35.987Z</time></trkpt><trkpt lat="44.8585917" lon="9.5520733"><ele>278.0</ele><time>2026-03-26T14:59:36.987Z</time></trkpt><trkpt lat="44.8584833" lon="9.552025"><ele>278.0</ele><time>2026-03-26T14:59:37.987Z</time></trkpt><trkpt lat="44.85839" lon="9.551965"><ele>278.0</ele><time>2026-03-26T14:59:38.986Z</time></trkpt><trkpt lat="44.8583033" lon="9.5519117"><ele>278.0</ele><time>2026-03-26T14:59:39.987Z</time></trkpt><trkpt lat="44.858225" lon="9.5518783"><ele>278.6</ele><time>2026-03-26T14:59:40.987Z</time></trkpt><trkpt lat="44.858145" lon="9.551875"><ele>279.20000000000005</ele><time>2026-03-26T14:59:41.988Z</time></trkpt><trkpt lat="44.858075" lon="9.5519267"><ele>279.8</ele><time>2026-03-26T14:59:42.987Z</time></trkpt><trkpt lat="44.85801" lon="9.5520017"><ele>280.40000000000003</ele><time>2026-03-26T14:59:43.987Z</time></trkpt><trkpt lat="44.85794" lon="9.5520983"><ele>281.0</ele><time>2026-03-26T14:59:44.987Z</time></trkpt><trkpt lat="44.8578683" lon="9.5522183"><ele>285.6</ele><time>2026-03-26T14:59:45.986Z</time></trkpt><trkpt lat="44.8578083" lon="9.55234"><ele>290.20000000000005</ele><time>2026-03-26T14:59:46.987Z</time></trkpt><trkpt lat="44.8577617" lon="9.5524617"><ele>294.79999999999995</ele><time>2026-03-26T14:59:47.987Z</time></trkpt><trkpt lat="44.8577283" lon="9.5525983"><ele>299.4</ele><time>2026-03-26T14:59:48.987Z</time></trkpt><trkpt lat="44.85771" lon="9.552745"><ele>304.0</ele><time>2026-03-26T14:59:49.989Z</time></trkpt><trkpt lat="44.8577033" lon="9.552905"><ele>305.0</ele><time>2026-03-26T14:59:50.988Z</time></trkpt><trkpt lat="44.857695" lon="9.5530667"><ele>306.0</ele><time>2026-03-26T14:59:51.987Z</time></trkpt><trkpt lat="44.8576683" lon="9.5532283"><ele>307.0</ele><time>2026-03-26T14:59:52.987Z</time></trkpt><trkpt lat="44.8576367" lon="9.5533867"><ele>308.0</ele><time>2026-03-26T14:59:53.987Z</time></trkpt><trkpt lat="44.8575983" lon="9.5535367"><ele>308.0</ele><time>2026-03-26T14:59:54.987Z</time></trkpt><trkpt lat="44.8575833" lon="9.553695"><ele>308.0</ele><time>2026-03-26T14:59:55.986Z</time></trkpt><trkpt lat="44.857575" lon="9.5538533"><ele>308.0</ele><time>2026-03-26T14:59:56.987Z</time></trkpt><trkpt lat="44.857575" lon="9.5540067"><ele>308.0</ele><time>2026-03-26T14:59:57.987Z</time></trkpt><trkpt lat="44.85758" lon="9.5541567"><ele>308.0</ele><time>2026-03-26T14:59:58.987Z</time></trkpt><trkpt lat="44.8575883" lon="9.5543083"><ele>310.6</ele><time>2026-03-26T14:59:59.987Z</time></trkpt><trkpt lat="44.8575967" lon="9.5544717"><ele>313.20000000000005</ele><time>2026-03-26T15:00:00.987Z</time></trkpt><trkpt lat="44.8576083" lon="9.5546317"><ele>315.8</ele><time>2026-03-26T15:00:01.987Z</time></trkpt><trkpt lat="44.8576183" lon="9.5547883"><ele>318.40000000000003</ele><time>2026-03-26T15:00:02.988Z</time></trkpt><trkpt lat="44.8576083" lon="9.5549317"><ele>321.0</ele><time>2026-03-26T15:00:03.987Z</time></trkpt><trkpt lat="44.8575817" lon="9.5550683"><ele>323.6</ele><time>2026-03-26T15:00:04.988Z</time></trkpt><trkpt lat="44.8575383" lon="9.5552017"><ele>326.20000000000005</ele><time>2026-03-26T15:00:05.987Z</time></trkpt><trkpt lat="44.8574867" lon="9.5553217"><ele>328.79999999999995</ele><time>2026-03-26T15:00:06.987Z</time></trkpt><trkpt lat="44.857439" lon="9.5554409"><ele>331.4</ele><time>2026-03-26T15:00:07.987Z</time></trkpt><trkpt lat="44.857393" lon="9.5555608"><ele>334.0</ele><time>2026-03-26T15:00:08.987Z</time></trkpt><trkpt lat="44.8573523" lon="9.5556867"><ele>336.6</ele><time>2026-03-26T15:00:09.987Z</time></trkpt><trkpt lat="44.8573196" lon="9.5558238"><ele>339.2</ele><time>2026-03-26T15:00:10.987Z</time></trkpt><trkpt lat="44.8572968" lon="9.5559606"><ele>341.8</ele><time>2026-03-26T15:00:11.987Z</time></trkpt><trkpt lat="44.857271" lon="9.5560929"><ele>344.40000000000003</ele><time>2026-03-26T15:00:12.988Z</time></trkpt><trkpt lat="44.8572381" lon="9.5562283"><ele>347.0</ele><time>2026-03-26T15:00:13.986Z</time></trkpt><trkpt lat="44.8572005" lon="9.5563624"><ele>349.20000000000005</ele><time>2026-03-26T15:00:14.987Z</time></trkpt><trkpt lat="44.8571636" lon="9.556501"><ele>351.4</ele><time>2026-03-26T15:00:15.987Z</time></trkpt><trkpt lat="44.857129" lon="9.5566411"><ele>353.6</ele><time>2026-03-26T15:00:16.987Z</time></trkpt><trkpt lat="44.8570974" lon="9.5567851"><ele>355.79999999999995</ele><time>2026-03-26T15:00:17.988Z</time></trkpt><trkpt lat="44.8570628" lon="9.5569352"><ele>358.0</ele><time>2026-03-26T15:00:18.987Z</time></trkpt><trkpt lat="44.8570233" lon="9.5570776"><ele>359.3333333333333</ele><time>2026-03-26T15:00:19.987Z</time></trkpt><trkpt lat="44.8569822" lon="9.5572099"><ele>360.66666666666663</ele><time>2026-03-26T15:00:20.988Z</time></trkpt><trkpt lat="44.8569337" lon="9.5573222"><ele>362.0</ele><time>2026-03-26T15:00:21.986Z</time></trkpt><trkpt lat="44.85689" lon="9.5574177"><ele>363.3333333333333</ele><time>2026-03-26T15:00:22.986Z</time></trkpt><trkpt lat="44.8568543" lon="9.5575075"><ele>364.6666666666667</ele><time>2026-03-26T15:00:23.987Z</time></trkpt><trkpt lat="44.8568554" lon="9.5576329"><ele>366.0</ele><time>2026-03-26T15:00:25.986Z</time></trkpt><trkpt lat="44.8569559" lon="9.5576206"><ele>366.0</ele><time>2026-03-26T15:00:27.986Z</time></trkpt><trkpt lat="44.8570196" lon="9.5575527"><ele>366.0</ele><time>2026-03-26T15:00:28.987Z</time></trkpt><trkpt lat="44.8570855" lon="9.5574478"><ele>366.0</ele><time>2026-03-26T15:00:29.987Z</time></trkpt><trkpt lat="44.8571653" lon="9.5573461"><ele>366.0</ele><time>2026-03-26T15:00:30.987Z</time></trkpt><trkpt lat="44.8572768" lon="9.5572374"><ele>366.0</ele><time>2026-03-26T15:00:31.991Z</time></trkpt><trkpt lat="44.8573939" lon="9.5571323"><ele>366.0</ele><time>2026-03-26T15:00:32.987Z</time></trkpt><trkpt lat="44.8574984" lon="9.5570449"><ele>366.0</ele><time>2026-03-26T15:00:33.986Z</time></trkpt><trkpt lat="44.8575827" lon="9.5569934"><ele>366.0</ele><time>2026-03-26T15:00:34.987Z</time></trkpt><trkpt lat="44.8576503" lon="9.5569742"><ele>366.0</ele><time>2026-03-26T15:00:35.988Z</time></trkpt><trkpt lat="44.8577384" lon="9.557018"><ele>366.0</ele><time>2026-03-26T15:00:37.989Z</time></trkpt><trkpt lat="44.8577147" lon="9.5571846"><ele>366.0</ele><time>2026-03-26T15:00:39.99Z</time></trkpt><trkpt lat="44.8576617" lon="9.5573165"><ele>366.0</ele><time>2026-03-26T15:00:40.988Z</time></trkpt><trkpt lat="44.8576095" lon="9.5574814"><ele>366.0</ele><time>2026-03-26T15:00:41.987Z</time></trkpt><trkpt lat="44.8575658" lon="9.5576684"><ele>366.0</ele><time>2026-03-26T15:00:42.988Z</time></trkpt><trkpt lat="44.8575244" lon="9.5578691"><ele>368.3333333333333</ele><time>2026-03-26T15:00:43.986Z</time></trkpt><trkpt lat="44.857482" lon="9.5580829"><ele>370.66666666666663</ele><time>2026-03-26T15:00:44.988Z</time></trkpt><trkpt lat="44.8574354" lon="9.5582912"><ele>373.0</ele><time>2026-03-26T15:00:45.987Z</time></trkpt><trkpt lat="44.857385" lon="9.5584803"><ele>373.0</ele><time>2026-03-26T15:00:46.987Z</time></trkpt><trkpt lat="44.8573317" lon="9.5586542"><ele>373.0</ele><time>2026-03-26T15:00:47.988Z</time></trkpt><trkpt lat="44.8572802" lon="9.55881"><ele>373.0</ele><time>2026-03-26T15:00:48.987Z</time></trkpt><trkpt lat="44.8572266" lon="9.5589516"><ele>373.0</ele><time>2026-03-26T15:00:49.988Z</time></trkpt><trkpt lat="44.8571787" lon="9.5590829"><ele>375.16666666666663</ele><time>2026-03-26T15:00:50.989Z</time></trkpt><trkpt lat="44.857152" lon="9.5592034"><ele>377.3333333333333</ele><time>2026-03-26T15:00:51.987Z</time></trkpt><trkpt lat="44.8571464" lon="9.5593152"><ele>379.5</ele><time>2026-03-26T15:00:52.987Z</time></trkpt><trkpt lat="44.8571719" lon="9.5594134"><ele>381.66666666666663</ele><time>2026-03-26T15:00:53.988Z</time></trkpt><trkpt lat="44.8572147" lon="9.5594902"><ele>383.8333333333333</ele><time>2026-03-26T15:00:54.987Z</time></trkpt><trkpt lat="44.85727" lon="9.5595433"><ele>386.0</ele><time>2026-03-26T15:00:55.986Z</time></trkpt><trkpt lat="44.8573583" lon="9.5595633"><ele>388.8</ele><time>2026-03-26T15:00:56.988Z</time></trkpt><trkpt lat="44.857465" lon="9.5595933"><ele>391.6</ele><time>2026-03-26T15:00:57.986Z</time></trkpt><trkpt lat="44.8575567" lon="9.5596317"><ele>394.4</ele><time>2026-03-26T15:00:58.987Z</time></trkpt><trkpt lat="44.8576317" lon="9.559665"><ele>397.2</ele><time>2026-03-26T15:00:59.99Z</time></trkpt><trkpt lat="44.8577317" lon="9.559725"><ele>400.0</ele><time>2026-03-26T15:01:01.988Z</time></trkpt><trkpt lat="44.8578017" lon="9.5597767"><ele>401.1666666666667</ele><time>2026-03-26T15:01:04.987Z</time></trkpt><trkpt lat="44.8578767" lon="9.55978"><ele>402.33333333333337</ele><time>2026-03-26T15:01:06.987Z</time></trkpt><trkpt lat="44.858" lon="9.559785"><ele>403.5</ele><time>2026-03-26T15:01:08.988Z</time></trkpt><trkpt lat="44.8580633" lon="9.5597633"><ele>404.66666666666663</ele><time>2026-03-26T15:01:09.986Z</time></trkpt><trkpt lat="44.8581233" lon="9.5597267"><ele>405.8333333333333</ele><time>2026-03-26T15:01:10.987Z</time></trkpt><trkpt lat="44.8581867" lon="9.5596833"><ele>407.0</ele><time>2026-03-26T15:01:11.985Z</time></trkpt><trkpt lat="44.8582567" lon="9.5596383"><ele>406.99999999999994</ele><time>2026-03-26T15:01:12.986Z</time></trkpt><trkpt lat="44.8583417" lon="9.5596"><ele>407.0</ele><time>2026-03-26T15:01:13.987Z</time></trkpt><trkpt lat="44.8584383" lon="9.5595583"><ele>407.0</ele><time>2026-03-26T15:01:14.988Z</time></trkpt><trkpt lat="44.85853" lon="9.5595033"><ele>407.0</ele><time>2026-03-26T15:01:15.986Z</time></trkpt><trkpt lat="44.8585983" lon="9.5594333"><ele>406.99999999999994</ele><time>2026-03-26T15:01:16.986Z</time></trkpt><trkpt lat="44.85866" lon="9.559375"><ele>407.0</ele><time>2026-03-26T15:01:17.987Z</time></trkpt><trkpt lat="44.8587333" lon="9.559345"><ele>404.0</ele><time>2026-03-26T15:01:18.987Z</time></trkpt><trkpt lat="44.858815" lon="9.5593433"><ele>401.0</ele><time>2026-03-26T15:01:19.987Z</time></trkpt><trkpt lat="44.8589117" lon="9.5593517"><ele>398.0</ele><time>2026-03-26T15:01:20.987Z</time></trkpt><trkpt lat="44.8590267" lon="9.5593567"><ele>395.0</ele><time>2026-03-26T15:01:21.986Z</time></trkpt><trkpt lat="44.8591383" lon="9.55935"><ele>392.0</ele><time>2026-03-26T15:01:22.99Z</time></trkpt><trkpt lat="44.859245" lon="9.55933"><ele>388.99999999999994</ele><time>2026-03-26T15:01:23.986Z</time></trkpt><trkpt lat="44.8593433" lon="9.5593233"><ele>386.0</ele><time>2026-03-26T15:01:24.987Z</time></trkpt><trkpt lat="44.8594333" lon="9.559335"><ele>383.0</ele><time>2026-03-26T15:01:25.987Z</time></trkpt><trkpt lat="44.8595183" lon="9.5593583"><ele>380.0</ele><time>2026-03-26T15:01:26.989Z</time></trkpt><trkpt lat="44.8595917" lon="9.5593917"><ele>377.0</ele><time>2026-03-26T15:01:27.986Z</time></trkpt><trkpt lat="44.859665" lon="9.559435"><ele>374.0</ele><time>2026-03-26T15:01:28.987Z</time></trkpt><trkpt lat="44.85974" lon="9.5594967"><ele>370.6</ele><time>2026-03-26T15:01:29.988Z</time></trkpt><trkpt lat="44.85982" lon="9.5595817"><ele>367.2</ele><time>2026-03-26T15:01:30.988Z</time></trkpt><trkpt lat="44.8598967" lon="9.55969"><ele>363.8</ele><time>2026-03-26T15:01:31.988Z</time></trkpt><trkpt lat="44.8599867" lon="9.5597917"><ele>360.40000000000003</ele><time>2026-03-26T15:01:32.988Z</time></trkpt><trkpt lat="44.86007" lon="9.5598783"><ele>357.0</ele><time>2026-03-26T15:01:33.986Z</time></trkpt><trkpt lat="44.860145" lon="9.5599617"><ele>357.0</ele><time>2026-03-26T15:01:34.987Z</time></trkpt><trkpt lat="44.86022" lon="9.560035"><ele>357.0</ele><time>2026-03-26T15:01:35.987Z</time></trkpt><trkpt lat="44.8603017" lon="9.56009"><ele>357.0</ele><time>2026-03-26T15:01:36.987Z</time></trkpt><trkpt lat="44.860375" lon="9.560135"><ele>357.0</ele><time>2026-03-26T15:01:37.988Z</time></trkpt><trkpt lat="44.86045" lon="9.56019"><ele>357.0</ele><time>2026-03-26T15:01:38.989Z</time></trkpt><trkpt lat="44.8605267" lon="9.5602617"><ele>357.0</ele><time>2026-03-26T15:01:39.99Z</time></trkpt><trkpt lat="44.8605833" lon="9.560335"><ele>354.0</ele><time>2026-03-26T15:01:40.988Z</time></trkpt><trkpt lat="44.8606533" lon="9.56041"><ele>351.0</ele><time>2026-03-26T15:01:41.988Z</time></trkpt><trkpt lat="44.8607267" lon="9.5604717"><ele>348.0</ele><time>2026-03-26T15:01:42.987Z</time></trkpt><trkpt lat="44.8608" lon="9.560515"><ele>345.0</ele><time>2026-03-26T15:01:43.988Z</time></trkpt><trkpt lat="44.8609083" lon="9.5605767"><ele>342.0</ele><time>2026-03-26T15:01:45.988Z</time></trkpt><trkpt lat="44.861" lon="9.5606817"><ele>342.0</ele><time>2026-03-26T15:01:47.988Z</time></trkpt><trkpt lat="44.8610583" lon="9.5607483"><ele>342.0</ele><time>2026-03-26T15:01:48.986Z</time></trkpt><trkpt lat="44.861125" lon="9.5608083"><ele>342.0</ele><time>2026-03-26T15:01:49.987Z</time></trkpt><trkpt lat="44.86118" lon="9.5608667"><ele>342.0</ele><time>2026-03-26T15:01:50.987Z</time></trkpt><trkpt lat="44.8612417" lon="9.5609433"><ele>342.0</ele><time>2026-03-26T15:01:51.988Z</time></trkpt><trkpt lat="44.861295" lon="9.5610283"><ele>342.0</ele><time>2026-03-26T15:01:52.987Z</time></trkpt><trkpt lat="44.8613383" lon="9.5611183"><ele>343.6666666666667</ele><time>2026-03-26T15:01:53.987Z</time></trkpt><trkpt lat="44.8613783" lon="9.56122"><ele>345.3333333333333</ele><time>2026-03-26T15:01:54.987Z</time></trkpt><trkpt lat="44.8614217" lon="9.56132"><ele>347.0</ele><time>2026-03-26T15:01:55.987Z</time></trkpt><trkpt lat="44.8614533" lon="9.5614167"><ele>348.66666666666663</ele><time>2026-03-26T15:01:56.987Z</time></trkpt><trkpt lat="44.8614917" lon="9.561515"><ele>350.3333333333333</ele><time>2026-03-26T15:01:57.986Z</time></trkpt><trkpt lat="44.8615367" lon="9.56161"><ele>352.0</ele><time>2026-03-26T15:01:58.989Z</time></trkpt><trkpt lat="44.861585" lon="9.5617083"><ele>352.0</ele><time>2026-03-26T15:01:59.987Z</time></trkpt><trkpt lat="44.8616333" lon="9.5618067"><ele>352.0</ele><time>2026-03-26T15:02:00.987Z</time></trkpt><trkpt lat="44.8616767" lon="9.5619033"><ele>352.0</ele><time>2026-03-26T15:02:01.987Z</time></trkpt><trkpt lat="44.8617533" lon="9.562025"><ele>352.0</ele><time>2026-03-26T15:02:03.987Z</time></trkpt><trkpt lat="44.8618467" lon="9.5620217"><ele>352.0</ele><time>2026-03-26T15:02:05.987Z</time></trkpt><trkpt lat="44.8619317" lon="9.5619983"><ele>352.16666666666663</ele><time>2026-03-26T15:02:06.986Z</time></trkpt><trkpt lat="44.8620067" lon="9.5619917"><ele>352.3333333333333</ele><time>2026-03-26T15:02:07.987Z</time></trkpt><trkpt lat="44.8620733" lon="9.5620017"><ele>352.5</ele><time>2026-03-26T15:02:08.988Z</time></trkpt><trkpt lat="44.8621367" lon="9.56203"><ele>352.6666666666667</ele><time>2026-03-26T15:02:09.988Z</time></trkpt><trkpt lat="44.86221" lon="9.562075"><ele>352.83333333333337</ele><time>2026-03-26T15:02:10.988Z</time></trkpt><trkpt lat="44.8622867" lon="9.5621333"><ele>353.0</ele><time>2026-03-26T15:02:11.99Z</time></trkpt><trkpt lat="44.8623583" lon="9.5621917"><ele>353.0</ele><time>2026-03-26T15:02:12.987Z</time></trkpt><trkpt lat="44.862425" lon="9.5622483"><ele>353.0</ele><time>2026-03-26T15:02:13.989Z</time></trkpt><trkpt lat="44.8624883" lon="9.5623"><ele>353.0</ele><time>2026-03-26T15:02:14.989Z</time></trkpt><trkpt lat="44.8625517" lon="9.562345"><ele>353.0</ele><time>2026-03-26T15:02:15.987Z</time></trkpt><trkpt lat="44.8626117" lon="9.5623733"><ele>353.0</ele><time>2026-03-26T15:02:16.987Z</time></trkpt><trkpt lat="44.8627167" lon="9.56237"><ele>353.0</ele><time>2026-03-26T15:02:18.985Z</time></trkpt><trkpt lat="44.86283" lon="9.56227"><ele>350.1666666666667</ele><time>2026-03-26T15:02:20.988Z</time></trkpt><trkpt lat="44.8628883" lon="9.5622017"><ele>347.33333333333337</ele><time>2026-03-26T15:02:21.987Z</time></trkpt><trkpt lat="44.862945" lon="9.56215"><ele>344.5</ele><time>2026-03-26T15:02:22.987Z</time></trkpt><trkpt lat="44.86305" lon="9.5621667"><ele>341.6666666666667</ele><time>2026-03-26T15:02:24.987Z</time></trkpt><trkpt lat="44.8631117" lon="9.562225"><ele>338.8333333333333</ele><time>2026-03-26T15:02:25.986Z</time></trkpt><trkpt lat="44.8631867" lon="9.5623133"><ele>336.0</ele><time>2026-03-26T15:02:26.988Z</time></trkpt><trkpt lat="44.8632667" lon="9.562405"><ele>336.0</ele><time>2026-03-26T15:02:27.988Z</time></trkpt><trkpt lat="44.8633467" lon="9.56249"><ele>336.0</ele><time>2026-03-26T15:02:28.987Z</time></trkpt><trkpt lat="44.8634233" lon="9.5625733"><ele>336.0</ele><time>2026-03-26T15:02:29.99Z</time></trkpt><trkpt lat="44.863485" lon="9.562645"><ele>336.0</ele><time>2026-03-26T15:02:30.99Z</time></trkpt><trkpt lat="44.8635533" lon="9.5627217"><ele>336.0</ele><time>2026-03-26T15:02:32.987Z</time></trkpt><trkpt lat="44.8636133" lon="9.5628067"><ele>336.0</ele><time>2026-03-26T15:02:47.987Z</time></trkpt><trkpt lat="44.863655" lon="9.5628833"><ele>335.1666666666667</ele><time>2026-03-26T15:02:49.986Z</time></trkpt><trkpt lat="44.8637167" lon="9.562935"><ele>334.3333333333333</ele><time>2026-03-26T15:02:53.986Z</time></trkpt><trkpt lat="44.863805" lon="9.562925"><ele>333.5</ele><time>2026-03-26T15:02:55.988Z</time></trkpt><trkpt lat="44.863875" lon="9.5629233"><ele>332.66666666666663</ele><time>2026-03-26T15:02:56.988Z</time></trkpt><trkpt lat="44.8639533" lon="9.562925"><ele>331.8333333333333</ele><time>2026-03-26T15:02:57.987Z</time></trkpt><trkpt lat="44.864035" lon="9.5629283"><ele>331.0</ele><time>2026-03-26T15:02:58.988Z</time></trkpt><trkpt lat="44.8641233" lon="9.5629333"><ele>331.0</ele><time>2026-03-26T15:02:59.989Z</time></trkpt><trkpt lat="44.8642133" lon="9.562935"><ele>331.0</ele><time>2026-03-26T15:03:00.988Z</time></trkpt><trkpt lat="44.8642983" lon="9.562935"><ele>331.0</ele><time>2026-03-26T15:03:01.987Z</time></trkpt><trkpt lat="44.8643817" lon="9.56293"><ele>331.0</ele><time>2026-03-26T15:03:02.988Z</time></trkpt><trkpt lat="44.8644533" lon="9.56293"><ele>331.0</ele><time>2026-03-26T15:03:03.987Z</time></trkpt><trkpt lat="44.8645533" lon="9.56299"><ele>331.0</ele><time>2026-03-26T15:03:05.986Z</time></trkpt><trkpt lat="44.8645983" lon="9.5631283"><ele>331.0</ele><time>2026-03-26T15:03:07.988Z</time></trkpt><trkpt lat="44.8645767" lon="9.5632367"><ele>331.0</ele><time>2026-03-26T15:03:08.988Z</time></trkpt><trkpt lat="44.8645333" lon="9.5633733"><ele>331.0</ele><time>2026-03-26T15:03:09.987Z</time></trkpt><trkpt lat="44.8644783" lon="9.563535"><ele>331.0</ele><time>2026-03-26T15:03:10.987Z</time></trkpt><trkpt lat="44.8644283" lon="9.5636883"><ele>331.0</ele><time>2026-03-26T15:03:11.987Z</time></trkpt><trkpt lat="44.8643767" lon="9.5638417"><ele>331.0</ele><time>2026-03-26T15:03:12.99Z</time></trkpt><trkpt lat="44.86432" lon="9.56399"><ele>331.0</ele><time>2026-03-26T15:03:13.988Z</time></trkpt><trkpt lat="44.864265" lon="9.5641317"><ele>331.0</ele><time>2026-03-26T15:03:14.987Z</time></trkpt><trkpt lat="44.864215" lon="9.5642633"><ele>331.0</ele><time>2026-03-26T15:03:15.987Z</time></trkpt><trkpt lat="44.8641767" lon="9.564375"><ele>331.0</ele><time>2026-03-26T15:03:16.987Z</time></trkpt><trkpt lat="44.8641433" lon="9.56446"><ele>335.66666666666663</ele><time>2026-03-26T15:03:17.988Z</time></trkpt><trkpt lat="44.864125" lon="9.5645833"><ele>340.3333333333333</ele><time>2026-03-26T15:03:19.988Z</time></trkpt><trkpt lat="44.8641767" lon="9.564685"><ele>345.0</ele><time>2026-03-26T15:03:21.988Z</time></trkpt><trkpt lat="44.86422" lon="9.5647867"><ele>349.6666666666667</ele><time>2026-03-26T15:03:23.987Z</time></trkpt><trkpt lat="44.86419" lon="9.564875"><ele>354.33333333333337</ele><time>2026-03-26T15:03:24.987Z</time></trkpt><trkpt lat="44.8641467" lon="9.5649567"><ele>359.0</ele><time>2026-03-26T15:03:25.987Z</time></trkpt><trkpt lat="44.8640767" lon="9.5650283"><ele>359.0</ele><time>2026-03-26T15:03:26.987Z</time></trkpt><trkpt lat="44.8640017" lon="9.5651017"><ele>359.0</ele><time>2026-03-26T15:03:27.987Z</time></trkpt><trkpt lat="44.8639233" lon="9.5651833"><ele>359.0</ele><time>2026-03-26T15:03:28.987Z</time></trkpt><trkpt lat="44.8638683" lon="9.5652667"><ele>359.0</ele><time>2026-03-26T15:03:29.987Z</time></trkpt><trkpt lat="44.8638" lon="9.5653467"><ele>359.0</ele><time>2026-03-26T15:03:30.987Z</time></trkpt><trkpt lat="44.86373" lon="9.56541"><ele>359.0</ele><time>2026-03-26T15:03:31.987Z</time></trkpt><trkpt lat="44.863655" lon="9.5654733"><ele>361.79999999999995</ele><time>2026-03-26T15:03:32.987Z</time></trkpt><trkpt lat="44.86358" lon="9.5655483"><ele>364.59999999999997</ele><time>2026-03-26T15:03:33.986Z</time></trkpt><trkpt lat="44.863505" lon="9.56563"><ele>367.4</ele><time>2026-03-26T15:03:34.985Z</time></trkpt><trkpt lat="44.8634383" lon="9.565715"><ele>370.2</ele><time>2026-03-26T15:03:35.988Z</time></trkpt><trkpt lat="44.86338" lon="9.5657833"><ele>373.0</ele><time>2026-03-26T15:03:36.987Z</time></trkpt><trkpt lat="44.8633017" lon="9.5659167"><ele>375.0</ele><time>2026-03-26T15:03:38.987Z</time></trkpt><trkpt lat="44.8632733" lon="9.5660133"><ele>377.0</ele><time>2026-03-26T15:03:39.987Z</time></trkpt><trkpt lat="44.8632467" lon="9.566115"><ele>379.0</ele><time>2026-03-26T15:03:40.986Z</time></trkpt><trkpt lat="44.8632317" lon="9.5662283"><ele>381.0</ele><time>2026-03-26T15:03:41.987Z</time></trkpt><trkpt lat="44.86323" lon="9.56635"><ele>383.00000000000006</ele><time>2026-03-26T15:03:42.987Z</time></trkpt><trkpt lat="44.8632383" lon="9.5664583"><ele>385.0</ele><time>2026-03-26T15:03:43.987Z</time></trkpt><trkpt lat="44.8632417" lon="9.5666133"><ele>386.8</ele><time>2026-03-26T15:03:45.987Z</time></trkpt><trkpt lat="44.8631633" lon="9.5666233"><ele>388.6</ele><time>2026-03-26T15:03:49.987Z</time></trkpt><trkpt lat="44.863095" lon="9.5666583"><ele>390.4</ele><time>2026-03-26T15:03:52.989Z</time></trkpt><trkpt lat="44.86314" lon="9.56679"><ele>392.2</ele><time>2026-03-26T15:03:55.987Z</time></trkpt><trkpt lat="44.8631933" lon="9.5669617"><ele>394.0</ele><time>2026-03-26T15:03:57.988Z</time></trkpt><trkpt lat="44.863205" lon="9.5670767"><ele>394.6</ele><time>2026-03-26T15:03:58.987Z</time></trkpt><trkpt lat="44.8632" lon="9.56721"><ele>395.2</ele><time>2026-03-26T15:03:59.988Z</time></trkpt><trkpt lat="44.8631817" lon="9.5673567"><ele>395.8</ele><time>2026-03-26T15:04:00.988Z</time></trkpt><trkpt lat="44.86316" lon="9.56751"><ele>396.40000000000003</ele><time>2026-03-26T15:04:01.987Z</time></trkpt><trkpt lat="44.863145" lon="9.56765"><ele>397.0</ele><time>2026-03-26T15:04:02.988Z</time></trkpt><trkpt lat="44.863125" lon="9.5677733"><ele>396.83333333333337</ele><time>2026-03-26T15:04:03.987Z</time></trkpt><trkpt lat="44.863095" lon="9.56788"><ele>396.6666666666667</ele><time>2026-03-26T15:04:04.987Z</time></trkpt><trkpt lat="44.8630617" lon="9.56797"><ele>396.5</ele><time>2026-03-26T15:04:05.987Z</time></trkpt><trkpt lat="44.8630217" lon="9.568045"><ele>396.33333333333337</ele><time>2026-03-26T15:04:06.989Z</time></trkpt><trkpt lat="44.8629667" lon="9.5682067"><ele>396.1666666666667</ele><time>2026-03-26T15:04:08.988Z</time></trkpt><trkpt lat="44.862955" lon="9.56832"><ele>396.0</ele><time>2026-03-26T15:04:09.988Z</time></trkpt><trkpt lat="44.86296" lon="9.5684517"><ele>396.0</ele><time>2026-03-26T15:04:10.987Z</time></trkpt><trkpt lat="44.862955" lon="9.5685867"><ele>396.0</ele><time>2026-03-26T15:04:11.987Z</time></trkpt><trkpt lat="44.8629433" lon="9.5687233"><ele>396.0</ele><time>2026-03-26T15:04:12.986Z</time></trkpt><trkpt lat="44.8629367" lon="9.5688467"><ele>396.0</ele><time>2026-03-26T15:04:13.988Z</time></trkpt><trkpt lat="44.86294" lon="9.568955"><ele>396.0</ele><time>2026-03-26T15:04:14.989Z</time></trkpt><trkpt lat="44.862965" lon="9.5690383"><ele>396.0</ele><time>2026-03-26T15:04:15.986Z</time></trkpt><trkpt lat="44.8630067" lon="9.569105"><ele>395.8333333333333</ele><time>2026-03-26T15:04:16.986Z</time></trkpt><trkpt lat="44.8630783" lon="9.5691533"><ele>395.66666666666663</ele><time>2026-03-26T15:04:17.987Z</time></trkpt><trkpt lat="44.8631633" lon="9.569205"><ele>395.5</ele><time>2026-03-26T15:04:18.986Z</time></trkpt><trkpt lat="44.8632383" lon="9.5692567"><ele>395.3333333333333</ele><time>2026-03-26T15:04:19.987Z</time></trkpt><trkpt lat="44.8633167" lon="9.5692933"><ele>395.16666666666663</ele><time>2026-03-26T15:04:20.988Z</time></trkpt><trkpt lat="44.8634067" lon="9.5693183"><ele>395.0</ele><time>2026-03-26T15:04:21.987Z</time></trkpt><trkpt lat="44.863505" lon="9.56933"><ele>394.99999999999994</ele><time>2026-03-26T15:04:22.987Z</time></trkpt><trkpt lat="44.8635933" lon="9.5693317"><ele>395.0</ele><time>2026-03-26T15:04:23.987Z</time></trkpt><trkpt lat="44.8636667" lon="9.56933"><ele>395.0</ele><time>2026-03-26T15:04:24.987Z</time></trkpt><trkpt lat="44.8637333" lon="9.56933"><ele>395.0</ele><time>2026-03-26T15:04:25.987Z</time></trkpt><trkpt lat="44.8637967" lon="9.569325"><ele>394.99999999999994</ele><time>2026-03-26T15:04:26.987Z</time></trkpt><trkpt lat="44.863915" lon="9.5693117"><ele>395.0</ele><time>2026-03-26T15:04:28.987Z</time></trkpt><trkpt lat="44.863985" lon="9.5693067"><ele>394.99999999999994</ele><time>2026-03-26T15:04:29.987Z</time></trkpt><trkpt lat="44.8640583" lon="9.569315"><ele>395.0</ele><time>2026-03-26T15:04:30.987Z</time></trkpt><trkpt lat="44.8641467" lon="9.5693417"><ele>395.0</ele><time>2026-03-26T15:04:31.987Z</time></trkpt><trkpt lat="44.86423" lon="9.56937"><ele>395.0</ele><time>2026-03-26T15:04:32.988Z</time></trkpt><trkpt lat="44.8643217" lon="9.5693917"><ele>394.99999999999994</ele><time>2026-03-26T15:04:33.986Z</time></trkpt><trkpt lat="44.86442" lon="9.5694083"><ele>395.0</ele><time>2026-03-26T15:04:34.987Z</time></trkpt><trkpt lat="44.8645117" lon="9.5694367"><ele>392.4</ele><time>2026-03-26T15:04:35.986Z</time></trkpt><trkpt lat="44.8645933" lon="9.5694767"><ele>389.8</ele><time>2026-03-26T15:04:36.987Z</time></trkpt><trkpt lat="44.8646767" lon="9.5695617"><ele>387.20000000000005</ele><time>2026-03-26T15:04:37.987Z</time></trkpt><trkpt lat="44.864745" lon="9.5696617"><ele>384.6</ele><time>2026-03-26T15:04:38.988Z</time></trkpt><trkpt lat="44.86479" lon="9.56977"><ele>382.0</ele><time>2026-03-26T15:04:39.988Z</time></trkpt><trkpt lat="44.8648283" lon="9.5698767"><ele>382.0</ele><time>2026-03-26T15:04:40.987Z</time></trkpt><trkpt lat="44.8648583" lon="9.5699967"><ele>382.0</ele><time>2026-03-26T15:04:41.986Z</time></trkpt><trkpt lat="44.8648767" lon="9.5701217"><ele>382.0</ele><time>2026-03-26T15:04:42.987Z</time></trkpt><trkpt lat="44.864905" lon="9.5702483"><ele>382.0</ele><time>2026-03-26T15:04:43.987Z</time></trkpt><trkpt lat="44.8649433" lon="9.57038"><ele>382.0</ele><time>2026-03-26T15:04:44.989Z</time></trkpt><trkpt lat="44.8649817" lon="9.5705133"><ele>383.6</ele><time>2026-03-26T15:04:45.988Z</time></trkpt><trkpt lat="44.8650183" lon="9.5706433"><ele>385.20000000000005</ele><time>2026-03-26T15:04:46.987Z</time></trkpt><trkpt lat="44.8650717" lon="9.5707883"><ele>386.8</ele><time>2026-03-26T15:04:47.987Z</time></trkpt><trkpt lat="44.8651133" lon="9.5709183"><ele>388.4</ele><time>2026-03-26T15:04:48.987Z</time></trkpt><trkpt lat="44.86515" lon="9.571045"><ele>390.0</ele><time>2026-03-26T15:04:49.987Z</time></trkpt><trkpt lat="44.8651767" lon="9.5711633"><ele>384.5</ele><time>2026-03-26T15:04:50.988Z</time></trkpt><trkpt lat="44.8651933" lon="9.5712783"><ele>379.0</ele><time>2026-03-26T15:04:51.986Z</time></trkpt><trkpt lat="44.8651933" lon="9.5713933"><ele>373.5</ele><time>2026-03-26T15:04:52.987Z</time></trkpt><trkpt lat="44.8651767" lon="9.571515"><ele>368.0</ele><time>2026-03-26T15:04:53.987Z</time></trkpt><trkpt lat="44.8651633" lon="9.5716417"><ele>362.5</ele><time>2026-03-26T15:04:54.987Z</time></trkpt><trkpt lat="44.865145" lon="9.5717817"><ele>357.0</ele><time>2026-03-26T15:04:55.987Z</time></trkpt><trkpt lat="44.8651367" lon="9.571935"><ele>359.0</ele><time>2026-03-26T15:04:56.988Z</time></trkpt><trkpt lat="44.8651433" lon="9.5720867"><ele>361.0</ele><time>2026-03-26T15:04:57.986Z</time></trkpt><trkpt lat="44.8651567" lon="9.5722317"><ele>363.0</ele><time>2026-03-26T15:04:58.987Z</time></trkpt><trkpt lat="44.8651667" lon="9.5723633"><ele>365.0</ele><time>2026-03-26T15:04:59.987Z</time></trkpt><trkpt lat="44.8651767" lon="9.5724767"><ele>367.0</ele><time>2026-03-26T15:05:00.986Z</time></trkpt><trkpt lat="44.8651733" lon="9.57259"><ele>367.0</ele><time>2026-03-26T15:05:01.987Z</time></trkpt><trkpt lat="44.8651717" lon="9.5727183"><ele>367.0</ele><time>2026-03-26T15:05:02.987Z</time></trkpt><trkpt lat="44.865145" lon="9.5728417"><ele>367.0</ele><time>2026-03-26T15:05:03.987Z</time></trkpt><trkpt lat="44.8651183" lon="9.572955"><ele>367.0</ele><time>2026-03-26T15:05:04.986Z</time></trkpt><trkpt lat="44.8650867" lon="9.5730533"><ele>367.0</ele><time>2026-03-26T15:05:05.986Z</time></trkpt><trkpt lat="44.8650517" lon="9.5731433"><ele>367.0</ele><time>2026-03-26T15:05:06.986Z</time></trkpt><trkpt lat="44.865015" lon="9.5732317"><ele>371.5</ele><time>2026-03-26T15:05:07.987Z</time></trkpt><trkpt lat="44.8649683" lon="9.5733717"><ele>376.0</ele><time>2026-03-26T15:05:09.986Z</time></trkpt><trkpt lat="44.865135" lon="9.5733017"><ele>380.5</ele><time>2026-03-26T15:05:14.988Z</time></trkpt><trkpt lat="44.86525" lon="9.5732267"><ele>385.0</ele><time>2026-03-26T15:05:15.987Z</time></trkpt><trkpt lat="44.8653317" lon="9.573165"><ele>385.0</ele><time>2026-03-26T15:05:16.987Z</time></trkpt><trkpt lat="44.8654167" lon="9.5731117"><ele>385.0</ele><time>2026-03-26T15:05:17.987Z</time></trkpt><trkpt lat="44.8655017" lon="9.5730683"><ele>385.0</ele><time>2026-03-26T15:05:18.987Z</time></trkpt><trkpt lat="44.865595" lon="9.5730317"><ele>385.0</ele><time>2026-03-26T15:05:19.987Z</time></trkpt><trkpt lat="44.8656917" lon="9.5729967"><ele>385.0</ele><time>2026-03-26T15:05:20.987Z</time></trkpt><trkpt lat="44.8657933" lon="9.5729833"><ele>385.0</ele><time>2026-03-26T15:05:21.987Z</time></trkpt><trkpt lat="44.86589" lon="9.57299"><ele>385.0</ele><time>2026-03-26T15:05:22.986Z</time></trkpt><trkpt lat="44.8659833" lon="9.573025"><ele>385.0</ele><time>2026-03-26T15:05:23.986Z</time></trkpt><trkpt lat="44.8660617" lon="9.573085"><ele>385.0</ele><time>2026-03-26T15:05:24.987Z</time></trkpt><trkpt lat="44.8661317" lon="9.5731583"><ele>385.0</ele><time>2026-03-26T15:05:25.987Z</time></trkpt><trkpt lat="44.866185" lon="9.5732533"><ele>380.5</ele><time>2026-03-26T15:05:26.987Z</time></trkpt><trkpt lat="44.8662367" lon="9.573405"><ele>376.0</ele><time>2026-03-26T15:05:27.988Z</time></trkpt><trkpt lat="44.866285" lon="9.5735633"><ele>371.5</ele><time>2026-03-26T15:05:28.987Z</time></trkpt><trkpt lat="44.86633" lon="9.573725"><ele>367.0</ele><time>2026-03-26T15:05:29.987Z</time></trkpt><trkpt lat="44.866385" lon="9.5738683"><ele>367.0</ele><time>2026-03-26T15:05:30.986Z</time></trkpt><trkpt lat="44.8664517" lon="9.573995"><ele>367.0</ele><time>2026-03-26T15:05:31.987Z</time></trkpt><trkpt lat="44.866525" lon="9.5741033"><ele>367.0</ele><time>2026-03-26T15:05:32.986Z</time></trkpt><trkpt lat="44.866615" lon="9.574205"><ele>367.0</ele><time>2026-03-26T15:05:33.987Z</time></trkpt><trkpt lat="44.8667083" lon="9.5743067"><ele>362.75</ele><time>2026-03-26T15:05:34.986Z</time></trkpt><trkpt lat="44.8668" lon="9.5744217"><ele>358.5</ele><time>2026-03-26T15:05:35.987Z</time></trkpt><trkpt lat="44.866895" lon="9.5745433"><ele>354.25</ele><time>2026-03-26T15:05:36.986Z</time></trkpt><trkpt lat="44.8669867" lon="9.57465"><ele>350.0</ele><time>2026-03-26T15:05:37.987Z</time></trkpt><trkpt lat="44.867095" lon="9.57474"><ele>350.0</ele><time>2026-03-26T15:05:38.988Z</time></trkpt><trkpt lat="44.8672083" lon="9.5748283"><ele>350.0</ele><time>2026-03-26T15:05:39.987Z</time></trkpt><trkpt lat="44.867315" lon="9.574905"><ele>350.0</ele><time>2026-03-26T15:05:40.987Z</time></trkpt><trkpt lat="44.8674167" lon="9.5749783"><ele>350.0</ele><time>2026-03-26T15:05:41.987Z</time></trkpt><trkpt lat="44.8675217" lon="9.575045"><ele>349.6</ele><time>2026-03-26T15:05:42.986Z</time></trkpt><trkpt lat="44.8676267" lon="9.57511"><ele>349.2</ele><time>2026-03-26T15:05:43.986Z</time></trkpt><trkpt lat="44.8677317" lon="9.5751717"><ele>348.79999999999995</ele><time>2026-03-26T15:05:44.987Z</time></trkpt><trkpt lat="44.8678317" lon="9.5752333"><ele>348.4</ele><time>2026-03-26T15:05:45.987Z</time></trkpt><trkpt lat="44.867925" lon="9.5753067"><ele>348.0</ele><time>2026-03-26T15:05:46.987Z</time></trkpt><trkpt lat="44.868015" lon="9.5753833"><ele>348.0</ele><time>2026-03-26T15:05:47.987Z</time></trkpt><trkpt lat="44.8680967" lon="9.5754583"><ele>348.0</ele><time>2026-03-26T15:05:48.986Z</time></trkpt><trkpt lat="44.8681733" lon="9.5755383"><ele>348.0</ele><time>2026-03-26T15:05:49.987Z</time></trkpt><trkpt lat="44.8682467" lon="9.5756167"><ele>348.0</ele><time>2026-03-26T15:05:50.988Z</time></trkpt><trkpt lat="44.8683167" lon="9.57569"><ele>348.0</ele><time>2026-03-26T15:05:51.987Z</time></trkpt><trkpt lat="44.8683867" lon="9.575755"><ele>346.5</ele><time>2026-03-26T15:05:52.987Z</time></trkpt><trkpt lat="44.8684567" lon="9.575805"><ele>345.0</ele><time>2026-03-26T15:05:53.988Z</time></trkpt><trkpt lat="44.8685217" lon="9.5758517"><ele>343.5</ele><time>2026-03-26T15:05:54.988Z</time></trkpt><trkpt lat="44.868575" lon="9.5759133"><ele>342.0</ele><time>2026-03-26T15:05:55.987Z</time></trkpt><trkpt lat="44.8686383" lon="9.5760283"><ele>340.5</ele><time>2026-03-26T15:05:57.988Z</time></trkpt><trkpt lat="44.868695" lon="9.5761767"><ele>339.0</ele><time>2026-03-26T15:05:59.987Z</time></trkpt><trkpt lat="44.8687283" lon="9.5762567"><ele>339.0</ele><time>2026-03-26T15:06:00.986Z</time></trkpt><trkpt lat="44.86879" lon="9.5763883"><ele>339.0</ele><time>2026-03-26T15:06:02.988Z</time></trkpt><trkpt lat="44.868845" lon="9.5765"><ele>339.0</ele><time>2026-03-26T15:06:04.987Z</time></trkpt><trkpt lat="44.8688667" lon="9.576635"><ele>339.0</ele><time>2026-03-26T15:06:06.987Z</time></trkpt><trkpt lat="44.86887" lon="9.5767383"><ele>339.0</ele><time>2026-03-26T15:06:07.986Z</time></trkpt><trkpt lat="44.868875" lon="9.5768633"><ele>339.0</ele><time>2026-03-26T15:06:08.987Z</time></trkpt><trkpt lat="44.868875" lon="9.5769867"><ele>339.0</ele><time>2026-03-26T15:06:09.986Z</time></trkpt><trkpt lat="44.868865" lon="9.5771167"><ele>339.0</ele><time>2026-03-26T15:06:10.987Z</time></trkpt><trkpt lat="44.8688567" lon="9.577245"><ele>339.0</ele><time>2026-03-26T15:06:11.987Z</time></trkpt><trkpt lat="44.8688467" lon="9.57736"><ele>339.0</ele><time>2026-03-26T15:06:12.988Z</time></trkpt><trkpt lat="44.86882" lon="9.5774667"><ele>339.0</ele><time>2026-03-26T15:06:13.986Z</time></trkpt><trkpt lat="44.86878" lon="9.57757"><ele>339.85714285714283</ele><time>2026-03-26T15:06:14.987Z</time></trkpt><trkpt lat="44.868735" lon="9.577675"><ele>340.7142857142857</ele><time>2026-03-26T15:06:15.986Z</time></trkpt><trkpt lat="44.868695" lon="9.5777717"><ele>341.57142857142856</ele><time>2026-03-26T15:06:16.986Z</time></trkpt><trkpt lat="44.8686667" lon="9.5778567"><ele>342.42857142857144</ele><time>2026-03-26T15:06:17.987Z</time></trkpt><trkpt lat="44.8686483" lon="9.5779483"><ele>343.2857142857143</ele><time>2026-03-26T15:06:18.986Z</time></trkpt><trkpt lat="44.8686433" lon="9.5780483"><ele>344.14285714285717</ele><time>2026-03-26T15:06:19.987Z</time></trkpt><trkpt lat="44.8686567" lon="9.5781567"><ele>345.0</ele><time>2026-03-26T15:06:20.987Z</time></trkpt><trkpt lat="44.86868" lon="9.5782633"><ele>346.6</ele><time>2026-03-26T15:06:21.987Z</time></trkpt><trkpt lat="44.868735" lon="9.5783883"><ele>348.2</ele><time>2026-03-26T15:06:22.987Z</time></trkpt><trkpt lat="44.8688017" lon="9.578515"><ele>349.79999999999995</ele><time>2026-03-26T15:06:23.988Z</time></trkpt><trkpt lat="44.86887" lon="9.57863"><ele>351.4</ele><time>2026-03-26T15:06:24.986Z</time></trkpt><trkpt lat="44.868945" lon="9.5787367"><ele>353.0</ele><time>2026-03-26T15:06:25.987Z</time></trkpt><trkpt lat="44.8690217" lon="9.57884"><ele>351.59999999999997</ele><time>2026-03-26T15:06:26.988Z</time></trkpt><trkpt lat="44.869095" lon="9.5789467"><ele>350.2</ele><time>2026-03-26T15:06:27.989Z</time></trkpt><trkpt lat="44.869165" lon="9.57906"><ele>348.8</ele><time>2026-03-26T15:06:28.988Z</time></trkpt><trkpt lat="44.8692217" lon="9.57918"><ele>347.4</ele><time>2026-03-26T15:06:29.986Z</time></trkpt><trkpt lat="44.8692717" lon="9.5793133"><ele>346.0</ele><time>2026-03-26T15:06:30.987Z</time></trkpt><trkpt lat="44.8693167" lon="9.5794633"><ele>347.5</ele><time>2026-03-26T15:06:31.986Z</time></trkpt><trkpt lat="44.86936" lon="9.5796183"><ele>349.0</ele><time>2026-03-26T15:06:32.987Z</time></trkpt><trkpt lat="44.8694167" lon="9.5797783"><ele>350.5</ele><time>2026-03-26T15:06:33.987Z</time></trkpt><trkpt lat="44.8694933" lon="9.5799483"><ele>352.0</ele><time>2026-03-26T15:06:34.987Z</time></trkpt><trkpt lat="44.8695783" lon="9.5801083"><ele>352.0</ele><time>2026-03-26T15:06:35.987Z</time></trkpt><trkpt lat="44.86966" lon="9.5802567"><ele>352.0</ele><time>2026-03-26T15:06:36.987Z</time></trkpt><trkpt lat="44.8697383" lon="9.5803967"><ele>352.0</ele><time>2026-03-26T15:06:37.987Z</time></trkpt><trkpt lat="44.8698183" lon="9.5805217"><ele>352.0</ele><time>2026-03-26T15:06:38.987Z</time></trkpt><trkpt lat="44.869895" lon="9.58065"><ele>353.75</ele><time>2026-03-26T15:06:39.987Z</time></trkpt><trkpt lat="44.8699583" lon="9.5807933"><ele>355.5</ele><time>2026-03-26T15:06:40.987Z</time></trkpt><trkpt lat="44.8700017" lon="9.5809467"><ele>357.25</ele><time>2026-03-26T15:06:41.987Z</time></trkpt><trkpt lat="44.8700333" lon="9.5811133"><ele>359.0</ele><time>2026-03-26T15:06:42.987Z</time></trkpt><trkpt lat="44.8700567" lon="9.5813"><ele>360.0</ele><time>2026-03-26T15:06:43.986Z</time></trkpt><trkpt lat="44.8700767" lon="9.581495"><ele>361.0</ele><time>2026-03-26T15:06:44.988Z</time></trkpt><trkpt lat="44.8700983" lon="9.581685"><ele>362.0</ele><time>2026-03-26T15:06:45.987Z</time></trkpt><trkpt lat="44.870135" lon="9.5818533"><ele>363.0</ele><time>2026-03-26T15:06:46.987Z</time></trkpt><trkpt lat="44.8701717" lon="9.582"><ele>362.1666666666667</ele><time>2026-03-26T15:06:47.987Z</time></trkpt><trkpt lat="44.8702083" lon="9.5821333"><ele>361.3333333333333</ele><time>2026-03-26T15:06:48.987Z</time></trkpt><trkpt lat="44.8702383" lon="9.5822533"><ele>360.5</ele><time>2026-03-26T15:06:49.987Z</time></trkpt><trkpt lat="44.870265" lon="9.5823583"><ele>359.66666666666663</ele><time>2026-03-26T15:06:50.988Z</time></trkpt><trkpt lat="44.8702883" lon="9.58245"><ele>358.8333333333333</ele><time>2026-03-26T15:06:51.987Z</time></trkpt><trkpt lat="44.8703517" lon="9.58256"><ele>358.0</ele><time>2026-03-26T15:06:53.986Z</time></trkpt><trkpt lat="44.8704483" lon="9.5825333"><ele>358.0</ele><time>2026-03-26T15:06:55.988Z</time></trkpt><trkpt lat="44.87051" lon="9.5824583"><ele>358.0</ele><time>2026-03-26T15:06:56.988Z</time></trkpt><trkpt lat="44.8705767" lon="9.5823633"><ele>358.0</ele><time>2026-03-26T15:06:57.986Z</time></trkpt><trkpt lat="44.870645" lon="9.58225"><ele>358.0</ele><time>2026-03-26T15:06:58.987Z</time></trkpt><trkpt lat="44.8706983" lon="9.5821183"><ele>358.0</ele><time>2026-03-26T15:06:59.988Z</time></trkpt><trkpt lat="44.8707483" lon="9.5819783"><ele>357.0</ele><time>2026-03-26T15:07:00.986Z</time></trkpt><trkpt lat="44.870805" lon="9.5818533"><ele>356.0</ele><time>2026-03-26T15:07:01.988Z</time></trkpt><trkpt lat="44.87088" lon="9.5817583"><ele>355.0</ele><time>2026-03-26T15:07:02.988Z</time></trkpt><trkpt lat="44.87097" lon="9.5817083"><ele>354.0</ele><time>2026-03-26T15:07:03.987Z</time></trkpt><trkpt lat="44.8710833" lon="9.5817033"><ele>353.0</ele><time>2026-03-26T15:07:04.987Z</time></trkpt><trkpt lat="44.871215" lon="9.581725"><ele>351.25</ele><time>2026-03-26T15:07:05.989Z</time></trkpt><trkpt lat="44.8713567" lon="9.5817517"><ele>349.5</ele><time>2026-03-26T15:07:06.987Z</time></trkpt><trkpt lat="44.8714983" lon="9.5817767"><ele>347.75</ele><time>2026-03-26T15:07:07.988Z</time></trkpt><trkpt lat="44.87163" lon="9.5817967"><ele>346.0</ele><time>2026-03-26T15:07:08.989Z</time></trkpt><trkpt lat="44.8717483" lon="9.58181"><ele>344.8</ele><time>2026-03-26T15:07:09.988Z</time></trkpt><trkpt lat="44.871855" lon="9.5818067"><ele>343.6</ele><time>2026-03-26T15:07:10.987Z</time></trkpt><trkpt lat="44.871955" lon="9.581775"><ele>342.4</ele><time>2026-03-26T15:07:11.987Z</time></trkpt><trkpt lat="44.8720483" lon="9.58171"><ele>341.2</ele><time>2026-03-26T15:07:12.987Z</time></trkpt><trkpt lat="44.8721267" lon="9.58162"><ele>340.0</ele><time>2026-03-26T15:07:13.986Z</time></trkpt><trkpt lat="44.872195" lon="9.581515"><ele>340.0</ele><time>2026-03-26T15:07:14.987Z</time></trkpt><trkpt lat="44.8722583" lon="9.5814033"><ele>340.0</ele><time>2026-03-26T15:07:15.987Z</time></trkpt><trkpt lat="44.8723183" lon="9.581295"><ele>340.0</ele><time>2026-03-26T15:07:16.986Z</time></trkpt><trkpt lat="44.8723733" lon="9.58119"><ele>340.0</ele><time>2026-03-26T15:07:17.986Z</time></trkpt><trkpt lat="44.872425" lon="9.5810917"><ele>340.0</ele><time>2026-03-26T15:07:18.987Z</time></trkpt><trkpt lat="44.87247" lon="9.581"><ele>339.42857142857144</ele><time>2026-03-26T15:07:19.987Z</time></trkpt><trkpt lat="44.8725083" lon="9.58092"><ele>338.85714285714283</ele><time>2026-03-26T15:07:20.987Z</time></trkpt><trkpt lat="44.87257" lon="9.580825"><ele>338.2857142857143</ele><time>2026-03-26T15:07:22.986Z</time></trkpt><trkpt lat="44.8726333" lon="9.580835"><ele>337.7142857142857</ele><time>2026-03-26T15:07:24.99Z</time></trkpt><trkpt lat="44.8726883" lon="9.5809333"><ele>337.1428571428571</ele><time>2026-03-26T15:07:26.99Z</time></trkpt><trkpt lat="44.8727183" lon="9.5810133"><ele>336.57142857142856</ele><time>2026-03-26T15:07:27.986Z</time></trkpt><trkpt lat="44.87275" lon="9.581105"><ele>336.0</ele><time>2026-03-26T15:07:28.987Z</time></trkpt><trkpt lat="44.8727817" lon="9.5811967"><ele>334.5</ele><time>2026-03-26T15:07:29.988Z</time></trkpt><trkpt lat="44.8728133" lon="9.5812883"><ele>333.0</ele><time>2026-03-26T15:07:30.986Z</time></trkpt><trkpt lat="44.87285" lon="9.5813717"><ele>331.5</ele><time>2026-03-26T15:07:31.988Z</time></trkpt><trkpt lat="44.8728933" lon="9.5814417"><ele>330.0</ele><time>2026-03-26T15:07:32.99Z</time></trkpt><trkpt lat="44.8729933" lon="9.5815067"><ele>328.5</ele><time>2026-03-26T15:07:34.987Z</time></trkpt><trkpt lat="44.8730917" lon="9.58146"><ele>327.0</ele><time>2026-03-26T15:07:36.986Z</time></trkpt><trkpt lat="44.87316" lon="9.58143"><ele>327.0</ele><time>2026-03-26T15:07:37.988Z</time></trkpt><trkpt lat="44.87324" lon="9.5814033"><ele>327.0</ele><time>2026-03-26T15:07:38.989Z</time></trkpt><trkpt lat="44.8733167" lon="9.5813667"><ele>327.0</ele><time>2026-03-26T15:07:39.987Z</time></trkpt><trkpt lat="44.8733867" lon="9.5813333"><ele>327.0</ele><time>2026-03-26T15:07:40.987Z</time></trkpt><trkpt lat="44.8734633" lon="9.5813233"><ele>327.0</ele><time>2026-03-26T15:07:41.987Z</time></trkpt><trkpt lat="44.8735417" lon="9.5813367"><ele>327.0</ele><time>2026-03-26T15:07:42.989Z</time></trkpt><trkpt lat="44.8736167" lon="9.5813783"><ele>324.5</ele><time>2026-03-26T15:07:43.988Z</time></trkpt><trkpt lat="44.8736883" lon="9.5814483"><ele>322.0</ele><time>2026-03-26T15:07:44.989Z</time></trkpt><trkpt lat="44.873755" lon="9.5815317"><ele>319.5</ele><time>2026-03-26T15:07:45.986Z</time></trkpt><trkpt lat="44.8738217" lon="9.581615"><ele>317.0</ele><time>2026-03-26T15:07:46.987Z</time></trkpt><trkpt lat="44.8738883" lon="9.5816933"><ele>314.5</ele><time>2026-03-26T15:07:47.987Z</time></trkpt><trkpt lat="44.8739483" lon="9.5817617"><ele>312.0</ele><time>2026-03-26T15:07:48.987Z</time></trkpt><trkpt lat="44.8740033" lon="9.5818767"><ele>312.0</ele><time>2026-03-26T15:07:50.987Z</time></trkpt><trkpt lat="44.8740083" lon="9.58198"><ele>312.0</ele><time>2026-03-26T15:07:52.987Z</time></trkpt><trkpt lat="44.874" lon="9.58214"><ele>312.0</ele><time>2026-03-26T15:07:54.989Z</time></trkpt><trkpt lat="44.874005" lon="9.58225"><ele>312.0</ele><time>2026-03-26T15:07:55.985Z</time></trkpt><trkpt lat="44.874005" lon="9.5823483"><ele>312.0</ele><time>2026-03-26T15:07:56.986Z</time></trkpt><trkpt lat="44.874" lon="9.582445"><ele>312.0</ele><time>2026-03-26T15:07:57.987Z</time></trkpt><trkpt lat="44.8739967" lon="9.582545"><ele>311.5</ele><time>2026-03-26T15:07:58.988Z</time></trkpt><trkpt lat="44.87399" lon="9.5826467"><ele>311.0</ele><time>2026-03-26T15:07:59.987Z</time></trkpt><trkpt lat="44.873985" lon="9.5827417"><ele>310.5</ele><time>2026-03-26T15:08:00.987Z</time></trkpt><trkpt lat="44.8739917" lon="9.5828467"><ele>310.0</ele><time>2026-03-26T15:08:01.987Z</time></trkpt><trkpt lat="44.8740133" lon="9.582945"><ele>309.5</ele><time>2026-03-26T15:08:02.986Z</time></trkpt><trkpt lat="44.874025" lon="9.583035"><ele>309.0</ele><time>2026-03-26T15:08:03.985Z</time></trkpt><trkpt lat="44.8740617" lon="9.5831967"><ele>308.59999999999997</ele><time>2026-03-26T15:08:05.987Z</time></trkpt><trkpt lat="44.8740883" lon="9.583295"><ele>308.2</ele><time>2026-03-26T15:08:07.987Z</time></trkpt><trkpt lat="44.8741717" lon="9.58333"><ele>307.79999999999995</ele><time>2026-03-26T15:08:10.986Z</time></trkpt><trkpt lat="44.8742917" lon="9.5832767"><ele>307.4</ele><time>2026-03-26T15:08:12.986Z</time></trkpt><trkpt lat="44.87438" lon="9.5832533"><ele>307.0</ele><time>2026-03-26T15:08:13.986Z</time></trkpt><trkpt lat="44.87446" lon="9.5832383"><ele>305.8333333333333</ele><time>2026-03-26T15:08:14.986Z</time></trkpt><trkpt lat="44.8745733" lon="9.5832317"><ele>304.66666666666663</ele><time>2026-03-26T15:08:16.986Z</time></trkpt><trkpt lat="44.8746433" lon="9.5832417"><ele>303.5</ele><time>2026-03-26T15:08:18.986Z</time></trkpt><trkpt lat="44.8747333" lon="9.5832433"><ele>302.3333333333333</ele><time>2026-03-26T15:08:20.988Z</time></trkpt><trkpt lat="44.874805" lon="9.5832333"><ele>301.1666666666667</ele><time>2026-03-26T15:08:21.986Z</time></trkpt><trkpt lat="44.8748883" lon="9.5832133"><ele>300.0</ele><time>2026-03-26T15:08:22.986Z</time></trkpt><trkpt lat="44.87497" lon="9.5831817"><ele>300.0</ele><time>2026-03-26T15:08:23.986Z</time></trkpt><trkpt lat="44.8750467" lon="9.5831567"><ele>300.0</ele><time>2026-03-26T15:08:24.986Z</time></trkpt><trkpt lat="44.875115" lon="9.5831433"><ele>300.0</ele><time>2026-03-26T15:08:25.985Z</time></trkpt><trkpt lat="44.875185" lon="9.5831433"><ele>300.0</ele><time>2026-03-26T15:08:26.987Z</time></trkpt><trkpt lat="44.87526" lon="9.58316"><ele>300.0</ele><time>2026-03-26T15:08:27.986Z</time></trkpt><trkpt lat="44.8753383" lon="9.5831917"><ele>300.0</ele><time>2026-03-26T15:08:28.987Z</time></trkpt><trkpt lat="44.8754133" lon="9.5832317"><ele>300.1666666666667</ele><time>2026-03-26T15:08:29.987Z</time></trkpt><trkpt lat="44.87549" lon="9.58328"><ele>300.3333333333333</ele><time>2026-03-26T15:08:30.986Z</time></trkpt><trkpt lat="44.8755617" lon="9.5833333"><ele>300.5</ele><time>2026-03-26T15:08:31.986Z</time></trkpt><trkpt lat="44.8756317" lon="9.5833883"><ele>300.66666666666663</ele><time>2026-03-26T15:08:32.987Z</time></trkpt><trkpt lat="44.8757017" lon="9.5834383"><ele>300.8333333333333</ele><time>2026-03-26T15:08:33.986Z</time></trkpt><trkpt lat="44.8757717" lon="9.58347"><ele>301.0</ele><time>2026-03-26T15:08:34.987Z</time></trkpt><trkpt lat="44.8758433" lon="9.583495"><ele>301.0</ele><time>2026-03-26T15:08:35.987Z</time></trkpt><trkpt lat="44.875915" lon="9.5835233"><ele>301.0</ele><time>2026-03-26T15:08:36.987Z</time></trkpt><trkpt lat="44.8759867" lon="9.583555"><ele>301.0</ele><time>2026-03-26T15:08:37.987Z</time></trkpt><trkpt lat="44.8760533" lon="9.58359"><ele>301.0</ele><time>2026-03-26T15:08:38.987Z</time></trkpt><trkpt lat="44.87612" lon="9.5836283"><ele>301.0</ele><time>2026-03-26T15:08:39.986Z</time></trkpt><trkpt lat="44.8761817" lon="9.5836667"><ele>301.0</ele><time>2026-03-26T15:08:40.986Z</time></trkpt><trkpt lat="44.876245" lon="9.5837017"><ele>301.0</ele><time>2026-03-26T15:08:41.987Z</time></trkpt><trkpt lat="44.8763017" lon="9.5837433"><ele>303.0</ele><time>2026-03-26T15:08:42.987Z</time></trkpt><trkpt lat="44.8763783" lon="9.5838667"><ele>305.0</ele><time>2026-03-26T15:08:44.987Z</time></trkpt><trkpt lat="44.87645" lon="9.58397"><ele>307.0</ele><time>2026-03-26T15:08:46.986Z</time></trkpt><trkpt lat="44.8765283" lon="9.58396"><ele>309.0</ele><time>2026-03-26T15:08:48.989Z</time></trkpt><trkpt lat="44.8766217" lon="9.5839083"><ele>311.0</ele><time>2026-03-26T15:08:50.988Z</time></trkpt><trkpt lat="44.8767617" lon="9.5838467"><ele>311.57142857142856</ele><time>2026-03-26T15:08:52.987Z</time></trkpt><trkpt lat="44.8768383" lon="9.5838167"><ele>312.14285714285717</ele><time>2026-03-26T15:08:53.987Z</time></trkpt><trkpt lat="44.8769083" lon="9.5837833"><ele>312.7142857142857</ele><time>2026-03-26T15:08:54.986Z</time></trkpt><trkpt lat="44.87698" lon="9.5837517"><ele>313.2857142857143</ele><time>2026-03-26T15:08:55.987Z</time></trkpt><trkpt lat="44.8770483" lon="9.583725"><ele>313.8571428571429</ele><time>2026-03-26T15:08:56.986Z</time></trkpt><trkpt lat="44.8771167" lon="9.5837017"><ele>314.42857142857144</ele><time>2026-03-26T15:08:57.986Z</time></trkpt><trkpt lat="44.8771883" lon="9.5836817"><ele>315.0</ele><time>2026-03-26T15:08:58.986Z</time></trkpt><trkpt lat="44.8772633" lon="9.5836583"><ele>313.6666666666667</ele><time>2026-03-26T15:08:59.987Z</time></trkpt><trkpt lat="44.8773433" lon="9.5836367"><ele>312.3333333333333</ele><time>2026-03-26T15:09:00.986Z</time></trkpt><trkpt lat="44.8774233" lon="9.58361"><ele>311.0</ele><time>2026-03-26T15:09:01.987Z</time></trkpt><trkpt lat="44.8774933" lon="9.5835833"><ele>309.66666666666663</ele><time>2026-03-26T15:09:02.989Z</time></trkpt><trkpt lat="44.8775967" lon="9.583545"><ele>308.3333333333333</ele><time>2026-03-26T15:09:04.987Z</time></trkpt><trkpt lat="44.8776633" lon="9.5835217"><ele>307.0</ele><time>2026-03-26T15:09:06.987Z</time></trkpt><trkpt lat="44.8777517" lon="9.5835067"><ele>306.0</ele><time>2026-03-26T15:09:08.989Z</time></trkpt><trkpt lat="44.8778467" lon="9.5835817"><ele>305.0</ele><time>2026-03-26T15:09:10.987Z</time></trkpt><trkpt lat="44.8778967" lon="9.583645"><ele>304.0</ele><time>2026-03-26T15:09:11.987Z</time></trkpt><trkpt lat="44.87795" lon="9.583715"><ele>303.0</ele><time>2026-03-26T15:09:12.987Z</time></trkpt><trkpt lat="44.878005" lon="9.5837783"><ele>302.0</ele><time>2026-03-26T15:09:13.987Z</time></trkpt><trkpt lat="44.8780683" lon="9.583835"><ele>301.0</ele><time>2026-03-26T15:09:14.988Z</time></trkpt><trkpt lat="44.8781317" lon="9.5838833"><ele>302.16666666666663</ele><time>2026-03-26T15:09:15.987Z</time></trkpt><trkpt lat="44.8781983" lon="9.5839283"><ele>303.3333333333333</ele><time>2026-03-26T15:09:16.986Z</time></trkpt><trkpt lat="44.8782717" lon="9.583965"><ele>304.5</ele><time>2026-03-26T15:09:17.986Z</time></trkpt><trkpt lat="44.8783417" lon="9.5839967"><ele>305.6666666666667</ele><time>2026-03-26T15:09:18.988Z</time></trkpt><trkpt lat="44.8784117" lon="9.5840217"><ele>306.83333333333337</ele><time>2026-03-26T15:09:19.986Z</time></trkpt><trkpt lat="44.8784883" lon="9.5840483"><ele>308.0</ele><time>2026-03-26T15:09:20.987Z</time></trkpt><trkpt lat="44.8785617" lon="9.58408"><ele>308.0</ele><time>2026-03-26T15:09:21.986Z</time></trkpt><trkpt lat="44.8786317" lon="9.5841183"><ele>308.0</ele><time>2026-03-26T15:09:22.985Z</time></trkpt><trkpt lat="44.8787017" lon="9.58416"><ele>308.0</ele><time>2026-03-26T15:09:23.985Z</time></trkpt><trkpt lat="44.8787683" lon="9.5842"><ele>308.0</ele><time>2026-03-26T15:09:24.986Z</time></trkpt><trkpt lat="44.87883" lon="9.5842333"><ele>308.0</ele><time>2026-03-26T15:09:25.989Z</time></trkpt><trkpt lat="44.8788917" lon="9.5842617"><ele>308.0</ele><time>2026-03-26T15:09:26.986Z</time></trkpt><trkpt lat="44.8789933" lon="9.5843117"><ele>308.0</ele><time>2026-03-26T15:09:28.986Z</time></trkpt><trkpt lat="44.8790933" lon="9.5843083"><ele>308.0</ele><time>2026-03-26T15:09:30.986Z</time></trkpt><trkpt lat="44.8791967" lon="9.5842933"><ele>308.0</ele><time>2026-03-26T15:09:32.988Z</time></trkpt><trkpt lat="44.8792817" lon="9.5843133"><ele>308.0</ele><time>2026-03-26T15:09:34.986Z</time></trkpt><trkpt lat="44.8793483" lon="9.5843867"><ele>308.0</ele><time>2026-03-26T15:09:36.986Z</time></trkpt><trkpt lat="44.8794167" lon="9.5845083"><ele>305.0</ele><time>2026-03-26T15:09:38.989Z</time></trkpt><trkpt lat="44.8794733" lon="9.584645"><ele>302.0</ele><time>2026-03-26T15:09:40.987Z</time></trkpt><trkpt lat="44.87952" lon="9.5848033"><ele>299.0</ele><time>2026-03-26T15:09:42.986Z</time></trkpt><trkpt lat="44.8795667" lon="9.5849567"><ele>296.0</ele><time>2026-03-26T15:09:44.988Z</time></trkpt><trkpt lat="44.87962" lon="9.585115"><ele>296.0</ele><time>2026-03-26T15:09:46.986Z</time></trkpt><trkpt lat="44.879645" lon="9.5851967"><ele>296.0</ele><time>2026-03-26T15:09:47.986Z</time></trkpt><trkpt lat="44.87967" lon="9.5852817"><ele>296.0</ele><time>2026-03-26T15:09:48.986Z</time></trkpt><trkpt lat="44.8797033" lon="9.5854333"><ele>296.0</ele><time>2026-03-26T15:09:50.986Z</time></trkpt><trkpt lat="44.8797267" lon="9.5855667"><ele>296.0</ele><time>2026-03-26T15:09:52.987Z</time></trkpt><trkpt lat="44.8797217" lon="9.585715"><ele>296.0</ele><time>2026-03-26T15:09:54.986Z</time></trkpt><trkpt lat="44.879705" lon="9.5858017"><ele>296.42857142857144</ele><time>2026-03-26T15:09:55.986Z</time></trkpt><trkpt lat="44.879685" lon="9.5859"><ele>296.85714285714283</ele><time>2026-03-26T15:09:56.988Z</time></trkpt><trkpt lat="44.8796717" lon="9.5860083"><ele>297.2857142857143</ele><time>2026-03-26T15:09:57.986Z</time></trkpt><trkpt lat="44.8796617" lon="9.5861117"><ele>297.7142857142857</ele><time>2026-03-26T15:09:58.987Z</time></trkpt><trkpt lat="44.8796683" lon="9.586205"><ele>298.14285714285717</ele><time>2026-03-26T15:09:59.987Z</time></trkpt><trkpt lat="44.879695" lon="9.5862917"><ele>298.57142857142856</ele><time>2026-03-26T15:10:00.988Z</time></trkpt><trkpt lat="44.8797383" lon="9.5863667"><ele>299.0</ele><time>2026-03-26T15:10:01.987Z</time></trkpt><trkpt lat="44.8797817" lon="9.586435"><ele>299.59999999999997</ele><time>2026-03-26T15:10:02.989Z</time></trkpt><trkpt lat="44.87983" lon="9.5865417"><ele>300.2</ele><time>2026-03-26T15:10:04.988Z</time></trkpt><trkpt lat="44.87984" lon="9.5866533"><ele>300.79999999999995</ele><time>2026-03-26T15:10:06.988Z</time></trkpt><trkpt lat="44.87984" lon="9.586785"><ele>301.4</ele><time>2026-03-26T15:10:08.988Z</time></trkpt><trkpt lat="44.8798267" lon="9.5869467"><ele>302.0</ele><time>2026-03-26T15:10:10.987Z</time></trkpt><trkpt lat="44.8798133" lon="9.587055"><ele>302.5</ele><time>2026-03-26T15:10:11.988Z</time></trkpt><trkpt lat="44.8797817" lon="9.5871917"><ele>303.0</ele><time>2026-03-26T15:10:12.987Z</time></trkpt><trkpt lat="44.87976" lon="9.587325"><ele>303.5</ele><time>2026-03-26T15:10:13.987Z</time></trkpt><trkpt lat="44.879745" lon="9.5874483"><ele>304.0</ele><time>2026-03-26T15:10:14.986Z</time></trkpt><trkpt lat="44.87973" lon="9.5875633"><ele>304.5</ele><time>2026-03-26T15:10:15.987Z</time></trkpt><trkpt lat="44.8797117" lon="9.58766"><ele>305.0</ele><time>2026-03-26T15:10:16.987Z</time></trkpt><trkpt lat="44.87969" lon="9.587745"><ele>305.5</ele><time>2026-03-26T15:10:17.987Z</time></trkpt><trkpt lat="44.87967" lon="9.5879067"><ele>306.0</ele><time>2026-03-26T15:10:19.987Z</time></trkpt><trkpt lat="44.879675" lon="9.5880033"><ele>306.5</ele><time>2026-03-26T15:10:20.988Z</time></trkpt><trkpt lat="44.879695" lon="9.588115"><ele>307.0</ele><time>2026-03-26T15:10:21.987Z</time></trkpt><trkpt lat="44.8797333" lon="9.58822"><ele>307.5</ele><time>2026-03-26T15:10:22.988Z</time></trkpt><trkpt lat="44.8797717" lon="9.588325"><ele>308.0</ele><time>2026-03-26T15:10:23.988Z</time></trkpt><trkpt lat="44.87981" lon="9.5884317"><ele>308.0</ele><time>2026-03-26T15:10:24.988Z</time></trkpt><trkpt lat="44.879835" lon="9.5885333"><ele>308.0</ele><time>2026-03-26T15:10:25.988Z</time></trkpt><trkpt lat="44.879845" lon="9.5886267"><ele>308.0</ele><time>2026-03-26T15:10:26.987Z</time></trkpt><trkpt lat="44.8798433" lon="9.5887733"><ele>308.0</ele><time>2026-03-26T15:10:28.988Z</time></trkpt><trkpt lat="44.8798717" lon="9.5888917"><ele>308.0</ele><time>2026-03-26T15:10:30.988Z</time></trkpt><trkpt lat="44.8799283" lon="9.5890517"><ele>309.0</ele><time>2026-03-26T15:10:32.988Z</time></trkpt><trkpt lat="44.8799483" lon="9.5891533"><ele>310.0</ele><time>2026-03-26T15:10:33.987Z</time></trkpt><trkpt lat="44.8799667" lon="9.5892633"><ele>311.0</ele><time>2026-03-26T15:10:34.987Z</time></trkpt><trkpt lat="44.8799833" lon="9.5893917"><ele>312.0</ele><time>2026-03-26T15:10:35.987Z</time></trkpt><trkpt lat="44.8800117" lon="9.58952"><ele>313.0</ele><time>2026-03-26T15:10:36.988Z</time></trkpt><trkpt lat="44.880055" lon="9.589645"><ele>314.0</ele><time>2026-03-26T15:10:37.987Z</time></trkpt><trkpt lat="44.880105" lon="9.589765"><ele>315.0</ele><time>2026-03-26T15:10:38.988Z</time></trkpt><trkpt lat="44.8801567" lon="9.5898733"><ele>316.0</ele><time>2026-03-26T15:10:39.988Z</time></trkpt><trkpt lat="44.880195" lon="9.5899733"><ele>317.0</ele><time>2026-03-26T15:10:40.987Z</time></trkpt><trkpt lat="44.880215" lon="9.590085"><ele>318.0</ele><time>2026-03-26T15:10:41.986Z</time></trkpt><trkpt lat="44.8802117" lon="9.590225"><ele>319.0</ele><time>2026-03-26T15:10:42.987Z</time></trkpt><trkpt lat="44.8801767" lon="9.5904033"><ele>321.25</ele><time>2026-03-26T15:10:43.986Z</time></trkpt><trkpt lat="44.8801283" lon="9.5905967"><ele>323.5</ele><time>2026-03-26T15:10:44.988Z</time></trkpt><trkpt lat="44.8800867" lon="9.5907683"><ele>325.75</ele><time>2026-03-26T15:10:45.987Z</time></trkpt><trkpt lat="44.8800517" lon="9.5909117"><ele>328.0</ele><time>2026-03-26T15:10:46.987Z</time></trkpt><trkpt lat="44.8800267" lon="9.5910417"><ele>328.0</ele><time>2026-03-26T15:10:47.987Z</time></trkpt><trkpt lat="44.880015" lon="9.5911683"><ele>328.0</ele><time>2026-03-26T15:10:48.988Z</time></trkpt><trkpt lat="44.8800217" lon="9.5912967"><ele>328.0</ele><time>2026-03-26T15:10:49.987Z</time></trkpt><trkpt lat="44.880045" lon="9.5914233"><ele>328.0</ele><time>2026-03-26T15:10:50.989Z</time></trkpt><trkpt lat="44.8800783" lon="9.591545"><ele>328.0</ele><time>2026-03-26T15:10:51.987Z</time></trkpt><trkpt lat="44.88013" lon="9.5916533"><ele>330.0</ele><time>2026-03-26T15:10:52.987Z</time></trkpt><trkpt lat="44.880195" lon="9.5917483"><ele>332.0</ele><time>2026-03-26T15:10:53.987Z</time></trkpt><trkpt lat="44.8802917" lon="9.59181"><ele>334.0</ele><time>2026-03-26T15:10:54.988Z</time></trkpt><trkpt lat="44.880395" lon="9.59186"><ele>336.0</ele><time>2026-03-26T15:10:55.988Z</time></trkpt><trkpt lat="44.8805083" lon="9.5919"><ele>338.0</ele><time>2026-03-26T15:10:56.987Z</time></trkpt><trkpt lat="44.88061" lon="9.5919333"><ele>338.0</ele><time>2026-03-26T15:10:57.987Z</time></trkpt><trkpt lat="44.8807083" lon="9.59197"><ele>338.0</ele><time>2026-03-26T15:10:58.987Z</time></trkpt><trkpt lat="44.880795" lon="9.5920233"><ele>338.0</ele><time>2026-03-26T15:10:59.988Z</time></trkpt><trkpt lat="44.8808633" lon="9.592115"><ele>338.0</ele><time>2026-03-26T15:11:00.988Z</time></trkpt><trkpt lat="44.88092" lon="9.5922233"><ele>338.0</ele><time>2026-03-26T15:11:01.989Z</time></trkpt><trkpt lat="44.8809883" lon="9.5923467"><ele>340.25</ele><time>2026-03-26T15:11:02.988Z</time></trkpt><trkpt lat="44.8810683" lon="9.5924717"><ele>342.5</ele><time>2026-03-26T15:11:03.987Z</time></trkpt><trkpt lat="44.8811567" lon="9.5925867"><ele>344.75</ele><time>2026-03-26T15:11:04.987Z</time></trkpt><trkpt lat="44.88125" lon="9.59269"><ele>347.0</ele><time>2026-03-26T15:11:05.989Z</time></trkpt><trkpt lat="44.8813417" lon="9.5927883"><ele>348.6</ele><time>2026-03-26T15:11:06.987Z</time></trkpt><trkpt lat="44.8814217" lon="9.5928733"><ele>350.20000000000005</ele><time>2026-03-26T15:11:07.987Z</time></trkpt><trkpt lat="44.8815" lon="9.5929567"><ele>351.8</ele><time>2026-03-26T15:11:08.988Z</time></trkpt><trkpt lat="44.88158" lon="9.59305"><ele>353.4</ele><time>2026-03-26T15:11:09.988Z</time></trkpt><trkpt lat="44.881665" lon="9.59315"><ele>355.0</ele><time>2026-03-26T15:11:10.987Z</time></trkpt><trkpt lat="44.8817467" lon="9.5932483"><ele>356.0</ele><time>2026-03-26T15:11:11.988Z</time></trkpt><trkpt lat="44.8818233" lon="9.593335"><ele>357.0</ele><time>2026-03-26T15:11:12.988Z</time></trkpt><trkpt lat="44.8818917" lon="9.5934117"><ele>358.0</ele><time>2026-03-26T15:11:13.988Z</time></trkpt><trkpt lat="44.88194" lon="9.59349"><ele>359.0</ele><time>2026-03-26T15:11:14.988Z</time></trkpt><trkpt lat="44.88197" lon="9.59364"><ele>360.0</ele><time>2026-03-26T15:11:16.987Z</time></trkpt><trkpt lat="44.8819867" lon="9.5938083"><ele>360.8333333333333</ele><time>2026-03-26T15:11:18.988Z</time></trkpt><trkpt lat="44.8820633" lon="9.5939433"><ele>361.6666666666667</ele><time>2026-03-26T15:11:20.988Z</time></trkpt><trkpt lat="44.8821133" lon="9.5939983"><ele>362.5</ele><time>2026-03-26T15:11:21.988Z</time></trkpt><trkpt lat="44.882165" lon="9.5940617"><ele>363.33333333333337</ele><time>2026-03-26T15:11:22.987Z</time></trkpt><trkpt lat="44.8822167" lon="9.5941217"><ele>364.1666666666667</ele><time>2026-03-26T15:11:23.988Z</time></trkpt><trkpt lat="44.8822983" lon="9.5942433"><ele>365.0</ele><time>2026-03-26T15:11:25.988Z</time></trkpt><trkpt lat="44.8823667" lon="9.59435"><ele>365.0</ele><time>2026-03-26T15:11:27.988Z</time></trkpt><trkpt lat="44.8824483" lon="9.5944233"><ele>365.0</ele><time>2026-03-26T15:11:29.988Z</time></trkpt><trkpt lat="44.882495" lon="9.594505"><ele>365.0</ele><time>2026-03-26T15:11:31.988Z</time></trkpt><trkpt lat="44.8824733" lon="9.5946367"><ele>365.0</ele><time>2026-03-26T15:11:33.987Z</time></trkpt><trkpt lat="44.8824417" lon="9.5947233"><ele>365.0</ele><time>2026-03-26T15:11:34.988Z</time></trkpt><trkpt lat="44.8824083" lon="9.594815"><ele>365.0</ele><time>2026-03-26T15:11:35.988Z</time></trkpt><trkpt lat="44.8823717" lon="9.5948967"><ele>365.5</ele><time>2026-03-26T15:11:36.987Z</time></trkpt><trkpt lat="44.8823433" lon="9.5949767"><ele>366.0</ele><time>2026-03-26T15:11:37.987Z</time></trkpt><trkpt lat="44.88232" lon="9.5951517"><ele>366.5</ele><time>2026-03-26T15:11:39.987Z</time></trkpt><trkpt lat="44.88232" lon="9.5952533"><ele>367.0</ele><time>2026-03-26T15:11:40.988Z</time></trkpt><trkpt lat="44.8823367" lon="9.5953467"><ele>367.5</ele><time>2026-03-26T15:11:41.987Z</time></trkpt><trkpt lat="44.8824017" lon="9.5954683"><ele>368.0</ele><time>2026-03-26T15:11:43.988Z</time></trkpt><trkpt lat="44.882505" lon="9.59553"><ele>369.5</ele><time>2026-03-26T15:11:45.987Z</time></trkpt><trkpt lat="44.8825733" lon="9.5955567"><ele>371.0</ele><time>2026-03-26T15:11:46.987Z</time></trkpt><trkpt lat="44.8826533" lon="9.5955883"><ele>372.5</ele><time>2026-03-26T15:11:47.988Z</time></trkpt><trkpt lat="44.8827367" lon="9.5956133"><ele>374.0</ele><time>2026-03-26T15:11:48.987Z</time></trkpt><trkpt lat="44.8828133" lon="9.595635"><ele>375.5</ele><time>2026-03-26T15:11:49.988Z</time></trkpt><trkpt lat="44.8828783" lon="9.5956567"><ele>377.0</ele><time>2026-03-26T15:11:50.988Z</time></trkpt><trkpt lat="44.8829417" lon="9.5957367"><ele>378.0</ele><time>2026-03-26T15:11:52.987Z</time></trkpt><trkpt lat="44.8828967" lon="9.5958733"><ele>379.0</ele><time>2026-03-26T15:11:54.987Z</time></trkpt><trkpt lat="44.8828417" lon="9.5959533"><ele>380.0</ele><time>2026-03-26T15:11:55.987Z</time></trkpt><trkpt lat="44.8827867" lon="9.5960467"><ele>381.0</ele><time>2026-03-26T15:11:56.987Z</time></trkpt><trkpt lat="44.8827367" lon="9.5961417"><ele>382.0</ele><time>2026-03-26T15:11:57.986Z</time></trkpt><trkpt lat="44.8826733" lon="9.5962533"><ele>383.0</ele><time>2026-03-26T15:11:58.987Z</time></trkpt><trkpt lat="44.8826183" lon="9.5963533"><ele>384.0</ele><time>2026-03-26T15:11:59.988Z</time></trkpt><trkpt lat="44.882575" lon="9.5964533"><ele>385.0</ele><time>2026-03-26T15:12:00.987Z</time></trkpt><trkpt lat="44.8825467" lon="9.5965617"><ele>386.0</ele><time>2026-03-26T15:12:01.987Z</time></trkpt><trkpt lat="44.8825383" lon="9.59667"><ele>387.00000000000006</ele><time>2026-03-26T15:12:02.989Z</time></trkpt><trkpt lat="44.88254" lon="9.596805"><ele>388.0</ele><time>2026-03-26T15:12:04.986Z</time></trkpt><trkpt lat="44.8826167" lon="9.59682"><ele>388.0</ele><time>2026-03-26T15:12:07.99Z</time></trkpt><trkpt lat="44.88269" lon="9.59673"><ele>388.0</ele><time>2026-03-26T15:12:09.987Z</time></trkpt><trkpt lat="44.8827867" lon="9.59663"><ele>388.0</ele><time>2026-03-26T15:12:11.987Z</time></trkpt><trkpt lat="44.88288" lon="9.596535"><ele>388.0</ele><time>2026-03-26T15:12:13.987Z</time></trkpt><trkpt lat="44.882955" lon="9.5964483"><ele>388.0</ele><time>2026-03-26T15:12:15.987Z</time></trkpt><trkpt lat="44.88303" lon="9.5963717"><ele>388.0</ele><time>2026-03-26T15:12:17.989Z</time></trkpt><trkpt lat="44.8831167" lon="9.5962917"><ele>388.0</ele><time>2026-03-26T15:12:19.988Z</time></trkpt><trkpt lat="44.8832133" lon="9.59621"><ele>388.0</ele><time>2026-03-26T15:12:21.988Z</time></trkpt><trkpt lat="44.88331" lon="9.5961333"><ele>388.0</ele><time>2026-03-26T15:12:23.988Z</time></trkpt><trkpt lat="44.8834117" lon="9.59606"><ele>388.0</ele><time>2026-03-26T15:12:25.987Z</time></trkpt><trkpt lat="44.883475" lon="9.5960317"><ele>386.50000000000006</ele><time>2026-03-26T15:12:26.987Z</time></trkpt><trkpt lat="44.8835367" lon="9.5960017"><ele>385.0</ele><time>2026-03-26T15:12:27.987Z</time></trkpt><trkpt lat="44.883655" lon="9.5959533"><ele>383.5</ele><time>2026-03-26T15:12:29.987Z</time></trkpt><trkpt lat="44.8837183" lon="9.59593"><ele>382.0</ele><time>2026-03-26T15:12:30.987Z</time></trkpt><trkpt lat="44.88378" lon="9.5959033"><ele>380.5</ele><time>2026-03-26T15:12:31.987Z</time></trkpt><trkpt lat="44.8838933" lon="9.5958383"><ele>379.0</ele><time>2026-03-26T15:12:33.989Z</time></trkpt><trkpt lat="44.8839517" lon="9.5958017"><ele>379.0</ele><time>2026-03-26T15:12:34.988Z</time></trkpt><trkpt lat="44.88401" lon="9.5957667"><ele>379.0</ele><time>2026-03-26T15:12:35.988Z</time></trkpt><trkpt lat="44.8841183" lon="9.595715"><ele>379.0</ele><time>2026-03-26T15:12:37.989Z</time></trkpt><trkpt lat="44.8842083" lon="9.5956667"><ele>379.0</ele><time>2026-03-26T15:12:39.988Z</time></trkpt><trkpt lat="44.8843233" lon="9.5955767"><ele>379.0</ele><time>2026-03-26T15:12:41.988Z</time></trkpt><trkpt lat="44.88439" lon="9.5955267"><ele>377.3333333333333</ele><time>2026-03-26T15:12:42.987Z</time></trkpt><trkpt lat="44.8844617" lon="9.5954933"><ele>375.66666666666663</ele><time>2026-03-26T15:12:43.987Z</time></trkpt><trkpt lat="44.884535" lon="9.5954717"><ele>374.0</ele><time>2026-03-26T15:12:44.987Z</time></trkpt><trkpt lat="44.8846133" lon="9.5954517"><ele>372.3333333333333</ele><time>2026-03-26T15:12:45.987Z</time></trkpt><trkpt lat="44.8847033" lon="9.59543"><ele>370.6666666666667</ele><time>2026-03-26T15:12:46.987Z</time></trkpt><trkpt lat="44.8847967" lon="9.5954"><ele>369.0</ele><time>2026-03-26T15:12:47.989Z</time></trkpt><trkpt lat="44.8848933" lon="9.5953617"><ele>368.1666666666667</ele><time>2026-03-26T15:12:48.988Z</time></trkpt><trkpt lat="44.8849833" lon="9.5953133"><ele>367.3333333333333</ele><time>2026-03-26T15:12:49.988Z</time></trkpt><trkpt lat="44.8850567" lon="9.5952517"><ele>366.5</ele><time>2026-03-26T15:12:50.988Z</time></trkpt><trkpt lat="44.8851233" lon="9.5951817"><ele>365.66666666666663</ele><time>2026-03-26T15:12:51.988Z</time></trkpt><trkpt lat="44.8851867" lon="9.5951067"><ele>364.8333333333333</ele><time>2026-03-26T15:12:52.987Z</time></trkpt><trkpt lat="44.8852433" lon="9.5950367"><ele>364.0</ele><time>2026-03-26T15:12:53.988Z</time></trkpt><trkpt lat="44.885295" lon="9.5949667"><ele>362.8333333333333</ele><time>2026-03-26T15:12:54.988Z</time></trkpt><trkpt lat="44.8853517" lon="9.5948933"><ele>361.66666666666663</ele><time>2026-03-26T15:12:55.989Z</time></trkpt><trkpt lat="44.8854067" lon="9.5948283"><ele>360.5</ele><time>2026-03-26T15:12:56.988Z</time></trkpt><trkpt lat="44.8854617" lon="9.5947667"><ele>359.3333333333333</ele><time>2026-03-26T15:12:57.988Z</time></trkpt><trkpt lat="44.8855567" lon="9.5947033"><ele>358.1666666666667</ele><time>2026-03-26T15:12:59.988Z</time></trkpt><trkpt lat="44.88562" lon="9.59476"><ele>357.0</ele><time>2026-03-26T15:13:01.989Z</time></trkpt><trkpt lat="44.8856617" lon="9.5948367"><ele>357.0</ele><time>2026-03-26T15:13:02.988Z</time></trkpt><trkpt lat="44.8857217" lon="9.59491"><ele>357.0</ele><time>2026-03-26T15:13:03.988Z</time></trkpt><trkpt lat="44.8858017" lon="9.5949867"><ele>357.0</ele><time>2026-03-26T15:13:04.987Z</time></trkpt><trkpt lat="44.885885" lon="9.5950433"><ele>357.0</ele><time>2026-03-26T15:13:05.987Z</time></trkpt><trkpt lat="44.8859633" lon="9.5950817"><ele>357.0</ele><time>2026-03-26T15:13:06.987Z</time></trkpt><trkpt lat="44.8860467" lon="9.5951133"><ele>357.0</ele><time>2026-03-26T15:13:07.986Z</time></trkpt><trkpt lat="44.88614" lon="9.5951433"><ele>353.8</ele><time>2026-03-26T15:13:08.987Z</time></trkpt><trkpt lat="44.8862283" lon="9.5951633"><ele>350.6</ele><time>2026-03-26T15:13:09.986Z</time></trkpt><trkpt lat="44.88632" lon="9.5951833"><ele>347.40000000000003</ele><time>2026-03-26T15:13:10.989Z</time></trkpt><trkpt lat="44.886415" lon="9.5952067"><ele>344.20000000000005</ele><time>2026-03-26T15:13:11.988Z</time></trkpt><trkpt lat="44.8865067" lon="9.59524"><ele>341.0</ele><time>2026-03-26T15:13:12.989Z</time></trkpt><trkpt lat="44.8865967" lon="9.59528"><ele>341.0</ele><time>2026-03-26T15:13:13.988Z</time></trkpt><trkpt lat="44.8866867" lon="9.5953117"><ele>341.0</ele><time>2026-03-26T15:13:14.987Z</time></trkpt><trkpt lat="44.8867733" lon="9.59534"><ele>341.0</ele><time>2026-03-26T15:13:15.987Z</time></trkpt><trkpt lat="44.8868583" lon="9.5953633"><ele>341.0</ele><time>2026-03-26T15:13:16.987Z</time></trkpt><trkpt lat="44.8869367" lon="9.5953783"><ele>341.0</ele><time>2026-03-26T15:13:17.987Z</time></trkpt><trkpt lat="44.88701" lon="9.59539"><ele>341.0</ele><time>2026-03-26T15:13:18.986Z</time></trkpt><trkpt lat="44.8870733" lon="9.5954017"><ele>340.6666666666667</ele><time>2026-03-26T15:13:19.987Z</time></trkpt><trkpt lat="44.8871583" lon="9.5954167"><ele>340.33333333333337</ele><time>2026-03-26T15:13:21.987Z</time></trkpt><trkpt lat="44.8872383" lon="9.5953617"><ele>340.0</ele><time>2026-03-26T15:13:23.99Z</time></trkpt><trkpt lat="44.8872917" lon="9.5953017"><ele>339.6666666666667</ele><time>2026-03-26T15:13:24.988Z</time></trkpt><trkpt lat="44.8873583" lon="9.5952233"><ele>339.3333333333333</ele><time>2026-03-26T15:13:25.989Z</time></trkpt><trkpt lat="44.8874383" lon="9.59513"><ele>339.0</ele><time>2026-03-26T15:13:26.988Z</time></trkpt><trkpt lat="44.887525" lon="9.595045"><ele>338.75</ele><time>2026-03-26T15:13:27.987Z</time></trkpt><trkpt lat="44.8876133" lon="9.5949533"><ele>338.5</ele><time>2026-03-26T15:13:28.987Z</time></trkpt><trkpt lat="44.88771" lon="9.594865"><ele>338.25</ele><time>2026-03-26T15:13:29.988Z</time></trkpt><trkpt lat="44.8878117" lon="9.5947683"><ele>338.0</ele><time>2026-03-26T15:13:30.986Z</time></trkpt><trkpt lat="44.8879167" lon="9.5946767"><ele>338.0</ele><time>2026-03-26T15:13:31.987Z</time></trkpt><trkpt lat="44.888025" lon="9.5945833"><ele>338.0</ele><time>2026-03-26T15:13:32.988Z</time></trkpt><trkpt lat="44.8881417" lon="9.5944867"><ele>338.0</ele><time>2026-03-26T15:13:33.987Z</time></trkpt><trkpt lat="44.88827" lon="9.5943933"><ele>338.0</ele><time>2026-03-26T15:13:34.987Z</time></trkpt><trkpt lat="44.8883967" lon="9.594315"><ele>341.25</ele><time>2026-03-26T15:13:35.987Z</time></trkpt><trkpt lat="44.8885133" lon="9.5942583"><ele>344.5</ele><time>2026-03-26T15:13:36.987Z</time></trkpt><trkpt lat="44.8886267" lon="9.594235"><ele>347.75</ele><time>2026-03-26T15:13:37.988Z</time></trkpt><trkpt lat="44.8887383" lon="9.5942533"><ele>351.0</ele><time>2026-03-26T15:13:38.988Z</time></trkpt><trkpt lat="44.888845" lon="9.59431"><ele>351.0</ele><time>2026-03-26T15:13:39.987Z</time></trkpt><trkpt lat="44.8889467" lon="9.5943933"><ele>351.0</ele><time>2026-03-26T15:13:40.987Z</time></trkpt><trkpt lat="44.88905" lon="9.5944933"><ele>351.0</ele><time>2026-03-26T15:13:41.987Z</time></trkpt><trkpt lat="44.8891617" lon="9.594605"><ele>351.0</ele><time>2026-03-26T15:13:42.986Z</time></trkpt><trkpt lat="44.8892833" lon="9.5947183"><ele>352.0</ele><time>2026-03-26T15:13:43.987Z</time></trkpt><trkpt lat="44.8894117" lon="9.5948283"><ele>353.0</ele><time>2026-03-26T15:13:44.988Z</time></trkpt><trkpt lat="44.8895517" lon="9.5949267"><ele>354.0</ele><time>2026-03-26T15:13:45.987Z</time></trkpt><trkpt lat="44.88969" lon="9.5950217"><ele>354.0</ele><time>2026-03-26T15:13:46.987Z</time></trkpt><trkpt lat="44.889825" lon="9.5951183"><ele>354.0</ele><time>2026-03-26T15:13:47.987Z</time></trkpt><trkpt lat="44.8899533" lon="9.5952233"><ele>354.0</ele><time>2026-03-26T15:13:48.991Z</time></trkpt><trkpt lat="44.89008" lon="9.5953433"><ele>353.75</ele><time>2026-03-26T15:13:49.987Z</time></trkpt><trkpt lat="44.8902" lon="9.59547"><ele>353.5</ele><time>2026-03-26T15:13:50.988Z</time></trkpt><trkpt lat="44.8903067" lon="9.5956"><ele>353.25</ele><time>2026-03-26T15:13:51.988Z</time></trkpt><trkpt lat="44.8904083" lon="9.5957283"><ele>353.0</ele><time>2026-03-26T15:13:52.987Z</time></trkpt><trkpt lat="44.890505" lon="9.5958533"><ele>353.0</ele><time>2026-03-26T15:13:53.987Z</time></trkpt><trkpt lat="44.8905983" lon="9.5959783"><ele>353.0</ele><time>2026-03-26T15:13:54.986Z</time></trkpt><trkpt lat="44.8906867" lon="9.5960983"><ele>353.0</ele><time>2026-03-26T15:13:55.987Z</time></trkpt><trkpt lat="44.89077" lon="9.5962167"><ele>353.0</ele><time>2026-03-26T15:13:56.988Z</time></trkpt><trkpt lat="44.89085" lon="9.5963383"><ele>352.75</ele><time>2026-03-26T15:13:57.986Z</time></trkpt><trkpt lat="44.8909283" lon="9.5964683"><ele>352.5</ele><time>2026-03-26T15:13:58.987Z</time></trkpt><trkpt lat="44.8910067" lon="9.5965983"><ele>352.25</ele><time>2026-03-26T15:13:59.987Z</time></trkpt><trkpt lat="44.8910867" lon="9.5967333"><ele>352.0</ele><time>2026-03-26T15:14:00.987Z</time></trkpt><trkpt lat="44.89116" lon="9.5968733"><ele>349.75</ele><time>2026-03-26T15:14:01.987Z</time></trkpt><trkpt lat="44.8912233" lon="9.5970167"><ele>347.5</ele><time>2026-03-26T15:14:02.987Z</time></trkpt><trkpt lat="44.8912767" lon="9.59716"><ele>345.25</ele><time>2026-03-26T15:14:03.987Z</time></trkpt><trkpt lat="44.8913167" lon="9.5973083"><ele>343.0</ele><time>2026-03-26T15:14:04.987Z</time></trkpt><trkpt lat="44.8913483" lon="9.5974617"><ele>343.0</ele><time>2026-03-26T15:14:05.989Z</time></trkpt><trkpt lat="44.8913767" lon="9.597615"><ele>343.0</ele><time>2026-03-26T15:14:06.987Z</time></trkpt><trkpt lat="44.8914017" lon="9.5977667"><ele>343.0</ele><time>2026-03-26T15:14:07.99Z</time></trkpt><trkpt lat="44.8914267" lon="9.5979183"><ele>343.0</ele><time>2026-03-26T15:14:08.988Z</time></trkpt><trkpt lat="44.8914533" lon="9.5980767"><ele>343.0</ele><time>2026-03-26T15:14:09.987Z</time></trkpt><trkpt lat="44.8914883" lon="9.5982383"><ele>341.0</ele><time>2026-03-26T15:14:10.987Z</time></trkpt><trkpt lat="44.8915233" lon="9.598395"><ele>339.0</ele><time>2026-03-26T15:14:11.987Z</time></trkpt><trkpt lat="44.8915633" lon="9.5985383"><ele>337.0</ele><time>2026-03-26T15:14:12.987Z</time></trkpt><trkpt lat="44.8916183" lon="9.5986783"><ele>335.0</ele><time>2026-03-26T15:14:13.987Z</time></trkpt><trkpt lat="44.8916833" lon="9.5988167"><ele>334.0</ele><time>2026-03-26T15:14:14.987Z</time></trkpt><trkpt lat="44.891755" lon="9.59896"><ele>333.0</ele><time>2026-03-26T15:14:15.988Z</time></trkpt><trkpt lat="44.891835" lon="9.5991067"><ele>332.0</ele><time>2026-03-26T15:14:16.986Z</time></trkpt><trkpt lat="44.8919217" lon="9.5992583"><ele>331.0</ele><time>2026-03-26T15:14:17.987Z</time></trkpt><trkpt lat="44.8920133" lon="9.5994167"><ele>328.25</ele><time>2026-03-26T15:14:18.987Z</time></trkpt><trkpt lat="44.892105" lon="9.5995767"><ele>325.5</ele><time>2026-03-26T15:14:19.986Z</time></trkpt><trkpt lat="44.892195" lon="9.59973"><ele>322.75</ele><time>2026-03-26T15:14:20.987Z</time></trkpt><trkpt lat="44.8922867" lon="9.5998733"><ele>320.0</ele><time>2026-03-26T15:14:21.987Z</time></trkpt><trkpt lat="44.8923833" lon="9.599995"><ele>320.0</ele><time>2026-03-26T15:14:22.987Z</time></trkpt><trkpt lat="44.892485" lon="9.6000967"><ele>320.0</ele><time>2026-03-26T15:14:23.987Z</time></trkpt><trkpt lat="44.8925933" lon="9.6001833"><ele>320.0</ele><time>2026-03-26T15:14:24.986Z</time></trkpt><trkpt lat="44.8927017" lon="9.600265"><ele>320.0</ele><time>2026-03-26T15:14:25.987Z</time></trkpt><trkpt lat="44.8928067" lon="9.600345"><ele>317.75</ele><time>2026-03-26T15:14:26.988Z</time></trkpt><trkpt lat="44.8929067" lon="9.6004233"><ele>315.5</ele><time>2026-03-26T15:14:27.986Z</time></trkpt><trkpt lat="44.893005" lon="9.6005033"><ele>313.25</ele><time>2026-03-26T15:14:28.988Z</time></trkpt><trkpt lat="44.8931" lon="9.6005883"><ele>311.0</ele><time>2026-03-26T15:14:29.988Z</time></trkpt><trkpt lat="44.893195" lon="9.6006817"><ele>311.0</ele><time>2026-03-26T15:14:30.988Z</time></trkpt><trkpt lat="44.8932967" lon="9.6007883"><ele>311.0</ele><time>2026-03-26T15:14:31.988Z</time></trkpt><trkpt lat="44.8934033" lon="9.6009067"><ele>311.0</ele><time>2026-03-26T15:14:32.988Z</time></trkpt><trkpt lat="44.893515" lon="9.6010333"><ele>311.0</ele><time>2026-03-26T15:14:33.988Z</time></trkpt><trkpt lat="44.8936333" lon="9.6011633"><ele>310.0</ele><time>2026-03-26T15:14:34.987Z</time></trkpt><trkpt lat="44.8937517" lon="9.6012933"><ele>309.0</ele><time>2026-03-26T15:14:35.988Z</time></trkpt><trkpt lat="44.8938667" lon="9.6014183"><ele>308.0</ele><time>2026-03-26T15:14:36.987Z</time></trkpt><trkpt lat="44.8939783" lon="9.6015417"><ele>307.0</ele><time>2026-03-26T15:14:37.988Z</time></trkpt><trkpt lat="44.8940833" lon="9.6016617"><ele>307.0</ele><time>2026-03-26T15:14:38.988Z</time></trkpt><trkpt lat="44.894185" lon="9.6017767"><ele>307.0</ele><time>2026-03-26T15:14:39.987Z</time></trkpt><trkpt lat="44.8942883" lon="9.60189"><ele>307.0</ele><time>2026-03-26T15:14:40.987Z</time></trkpt><trkpt lat="44.894395" lon="9.602005"><ele>307.0</ele><time>2026-03-26T15:14:41.989Z</time></trkpt><trkpt lat="44.8945083" lon="9.6021167"><ele>306.75</ele><time>2026-03-26T15:14:42.986Z</time></trkpt><trkpt lat="44.8946267" lon="9.6022167"><ele>306.5</ele><time>2026-03-26T15:14:43.986Z</time></trkpt><trkpt lat="44.8947517" lon="9.6023"><ele>306.25</ele><time>2026-03-26T15:14:44.987Z</time></trkpt><trkpt lat="44.89488" lon="9.60236"><ele>306.0</ele><time>2026-03-26T15:14:45.987Z</time></trkpt><trkpt lat="44.8950167" lon="9.602405"><ele>304.25</ele><time>2026-03-26T15:14:46.987Z</time></trkpt><trkpt lat="44.895155" lon="9.6024267"><ele>302.5</ele><time>2026-03-26T15:14:47.988Z</time></trkpt><trkpt lat="44.8952933" lon="9.60243"><ele>300.75</ele><time>2026-03-26T15:14:48.988Z</time></trkpt><trkpt lat="44.8954317" lon="9.6024217"><ele>299.0</ele><time>2026-03-26T15:14:49.988Z</time></trkpt><trkpt lat="44.8955667" lon="9.6024017"><ele>299.0</ele><time>2026-03-26T15:14:50.988Z</time></trkpt><trkpt lat="44.8957" lon="9.6023783"><ele>299.0</ele><time>2026-03-26T15:14:51.988Z</time></trkpt><trkpt lat="44.895835" lon="9.6023517"><ele>299.0</ele><time>2026-03-26T15:14:52.987Z</time></trkpt><trkpt lat="44.89597" lon="9.6023233"><ele>299.0</ele><time>2026-03-26T15:14:53.988Z</time></trkpt><trkpt lat="44.896105" lon="9.6022967"><ele>297.5</ele><time>2026-03-26T15:14:54.988Z</time></trkpt><trkpt lat="44.8962367" lon="9.6022733"><ele>296.0</ele><time>2026-03-26T15:14:55.987Z</time></trkpt><trkpt lat="44.8963683" lon="9.6022517"><ele>294.5</ele><time>2026-03-26T15:14:56.988Z</time></trkpt><trkpt lat="44.8965" lon="9.60224"><ele>293.0</ele><time>2026-03-26T15:14:57.988Z</time></trkpt><trkpt lat="44.8966317" lon="9.602245"><ele>292.0</ele><time>2026-03-26T15:14:58.988Z</time></trkpt><trkpt lat="44.8967633" lon="9.6022717"><ele>291.0</ele><time>2026-03-26T15:14:59.989Z</time></trkpt><trkpt lat="44.8968983" lon="9.6023083"><ele>290.0</ele><time>2026-03-26T15:15:00.988Z</time></trkpt><trkpt lat="44.897035" lon="9.602355"><ele>289.0</ele><time>2026-03-26T15:15:01.988Z</time></trkpt><trkpt lat="44.8971733" lon="9.6024083"><ele>289.0</ele><time>2026-03-26T15:15:02.987Z</time></trkpt><trkpt lat="44.897315" lon="9.6024617"><ele>289.0</ele><time>2026-03-26T15:15:03.987Z</time></trkpt><trkpt lat="44.8974583" lon="9.602515"><ele>289.0</ele><time>2026-03-26T15:15:04.988Z</time></trkpt><trkpt lat="44.897605" lon="9.60257"><ele>289.0</ele><time>2026-03-26T15:15:05.987Z</time></trkpt><trkpt lat="44.89775" lon="9.6026267"><ele>288.0</ele><time>2026-03-26T15:15:06.989Z</time></trkpt><trkpt lat="44.8978967" lon="9.6026833"><ele>287.0</ele><time>2026-03-26T15:15:07.988Z</time></trkpt><trkpt lat="44.8980433" lon="9.6027367"><ele>286.0</ele><time>2026-03-26T15:15:08.989Z</time></trkpt><trkpt lat="44.8981867" lon="9.60279"><ele>286.5</ele><time>2026-03-26T15:15:09.988Z</time></trkpt><trkpt lat="44.8983267" lon="9.602845"><ele>287.0</ele><time>2026-03-26T15:15:10.987Z</time></trkpt><trkpt lat="44.8984667" lon="9.6028967"><ele>287.5</ele><time>2026-03-26T15:15:11.988Z</time></trkpt><trkpt lat="44.898605" lon="9.60295"><ele>288.0</ele><time>2026-03-26T15:15:12.988Z</time></trkpt><trkpt lat="44.8987417" lon="9.6030017"><ele>286.5</ele><time>2026-03-26T15:15:13.99Z</time></trkpt><trkpt lat="44.89888" lon="9.6030467"><ele>285.0</ele><time>2026-03-26T15:15:14.988Z</time></trkpt><trkpt lat="44.8990183" lon="9.60308"><ele>283.5</ele><time>2026-03-26T15:15:15.988Z</time></trkpt><trkpt lat="44.8991567" lon="9.6031033"><ele>282.0</ele><time>2026-03-26T15:15:16.988Z</time></trkpt><trkpt lat="44.8993" lon="9.6031167"><ele>280.5</ele><time>2026-03-26T15:15:17.987Z</time></trkpt><trkpt lat="44.899445" lon="9.6031267"><ele>279.0</ele><time>2026-03-26T15:15:18.986Z</time></trkpt><trkpt lat="44.8995933" lon="9.6031317"><ele>277.5</ele><time>2026-03-26T15:15:19.989Z</time></trkpt><trkpt lat="44.8997417" lon="9.6031367"><ele>276.0</ele><time>2026-03-26T15:15:20.987Z</time></trkpt><trkpt lat="44.8998933" lon="9.60314"><ele>276.0</ele><time>2026-03-26T15:15:21.987Z</time></trkpt><trkpt lat="44.9000467" lon="9.603145"><ele>276.0</ele><time>2026-03-26T15:15:22.989Z</time></trkpt><trkpt lat="44.9002" lon="9.60315"><ele>276.0</ele><time>2026-03-26T15:15:23.988Z</time></trkpt><trkpt lat="44.900355" lon="9.6031533"><ele>274.0</ele><time>2026-03-26T15:15:24.988Z</time></trkpt><trkpt lat="44.9005133" lon="9.6031567"><ele>272.0</ele><time>2026-03-26T15:15:25.987Z</time></trkpt><trkpt lat="44.9006767" lon="9.6031617"><ele>270.0</ele><time>2026-03-26T15:15:26.987Z</time></trkpt><trkpt lat="44.90084" lon="9.6031667"><ele>268.3333333333333</ele><time>2026-03-26T15:15:27.987Z</time></trkpt><trkpt lat="44.9010033" lon="9.60317"><ele>266.66666666666663</ele><time>2026-03-26T15:15:28.987Z</time></trkpt><trkpt lat="44.901165" lon="9.60317"><ele>265.0</ele><time>2026-03-26T15:15:29.987Z</time></trkpt><trkpt lat="44.9013183" lon="9.60317"><ele>265.0</ele><time>2026-03-26T15:15:30.987Z</time></trkpt><trkpt lat="44.9014667" lon="9.6031667"><ele>265.0</ele><time>2026-03-26T15:15:31.988Z</time></trkpt><trkpt lat="44.9016133" lon="9.6031667"><ele>265.0</ele><time>2026-03-26T15:15:32.988Z</time></trkpt><trkpt lat="44.901755" lon="9.6031717"><ele>265.0</ele><time>2026-03-26T15:15:33.986Z</time></trkpt><trkpt lat="44.9018883" lon="9.603195"><ele>263.75</ele><time>2026-03-26T15:15:34.987Z</time></trkpt><trkpt lat="44.9020183" lon="9.60325"><ele>262.5</ele><time>2026-03-26T15:15:35.987Z</time></trkpt><trkpt lat="44.902145" lon="9.6033383"><ele>261.25</ele><time>2026-03-26T15:15:36.987Z</time></trkpt><trkpt lat="44.902275" lon="9.6034517"><ele>260.0</ele><time>2026-03-26T15:15:37.987Z</time></trkpt><trkpt lat="44.9024083" lon="9.60358"><ele>258.0</ele><time>2026-03-26T15:15:38.988Z</time></trkpt><trkpt lat="44.902545" lon="9.60371"><ele>256.0</ele><time>2026-03-26T15:15:39.986Z</time></trkpt><trkpt lat="44.90269" lon="9.6038283"><ele>254.0</ele><time>2026-03-26T15:15:40.986Z</time></trkpt><trkpt lat="44.9028467" lon="9.603935"><ele>253.33333333333334</ele><time>2026-03-26T15:15:41.987Z</time></trkpt><trkpt lat="44.9030083" lon="9.60402"><ele>252.66666666666669</ele><time>2026-03-26T15:15:42.986Z</time></trkpt><trkpt lat="44.9031733" lon="9.6040883"><ele>252.0</ele><time>2026-03-26T15:15:43.987Z</time></trkpt><trkpt lat="44.903335" lon="9.60415"><ele>250.33333333333331</ele><time>2026-03-26T15:15:44.986Z</time></trkpt><trkpt lat="44.9034917" lon="9.6042117"><ele>248.66666666666666</ele><time>2026-03-26T15:15:45.986Z</time></trkpt><trkpt lat="44.9036417" lon="9.60427"><ele>247.0</ele><time>2026-03-26T15:15:46.986Z</time></trkpt><trkpt lat="44.903785" lon="9.6043233"><ele>247.0</ele><time>2026-03-26T15:15:47.988Z</time></trkpt><trkpt lat="44.9039217" lon="9.604345"><ele>247.0</ele><time>2026-03-26T15:15:48.986Z</time></trkpt><trkpt lat="44.9040467" lon="9.60432"><ele>247.0</ele><time>2026-03-26T15:15:49.987Z</time></trkpt><trkpt lat="44.9041633" lon="9.6042583"><ele>247.0</ele><time>2026-03-26T15:15:50.988Z</time></trkpt><trkpt lat="44.90427" lon="9.6041733"><ele>245.0</ele><time>2026-03-26T15:15:51.986Z</time></trkpt><trkpt lat="44.9043717" lon="9.60408"><ele>243.0</ele><time>2026-03-26T15:15:52.987Z</time></trkpt><trkpt lat="44.904465" lon="9.604005"><ele>241.0</ele><time>2026-03-26T15:15:53.987Z</time></trkpt><trkpt lat="44.9045633" lon="9.6039717"><ele>239.0</ele><time>2026-03-26T15:15:54.987Z</time></trkpt><trkpt lat="44.90467" lon="9.603985"><ele>237.0</ele><time>2026-03-26T15:15:55.986Z</time></trkpt><trkpt lat="44.9047933" lon="9.604045"><ele>237.0</ele><time>2026-03-26T15:15:56.987Z</time></trkpt><trkpt lat="44.90493" lon="9.6041317"><ele>237.0</ele><time>2026-03-26T15:15:57.986Z</time></trkpt><trkpt lat="44.9050733" lon="9.6042233"><ele>237.0</ele><time>2026-03-26T15:15:58.985Z</time></trkpt><trkpt lat="44.90521" lon="9.6043033"><ele>234.75</ele><time>2026-03-26T15:15:59.987Z</time></trkpt><trkpt lat="44.9053483" lon="9.6043617"><ele>232.5</ele><time>2026-03-26T15:16:00.987Z</time></trkpt><trkpt lat="44.9054833" lon="9.6043733"><ele>230.25</ele><time>2026-03-26T15:16:01.988Z</time></trkpt><trkpt lat="44.9056083" lon="9.6043317"><ele>228.0</ele><time>2026-03-26T15:16:02.987Z</time></trkpt><trkpt lat="44.9057333" lon="9.6042483"><ele>228.0</ele><time>2026-03-26T15:16:03.986Z</time></trkpt><trkpt lat="44.9058583" lon="9.604155"><ele>228.0</ele><time>2026-03-26T15:16:04.987Z</time></trkpt><trkpt lat="44.90598" lon="9.60407"><ele>228.0</ele><time>2026-03-26T15:16:05.987Z</time></trkpt><trkpt lat="44.9061033" lon="9.6040067"><ele>228.0</ele><time>2026-03-26T15:16:06.987Z</time></trkpt><trkpt lat="44.9062283" lon="9.6039817"><ele>226.0</ele><time>2026-03-26T15:16:07.988Z</time></trkpt><trkpt lat="44.9063467" lon="9.604005"><ele>224.0</ele><time>2026-03-26T15:16:08.987Z</time></trkpt><trkpt lat="44.9064533" lon="9.6040817"><ele>222.0</ele><time>2026-03-26T15:16:09.986Z</time></trkpt><trkpt lat="44.9065433" lon="9.6041933"><ele>220.0</ele><time>2026-03-26T15:16:10.986Z</time></trkpt><trkpt lat="44.9066267" lon="9.6043333"><ele>220.0</ele><time>2026-03-26T15:16:11.987Z</time></trkpt><trkpt lat="44.9067117" lon="9.6044933"><ele>220.0</ele><time>2026-03-26T15:16:12.986Z</time></trkpt><trkpt lat="44.9067967" lon="9.6046633"><ele>220.0</ele><time>2026-03-26T15:16:13.987Z</time></trkpt><trkpt lat="44.9068883" lon="9.6048367"><ele>220.0</ele><time>2026-03-26T15:16:14.987Z</time></trkpt><trkpt lat="44.90698" lon="9.605015"><ele>217.33333333333331</ele><time>2026-03-26T15:16:15.988Z</time></trkpt><trkpt lat="44.9070717" lon="9.6051983"><ele>214.66666666666669</ele><time>2026-03-26T15:16:16.987Z</time></trkpt><trkpt lat="44.9071517" lon="9.60539"><ele>212.0</ele><time>2026-03-26T15:16:17.987Z</time></trkpt><trkpt lat="44.9072167" lon="9.6055867"><ele>212.0</ele><time>2026-03-26T15:16:18.986Z</time></trkpt><trkpt lat="44.9072683" lon="9.6057933"><ele>212.0</ele><time>2026-03-26T15:16:19.988Z</time></trkpt><trkpt lat="44.9073183" lon="9.6060083"><ele>212.0</ele><time>2026-03-26T15:16:20.987Z</time></trkpt><trkpt lat="44.9073683" lon="9.60623"><ele>212.0</ele><time>2026-03-26T15:16:21.987Z</time></trkpt><trkpt lat="44.907425" lon="9.6064417"><ele>212.0</ele><time>2026-03-26T15:16:22.987Z</time></trkpt><trkpt lat="44.9074933" lon="9.6066467"><ele>212.0</ele><time>2026-03-26T15:16:23.988Z</time></trkpt><trkpt lat="44.90758" lon="9.6068417"><ele>210.0</ele><time>2026-03-26T15:16:24.987Z</time></trkpt><trkpt lat="44.907685" lon="9.6070233"><ele>208.0</ele><time>2026-03-26T15:16:25.988Z</time></trkpt><trkpt lat="44.9078117" lon="9.6071883"><ele>206.0</ele><time>2026-03-26T15:16:26.99Z</time></trkpt><trkpt lat="44.9079567" lon="9.60734"><ele>206.0</ele><time>2026-03-26T15:16:27.987Z</time></trkpt><trkpt lat="44.9081083" lon="9.607475"><ele>206.0</ele><time>2026-03-26T15:16:28.988Z</time></trkpt><trkpt lat="44.9082583" lon="9.6076017"><ele>206.0</ele><time>2026-03-26T15:16:29.988Z</time></trkpt><trkpt lat="44.908405" lon="9.6077283"><ele>203.33333333333334</ele><time>2026-03-26T15:16:30.986Z</time></trkpt><trkpt lat="44.908545" lon="9.607855"><ele>200.66666666666669</ele><time>2026-03-26T15:16:31.989Z</time></trkpt><trkpt lat="44.9086833" lon="9.60798"><ele>198.0</ele><time>2026-03-26T15:16:32.988Z</time></trkpt><trkpt lat="44.9088217" lon="9.6081033"><ele>198.0</ele><time>2026-03-26T15:16:33.987Z</time></trkpt><trkpt lat="44.90896" lon="9.6082233"><ele>198.0</ele><time>2026-03-26T15:16:34.987Z</time></trkpt><trkpt lat="44.9091017" lon="9.608345"><ele>198.0</ele><time>2026-03-26T15:16:35.989Z</time></trkpt><trkpt lat="44.909245" lon="9.6084717"><ele>195.33333333333334</ele><time>2026-03-26T15:16:36.987Z</time></trkpt><trkpt lat="44.90939" lon="9.6085967"><ele>192.66666666666669</ele><time>2026-03-26T15:16:37.988Z</time></trkpt><trkpt lat="44.909535" lon="9.6087233"><ele>190.0</ele><time>2026-03-26T15:16:38.988Z</time></trkpt><trkpt lat="44.9096767" lon="9.60885"><ele>190.0</ele><time>2026-03-26T15:16:39.987Z</time></trkpt><trkpt lat="44.909815" lon="9.608975"><ele>190.0</ele><time>2026-03-26T15:16:40.987Z</time></trkpt><trkpt lat="44.90995" lon="9.609095"><ele>190.0</ele><time>2026-03-26T15:16:41.987Z</time></trkpt><trkpt lat="44.9100817" lon="9.6092117"><ele>187.5</ele><time>2026-03-26T15:16:42.987Z</time></trkpt><trkpt lat="44.91021" lon="9.609325"><ele>185.0</ele><time>2026-03-26T15:16:43.986Z</time></trkpt><trkpt lat="44.9103383" lon="9.6094383"><ele>182.5</ele><time>2026-03-26T15:16:44.987Z</time></trkpt><trkpt lat="44.9104667" lon="9.6095383"><ele>180.0</ele><time>2026-03-26T15:16:45.987Z</time></trkpt><trkpt lat="44.9106" lon="9.60962"><ele>180.0</ele><time>2026-03-26T15:16:46.986Z</time></trkpt><trkpt lat="44.9107383" lon="9.6096683"><ele>180.0</ele><time>2026-03-26T15:16:47.988Z</time></trkpt><trkpt lat="44.9108783" lon="9.6096817"><ele>180.0</ele><time>2026-03-26T15:16:48.987Z</time></trkpt><trkpt lat="44.9110183" lon="9.6096683"><ele>180.0</ele><time>2026-03-26T15:16:49.987Z</time></trkpt><trkpt lat="44.9111617" lon="9.6096267"><ele>177.0</ele><time>2026-03-26T15:16:50.987Z</time></trkpt><trkpt lat="44.9113033" lon="9.609555"><ele>174.0</ele><time>2026-03-26T15:16:51.987Z</time></trkpt><trkpt lat="44.9114417" lon="9.6094483"><ele>171.0</ele><time>2026-03-26T15:16:52.987Z</time></trkpt><trkpt lat="44.911575" lon="9.6093217"><ele>171.0</ele><time>2026-03-26T15:16:53.988Z</time></trkpt><trkpt lat="44.9117117" lon="9.6091867"><ele>171.0</ele><time>2026-03-26T15:16:54.988Z</time></trkpt><trkpt lat="44.9118483" lon="9.6090517"><ele>171.0</ele><time>2026-03-26T15:16:55.987Z</time></trkpt><trkpt lat="44.9119833" lon="9.6089183"><ele>169.0</ele><time>2026-03-26T15:16:56.988Z</time></trkpt><trkpt lat="44.91212" lon="9.6087867"><ele>167.0</ele><time>2026-03-26T15:16:57.987Z</time></trkpt><trkpt lat="44.9122533" lon="9.6086567"><ele>165.0</ele><time>2026-03-26T15:16:58.986Z</time></trkpt><trkpt lat="44.9123817" lon="9.6085283"><ele>165.0</ele><time>2026-03-26T15:16:59.987Z</time></trkpt><trkpt lat="44.9125167" lon="9.6083983"><ele>165.0</ele><time>2026-03-26T15:17:00.987Z</time></trkpt><trkpt lat="44.9126533" lon="9.6082667"><ele>165.0</ele><time>2026-03-26T15:17:01.986Z</time></trkpt><trkpt lat="44.91279" lon="9.6081317"><ele>163.66666666666666</ele><time>2026-03-26T15:17:02.987Z</time></trkpt><trkpt lat="44.91293" lon="9.6079967"><ele>162.33333333333331</ele><time>2026-03-26T15:17:03.986Z</time></trkpt><trkpt lat="44.9130717" lon="9.6078617"><ele>161.0</ele><time>2026-03-26T15:17:04.987Z</time></trkpt><trkpt lat="44.9132167" lon="9.60773"><ele>160.33333333333331</ele><time>2026-03-26T15:17:05.986Z</time></trkpt><trkpt lat="44.913355" lon="9.6075967"><ele>159.66666666666666</ele><time>2026-03-26T15:17:06.987Z</time></trkpt><trkpt lat="44.9134917" lon="9.6074633"><ele>159.0</ele><time>2026-03-26T15:17:07.986Z</time></trkpt><trkpt lat="44.9136267" lon="9.60733"><ele>157.33333333333334</ele><time>2026-03-26T15:17:08.987Z</time></trkpt><trkpt lat="44.9137633" lon="9.6072033"><ele>155.66666666666669</ele><time>2026-03-26T15:17:09.986Z</time></trkpt><trkpt lat="44.9139017" lon="9.6070967"><ele>154.0</ele><time>2026-03-26T15:17:10.987Z</time></trkpt><trkpt lat="44.91404" lon="9.6070183"><ele>154.0</ele><time>2026-03-26T15:17:11.988Z</time></trkpt><trkpt lat="44.9141883" lon="9.6069683"><ele>154.0</ele><time>2026-03-26T15:17:12.987Z</time></trkpt><trkpt lat="44.9143483" lon="9.6069267"><ele>154.0</ele><time>2026-03-26T15:17:13.988Z</time></trkpt><trkpt lat="44.9145017" lon="9.606885"><ele>153.25</ele><time>2026-03-26T15:17:14.988Z</time></trkpt><trkpt lat="44.9146483" lon="9.6068417"><ele>152.5</ele><time>2026-03-26T15:17:15.986Z</time></trkpt><trkpt lat="44.9147867" lon="9.6067967"><ele>151.75</ele><time>2026-03-26T15:17:16.987Z</time></trkpt><trkpt lat="44.91492" lon="9.6067567"><ele>151.0</ele><time>2026-03-26T15:17:17.987Z</time></trkpt><trkpt lat="44.9150517" lon="9.6067183"><ele>150.0</ele><time>2026-03-26T15:17:18.988Z</time></trkpt><trkpt lat="44.9151833" lon="9.6066783"><ele>149.0</ele><time>2026-03-26T15:17:19.988Z</time></trkpt><trkpt lat="44.91532" lon="9.6066367"><ele>148.0</ele><time>2026-03-26T15:17:20.986Z</time></trkpt><trkpt lat="44.91546" lon="9.6065917"><ele>147.0</ele><time>2026-03-26T15:17:21.987Z</time></trkpt><trkpt lat="44.9156067" lon="9.6065433"><ele>147.0</ele><time>2026-03-26T15:17:22.987Z</time></trkpt><trkpt lat="44.9157567" lon="9.606495"><ele>147.0</ele><time>2026-03-26T15:17:23.987Z</time></trkpt><trkpt lat="44.915905" lon="9.606445"><ele>147.0</ele><time>2026-03-26T15:17:24.986Z</time></trkpt><trkpt lat="44.9160517" lon="9.6063983"><ele>146.25</ele><time>2026-03-26T15:17:25.986Z</time></trkpt><trkpt lat="44.91619" lon="9.6063533"><ele>145.5</ele><time>2026-03-26T15:17:26.988Z</time></trkpt><trkpt lat="44.9163217" lon="9.6063117"><ele>144.75</ele><time>2026-03-26T15:17:27.987Z</time></trkpt><trkpt lat="44.9164483" lon="9.6062717"><ele>144.0</ele><time>2026-03-26T15:17:28.987Z</time></trkpt><trkpt lat="44.9165683" lon="9.6062317"><ele>144.0</ele><time>2026-03-26T15:17:29.987Z</time></trkpt><trkpt lat="44.91668" lon="9.6061883"><ele>144.0</ele><time>2026-03-26T15:17:30.988Z</time></trkpt><trkpt lat="44.916785" lon="9.6061533"><ele>144.0</ele><time>2026-03-26T15:17:31.987Z</time></trkpt><trkpt lat="44.9168817" lon="9.606135"><ele>144.0</ele><time>2026-03-26T15:17:32.987Z</time></trkpt><trkpt lat="44.9169717" lon="9.6061533"><ele>144.0</ele><time>2026-03-26T15:17:33.986Z</time></trkpt><trkpt lat="44.9170583" lon="9.6062117"><ele>143.25</ele><time>2026-03-26T15:17:34.987Z</time></trkpt><trkpt lat="44.9171483" lon="9.6063083"><ele>142.5</ele><time>2026-03-26T15:17:35.986Z</time></trkpt><trkpt lat="44.91725" lon="9.606425"><ele>141.75</ele><time>2026-03-26T15:17:36.987Z</time></trkpt><trkpt lat="44.9173667" lon="9.6065567"><ele>141.0</ele><time>2026-03-26T15:17:37.987Z</time></trkpt><trkpt lat="44.9174917" lon="9.6066917"><ele>140.5</ele><time>2026-03-26T15:17:38.987Z</time></trkpt><trkpt lat="44.9176167" lon="9.6068117"><ele>140.0</ele><time>2026-03-26T15:17:39.987Z</time></trkpt><trkpt lat="44.9177383" lon="9.6069133"><ele>139.5</ele><time>2026-03-26T15:17:40.987Z</time></trkpt><trkpt lat="44.91786" lon="9.607005"><ele>139.0</ele><time>2026-03-26T15:17:41.987Z</time></trkpt><trkpt lat="44.9179833" lon="9.607085"><ele>139.0</ele><time>2026-03-26T15:17:42.987Z</time></trkpt><trkpt lat="44.9181133" lon="9.607175"><ele>139.0</ele><time>2026-03-26T15:17:43.987Z</time></trkpt><trkpt lat="44.9182483" lon="9.6072583"><ele>139.0</ele><time>2026-03-26T15:17:44.988Z</time></trkpt><trkpt lat="44.9183883" lon="9.6073467"><ele>139.0</ele><time>2026-03-26T15:17:45.991Z</time></trkpt><trkpt lat="44.9185283" lon="9.6074433"><ele>138.0</ele><time>2026-03-26T15:17:46.985Z</time></trkpt><trkpt lat="44.918675" lon="9.6075417"><ele>137.0</ele><time>2026-03-26T15:17:47.987Z</time></trkpt><trkpt lat="44.91882" lon="9.6076367"><ele>136.0</ele><time>2026-03-26T15:17:48.987Z</time></trkpt><trkpt lat="44.918965" lon="9.607735"><ele>136.33333333333334</ele><time>2026-03-26T15:17:49.988Z</time></trkpt><trkpt lat="44.9191083" lon="9.6078333"><ele>136.66666666666666</ele><time>2026-03-26T15:17:50.987Z</time></trkpt><trkpt lat="44.9192517" lon="9.6079317"><ele>137.0</ele><time>2026-03-26T15:17:51.987Z</time></trkpt><trkpt lat="44.91939" lon="9.608025"><ele>136.33333333333331</ele><time>2026-03-26T15:17:52.99Z</time></trkpt><trkpt lat="44.9195283" lon="9.6081183"><ele>135.66666666666666</ele><time>2026-03-26T15:17:53.988Z</time></trkpt><trkpt lat="44.919665" lon="9.608215"><ele>135.0</ele><time>2026-03-26T15:17:54.987Z</time></trkpt><trkpt lat="44.9198033" lon="9.608315"><ele>135.0</ele><time>2026-03-26T15:17:55.99Z</time></trkpt><trkpt lat="44.9199417" lon="9.60842"><ele>135.0</ele><time>2026-03-26T15:17:56.988Z</time></trkpt><trkpt lat="44.92008" lon="9.608535"><ele>135.0</ele><time>2026-03-26T15:17:57.987Z</time></trkpt><trkpt lat="44.9202167" lon="9.6086583"><ele>134.75</ele><time>2026-03-26T15:17:58.987Z</time></trkpt><trkpt lat="44.920345" lon="9.608785"><ele>134.5</ele><time>2026-03-26T15:17:59.986Z</time></trkpt><trkpt lat="44.920465" lon="9.608905"><ele>134.25</ele><time>2026-03-26T15:18:00.985Z</time></trkpt><trkpt lat="44.920575" lon="9.609025"><ele>134.0</ele><time>2026-03-26T15:18:01.99Z</time></trkpt><trkpt lat="44.9206783" lon="9.609135"><ele>134.0</ele><time>2026-03-26T15:18:02.989Z</time></trkpt><trkpt lat="44.920775" lon="9.6092467"><ele>134.0</ele><time>2026-03-26T15:18:03.987Z</time></trkpt><trkpt lat="44.9208767" lon="9.6093683"><ele>134.0</ele><time>2026-03-26T15:18:04.987Z</time></trkpt><trkpt lat="44.9209767" lon="9.6094767"><ele>134.0</ele><time>2026-03-26T15:18:05.987Z</time></trkpt><trkpt lat="44.921075" lon="9.6095833"><ele>133.66666666666666</ele><time>2026-03-26T15:18:06.987Z</time></trkpt><trkpt lat="44.9211667" lon="9.609685"><ele>133.33333333333331</ele><time>2026-03-26T15:18:07.987Z</time></trkpt><trkpt lat="44.921245" lon="9.6097683"><ele>133.0</ele><time>2026-03-26T15:18:08.988Z</time></trkpt><trkpt lat="44.9213" lon="9.609845"><ele>132.66666666666666</ele><time>2026-03-26T15:18:09.988Z</time></trkpt><trkpt lat="44.92133" lon="9.609925"><ele>132.33333333333334</ele><time>2026-03-26T15:18:10.988Z</time></trkpt><trkpt lat="44.9213333" lon="9.610015"><ele>132.0</ele><time>2026-03-26T15:18:11.989Z</time></trkpt><trkpt lat="44.921315" lon="9.6101067"><ele>132.0</ele><time>2026-03-26T15:18:12.989Z</time></trkpt><trkpt lat="44.9212817" lon="9.6102017"><ele>132.0</ele><time>2026-03-26T15:18:13.987Z</time></trkpt><trkpt lat="44.9212533" lon="9.610295"><ele>132.0</ele><time>2026-03-26T15:18:14.987Z</time></trkpt><trkpt lat="44.9212367" lon="9.6103917"><ele>132.0</ele><time>2026-03-26T15:18:15.986Z</time></trkpt><trkpt lat="44.9212367" lon="9.6104833"><ele>132.0</ele><time>2026-03-26T15:18:16.987Z</time></trkpt><trkpt lat="44.9212467" lon="9.6105733"><ele>132.0</ele><time>2026-03-26T15:18:17.988Z</time></trkpt><trkpt lat="44.921295" lon="9.6107283"><ele>131.75</ele><time>2026-03-26T15:18:19.988Z</time></trkpt><trkpt lat="44.9213833" lon="9.610835"><ele>131.5</ele><time>2026-03-26T15:18:21.988Z</time></trkpt><trkpt lat="44.92148" lon="9.6109383"><ele>131.25</ele><time>2026-03-26T15:18:23.988Z</time></trkpt><trkpt lat="44.92157" lon="9.6110367"><ele>131.0</ele><time>2026-03-26T15:18:25.987Z</time></trkpt><trkpt lat="44.9216617" lon="9.6110983"><ele>131.0</ele><time>2026-03-26T15:18:27.986Z</time></trkpt><trkpt lat="44.921745" lon="9.611075"><ele>131.0</ele><time>2026-03-26T15:18:29.988Z</time></trkpt><trkpt lat="44.921795" lon="9.611015"><ele>131.0</ele><time>2026-03-26T15:18:31.989Z</time></trkpt><trkpt lat="44.921795" lon="9.61092"><ele>131.0</ele><time>2026-03-26T15:18:35.986Z</time></trkpt><trkpt lat="44.9217217" lon="9.6108833"><ele>131.0</ele><time>2026-03-26T15:18:41.987Z</time></trkpt><trkpt lat="44.9216667" lon="9.610795"><ele>131.0</ele><time>2026-03-26T15:18:43.987Z</time></trkpt><trkpt lat="44.9215917" lon="9.61069"><ele>131.0</ele><time>2026-03-26T15:18:45.987Z</time></trkpt><trkpt lat="44.921515" lon="9.6106133"><ele>131.0</ele><time>2026-03-26T15:18:47.987Z</time></trkpt><trkpt lat="44.9214367" lon="9.6105667"><ele>131.0</ele><time>2026-03-26T15:18:49.986Z</time></trkpt><trkpt lat="44.9213617" lon="9.6106033"><ele>131.0</ele><time>2026-03-26T15:18:52.986Z</time></trkpt></trkseg></trk></gpx>